<?xml version="1.0" encoding="UTF-8"?>
<gpx version="1.1" creator="https://www.youtrack.es" xsi:schemaLocation="http://www.topografix.com/GPX/1/1 http://www.topografix.com/GPX/1/1/gpx.xsd http://www.garmin.com/xmlschemas/GpxExtensions/v3 http://www.garmin.com/xmlschemas/GpxExtensionsv3.xsd http://www.garmin.com/xmlschemas/TrackPointExtension/v1 http://www.garmin.com/xmlschemas/TrackPointExtensionv1.xsd" xmlns:gpxtpx="http://www.garmin.com/xmlschemas/TrackPointExtension/v1" xmlns:gpxx="http://www.garmin.com/xmlschemas/GpxExtensions/v3" xmlns:xsi="http://www.w3.org/2001/XMLSchema-instance">
  <metadata>
    <link href="https://www.youtrack.es">
      <text>YouTrack.es</text>
    </link>
    <time>2026-05-07T22:28:43Z</time>
  </metadata>
  <trk>
    <src>https://www.youtrack.es</src>
    <link href="https://www.youtrack.es/ruta/21647-domselaar">
      <text>YouTrack.es</text>
    </link>
    <trkseg>
      <trkpt lat="-34.89509" lon="-58.02379">
        <ele>-44.683727</ele>
        <time>2021-05-01T12:09:16Z</time>
      </trkpt>
      <trkpt lat="-34.895123" lon="-58.02383">
        <ele>-44.864365</ele>
        <time>2021-05-01T12:09:21Z</time>
      </trkpt>
      <trkpt lat="-34.89514" lon="-58.02379">
        <ele>-43.437275</ele>
        <time>2021-05-01T12:09:37Z</time>
      </trkpt>
      <trkpt lat="-34.895096" lon="-58.023777">
        <ele>-42.343315</ele>
        <time>2021-05-01T12:09:37Z</time>
      </trkpt>
      <trkpt lat="-34.895184" lon="-58.023827">
        <ele>-41.797318</ele>
        <time>2021-05-01T12:09:39Z</time>
      </trkpt>
      <trkpt lat="-34.895218" lon="-58.023865">
        <ele>-41.84449</ele>
        <time>2021-05-01T12:09:41Z</time>
      </trkpt>
      <trkpt lat="-34.895264" lon="-58.0239">
        <ele>-41.603603</ele>
        <time>2021-05-01T12:09:43Z</time>
      </trkpt>
      <trkpt lat="-34.895306" lon="-58.02392">
        <ele>-41.61364</ele>
        <time>2021-05-01T12:09:45Z</time>
      </trkpt>
      <trkpt lat="-34.89534" lon="-58.02397">
        <ele>-41.213165</ele>
        <time>2021-05-01T12:09:47Z</time>
      </trkpt>
      <trkpt lat="-34.89539" lon="-58.024017">
        <ele>-41.053574</ele>
        <time>2021-05-01T12:09:49Z</time>
      </trkpt>
      <trkpt lat="-34.895462" lon="-58.02408">
        <ele>-40.959225</ele>
        <time>2021-05-01T12:09:51Z</time>
      </trkpt>
      <trkpt lat="-34.895496" lon="-58.024113">
        <ele>-40.32687</ele>
        <time>2021-05-01T12:09:52Z</time>
      </trkpt>
      <trkpt lat="-34.895535" lon="-58.024147">
        <ele>-40.147198</ele>
        <time>2021-05-01T12:09:53Z</time>
      </trkpt>
      <trkpt lat="-34.895576" lon="-58.02419">
        <ele>-40.081955</ele>
        <time>2021-05-01T12:09:54Z</time>
      </trkpt>
      <trkpt lat="-34.89562" lon="-58.024235">
        <ele>-40.01671</ele>
        <time>2021-05-01T12:09:55Z</time>
      </trkpt>
      <trkpt lat="-34.89566" lon="-58.02428">
        <ele>-39.72662</ele>
        <time>2021-05-01T12:09:56Z</time>
      </trkpt>
      <trkpt lat="-34.895702" lon="-58.02433">
        <ele>-39.563004</ele>
        <time>2021-05-01T12:09:57Z</time>
      </trkpt>
      <trkpt lat="-34.895752" lon="-58.024376">
        <ele>-39.015934</ele>
        <time>2021-05-01T12:09:58Z</time>
      </trkpt>
      <trkpt lat="-34.895798" lon="-58.024418">
        <ele>-38.648537</ele>
        <time>2021-05-01T12:09:59Z</time>
      </trkpt>
      <trkpt lat="-34.895847" lon="-58.02446">
        <ele>-38.575256</ele>
        <time>2021-05-01T12:10:00Z</time>
      </trkpt>
      <trkpt lat="-34.895897" lon="-58.0245">
        <ele>-38.304222</ele>
        <time>2021-05-01T12:10:01Z</time>
      </trkpt>
      <trkpt lat="-34.89595" lon="-58.024544">
        <ele>-37.797276</ele>
        <time>2021-05-01T12:10:02Z</time>
      </trkpt>
      <trkpt lat="-34.896" lon="-58.024586">
        <ele>-38.024147</ele>
        <time>2021-05-01T12:10:03Z</time>
      </trkpt>
      <trkpt lat="-34.896053" lon="-58.024628">
        <ele>-38.114494</ele>
        <time>2021-05-01T12:10:04Z</time>
      </trkpt>
      <trkpt lat="-34.896103" lon="-58.02467">
        <ele>-38.36345</ele>
        <time>2021-05-01T12:10:05Z</time>
      </trkpt>
      <trkpt lat="-34.896156" lon="-58.02471">
        <ele>-38.370476</ele>
        <time>2021-05-01T12:10:06Z</time>
      </trkpt>
      <trkpt lat="-34.89621" lon="-58.024757">
        <ele>-38.257042</ele>
        <time>2021-05-01T12:10:07Z</time>
      </trkpt>
      <trkpt lat="-34.896263" lon="-58.0248">
        <ele>-37.100582</ele>
        <time>2021-05-01T12:10:08Z</time>
      </trkpt>
      <trkpt lat="-34.896313" lon="-58.024845">
        <ele>-37.03633</ele>
        <time>2021-05-01T12:10:09Z</time>
      </trkpt>
      <trkpt lat="-34.896366" lon="-58.024887">
        <ele>-36.78435</ele>
        <time>2021-05-01T12:10:10Z</time>
      </trkpt>
      <trkpt lat="-34.89642" lon="-58.02493">
        <ele>-36.42997</ele>
        <time>2021-05-01T12:10:11Z</time>
      </trkpt>
      <trkpt lat="-34.89647" lon="-58.02497">
        <ele>-36.041447</ele>
        <time>2021-05-01T12:10:12Z</time>
      </trkpt>
      <trkpt lat="-34.896523" lon="-58.025017">
        <ele>-35.85371</ele>
        <time>2021-05-01T12:10:13Z</time>
      </trkpt>
      <trkpt lat="-34.896572" lon="-58.02506">
        <ele>-35.919968</ele>
        <time>2021-05-01T12:10:14Z</time>
      </trkpt>
      <trkpt lat="-34.896626" lon="-58.0251">
        <ele>-35.43004</ele>
        <time>2021-05-01T12:10:15Z</time>
      </trkpt>
      <trkpt lat="-34.896675" lon="-58.02514">
        <ele>-35.484253</ele>
        <time>2021-05-01T12:10:16Z</time>
      </trkpt>
      <trkpt lat="-34.896725" lon="-58.025177">
        <ele>-35.225227</ele>
        <time>2021-05-01T12:10:17Z</time>
      </trkpt>
      <trkpt lat="-34.896774" lon="-58.025215">
        <ele>-34.41801</ele>
        <time>2021-05-01T12:10:18Z</time>
      </trkpt>
      <trkpt lat="-34.89682" lon="-58.025257">
        <ele>-34.251343</ele>
        <time>2021-05-01T12:10:19Z</time>
      </trkpt>
      <trkpt lat="-34.89687" lon="-58.0253">
        <ele>-34.069614</ele>
        <time>2021-05-01T12:10:20Z</time>
      </trkpt>
      <trkpt lat="-34.896915" lon="-58.025337">
        <ele>-31.664827</ele>
        <time>2021-05-01T12:10:21Z</time>
      </trkpt>
      <trkpt lat="-34.89696" lon="-58.025375">
        <ele>-29.336103</ele>
        <time>2021-05-01T12:10:22Z</time>
      </trkpt>
      <trkpt lat="-34.897003" lon="-58.025414">
        <ele>-29.461634</ele>
        <time>2021-05-01T12:10:23Z</time>
      </trkpt>
      <trkpt lat="-34.89705" lon="-58.025448">
        <ele>-30.567274</ele>
        <time>2021-05-01T12:10:24Z</time>
      </trkpt>
      <trkpt lat="-34.897087" lon="-58.02548">
        <ele>-30.337315</ele>
        <time>2021-05-01T12:10:25Z</time>
      </trkpt>
      <trkpt lat="-34.89713" lon="-58.025513">
        <ele>-29.912533</ele>
        <time>2021-05-01T12:10:26Z</time>
      </trkpt>
      <trkpt lat="-34.897167" lon="-58.025543">
        <ele>-29.578125</ele>
        <time>2021-05-01T12:10:27Z</time>
      </trkpt>
      <trkpt lat="-34.897205" lon="-58.025574">
        <ele>-30.37447</ele>
        <time>2021-05-01T12:10:28Z</time>
      </trkpt>
      <trkpt lat="-34.897243" lon="-58.025604">
        <ele>-27.971292</ele>
        <time>2021-05-01T12:10:29Z</time>
      </trkpt>
      <trkpt lat="-34.897285" lon="-58.02564">
        <ele>-24.563417</ele>
        <time>2021-05-01T12:10:30Z</time>
      </trkpt>
      <trkpt lat="-34.897324" lon="-58.025673">
        <ele>-24.148573</ele>
        <time>2021-05-01T12:10:31Z</time>
      </trkpt>
      <trkpt lat="-34.897366" lon="-58.025703">
        <ele>-23.613178</ele>
        <time>2021-05-01T12:10:32Z</time>
      </trkpt>
      <trkpt lat="-34.897404" lon="-58.025734">
        <ele>-22.707098</ele>
        <time>2021-05-01T12:10:33Z</time>
      </trkpt>
      <trkpt lat="-34.897446" lon="-58.02577">
        <ele>-20.521103</ele>
        <time>2021-05-01T12:10:34Z</time>
      </trkpt>
      <trkpt lat="-34.897488" lon="-58.0258">
        <ele>-20.020786</ele>
        <time>2021-05-01T12:10:35Z</time>
      </trkpt>
      <trkpt lat="-34.897526" lon="-58.02583">
        <ele>-20.169476</ele>
        <time>2021-05-01T12:10:36Z</time>
      </trkpt>
      <trkpt lat="-34.897564" lon="-58.02586">
        <ele>-21.1279</ele>
        <time>2021-05-01T12:10:37Z</time>
      </trkpt>
      <trkpt lat="-34.897602" lon="-58.02589">
        <ele>-20.913916</ele>
        <time>2021-05-01T12:10:38Z</time>
      </trkpt>
      <trkpt lat="-34.897667" lon="-58.025955">
        <ele>-20.677828</ele>
        <time>2021-05-01T12:10:40Z</time>
      </trkpt>
      <trkpt lat="-34.89774" lon="-58.026016">
        <ele>-21.092737</ele>
        <time>2021-05-01T12:10:42Z</time>
      </trkpt>
      <trkpt lat="-34.89778" lon="-58.02605">
        <ele>-21.066618</ele>
        <time>2021-05-01T12:10:43Z</time>
      </trkpt>
      <trkpt lat="-34.89782" lon="-58.026077">
        <ele>-21.34188</ele>
        <time>2021-05-01T12:10:44Z</time>
      </trkpt>
      <trkpt lat="-34.897858" lon="-58.02611">
        <ele>-20.176508</ele>
        <time>2021-05-01T12:10:45Z</time>
      </trkpt>
      <trkpt lat="-34.897896" lon="-58.026142">
        <ele>-19.784689</ele>
        <time>2021-05-01T12:10:46Z</time>
      </trkpt>
      <trkpt lat="-34.897934" lon="-58.026173">
        <ele>-19.544569</ele>
        <time>2021-05-01T12:10:47Z</time>
      </trkpt>
      <trkpt lat="-34.89797" lon="-58.026203">
        <ele>-18.94175</ele>
        <time>2021-05-01T12:10:48Z</time>
      </trkpt>
      <trkpt lat="-34.898006" lon="-58.026237">
        <ele>-18.932707</ele>
        <time>2021-05-01T12:10:49Z</time>
      </trkpt>
      <trkpt lat="-34.898045" lon="-58.026268">
        <ele>-19.124607</ele>
        <time>2021-05-01T12:10:50Z</time>
      </trkpt>
      <trkpt lat="-34.898083" lon="-58.0263">
        <ele>-19.068342</ele>
        <time>2021-05-01T12:10:51Z</time>
      </trkpt>
      <trkpt lat="-34.89812" lon="-58.02633">
        <ele>-18.9528</ele>
        <time>2021-05-01T12:10:52Z</time>
      </trkpt>
      <trkpt lat="-34.89816" lon="-58.02636">
        <ele>-19.295406</ele>
        <time>2021-05-01T12:10:53Z</time>
      </trkpt>
      <trkpt lat="-34.898197" lon="-58.026394">
        <ele>-20.010738</ele>
        <time>2021-05-01T12:10:54Z</time>
      </trkpt>
      <trkpt lat="-34.89824" lon="-58.026424">
        <ele>-20.947067</ele>
        <time>2021-05-01T12:10:55Z</time>
      </trkpt>
      <trkpt lat="-34.898277" lon="-58.02645">
        <ele>-21.786917</ele>
        <time>2021-05-01T12:10:56Z</time>
      </trkpt>
      <trkpt lat="-34.89832" lon="-58.026485">
        <ele>-22.441896</ele>
        <time>2021-05-01T12:10:57Z</time>
      </trkpt>
      <trkpt lat="-34.898357" lon="-58.02652">
        <ele>-21.292656</ele>
        <time>2021-05-01T12:10:58Z</time>
      </trkpt>
      <trkpt lat="-34.898396" lon="-58.02655">
        <ele>-20.566313</ele>
        <time>2021-05-01T12:10:59Z</time>
      </trkpt>
      <trkpt lat="-34.898434" lon="-58.026585">
        <ele>-20.314146</ele>
        <time>2021-05-01T12:11:00Z</time>
      </trkpt>
      <trkpt lat="-34.898476" lon="-58.02662">
        <ele>-21.385078</ele>
        <time>2021-05-01T12:11:01Z</time>
      </trkpt>
      <trkpt lat="-34.898514" lon="-58.02665">
        <ele>-20.206648</ele>
        <time>2021-05-01T12:11:02Z</time>
      </trkpt>
      <trkpt lat="-34.898556" lon="-58.026684">
        <ele>-19.523472</ele>
        <time>2021-05-01T12:11:03Z</time>
      </trkpt>
      <trkpt lat="-34.898594" lon="-58.02672">
        <ele>-20.046907</ele>
        <time>2021-05-01T12:11:04Z</time>
      </trkpt>
      <trkpt lat="-34.898632" lon="-58.026752">
        <ele>-18.875439</ele>
        <time>2021-05-01T12:11:05Z</time>
      </trkpt>
      <trkpt lat="-34.898674" lon="-58.026783">
        <ele>-17.322092</ele>
        <time>2021-05-01T12:11:06Z</time>
      </trkpt>
      <trkpt lat="-34.898716" lon="-58.02681">
        <ele>-17.643621</ele>
        <time>2021-05-01T12:11:07Z</time>
      </trkpt>
      <trkpt lat="-34.898758" lon="-58.026844">
        <ele>-16.342403</ele>
        <time>2021-05-01T12:11:08Z</time>
      </trkpt>
      <trkpt lat="-34.898796" lon="-58.02688">
        <ele>-15.976643</ele>
        <time>2021-05-01T12:11:09Z</time>
      </trkpt>
      <trkpt lat="-34.898834" lon="-58.026913">
        <ele>-15.422965</ele>
        <time>2021-05-01T12:11:10Z</time>
      </trkpt>
      <trkpt lat="-34.898872" lon="-58.026943">
        <ele>-14.968758</ele>
        <time>2021-05-01T12:11:11Z</time>
      </trkpt>
      <trkpt lat="-34.89891" lon="-58.026978">
        <ele>-14.327627</ele>
        <time>2021-05-01T12:11:12Z</time>
      </trkpt>
      <trkpt lat="-34.89895" lon="-58.02701">
        <ele>-14.521576</ele>
        <time>2021-05-01T12:11:13Z</time>
      </trkpt>
      <trkpt lat="-34.899025" lon="-58.027073">
        <ele>-14.576846</ele>
        <time>2021-05-01T12:11:15Z</time>
      </trkpt>
      <trkpt lat="-34.89906" lon="-58.027103">
        <ele>-14.543684</ele>
        <time>2021-05-01T12:11:16Z</time>
      </trkpt>
      <trkpt lat="-34.899097" lon="-58.027134">
        <ele>-14.327627</ele>
        <time>2021-05-01T12:11:17Z</time>
      </trkpt>
      <trkpt lat="-34.899136" lon="-58.02717">
        <ele>-15.154662</ele>
        <time>2021-05-01T12:11:18Z</time>
      </trkpt>
      <trkpt lat="-34.899174" lon="-58.0272">
        <ele>-15.785721</ele>
        <time>2021-05-01T12:11:19Z</time>
      </trkpt>
      <trkpt lat="-34.899216" lon="-58.027233">
        <ele>-16.410732</ele>
        <time>2021-05-01T12:11:20Z</time>
      </trkpt>
      <trkpt lat="-34.899254" lon="-58.027264">
        <ele>-16.916155</ele>
        <time>2021-05-01T12:11:21Z</time>
      </trkpt>
      <trkpt lat="-34.899292" lon="-58.027294">
        <ele>-18.474552</ele>
        <time>2021-05-01T12:11:22Z</time>
      </trkpt>
      <trkpt lat="-34.89933" lon="-58.027332">
        <ele>-20.668785</ele>
        <time>2021-05-01T12:11:23Z</time>
      </trkpt>
      <trkpt lat="-34.89937" lon="-58.027367">
        <ele>-20.389494</ele>
        <time>2021-05-01T12:11:24Z</time>
      </trkpt>
      <trkpt lat="-34.89941" lon="-58.027397">
        <ele>-18.946774</ele>
        <time>2021-05-01T12:11:25Z</time>
      </trkpt>
      <trkpt lat="-34.899452" lon="-58.02743">
        <ele>-18.004332</ele>
        <time>2021-05-01T12:11:26Z</time>
      </trkpt>
      <trkpt lat="-34.89949" lon="-58.027466">
        <ele>-17.011612</ele>
        <time>2021-05-01T12:11:27Z</time>
      </trkpt>
      <trkpt lat="-34.89953" lon="-58.0275">
        <ele>-17.99328</ele>
        <time>2021-05-01T12:11:28Z</time>
      </trkpt>
      <trkpt lat="-34.89957" lon="-58.027534">
        <ele>-19.538542</ele>
        <time>2021-05-01T12:11:29Z</time>
      </trkpt>
      <trkpt lat="-34.89961" lon="-58.02757">
        <ele>-19.681206</ele>
        <time>2021-05-01T12:11:30Z</time>
      </trkpt>
      <trkpt lat="-34.89965" lon="-58.027603">
        <ele>-18.998013</ele>
        <time>2021-05-01T12:11:31Z</time>
      </trkpt>
      <trkpt lat="-34.89969" lon="-58.027637">
        <ele>-20.5422</ele>
        <time>2021-05-01T12:11:32Z</time>
      </trkpt>
      <trkpt lat="-34.89973" lon="-58.027668">
        <ele>-19.920319</ele>
        <time>2021-05-01T12:11:33Z</time>
      </trkpt>
      <trkpt lat="-34.899773" lon="-58.027706">
        <ele>-19.438072</ele>
        <time>2021-05-01T12:11:34Z</time>
      </trkpt>
      <trkpt lat="-34.899815" lon="-58.027737">
        <ele>-18.774967</ele>
        <time>2021-05-01T12:11:35Z</time>
      </trkpt>
      <trkpt lat="-34.899857" lon="-58.02777">
        <ele>-18.222363</ele>
        <time>2021-05-01T12:11:36Z</time>
      </trkpt>
      <trkpt lat="-34.899895" lon="-58.027805">
        <ele>-17.62252</ele>
        <time>2021-05-01T12:11:37Z</time>
      </trkpt>
      <trkpt lat="-34.899937" lon="-58.027843">
        <ele>-17.954094</ele>
        <time>2021-05-01T12:11:38Z</time>
      </trkpt>
      <trkpt lat="-34.89998" lon="-58.027878">
        <ele>-17.859646</ele>
        <time>2021-05-01T12:11:39Z</time>
      </trkpt>
      <trkpt lat="-34.90002" lon="-58.027912">
        <ele>-16.860891</ele>
        <time>2021-05-01T12:11:40Z</time>
      </trkpt>
      <trkpt lat="-34.900063" lon="-58.02795">
        <ele>-16.468008</ele>
        <time>2021-05-01T12:11:41Z</time>
      </trkpt>
      <trkpt lat="-34.90011" lon="-58.027985">
        <ele>-16.340395</ele>
        <time>2021-05-01T12:11:42Z</time>
      </trkpt>
      <trkpt lat="-34.90015" lon="-58.028023">
        <ele>-16.0299</ele>
        <time>2021-05-01T12:11:43Z</time>
      </trkpt>
      <trkpt lat="-34.90019" lon="-58.028057">
        <ele>-15.56867</ele>
        <time>2021-05-01T12:11:44Z</time>
      </trkpt>
      <trkpt lat="-34.90023" lon="-58.028095">
        <ele>-16.120335</ele>
        <time>2021-05-01T12:11:45Z</time>
      </trkpt>
      <trkpt lat="-34.900272" lon="-58.02813">
        <ele>-16.676004</ele>
        <time>2021-05-01T12:11:46Z</time>
      </trkpt>
      <trkpt lat="-34.900314" lon="-58.028164">
        <ele>-16.30623</ele>
        <time>2021-05-01T12:11:47Z</time>
      </trkpt>
      <trkpt lat="-34.90036" lon="-58.0282">
        <ele>-16.155504</ele>
        <time>2021-05-01T12:11:48Z</time>
      </trkpt>
      <trkpt lat="-34.900402" lon="-58.028236">
        <ele>-15.903289</ele>
        <time>2021-05-01T12:11:49Z</time>
      </trkpt>
      <trkpt lat="-34.900444" lon="-58.02827">
        <ele>-15.782706</ele>
        <time>2021-05-01T12:11:50Z</time>
      </trkpt>
      <trkpt lat="-34.900486" lon="-58.028305">
        <ele>-15.919366</ele>
        <time>2021-05-01T12:11:51Z</time>
      </trkpt>
      <trkpt lat="-34.900528" lon="-58.028343">
        <ele>-15.53953</ele>
        <time>2021-05-01T12:11:52Z</time>
      </trkpt>
      <trkpt lat="-34.900574" lon="-58.028378">
        <ele>-15.157677</ele>
        <time>2021-05-01T12:11:53Z</time>
      </trkpt>
      <trkpt lat="-34.900616" lon="-58.02841">
        <ele>-14.247233</ele>
        <time>2021-05-01T12:11:54Z</time>
      </trkpt>
      <trkpt lat="-34.900654" lon="-58.028446">
        <ele>-13.525685</ele>
        <time>2021-05-01T12:11:55Z</time>
      </trkpt>
      <trkpt lat="-34.900696" lon="-58.02848">
        <ele>-14.196987</ele>
        <time>2021-05-01T12:11:56Z</time>
      </trkpt>
      <trkpt lat="-34.900734" lon="-58.02852">
        <ele>-13.195052</ele>
        <time>2021-05-01T12:11:57Z</time>
      </trkpt>
      <trkpt lat="-34.900776" lon="-58.028553">
        <ele>-12.828234</ele>
        <time>2021-05-01T12:11:58Z</time>
      </trkpt>
      <trkpt lat="-34.900818" lon="-58.028587">
        <ele>-11.93679</ele>
        <time>2021-05-01T12:11:59Z</time>
      </trkpt>
      <trkpt lat="-34.90086" lon="-58.028618">
        <ele>-11.444322</ele>
        <time>2021-05-01T12:12:00Z</time>
      </trkpt>
      <trkpt lat="-34.9009" lon="-58.028652">
        <ele>-11.369947</ele>
        <time>2021-05-01T12:12:01Z</time>
      </trkpt>
      <trkpt lat="-34.900944" lon="-58.028687">
        <ele>-10.695545</ele>
        <time>2021-05-01T12:12:02Z</time>
      </trkpt>
      <trkpt lat="-34.900986" lon="-58.02872">
        <ele>-10.056302</ele>
        <time>2021-05-01T12:12:03Z</time>
      </trkpt>
      <trkpt lat="-34.901028" lon="-58.02875">
        <ele>-9.740694</ele>
        <time>2021-05-01T12:12:04Z</time>
      </trkpt>
      <trkpt lat="-34.901073" lon="-58.028786">
        <ele>-9.851258</ele>
        <time>2021-05-01T12:12:05Z</time>
      </trkpt>
      <trkpt lat="-34.901115" lon="-58.02882">
        <ele>-9.985944</ele>
        <time>2021-05-01T12:12:06Z</time>
      </trkpt>
      <trkpt lat="-34.901154" lon="-58.02886">
        <ele>-10.13269</ele>
        <time>2021-05-01T12:12:07Z</time>
      </trkpt>
      <trkpt lat="-34.9012" lon="-58.028896">
        <ele>-10.299539</ele>
        <time>2021-05-01T12:12:08Z</time>
      </trkpt>
      <trkpt lat="-34.90124" lon="-58.028927">
        <ele>-10.281446</ele>
        <time>2021-05-01T12:12:09Z</time>
      </trkpt>
      <trkpt lat="-34.901287" lon="-58.028965">
        <ele>-11.588043</ele>
        <time>2021-05-01T12:12:10Z</time>
      </trkpt>
      <trkpt lat="-34.90133" lon="-58.029">
        <ele>-12.975966</ele>
        <time>2021-05-01T12:12:11Z</time>
      </trkpt>
      <trkpt lat="-34.90137" lon="-58.029034">
        <ele>-12.993052</ele>
        <time>2021-05-01T12:12:12Z</time>
      </trkpt>
      <trkpt lat="-34.901413" lon="-58.029068">
        <ele>-13.032246</ele>
        <time>2021-05-01T12:12:13Z</time>
      </trkpt>
      <trkpt lat="-34.90146" lon="-58.029106">
        <ele>-12.58</ele>
        <time>2021-05-01T12:12:14Z</time>
      </trkpt>
      <trkpt lat="-34.9015" lon="-58.029144">
        <ele>-11.008124</ele>
        <time>2021-05-01T12:12:15Z</time>
      </trkpt>
      <trkpt lat="-34.901543" lon="-58.02918">
        <ele>-10.596042</ele>
        <time>2021-05-01T12:12:16Z</time>
      </trkpt>
      <trkpt lat="-34.901585" lon="-58.029213">
        <ele>-10.135706</ele>
        <time>2021-05-01T12:12:17Z</time>
      </trkpt>
      <trkpt lat="-34.901627" lon="-58.02925">
        <ele>-11.106622</ele>
        <time>2021-05-01T12:12:18Z</time>
      </trkpt>
      <trkpt lat="-34.901672" lon="-58.029285">
        <ele>-10.934754</ele>
        <time>2021-05-01T12:12:19Z</time>
      </trkpt>
      <trkpt lat="-34.901714" lon="-58.02932">
        <ele>-10.843292</ele>
        <time>2021-05-01T12:12:20Z</time>
      </trkpt>
      <trkpt lat="-34.901756" lon="-58.029354">
        <ele>-10.865404</ele>
        <time>2021-05-01T12:12:21Z</time>
      </trkpt>
      <trkpt lat="-34.901802" lon="-58.029392">
        <ele>-10.399043</ele>
        <time>2021-05-01T12:12:22Z</time>
      </trkpt>
      <trkpt lat="-34.901844" lon="-58.029427">
        <ele>-10.735748</ele>
        <time>2021-05-01T12:12:23Z</time>
      </trkpt>
      <trkpt lat="-34.901886" lon="-58.029465">
        <ele>-10.435226</ele>
        <time>2021-05-01T12:12:24Z</time>
      </trkpt>
      <trkpt lat="-34.901928" lon="-58.0295">
        <ele>-9.648222</ele>
        <time>2021-05-01T12:12:25Z</time>
      </trkpt>
      <trkpt lat="-34.901974" lon="-58.029533">
        <ele>-9.724612</ele>
        <time>2021-05-01T12:12:26Z</time>
      </trkpt>
      <trkpt lat="-34.902016" lon="-58.029568">
        <ele>-9.458251</ele>
        <time>2021-05-01T12:12:27Z</time>
      </trkpt>
      <trkpt lat="-34.902058" lon="-58.029602">
        <ele>-10.360849</ele>
        <time>2021-05-01T12:12:28Z</time>
      </trkpt>
      <trkpt lat="-34.9021" lon="-58.029636">
        <ele>-10.218124</ele>
        <time>2021-05-01T12:12:29Z</time>
      </trkpt>
      <trkpt lat="-34.90214" lon="-58.02967">
        <ele>-10.875455</ele>
        <time>2021-05-01T12:12:30Z</time>
      </trkpt>
      <trkpt lat="-34.902184" lon="-58.029705">
        <ele>-11.662416</ele>
        <time>2021-05-01T12:12:31Z</time>
      </trkpt>
      <trkpt lat="-34.90222" lon="-58.02974">
        <ele>-11.143808</ele>
        <time>2021-05-01T12:12:32Z</time>
      </trkpt>
      <trkpt lat="-34.90226" lon="-58.029774">
        <ele>-10.94581</ele>
        <time>2021-05-01T12:12:33Z</time>
      </trkpt>
      <trkpt lat="-34.9023" lon="-58.029808">
        <ele>-12.001113</ele>
        <time>2021-05-01T12:12:34Z</time>
      </trkpt>
      <trkpt lat="-34.90234" lon="-58.029846">
        <ele>-11.855384</ele>
        <time>2021-05-01T12:12:35Z</time>
      </trkpt>
      <trkpt lat="-34.902374" lon="-58.02988">
        <ele>-11.331755</ele>
        <time>2021-05-01T12:12:36Z</time>
      </trkpt>
      <trkpt lat="-34.902412" lon="-58.029915">
        <ele>-12.67045</ele>
        <time>2021-05-01T12:12:37Z</time>
      </trkpt>
      <trkpt lat="-34.90245" lon="-58.02995">
        <ele>-11.840308</ele>
        <time>2021-05-01T12:12:38Z</time>
      </trkpt>
      <trkpt lat="-34.90249" lon="-58.029984">
        <ele>-10.613129</ele>
        <time>2021-05-01T12:12:39Z</time>
      </trkpt>
      <trkpt lat="-34.902527" lon="-58.030018">
        <ele>-9.943729</ele>
        <time>2021-05-01T12:12:40Z</time>
      </trkpt>
      <trkpt lat="-34.902565" lon="-58.030052">
        <ele>-11.855384</ele>
        <time>2021-05-01T12:12:41Z</time>
      </trkpt>
      <trkpt lat="-34.902603" lon="-58.03009">
        <ele>0.1750876</ele>
        <time>2021-05-01T12:12:42Z</time>
      </trkpt>
      <trkpt lat="-34.902637" lon="-58.03013">
        <ele>4.4683</ele>
        <time>2021-05-01T12:12:43Z</time>
      </trkpt>
      <trkpt lat="-34.90268" lon="-58.030163">
        <ele>8.042081</ele>
        <time>2021-05-01T12:12:44Z</time>
      </trkpt>
      <trkpt lat="-34.902718" lon="-58.030197">
        <ele>10.166705</ele>
        <time>2021-05-01T12:12:45Z</time>
      </trkpt>
      <trkpt lat="-34.902756" lon="-58.030235">
        <ele>10.696887</ele>
        <time>2021-05-01T12:12:46Z</time>
      </trkpt>
      <trkpt lat="-34.902794" lon="-58.03027">
        <ele>10.624452</ele>
        <time>2021-05-01T12:12:47Z</time>
      </trkpt>
      <trkpt lat="-34.902832" lon="-58.030308">
        <ele>9.831701</ele>
        <time>2021-05-01T12:12:48Z</time>
      </trkpt>
      <trkpt lat="-34.90287" lon="-58.030346">
        <ele>9.596296</ele>
        <time>2021-05-01T12:12:49Z</time>
      </trkpt>
      <trkpt lat="-34.90291" lon="-58.03038">
        <ele>11.922288</ele>
        <time>2021-05-01T12:12:50Z</time>
      </trkpt>
      <trkpt lat="-34.90295" lon="-58.03042">
        <ele>22.68114</ele>
        <time>2021-05-01T12:12:51Z</time>
      </trkpt>
      <trkpt lat="-34.902992" lon="-58.030457">
        <ele>33.2911</ele>
        <time>2021-05-01T12:12:52Z</time>
      </trkpt>
      <trkpt lat="-34.903034" lon="-58.030495">
        <ele>44.787724</ele>
        <time>2021-05-01T12:12:53Z</time>
      </trkpt>
      <trkpt lat="-34.903076" lon="-58.030537">
        <ele>49.392868</ele>
        <time>2021-05-01T12:12:54Z</time>
      </trkpt>
      <trkpt lat="-34.90312" lon="-58.03058">
        <ele>46.10367</ele>
        <time>2021-05-01T12:12:55Z</time>
      </trkpt>
      <trkpt lat="-34.90316" lon="-58.03062">
        <ele>28.160679</ele>
        <time>2021-05-01T12:12:56Z</time>
      </trkpt>
      <trkpt lat="-34.903202" lon="-58.030663">
        <ele>22.836157</ele>
        <time>2021-05-01T12:12:57Z</time>
      </trkpt>
      <trkpt lat="-34.903244" lon="-58.0307">
        <ele>25.152454</ele>
        <time>2021-05-01T12:12:58Z</time>
      </trkpt>
      <trkpt lat="-34.90329" lon="-58.030743">
        <ele>27.174002</ele>
        <time>2021-05-01T12:12:59Z</time>
      </trkpt>
      <trkpt lat="-34.903336" lon="-58.03078">
        <ele>38.245415</ele>
        <time>2021-05-01T12:13:00Z</time>
      </trkpt>
      <trkpt lat="-34.903378" lon="-58.030823">
        <ele>53.426422</ele>
        <time>2021-05-01T12:13:01Z</time>
      </trkpt>
      <trkpt lat="-34.90342" lon="-58.03087">
        <ele>66.93537</ele>
        <time>2021-05-01T12:13:02Z</time>
      </trkpt>
      <trkpt lat="-34.90347" lon="-58.030907">
        <ele>73.0553</ele>
        <time>2021-05-01T12:13:03Z</time>
      </trkpt>
      <trkpt lat="-34.903515" lon="-58.03095">
        <ele>76.6431</ele>
        <time>2021-05-01T12:13:04Z</time>
      </trkpt>
      <trkpt lat="-34.903557" lon="-58.03099">
        <ele>81.94009</ele>
        <time>2021-05-01T12:13:05Z</time>
      </trkpt>
      <trkpt lat="-34.903603" lon="-58.031033">
        <ele>88.5689</ele>
        <time>2021-05-01T12:13:06Z</time>
      </trkpt>
      <trkpt lat="-34.903645" lon="-58.031075">
        <ele>95.38347</ele>
        <time>2021-05-01T12:13:07Z</time>
      </trkpt>
      <trkpt lat="-34.90369" lon="-58.031116">
        <ele>88.3044</ele>
        <time>2021-05-01T12:13:08Z</time>
      </trkpt>
      <trkpt lat="-34.903736" lon="-58.03116">
        <ele>78.61279</ele>
        <time>2021-05-01T12:13:09Z</time>
      </trkpt>
      <trkpt lat="-34.90378" lon="-58.0312">
        <ele>69.98756</ele>
        <time>2021-05-01T12:13:10Z</time>
      </trkpt>
      <trkpt lat="-34.90383" lon="-58.031242">
        <ele>59.026432</ele>
        <time>2021-05-01T12:13:11Z</time>
      </trkpt>
      <trkpt lat="-34.903877" lon="-58.031284">
        <ele>46.820118</ele>
        <time>2021-05-01T12:13:12Z</time>
      </trkpt>
      <trkpt lat="-34.903923" lon="-58.03133">
        <ele>37.741776</ele>
        <time>2021-05-01T12:13:13Z</time>
      </trkpt>
      <trkpt lat="-34.90397" lon="-58.031372">
        <ele>31.223686</ele>
        <time>2021-05-01T12:13:14Z</time>
      </trkpt>
      <trkpt lat="-34.904015" lon="-58.031414">
        <ele>28.292576</ele>
        <time>2021-05-01T12:13:15Z</time>
      </trkpt>
      <trkpt lat="-34.904064" lon="-58.03146">
        <ele>19.693785</ele>
        <time>2021-05-01T12:13:16Z</time>
      </trkpt>
      <trkpt lat="-34.90411" lon="-58.031506">
        <ele>16.262037</ele>
        <time>2021-05-01T12:13:17Z</time>
      </trkpt>
      <trkpt lat="-34.904156" lon="-58.031548">
        <ele>18.93493</ele>
        <time>2021-05-01T12:13:18Z</time>
      </trkpt>
      <trkpt lat="-34.9042" lon="-58.03159">
        <ele>18.778936</ele>
        <time>2021-05-01T12:13:19Z</time>
      </trkpt>
      <trkpt lat="-34.904247" lon="-58.03163">
        <ele>18.456886</ele>
        <time>2021-05-01T12:13:20Z</time>
      </trkpt>
      <trkpt lat="-34.904293" lon="-58.031673">
        <ele>19.272083</ele>
        <time>2021-05-01T12:13:21Z</time>
      </trkpt>
      <trkpt lat="-34.90434" lon="-58.03172">
        <ele>18.125784</ele>
        <time>2021-05-01T12:13:22Z</time>
      </trkpt>
      <trkpt lat="-34.904385" lon="-58.03176">
        <ele>17.352894</ele>
        <time>2021-05-01T12:13:23Z</time>
      </trkpt>
      <trkpt lat="-34.904427" lon="-58.031803">
        <ele>16.497513</ele>
        <time>2021-05-01T12:13:24Z</time>
      </trkpt>
      <trkpt lat="-34.904472" lon="-58.031845">
        <ele>15.568707</ele>
        <time>2021-05-01T12:13:25Z</time>
      </trkpt>
      <trkpt lat="-34.90452" lon="-58.031887">
        <ele>15.385568</ele>
        <time>2021-05-01T12:13:26Z</time>
      </trkpt>
      <trkpt lat="-34.90456" lon="-58.031925">
        <ele>16.942307</ele>
        <time>2021-05-01T12:13:27Z</time>
      </trkpt>
      <trkpt lat="-34.904606" lon="-58.031967">
        <ele>23.993773</ele>
        <time>2021-05-01T12:13:28Z</time>
      </trkpt>
      <trkpt lat="-34.904648" lon="-58.032005">
        <ele>22.837164</ele>
        <time>2021-05-01T12:13:29Z</time>
      </trkpt>
      <trkpt lat="-34.90469" lon="-58.032043">
        <ele>21.36758</ele>
        <time>2021-05-01T12:13:30Z</time>
      </trkpt>
      <trkpt lat="-34.90473" lon="-58.03208">
        <ele>18.027157</ele>
        <time>2021-05-01T12:13:31Z</time>
      </trkpt>
      <trkpt lat="-34.90477" lon="-58.03212">
        <ele>15.900779</ele>
        <time>2021-05-01T12:13:32Z</time>
      </trkpt>
      <trkpt lat="-34.90481" lon="-58.03216">
        <ele>15.752856</ele>
        <time>2021-05-01T12:13:33Z</time>
      </trkpt>
      <trkpt lat="-34.90485" lon="-58.0322">
        <ele>16.124176</ele>
        <time>2021-05-01T12:13:34Z</time>
      </trkpt>
      <trkpt lat="-34.90489" lon="-58.032238">
        <ele>16.125181</ele>
        <time>2021-05-01T12:13:35Z</time>
      </trkpt>
      <trkpt lat="-34.90493" lon="-58.03228">
        <ele>16.254993</ele>
        <time>2021-05-01T12:13:36Z</time>
      </trkpt>
      <trkpt lat="-34.904972" lon="-58.032314">
        <ele>16.362669</ele>
        <time>2021-05-01T12:13:37Z</time>
      </trkpt>
      <trkpt lat="-34.905014" lon="-58.032352">
        <ele>16.363674</ele>
        <time>2021-05-01T12:13:38Z</time>
      </trkpt>
      <trkpt lat="-34.905056" lon="-58.03239">
        <ele>16.15537</ele>
        <time>2021-05-01T12:13:39Z</time>
      </trkpt>
      <trkpt lat="-34.905098" lon="-58.03243">
        <ele>14.74962</ele>
        <time>2021-05-01T12:13:40Z</time>
      </trkpt>
      <trkpt lat="-34.90514" lon="-58.032467">
        <ele>12.07421</ele>
        <time>2021-05-01T12:13:41Z</time>
      </trkpt>
      <trkpt lat="-34.90518" lon="-58.032505">
        <ele>21.76617</ele>
        <time>2021-05-01T12:13:42Z</time>
      </trkpt>
      <trkpt lat="-34.905224" lon="-58.032543">
        <ele>26.101795</ele>
        <time>2021-05-01T12:13:43Z</time>
      </trkpt>
      <trkpt lat="-34.905266" lon="-58.032585">
        <ele>26.101795</ele>
        <time>2021-05-01T12:13:44Z</time>
      </trkpt>
      <trkpt lat="-34.905308" lon="-58.03262">
        <ele>26.101795</ele>
        <time>2021-05-01T12:13:45Z</time>
      </trkpt>
      <trkpt lat="-34.905346" lon="-58.032658">
        <ele>26.101795</ele>
        <time>2021-05-01T12:13:46Z</time>
      </trkpt>
      <trkpt lat="-34.905384" lon="-58.032696">
        <ele>26.101795</ele>
        <time>2021-05-01T12:13:47Z</time>
      </trkpt>
      <trkpt lat="-34.905422" lon="-58.03273">
        <ele>26.101795</ele>
        <time>2021-05-01T12:13:48Z</time>
      </trkpt>
      <trkpt lat="-34.905464" lon="-58.03277">
        <ele>26.101795</ele>
        <time>2021-05-01T12:13:49Z</time>
      </trkpt>
      <trkpt lat="-34.905502" lon="-58.032806">
        <ele>26.101795</ele>
        <time>2021-05-01T12:13:50Z</time>
      </trkpt>
      <trkpt lat="-34.90555" lon="-58.03284">
        <ele>26.101795</ele>
        <time>2021-05-01T12:13:51Z</time>
      </trkpt>
      <trkpt lat="-34.905586" lon="-58.03288">
        <ele>15.236642</ele>
        <time>2021-05-01T12:13:52Z</time>
      </trkpt>
      <trkpt lat="-34.90563" lon="-58.032913">
        <ele>11.773385</ele>
        <time>2021-05-01T12:13:53Z</time>
      </trkpt>
      <trkpt lat="-34.905666" lon="-58.03295">
        <ele>10.839746</ele>
        <time>2021-05-01T12:13:54Z</time>
      </trkpt>
      <trkpt lat="-34.905712" lon="-58.03298">
        <ele>10.27938</ele>
        <time>2021-05-01T12:13:55Z</time>
      </trkpt>
      <trkpt lat="-34.90575" lon="-58.03302">
        <ele>9.737137</ele>
        <time>2021-05-01T12:13:56Z</time>
      </trkpt>
      <trkpt lat="-34.905792" lon="-58.033054">
        <ele>9.707962</ele>
        <time>2021-05-01T12:13:57Z</time>
      </trkpt>
      <trkpt lat="-34.90583" lon="-58.03309">
        <ele>10.004736</ele>
        <time>2021-05-01T12:13:58Z</time>
      </trkpt>
      <trkpt lat="-34.905872" lon="-58.033123">
        <ele>9.591266</ele>
        <time>2021-05-01T12:13:59Z</time>
      </trkpt>
      <trkpt lat="-34.90591" lon="-58.03316">
        <ele>8.715058</ele>
        <time>2021-05-01T12:14:00Z</time>
      </trkpt>
      <trkpt lat="-34.90595" lon="-58.033195">
        <ele>8.800565</ele>
        <time>2021-05-01T12:14:01Z</time>
      </trkpt>
      <trkpt lat="-34.905987" lon="-58.033234">
        <ele>8.906191</ele>
        <time>2021-05-01T12:14:02Z</time>
      </trkpt>
      <trkpt lat="-34.90603" lon="-58.033268">
        <ele>8.694939</ele>
        <time>2021-05-01T12:14:03Z</time>
      </trkpt>
      <trkpt lat="-34.906067" lon="-58.033302">
        <ele>8.928323</ele>
        <time>2021-05-01T12:14:04Z</time>
      </trkpt>
      <trkpt lat="-34.90611" lon="-58.03334">
        <ele>8.579254</ele>
        <time>2021-05-01T12:14:05Z</time>
      </trkpt>
      <trkpt lat="-34.90615" lon="-58.033375">
        <ele>8.839797</ele>
        <time>2021-05-01T12:14:06Z</time>
      </trkpt>
      <trkpt lat="-34.90619" lon="-58.033413">
        <ele>9.120463</ele>
        <time>2021-05-01T12:14:07Z</time>
      </trkpt>
      <trkpt lat="-34.90623" lon="-58.03345">
        <ele>8.921281</ele>
        <time>2021-05-01T12:14:08Z</time>
      </trkpt>
      <trkpt lat="-34.90627" lon="-58.033485">
        <ele>9.06614</ele>
        <time>2021-05-01T12:14:09Z</time>
      </trkpt>
      <trkpt lat="-34.90631" lon="-58.033524">
        <ele>8.714052</ele>
        <time>2021-05-01T12:14:10Z</time>
      </trkpt>
      <trkpt lat="-34.90635" lon="-58.03356">
        <ele>8.301612</ele>
        <time>2021-05-01T12:14:11Z</time>
      </trkpt>
      <trkpt lat="-34.90639" lon="-58.033596">
        <ele>7.9354525</ele>
        <time>2021-05-01T12:14:12Z</time>
      </trkpt>
      <trkpt lat="-34.90643" lon="-58.033634">
        <ele>7.6095357</ele>
        <time>2021-05-01T12:14:13Z</time>
      </trkpt>
      <trkpt lat="-34.90647" lon="-58.03367">
        <ele>7.3349237</ele>
        <time>2021-05-01T12:14:14Z</time>
      </trkpt>
      <trkpt lat="-34.90651" lon="-58.033707">
        <ele>7.360071</ele>
        <time>2021-05-01T12:14:15Z</time>
      </trkpt>
      <trkpt lat="-34.906548" lon="-58.033745">
        <ele>7.5511928</ele>
        <time>2021-05-01T12:14:16Z</time>
      </trkpt>
      <trkpt lat="-34.90659" lon="-58.03378">
        <ele>7.193093</ele>
        <time>2021-05-01T12:14:17Z</time>
      </trkpt>
      <trkpt lat="-34.906628" lon="-58.033817">
        <ele>7.134751</ele>
        <time>2021-05-01T12:14:18Z</time>
      </trkpt>
      <trkpt lat="-34.906666" lon="-58.033855">
        <ele>3.8728929</ele>
        <time>2021-05-01T12:14:19Z</time>
      </trkpt>
      <trkpt lat="-34.906704" lon="-58.03389">
        <ele>4.7106915</ele>
        <time>2021-05-01T12:14:20Z</time>
      </trkpt>
      <trkpt lat="-34.906746" lon="-58.033928">
        <ele>5.1643023</ele>
        <time>2021-05-01T12:14:21Z</time>
      </trkpt>
      <trkpt lat="-34.906784" lon="-58.033962">
        <ele>4.7680206</ele>
        <time>2021-05-01T12:14:22Z</time>
      </trkpt>
      <trkpt lat="-34.906826" lon="-58.034">
        <ele>4.671466</ele>
        <time>2021-05-01T12:14:23Z</time>
      </trkpt>
      <trkpt lat="-34.906868" lon="-58.034035">
        <ele>3.7813706</ele>
        <time>2021-05-01T12:14:24Z</time>
      </trkpt>
      <trkpt lat="-34.90691" lon="-58.034073">
        <ele>2.0525749</ele>
        <time>2021-05-01T12:14:25Z</time>
      </trkpt>
      <trkpt lat="-34.90695" lon="-58.03411">
        <ele>0.5652541</ele>
        <time>2021-05-01T12:14:26Z</time>
      </trkpt>
      <trkpt lat="-34.906994" lon="-58.03415">
        <ele>1.3918664</ele>
        <time>2021-05-01T12:14:27Z</time>
      </trkpt>
      <trkpt lat="-34.907036" lon="-58.034187">
        <ele>3.3680162</ele>
        <time>2021-05-01T12:14:28Z</time>
      </trkpt>
      <trkpt lat="-34.90712" lon="-58.034264">
        <ele>4.779084</ele>
        <time>2021-05-01T12:14:30Z</time>
      </trkpt>
      <trkpt lat="-34.90716" lon="-58.034298">
        <ele>5.3010917</ele>
        <time>2021-05-01T12:14:31Z</time>
      </trkpt>
      <trkpt lat="-34.907204" lon="-58.034336">
        <ele>5.986056</ele>
        <time>2021-05-01T12:14:32Z</time>
      </trkpt>
      <trkpt lat="-34.907246" lon="-58.034374">
        <ele>7.6688843</ele>
        <time>2021-05-01T12:14:33Z</time>
      </trkpt>
      <trkpt lat="-34.907284" lon="-58.034416">
        <ele>7.4787674</ele>
        <time>2021-05-01T12:14:34Z</time>
      </trkpt>
      <trkpt lat="-34.907326" lon="-58.034454">
        <ele>12.711088</ele>
        <time>2021-05-01T12:14:35Z</time>
      </trkpt>
      <trkpt lat="-34.907368" lon="-58.034492">
        <ele>30.12309</ele>
        <time>2021-05-01T12:14:36Z</time>
      </trkpt>
      <trkpt lat="-34.90741" lon="-58.034534">
        <ele>49.170147</ele>
        <time>2021-05-01T12:14:37Z</time>
      </trkpt>
      <trkpt lat="-34.90745" lon="-58.034573">
        <ele>43.946404</ele>
        <time>2021-05-01T12:14:38Z</time>
      </trkpt>
      <trkpt lat="-34.907494" lon="-58.034615">
        <ele>36.84432</ele>
        <time>2021-05-01T12:14:39Z</time>
      </trkpt>
      <trkpt lat="-34.907536" lon="-58.034653">
        <ele>29.07692</ele>
        <time>2021-05-01T12:14:40Z</time>
      </trkpt>
      <trkpt lat="-34.907574" lon="-58.03469">
        <ele>27.136751</ele>
        <time>2021-05-01T12:14:41Z</time>
      </trkpt>
      <trkpt lat="-34.907616" lon="-58.03473">
        <ele>26.1773</ele>
        <time>2021-05-01T12:14:42Z</time>
      </trkpt>
      <trkpt lat="-34.907658" lon="-58.034767">
        <ele>25.88736</ele>
        <time>2021-05-01T12:14:43Z</time>
      </trkpt>
      <trkpt lat="-34.907696" lon="-58.0348">
        <ele>25.79172</ele>
        <time>2021-05-01T12:14:44Z</time>
      </trkpt>
      <trkpt lat="-34.907738" lon="-58.034843">
        <ele>26.114882</ele>
        <time>2021-05-01T12:14:45Z</time>
      </trkpt>
      <trkpt lat="-34.907776" lon="-58.03488">
        <ele>25.265205</ele>
        <time>2021-05-01T12:14:46Z</time>
      </trkpt>
      <trkpt lat="-34.907814" lon="-58.03492">
        <ele>14.210286</ele>
        <time>2021-05-01T12:14:47Z</time>
      </trkpt>
      <trkpt lat="-34.907856" lon="-58.034958">
        <ele>7.2051635</ele>
        <time>2021-05-01T12:14:48Z</time>
      </trkpt>
      <trkpt lat="-34.907898" lon="-58.034996">
        <ele>4.037835</ele>
        <time>2021-05-01T12:14:49Z</time>
      </trkpt>
      <trkpt lat="-34.907936" lon="-58.03503">
        <ele>3.7522042</ele>
        <time>2021-05-01T12:14:50Z</time>
      </trkpt>
      <trkpt lat="-34.907978" lon="-58.03507">
        <ele>3.7522042</ele>
        <time>2021-05-01T12:14:51Z</time>
      </trkpt>
      <trkpt lat="-34.90802" lon="-58.035107">
        <ele>3.3810906</ele>
        <time>2021-05-01T12:14:52Z</time>
      </trkpt>
      <trkpt lat="-34.908062" lon="-58.035145">
        <ele>4.246026</ele>
        <time>2021-05-01T12:14:53Z</time>
      </trkpt>
      <trkpt lat="-34.9081" lon="-58.035187">
        <ele>10.245175</ele>
        <time>2021-05-01T12:14:54Z</time>
      </trkpt>
      <trkpt lat="-34.908142" lon="-58.035225">
        <ele>12.066161</ele>
        <time>2021-05-01T12:14:55Z</time>
      </trkpt>
      <trkpt lat="-34.908184" lon="-58.035263">
        <ele>13.59349</ele>
        <time>2021-05-01T12:14:56Z</time>
      </trkpt>
      <trkpt lat="-34.908226" lon="-58.035305">
        <ele>13.832962</ele>
        <time>2021-05-01T12:14:57Z</time>
      </trkpt>
      <trkpt lat="-34.908268" lon="-58.035343">
        <ele>12.445468</ele>
        <time>2021-05-01T12:14:58Z</time>
      </trkpt>
      <trkpt lat="-34.90831" lon="-58.03538">
        <ele>11.238148</ele>
        <time>2021-05-01T12:14:59Z</time>
      </trkpt>
      <trkpt lat="-34.90835" lon="-58.03542">
        <ele>15.124948</ele>
        <time>2021-05-01T12:15:00Z</time>
      </trkpt>
      <trkpt lat="-34.908394" lon="-58.035458">
        <ele>21.155205</ele>
        <time>2021-05-01T12:15:01Z</time>
      </trkpt>
      <trkpt lat="-34.908436" lon="-58.035496">
        <ele>45.013424</ele>
        <time>2021-05-01T12:15:02Z</time>
      </trkpt>
      <trkpt lat="-34.908478" lon="-58.035538">
        <ele>67.32569</ele>
        <time>2021-05-01T12:15:03Z</time>
      </trkpt>
      <trkpt lat="-34.908516" lon="-58.035576">
        <ele>63.806953</ele>
        <time>2021-05-01T12:15:04Z</time>
      </trkpt>
      <trkpt lat="-34.908558" lon="-58.035614">
        <ele>63.806953</ele>
        <time>2021-05-01T12:15:05Z</time>
      </trkpt>
      <trkpt lat="-34.9086" lon="-58.03565">
        <ele>63.806953</ele>
        <time>2021-05-01T12:15:06Z</time>
      </trkpt>
      <trkpt lat="-34.90864" lon="-58.03569">
        <ele>63.806953</ele>
        <time>2021-05-01T12:15:07Z</time>
      </trkpt>
      <trkpt lat="-34.908684" lon="-58.03573">
        <ele>63.806953</ele>
        <time>2021-05-01T12:15:08Z</time>
      </trkpt>
      <trkpt lat="-34.908726" lon="-58.03577">
        <ele>63.806953</ele>
        <time>2021-05-01T12:15:09Z</time>
      </trkpt>
      <trkpt lat="-34.908768" lon="-58.03581">
        <ele>63.806953</ele>
        <time>2021-05-01T12:15:10Z</time>
      </trkpt>
      <trkpt lat="-34.908806" lon="-58.03585">
        <ele>63.806953</ele>
        <time>2021-05-01T12:15:11Z</time>
      </trkpt>
      <trkpt lat="-34.908848" lon="-58.03589">
        <ele>63.806953</ele>
        <time>2021-05-01T12:15:12Z</time>
      </trkpt>
      <trkpt lat="-34.90889" lon="-58.035927">
        <ele>63.806953</ele>
        <time>2021-05-01T12:15:13Z</time>
      </trkpt>
      <trkpt lat="-34.90893" lon="-58.03597">
        <ele>63.806953</ele>
        <time>2021-05-01T12:15:14Z</time>
      </trkpt>
      <trkpt lat="-34.908974" lon="-58.036007">
        <ele>63.806953</ele>
        <time>2021-05-01T12:15:15Z</time>
      </trkpt>
      <trkpt lat="-34.909016" lon="-58.036045">
        <ele>63.806953</ele>
        <time>2021-05-01T12:15:16Z</time>
      </trkpt>
      <trkpt lat="-34.909058" lon="-58.036087">
        <ele>63.806953</ele>
        <time>2021-05-01T12:15:17Z</time>
      </trkpt>
      <trkpt lat="-34.909096" lon="-58.036125">
        <ele>63.806953</ele>
        <time>2021-05-01T12:15:18Z</time>
      </trkpt>
      <trkpt lat="-34.909138" lon="-58.036167">
        <ele>63.806953</ele>
        <time>2021-05-01T12:15:19Z</time>
      </trkpt>
      <trkpt lat="-34.90918" lon="-58.036205">
        <ele>63.806953</ele>
        <time>2021-05-01T12:15:20Z</time>
      </trkpt>
      <trkpt lat="-34.909218" lon="-58.036243">
        <ele>63.806953</ele>
        <time>2021-05-01T12:15:21Z</time>
      </trkpt>
      <trkpt lat="-34.90926" lon="-58.03628">
        <ele>63.806953</ele>
        <time>2021-05-01T12:15:22Z</time>
      </trkpt>
      <trkpt lat="-34.9093" lon="-58.036316">
        <ele>63.806953</ele>
        <time>2021-05-01T12:15:23Z</time>
      </trkpt>
      <trkpt lat="-34.90934" lon="-58.036354">
        <ele>63.806953</ele>
        <time>2021-05-01T12:15:24Z</time>
      </trkpt>
      <trkpt lat="-34.909378" lon="-58.036392">
        <ele>63.806953</ele>
        <time>2021-05-01T12:15:25Z</time>
      </trkpt>
      <trkpt lat="-34.90942" lon="-58.03643">
        <ele>63.806953</ele>
        <time>2021-05-01T12:15:26Z</time>
      </trkpt>
      <trkpt lat="-34.909462" lon="-58.03647">
        <ele>63.806953</ele>
        <time>2021-05-01T12:15:27Z</time>
      </trkpt>
      <trkpt lat="-34.909504" lon="-58.036507">
        <ele>63.806953</ele>
        <time>2021-05-01T12:15:28Z</time>
      </trkpt>
      <trkpt lat="-34.909546" lon="-58.036545">
        <ele>63.806953</ele>
        <time>2021-05-01T12:15:29Z</time>
      </trkpt>
      <trkpt lat="-34.909584" lon="-58.036587">
        <ele>63.806953</ele>
        <time>2021-05-01T12:15:30Z</time>
      </trkpt>
      <trkpt lat="-34.909626" lon="-58.036625">
        <ele>63.806953</ele>
        <time>2021-05-01T12:15:31Z</time>
      </trkpt>
      <trkpt lat="-34.90967" lon="-58.036663">
        <ele>63.806953</ele>
        <time>2021-05-01T12:15:32Z</time>
      </trkpt>
      <trkpt lat="-34.90971" lon="-58.036705">
        <ele>63.806953</ele>
        <time>2021-05-01T12:15:33Z</time>
      </trkpt>
      <trkpt lat="-34.90975" lon="-58.036747">
        <ele>63.806953</ele>
        <time>2021-05-01T12:15:34Z</time>
      </trkpt>
      <trkpt lat="-34.909798" lon="-58.03679">
        <ele>63.806953</ele>
        <time>2021-05-01T12:15:35Z</time>
      </trkpt>
      <trkpt lat="-34.90984" lon="-58.03683">
        <ele>63.806953</ele>
        <time>2021-05-01T12:15:36Z</time>
      </trkpt>
      <trkpt lat="-34.909885" lon="-58.036873">
        <ele>63.806953</ele>
        <time>2021-05-01T12:15:37Z</time>
      </trkpt>
      <trkpt lat="-34.909927" lon="-58.03691">
        <ele>63.806953</ele>
        <time>2021-05-01T12:15:38Z</time>
      </trkpt>
      <trkpt lat="-34.909973" lon="-58.036953">
        <ele>63.806953</ele>
        <time>2021-05-01T12:15:39Z</time>
      </trkpt>
      <trkpt lat="-34.910015" lon="-58.03699">
        <ele>63.806953</ele>
        <time>2021-05-01T12:15:40Z</time>
      </trkpt>
      <trkpt lat="-34.91006" lon="-58.03703">
        <ele>63.806953</ele>
        <time>2021-05-01T12:15:41Z</time>
      </trkpt>
      <trkpt lat="-34.910107" lon="-58.03707">
        <ele>63.806953</ele>
        <time>2021-05-01T12:15:42Z</time>
      </trkpt>
      <trkpt lat="-34.91015" lon="-58.03711">
        <ele>63.806953</ele>
        <time>2021-05-01T12:15:43Z</time>
      </trkpt>
      <trkpt lat="-34.910194" lon="-58.037148">
        <ele>63.806953</ele>
        <time>2021-05-01T12:15:44Z</time>
      </trkpt>
      <trkpt lat="-34.910233" lon="-58.037193">
        <ele>63.806953</ele>
        <time>2021-05-01T12:15:45Z</time>
      </trkpt>
      <trkpt lat="-34.91028" lon="-58.03723">
        <ele>63.806953</ele>
        <time>2021-05-01T12:15:46Z</time>
      </trkpt>
      <trkpt lat="-34.91032" lon="-58.037273">
        <ele>63.806953</ele>
        <time>2021-05-01T12:15:47Z</time>
      </trkpt>
      <trkpt lat="-34.910366" lon="-58.037315">
        <ele>63.806953</ele>
        <time>2021-05-01T12:15:48Z</time>
      </trkpt>
      <trkpt lat="-34.91041" lon="-58.037357">
        <ele>63.806953</ele>
        <time>2021-05-01T12:15:49Z</time>
      </trkpt>
      <trkpt lat="-34.910458" lon="-58.0374">
        <ele>63.806953</ele>
        <time>2021-05-01T12:15:50Z</time>
      </trkpt>
      <trkpt lat="-34.9105" lon="-58.03744">
        <ele>63.806953</ele>
        <time>2021-05-01T12:15:51Z</time>
      </trkpt>
      <trkpt lat="-34.910545" lon="-58.037483">
        <ele>63.806953</ele>
        <time>2021-05-01T12:15:52Z</time>
      </trkpt>
      <trkpt lat="-34.91059" lon="-58.03753">
        <ele>63.806953</ele>
        <time>2021-05-01T12:15:53Z</time>
      </trkpt>
      <trkpt lat="-34.910637" lon="-58.03757">
        <ele>63.806953</ele>
        <time>2021-05-01T12:15:54Z</time>
      </trkpt>
      <trkpt lat="-34.91068" lon="-58.037617">
        <ele>63.806953</ele>
        <time>2021-05-01T12:15:55Z</time>
      </trkpt>
      <trkpt lat="-34.910725" lon="-58.037655">
        <ele>63.806953</ele>
        <time>2021-05-01T12:15:56Z</time>
      </trkpt>
      <trkpt lat="-34.910767" lon="-58.0377">
        <ele>63.806953</ele>
        <time>2021-05-01T12:15:57Z</time>
      </trkpt>
      <trkpt lat="-34.910812" lon="-58.037743">
        <ele>51.170685</ele>
        <time>2021-05-01T12:15:58Z</time>
      </trkpt>
      <trkpt lat="-34.910854" lon="-58.03778">
        <ele>38.949524</ele>
        <time>2021-05-01T12:15:59Z</time>
      </trkpt>
      <trkpt lat="-34.910896" lon="-58.03782">
        <ele>41.446815</ele>
        <time>2021-05-01T12:16:00Z</time>
      </trkpt>
      <trkpt lat="-34.91094" lon="-58.037857">
        <ele>42.18125</ele>
        <time>2021-05-01T12:16:01Z</time>
      </trkpt>
      <trkpt lat="-34.910984" lon="-58.03789">
        <ele>23.1019</ele>
        <time>2021-05-01T12:16:02Z</time>
      </trkpt>
      <trkpt lat="-34.911026" lon="-58.03793">
        <ele>8.514873</ele>
        <time>2021-05-01T12:16:03Z</time>
      </trkpt>
      <trkpt lat="-34.911068" lon="-58.037968">
        <ele>5.0295258</ele>
        <time>2021-05-01T12:16:04Z</time>
      </trkpt>
      <trkpt lat="-34.911114" lon="-58.03801">
        <ele>8.986669</ele>
        <time>2021-05-01T12:16:05Z</time>
      </trkpt>
      <trkpt lat="-34.911156" lon="-58.038048">
        <ele>14.727483</ele>
        <time>2021-05-01T12:16:06Z</time>
      </trkpt>
      <trkpt lat="-34.91124" lon="-58.038128">
        <ele>20.115494</ele>
        <time>2021-05-01T12:16:07Z</time>
      </trkpt>
      <trkpt lat="-34.91128" lon="-58.03817">
        <ele>21.036436</ele>
        <time>2021-05-01T12:16:08Z</time>
      </trkpt>
      <trkpt lat="-34.911324" lon="-58.038208">
        <ele>22.802938</ele>
        <time>2021-05-01T12:16:09Z</time>
      </trkpt>
      <trkpt lat="-34.91137" lon="-58.038246">
        <ele>29.623661</ele>
        <time>2021-05-01T12:16:10Z</time>
      </trkpt>
      <trkpt lat="-34.91141" lon="-58.03829">
        <ele>31.914482</ele>
        <time>2021-05-01T12:16:11Z</time>
      </trkpt>
      <trkpt lat="-34.911457" lon="-58.03833">
        <ele>23.760231</ele>
        <time>2021-05-01T12:16:12Z</time>
      </trkpt>
      <trkpt lat="-34.911503" lon="-58.038372">
        <ele>19.961502</ele>
        <time>2021-05-01T12:16:13Z</time>
      </trkpt>
      <trkpt lat="-34.911545" lon="-58.03841">
        <ele>21.783281</ele>
        <time>2021-05-01T12:16:14Z</time>
      </trkpt>
      <trkpt lat="-34.91159" lon="-58.038456">
        <ele>27.179035</ele>
        <time>2021-05-01T12:16:15Z</time>
      </trkpt>
      <trkpt lat="-34.911636" lon="-58.038498">
        <ele>30.045557</ele>
        <time>2021-05-01T12:16:16Z</time>
      </trkpt>
      <trkpt lat="-34.911682" lon="-58.03854">
        <ele>14.176076</ele>
        <time>2021-05-01T12:16:17Z</time>
      </trkpt>
      <trkpt lat="-34.911724" lon="-58.03858">
        <ele>17.14458</ele>
        <time>2021-05-01T12:16:18Z</time>
      </trkpt>
      <trkpt lat="-34.91177" lon="-58.038624">
        <ele>26.066559</ele>
        <time>2021-05-01T12:16:19Z</time>
      </trkpt>
      <trkpt lat="-34.911816" lon="-58.038666">
        <ele>26.05649</ele>
        <time>2021-05-01T12:16:20Z</time>
      </trkpt>
      <trkpt lat="-34.911858" lon="-58.038708">
        <ele>4.6644254</ele>
        <time>2021-05-01T12:16:21Z</time>
      </trkpt>
      <trkpt lat="-34.911903" lon="-58.03875">
        <ele>-2.7559707</ele>
        <time>2021-05-01T12:16:22Z</time>
      </trkpt>
      <trkpt lat="-34.911945" lon="-58.03879">
        <ele>-0.94710577</ele>
        <time>2021-05-01T12:16:23Z</time>
      </trkpt>
      <trkpt lat="-34.91199" lon="-58.038834">
        <ele>-4.2600627</ele>
        <time>2021-05-01T12:16:24Z</time>
      </trkpt>
      <trkpt lat="-34.912037" lon="-58.03887">
        <ele>-2.8555093</ele>
        <time>2021-05-01T12:16:25Z</time>
      </trkpt>
      <trkpt lat="-34.91208" lon="-58.038914">
        <ele>-0.9561555</ele>
        <time>2021-05-01T12:16:26Z</time>
      </trkpt>
      <trkpt lat="-34.912125" lon="-58.038956">
        <ele>2.1571639</ele>
        <time>2021-05-01T12:16:27Z</time>
      </trkpt>
      <trkpt lat="-34.91217" lon="-58.038998">
        <ele>-1.2688712</ele>
        <time>2021-05-01T12:16:28Z</time>
      </trkpt>
      <trkpt lat="-34.912216" lon="-58.039043">
        <ele>-1.8792074</ele>
        <time>2021-05-01T12:16:29Z</time>
      </trkpt>
      <trkpt lat="-34.91226" lon="-58.039085">
        <ele>2.468922</ele>
        <time>2021-05-01T12:16:30Z</time>
      </trkpt>
      <trkpt lat="-34.912304" lon="-58.039127">
        <ele>13.004883</ele>
        <time>2021-05-01T12:16:31Z</time>
      </trkpt>
      <trkpt lat="-34.912354" lon="-58.039173">
        <ele>20.116499</ele>
        <time>2021-05-01T12:16:32Z</time>
      </trkpt>
      <trkpt lat="-34.9124" lon="-58.03921">
        <ele>19.807514</ele>
        <time>2021-05-01T12:16:33Z</time>
      </trkpt>
      <trkpt lat="-34.91244" lon="-58.039253">
        <ele>23.671648</ele>
        <time>2021-05-01T12:16:34Z</time>
      </trkpt>
      <trkpt lat="-34.912487" lon="-58.039295">
        <ele>26.705849</ele>
        <time>2021-05-01T12:16:35Z</time>
      </trkpt>
      <trkpt lat="-34.91253" lon="-58.039333">
        <ele>1.4129846</ele>
        <time>2021-05-01T12:16:36Z</time>
      </trkpt>
      <trkpt lat="-34.912575" lon="-58.039375">
        <ele>2.1189485</ele>
        <time>2021-05-01T12:16:37Z</time>
      </trkpt>
      <trkpt lat="-34.912617" lon="-58.039417">
        <ele>3.6496193</ele>
        <time>2021-05-01T12:16:38Z</time>
      </trkpt>
      <trkpt lat="-34.91266" lon="-58.03946">
        <ele>5.740633</ele>
        <time>2021-05-01T12:16:39Z</time>
      </trkpt>
      <trkpt lat="-34.9127" lon="-58.039497">
        <ele>6.3924174</ele>
        <time>2021-05-01T12:16:40Z</time>
      </trkpt>
      <trkpt lat="-34.912746" lon="-58.03954">
        <ele>7.7242093</ele>
        <time>2021-05-01T12:16:41Z</time>
      </trkpt>
      <trkpt lat="-34.912792" lon="-58.03958">
        <ele>9.0762005</ele>
        <time>2021-05-01T12:16:42Z</time>
      </trkpt>
      <trkpt lat="-34.912834" lon="-58.039623">
        <ele>10.359862</ele>
        <time>2021-05-01T12:16:43Z</time>
      </trkpt>
      <trkpt lat="-34.91288" lon="-58.039665">
        <ele>11.232111</ele>
        <time>2021-05-01T12:16:44Z</time>
      </trkpt>
      <trkpt lat="-34.91292" lon="-58.039707">
        <ele>11.4866495</ele>
        <time>2021-05-01T12:16:45Z</time>
      </trkpt>
      <trkpt lat="-34.912968" lon="-58.03975">
        <ele>11.487656</ele>
        <time>2021-05-01T12:16:46Z</time>
      </trkpt>
      <trkpt lat="-34.91301" lon="-58.039787">
        <ele>11.843812</ele>
        <time>2021-05-01T12:16:47Z</time>
      </trkpt>
      <trkpt lat="-34.91305" lon="-58.03983">
        <ele>12.061131</ele>
        <time>2021-05-01T12:16:48Z</time>
      </trkpt>
      <trkpt lat="-34.913097" lon="-58.039867">
        <ele>12.432388</ele>
        <time>2021-05-01T12:16:49Z</time>
      </trkpt>
      <trkpt lat="-34.913136" lon="-58.039906">
        <ele>12.078235</ele>
        <time>2021-05-01T12:16:50Z</time>
      </trkpt>
      <trkpt lat="-34.913177" lon="-58.039944">
        <ele>10.097289</ele>
        <time>2021-05-01T12:16:51Z</time>
      </trkpt>
      <trkpt lat="-34.91322" lon="-58.039974">
        <ele>9.179816</ele>
        <time>2021-05-01T12:16:52Z</time>
      </trkpt>
      <trkpt lat="-34.91329" lon="-58.04004">
        <ele>7.827819</ele>
        <time>2021-05-01T12:16:54Z</time>
      </trkpt>
      <trkpt lat="-34.91336" lon="-58.040108">
        <ele>5.836187</ele>
        <time>2021-05-01T12:16:56Z</time>
      </trkpt>
      <trkpt lat="-34.9134" lon="-58.040146">
        <ele>4.6292233</ele>
        <time>2021-05-01T12:16:57Z</time>
      </trkpt>
      <trkpt lat="-34.913437" lon="-58.04018">
        <ele>5.159273</ele>
        <time>2021-05-01T12:16:58Z</time>
      </trkpt>
      <trkpt lat="-34.913475" lon="-58.04022">
        <ele>5.650109</ele>
        <time>2021-05-01T12:16:59Z</time>
      </trkpt>
      <trkpt lat="-34.913517" lon="-58.040257">
        <ele>6.574478</ele>
        <time>2021-05-01T12:17:00Z</time>
      </trkpt>
      <trkpt lat="-34.913555" lon="-58.040295">
        <ele>7.190075</ele>
        <time>2021-05-01T12:17:01Z</time>
      </trkpt>
      <trkpt lat="-34.913597" lon="-58.040333">
        <ele>7.381195</ele>
        <time>2021-05-01T12:17:02Z</time>
      </trkpt>
      <trkpt lat="-34.91364" lon="-58.04037">
        <ele>7.9565773</ele>
        <time>2021-05-01T12:17:03Z</time>
      </trkpt>
      <trkpt lat="-34.91368" lon="-58.040405">
        <ele>8.842815</ele>
        <time>2021-05-01T12:17:04Z</time>
      </trkpt>
      <trkpt lat="-34.913723" lon="-58.040443">
        <ele>9.369947</ele>
        <time>2021-05-01T12:17:05Z</time>
      </trkpt>
      <trkpt lat="-34.913765" lon="-58.04048">
        <ele>8.43842</ele>
        <time>2021-05-01T12:17:06Z</time>
      </trkpt>
      <trkpt lat="-34.913807" lon="-58.04052">
        <ele>8.468599</ele>
        <time>2021-05-01T12:17:07Z</time>
      </trkpt>
      <trkpt lat="-34.913853" lon="-58.040558">
        <ele>8.838791</ele>
        <time>2021-05-01T12:17:08Z</time>
      </trkpt>
      <trkpt lat="-34.9139" lon="-58.0406">
        <ele>11.060073</ele>
        <time>2021-05-01T12:17:09Z</time>
      </trkpt>
      <trkpt lat="-34.91394" lon="-58.040638">
        <ele>13.863148</ele>
        <time>2021-05-01T12:17:10Z</time>
      </trkpt>
      <trkpt lat="-34.913982" lon="-58.04068">
        <ele>20.572437</ele>
        <time>2021-05-01T12:17:11Z</time>
      </trkpt>
      <trkpt lat="-34.91403" lon="-58.04072">
        <ele>31.300217</ele>
        <time>2021-05-01T12:17:12Z</time>
      </trkpt>
      <trkpt lat="-34.91407" lon="-58.04076">
        <ele>40.872585</ele>
        <time>2021-05-01T12:17:13Z</time>
      </trkpt>
      <trkpt lat="-34.914112" lon="-58.0408">
        <ele>50.233383</ele>
        <time>2021-05-01T12:17:14Z</time>
      </trkpt>
      <trkpt lat="-34.914154" lon="-58.040836">
        <ele>58.189617</ele>
        <time>2021-05-01T12:17:15Z</time>
      </trkpt>
      <trkpt lat="-34.914196" lon="-58.040874">
        <ele>60.657806</ele>
        <time>2021-05-01T12:17:16Z</time>
      </trkpt>
      <trkpt lat="-34.914238" lon="-58.04091">
        <ele>64.66314</ele>
        <time>2021-05-01T12:17:17Z</time>
      </trkpt>
      <trkpt lat="-34.914276" lon="-58.040943">
        <ele>78.62389</ele>
        <time>2021-05-01T12:17:18Z</time>
      </trkpt>
      <trkpt lat="-34.914314" lon="-58.040977">
        <ele>76.34947</ele>
        <time>2021-05-01T12:17:19Z</time>
      </trkpt>
      <trkpt lat="-34.91435" lon="-58.04101">
        <ele>73.22781</ele>
        <time>2021-05-01T12:17:20Z</time>
      </trkpt>
      <trkpt lat="-34.914387" lon="-58.041046">
        <ele>58.85806</ele>
        <time>2021-05-01T12:17:21Z</time>
      </trkpt>
      <trkpt lat="-34.91442" lon="-58.041084">
        <ele>48.38308</ele>
        <time>2021-05-01T12:17:22Z</time>
      </trkpt>
      <trkpt lat="-34.91446" lon="-58.041122">
        <ele>44.46429</ele>
        <time>2021-05-01T12:17:23Z</time>
      </trkpt>
      <trkpt lat="-34.914497" lon="-58.041157">
        <ele>41.424652</ele>
        <time>2021-05-01T12:17:24Z</time>
      </trkpt>
      <trkpt lat="-34.914536" lon="-58.041195">
        <ele>36.960148</ele>
        <time>2021-05-01T12:17:25Z</time>
      </trkpt>
      <trkpt lat="-34.914574" lon="-58.04123">
        <ele>21.49541</ele>
        <time>2021-05-01T12:17:26Z</time>
      </trkpt>
      <trkpt lat="-34.91461" lon="-58.041267">
        <ele>10.255236</ele>
        <time>2021-05-01T12:17:27Z</time>
      </trkpt>
      <trkpt lat="-34.91465" lon="-58.041298">
        <ele>9.441373</ele>
        <time>2021-05-01T12:17:28Z</time>
      </trkpt>
      <trkpt lat="-34.91469" lon="-58.04133">
        <ele>10.4765625</ele>
        <time>2021-05-01T12:17:29Z</time>
      </trkpt>
      <trkpt lat="-34.914726" lon="-58.041363">
        <ele>5.0345545</ele>
        <time>2021-05-01T12:17:30Z</time>
      </trkpt>
      <trkpt lat="-34.914764" lon="-58.041397">
        <ele>3.4897087</ele>
        <time>2021-05-01T12:17:31Z</time>
      </trkpt>
      <trkpt lat="-34.914803" lon="-58.04143">
        <ele>1.9107773</ele>
        <time>2021-05-01T12:17:32Z</time>
      </trkpt>
      <trkpt lat="-34.914837" lon="-58.04147">
        <ele>0.9172142</ele>
        <time>2021-05-01T12:17:33Z</time>
      </trkpt>
      <trkpt lat="-34.914875" lon="-58.041504">
        <ele>1.5447227</ele>
        <time>2021-05-01T12:17:34Z</time>
      </trkpt>
      <trkpt lat="-34.914913" lon="-58.041542">
        <ele>2.0555918</ele>
        <time>2021-05-01T12:17:35Z</time>
      </trkpt>
      <trkpt lat="-34.91495" lon="-58.04158">
        <ele>4.0247602</ele>
        <time>2021-05-01T12:17:36Z</time>
      </trkpt>
      <trkpt lat="-34.91499" lon="-58.041615">
        <ele>5.0536647</ele>
        <time>2021-05-01T12:17:37Z</time>
      </trkpt>
      <trkpt lat="-34.915028" lon="-58.041645">
        <ele>3.5701666</ele>
        <time>2021-05-01T12:17:38Z</time>
      </trkpt>
      <trkpt lat="-34.915066" lon="-58.041683">
        <ele>4.2017727</ele>
        <time>2021-05-01T12:17:39Z</time>
      </trkpt>
      <trkpt lat="-34.915104" lon="-58.041718">
        <ele>6.568443</ele>
        <time>2021-05-01T12:17:40Z</time>
      </trkpt>
      <trkpt lat="-34.915142" lon="-58.041756">
        <ele>8.459545</ele>
        <time>2021-05-01T12:17:41Z</time>
      </trkpt>
      <trkpt lat="-34.91518" lon="-58.04179">
        <ele>10.587228</ele>
        <time>2021-05-01T12:17:42Z</time>
      </trkpt>
      <trkpt lat="-34.915222" lon="-58.04183">
        <ele>11.74119</ele>
        <time>2021-05-01T12:17:43Z</time>
      </trkpt>
      <trkpt lat="-34.91526" lon="-58.04187">
        <ele>12.3227215</ele>
        <time>2021-05-01T12:17:44Z</time>
      </trkpt>
      <trkpt lat="-34.9153" lon="-58.041916">
        <ele>12.441443</ele>
        <time>2021-05-01T12:17:45Z</time>
      </trkpt>
      <trkpt lat="-34.915337" lon="-58.041954">
        <ele>11.984667</ele>
        <time>2021-05-01T12:17:46Z</time>
      </trkpt>
      <trkpt lat="-34.915382" lon="-58.041992">
        <ele>11.42729</ele>
        <time>2021-05-01T12:17:47Z</time>
      </trkpt>
      <trkpt lat="-34.91543" lon="-58.042034">
        <ele>10.560064</ele>
        <time>2021-05-01T12:17:48Z</time>
      </trkpt>
      <trkpt lat="-34.915474" lon="-58.042072">
        <ele>13.8530855</ele>
        <time>2021-05-01T12:17:49Z</time>
      </trkpt>
      <trkpt lat="-34.915516" lon="-58.042114">
        <ele>28.082148</ele>
        <time>2021-05-01T12:17:50Z</time>
      </trkpt>
      <trkpt lat="-34.915558" lon="-58.042156">
        <ele>42.55301</ele>
        <time>2021-05-01T12:17:51Z</time>
      </trkpt>
      <trkpt lat="-34.9156" lon="-58.042194">
        <ele>44.037083</ele>
        <time>2021-05-01T12:17:52Z</time>
      </trkpt>
      <trkpt lat="-34.915638" lon="-58.042233">
        <ele>35.675964</ele>
        <time>2021-05-01T12:17:53Z</time>
      </trkpt>
      <trkpt lat="-34.915676" lon="-58.04227">
        <ele>14.3038645</ele>
        <time>2021-05-01T12:17:54Z</time>
      </trkpt>
      <trkpt lat="-34.915714" lon="-58.04231">
        <ele>10.243163</ele>
        <time>2021-05-01T12:17:55Z</time>
      </trkpt>
      <trkpt lat="-34.915756" lon="-58.042347">
        <ele>6.5292144</ele>
        <time>2021-05-01T12:17:56Z</time>
      </trkpt>
      <trkpt lat="-34.915794" lon="-58.042385">
        <ele>4.6865525</ele>
        <time>2021-05-01T12:17:57Z</time>
      </trkpt>
      <trkpt lat="-34.915836" lon="-58.042416">
        <ele>5.514323</ele>
        <time>2021-05-01T12:17:58Z</time>
      </trkpt>
      <trkpt lat="-34.91588" lon="-58.042454">
        <ele>6.4688625</ele>
        <time>2021-05-01T12:17:59Z</time>
      </trkpt>
      <trkpt lat="-34.915924" lon="-58.042492">
        <ele>8.393153</ele>
        <time>2021-05-01T12:18:00Z</time>
      </trkpt>
      <trkpt lat="-34.915966" lon="-58.04253">
        <ele>9.826671</ele>
        <time>2021-05-01T12:18:01Z</time>
      </trkpt>
      <trkpt lat="-34.91601" lon="-58.042572">
        <ele>11.700946</ele>
        <time>2021-05-01T12:18:02Z</time>
      </trkpt>
      <trkpt lat="-34.916054" lon="-58.042614">
        <ele>12.021893</ele>
        <time>2021-05-01T12:18:03Z</time>
      </trkpt>
      <trkpt lat="-34.9161" lon="-58.042652">
        <ele>12.371016</ele>
        <time>2021-05-01T12:18:04Z</time>
      </trkpt>
      <trkpt lat="-34.916145" lon="-58.04269">
        <ele>12.579284</ele>
        <time>2021-05-01T12:18:05Z</time>
      </trkpt>
      <trkpt lat="-34.916187" lon="-58.042732">
        <ele>12.837862</ele>
        <time>2021-05-01T12:18:06Z</time>
      </trkpt>
      <trkpt lat="-34.916233" lon="-58.042774">
        <ele>12.581296</ele>
        <time>2021-05-01T12:18:07Z</time>
      </trkpt>
      <trkpt lat="-34.91628" lon="-58.04282">
        <ele>13.231268</ele>
        <time>2021-05-01T12:18:08Z</time>
      </trkpt>
      <trkpt lat="-34.916325" lon="-58.042862">
        <ele>13.733349</ele>
        <time>2021-05-01T12:18:09Z</time>
      </trkpt>
      <trkpt lat="-34.91637" lon="-58.042904">
        <ele>13.913457</ele>
        <time>2021-05-01T12:18:10Z</time>
      </trkpt>
      <trkpt lat="-34.916416" lon="-58.042942">
        <ele>12.901249</ele>
        <time>2021-05-01T12:18:11Z</time>
      </trkpt>
      <trkpt lat="-34.916462" lon="-58.04298">
        <ele>13.599527</ele>
        <time>2021-05-01T12:18:12Z</time>
      </trkpt>
      <trkpt lat="-34.916508" lon="-58.04302">
        <ele>12.93747</ele>
        <time>2021-05-01T12:18:13Z</time>
      </trkpt>
      <trkpt lat="-34.91655" lon="-58.04306">
        <ele>13.28057</ele>
        <time>2021-05-01T12:18:14Z</time>
      </trkpt>
      <trkpt lat="-34.91659" lon="-58.0431">
        <ele>13.477779</ele>
        <time>2021-05-01T12:18:15Z</time>
      </trkpt>
      <trkpt lat="-34.91663" lon="-58.04314">
        <ele>13.140714</ele>
        <time>2021-05-01T12:18:16Z</time>
      </trkpt>
      <trkpt lat="-34.916668" lon="-58.04318">
        <ele>14.3421</ele>
        <time>2021-05-01T12:18:17Z</time>
      </trkpt>
      <trkpt lat="-34.91671" lon="-58.043217">
        <ele>14.131803</ele>
        <time>2021-05-01T12:18:18Z</time>
      </trkpt>
      <trkpt lat="-34.91675" lon="-58.043255">
        <ele>14.534287</ele>
        <time>2021-05-01T12:18:19Z</time>
      </trkpt>
      <trkpt lat="-34.916794" lon="-58.043297">
        <ele>13.952699</ele>
        <time>2021-05-01T12:18:20Z</time>
      </trkpt>
      <trkpt lat="-34.91684" lon="-58.043335">
        <ele>12.958599</ele>
        <time>2021-05-01T12:18:21Z</time>
      </trkpt>
      <trkpt lat="-34.91688" lon="-58.043377">
        <ele>13.001864</ele>
        <time>2021-05-01T12:18:22Z</time>
      </trkpt>
      <trkpt lat="-34.916927" lon="-58.043423">
        <ele>10.216001</ele>
        <time>2021-05-01T12:18:23Z</time>
      </trkpt>
      <trkpt lat="-34.916973" lon="-58.043465">
        <ele>9.406163</ele>
        <time>2021-05-01T12:18:24Z</time>
      </trkpt>
      <trkpt lat="-34.917023" lon="-58.04351">
        <ele>10.448394</ele>
        <time>2021-05-01T12:18:25Z</time>
      </trkpt>
      <trkpt lat="-34.917072" lon="-58.043556">
        <ele>12.667824</ele>
        <time>2021-05-01T12:18:26Z</time>
      </trkpt>
      <trkpt lat="-34.917118" lon="-58.043602">
        <ele>14.6922655</ele>
        <time>2021-05-01T12:18:27Z</time>
      </trkpt>
      <trkpt lat="-34.917168" lon="-58.043648">
        <ele>15.9521</ele>
        <time>2021-05-01T12:18:28Z</time>
      </trkpt>
      <trkpt lat="-34.917217" lon="-58.043697">
        <ele>9.641566</ele>
        <time>2021-05-01T12:18:29Z</time>
      </trkpt>
      <trkpt lat="-34.917267" lon="-58.043743">
        <ele>6.194265</ele>
        <time>2021-05-01T12:18:30Z</time>
      </trkpt>
      <trkpt lat="-34.917316" lon="-58.043793">
        <ele>4.8706107</ele>
        <time>2021-05-01T12:18:31Z</time>
      </trkpt>
      <trkpt lat="-34.917366" lon="-58.043842">
        <ele>5.1683254</ele>
        <time>2021-05-01T12:18:32Z</time>
      </trkpt>
      <trkpt lat="-34.91741" lon="-58.043896">
        <ele>4.390856</ele>
        <time>2021-05-01T12:18:33Z</time>
      </trkpt>
      <trkpt lat="-34.917454" lon="-58.04394">
        <ele>8.650677</ele>
        <time>2021-05-01T12:18:34Z</time>
      </trkpt>
      <trkpt lat="-34.9175" lon="-58.043987">
        <ele>11.35284</ele>
        <time>2021-05-01T12:18:35Z</time>
      </trkpt>
      <trkpt lat="-34.917545" lon="-58.044025">
        <ele>10.620427</ele>
        <time>2021-05-01T12:18:36Z</time>
      </trkpt>
      <trkpt lat="-34.917587" lon="-58.044064">
        <ele>6.0313187</ele>
        <time>2021-05-01T12:18:37Z</time>
      </trkpt>
      <trkpt lat="-34.91763" lon="-58.0441">
        <ele>4.020737</ele>
        <time>2021-05-01T12:18:38Z</time>
      </trkpt>
      <trkpt lat="-34.917675" lon="-58.04414">
        <ele>5.4831433</ele>
        <time>2021-05-01T12:18:39Z</time>
      </trkpt>
      <trkpt lat="-34.917717" lon="-58.044178">
        <ele>6.8440514</ele>
        <time>2021-05-01T12:18:40Z</time>
      </trkpt>
      <trkpt lat="-34.91776" lon="-58.04422">
        <ele>9.19893</ele>
        <time>2021-05-01T12:18:41Z</time>
      </trkpt>
      <trkpt lat="-34.917805" lon="-58.044262">
        <ele>10.236121</ele>
        <time>2021-05-01T12:18:42Z</time>
      </trkpt>
      <trkpt lat="-34.917847" lon="-58.0443">
        <ele>10.463485</ele>
        <time>2021-05-01T12:18:43Z</time>
      </trkpt>
      <trkpt lat="-34.91789" lon="-58.044334">
        <ele>10.792461</ele>
        <time>2021-05-01T12:18:44Z</time>
      </trkpt>
      <trkpt lat="-34.917934" lon="-58.044376">
        <ele>10.984618</ele>
        <time>2021-05-01T12:18:45Z</time>
      </trkpt>
      <trkpt lat="-34.917976" lon="-58.044415">
        <ele>10.754231</ele>
        <time>2021-05-01T12:18:46Z</time>
      </trkpt>
      <trkpt lat="-34.91802" lon="-58.044456">
        <ele>11.726099</ele>
        <time>2021-05-01T12:18:47Z</time>
      </trkpt>
      <trkpt lat="-34.918064" lon="-58.0445">
        <ele>12.32574</ele>
        <time>2021-05-01T12:18:48Z</time>
      </trkpt>
      <trkpt lat="-34.918106" lon="-58.044537">
        <ele>13.020981</ele>
        <time>2021-05-01T12:18:49Z</time>
      </trkpt>
      <trkpt lat="-34.918148" lon="-58.04458">
        <ele>34.510693</ele>
        <time>2021-05-01T12:18:50Z</time>
      </trkpt>
      <trkpt lat="-34.918194" lon="-58.04462">
        <ele>34.510693</ele>
        <time>2021-05-01T12:18:51Z</time>
      </trkpt>
      <trkpt lat="-34.918236" lon="-58.044662">
        <ele>34.510693</ele>
        <time>2021-05-01T12:18:52Z</time>
      </trkpt>
      <trkpt lat="-34.91828" lon="-58.044704">
        <ele>34.510693</ele>
        <time>2021-05-01T12:18:53Z</time>
      </trkpt>
      <trkpt lat="-34.918324" lon="-58.044743">
        <ele>34.510693</ele>
        <time>2021-05-01T12:18:54Z</time>
      </trkpt>
      <trkpt lat="-34.91837" lon="-58.044785">
        <ele>34.510693</ele>
        <time>2021-05-01T12:18:55Z</time>
      </trkpt>
      <trkpt lat="-34.918415" lon="-58.044823">
        <ele>36.167473</ele>
        <time>2021-05-01T12:18:56Z</time>
      </trkpt>
      <trkpt lat="-34.91846" lon="-58.044865">
        <ele>28.167728</ele>
        <time>2021-05-01T12:18:57Z</time>
      </trkpt>
      <trkpt lat="-34.918503" lon="-58.044907">
        <ele>17.726252</ele>
        <time>2021-05-01T12:18:58Z</time>
      </trkpt>
      <trkpt lat="-34.918545" lon="-58.04495">
        <ele>15.841409</ele>
        <time>2021-05-01T12:18:59Z</time>
      </trkpt>
      <trkpt lat="-34.91859" lon="-58.044987">
        <ele>13.434514</ele>
        <time>2021-05-01T12:19:00Z</time>
      </trkpt>
      <trkpt lat="-34.918633" lon="-58.045025">
        <ele>12.206011</ele>
        <time>2021-05-01T12:19:01Z</time>
      </trkpt>
      <trkpt lat="-34.918674" lon="-58.045067">
        <ele>11.609392</ele>
        <time>2021-05-01T12:19:02Z</time>
      </trkpt>
      <trkpt lat="-34.91872" lon="-58.045105">
        <ele>10.899103</ele>
        <time>2021-05-01T12:19:03Z</time>
      </trkpt>
      <trkpt lat="-34.918762" lon="-58.045143">
        <ele>10.032904</ele>
        <time>2021-05-01T12:19:04Z</time>
      </trkpt>
      <trkpt lat="-34.918804" lon="-58.045185">
        <ele>12.399186</ele>
        <time>2021-05-01T12:19:05Z</time>
      </trkpt>
      <trkpt lat="-34.91885" lon="-58.045223">
        <ele>17.01577</ele>
        <time>2021-05-01T12:19:06Z</time>
      </trkpt>
      <trkpt lat="-34.918896" lon="-58.04526">
        <ele>24.217249</ele>
        <time>2021-05-01T12:19:07Z</time>
      </trkpt>
      <trkpt lat="-34.918938" lon="-58.045303">
        <ele>42.063377</ele>
        <time>2021-05-01T12:19:08Z</time>
      </trkpt>
      <trkpt lat="-34.91898" lon="-58.045345">
        <ele>52.35497</ele>
        <time>2021-05-01T12:19:09Z</time>
      </trkpt>
      <trkpt lat="-34.91902" lon="-58.045387">
        <ele>55.793278</ele>
        <time>2021-05-01T12:19:10Z</time>
      </trkpt>
      <trkpt lat="-34.919067" lon="-58.04543">
        <ele>57.516155</ele>
        <time>2021-05-01T12:19:11Z</time>
      </trkpt>
      <trkpt lat="-34.919113" lon="-58.045467">
        <ele>51.561745</ele>
        <time>2021-05-01T12:19:12Z</time>
      </trkpt>
      <trkpt lat="-34.919163" lon="-58.045494">
        <ele>38.57581</ele>
        <time>2021-05-01T12:19:13Z</time>
      </trkpt>
      <trkpt lat="-34.91921" lon="-58.045536">
        <ele>28.725523</ele>
        <time>2021-05-01T12:19:14Z</time>
      </trkpt>
      <trkpt lat="-34.91925" lon="-58.045578">
        <ele>25.688026</ele>
        <time>2021-05-01T12:19:15Z</time>
      </trkpt>
      <trkpt lat="-34.919292" lon="-58.045624">
        <ele>17.221062</ele>
        <time>2021-05-01T12:19:16Z</time>
      </trkpt>
      <trkpt lat="-34.91934" lon="-58.045666">
        <ele>9.078213</ele>
        <time>2021-05-01T12:19:17Z</time>
      </trkpt>
      <trkpt lat="-34.919384" lon="-58.045704">
        <ele>3.3448849</ele>
        <time>2021-05-01T12:19:18Z</time>
      </trkpt>
      <trkpt lat="-34.91943" lon="-58.045746">
        <ele>1.6281906</ele>
        <time>2021-05-01T12:19:19Z</time>
      </trkpt>
      <trkpt lat="-34.91948" lon="-58.045788">
        <ele>0.27866206</ele>
        <time>2021-05-01T12:19:20Z</time>
      </trkpt>
      <trkpt lat="-34.919525" lon="-58.045834">
        <ele>10.68582</ele>
        <time>2021-05-01T12:19:21Z</time>
      </trkpt>
      <trkpt lat="-34.91957" lon="-58.04588">
        <ele>12.869052</ele>
        <time>2021-05-01T12:19:22Z</time>
      </trkpt>
      <trkpt lat="-34.91962" lon="-58.04592">
        <ele>14.8271</ele>
        <time>2021-05-01T12:19:23Z</time>
      </trkpt>
      <trkpt lat="-34.919666" lon="-58.045967">
        <ele>15.517388</ele>
        <time>2021-05-01T12:19:24Z</time>
      </trkpt>
      <trkpt lat="-34.919712" lon="-58.046013">
        <ele>15.746819</ele>
        <time>2021-05-01T12:19:25Z</time>
      </trkpt>
      <trkpt lat="-34.91976" lon="-58.04605">
        <ele>15.160167</ele>
        <time>2021-05-01T12:19:26Z</time>
      </trkpt>
      <trkpt lat="-34.919804" lon="-58.046097">
        <ele>13.433508</ele>
        <time>2021-05-01T12:19:27Z</time>
      </trkpt>
      <trkpt lat="-34.91985" lon="-58.046143">
        <ele>12.994821</ele>
        <time>2021-05-01T12:19:28Z</time>
      </trkpt>
      <trkpt lat="-34.919895" lon="-58.046185">
        <ele>11.655672</ele>
        <time>2021-05-01T12:19:29Z</time>
      </trkpt>
      <trkpt lat="-34.91994" lon="-58.046227">
        <ele>9.607362</ele>
        <time>2021-05-01T12:19:30Z</time>
      </trkpt>
      <trkpt lat="-34.91999" lon="-58.046265">
        <ele>8.154745</ele>
        <time>2021-05-01T12:19:31Z</time>
      </trkpt>
      <trkpt lat="-34.920036" lon="-58.046307">
        <ele>7.3852186</ele>
        <time>2021-05-01T12:19:32Z</time>
      </trkpt>
      <trkpt lat="-34.920082" lon="-58.046352">
        <ele>7.3751597</ele>
        <time>2021-05-01T12:19:33Z</time>
      </trkpt>
      <trkpt lat="-34.920128" lon="-58.0464">
        <ele>8.724112</ele>
        <time>2021-05-01T12:19:34Z</time>
      </trkpt>
      <trkpt lat="-34.920174" lon="-58.04644">
        <ele>10.093266</ele>
        <time>2021-05-01T12:19:35Z</time>
      </trkpt>
      <trkpt lat="-34.92022" lon="-58.046486">
        <ele>11.020837</ele>
        <time>2021-05-01T12:19:36Z</time>
      </trkpt>
      <trkpt lat="-34.920265" lon="-58.046528">
        <ele>11.82872</ele>
        <time>2021-05-01T12:19:37Z</time>
      </trkpt>
      <trkpt lat="-34.920307" lon="-58.04657">
        <ele>10.100307</ele>
        <time>2021-05-01T12:19:38Z</time>
      </trkpt>
      <trkpt lat="-34.920353" lon="-58.04661">
        <ele>8.226167</ele>
        <time>2021-05-01T12:19:39Z</time>
      </trkpt>
      <trkpt lat="-34.9204" lon="-58.046654">
        <ele>7.615571</ele>
        <time>2021-05-01T12:19:40Z</time>
      </trkpt>
      <trkpt lat="-34.920444" lon="-58.046696">
        <ele>6.111786</ele>
        <time>2021-05-01T12:19:41Z</time>
      </trkpt>
      <trkpt lat="-34.920483" lon="-58.046738">
        <ele>4.1394157</ele>
        <time>2021-05-01T12:19:42Z</time>
      </trkpt>
      <trkpt lat="-34.920525" lon="-58.04678">
        <ele>4.7619863</ele>
        <time>2021-05-01T12:19:43Z</time>
      </trkpt>
      <trkpt lat="-34.920567" lon="-58.046814">
        <ele>5.425812</ele>
        <time>2021-05-01T12:19:44Z</time>
      </trkpt>
      <trkpt lat="-34.92061" lon="-58.046852">
        <ele>6.269704</ele>
        <time>2021-05-01T12:19:45Z</time>
      </trkpt>
      <trkpt lat="-34.920647" lon="-58.04689">
        <ele>7.473738</ele>
        <time>2021-05-01T12:19:46Z</time>
      </trkpt>
      <trkpt lat="-34.920685" lon="-58.046925">
        <ele>8.433391</ele>
        <time>2021-05-01T12:19:47Z</time>
      </trkpt>
      <trkpt lat="-34.920727" lon="-58.046967">
        <ele>9.258283</ele>
        <time>2021-05-01T12:19:48Z</time>
      </trkpt>
      <trkpt lat="-34.920765" lon="-58.047005">
        <ele>10.111374</ele>
        <time>2021-05-01T12:19:49Z</time>
      </trkpt>
      <trkpt lat="-34.92081" lon="-58.04704">
        <ele>9.581206</ele>
        <time>2021-05-01T12:19:50Z</time>
      </trkpt>
      <trkpt lat="-34.920853" lon="-58.047077">
        <ele>8.714052</ele>
        <time>2021-05-01T12:19:51Z</time>
      </trkpt>
      <trkpt lat="-34.920895" lon="-58.047115">
        <ele>19.505579</ele>
        <time>2021-05-01T12:19:52Z</time>
      </trkpt>
      <trkpt lat="-34.920937" lon="-58.047157">
        <ele>22.827097</ele>
        <time>2021-05-01T12:19:53Z</time>
      </trkpt>
      <trkpt lat="-34.920982" lon="-58.047188">
        <ele>22.827097</ele>
        <time>2021-05-01T12:19:54Z</time>
      </trkpt>
      <trkpt lat="-34.92103" lon="-58.047226">
        <ele>22.827097</ele>
        <time>2021-05-01T12:19:55Z</time>
      </trkpt>
      <trkpt lat="-34.92107" lon="-58.047264">
        <ele>22.827097</ele>
        <time>2021-05-01T12:19:56Z</time>
      </trkpt>
      <trkpt lat="-34.921116" lon="-58.047302">
        <ele>22.827097</ele>
        <time>2021-05-01T12:19:57Z</time>
      </trkpt>
      <trkpt lat="-34.921154" lon="-58.047344">
        <ele>22.827097</ele>
        <time>2021-05-01T12:19:58Z</time>
      </trkpt>
      <trkpt lat="-34.921192" lon="-58.04739">
        <ele>25.446413</ele>
        <time>2021-05-01T12:19:59Z</time>
      </trkpt>
      <trkpt lat="-34.92123" lon="-58.047432">
        <ele>14.49907</ele>
        <time>2021-05-01T12:20:00Z</time>
      </trkpt>
      <trkpt lat="-34.921272" lon="-58.047474">
        <ele>8.291553</ele>
        <time>2021-05-01T12:20:01Z</time>
      </trkpt>
      <trkpt lat="-34.921314" lon="-58.047516">
        <ele>10.820631</ele>
        <time>2021-05-01T12:20:02Z</time>
      </trkpt>
      <trkpt lat="-34.921356" lon="-58.047558">
        <ele>9.289469</ele>
        <time>2021-05-01T12:20:03Z</time>
      </trkpt>
      <trkpt lat="-34.921402" lon="-58.047596">
        <ele>11.269336</ele>
        <time>2021-05-01T12:20:04Z</time>
      </trkpt>
      <trkpt lat="-34.921444" lon="-58.047638">
        <ele>16.404932</ele>
        <time>2021-05-01T12:20:05Z</time>
      </trkpt>
      <trkpt lat="-34.92149" lon="-58.047676">
        <ele>21.027376</ele>
        <time>2021-05-01T12:20:06Z</time>
      </trkpt>
      <trkpt lat="-34.921535" lon="-58.047718">
        <ele>22.181879</ele>
        <time>2021-05-01T12:20:07Z</time>
      </trkpt>
      <trkpt lat="-34.921577" lon="-58.04776">
        <ele>23.615276</ele>
        <time>2021-05-01T12:20:08Z</time>
      </trkpt>
      <trkpt lat="-34.921623" lon="-58.047802">
        <ele>14.945836</ele>
        <time>2021-05-01T12:20:09Z</time>
      </trkpt>
      <trkpt lat="-34.92167" lon="-58.047848">
        <ele>1.5346663</ele>
        <time>2021-05-01T12:20:10Z</time>
      </trkpt>
      <trkpt lat="-34.92171" lon="-58.047894">
        <ele>-2.0471222</ele>
        <time>2021-05-01T12:20:11Z</time>
      </trkpt>
      <trkpt lat="-34.921753" lon="-58.047935">
        <ele>-2.012936</ele>
        <time>2021-05-01T12:20:12Z</time>
      </trkpt>
      <trkpt lat="-34.9218" lon="-58.047977">
        <ele>1.2792362</ele>
        <time>2021-05-01T12:20:13Z</time>
      </trkpt>
      <trkpt lat="-34.921844" lon="-58.04802">
        <ele>3.5259147</ele>
        <time>2021-05-01T12:20:14Z</time>
      </trkpt>
      <trkpt lat="-34.92189" lon="-58.04806">
        <ele>5.157262</ele>
        <time>2021-05-01T12:20:15Z</time>
      </trkpt>
      <trkpt lat="-34.92194" lon="-58.048103">
        <ele>6.687135</ele>
        <time>2021-05-01T12:20:16Z</time>
      </trkpt>
      <trkpt lat="-34.92199" lon="-58.04814">
        <ele>8.025986</ele>
        <time>2021-05-01T12:20:17Z</time>
      </trkpt>
      <trkpt lat="-34.92204" lon="-58.048176">
        <ele>9.304558</ele>
        <time>2021-05-01T12:20:18Z</time>
      </trkpt>
      <trkpt lat="-34.92209" lon="-58.048218">
        <ele>10.847795</ele>
        <time>2021-05-01T12:20:19Z</time>
      </trkpt>
      <trkpt lat="-34.92214" lon="-58.048264">
        <ele>11.50174</ele>
        <time>2021-05-01T12:20:20Z</time>
      </trkpt>
      <trkpt lat="-34.922184" lon="-58.04831">
        <ele>10.821637</ele>
        <time>2021-05-01T12:20:21Z</time>
      </trkpt>
      <trkpt lat="-34.92223" lon="-58.048355">
        <ele>10.0238495</ele>
        <time>2021-05-01T12:20:22Z</time>
      </trkpt>
      <trkpt lat="-34.92227" lon="-58.0484">
        <ele>9.274379</ele>
        <time>2021-05-01T12:20:23Z</time>
      </trkpt>
      <trkpt lat="-34.922318" lon="-58.04845">
        <ele>8.62754</ele>
        <time>2021-05-01T12:20:24Z</time>
      </trkpt>
      <trkpt lat="-34.92236" lon="-58.048496">
        <ele>9.225085</ele>
        <time>2021-05-01T12:20:25Z</time>
      </trkpt>
      <trkpt lat="-34.92241" lon="-58.04854">
        <ele>10.687832</ele>
        <time>2021-05-01T12:20:26Z</time>
      </trkpt>
      <trkpt lat="-34.92245" lon="-58.04858">
        <ele>10.991661</ele>
        <time>2021-05-01T12:20:27Z</time>
      </trkpt>
      <trkpt lat="-34.922497" lon="-58.048622">
        <ele>10.925261</ele>
        <time>2021-05-01T12:20:28Z</time>
      </trkpt>
      <trkpt lat="-34.92254" lon="-58.048664">
        <ele>10.306543</ele>
        <time>2021-05-01T12:20:29Z</time>
      </trkpt>
      <trkpt lat="-34.922585" lon="-58.04871">
        <ele>10.049001</ele>
        <time>2021-05-01T12:20:30Z</time>
      </trkpt>
      <trkpt lat="-34.922626" lon="-58.04876">
        <ele>10.076163</ele>
        <time>2021-05-01T12:20:31Z</time>
      </trkpt>
      <trkpt lat="-34.92266" lon="-58.048805">
        <ele>9.3116</ele>
        <time>2021-05-01T12:20:32Z</time>
      </trkpt>
      <trkpt lat="-34.922707" lon="-58.04885">
        <ele>8.965543</ele>
        <time>2021-05-01T12:20:33Z</time>
      </trkpt>
      <trkpt lat="-34.92275" lon="-58.0489">
        <ele>8.585289</ele>
        <time>2021-05-01T12:20:34Z</time>
      </trkpt>
      <trkpt lat="-34.922794" lon="-58.04895">
        <ele>8.154745</ele>
        <time>2021-05-01T12:20:35Z</time>
      </trkpt>
      <trkpt lat="-34.92284" lon="-58.049">
        <ele>8.465581</ele>
        <time>2021-05-01T12:20:36Z</time>
      </trkpt>
      <trkpt lat="-34.922882" lon="-58.04905">
        <ele>9.272367</ele>
        <time>2021-05-01T12:20:37Z</time>
      </trkpt>
      <trkpt lat="-34.92293" lon="-58.04909">
        <ele>9.738142</ele>
        <time>2021-05-01T12:20:38Z</time>
      </trkpt>
      <trkpt lat="-34.92298" lon="-58.049137">
        <ele>9.72607</ele>
        <time>2021-05-01T12:20:39Z</time>
      </trkpt>
      <trkpt lat="-34.923027" lon="-58.04919">
        <ele>9.497708</ele>
        <time>2021-05-01T12:20:40Z</time>
      </trkpt>
      <trkpt lat="-34.92307" lon="-58.049248">
        <ele>9.482618</ele>
        <time>2021-05-01T12:20:41Z</time>
      </trkpt>
      <trkpt lat="-34.923115" lon="-58.0493">
        <ele>9.266331</ele>
        <time>2021-05-01T12:20:42Z</time>
      </trkpt>
      <trkpt lat="-34.923157" lon="-58.04936">
        <ele>8.926311</ele>
        <time>2021-05-01T12:20:43Z</time>
      </trkpt>
      <trkpt lat="-34.9232" lon="-58.04941">
        <ele>8.375046</ele>
        <time>2021-05-01T12:20:44Z</time>
      </trkpt>
      <trkpt lat="-34.923244" lon="-58.04946">
        <ele>8.283505</ele>
        <time>2021-05-01T12:20:45Z</time>
      </trkpt>
      <trkpt lat="-34.923294" lon="-58.0495">
        <ele>8.125573</ele>
        <time>2021-05-01T12:20:46Z</time>
      </trkpt>
      <trkpt lat="-34.923344" lon="-58.049526">
        <ele>8.056164</ele>
        <time>2021-05-01T12:20:47Z</time>
      </trkpt>
      <trkpt lat="-34.923397" lon="-58.04954">
        <ele>7.9414883</ele>
        <time>2021-05-01T12:20:48Z</time>
      </trkpt>
      <trkpt lat="-34.923447" lon="-58.049538">
        <ele>7.171969</ele>
        <time>2021-05-01T12:20:49Z</time>
      </trkpt>
      <trkpt lat="-34.923492" lon="-58.049515">
        <ele>7.9616065</ele>
        <time>2021-05-01T12:20:50Z</time>
      </trkpt>
      <trkpt lat="-34.923527" lon="-58.049477">
        <ele>7.789594</ele>
        <time>2021-05-01T12:20:51Z</time>
      </trkpt>
      <trkpt lat="-34.923557" lon="-58.04943">
        <ele>7.091498</ele>
        <time>2021-05-01T12:20:52Z</time>
      </trkpt>
      <trkpt lat="-34.92359" lon="-58.04939">
        <ele>7.014045</ele>
        <time>2021-05-01T12:20:53Z</time>
      </trkpt>
      <trkpt lat="-34.923622" lon="-58.049343">
        <ele>4.789142</ele>
        <time>2021-05-01T12:20:54Z</time>
      </trkpt>
      <trkpt lat="-34.923653" lon="-58.049297">
        <ele>4.892738</ele>
        <time>2021-05-01T12:20:55Z</time>
      </trkpt>
      <trkpt lat="-34.923683" lon="-58.049248">
        <ele>4.503502</ele>
        <time>2021-05-01T12:20:56Z</time>
      </trkpt>
      <trkpt lat="-34.923717" lon="-58.0492">
        <ele>2.9607038</ele>
        <time>2021-05-01T12:20:57Z</time>
      </trkpt>
      <trkpt lat="-34.92375" lon="-58.04915">
        <ele>2.7897356</ele>
        <time>2021-05-01T12:20:58Z</time>
      </trkpt>
      <trkpt lat="-34.92379" lon="-58.049103">
        <ele>3.038143</ele>
        <time>2021-05-01T12:20:59Z</time>
      </trkpt>
      <trkpt lat="-34.92383" lon="-58.04906">
        <ele>3.8185828</ele>
        <time>2021-05-01T12:21:00Z</time>
      </trkpt>
      <trkpt lat="-34.923866" lon="-58.04901">
        <ele>3.764273</ele>
        <time>2021-05-01T12:21:01Z</time>
      </trkpt>
      <trkpt lat="-34.923897" lon="-58.048958">
        <ele>3.509823</ele>
        <time>2021-05-01T12:21:02Z</time>
      </trkpt>
      <trkpt lat="-34.923927" lon="-58.048904">
        <ele>3.8940134</ele>
        <time>2021-05-01T12:21:03Z</time>
      </trkpt>
      <trkpt lat="-34.92396" lon="-58.04886">
        <ele>13.264472</ele>
        <time>2021-05-01T12:21:04Z</time>
      </trkpt>
      <trkpt lat="-34.924" lon="-58.048817">
        <ele>25.950783</ele>
        <time>2021-05-01T12:21:05Z</time>
      </trkpt>
      <trkpt lat="-34.924034" lon="-58.048775">
        <ele>47.16676</ele>
        <time>2021-05-01T12:21:06Z</time>
      </trkpt>
      <trkpt lat="-34.92407" lon="-58.04873">
        <ele>66.315094</ele>
        <time>2021-05-01T12:21:07Z</time>
      </trkpt>
      <trkpt lat="-34.9241" lon="-58.048687">
        <ele>92.20362</ele>
        <time>2021-05-01T12:21:08Z</time>
      </trkpt>
      <trkpt lat="-34.92413" lon="-58.048637">
        <ele>80.81983</ele>
        <time>2021-05-01T12:21:09Z</time>
      </trkpt>
      <trkpt lat="-34.924168" lon="-58.04859">
        <ele>61.45337</ele>
        <time>2021-05-01T12:21:10Z</time>
      </trkpt>
      <trkpt lat="-34.924202" lon="-58.048546">
        <ele>42.641666</ele>
        <time>2021-05-01T12:21:11Z</time>
      </trkpt>
      <trkpt lat="-34.924236" lon="-58.0485">
        <ele>34.271</ele>
        <time>2021-05-01T12:21:12Z</time>
      </trkpt>
      <trkpt lat="-34.92427" lon="-58.04845">
        <ele>35.498703</ele>
        <time>2021-05-01T12:21:13Z</time>
      </trkpt>
      <trkpt lat="-34.9243" lon="-58.048405">
        <ele>42.365616</ele>
        <time>2021-05-01T12:21:14Z</time>
      </trkpt>
      <trkpt lat="-34.92433" lon="-58.04836">
        <ele>57.95471</ele>
        <time>2021-05-01T12:21:15Z</time>
      </trkpt>
      <trkpt lat="-34.92436" lon="-58.04831">
        <ele>58.169453</ele>
        <time>2021-05-01T12:21:16Z</time>
      </trkpt>
      <trkpt lat="-34.92438" lon="-58.048264">
        <ele>61.032898</ele>
        <time>2021-05-01T12:21:17Z</time>
      </trkpt>
      <trkpt lat="-34.924408" lon="-58.048218">
        <ele>44.87236</ele>
        <time>2021-05-01T12:21:18Z</time>
      </trkpt>
      <trkpt lat="-34.924435" lon="-58.04817">
        <ele>44.862286</ele>
        <time>2021-05-01T12:21:19Z</time>
      </trkpt>
      <trkpt lat="-34.924465" lon="-58.048122">
        <ele>62.13905</ele>
        <time>2021-05-01T12:21:20Z</time>
      </trkpt>
      <trkpt lat="-34.92449" lon="-58.048073">
        <ele>68.01559</ele>
        <time>2021-05-01T12:21:21Z</time>
      </trkpt>
      <trkpt lat="-34.924522" lon="-58.048027">
        <ele>19.568985</ele>
        <time>2021-05-01T12:21:22Z</time>
      </trkpt>
      <trkpt lat="-34.92458" lon="-58.047947">
        <ele>14.072436</ele>
        <time>2021-05-01T12:21:24Z</time>
      </trkpt>
      <trkpt lat="-34.924637" lon="-58.04787">
        <ele>14.938792</ele>
        <time>2021-05-01T12:21:26Z</time>
      </trkpt>
      <trkpt lat="-34.924686" lon="-58.04778">
        <ele>10.548998</ele>
        <time>2021-05-01T12:21:28Z</time>
      </trkpt>
      <trkpt lat="-34.92472" lon="-58.04774">
        <ele>-1.2648492</ele>
        <time>2021-05-01T12:21:29Z</time>
      </trkpt>
      <trkpt lat="-34.92475" lon="-58.0477">
        <ele>-1.7957522</ele>
        <time>2021-05-01T12:21:30Z</time>
      </trkpt>
      <trkpt lat="-34.924786" lon="-58.04766">
        <ele>-3.08877</ele>
        <time>2021-05-01T12:21:31Z</time>
      </trkpt>
      <trkpt lat="-34.92485" lon="-58.04759">
        <ele>-4.141428</ele>
        <time>2021-05-01T12:21:33Z</time>
      </trkpt>
      <trkpt lat="-34.924908" lon="-58.047523">
        <ele>-1.2728933</ele>
        <time>2021-05-01T12:21:35Z</time>
      </trkpt>
      <trkpt lat="-34.924984" lon="-58.047527">
        <ele>21.103872</ele>
        <time>2021-05-01T12:21:37Z</time>
      </trkpt>
      <trkpt lat="-34.925064" lon="-58.04756">
        <ele>22.085249</ele>
        <time>2021-05-01T12:21:39Z</time>
      </trkpt>
      <trkpt lat="-34.925102" lon="-58.047596">
        <ele>9.339767</ele>
        <time>2021-05-01T12:21:40Z</time>
      </trkpt>
      <trkpt lat="-34.92514" lon="-58.047634">
        <ele>-0.053176735</ele>
        <time>2021-05-01T12:21:41Z</time>
      </trkpt>
      <trkpt lat="-34.925175" lon="-58.047676">
        <ele>-0.053176735</ele>
        <time>2021-05-01T12:21:42Z</time>
      </trkpt>
      <trkpt lat="-34.92521" lon="-58.047718">
        <ele>-0.053176735</ele>
        <time>2021-05-01T12:21:43Z</time>
      </trkpt>
      <trkpt lat="-34.92525" lon="-58.047756">
        <ele>2.521217</ele>
        <time>2021-05-01T12:21:44Z</time>
      </trkpt>
      <trkpt lat="-34.925293" lon="-58.04779">
        <ele>7.5431457</ele>
        <time>2021-05-01T12:21:45Z</time>
      </trkpt>
      <trkpt lat="-34.92533" lon="-58.04783">
        <ele>9.275385</ele>
        <time>2021-05-01T12:21:46Z</time>
      </trkpt>
      <trkpt lat="-34.92537" lon="-58.047867">
        <ele>10.711977</ele>
        <time>2021-05-01T12:21:47Z</time>
      </trkpt>
      <trkpt lat="-34.925407" lon="-58.047905">
        <ele>7.8348603</ele>
        <time>2021-05-01T12:21:48Z</time>
      </trkpt>
      <trkpt lat="-34.925446" lon="-58.047943">
        <ele>15.782038</ele>
        <time>2021-05-01T12:21:49Z</time>
      </trkpt>
      <trkpt lat="-34.925484" lon="-58.047977">
        <ele>19.609241</ele>
        <time>2021-05-01T12:21:50Z</time>
      </trkpt>
      <trkpt lat="-34.925518" lon="-58.048016">
        <ele>18.491104</ele>
        <time>2021-05-01T12:21:51Z</time>
      </trkpt>
      <trkpt lat="-34.925552" lon="-58.048054">
        <ele>37.488953</ele>
        <time>2021-05-01T12:21:52Z</time>
      </trkpt>
      <trkpt lat="-34.92559" lon="-58.04809">
        <ele>31.259937</ele>
        <time>2021-05-01T12:21:53Z</time>
      </trkpt>
      <trkpt lat="-34.925632" lon="-58.04813">
        <ele>33.142056</ele>
        <time>2021-05-01T12:21:54Z</time>
      </trkpt>
      <trkpt lat="-34.92567" lon="-58.048172">
        <time>2021-05-01T12:21:55Z</time>
      </trkpt>
      <trkpt lat="-34.92571" lon="-58.048214">
        <time>2021-05-01T12:21:56Z</time>
      </trkpt>
      <trkpt lat="-34.925747" lon="-58.048252">
        <time>2021-05-01T12:21:57Z</time>
      </trkpt>
      <trkpt lat="-34.92579" lon="-58.04829">
        <time>2021-05-01T12:21:58Z</time>
      </trkpt>
      <trkpt lat="-34.92583" lon="-58.048332">
        <time>2021-05-01T12:21:59Z</time>
      </trkpt>
      <trkpt lat="-34.92587" lon="-58.048378">
        <time>2021-05-01T12:22:00Z</time>
      </trkpt>
      <trkpt lat="-34.92591" lon="-58.048416">
        <time>2021-05-01T12:22:01Z</time>
      </trkpt>
      <trkpt lat="-34.925953" lon="-58.04846">
        <time>2021-05-01T12:22:02Z</time>
      </trkpt>
      <trkpt lat="-34.925995" lon="-58.0485">
        <time>2021-05-01T12:22:03Z</time>
      </trkpt>
      <trkpt lat="-34.926037" lon="-58.04854">
        <time>2021-05-01T12:22:04Z</time>
      </trkpt>
      <trkpt lat="-34.926083" lon="-58.04858">
        <time>2021-05-01T12:22:05Z</time>
      </trkpt>
      <trkpt lat="-34.92613" lon="-58.04862">
        <time>2021-05-01T12:22:06Z</time>
      </trkpt>
      <trkpt lat="-34.92617" lon="-58.04866">
        <time>2021-05-01T12:22:07Z</time>
      </trkpt>
      <trkpt lat="-34.92621" lon="-58.04871">
        <time>2021-05-01T12:22:08Z</time>
      </trkpt>
      <trkpt lat="-34.92625" lon="-58.048748">
        <time>2021-05-01T12:22:09Z</time>
      </trkpt>
      <trkpt lat="-34.92629" lon="-58.04879">
        <time>2021-05-01T12:22:10Z</time>
      </trkpt>
      <trkpt lat="-34.92633" lon="-58.048832">
        <time>2021-05-01T12:22:11Z</time>
      </trkpt>
      <trkpt lat="-34.926373" lon="-58.048874">
        <time>2021-05-01T12:22:12Z</time>
      </trkpt>
      <trkpt lat="-34.926414" lon="-58.048912">
        <time>2021-05-01T12:22:13Z</time>
      </trkpt>
      <trkpt lat="-34.926456" lon="-58.048954">
        <time>2021-05-01T12:22:14Z</time>
      </trkpt>
      <trkpt lat="-34.9265" lon="-58.048996">
        <time>2021-05-01T12:22:15Z</time>
      </trkpt>
      <trkpt lat="-34.92654" lon="-58.04904">
        <time>2021-05-01T12:22:16Z</time>
      </trkpt>
      <trkpt lat="-34.926582" lon="-58.04908">
        <time>2021-05-01T12:22:17Z</time>
      </trkpt>
      <trkpt lat="-34.926624" lon="-58.04912">
        <time>2021-05-01T12:22:18Z</time>
      </trkpt>
      <trkpt lat="-34.926666" lon="-58.049168">
        <time>2021-05-01T12:22:19Z</time>
      </trkpt>
      <trkpt lat="-34.92671" lon="-58.049213">
        <time>2021-05-01T12:22:20Z</time>
      </trkpt>
      <trkpt lat="-34.92675" lon="-58.049255">
        <time>2021-05-01T12:22:21Z</time>
      </trkpt>
      <trkpt lat="-34.926792" lon="-58.0493">
        <time>2021-05-01T12:22:22Z</time>
      </trkpt>
      <trkpt lat="-34.926834" lon="-58.04934">
        <time>2021-05-01T12:22:23Z</time>
      </trkpt>
      <trkpt lat="-34.926876" lon="-58.04938">
        <time>2021-05-01T12:22:24Z</time>
      </trkpt>
      <trkpt lat="-34.92692" lon="-58.049427">
        <time>2021-05-01T12:22:25Z</time>
      </trkpt>
      <trkpt lat="-34.92696" lon="-58.049473">
        <time>2021-05-01T12:22:26Z</time>
      </trkpt>
      <trkpt lat="-34.927" lon="-58.04952">
        <time>2021-05-01T12:22:27Z</time>
      </trkpt>
      <trkpt lat="-34.92704" lon="-58.049557">
        <time>2021-05-01T12:22:28Z</time>
      </trkpt>
      <trkpt lat="-34.927082" lon="-58.049595">
        <time>2021-05-01T12:22:29Z</time>
      </trkpt>
      <trkpt lat="-34.92712" lon="-58.049637">
        <time>2021-05-01T12:22:30Z</time>
      </trkpt>
      <trkpt lat="-34.927162" lon="-58.049675">
        <time>2021-05-01T12:22:31Z</time>
      </trkpt>
      <trkpt lat="-34.927204" lon="-58.04972">
        <time>2021-05-01T12:22:32Z</time>
      </trkpt>
      <trkpt lat="-34.927242" lon="-58.04976">
        <time>2021-05-01T12:22:33Z</time>
      </trkpt>
      <trkpt lat="-34.927284" lon="-58.0498">
        <time>2021-05-01T12:22:34Z</time>
      </trkpt>
      <trkpt lat="-34.927322" lon="-58.049843">
        <time>2021-05-01T12:22:35Z</time>
      </trkpt>
      <trkpt lat="-34.92736" lon="-58.049885">
        <time>2021-05-01T12:22:36Z</time>
      </trkpt>
      <trkpt lat="-34.927402" lon="-58.049927">
        <time>2021-05-01T12:22:37Z</time>
      </trkpt>
      <trkpt lat="-34.92744" lon="-58.049965">
        <time>2021-05-01T12:22:38Z</time>
      </trkpt>
      <trkpt lat="-34.92748" lon="-58.050007">
        <time>2021-05-01T12:22:39Z</time>
      </trkpt>
      <trkpt lat="-34.927517" lon="-58.050053">
        <time>2021-05-01T12:22:40Z</time>
      </trkpt>
      <trkpt lat="-34.92756" lon="-58.050095">
        <time>2021-05-01T12:22:41Z</time>
      </trkpt>
      <trkpt lat="-34.927597" lon="-58.05014">
        <time>2021-05-01T12:22:42Z</time>
      </trkpt>
      <trkpt lat="-34.927635" lon="-58.05018">
        <time>2021-05-01T12:22:43Z</time>
      </trkpt>
      <trkpt lat="-34.927677" lon="-58.050217">
        <time>2021-05-01T12:22:44Z</time>
      </trkpt>
      <trkpt lat="-34.927715" lon="-58.050255">
        <time>2021-05-01T12:22:45Z</time>
      </trkpt>
      <trkpt lat="-34.927753" lon="-58.050293">
        <time>2021-05-01T12:22:46Z</time>
      </trkpt>
      <trkpt lat="-34.927795" lon="-58.050327">
        <time>2021-05-01T12:22:47Z</time>
      </trkpt>
      <trkpt lat="-34.927834" lon="-58.050365">
        <time>2021-05-01T12:22:48Z</time>
      </trkpt>
      <trkpt lat="-34.927876" lon="-58.050404">
        <time>2021-05-01T12:22:49Z</time>
      </trkpt>
      <trkpt lat="-34.92792" lon="-58.050438">
        <time>2021-05-01T12:22:50Z</time>
      </trkpt>
      <trkpt lat="-34.927963" lon="-58.05048">
        <time>2021-05-01T12:22:51Z</time>
      </trkpt>
      <trkpt lat="-34.928005" lon="-58.05052">
        <time>2021-05-01T12:22:52Z</time>
      </trkpt>
      <trkpt lat="-34.928043" lon="-58.050568">
        <time>2021-05-01T12:22:53Z</time>
      </trkpt>
      <trkpt lat="-34.92808" lon="-58.050613">
        <time>2021-05-01T12:22:54Z</time>
      </trkpt>
      <trkpt lat="-34.928123" lon="-58.05066">
        <time>2021-05-01T12:22:55Z</time>
      </trkpt>
      <trkpt lat="-34.928165" lon="-58.0507">
        <time>2021-05-01T12:22:56Z</time>
      </trkpt>
      <trkpt lat="-34.92821" lon="-58.050743">
        <time>2021-05-01T12:22:57Z</time>
      </trkpt>
      <trkpt lat="-34.92825" lon="-58.05079">
        <time>2021-05-01T12:22:58Z</time>
      </trkpt>
      <trkpt lat="-34.92829" lon="-58.050835">
        <time>2021-05-01T12:22:59Z</time>
      </trkpt>
      <trkpt lat="-34.928333" lon="-58.050884">
        <time>2021-05-01T12:23:00Z</time>
      </trkpt>
      <trkpt lat="-34.928375" lon="-58.05093">
        <time>2021-05-01T12:23:01Z</time>
      </trkpt>
      <trkpt lat="-34.92842" lon="-58.050976">
        <time>2021-05-01T12:23:02Z</time>
      </trkpt>
      <trkpt lat="-34.928463" lon="-58.051018">
        <time>2021-05-01T12:23:03Z</time>
      </trkpt>
      <trkpt lat="-34.928505" lon="-58.051064">
        <time>2021-05-01T12:23:04Z</time>
      </trkpt>
      <trkpt lat="-34.928547" lon="-58.051105">
        <time>2021-05-01T12:23:05Z</time>
      </trkpt>
      <trkpt lat="-34.928593" lon="-58.05114">
        <time>2021-05-01T12:23:06Z</time>
      </trkpt>
      <trkpt lat="-34.92864" lon="-58.05117">
        <time>2021-05-01T12:23:07Z</time>
      </trkpt>
      <trkpt lat="-34.928688" lon="-58.051197">
        <time>2021-05-01T12:23:08Z</time>
      </trkpt>
      <trkpt lat="-34.928734" lon="-58.051224">
        <time>2021-05-01T12:23:09Z</time>
      </trkpt>
      <trkpt lat="-34.928783" lon="-58.05123">
        <time>2021-05-01T12:23:10Z</time>
      </trkpt>
      <trkpt lat="-34.928833" lon="-58.051224">
        <time>2021-05-01T12:23:11Z</time>
      </trkpt>
      <trkpt lat="-34.928875" lon="-58.051193">
        <time>2021-05-01T12:23:12Z</time>
      </trkpt>
      <trkpt lat="-34.928917" lon="-58.05117">
        <time>2021-05-01T12:23:13Z</time>
      </trkpt>
      <trkpt lat="-34.92896" lon="-58.051132">
        <time>2021-05-01T12:23:14Z</time>
      </trkpt>
      <trkpt lat="-34.928997" lon="-58.05109">
        <time>2021-05-01T12:23:15Z</time>
      </trkpt>
      <trkpt lat="-34.92903" lon="-58.05104">
        <time>2021-05-01T12:23:16Z</time>
      </trkpt>
      <trkpt lat="-34.92907" lon="-58.051">
        <time>2021-05-01T12:23:17Z</time>
      </trkpt>
      <trkpt lat="-34.929104" lon="-58.05095">
        <time>2021-05-01T12:23:18Z</time>
      </trkpt>
      <trkpt lat="-34.92914" lon="-58.050903">
        <time>2021-05-01T12:23:19Z</time>
      </trkpt>
      <trkpt lat="-34.929173" lon="-58.050854">
        <time>2021-05-01T12:23:20Z</time>
      </trkpt>
      <trkpt lat="-34.929207" lon="-58.050808">
        <time>2021-05-01T12:23:21Z</time>
      </trkpt>
      <trkpt lat="-34.92924" lon="-58.05076">
        <time>2021-05-01T12:23:22Z</time>
      </trkpt>
      <trkpt lat="-34.929276" lon="-58.050713">
        <time>2021-05-01T12:23:23Z</time>
      </trkpt>
      <trkpt lat="-34.929306" lon="-58.050667">
        <time>2021-05-01T12:23:24Z</time>
      </trkpt>
      <trkpt lat="-34.92936" lon="-58.050587">
        <time>2021-05-01T12:23:26Z</time>
      </trkpt>
      <trkpt lat="-34.92941" lon="-58.050507">
        <time>2021-05-01T12:23:28Z</time>
      </trkpt>
      <trkpt lat="-34.929455" lon="-58.050423">
        <time>2021-05-01T12:23:30Z</time>
      </trkpt>
      <trkpt lat="-34.929485" lon="-58.050377">
        <time>2021-05-01T12:23:31Z</time>
      </trkpt>
      <trkpt lat="-34.929512" lon="-58.050327">
        <time>2021-05-01T12:23:32Z</time>
      </trkpt>
      <trkpt lat="-34.929546" lon="-58.050278">
        <time>2021-05-01T12:23:33Z</time>
      </trkpt>
      <trkpt lat="-34.929577" lon="-58.050232">
        <time>2021-05-01T12:23:34Z</time>
      </trkpt>
      <trkpt lat="-34.92961" lon="-58.05019">
        <time>2021-05-01T12:23:35Z</time>
      </trkpt>
      <trkpt lat="-34.929646" lon="-58.050144">
        <time>2021-05-01T12:23:36Z</time>
      </trkpt>
      <trkpt lat="-34.92968" lon="-58.0501">
        <time>2021-05-01T12:23:37Z</time>
      </trkpt>
      <trkpt lat="-34.92971" lon="-58.05005">
        <time>2021-05-01T12:23:38Z</time>
      </trkpt>
      <trkpt lat="-34.929745" lon="-58.050003">
        <time>2021-05-01T12:23:39Z</time>
      </trkpt>
      <trkpt lat="-34.92978" lon="-58.04996">
        <time>2021-05-01T12:23:40Z</time>
      </trkpt>
      <trkpt lat="-34.929813" lon="-58.04992">
        <time>2021-05-01T12:23:41Z</time>
      </trkpt>
      <trkpt lat="-34.929844" lon="-58.049873">
        <time>2021-05-01T12:23:42Z</time>
      </trkpt>
      <trkpt lat="-34.92987" lon="-58.04982">
        <time>2021-05-01T12:23:43Z</time>
      </trkpt>
      <trkpt lat="-34.929905" lon="-58.049778">
        <time>2021-05-01T12:23:44Z</time>
      </trkpt>
      <trkpt lat="-34.92994" lon="-58.049736">
        <time>2021-05-01T12:23:45Z</time>
      </trkpt>
      <trkpt lat="-34.92997" lon="-58.04969">
        <time>2021-05-01T12:23:46Z</time>
      </trkpt>
      <trkpt lat="-34.93" lon="-58.04965">
        <time>2021-05-01T12:23:47Z</time>
      </trkpt>
      <trkpt lat="-34.93003" lon="-58.049603">
        <time>2021-05-01T12:23:48Z</time>
      </trkpt>
      <trkpt lat="-34.93007" lon="-58.04956">
        <time>2021-05-01T12:23:49Z</time>
      </trkpt>
      <trkpt lat="-34.930107" lon="-58.049522">
        <time>2021-05-01T12:23:50Z</time>
      </trkpt>
      <trkpt lat="-34.93014" lon="-58.049477">
        <time>2021-05-01T12:23:51Z</time>
      </trkpt>
      <trkpt lat="-34.930172" lon="-58.049427">
        <time>2021-05-01T12:23:52Z</time>
      </trkpt>
      <trkpt lat="-34.930202" lon="-58.049374">
        <time>2021-05-01T12:23:53Z</time>
      </trkpt>
      <trkpt lat="-34.930233" lon="-58.04932">
        <time>2021-05-01T12:23:54Z</time>
      </trkpt>
      <trkpt lat="-34.93026" lon="-58.04927">
        <time>2021-05-01T12:23:55Z</time>
      </trkpt>
      <trkpt lat="-34.930294" lon="-58.049225">
        <time>2021-05-01T12:23:56Z</time>
      </trkpt>
      <trkpt lat="-34.930332" lon="-58.04918">
        <time>2021-05-01T12:23:57Z</time>
      </trkpt>
      <trkpt lat="-34.930367" lon="-58.049133">
        <time>2021-05-01T12:23:58Z</time>
      </trkpt>
      <trkpt lat="-34.9304" lon="-58.049088">
        <time>2021-05-01T12:23:59Z</time>
      </trkpt>
      <trkpt lat="-34.930435" lon="-58.049038">
        <time>2021-05-01T12:24:00Z</time>
      </trkpt>
      <trkpt lat="-34.930466" lon="-58.04899">
        <time>2021-05-01T12:24:01Z</time>
      </trkpt>
      <trkpt lat="-34.930496" lon="-58.048943">
        <time>2021-05-01T12:24:02Z</time>
      </trkpt>
      <trkpt lat="-34.930527" lon="-58.048893">
        <time>2021-05-01T12:24:03Z</time>
      </trkpt>
      <trkpt lat="-34.93056" lon="-58.048847">
        <time>2021-05-01T12:24:04Z</time>
      </trkpt>
      <trkpt lat="-34.93059" lon="-58.048798">
        <time>2021-05-01T12:24:05Z</time>
      </trkpt>
      <trkpt lat="-34.930626" lon="-58.04875">
        <time>2021-05-01T12:24:06Z</time>
      </trkpt>
      <trkpt lat="-34.93066" lon="-58.048706">
        <time>2021-05-01T12:24:07Z</time>
      </trkpt>
      <trkpt lat="-34.930695" lon="-58.04866">
        <time>2021-05-01T12:24:08Z</time>
      </trkpt>
      <trkpt lat="-34.930725" lon="-58.04861">
        <time>2021-05-01T12:24:09Z</time>
      </trkpt>
      <trkpt lat="-34.93076" lon="-58.048565">
        <time>2021-05-01T12:24:10Z</time>
      </trkpt>
      <trkpt lat="-34.930794" lon="-58.048515">
        <time>2021-05-01T12:24:11Z</time>
      </trkpt>
      <trkpt lat="-34.93082" lon="-58.048462">
        <time>2021-05-01T12:24:12Z</time>
      </trkpt>
      <trkpt lat="-34.930855" lon="-58.04841">
        <time>2021-05-01T12:24:13Z</time>
      </trkpt>
      <trkpt lat="-34.93089" lon="-58.048363">
        <time>2021-05-01T12:24:14Z</time>
      </trkpt>
      <trkpt lat="-34.930923" lon="-58.04832">
        <time>2021-05-01T12:24:15Z</time>
      </trkpt>
      <trkpt lat="-34.93095" lon="-58.04827">
        <time>2021-05-01T12:24:16Z</time>
      </trkpt>
      <trkpt lat="-34.930977" lon="-58.04822">
        <time>2021-05-01T12:24:17Z</time>
      </trkpt>
      <trkpt lat="-34.931007" lon="-58.048176">
        <time>2021-05-01T12:24:18Z</time>
      </trkpt>
      <trkpt lat="-34.931038" lon="-58.048126">
        <time>2021-05-01T12:24:19Z</time>
      </trkpt>
      <trkpt lat="-34.93107" lon="-58.04808">
        <time>2021-05-01T12:24:20Z</time>
      </trkpt>
      <trkpt lat="-34.931103" lon="-58.048035">
        <time>2021-05-01T12:24:21Z</time>
      </trkpt>
      <trkpt lat="-34.931133" lon="-58.047985">
        <time>2021-05-01T12:24:22Z</time>
      </trkpt>
      <trkpt lat="-34.931168" lon="-58.04794">
        <time>2021-05-01T12:24:23Z</time>
      </trkpt>
      <trkpt lat="-34.9312" lon="-58.047894">
        <time>2021-05-01T12:24:24Z</time>
      </trkpt>
      <trkpt lat="-34.931232" lon="-58.047844">
        <time>2021-05-01T12:24:25Z</time>
      </trkpt>
      <trkpt lat="-34.931267" lon="-58.0478">
        <time>2021-05-01T12:24:26Z</time>
      </trkpt>
      <trkpt lat="-34.931297" lon="-58.047756">
        <time>2021-05-01T12:24:27Z</time>
      </trkpt>
      <trkpt lat="-34.931328" lon="-58.047714">
        <time>2021-05-01T12:24:28Z</time>
      </trkpt>
      <trkpt lat="-34.931385" lon="-58.047634">
        <time>2021-05-01T12:24:30Z</time>
      </trkpt>
      <trkpt lat="-34.931416" lon="-58.047592">
        <time>2021-05-01T12:24:31Z</time>
      </trkpt>
      <trkpt lat="-34.931446" lon="-58.047546">
        <time>2021-05-01T12:24:32Z</time>
      </trkpt>
      <trkpt lat="-34.931477" lon="-58.0475">
        <time>2021-05-01T12:24:33Z</time>
      </trkpt>
      <trkpt lat="-34.93151" lon="-58.047455">
        <time>2021-05-01T12:24:34Z</time>
      </trkpt>
      <trkpt lat="-34.931545" lon="-58.04741">
        <time>2021-05-01T12:24:35Z</time>
      </trkpt>
      <trkpt lat="-34.931576" lon="-58.047363">
        <time>2021-05-01T12:24:36Z</time>
      </trkpt>
      <trkpt lat="-34.93161" lon="-58.047318">
        <time>2021-05-01T12:24:37Z</time>
      </trkpt>
      <trkpt lat="-34.931644" lon="-58.04727">
        <time>2021-05-01T12:24:38Z</time>
      </trkpt>
      <trkpt lat="-34.93168" lon="-58.047226">
        <time>2021-05-01T12:24:39Z</time>
      </trkpt>
      <trkpt lat="-34.931713" lon="-58.047176">
        <time>2021-05-01T12:24:40Z</time>
      </trkpt>
      <trkpt lat="-34.931747" lon="-58.047127">
        <time>2021-05-01T12:24:41Z</time>
      </trkpt>
      <trkpt lat="-34.931786" lon="-58.04708">
        <time>2021-05-01T12:24:42Z</time>
      </trkpt>
      <trkpt lat="-34.931824" lon="-58.047035">
        <time>2021-05-01T12:24:43Z</time>
      </trkpt>
      <trkpt lat="-34.931854" lon="-58.046986">
        <time>2021-05-01T12:24:44Z</time>
      </trkpt>
      <trkpt lat="-34.93189" lon="-58.04694">
        <time>2021-05-01T12:24:45Z</time>
      </trkpt>
      <trkpt lat="-34.931923" lon="-58.04689">
        <time>2021-05-01T12:24:46Z</time>
      </trkpt>
      <trkpt lat="-34.931957" lon="-58.046844">
        <time>2021-05-01T12:24:47Z</time>
      </trkpt>
      <trkpt lat="-34.931988" lon="-58.046795">
        <time>2021-05-01T12:24:48Z</time>
      </trkpt>
      <trkpt lat="-34.93202" lon="-58.046745">
        <time>2021-05-01T12:24:49Z</time>
      </trkpt>
      <trkpt lat="-34.932053" lon="-58.046696">
        <time>2021-05-01T12:24:50Z</time>
      </trkpt>
      <trkpt lat="-34.932087" lon="-58.046646">
        <time>2021-05-01T12:24:51Z</time>
      </trkpt>
      <trkpt lat="-34.932117" lon="-58.0466">
        <time>2021-05-01T12:24:52Z</time>
      </trkpt>
      <trkpt lat="-34.93215" lon="-58.04655">
        <time>2021-05-01T12:24:53Z</time>
      </trkpt>
      <trkpt lat="-34.932186" lon="-58.0465">
        <time>2021-05-01T12:24:54Z</time>
      </trkpt>
      <trkpt lat="-34.932217" lon="-58.04645">
        <time>2021-05-01T12:24:55Z</time>
      </trkpt>
      <trkpt lat="-34.932255" lon="-58.046406">
        <time>2021-05-01T12:24:56Z</time>
      </trkpt>
      <trkpt lat="-34.93229" lon="-58.046356">
        <time>2021-05-01T12:24:57Z</time>
      </trkpt>
      <trkpt lat="-34.93232" lon="-58.046307">
        <time>2021-05-01T12:24:58Z</time>
      </trkpt>
      <trkpt lat="-34.932354" lon="-58.046253">
        <time>2021-05-01T12:24:59Z</time>
      </trkpt>
      <trkpt lat="-34.932392" lon="-58.046207">
        <time>2021-05-01T12:25:00Z</time>
      </trkpt>
      <trkpt lat="-34.932426" lon="-58.046154">
        <time>2021-05-01T12:25:01Z</time>
      </trkpt>
      <trkpt lat="-34.932457" lon="-58.0461">
        <time>2021-05-01T12:25:02Z</time>
      </trkpt>
      <trkpt lat="-34.932495" lon="-58.04605">
        <time>2021-05-01T12:25:03Z</time>
      </trkpt>
      <trkpt lat="-34.932537" lon="-58.04601">
        <time>2021-05-01T12:25:04Z</time>
      </trkpt>
      <trkpt lat="-34.93258" lon="-58.045967">
        <time>2021-05-01T12:25:05Z</time>
      </trkpt>
      <trkpt lat="-34.93262" lon="-58.04592">
        <time>2021-05-01T12:25:06Z</time>
      </trkpt>
      <trkpt lat="-34.93265" lon="-58.045868">
        <time>2021-05-01T12:25:07Z</time>
      </trkpt>
      <trkpt lat="-34.932682" lon="-58.045815">
        <time>2021-05-01T12:25:08Z</time>
      </trkpt>
      <trkpt lat="-34.932716" lon="-58.04576">
        <time>2021-05-01T12:25:09Z</time>
      </trkpt>
      <trkpt lat="-34.93275" lon="-58.045708">
        <time>2021-05-01T12:25:10Z</time>
      </trkpt>
      <trkpt lat="-34.932785" lon="-58.045654">
        <time>2021-05-01T12:25:11Z</time>
      </trkpt>
      <trkpt lat="-34.932823" lon="-58.0456">
        <time>2021-05-01T12:25:12Z</time>
      </trkpt>
      <trkpt lat="-34.932858" lon="-58.045544">
        <time>2021-05-01T12:25:13Z</time>
      </trkpt>
      <trkpt lat="-34.93289" lon="-58.045486">
        <time>2021-05-01T12:25:14Z</time>
      </trkpt>
      <trkpt lat="-34.932926" lon="-58.045433">
        <time>2021-05-01T12:25:15Z</time>
      </trkpt>
      <trkpt lat="-34.93296" lon="-58.045383">
        <time>2021-05-01T12:25:16Z</time>
      </trkpt>
      <trkpt lat="-34.933" lon="-58.045334">
        <time>2021-05-01T12:25:17Z</time>
      </trkpt>
      <trkpt lat="-34.933033" lon="-58.045284">
        <time>2021-05-01T12:25:18Z</time>
      </trkpt>
      <trkpt lat="-34.93307" lon="-58.045235">
        <time>2021-05-01T12:25:19Z</time>
      </trkpt>
      <trkpt lat="-34.933105" lon="-58.045185">
        <time>2021-05-01T12:25:20Z</time>
      </trkpt>
      <trkpt lat="-34.933144" lon="-58.04513">
        <time>2021-05-01T12:25:21Z</time>
      </trkpt>
      <trkpt lat="-34.933178" lon="-58.04508">
        <time>2021-05-01T12:25:22Z</time>
      </trkpt>
      <trkpt lat="-34.933216" lon="-58.045025">
        <time>2021-05-01T12:25:23Z</time>
      </trkpt>
      <trkpt lat="-34.933254" lon="-58.044968">
        <time>2021-05-01T12:25:24Z</time>
      </trkpt>
      <trkpt lat="-34.933292" lon="-58.04491">
        <time>2021-05-01T12:25:25Z</time>
      </trkpt>
      <trkpt lat="-34.93333" lon="-58.044853">
        <time>2021-05-01T12:25:26Z</time>
      </trkpt>
      <trkpt lat="-34.93337" lon="-58.044792">
        <time>2021-05-01T12:25:27Z</time>
      </trkpt>
      <trkpt lat="-34.93341" lon="-58.044735">
        <time>2021-05-01T12:25:28Z</time>
      </trkpt>
      <trkpt lat="-34.933453" lon="-58.04468">
        <time>2021-05-01T12:25:29Z</time>
      </trkpt>
      <trkpt lat="-34.93349" lon="-58.044624">
        <time>2021-05-01T12:25:30Z</time>
      </trkpt>
      <trkpt lat="-34.93353" lon="-58.044567">
        <time>2021-05-01T12:25:31Z</time>
      </trkpt>
      <trkpt lat="-34.93357" lon="-58.04451">
        <time>2021-05-01T12:25:32Z</time>
      </trkpt>
      <trkpt lat="-34.93361" lon="-58.044456">
        <time>2021-05-01T12:25:33Z</time>
      </trkpt>
      <trkpt lat="-34.93365" lon="-58.0444">
        <time>2021-05-01T12:25:34Z</time>
      </trkpt>
      <trkpt lat="-34.93369" lon="-58.044342">
        <time>2021-05-01T12:25:35Z</time>
      </trkpt>
      <trkpt lat="-34.933727" lon="-58.044285">
        <time>2021-05-01T12:25:36Z</time>
      </trkpt>
      <trkpt lat="-34.933765" lon="-58.044228">
        <time>2021-05-01T12:25:37Z</time>
      </trkpt>
      <trkpt lat="-34.933807" lon="-58.04417">
        <time>2021-05-01T12:25:38Z</time>
      </trkpt>
      <trkpt lat="-34.933846" lon="-58.044117">
        <time>2021-05-01T12:25:39Z</time>
      </trkpt>
      <trkpt lat="-34.93388" lon="-58.04407">
        <time>2021-05-01T12:25:40Z</time>
      </trkpt>
      <trkpt lat="-34.933918" lon="-58.04402">
        <time>2021-05-01T12:25:41Z</time>
      </trkpt>
      <trkpt lat="-34.933956" lon="-58.043964">
        <time>2021-05-01T12:25:42Z</time>
      </trkpt>
      <trkpt lat="-34.933994" lon="-58.043903">
        <time>2021-05-01T12:25:43Z</time>
      </trkpt>
      <trkpt lat="-34.934036" lon="-58.043846">
        <time>2021-05-01T12:25:44Z</time>
      </trkpt>
      <trkpt lat="-34.934074" lon="-58.043785">
        <time>2021-05-01T12:25:45Z</time>
      </trkpt>
      <trkpt lat="-34.934116" lon="-58.043728">
        <time>2021-05-01T12:25:46Z</time>
      </trkpt>
      <trkpt lat="-34.93416" lon="-58.04367">
        <time>2021-05-01T12:25:47Z</time>
      </trkpt>
      <trkpt lat="-34.934208" lon="-58.04363">
        <time>2021-05-01T12:25:48Z</time>
      </trkpt>
      <trkpt lat="-34.93425" lon="-58.043583">
        <time>2021-05-01T12:25:49Z</time>
      </trkpt>
      <trkpt lat="-34.934288" lon="-58.04353">
        <time>2021-05-01T12:25:50Z</time>
      </trkpt>
      <trkpt lat="-34.934322" lon="-58.043472">
        <time>2021-05-01T12:25:51Z</time>
      </trkpt>
      <trkpt lat="-34.934357" lon="-58.04341">
        <time>2021-05-01T12:25:52Z</time>
      </trkpt>
      <trkpt lat="-34.9344" lon="-58.043354">
        <time>2021-05-01T12:25:53Z</time>
      </trkpt>
      <trkpt lat="-34.934437" lon="-58.0433">
        <time>2021-05-01T12:25:54Z</time>
      </trkpt>
      <trkpt lat="-34.934475" lon="-58.043247">
        <time>2021-05-01T12:25:55Z</time>
      </trkpt>
      <trkpt lat="-34.93451" lon="-58.043194">
        <time>2021-05-01T12:25:56Z</time>
      </trkpt>
      <trkpt lat="-34.934547" lon="-58.04314">
        <time>2021-05-01T12:25:57Z</time>
      </trkpt>
      <trkpt lat="-34.93458" lon="-58.043095">
        <time>2021-05-01T12:25:58Z</time>
      </trkpt>
      <trkpt lat="-34.934612" lon="-58.043045">
        <time>2021-05-01T12:25:59Z</time>
      </trkpt>
      <trkpt lat="-34.934643" lon="-58.043">
        <time>2021-05-01T12:26:00Z</time>
      </trkpt>
      <trkpt lat="-34.934673" lon="-58.042953">
        <time>2021-05-01T12:26:01Z</time>
      </trkpt>
      <trkpt lat="-34.934704" lon="-58.04291">
        <time>2021-05-01T12:26:02Z</time>
      </trkpt>
      <trkpt lat="-34.934765" lon="-58.04284">
        <time>2021-05-01T12:26:04Z</time>
      </trkpt>
      <trkpt lat="-34.934826" lon="-58.04277">
        <time>2021-05-01T12:26:06Z</time>
      </trkpt>
      <trkpt lat="-34.934853" lon="-58.042686">
        <time>2021-05-01T12:26:08Z</time>
      </trkpt>
      <trkpt lat="-34.93489" lon="-58.042606">
        <time>2021-05-01T12:26:10Z</time>
      </trkpt>
      <trkpt lat="-34.934948" lon="-58.042526">
        <time>2021-05-01T12:26:12Z</time>
      </trkpt>
      <trkpt lat="-34.934975" lon="-58.042484">
        <time>2021-05-01T12:26:13Z</time>
      </trkpt>
      <trkpt lat="-34.935005" lon="-58.04244">
        <time>2021-05-01T12:26:14Z</time>
      </trkpt>
      <trkpt lat="-34.93504" lon="-58.042397">
        <time>2021-05-01T12:26:15Z</time>
      </trkpt>
      <trkpt lat="-34.93507" lon="-58.042355">
        <time>2021-05-01T12:26:16Z</time>
      </trkpt>
      <trkpt lat="-34.935104" lon="-58.04231">
        <time>2021-05-01T12:26:17Z</time>
      </trkpt>
      <trkpt lat="-34.935135" lon="-58.042267">
        <time>2021-05-01T12:26:18Z</time>
      </trkpt>
      <trkpt lat="-34.93517" lon="-58.04222">
        <time>2021-05-01T12:26:19Z</time>
      </trkpt>
      <trkpt lat="-34.9352" lon="-58.042175">
        <time>2021-05-01T12:26:20Z</time>
      </trkpt>
      <trkpt lat="-34.935234" lon="-58.04213">
        <time>2021-05-01T12:26:21Z</time>
      </trkpt>
      <trkpt lat="-34.935265" lon="-58.042084">
        <time>2021-05-01T12:26:22Z</time>
      </trkpt>
      <trkpt lat="-34.9353" lon="-58.04204">
        <time>2021-05-01T12:26:23Z</time>
      </trkpt>
      <trkpt lat="-34.935333" lon="-58.041996">
        <time>2021-05-01T12:26:24Z</time>
      </trkpt>
      <trkpt lat="-34.93537" lon="-58.041954">
        <time>2021-05-01T12:26:25Z</time>
      </trkpt>
      <trkpt lat="-34.93541" lon="-58.04191">
        <time>2021-05-01T12:26:26Z</time>
      </trkpt>
      <trkpt lat="-34.935444" lon="-58.04187">
        <time>2021-05-01T12:26:27Z</time>
      </trkpt>
      <trkpt lat="-34.935505" lon="-58.041794">
        <time>2021-05-01T12:26:29Z</time>
      </trkpt>
      <trkpt lat="-34.93557" lon="-58.041718">
        <time>2021-05-01T12:26:31Z</time>
      </trkpt>
      <trkpt lat="-34.935604" lon="-58.04168">
        <time>2021-05-01T12:26:32Z</time>
      </trkpt>
      <trkpt lat="-34.93564" lon="-58.041634">
        <time>2021-05-01T12:26:33Z</time>
      </trkpt>
      <trkpt lat="-34.93567" lon="-58.04158">
        <time>2021-05-01T12:26:34Z</time>
      </trkpt>
      <trkpt lat="-34.935703" lon="-58.04153">
        <time>2021-05-01T12:26:35Z</time>
      </trkpt>
      <trkpt lat="-34.935738" lon="-58.04148">
        <time>2021-05-01T12:26:36Z</time>
      </trkpt>
      <trkpt lat="-34.935772" lon="-58.041428">
        <time>2021-05-01T12:26:37Z</time>
      </trkpt>
      <trkpt lat="-34.935802" lon="-58.041374">
        <time>2021-05-01T12:26:38Z</time>
      </trkpt>
      <trkpt lat="-34.935837" lon="-58.04133">
        <time>2021-05-01T12:26:39Z</time>
      </trkpt>
      <trkpt lat="-34.93587" lon="-58.04128">
        <time>2021-05-01T12:26:40Z</time>
      </trkpt>
      <trkpt lat="-34.9359" lon="-58.041233">
        <time>2021-05-01T12:26:41Z</time>
      </trkpt>
      <trkpt lat="-34.935936" lon="-58.04119">
        <time>2021-05-01T12:26:42Z</time>
      </trkpt>
      <trkpt lat="-34.935966" lon="-58.041153">
        <time>2021-05-01T12:26:43Z</time>
      </trkpt>
      <trkpt lat="-34.935997" lon="-58.041103">
        <time>2021-05-01T12:26:44Z</time>
      </trkpt>
      <trkpt lat="-34.93603" lon="-58.04106">
        <time>2021-05-01T12:26:45Z</time>
      </trkpt>
      <trkpt lat="-34.936066" lon="-58.04102">
        <time>2021-05-01T12:26:46Z</time>
      </trkpt>
      <trkpt lat="-34.9361" lon="-58.040977">
        <time>2021-05-01T12:26:47Z</time>
      </trkpt>
      <trkpt lat="-34.93613" lon="-58.04094">
        <time>2021-05-01T12:26:48Z</time>
      </trkpt>
      <trkpt lat="-34.936195" lon="-58.040855">
        <time>2021-05-01T12:26:50Z</time>
      </trkpt>
      <trkpt lat="-34.93623" lon="-58.04081">
        <time>2021-05-01T12:26:51Z</time>
      </trkpt>
      <trkpt lat="-34.936256" lon="-58.04076">
        <time>2021-05-01T12:26:52Z</time>
      </trkpt>
      <trkpt lat="-34.936287" lon="-58.040707">
        <time>2021-05-01T12:26:53Z</time>
      </trkpt>
      <trkpt lat="-34.936325" lon="-58.040665">
        <time>2021-05-01T12:26:54Z</time>
      </trkpt>
      <trkpt lat="-34.93636" lon="-58.040623">
        <time>2021-05-01T12:26:55Z</time>
      </trkpt>
      <trkpt lat="-34.936394" lon="-58.04058">
        <time>2021-05-01T12:26:56Z</time>
      </trkpt>
      <trkpt lat="-34.93643" lon="-58.04054">
        <time>2021-05-01T12:26:57Z</time>
      </trkpt>
      <trkpt lat="-34.936462" lon="-58.040497">
        <time>2021-05-01T12:26:58Z</time>
      </trkpt>
      <trkpt lat="-34.936497" lon="-58.04045">
        <time>2021-05-01T12:26:59Z</time>
      </trkpt>
      <trkpt lat="-34.93653" lon="-58.040405">
        <time>2021-05-01T12:27:00Z</time>
      </trkpt>
      <trkpt lat="-34.936558" lon="-58.040356">
        <time>2021-05-01T12:27:01Z</time>
      </trkpt>
      <trkpt lat="-34.93659" lon="-58.040306">
        <time>2021-05-01T12:27:02Z</time>
      </trkpt>
      <trkpt lat="-34.936623" lon="-58.040264">
        <time>2021-05-01T12:27:03Z</time>
      </trkpt>
      <trkpt lat="-34.93665" lon="-58.040222">
        <time>2021-05-01T12:27:04Z</time>
      </trkpt>
      <trkpt lat="-34.93668" lon="-58.040176">
        <time>2021-05-01T12:27:05Z</time>
      </trkpt>
      <trkpt lat="-34.936714" lon="-58.04013">
        <time>2021-05-01T12:27:06Z</time>
      </trkpt>
      <trkpt lat="-34.936775" lon="-58.040054">
        <time>2021-05-01T12:27:08Z</time>
      </trkpt>
      <trkpt lat="-34.93681" lon="-58.040016">
        <time>2021-05-01T12:27:09Z</time>
      </trkpt>
      <trkpt lat="-34.93684" lon="-58.03997">
        <time>2021-05-01T12:27:10Z</time>
      </trkpt>
      <trkpt lat="-34.936874" lon="-58.039925">
        <time>2021-05-01T12:27:11Z</time>
      </trkpt>
      <trkpt lat="-34.936905" lon="-58.03988">
        <time>2021-05-01T12:27:12Z</time>
      </trkpt>
      <trkpt lat="-34.936943" lon="-58.039833">
        <time>2021-05-01T12:27:13Z</time>
      </trkpt>
      <trkpt lat="-34.93698" lon="-58.039783">
        <time>2021-05-01T12:27:14Z</time>
      </trkpt>
      <trkpt lat="-34.937016" lon="-58.03973">
        <time>2021-05-01T12:27:15Z</time>
      </trkpt>
      <trkpt lat="-34.937054" lon="-58.03968">
        <time>2021-05-01T12:27:16Z</time>
      </trkpt>
      <trkpt lat="-34.937084" lon="-58.03964">
        <time>2021-05-01T12:27:17Z</time>
      </trkpt>
      <trkpt lat="-34.937122" lon="-58.03959">
        <time>2021-05-01T12:27:18Z</time>
      </trkpt>
      <trkpt lat="-34.93716" lon="-58.03954">
        <time>2021-05-01T12:27:19Z</time>
      </trkpt>
      <trkpt lat="-34.9372" lon="-58.03949">
        <time>2021-05-01T12:27:20Z</time>
      </trkpt>
      <trkpt lat="-34.937237" lon="-58.039448">
        <time>2021-05-01T12:27:21Z</time>
      </trkpt>
      <trkpt lat="-34.937263" lon="-58.0394">
        <time>2021-05-01T12:27:22Z</time>
      </trkpt>
      <trkpt lat="-34.93732" lon="-58.039326">
        <time>2021-05-01T12:27:24Z</time>
      </trkpt>
      <trkpt lat="-34.937366" lon="-58.03926">
        <time>2021-05-01T12:27:26Z</time>
      </trkpt>
      <trkpt lat="-34.937405" lon="-58.03919">
        <time>2021-05-01T12:27:28Z</time>
      </trkpt>
      <trkpt lat="-34.93745" lon="-58.039124">
        <time>2021-05-01T12:27:30Z</time>
      </trkpt>
      <trkpt lat="-34.93749" lon="-58.039085">
        <time>2021-05-01T12:27:31Z</time>
      </trkpt>
      <trkpt lat="-34.937523" lon="-58.039047">
        <time>2021-05-01T12:27:32Z</time>
      </trkpt>
      <trkpt lat="-34.93756" lon="-58.039">
        <time>2021-05-01T12:27:33Z</time>
      </trkpt>
      <trkpt lat="-34.937595" lon="-58.03895">
        <time>2021-05-01T12:27:34Z</time>
      </trkpt>
      <trkpt lat="-34.937634" lon="-58.038902">
        <time>2021-05-01T12:27:35Z</time>
      </trkpt>
      <trkpt lat="-34.93767" lon="-58.038853">
        <time>2021-05-01T12:27:36Z</time>
      </trkpt>
      <trkpt lat="-34.937706" lon="-58.038803">
        <time>2021-05-01T12:27:37Z</time>
      </trkpt>
      <trkpt lat="-34.937744" lon="-58.03875">
        <time>2021-05-01T12:27:38Z</time>
      </trkpt>
      <trkpt lat="-34.937782" lon="-58.0387">
        <time>2021-05-01T12:27:40Z</time>
      </trkpt>
      <trkpt lat="-34.93782" lon="-58.038647">
        <time>2021-05-01T12:27:41Z</time>
      </trkpt>
      <trkpt lat="-34.93786" lon="-58.038593">
        <time>2021-05-01T12:27:42Z</time>
      </trkpt>
      <trkpt lat="-34.9379" lon="-58.03854">
        <time>2021-05-01T12:27:43Z</time>
      </trkpt>
      <trkpt lat="-34.93794" lon="-58.038486">
        <time>2021-05-01T12:27:44Z</time>
      </trkpt>
      <trkpt lat="-34.93798" lon="-58.038433">
        <time>2021-05-01T12:27:45Z</time>
      </trkpt>
      <trkpt lat="-34.938023" lon="-58.038376">
        <time>2021-05-01T12:27:46Z</time>
      </trkpt>
      <trkpt lat="-34.938065" lon="-58.038322">
        <time>2021-05-01T12:27:47Z</time>
      </trkpt>
      <trkpt lat="-34.93811" lon="-58.038265">
        <time>2021-05-01T12:27:48Z</time>
      </trkpt>
      <trkpt lat="-34.938152" lon="-58.038208">
        <time>2021-05-01T12:27:49Z</time>
      </trkpt>
      <trkpt lat="-34.938194" lon="-58.03815">
        <time>2021-05-01T12:27:50Z</time>
      </trkpt>
      <trkpt lat="-34.938236" lon="-58.038094">
        <time>2021-05-01T12:27:51Z</time>
      </trkpt>
      <trkpt lat="-34.93828" lon="-58.038036">
        <time>2021-05-01T12:27:52Z</time>
      </trkpt>
      <trkpt lat="-34.93832" lon="-58.03798">
        <time>2021-05-01T12:27:53Z</time>
      </trkpt>
      <trkpt lat="-34.938354" lon="-58.03792">
        <time>2021-05-01T12:27:54Z</time>
      </trkpt>
      <trkpt lat="-34.938393" lon="-58.03787">
        <time>2021-05-01T12:27:55Z</time>
      </trkpt>
      <trkpt lat="-34.938427" lon="-58.037815">
        <time>2021-05-01T12:27:56Z</time>
      </trkpt>
      <trkpt lat="-34.938465" lon="-58.037766">
        <time>2021-05-01T12:27:57Z</time>
      </trkpt>
      <trkpt lat="-34.938503" lon="-58.037724">
        <time>2021-05-01T12:27:58Z</time>
      </trkpt>
      <trkpt lat="-34.93854" lon="-58.037674">
        <time>2021-05-01T12:27:59Z</time>
      </trkpt>
      <trkpt lat="-34.938576" lon="-58.037624">
        <time>2021-05-01T12:28:00Z</time>
      </trkpt>
      <trkpt lat="-34.93861" lon="-58.037575">
        <time>2021-05-01T12:28:01Z</time>
      </trkpt>
      <trkpt lat="-34.938644" lon="-58.03753">
        <time>2021-05-01T12:28:02Z</time>
      </trkpt>
      <trkpt lat="-34.93868" lon="-58.037483">
        <time>2021-05-01T12:28:03Z</time>
      </trkpt>
      <trkpt lat="-34.938713" lon="-58.03744">
        <time>2021-05-01T12:28:04Z</time>
      </trkpt>
      <trkpt lat="-34.938747" lon="-58.037395">
        <time>2021-05-01T12:28:05Z</time>
      </trkpt>
      <trkpt lat="-34.93878" lon="-58.03735">
        <time>2021-05-01T12:28:06Z</time>
      </trkpt>
      <trkpt lat="-34.938816" lon="-58.037308">
        <time>2021-05-01T12:28:07Z</time>
      </trkpt>
      <trkpt lat="-34.93885" lon="-58.037262">
        <time>2021-05-01T12:28:08Z</time>
      </trkpt>
      <trkpt lat="-34.938885" lon="-58.03722">
        <time>2021-05-01T12:28:09Z</time>
      </trkpt>
      <trkpt lat="-34.938915" lon="-58.037174">
        <time>2021-05-01T12:28:10Z</time>
      </trkpt>
      <trkpt lat="-34.93895" lon="-58.037132">
        <time>2021-05-01T12:28:11Z</time>
      </trkpt>
      <trkpt lat="-34.938984" lon="-58.037086">
        <time>2021-05-01T12:28:12Z</time>
      </trkpt>
      <trkpt lat="-34.93902" lon="-58.03704">
        <time>2021-05-01T12:28:13Z</time>
      </trkpt>
      <trkpt lat="-34.93905" lon="-58.036995">
        <time>2021-05-01T12:28:14Z</time>
      </trkpt>
      <trkpt lat="-34.939083" lon="-58.03695">
        <time>2021-05-01T12:28:15Z</time>
      </trkpt>
      <trkpt lat="-34.939117" lon="-58.036907">
        <time>2021-05-01T12:28:16Z</time>
      </trkpt>
      <trkpt lat="-34.939148" lon="-58.03686">
        <time>2021-05-01T12:28:17Z</time>
      </trkpt>
      <trkpt lat="-34.939182" lon="-58.03682">
        <time>2021-05-01T12:28:18Z</time>
      </trkpt>
      <trkpt lat="-34.939213" lon="-58.036777">
        <time>2021-05-01T12:28:19Z</time>
      </trkpt>
      <trkpt lat="-34.939243" lon="-58.036736">
        <time>2021-05-01T12:28:20Z</time>
      </trkpt>
      <trkpt lat="-34.93929" lon="-58.036648">
        <time>2021-05-01T12:28:22Z</time>
      </trkpt>
      <trkpt lat="-34.93935" lon="-58.03658">
        <time>2021-05-01T12:28:24Z</time>
      </trkpt>
      <trkpt lat="-34.939434" lon="-58.036556">
        <time>2021-05-01T12:28:26Z</time>
      </trkpt>
      <trkpt lat="-34.93951" lon="-58.0366">
        <time>2021-05-01T12:28:28Z</time>
      </trkpt>
      <trkpt lat="-34.939545" lon="-58.036636">
        <time>2021-05-01T12:28:29Z</time>
      </trkpt>
      <trkpt lat="-34.939575" lon="-58.03668">
        <time>2021-05-01T12:28:30Z</time>
      </trkpt>
      <trkpt lat="-34.939606" lon="-58.036724">
        <time>2021-05-01T12:28:31Z</time>
      </trkpt>
      <trkpt lat="-34.939636" lon="-58.03677">
        <time>2021-05-01T12:28:32Z</time>
      </trkpt>
      <trkpt lat="-34.93967" lon="-58.036804">
        <time>2021-05-01T12:28:33Z</time>
      </trkpt>
      <trkpt lat="-34.93971" lon="-58.03684">
        <time>2021-05-01T12:28:34Z</time>
      </trkpt>
      <trkpt lat="-34.939774" lon="-58.036907">
        <time>2021-05-01T12:28:36Z</time>
      </trkpt>
      <trkpt lat="-34.93984" lon="-58.03698">
        <time>2021-05-01T12:28:38Z</time>
      </trkpt>
      <trkpt lat="-34.939873" lon="-58.037018">
        <time>2021-05-01T12:28:39Z</time>
      </trkpt>
      <trkpt lat="-34.93991" lon="-58.037056">
        <time>2021-05-01T12:28:40Z</time>
      </trkpt>
      <trkpt lat="-34.939945" lon="-58.03709">
        <time>2021-05-01T12:28:41Z</time>
      </trkpt>
      <trkpt lat="-34.939983" lon="-58.03713">
        <time>2021-05-01T12:28:42Z</time>
      </trkpt>
      <trkpt lat="-34.940018" lon="-58.03717">
        <time>2021-05-01T12:28:43Z</time>
      </trkpt>
      <trkpt lat="-34.940056" lon="-58.037212">
        <time>2021-05-01T12:28:44Z</time>
      </trkpt>
      <trkpt lat="-34.940094" lon="-58.037254">
        <time>2021-05-01T12:28:45Z</time>
      </trkpt>
      <trkpt lat="-34.940132" lon="-58.037296">
        <time>2021-05-01T12:28:46Z</time>
      </trkpt>
      <trkpt lat="-34.94017" lon="-58.03734">
        <time>2021-05-01T12:28:47Z</time>
      </trkpt>
      <trkpt lat="-34.940205" lon="-58.03738">
        <time>2021-05-01T12:28:48Z</time>
      </trkpt>
      <trkpt lat="-34.940243" lon="-58.03742">
        <time>2021-05-01T12:28:49Z</time>
      </trkpt>
      <trkpt lat="-34.94028" lon="-58.03746">
        <time>2021-05-01T12:28:50Z</time>
      </trkpt>
      <trkpt lat="-34.94032" lon="-58.0375">
        <time>2021-05-01T12:28:51Z</time>
      </trkpt>
      <trkpt lat="-34.940353" lon="-58.03754">
        <time>2021-05-01T12:28:52Z</time>
      </trkpt>
      <trkpt lat="-34.94039" lon="-58.03758">
        <time>2021-05-01T12:28:53Z</time>
      </trkpt>
      <trkpt lat="-34.94043" lon="-58.037617">
        <time>2021-05-01T12:28:54Z</time>
      </trkpt>
      <trkpt lat="-34.940468" lon="-58.037655">
        <time>2021-05-01T12:28:55Z</time>
      </trkpt>
      <trkpt lat="-34.940506" lon="-58.037693">
        <time>2021-05-01T12:28:56Z</time>
      </trkpt>
      <trkpt lat="-34.94054" lon="-58.037735">
        <time>2021-05-01T12:28:57Z</time>
      </trkpt>
      <trkpt lat="-34.94058" lon="-58.037773">
        <time>2021-05-01T12:28:58Z</time>
      </trkpt>
      <trkpt lat="-34.940613" lon="-58.037815">
        <time>2021-05-01T12:28:59Z</time>
      </trkpt>
      <trkpt lat="-34.94065" lon="-58.037853">
        <time>2021-05-01T12:29:00Z</time>
      </trkpt>
      <trkpt lat="-34.940685" lon="-58.03789">
        <time>2021-05-01T12:29:01Z</time>
      </trkpt>
      <trkpt lat="-34.940723" lon="-58.037933">
        <time>2021-05-01T12:29:02Z</time>
      </trkpt>
      <trkpt lat="-34.94076" lon="-58.037975">
        <time>2021-05-01T12:29:03Z</time>
      </trkpt>
      <trkpt lat="-34.9408" lon="-58.038017">
        <time>2021-05-01T12:29:04Z</time>
      </trkpt>
      <trkpt lat="-34.940838" lon="-58.038055">
        <time>2021-05-01T12:29:05Z</time>
      </trkpt>
      <trkpt lat="-34.940876" lon="-58.038097">
        <time>2021-05-01T12:29:06Z</time>
      </trkpt>
      <trkpt lat="-34.940914" lon="-58.03814">
        <time>2021-05-01T12:29:07Z</time>
      </trkpt>
      <trkpt lat="-34.940952" lon="-58.03818">
        <time>2021-05-01T12:29:08Z</time>
      </trkpt>
      <trkpt lat="-34.94099" lon="-58.038223">
        <time>2021-05-01T12:29:09Z</time>
      </trkpt>
      <trkpt lat="-34.94103" lon="-58.038265">
        <time>2021-05-01T12:29:10Z</time>
      </trkpt>
      <trkpt lat="-34.941067" lon="-58.038307">
        <time>2021-05-01T12:29:11Z</time>
      </trkpt>
      <trkpt lat="-34.941105" lon="-58.038345">
        <time>2021-05-01T12:29:12Z</time>
      </trkpt>
      <trkpt lat="-34.941143" lon="-58.038387">
        <time>2021-05-01T12:29:13Z</time>
      </trkpt>
      <trkpt lat="-34.941177" lon="-58.038425">
        <time>2021-05-01T12:29:14Z</time>
      </trkpt>
      <trkpt lat="-34.94121" lon="-58.038467">
        <time>2021-05-01T12:29:15Z</time>
      </trkpt>
      <trkpt lat="-34.94125" lon="-58.038506">
        <time>2021-05-01T12:29:16Z</time>
      </trkpt>
      <trkpt lat="-34.94129" lon="-58.038544">
        <time>2021-05-01T12:29:17Z</time>
      </trkpt>
      <trkpt lat="-34.941326" lon="-58.038586">
        <time>2021-05-01T12:29:18Z</time>
      </trkpt>
      <trkpt lat="-34.941364" lon="-58.038628">
        <time>2021-05-01T12:29:19Z</time>
      </trkpt>
      <trkpt lat="-34.941402" lon="-58.038666">
        <time>2021-05-01T12:29:20Z</time>
      </trkpt>
      <trkpt lat="-34.941444" lon="-58.038704">
        <time>2021-05-01T12:29:21Z</time>
      </trkpt>
      <trkpt lat="-34.941483" lon="-58.038742">
        <time>2021-05-01T12:29:22Z</time>
      </trkpt>
      <trkpt lat="-34.941525" lon="-58.038784">
        <time>2021-05-01T12:29:23Z</time>
      </trkpt>
      <trkpt lat="-34.941563" lon="-58.038826">
        <time>2021-05-01T12:29:24Z</time>
      </trkpt>
      <trkpt lat="-34.941605" lon="-58.038868">
        <time>2021-05-01T12:29:25Z</time>
      </trkpt>
      <trkpt lat="-34.94164" lon="-58.038914">
        <time>2021-05-01T12:29:26Z</time>
      </trkpt>
      <trkpt lat="-34.941677" lon="-58.038963">
        <time>2021-05-01T12:29:27Z</time>
      </trkpt>
      <trkpt lat="-34.941715" lon="-58.03901">
        <time>2021-05-01T12:29:28Z</time>
      </trkpt>
      <trkpt lat="-34.94175" lon="-58.039055">
        <time>2021-05-01T12:29:29Z</time>
      </trkpt>
      <trkpt lat="-34.94179" lon="-58.0391">
        <time>2021-05-01T12:29:30Z</time>
      </trkpt>
      <trkpt lat="-34.94183" lon="-58.039146">
        <time>2021-05-01T12:29:31Z</time>
      </trkpt>
      <trkpt lat="-34.941868" lon="-58.03919">
        <time>2021-05-01T12:29:32Z</time>
      </trkpt>
      <trkpt lat="-34.941906" lon="-58.039234">
        <time>2021-05-01T12:29:33Z</time>
      </trkpt>
      <trkpt lat="-34.941948" lon="-58.039276">
        <time>2021-05-01T12:29:34Z</time>
      </trkpt>
      <trkpt lat="-34.941986" lon="-58.039318">
        <time>2021-05-01T12:29:35Z</time>
      </trkpt>
      <trkpt lat="-34.942028" lon="-58.03936">
        <time>2021-05-01T12:29:36Z</time>
      </trkpt>
      <trkpt lat="-34.942066" lon="-58.039402">
        <time>2021-05-01T12:29:37Z</time>
      </trkpt>
      <trkpt lat="-34.942104" lon="-58.039444">
        <time>2021-05-01T12:29:38Z</time>
      </trkpt>
      <trkpt lat="-34.942142" lon="-58.03949">
        <time>2021-05-01T12:29:39Z</time>
      </trkpt>
      <trkpt lat="-34.94218" lon="-58.03953">
        <time>2021-05-01T12:29:40Z</time>
      </trkpt>
      <trkpt lat="-34.94222" lon="-58.039574">
        <time>2021-05-01T12:29:41Z</time>
      </trkpt>
      <trkpt lat="-34.94226" lon="-58.039616">
        <time>2021-05-01T12:29:42Z</time>
      </trkpt>
      <trkpt lat="-34.9423" lon="-58.039658">
        <time>2021-05-01T12:29:43Z</time>
      </trkpt>
      <trkpt lat="-34.942337" lon="-58.0397">
        <time>2021-05-01T12:29:44Z</time>
      </trkpt>
      <trkpt lat="-34.94238" lon="-58.039745">
        <time>2021-05-01T12:29:45Z</time>
      </trkpt>
      <trkpt lat="-34.942417" lon="-58.03979">
        <time>2021-05-01T12:29:46Z</time>
      </trkpt>
      <trkpt lat="-34.94246" lon="-58.039837">
        <time>2021-05-01T12:29:47Z</time>
      </trkpt>
      <trkpt lat="-34.9425" lon="-58.039883">
        <time>2021-05-01T12:29:48Z</time>
      </trkpt>
      <trkpt lat="-34.942543" lon="-58.03993">
        <time>2021-05-01T12:29:49Z</time>
      </trkpt>
      <trkpt lat="-34.94258" lon="-58.039974">
        <time>2021-05-01T12:29:50Z</time>
      </trkpt>
      <trkpt lat="-34.942623" lon="-58.04002">
        <time>2021-05-01T12:29:51Z</time>
      </trkpt>
      <trkpt lat="-34.942665" lon="-58.040066">
        <time>2021-05-01T12:29:52Z</time>
      </trkpt>
      <trkpt lat="-34.942707" lon="-58.04011">
        <time>2021-05-01T12:29:53Z</time>
      </trkpt>
      <trkpt lat="-34.94275" lon="-58.040157">
        <time>2021-05-01T12:29:54Z</time>
      </trkpt>
      <trkpt lat="-34.94279" lon="-58.040203">
        <time>2021-05-01T12:29:55Z</time>
      </trkpt>
      <trkpt lat="-34.942833" lon="-58.04025">
        <time>2021-05-01T12:29:56Z</time>
      </trkpt>
      <trkpt lat="-34.942875" lon="-58.040295">
        <time>2021-05-01T12:29:57Z</time>
      </trkpt>
      <trkpt lat="-34.942917" lon="-58.040344">
        <time>2021-05-01T12:29:58Z</time>
      </trkpt>
      <trkpt lat="-34.942963" lon="-58.04039">
        <time>2021-05-01T12:29:59Z</time>
      </trkpt>
      <trkpt lat="-34.943005" lon="-58.040436">
        <time>2021-05-01T12:30:00Z</time>
      </trkpt>
      <trkpt lat="-34.94305" lon="-58.040485">
        <time>2021-05-01T12:30:01Z</time>
      </trkpt>
      <trkpt lat="-34.943092" lon="-58.04053">
        <time>2021-05-01T12:30:02Z</time>
      </trkpt>
      <trkpt lat="-34.94314" lon="-58.040577">
        <time>2021-05-01T12:30:03Z</time>
      </trkpt>
      <trkpt lat="-34.943184" lon="-58.040623">
        <time>2021-05-01T12:30:04Z</time>
      </trkpt>
      <trkpt lat="-34.943226" lon="-58.04067">
        <time>2021-05-01T12:30:05Z</time>
      </trkpt>
      <trkpt lat="-34.94327" lon="-58.040714">
        <time>2021-05-01T12:30:06Z</time>
      </trkpt>
      <trkpt lat="-34.943317" lon="-58.04076">
        <time>2021-05-01T12:30:07Z</time>
      </trkpt>
      <trkpt lat="-34.943363" lon="-58.040806">
        <time>2021-05-01T12:30:08Z</time>
      </trkpt>
      <trkpt lat="-34.943405" lon="-58.04085">
        <time>2021-05-01T12:30:09Z</time>
      </trkpt>
      <trkpt lat="-34.943447" lon="-58.040897">
        <time>2021-05-01T12:30:10Z</time>
      </trkpt>
      <trkpt lat="-34.94349" lon="-58.040947">
        <time>2021-05-01T12:30:11Z</time>
      </trkpt>
      <trkpt lat="-34.94353" lon="-58.040997">
        <time>2021-05-01T12:30:12Z</time>
      </trkpt>
      <trkpt lat="-34.94357" lon="-58.04105">
        <time>2021-05-01T12:30:13Z</time>
      </trkpt>
      <trkpt lat="-34.94361" lon="-58.0411">
        <time>2021-05-01T12:30:14Z</time>
      </trkpt>
      <trkpt lat="-34.94365" lon="-58.04115">
        <time>2021-05-01T12:30:15Z</time>
      </trkpt>
      <trkpt lat="-34.94369" lon="-58.0412">
        <time>2021-05-01T12:30:16Z</time>
      </trkpt>
      <trkpt lat="-34.943737" lon="-58.041245">
        <time>2021-05-01T12:30:17Z</time>
      </trkpt>
      <trkpt lat="-34.94378" lon="-58.04129">
        <time>2021-05-01T12:30:18Z</time>
      </trkpt>
      <trkpt lat="-34.943825" lon="-58.041336">
        <time>2021-05-01T12:30:19Z</time>
      </trkpt>
      <trkpt lat="-34.943867" lon="-58.041386">
        <time>2021-05-01T12:30:20Z</time>
      </trkpt>
      <trkpt lat="-34.94391" lon="-58.04143">
        <time>2021-05-01T12:30:21Z</time>
      </trkpt>
      <trkpt lat="-34.94395" lon="-58.041477">
        <time>2021-05-01T12:30:22Z</time>
      </trkpt>
      <trkpt lat="-34.943993" lon="-58.041523">
        <time>2021-05-01T12:30:23Z</time>
      </trkpt>
      <trkpt lat="-34.94404" lon="-58.04157">
        <time>2021-05-01T12:30:24Z</time>
      </trkpt>
      <trkpt lat="-34.94408" lon="-58.041615">
        <time>2021-05-01T12:30:25Z</time>
      </trkpt>
      <trkpt lat="-34.94412" lon="-58.04166">
        <time>2021-05-01T12:30:26Z</time>
      </trkpt>
      <trkpt lat="-34.94416" lon="-58.041706">
        <time>2021-05-01T12:30:27Z</time>
      </trkpt>
      <trkpt lat="-34.944202" lon="-58.04175">
        <time>2021-05-01T12:30:28Z</time>
      </trkpt>
      <trkpt lat="-34.944244" lon="-58.041798">
        <time>2021-05-01T12:30:29Z</time>
      </trkpt>
      <trkpt lat="-34.944286" lon="-58.041847">
        <time>2021-05-01T12:30:30Z</time>
      </trkpt>
      <trkpt lat="-34.94433" lon="-58.041893">
        <time>2021-05-01T12:30:31Z</time>
      </trkpt>
      <trkpt lat="-34.94437" lon="-58.04194">
        <time>2021-05-01T12:30:32Z</time>
      </trkpt>
      <trkpt lat="-34.944412" lon="-58.041985">
        <time>2021-05-01T12:30:33Z</time>
      </trkpt>
      <trkpt lat="-34.944454" lon="-58.04203">
        <time>2021-05-01T12:30:34Z</time>
      </trkpt>
      <trkpt lat="-34.9445" lon="-58.042076">
        <time>2021-05-01T12:30:35Z</time>
      </trkpt>
      <trkpt lat="-34.944542" lon="-58.042126">
        <time>2021-05-01T12:30:36Z</time>
      </trkpt>
      <trkpt lat="-34.944584" lon="-58.042168">
        <time>2021-05-01T12:30:37Z</time>
      </trkpt>
      <trkpt lat="-34.944626" lon="-58.042217">
        <time>2021-05-01T12:30:38Z</time>
      </trkpt>
      <trkpt lat="-34.944668" lon="-58.042263">
        <time>2021-05-01T12:30:39Z</time>
      </trkpt>
      <trkpt lat="-34.94471" lon="-58.04231">
        <time>2021-05-01T12:30:40Z</time>
      </trkpt>
      <trkpt lat="-34.94475" lon="-58.042355">
        <time>2021-05-01T12:30:41Z</time>
      </trkpt>
      <trkpt lat="-34.944794" lon="-58.042404">
        <time>2021-05-01T12:30:42Z</time>
      </trkpt>
      <trkpt lat="-34.944836" lon="-58.042446">
        <time>2021-05-01T12:30:43Z</time>
      </trkpt>
      <trkpt lat="-34.944878" lon="-58.042492">
        <time>2021-05-01T12:30:44Z</time>
      </trkpt>
      <trkpt lat="-34.94492" lon="-58.04254">
        <time>2021-05-01T12:30:45Z</time>
      </trkpt>
      <trkpt lat="-34.94496" lon="-58.042587">
        <time>2021-05-01T12:30:46Z</time>
      </trkpt>
      <trkpt lat="-34.945004" lon="-58.042633">
        <time>2021-05-01T12:30:47Z</time>
      </trkpt>
      <trkpt lat="-34.945045" lon="-58.04268">
        <time>2021-05-01T12:30:48Z</time>
      </trkpt>
      <trkpt lat="-34.945087" lon="-58.042725">
        <time>2021-05-01T12:30:49Z</time>
      </trkpt>
      <trkpt lat="-34.94513" lon="-58.042774">
        <time>2021-05-01T12:30:50Z</time>
      </trkpt>
      <trkpt lat="-34.94517" lon="-58.04282">
        <time>2021-05-01T12:30:51Z</time>
      </trkpt>
      <trkpt lat="-34.945213" lon="-58.042866">
        <time>2021-05-01T12:30:52Z</time>
      </trkpt>
      <trkpt lat="-34.945255" lon="-58.04291">
        <time>2021-05-01T12:30:53Z</time>
      </trkpt>
      <trkpt lat="-34.945297" lon="-58.042957">
        <time>2021-05-01T12:30:54Z</time>
      </trkpt>
      <trkpt lat="-34.94534" lon="-58.043007">
        <time>2021-05-01T12:30:55Z</time>
      </trkpt>
      <trkpt lat="-34.94538" lon="-58.043053">
        <time>2021-05-01T12:30:56Z</time>
      </trkpt>
      <trkpt lat="-34.945427" lon="-58.0431">
        <time>2021-05-01T12:30:57Z</time>
      </trkpt>
      <trkpt lat="-34.94547" lon="-58.043144">
        <time>2021-05-01T12:30:58Z</time>
      </trkpt>
      <trkpt lat="-34.945515" lon="-58.043194">
        <time>2021-05-01T12:30:59Z</time>
      </trkpt>
      <trkpt lat="-34.94556" lon="-58.043247">
        <time>2021-05-01T12:31:00Z</time>
      </trkpt>
      <trkpt lat="-34.945606" lon="-58.043297">
        <time>2021-05-01T12:31:01Z</time>
      </trkpt>
      <trkpt lat="-34.945652" lon="-58.043346">
        <time>2021-05-01T12:31:02Z</time>
      </trkpt>
      <trkpt lat="-34.945694" lon="-58.043396">
        <time>2021-05-01T12:31:03Z</time>
      </trkpt>
      <trkpt lat="-34.945736" lon="-58.04344">
        <time>2021-05-01T12:31:04Z</time>
      </trkpt>
      <trkpt lat="-34.945778" lon="-58.04349">
        <time>2021-05-01T12:31:05Z</time>
      </trkpt>
      <trkpt lat="-34.94582" lon="-58.043533">
        <time>2021-05-01T12:31:06Z</time>
      </trkpt>
      <trkpt lat="-34.94586" lon="-58.04358">
        <time>2021-05-01T12:31:07Z</time>
      </trkpt>
      <trkpt lat="-34.9459" lon="-58.04362">
        <time>2021-05-01T12:31:08Z</time>
      </trkpt>
      <trkpt lat="-34.945942" lon="-58.043667">
        <time>2021-05-01T12:31:09Z</time>
      </trkpt>
      <trkpt lat="-34.945984" lon="-58.043713">
        <time>2021-05-01T12:31:10Z</time>
      </trkpt>
      <trkpt lat="-34.946026" lon="-58.043762">
        <time>2021-05-01T12:31:11Z</time>
      </trkpt>
      <trkpt lat="-34.946068" lon="-58.043808">
        <time>2021-05-01T12:31:12Z</time>
      </trkpt>
      <trkpt lat="-34.946114" lon="-58.043854">
        <time>2021-05-01T12:31:13Z</time>
      </trkpt>
      <trkpt lat="-34.946156" lon="-58.0439">
        <time>2021-05-01T12:31:14Z</time>
      </trkpt>
      <trkpt lat="-34.946198" lon="-58.043945">
        <time>2021-05-01T12:31:15Z</time>
      </trkpt>
      <trkpt lat="-34.946243" lon="-58.043995">
        <time>2021-05-01T12:31:16Z</time>
      </trkpt>
      <trkpt lat="-34.946285" lon="-58.04404">
        <time>2021-05-01T12:31:17Z</time>
      </trkpt>
      <trkpt lat="-34.946327" lon="-58.04409">
        <time>2021-05-01T12:31:18Z</time>
      </trkpt>
      <trkpt lat="-34.94637" lon="-58.044136">
        <time>2021-05-01T12:31:19Z</time>
      </trkpt>
      <trkpt lat="-34.94641" lon="-58.04418">
        <time>2021-05-01T12:31:20Z</time>
      </trkpt>
      <trkpt lat="-34.946457" lon="-58.044224">
        <time>2021-05-01T12:31:21Z</time>
      </trkpt>
      <trkpt lat="-34.946503" lon="-58.04427">
        <time>2021-05-01T12:31:22Z</time>
      </trkpt>
      <trkpt lat="-34.94655" lon="-58.04431">
        <time>2021-05-01T12:31:23Z</time>
      </trkpt>
      <trkpt lat="-34.946587" lon="-58.04436">
        <time>2021-05-01T12:31:24Z</time>
      </trkpt>
      <trkpt lat="-34.946625" lon="-58.044407">
        <time>2021-05-01T12:31:25Z</time>
      </trkpt>
      <trkpt lat="-34.946663" lon="-58.04445">
        <time>2021-05-01T12:31:26Z</time>
      </trkpt>
      <trkpt lat="-34.9467" lon="-58.04449">
        <time>2021-05-01T12:31:27Z</time>
      </trkpt>
      <trkpt lat="-34.94674" lon="-58.044533">
        <time>2021-05-01T12:31:28Z</time>
      </trkpt>
      <trkpt lat="-34.946774" lon="-58.044575">
        <time>2021-05-01T12:31:29Z</time>
      </trkpt>
      <trkpt lat="-34.946808" lon="-58.044613">
        <time>2021-05-01T12:31:30Z</time>
      </trkpt>
      <trkpt lat="-34.946842" lon="-58.04465">
        <time>2021-05-01T12:31:31Z</time>
      </trkpt>
      <trkpt lat="-34.94691" lon="-58.044727">
        <time>2021-05-01T12:31:33Z</time>
      </trkpt>
      <trkpt lat="-34.946953" lon="-58.044765">
        <time>2021-05-01T12:31:34Z</time>
      </trkpt>
      <trkpt lat="-34.94699" lon="-58.044804">
        <time>2021-05-01T12:31:35Z</time>
      </trkpt>
      <trkpt lat="-34.947033" lon="-58.044838">
        <time>2021-05-01T12:31:36Z</time>
      </trkpt>
      <trkpt lat="-34.947075" lon="-58.04488">
        <time>2021-05-01T12:31:37Z</time>
      </trkpt>
      <trkpt lat="-34.947117" lon="-58.04492">
        <time>2021-05-01T12:31:38Z</time>
      </trkpt>
      <trkpt lat="-34.94716" lon="-58.044968">
        <time>2021-05-01T12:31:39Z</time>
      </trkpt>
      <trkpt lat="-34.947197" lon="-58.045013">
        <time>2021-05-01T12:31:40Z</time>
      </trkpt>
      <trkpt lat="-34.94724" lon="-58.04506">
        <time>2021-05-01T12:31:41Z</time>
      </trkpt>
      <trkpt lat="-34.94728" lon="-58.045105">
        <time>2021-05-01T12:31:42Z</time>
      </trkpt>
      <trkpt lat="-34.947323" lon="-58.04515">
        <time>2021-05-01T12:31:43Z</time>
      </trkpt>
      <trkpt lat="-34.947365" lon="-58.045197">
        <time>2021-05-01T12:31:44Z</time>
      </trkpt>
      <trkpt lat="-34.947407" lon="-58.045242">
        <time>2021-05-01T12:31:45Z</time>
      </trkpt>
      <trkpt lat="-34.947445" lon="-58.04529">
        <time>2021-05-01T12:31:46Z</time>
      </trkpt>
      <trkpt lat="-34.947487" lon="-58.045338">
        <time>2021-05-01T12:31:47Z</time>
      </trkpt>
      <trkpt lat="-34.947525" lon="-58.04539">
        <time>2021-05-01T12:31:48Z</time>
      </trkpt>
      <trkpt lat="-34.947567" lon="-58.045437">
        <time>2021-05-01T12:31:49Z</time>
      </trkpt>
      <trkpt lat="-34.94761" lon="-58.04548">
        <time>2021-05-01T12:31:50Z</time>
      </trkpt>
      <trkpt lat="-34.947647" lon="-58.045525">
        <time>2021-05-01T12:31:51Z</time>
      </trkpt>
      <trkpt lat="-34.947685" lon="-58.04557">
        <time>2021-05-01T12:31:52Z</time>
      </trkpt>
      <trkpt lat="-34.947727" lon="-58.045616">
        <time>2021-05-01T12:31:53Z</time>
      </trkpt>
      <trkpt lat="-34.94777" lon="-58.04566">
        <time>2021-05-01T12:31:54Z</time>
      </trkpt>
      <trkpt lat="-34.947807" lon="-58.045704">
        <time>2021-05-01T12:31:55Z</time>
      </trkpt>
      <trkpt lat="-34.94785" lon="-58.045746">
        <time>2021-05-01T12:31:56Z</time>
      </trkpt>
      <trkpt lat="-34.947887" lon="-58.04579">
        <time>2021-05-01T12:31:57Z</time>
      </trkpt>
      <trkpt lat="-34.94793" lon="-58.045837">
        <time>2021-05-01T12:31:58Z</time>
      </trkpt>
      <trkpt lat="-34.947968" lon="-58.04588">
        <time>2021-05-01T12:31:59Z</time>
      </trkpt>
      <trkpt lat="-34.94801" lon="-58.04592">
        <time>2021-05-01T12:32:00Z</time>
      </trkpt>
      <trkpt lat="-34.948048" lon="-58.045963">
        <time>2021-05-01T12:32:01Z</time>
      </trkpt>
      <trkpt lat="-34.94809" lon="-58.04601">
        <time>2021-05-01T12:32:02Z</time>
      </trkpt>
      <trkpt lat="-34.948128" lon="-58.046055">
        <time>2021-05-01T12:32:03Z</time>
      </trkpt>
      <trkpt lat="-34.94817" lon="-58.046097">
        <time>2021-05-01T12:32:04Z</time>
      </trkpt>
      <trkpt lat="-34.94821" lon="-58.046143">
        <time>2021-05-01T12:32:05Z</time>
      </trkpt>
      <trkpt lat="-34.94825" lon="-58.046192">
        <time>2021-05-01T12:32:06Z</time>
      </trkpt>
      <trkpt lat="-34.948296" lon="-58.046234">
        <time>2021-05-01T12:32:07Z</time>
      </trkpt>
      <trkpt lat="-34.948338" lon="-58.04628">
        <time>2021-05-01T12:32:08Z</time>
      </trkpt>
      <trkpt lat="-34.94838" lon="-58.046326">
        <time>2021-05-01T12:32:09Z</time>
      </trkpt>
      <trkpt lat="-34.94842" lon="-58.046368">
        <time>2021-05-01T12:32:10Z</time>
      </trkpt>
      <trkpt lat="-34.948467" lon="-58.046413">
        <time>2021-05-01T12:32:11Z</time>
      </trkpt>
      <trkpt lat="-34.94851" lon="-58.04646">
        <time>2021-05-01T12:32:12Z</time>
      </trkpt>
      <trkpt lat="-34.948547" lon="-58.04651">
        <time>2021-05-01T12:32:13Z</time>
      </trkpt>
      <trkpt lat="-34.94859" lon="-58.046555">
        <time>2021-05-01T12:32:14Z</time>
      </trkpt>
      <trkpt lat="-34.94863" lon="-58.0466">
        <time>2021-05-01T12:32:15Z</time>
      </trkpt>
      <trkpt lat="-34.948673" lon="-58.04665">
        <time>2021-05-01T12:32:16Z</time>
      </trkpt>
      <trkpt lat="-34.94871" lon="-58.0467">
        <time>2021-05-01T12:32:17Z</time>
      </trkpt>
      <trkpt lat="-34.948753" lon="-58.046745">
        <time>2021-05-01T12:32:18Z</time>
      </trkpt>
      <trkpt lat="-34.94879" lon="-58.046795">
        <time>2021-05-01T12:32:19Z</time>
      </trkpt>
      <trkpt lat="-34.948833" lon="-58.04684">
        <time>2021-05-01T12:32:20Z</time>
      </trkpt>
      <trkpt lat="-34.948875" lon="-58.046886">
        <time>2021-05-01T12:32:21Z</time>
      </trkpt>
      <trkpt lat="-34.948917" lon="-58.046932">
        <time>2021-05-01T12:32:22Z</time>
      </trkpt>
      <trkpt lat="-34.948963" lon="-58.046974">
        <time>2021-05-01T12:32:23Z</time>
      </trkpt>
      <trkpt lat="-34.949005" lon="-58.04702">
        <time>2021-05-01T12:32:24Z</time>
      </trkpt>
      <trkpt lat="-34.949047" lon="-58.04707">
        <time>2021-05-01T12:32:25Z</time>
      </trkpt>
      <trkpt lat="-34.94909" lon="-58.04711">
        <time>2021-05-01T12:32:26Z</time>
      </trkpt>
      <trkpt lat="-34.94913" lon="-58.047153">
        <time>2021-05-01T12:32:27Z</time>
      </trkpt>
      <trkpt lat="-34.94917" lon="-58.0472">
        <time>2021-05-01T12:32:28Z</time>
      </trkpt>
      <trkpt lat="-34.94921" lon="-58.04724">
        <time>2021-05-01T12:32:29Z</time>
      </trkpt>
      <trkpt lat="-34.949253" lon="-58.047287">
        <time>2021-05-01T12:32:30Z</time>
      </trkpt>
      <trkpt lat="-34.949295" lon="-58.04733">
        <time>2021-05-01T12:32:31Z</time>
      </trkpt>
      <trkpt lat="-34.949337" lon="-58.047375">
        <time>2021-05-01T12:32:32Z</time>
      </trkpt>
      <trkpt lat="-34.94938" lon="-58.047417">
        <time>2021-05-01T12:32:33Z</time>
      </trkpt>
      <trkpt lat="-34.949417" lon="-58.047462">
        <time>2021-05-01T12:32:34Z</time>
      </trkpt>
      <trkpt lat="-34.94946" lon="-58.04751">
        <time>2021-05-01T12:32:35Z</time>
      </trkpt>
      <trkpt lat="-34.949497" lon="-58.04755">
        <time>2021-05-01T12:32:36Z</time>
      </trkpt>
      <trkpt lat="-34.94954" lon="-58.047596">
        <time>2021-05-01T12:32:37Z</time>
      </trkpt>
      <trkpt lat="-34.949577" lon="-58.04764">
        <time>2021-05-01T12:32:38Z</time>
      </trkpt>
      <trkpt lat="-34.94962" lon="-58.047688">
        <time>2021-05-01T12:32:39Z</time>
      </trkpt>
      <trkpt lat="-34.949657" lon="-58.047733">
        <time>2021-05-01T12:32:40Z</time>
      </trkpt>
      <trkpt lat="-34.9497" lon="-58.047783">
        <time>2021-05-01T12:32:41Z</time>
      </trkpt>
      <trkpt lat="-34.94974" lon="-58.04783">
        <time>2021-05-01T12:32:42Z</time>
      </trkpt>
      <trkpt lat="-34.949783" lon="-58.04787">
        <time>2021-05-01T12:32:43Z</time>
      </trkpt>
      <trkpt lat="-34.94982" lon="-58.047916">
        <time>2021-05-01T12:32:44Z</time>
      </trkpt>
      <trkpt lat="-34.949863" lon="-58.047962">
        <time>2021-05-01T12:32:45Z</time>
      </trkpt>
      <trkpt lat="-34.949905" lon="-58.048008">
        <time>2021-05-01T12:32:46Z</time>
      </trkpt>
      <trkpt lat="-34.949944" lon="-58.048054">
        <time>2021-05-01T12:32:47Z</time>
      </trkpt>
      <trkpt lat="-34.949986" lon="-58.0481">
        <time>2021-05-01T12:32:48Z</time>
      </trkpt>
      <trkpt lat="-34.950027" lon="-58.04814">
        <time>2021-05-01T12:32:49Z</time>
      </trkpt>
      <trkpt lat="-34.95007" lon="-58.048187">
        <time>2021-05-01T12:32:50Z</time>
      </trkpt>
      <trkpt lat="-34.95011" lon="-58.048233">
        <time>2021-05-01T12:32:51Z</time>
      </trkpt>
      <trkpt lat="-34.950153" lon="-58.048275">
        <time>2021-05-01T12:32:52Z</time>
      </trkpt>
      <trkpt lat="-34.950195" lon="-58.04832">
        <time>2021-05-01T12:32:53Z</time>
      </trkpt>
      <trkpt lat="-34.950237" lon="-58.048363">
        <time>2021-05-01T12:32:54Z</time>
      </trkpt>
      <trkpt lat="-34.950283" lon="-58.04841">
        <time>2021-05-01T12:32:55Z</time>
      </trkpt>
      <trkpt lat="-34.950325" lon="-58.04846">
        <time>2021-05-01T12:32:56Z</time>
      </trkpt>
      <trkpt lat="-34.950367" lon="-58.048504">
        <time>2021-05-01T12:32:57Z</time>
      </trkpt>
      <trkpt lat="-34.95041" lon="-58.04855">
        <time>2021-05-01T12:32:58Z</time>
      </trkpt>
      <trkpt lat="-34.95045" lon="-58.0486">
        <time>2021-05-01T12:32:59Z</time>
      </trkpt>
      <trkpt lat="-34.950493" lon="-58.048645">
        <time>2021-05-01T12:33:00Z</time>
      </trkpt>
      <trkpt lat="-34.95054" lon="-58.04869">
        <time>2021-05-01T12:33:01Z</time>
      </trkpt>
      <trkpt lat="-34.95058" lon="-58.04874">
        <time>2021-05-01T12:33:02Z</time>
      </trkpt>
      <trkpt lat="-34.950623" lon="-58.048786">
        <time>2021-05-01T12:33:03Z</time>
      </trkpt>
      <trkpt lat="-34.950665" lon="-58.048836">
        <time>2021-05-01T12:33:04Z</time>
      </trkpt>
      <trkpt lat="-34.950706" lon="-58.04888">
        <time>2021-05-01T12:33:05Z</time>
      </trkpt>
      <trkpt lat="-34.95075" lon="-58.048927">
        <time>2021-05-01T12:33:06Z</time>
      </trkpt>
      <trkpt lat="-34.95079" lon="-58.048977">
        <time>2021-05-01T12:33:07Z</time>
      </trkpt>
      <trkpt lat="-34.950832" lon="-58.049023">
        <time>2021-05-01T12:33:08Z</time>
      </trkpt>
      <trkpt lat="-34.95088" lon="-58.049072">
        <time>2021-05-01T12:33:09Z</time>
      </trkpt>
      <trkpt lat="-34.95092" lon="-58.049118">
        <time>2021-05-01T12:33:10Z</time>
      </trkpt>
      <trkpt lat="-34.950962" lon="-58.049168">
        <time>2021-05-01T12:33:11Z</time>
      </trkpt>
      <trkpt lat="-34.951008" lon="-58.049213">
        <time>2021-05-01T12:33:12Z</time>
      </trkpt>
      <trkpt lat="-34.95105" lon="-58.04926">
        <time>2021-05-01T12:33:13Z</time>
      </trkpt>
      <trkpt lat="-34.951096" lon="-58.049305">
        <time>2021-05-01T12:33:14Z</time>
      </trkpt>
      <trkpt lat="-34.951138" lon="-58.04935">
        <time>2021-05-01T12:33:15Z</time>
      </trkpt>
      <trkpt lat="-34.95118" lon="-58.0494">
        <time>2021-05-01T12:33:16Z</time>
      </trkpt>
      <trkpt lat="-34.95122" lon="-58.049446">
        <time>2021-05-01T12:33:17Z</time>
      </trkpt>
      <trkpt lat="-34.951267" lon="-58.049496">
        <time>2021-05-01T12:33:18Z</time>
      </trkpt>
      <trkpt lat="-34.95131" lon="-58.04954">
        <time>2021-05-01T12:33:19Z</time>
      </trkpt>
      <trkpt lat="-34.95135" lon="-58.049587">
        <time>2021-05-01T12:33:20Z</time>
      </trkpt>
      <trkpt lat="-34.951393" lon="-58.049637">
        <time>2021-05-01T12:33:21Z</time>
      </trkpt>
      <trkpt lat="-34.951435" lon="-58.049683">
        <time>2021-05-01T12:33:22Z</time>
      </trkpt>
      <trkpt lat="-34.95148" lon="-58.04973">
        <time>2021-05-01T12:33:23Z</time>
      </trkpt>
      <trkpt lat="-34.951523" lon="-58.049778">
        <time>2021-05-01T12:33:24Z</time>
      </trkpt>
      <trkpt lat="-34.951565" lon="-58.049828">
        <time>2021-05-01T12:33:25Z</time>
      </trkpt>
      <trkpt lat="-34.951607" lon="-58.049873">
        <time>2021-05-01T12:33:26Z</time>
      </trkpt>
      <trkpt lat="-34.951653" lon="-58.049923">
        <time>2021-05-01T12:33:27Z</time>
      </trkpt>
      <trkpt lat="-34.951694" lon="-58.049973">
        <time>2021-05-01T12:33:28Z</time>
      </trkpt>
      <trkpt lat="-34.95174" lon="-58.05002">
        <time>2021-05-01T12:33:29Z</time>
      </trkpt>
      <trkpt lat="-34.951782" lon="-58.050064">
        <time>2021-05-01T12:33:30Z</time>
      </trkpt>
      <trkpt lat="-34.951828" lon="-58.050114">
        <time>2021-05-01T12:33:31Z</time>
      </trkpt>
      <trkpt lat="-34.95187" lon="-58.05016">
        <time>2021-05-01T12:33:32Z</time>
      </trkpt>
      <trkpt lat="-34.951916" lon="-58.05021">
        <time>2021-05-01T12:33:33Z</time>
      </trkpt>
      <trkpt lat="-34.951958" lon="-58.050255">
        <time>2021-05-01T12:33:34Z</time>
      </trkpt>
      <trkpt lat="-34.952" lon="-58.0503">
        <time>2021-05-01T12:33:35Z</time>
      </trkpt>
      <trkpt lat="-34.952045" lon="-58.050346">
        <time>2021-05-01T12:33:36Z</time>
      </trkpt>
      <trkpt lat="-34.95209" lon="-58.050392">
        <time>2021-05-01T12:33:37Z</time>
      </trkpt>
      <trkpt lat="-34.952133" lon="-58.050438">
        <time>2021-05-01T12:33:38Z</time>
      </trkpt>
      <trkpt lat="-34.952175" lon="-58.050488">
        <time>2021-05-01T12:33:39Z</time>
      </trkpt>
      <trkpt lat="-34.952217" lon="-58.050533">
        <time>2021-05-01T12:33:40Z</time>
      </trkpt>
      <trkpt lat="-34.95226" lon="-58.05058">
        <time>2021-05-01T12:33:41Z</time>
      </trkpt>
      <trkpt lat="-34.952297" lon="-58.050625">
        <time>2021-05-01T12:33:42Z</time>
      </trkpt>
      <trkpt lat="-34.95234" lon="-58.050674">
        <time>2021-05-01T12:33:43Z</time>
      </trkpt>
      <trkpt lat="-34.952377" lon="-58.05072">
        <time>2021-05-01T12:33:44Z</time>
      </trkpt>
      <trkpt lat="-34.952415" lon="-58.05077">
        <time>2021-05-01T12:33:45Z</time>
      </trkpt>
      <trkpt lat="-34.952454" lon="-58.050816">
        <time>2021-05-01T12:33:46Z</time>
      </trkpt>
      <trkpt lat="-34.952496" lon="-58.050858">
        <time>2021-05-01T12:33:47Z</time>
      </trkpt>
      <trkpt lat="-34.952534" lon="-58.0509">
        <time>2021-05-01T12:33:48Z</time>
      </trkpt>
      <trkpt lat="-34.95257" lon="-58.05095">
        <time>2021-05-01T12:33:49Z</time>
      </trkpt>
      <trkpt lat="-34.95261" lon="-58.05099">
        <time>2021-05-01T12:33:50Z</time>
      </trkpt>
      <trkpt lat="-34.95265" lon="-58.051037">
        <time>2021-05-01T12:33:51Z</time>
      </trkpt>
      <trkpt lat="-34.952686" lon="-58.05108">
        <time>2021-05-01T12:33:52Z</time>
      </trkpt>
      <trkpt lat="-34.952724" lon="-58.05112">
        <time>2021-05-01T12:33:53Z</time>
      </trkpt>
      <trkpt lat="-34.952797" lon="-58.051205">
        <time>2021-05-01T12:33:55Z</time>
      </trkpt>
      <trkpt lat="-34.952835" lon="-58.051247">
        <time>2021-05-01T12:33:56Z</time>
      </trkpt>
      <trkpt lat="-34.95287" lon="-58.051285">
        <time>2021-05-01T12:33:57Z</time>
      </trkpt>
      <trkpt lat="-34.952908" lon="-58.051327">
        <time>2021-05-01T12:33:58Z</time>
      </trkpt>
      <trkpt lat="-34.95294" lon="-58.051365">
        <time>2021-05-01T12:33:59Z</time>
      </trkpt>
      <trkpt lat="-34.952976" lon="-58.051403">
        <time>2021-05-01T12:34:00Z</time>
      </trkpt>
      <trkpt lat="-34.95301" lon="-58.05144">
        <time>2021-05-01T12:34:01Z</time>
      </trkpt>
      <trkpt lat="-34.953045" lon="-58.05148">
        <time>2021-05-01T12:34:02Z</time>
      </trkpt>
      <trkpt lat="-34.95308" lon="-58.051514">
        <time>2021-05-01T12:34:03Z</time>
      </trkpt>
      <trkpt lat="-34.953114" lon="-58.05155">
        <time>2021-05-01T12:34:04Z</time>
      </trkpt>
      <trkpt lat="-34.953148" lon="-58.05159">
        <time>2021-05-01T12:34:05Z</time>
      </trkpt>
      <trkpt lat="-34.953182" lon="-58.05163">
        <time>2021-05-01T12:34:06Z</time>
      </trkpt>
      <trkpt lat="-34.953217" lon="-58.05167">
        <time>2021-05-01T12:34:07Z</time>
      </trkpt>
      <trkpt lat="-34.95325" lon="-58.05171">
        <time>2021-05-01T12:34:08Z</time>
      </trkpt>
      <trkpt lat="-34.95329" lon="-58.051746">
        <time>2021-05-01T12:34:09Z</time>
      </trkpt>
      <trkpt lat="-34.953323" lon="-58.051785">
        <time>2021-05-01T12:34:10Z</time>
      </trkpt>
      <trkpt lat="-34.95336" lon="-58.051826">
        <time>2021-05-01T12:34:11Z</time>
      </trkpt>
      <trkpt lat="-34.953396" lon="-58.051865">
        <time>2021-05-01T12:34:12Z</time>
      </trkpt>
      <trkpt lat="-34.953434" lon="-58.051907">
        <time>2021-05-01T12:34:13Z</time>
      </trkpt>
      <trkpt lat="-34.953472" lon="-58.05195">
        <time>2021-05-01T12:34:14Z</time>
      </trkpt>
      <trkpt lat="-34.95351" lon="-58.05199">
        <time>2021-05-01T12:34:15Z</time>
      </trkpt>
      <trkpt lat="-34.95355" lon="-58.052032">
        <time>2021-05-01T12:34:16Z</time>
      </trkpt>
      <trkpt lat="-34.953587" lon="-58.052074">
        <time>2021-05-01T12:34:17Z</time>
      </trkpt>
      <trkpt lat="-34.953667" lon="-58.052162">
        <time>2021-05-01T12:34:19Z</time>
      </trkpt>
      <trkpt lat="-34.95371" lon="-58.052204">
        <time>2021-05-01T12:34:20Z</time>
      </trkpt>
      <trkpt lat="-34.953747" lon="-58.05225">
        <time>2021-05-01T12:34:21Z</time>
      </trkpt>
      <trkpt lat="-34.953785" lon="-58.05229">
        <time>2021-05-01T12:34:22Z</time>
      </trkpt>
      <trkpt lat="-34.953823" lon="-58.052334">
        <time>2021-05-01T12:34:23Z</time>
      </trkpt>
      <trkpt lat="-34.95386" lon="-58.052376">
        <time>2021-05-01T12:34:24Z</time>
      </trkpt>
      <trkpt lat="-34.9539" lon="-58.052418">
        <time>2021-05-01T12:34:25Z</time>
      </trkpt>
      <trkpt lat="-34.953938" lon="-58.05246">
        <time>2021-05-01T12:34:26Z</time>
      </trkpt>
      <trkpt lat="-34.953976" lon="-58.0525">
        <time>2021-05-01T12:34:27Z</time>
      </trkpt>
      <trkpt lat="-34.954014" lon="-58.052544">
        <time>2021-05-01T12:34:28Z</time>
      </trkpt>
      <trkpt lat="-34.954056" lon="-58.05259">
        <time>2021-05-01T12:34:29Z</time>
      </trkpt>
      <trkpt lat="-34.954094" lon="-58.05263">
        <time>2021-05-01T12:34:30Z</time>
      </trkpt>
      <trkpt lat="-34.954136" lon="-58.052673">
        <time>2021-05-01T12:34:31Z</time>
      </trkpt>
      <trkpt lat="-34.954178" lon="-58.052715">
        <time>2021-05-01T12:34:32Z</time>
      </trkpt>
      <trkpt lat="-34.95422" lon="-58.05276">
        <time>2021-05-01T12:34:33Z</time>
      </trkpt>
      <trkpt lat="-34.95426" lon="-58.052807">
        <time>2021-05-01T12:34:34Z</time>
      </trkpt>
      <trkpt lat="-34.9543" lon="-58.052853">
        <time>2021-05-01T12:34:35Z</time>
      </trkpt>
      <trkpt lat="-34.95434" lon="-58.0529">
        <time>2021-05-01T12:34:36Z</time>
      </trkpt>
      <trkpt lat="-34.954384" lon="-58.052944">
        <time>2021-05-01T12:34:37Z</time>
      </trkpt>
      <trkpt lat="-34.954426" lon="-58.05299">
        <time>2021-05-01T12:34:38Z</time>
      </trkpt>
      <trkpt lat="-34.95447" lon="-58.053036">
        <time>2021-05-01T12:34:39Z</time>
      </trkpt>
      <trkpt lat="-34.954514" lon="-58.05308">
        <time>2021-05-01T12:34:40Z</time>
      </trkpt>
      <trkpt lat="-34.954556" lon="-58.05313">
        <time>2021-05-01T12:34:41Z</time>
      </trkpt>
      <trkpt lat="-34.954597" lon="-58.05318">
        <time>2021-05-01T12:34:42Z</time>
      </trkpt>
      <trkpt lat="-34.95477" lon="-58.05337">
        <time>2021-05-01T12:34:46Z</time>
      </trkpt>
      <trkpt lat="-34.954903" lon="-58.053516">
        <time>2021-05-01T12:34:49Z</time>
      </trkpt>
      <trkpt lat="-34.954945" lon="-58.053566">
        <time>2021-05-01T12:34:50Z</time>
      </trkpt>
      <trkpt lat="-34.954987" lon="-58.05361">
        <time>2021-05-01T12:34:51Z</time>
      </trkpt>
      <trkpt lat="-34.95512" lon="-58.05375">
        <time>2021-05-01T12:34:54Z</time>
      </trkpt>
      <trkpt lat="-34.955162" lon="-58.0538">
        <time>2021-05-01T12:34:55Z</time>
      </trkpt>
      <trkpt lat="-34.955208" lon="-58.053844">
        <time>2021-05-01T12:34:56Z</time>
      </trkpt>
      <trkpt lat="-34.95525" lon="-58.05389">
        <time>2021-05-01T12:34:57Z</time>
      </trkpt>
      <trkpt lat="-34.95529" lon="-58.05394">
        <time>2021-05-01T12:34:58Z</time>
      </trkpt>
      <trkpt lat="-34.955338" lon="-58.053986">
        <time>2021-05-01T12:34:59Z</time>
      </trkpt>
      <trkpt lat="-34.955383" lon="-58.054035">
        <time>2021-05-01T12:35:00Z</time>
      </trkpt>
      <trkpt lat="-34.955425" lon="-58.05408">
        <time>2021-05-01T12:35:01Z</time>
      </trkpt>
      <trkpt lat="-34.95547" lon="-58.05413">
        <time>2021-05-01T12:35:02Z</time>
      </trkpt>
      <trkpt lat="-34.955513" lon="-58.054176">
        <time>2021-05-01T12:35:03Z</time>
      </trkpt>
      <trkpt lat="-34.95556" lon="-58.054226">
        <time>2021-05-01T12:35:04Z</time>
      </trkpt>
      <trkpt lat="-34.955605" lon="-58.054276">
        <time>2021-05-01T12:35:05Z</time>
      </trkpt>
      <trkpt lat="-34.95565" lon="-58.054325">
        <time>2021-05-01T12:35:06Z</time>
      </trkpt>
      <trkpt lat="-34.955696" lon="-58.05437">
        <time>2021-05-01T12:35:07Z</time>
      </trkpt>
      <trkpt lat="-34.955738" lon="-58.05442">
        <time>2021-05-01T12:35:08Z</time>
      </trkpt>
      <trkpt lat="-34.955784" lon="-58.054466">
        <time>2021-05-01T12:35:09Z</time>
      </trkpt>
      <trkpt lat="-34.95583" lon="-58.054516">
        <time>2021-05-01T12:35:10Z</time>
      </trkpt>
      <trkpt lat="-34.95587" lon="-58.054565">
        <time>2021-05-01T12:35:11Z</time>
      </trkpt>
      <trkpt lat="-34.955917" lon="-58.05461">
        <time>2021-05-01T12:35:12Z</time>
      </trkpt>
      <trkpt lat="-34.955963" lon="-58.05466">
        <time>2021-05-01T12:35:13Z</time>
      </trkpt>
      <trkpt lat="-34.956005" lon="-58.054707">
        <time>2021-05-01T12:35:14Z</time>
      </trkpt>
      <trkpt lat="-34.95605" lon="-58.054756">
        <time>2021-05-01T12:35:15Z</time>
      </trkpt>
      <trkpt lat="-34.956093" lon="-58.054806">
        <time>2021-05-01T12:35:16Z</time>
      </trkpt>
      <trkpt lat="-34.956135" lon="-58.05485">
        <time>2021-05-01T12:35:17Z</time>
      </trkpt>
      <trkpt lat="-34.95618" lon="-58.0549">
        <time>2021-05-01T12:35:18Z</time>
      </trkpt>
      <trkpt lat="-34.956223" lon="-58.054947">
        <time>2021-05-01T12:35:19Z</time>
      </trkpt>
      <trkpt lat="-34.95627" lon="-58.054996">
        <time>2021-05-01T12:35:20Z</time>
      </trkpt>
      <trkpt lat="-34.956314" lon="-58.055046">
        <time>2021-05-01T12:35:21Z</time>
      </trkpt>
      <trkpt lat="-34.95636" lon="-58.055096">
        <time>2021-05-01T12:35:22Z</time>
      </trkpt>
      <trkpt lat="-34.9564" lon="-58.05514">
        <time>2021-05-01T12:35:23Z</time>
      </trkpt>
      <trkpt lat="-34.956448" lon="-58.05519">
        <time>2021-05-01T12:35:24Z</time>
      </trkpt>
      <trkpt lat="-34.95649" lon="-58.05524">
        <time>2021-05-01T12:35:25Z</time>
      </trkpt>
      <trkpt lat="-34.956535" lon="-58.055286">
        <time>2021-05-01T12:35:26Z</time>
      </trkpt>
      <trkpt lat="-34.956577" lon="-58.055336">
        <time>2021-05-01T12:35:27Z</time>
      </trkpt>
      <trkpt lat="-34.95662" lon="-58.055378">
        <time>2021-05-01T12:35:28Z</time>
      </trkpt>
      <trkpt lat="-34.95666" lon="-58.055424">
        <time>2021-05-01T12:35:29Z</time>
      </trkpt>
      <trkpt lat="-34.956703" lon="-58.05546">
        <time>2021-05-01T12:35:30Z</time>
      </trkpt>
      <trkpt lat="-34.956745" lon="-58.05551">
        <time>2021-05-01T12:35:31Z</time>
      </trkpt>
      <trkpt lat="-34.956783" lon="-58.055557">
        <time>2021-05-01T12:35:32Z</time>
      </trkpt>
      <trkpt lat="-34.956818" lon="-58.055603">
        <time>2021-05-01T12:35:33Z</time>
      </trkpt>
      <trkpt lat="-34.956856" lon="-58.055645">
        <time>2021-05-01T12:35:34Z</time>
      </trkpt>
      <trkpt lat="-34.956894" lon="-58.055687">
        <time>2021-05-01T12:35:35Z</time>
      </trkpt>
      <trkpt lat="-34.956932" lon="-58.05573">
        <time>2021-05-01T12:35:36Z</time>
      </trkpt>
      <trkpt lat="-34.95697" lon="-58.055775">
        <time>2021-05-01T12:35:37Z</time>
      </trkpt>
      <trkpt lat="-34.957012" lon="-58.055817">
        <time>2021-05-01T12:35:38Z</time>
      </trkpt>
      <trkpt lat="-34.957054" lon="-58.055866">
        <time>2021-05-01T12:35:39Z</time>
      </trkpt>
      <trkpt lat="-34.9571" lon="-58.055912">
        <time>2021-05-01T12:35:40Z</time>
      </trkpt>
      <trkpt lat="-34.95714" lon="-58.05596">
        <time>2021-05-01T12:35:41Z</time>
      </trkpt>
      <trkpt lat="-34.957184" lon="-58.05601">
        <time>2021-05-01T12:35:42Z</time>
      </trkpt>
      <trkpt lat="-34.957226" lon="-58.05606">
        <time>2021-05-01T12:35:43Z</time>
      </trkpt>
      <trkpt lat="-34.95727" lon="-58.056107">
        <time>2021-05-01T12:35:44Z</time>
      </trkpt>
      <trkpt lat="-34.957314" lon="-58.056156">
        <time>2021-05-01T12:35:45Z</time>
      </trkpt>
      <trkpt lat="-34.957355" lon="-58.056206">
        <time>2021-05-01T12:35:46Z</time>
      </trkpt>
      <trkpt lat="-34.9574" lon="-58.056255">
        <time>2021-05-01T12:35:47Z</time>
      </trkpt>
      <trkpt lat="-34.957443" lon="-58.0563">
        <time>2021-05-01T12:35:48Z</time>
      </trkpt>
      <trkpt lat="-34.957485" lon="-58.056347">
        <time>2021-05-01T12:35:49Z</time>
      </trkpt>
      <trkpt lat="-34.95753" lon="-58.056396">
        <time>2021-05-01T12:35:50Z</time>
      </trkpt>
      <trkpt lat="-34.957573" lon="-58.056442">
        <time>2021-05-01T12:35:51Z</time>
      </trkpt>
      <trkpt lat="-34.957615" lon="-58.05649">
        <time>2021-05-01T12:35:52Z</time>
      </trkpt>
      <trkpt lat="-34.95766" lon="-58.056538">
        <time>2021-05-01T12:35:53Z</time>
      </trkpt>
      <trkpt lat="-34.957703" lon="-58.056587">
        <time>2021-05-01T12:35:54Z</time>
      </trkpt>
      <trkpt lat="-34.95775" lon="-58.056637">
        <time>2021-05-01T12:35:55Z</time>
      </trkpt>
      <trkpt lat="-34.95779" lon="-58.056686">
        <time>2021-05-01T12:35:56Z</time>
      </trkpt>
      <trkpt lat="-34.957836" lon="-58.056736">
        <time>2021-05-01T12:35:57Z</time>
      </trkpt>
      <trkpt lat="-34.95788" lon="-58.056786">
        <time>2021-05-01T12:35:58Z</time>
      </trkpt>
      <trkpt lat="-34.957924" lon="-58.056835">
        <time>2021-05-01T12:35:59Z</time>
      </trkpt>
      <trkpt lat="-34.957966" lon="-58.05688">
        <time>2021-05-01T12:36:00Z</time>
      </trkpt>
      <trkpt lat="-34.95801" lon="-58.05693">
        <time>2021-05-01T12:36:01Z</time>
      </trkpt>
      <trkpt lat="-34.958054" lon="-58.056984">
        <time>2021-05-01T12:36:02Z</time>
      </trkpt>
      <trkpt lat="-34.9581" lon="-58.057034">
        <time>2021-05-01T12:36:03Z</time>
      </trkpt>
      <trkpt lat="-34.95814" lon="-58.057083">
        <time>2021-05-01T12:36:04Z</time>
      </trkpt>
      <trkpt lat="-34.958183" lon="-58.057133">
        <time>2021-05-01T12:36:05Z</time>
      </trkpt>
      <trkpt lat="-34.958225" lon="-58.057186">
        <time>2021-05-01T12:36:06Z</time>
      </trkpt>
      <trkpt lat="-34.958267" lon="-58.057236">
        <time>2021-05-01T12:36:07Z</time>
      </trkpt>
      <trkpt lat="-34.95831" lon="-58.057285">
        <time>2021-05-01T12:36:08Z</time>
      </trkpt>
      <trkpt lat="-34.95835" lon="-58.057335">
        <time>2021-05-01T12:36:09Z</time>
      </trkpt>
      <trkpt lat="-34.958393" lon="-58.05738">
        <time>2021-05-01T12:36:10Z</time>
      </trkpt>
      <trkpt lat="-34.958435" lon="-58.057426">
        <time>2021-05-01T12:36:11Z</time>
      </trkpt>
      <trkpt lat="-34.95848" lon="-58.057472">
        <time>2021-05-01T12:36:12Z</time>
      </trkpt>
      <trkpt lat="-34.958523" lon="-58.057514">
        <time>2021-05-01T12:36:13Z</time>
      </trkpt>
      <trkpt lat="-34.958565" lon="-58.05756">
        <time>2021-05-01T12:36:14Z</time>
      </trkpt>
      <trkpt lat="-34.958607" lon="-58.057606">
        <time>2021-05-01T12:36:15Z</time>
      </trkpt>
      <trkpt lat="-34.95865" lon="-58.057655">
        <time>2021-05-01T12:36:16Z</time>
      </trkpt>
      <trkpt lat="-34.95869" lon="-58.057705">
        <time>2021-05-01T12:36:17Z</time>
      </trkpt>
      <trkpt lat="-34.958736" lon="-58.057755">
        <time>2021-05-01T12:36:18Z</time>
      </trkpt>
      <trkpt lat="-34.95878" lon="-58.057804">
        <time>2021-05-01T12:36:19Z</time>
      </trkpt>
      <trkpt lat="-34.958824" lon="-58.057854">
        <time>2021-05-01T12:36:20Z</time>
      </trkpt>
      <trkpt lat="-34.95887" lon="-58.057903">
        <time>2021-05-01T12:36:21Z</time>
      </trkpt>
      <trkpt lat="-34.95891" lon="-58.057953">
        <time>2021-05-01T12:36:22Z</time>
      </trkpt>
      <trkpt lat="-34.958954" lon="-58.058006">
        <time>2021-05-01T12:36:23Z</time>
      </trkpt>
      <trkpt lat="-34.959" lon="-58.058052">
        <time>2021-05-01T12:36:24Z</time>
      </trkpt>
      <trkpt lat="-34.959045" lon="-58.0581">
        <time>2021-05-01T12:36:25Z</time>
      </trkpt>
      <trkpt lat="-34.959087" lon="-58.058155">
        <time>2021-05-01T12:36:26Z</time>
      </trkpt>
      <trkpt lat="-34.959133" lon="-58.058205">
        <time>2021-05-01T12:36:27Z</time>
      </trkpt>
      <trkpt lat="-34.95918" lon="-58.05825">
        <time>2021-05-01T12:36:28Z</time>
      </trkpt>
      <trkpt lat="-34.959225" lon="-58.0583">
        <time>2021-05-01T12:36:29Z</time>
      </trkpt>
      <trkpt lat="-34.95927" lon="-58.058346">
        <time>2021-05-01T12:36:30Z</time>
      </trkpt>
      <trkpt lat="-34.959312" lon="-58.058395">
        <time>2021-05-01T12:36:31Z</time>
      </trkpt>
      <trkpt lat="-34.959354" lon="-58.05844">
        <time>2021-05-01T12:36:32Z</time>
      </trkpt>
      <trkpt lat="-34.9594" lon="-58.05849">
        <time>2021-05-01T12:36:33Z</time>
      </trkpt>
      <trkpt lat="-34.959446" lon="-58.058537">
        <time>2021-05-01T12:36:34Z</time>
      </trkpt>
      <trkpt lat="-34.95949" lon="-58.058586">
        <time>2021-05-01T12:36:35Z</time>
      </trkpt>
      <trkpt lat="-34.959534" lon="-58.05863">
        <time>2021-05-01T12:36:36Z</time>
      </trkpt>
      <trkpt lat="-34.95958" lon="-58.05868">
        <time>2021-05-01T12:36:37Z</time>
      </trkpt>
      <trkpt lat="-34.959625" lon="-58.058727">
        <time>2021-05-01T12:36:38Z</time>
      </trkpt>
      <trkpt lat="-34.95967" lon="-58.058773">
        <time>2021-05-01T12:36:39Z</time>
      </trkpt>
      <trkpt lat="-34.959717" lon="-58.058823">
        <time>2021-05-01T12:36:40Z</time>
      </trkpt>
      <trkpt lat="-34.95976" lon="-58.058872">
        <time>2021-05-01T12:36:41Z</time>
      </trkpt>
      <trkpt lat="-34.9598" lon="-58.058918">
        <time>2021-05-01T12:36:42Z</time>
      </trkpt>
      <trkpt lat="-34.959843" lon="-58.058968">
        <time>2021-05-01T12:36:43Z</time>
      </trkpt>
      <trkpt lat="-34.95989" lon="-58.059017">
        <time>2021-05-01T12:36:44Z</time>
      </trkpt>
      <trkpt lat="-34.95993" lon="-58.059067">
        <time>2021-05-01T12:36:45Z</time>
      </trkpt>
      <trkpt lat="-34.959972" lon="-58.059113">
        <time>2021-05-01T12:36:46Z</time>
      </trkpt>
      <trkpt lat="-34.960014" lon="-58.059162">
        <time>2021-05-01T12:36:47Z</time>
      </trkpt>
      <trkpt lat="-34.960056" lon="-58.059208">
        <time>2021-05-01T12:36:48Z</time>
      </trkpt>
      <trkpt lat="-34.9601" lon="-58.059258">
        <time>2021-05-01T12:36:49Z</time>
      </trkpt>
      <trkpt lat="-34.96014" lon="-58.059303">
        <time>2021-05-01T12:36:50Z</time>
      </trkpt>
      <trkpt lat="-34.96018" lon="-58.059353">
        <time>2021-05-01T12:36:51Z</time>
      </trkpt>
      <trkpt lat="-34.96022" lon="-58.0594">
        <time>2021-05-01T12:36:52Z</time>
      </trkpt>
      <trkpt lat="-34.960262" lon="-58.05944">
        <time>2021-05-01T12:36:53Z</time>
      </trkpt>
      <trkpt lat="-34.960304" lon="-58.059486">
        <time>2021-05-01T12:36:54Z</time>
      </trkpt>
      <trkpt lat="-34.96035" lon="-58.05953">
        <time>2021-05-01T12:36:55Z</time>
      </trkpt>
      <trkpt lat="-34.960392" lon="-58.059574">
        <time>2021-05-01T12:36:56Z</time>
      </trkpt>
      <trkpt lat="-34.960438" lon="-58.059616">
        <time>2021-05-01T12:36:57Z</time>
      </trkpt>
      <trkpt lat="-34.96048" lon="-58.05966">
        <time>2021-05-01T12:36:58Z</time>
      </trkpt>
      <trkpt lat="-34.960518" lon="-58.059708">
        <time>2021-05-01T12:36:59Z</time>
      </trkpt>
      <trkpt lat="-34.960556" lon="-58.059757">
        <time>2021-05-01T12:37:00Z</time>
      </trkpt>
      <trkpt lat="-34.960594" lon="-58.059807">
        <time>2021-05-01T12:37:01Z</time>
      </trkpt>
      <trkpt lat="-34.960632" lon="-58.059853">
        <time>2021-05-01T12:37:02Z</time>
      </trkpt>
      <trkpt lat="-34.960674" lon="-58.0599">
        <time>2021-05-01T12:37:03Z</time>
      </trkpt>
      <trkpt lat="-34.960716" lon="-58.059944">
        <time>2021-05-01T12:37:04Z</time>
      </trkpt>
      <trkpt lat="-34.96076" lon="-58.05999">
        <time>2021-05-01T12:37:05Z</time>
      </trkpt>
      <trkpt lat="-34.9608" lon="-58.060036">
        <time>2021-05-01T12:37:06Z</time>
      </trkpt>
      <trkpt lat="-34.960842" lon="-58.060085">
        <time>2021-05-01T12:37:07Z</time>
      </trkpt>
      <trkpt lat="-34.960884" lon="-58.06013">
        <time>2021-05-01T12:37:08Z</time>
      </trkpt>
      <trkpt lat="-34.960926" lon="-58.060177">
        <time>2021-05-01T12:37:09Z</time>
      </trkpt>
      <trkpt lat="-34.960968" lon="-58.060223">
        <time>2021-05-01T12:37:10Z</time>
      </trkpt>
      <trkpt lat="-34.96101" lon="-58.06027">
        <time>2021-05-01T12:37:11Z</time>
      </trkpt>
      <trkpt lat="-34.961052" lon="-58.060314">
        <time>2021-05-01T12:37:12Z</time>
      </trkpt>
      <trkpt lat="-34.961094" lon="-58.06036">
        <time>2021-05-01T12:37:13Z</time>
      </trkpt>
      <trkpt lat="-34.96114" lon="-58.060406">
        <time>2021-05-01T12:37:14Z</time>
      </trkpt>
      <trkpt lat="-34.96118" lon="-58.06045">
        <time>2021-05-01T12:37:15Z</time>
      </trkpt>
      <trkpt lat="-34.961224" lon="-58.060493">
        <time>2021-05-01T12:37:16Z</time>
      </trkpt>
      <trkpt lat="-34.96126" lon="-58.060543">
        <time>2021-05-01T12:37:17Z</time>
      </trkpt>
      <trkpt lat="-34.961304" lon="-58.06059">
        <time>2021-05-01T12:37:18Z</time>
      </trkpt>
      <trkpt lat="-34.96134" lon="-58.06064">
        <time>2021-05-01T12:37:19Z</time>
      </trkpt>
      <trkpt lat="-34.961384" lon="-58.060684">
        <time>2021-05-01T12:37:20Z</time>
      </trkpt>
      <trkpt lat="-34.961426" lon="-58.06072">
        <time>2021-05-01T12:37:21Z</time>
      </trkpt>
      <trkpt lat="-34.961468" lon="-58.060757">
        <time>2021-05-01T12:37:22Z</time>
      </trkpt>
      <trkpt lat="-34.96151" lon="-58.0608">
        <time>2021-05-01T12:37:23Z</time>
      </trkpt>
      <trkpt lat="-34.961544" lon="-58.060837">
        <time>2021-05-01T12:37:24Z</time>
      </trkpt>
      <trkpt lat="-34.96158" lon="-58.06088">
        <time>2021-05-01T12:37:25Z</time>
      </trkpt>
      <trkpt lat="-34.961613" lon="-58.060917">
        <time>2021-05-01T12:37:26Z</time>
      </trkpt>
      <trkpt lat="-34.961647" lon="-58.06096">
        <time>2021-05-01T12:37:27Z</time>
      </trkpt>
      <trkpt lat="-34.961685" lon="-58.061005">
        <time>2021-05-01T12:37:28Z</time>
      </trkpt>
      <trkpt lat="-34.961723" lon="-58.061047">
        <time>2021-05-01T12:37:29Z</time>
      </trkpt>
      <trkpt lat="-34.96176" lon="-58.061092">
        <time>2021-05-01T12:37:30Z</time>
      </trkpt>
      <trkpt lat="-34.9618" lon="-58.061134">
        <time>2021-05-01T12:37:31Z</time>
      </trkpt>
      <trkpt lat="-34.961838" lon="-58.06118">
        <time>2021-05-01T12:37:32Z</time>
      </trkpt>
      <trkpt lat="-34.961876" lon="-58.06122">
        <time>2021-05-01T12:37:33Z</time>
      </trkpt>
      <trkpt lat="-34.961914" lon="-58.061256">
        <time>2021-05-01T12:37:34Z</time>
      </trkpt>
      <trkpt lat="-34.961952" lon="-58.061295">
        <time>2021-05-01T12:37:35Z</time>
      </trkpt>
      <trkpt lat="-34.96199" lon="-58.061337">
        <time>2021-05-01T12:37:36Z</time>
      </trkpt>
      <trkpt lat="-34.962032" lon="-58.06138">
        <time>2021-05-01T12:37:37Z</time>
      </trkpt>
      <trkpt lat="-34.962074" lon="-58.061424">
        <time>2021-05-01T12:37:38Z</time>
      </trkpt>
      <trkpt lat="-34.962116" lon="-58.06147">
        <time>2021-05-01T12:37:39Z</time>
      </trkpt>
      <trkpt lat="-34.962154" lon="-58.061512">
        <time>2021-05-01T12:37:40Z</time>
      </trkpt>
      <trkpt lat="-34.962196" lon="-58.061558">
        <time>2021-05-01T12:37:41Z</time>
      </trkpt>
      <trkpt lat="-34.96224" lon="-58.061604">
        <time>2021-05-01T12:37:42Z</time>
      </trkpt>
      <trkpt lat="-34.962276" lon="-58.06165">
        <time>2021-05-01T12:37:43Z</time>
      </trkpt>
      <trkpt lat="-34.96231" lon="-58.0617">
        <time>2021-05-01T12:37:44Z</time>
      </trkpt>
      <trkpt lat="-34.96235" lon="-58.06175">
        <time>2021-05-01T12:37:45Z</time>
      </trkpt>
      <trkpt lat="-34.962387" lon="-58.061794">
        <time>2021-05-01T12:37:46Z</time>
      </trkpt>
      <trkpt lat="-34.96243" lon="-58.061844">
        <time>2021-05-01T12:37:47Z</time>
      </trkpt>
      <trkpt lat="-34.96247" lon="-58.06189">
        <time>2021-05-01T12:37:48Z</time>
      </trkpt>
      <trkpt lat="-34.962513" lon="-58.061935">
        <time>2021-05-01T12:37:49Z</time>
      </trkpt>
      <trkpt lat="-34.962555" lon="-58.06198">
        <time>2021-05-01T12:37:50Z</time>
      </trkpt>
      <trkpt lat="-34.962597" lon="-58.062027">
        <time>2021-05-01T12:37:51Z</time>
      </trkpt>
      <trkpt lat="-34.96264" lon="-58.062073">
        <time>2021-05-01T12:37:52Z</time>
      </trkpt>
      <trkpt lat="-34.96268" lon="-58.06212">
        <time>2021-05-01T12:37:53Z</time>
      </trkpt>
      <trkpt lat="-34.962723" lon="-58.06216">
        <time>2021-05-01T12:37:54Z</time>
      </trkpt>
      <trkpt lat="-34.962765" lon="-58.06221">
        <time>2021-05-01T12:37:55Z</time>
      </trkpt>
      <trkpt lat="-34.96281" lon="-58.062252">
        <time>2021-05-01T12:37:56Z</time>
      </trkpt>
      <trkpt lat="-34.962852" lon="-58.0623">
        <time>2021-05-01T12:37:57Z</time>
      </trkpt>
      <trkpt lat="-34.962894" lon="-58.062347">
        <time>2021-05-01T12:37:58Z</time>
      </trkpt>
      <trkpt lat="-34.962936" lon="-58.062393">
        <time>2021-05-01T12:37:59Z</time>
      </trkpt>
      <trkpt lat="-34.96298" lon="-58.062443">
        <time>2021-05-01T12:38:00Z</time>
      </trkpt>
      <trkpt lat="-34.963024" lon="-58.06249">
        <time>2021-05-01T12:38:01Z</time>
      </trkpt>
      <trkpt lat="-34.963066" lon="-58.062534">
        <time>2021-05-01T12:38:02Z</time>
      </trkpt>
      <trkpt lat="-34.963108" lon="-58.062584">
        <time>2021-05-01T12:38:03Z</time>
      </trkpt>
      <trkpt lat="-34.963146" lon="-58.062634">
        <time>2021-05-01T12:38:04Z</time>
      </trkpt>
      <trkpt lat="-34.96319" lon="-58.06268">
        <time>2021-05-01T12:38:05Z</time>
      </trkpt>
      <trkpt lat="-34.96323" lon="-58.062725">
        <time>2021-05-01T12:38:06Z</time>
      </trkpt>
      <trkpt lat="-34.963272" lon="-58.06277">
        <time>2021-05-01T12:38:07Z</time>
      </trkpt>
      <trkpt lat="-34.963314" lon="-58.062817">
        <time>2021-05-01T12:38:08Z</time>
      </trkpt>
      <trkpt lat="-34.96336" lon="-58.062866">
        <time>2021-05-01T12:38:09Z</time>
      </trkpt>
      <trkpt lat="-34.9634" lon="-58.062912">
        <time>2021-05-01T12:38:10Z</time>
      </trkpt>
      <trkpt lat="-34.963448" lon="-58.06296">
        <time>2021-05-01T12:38:11Z</time>
      </trkpt>
      <trkpt lat="-34.96349" lon="-58.06301">
        <time>2021-05-01T12:38:12Z</time>
      </trkpt>
      <trkpt lat="-34.96353" lon="-58.063057">
        <time>2021-05-01T12:38:13Z</time>
      </trkpt>
      <trkpt lat="-34.963577" lon="-58.063107">
        <time>2021-05-01T12:38:14Z</time>
      </trkpt>
      <trkpt lat="-34.96362" lon="-58.063152">
        <time>2021-05-01T12:38:15Z</time>
      </trkpt>
      <trkpt lat="-34.963665" lon="-58.0632">
        <time>2021-05-01T12:38:16Z</time>
      </trkpt>
      <trkpt lat="-34.963707" lon="-58.063248">
        <time>2021-05-01T12:38:17Z</time>
      </trkpt>
      <trkpt lat="-34.96375" lon="-58.063293">
        <time>2021-05-01T12:38:18Z</time>
      </trkpt>
      <trkpt lat="-34.96379" lon="-58.063343">
        <time>2021-05-01T12:38:19Z</time>
      </trkpt>
      <trkpt lat="-34.963833" lon="-58.063393">
        <time>2021-05-01T12:38:20Z</time>
      </trkpt>
      <trkpt lat="-34.963875" lon="-58.06344">
        <time>2021-05-01T12:38:21Z</time>
      </trkpt>
      <trkpt lat="-34.963917" lon="-58.063488">
        <time>2021-05-01T12:38:22Z</time>
      </trkpt>
      <trkpt lat="-34.96396" lon="-58.06353">
        <time>2021-05-01T12:38:23Z</time>
      </trkpt>
      <trkpt lat="-34.964" lon="-58.063572">
        <time>2021-05-01T12:38:24Z</time>
      </trkpt>
      <trkpt lat="-34.96404" lon="-58.063614">
        <time>2021-05-01T12:38:25Z</time>
      </trkpt>
      <trkpt lat="-34.964077" lon="-58.063652">
        <time>2021-05-01T12:38:26Z</time>
      </trkpt>
      <trkpt lat="-34.964115" lon="-58.063694">
        <time>2021-05-01T12:38:27Z</time>
      </trkpt>
      <trkpt lat="-34.964153" lon="-58.063736">
        <time>2021-05-01T12:38:28Z</time>
      </trkpt>
      <trkpt lat="-34.964195" lon="-58.063778">
        <time>2021-05-01T12:38:29Z</time>
      </trkpt>
      <trkpt lat="-34.964233" lon="-58.063824">
        <time>2021-05-01T12:38:30Z</time>
      </trkpt>
      <trkpt lat="-34.964264" lon="-58.06387">
        <time>2021-05-01T12:38:31Z</time>
      </trkpt>
      <trkpt lat="-34.96433" lon="-58.063946">
        <time>2021-05-01T12:38:33Z</time>
      </trkpt>
      <trkpt lat="-34.96438" lon="-58.064014">
        <time>2021-05-01T12:38:35Z</time>
      </trkpt>
      <trkpt lat="-34.96442" lon="-58.064068">
        <time>2021-05-01T12:38:37Z</time>
      </trkpt>
      <trkpt lat="-34.96447" lon="-58.064087">
        <time>2021-05-01T12:38:43Z</time>
      </trkpt>
      <trkpt lat="-34.964466" lon="-58.06401">
        <time>2021-05-01T12:38:47Z</time>
      </trkpt>
      <trkpt lat="-34.96441" lon="-58.063984">
        <time>2021-05-01T12:38:49Z</time>
      </trkpt>
      <trkpt lat="-34.964336" lon="-58.06395">
        <time>2021-05-01T12:38:51Z</time>
      </trkpt>
      <trkpt lat="-34.96428" lon="-58.063873">
        <time>2021-05-01T12:38:53Z</time>
      </trkpt>
      <trkpt lat="-34.964222" lon="-58.063805">
        <time>2021-05-01T12:38:55Z</time>
      </trkpt>
      <trkpt lat="-34.96417" lon="-58.063744">
        <time>2021-05-01T12:38:57Z</time>
      </trkpt>
      <trkpt lat="-34.964115" lon="-58.063686">
        <time>2021-05-01T12:38:59Z</time>
      </trkpt>
      <trkpt lat="-34.964066" lon="-58.063637">
        <time>2021-05-01T12:39:01Z</time>
      </trkpt>
      <trkpt lat="-34.964016" lon="-58.063587">
        <time>2021-05-01T12:39:03Z</time>
      </trkpt>
      <trkpt lat="-34.963978" lon="-58.06354">
        <time>2021-05-01T12:39:05Z</time>
      </trkpt>
      <trkpt lat="-34.963947" lon="-58.063522">
        <time>2021-05-01T12:39:15Z</time>
      </trkpt>
      <trkpt lat="-34.963993" lon="-58.063538">
        <time>2021-05-01T12:42:56Z</time>
      </trkpt>
      <trkpt lat="-34.964046" lon="-58.06361">
        <time>2021-05-01T12:42:58Z</time>
      </trkpt>
      <trkpt lat="-34.964104" lon="-58.0637">
        <time>2021-05-01T12:43:03Z</time>
      </trkpt>
      <trkpt lat="-34.964138" lon="-58.063736">
        <time>2021-05-01T12:43:04Z</time>
      </trkpt>
      <trkpt lat="-34.964207" lon="-58.063805">
        <time>2021-05-01T12:43:06Z</time>
      </trkpt>
      <trkpt lat="-34.964245" lon="-58.063843">
        <time>2021-05-01T12:43:07Z</time>
      </trkpt>
      <trkpt lat="-34.964287" lon="-58.063885">
        <time>2021-05-01T12:43:08Z</time>
      </trkpt>
      <trkpt lat="-34.964325" lon="-58.063923">
        <time>2021-05-01T12:43:09Z</time>
      </trkpt>
      <trkpt lat="-34.964367" lon="-58.063965">
        <time>2021-05-01T12:43:10Z</time>
      </trkpt>
      <trkpt lat="-34.964405" lon="-58.064007">
        <time>2021-05-01T12:43:11Z</time>
      </trkpt>
      <trkpt lat="-34.964447" lon="-58.06405">
        <time>2021-05-01T12:43:12Z</time>
      </trkpt>
      <trkpt lat="-34.964485" lon="-58.064095">
        <time>2021-05-01T12:43:13Z</time>
      </trkpt>
      <trkpt lat="-34.964527" lon="-58.06414">
        <time>2021-05-01T12:43:14Z</time>
      </trkpt>
      <trkpt lat="-34.96457" lon="-58.064186">
        <time>2021-05-01T12:43:15Z</time>
      </trkpt>
      <trkpt lat="-34.964607" lon="-58.064236">
        <time>2021-05-01T12:43:16Z</time>
      </trkpt>
      <trkpt lat="-34.96465" lon="-58.06428">
        <time>2021-05-01T12:43:17Z</time>
      </trkpt>
      <trkpt lat="-34.96469" lon="-58.064327">
        <time>2021-05-01T12:43:18Z</time>
      </trkpt>
      <trkpt lat="-34.964737" lon="-58.064373">
        <time>2021-05-01T12:43:19Z</time>
      </trkpt>
      <trkpt lat="-34.96478" lon="-58.06442">
        <time>2021-05-01T12:43:20Z</time>
      </trkpt>
      <trkpt lat="-34.964825" lon="-58.064465">
        <time>2021-05-01T12:43:21Z</time>
      </trkpt>
      <trkpt lat="-34.964867" lon="-58.064514">
        <time>2021-05-01T12:43:22Z</time>
      </trkpt>
      <trkpt lat="-34.964912" lon="-58.064564">
        <time>2021-05-01T12:43:23Z</time>
      </trkpt>
      <trkpt lat="-34.964954" lon="-58.064613">
        <time>2021-05-01T12:43:24Z</time>
      </trkpt>
      <trkpt lat="-34.964996" lon="-58.06466">
        <time>2021-05-01T12:43:25Z</time>
      </trkpt>
      <trkpt lat="-34.96504" lon="-58.06471">
        <time>2021-05-01T12:43:26Z</time>
      </trkpt>
      <trkpt lat="-34.96508" lon="-58.06476">
        <time>2021-05-01T12:43:27Z</time>
      </trkpt>
      <trkpt lat="-34.965126" lon="-58.064804">
        <time>2021-05-01T12:43:28Z</time>
      </trkpt>
      <trkpt lat="-34.965168" lon="-58.064854">
        <time>2021-05-01T12:43:29Z</time>
      </trkpt>
      <trkpt lat="-34.965214" lon="-58.064903">
        <time>2021-05-01T12:43:30Z</time>
      </trkpt>
      <trkpt lat="-34.965256" lon="-58.064953">
        <time>2021-05-01T12:43:31Z</time>
      </trkpt>
      <trkpt lat="-34.9653" lon="-58.065002">
        <time>2021-05-01T12:43:32Z</time>
      </trkpt>
      <trkpt lat="-34.965347" lon="-58.06505">
        <time>2021-05-01T12:43:33Z</time>
      </trkpt>
      <trkpt lat="-34.96539" lon="-58.065098">
        <time>2021-05-01T12:43:34Z</time>
      </trkpt>
      <trkpt lat="-34.965435" lon="-58.065144">
        <time>2021-05-01T12:43:35Z</time>
      </trkpt>
      <trkpt lat="-34.96548" lon="-58.065193">
        <time>2021-05-01T12:43:36Z</time>
      </trkpt>
      <trkpt lat="-34.965527" lon="-58.065243">
        <time>2021-05-01T12:43:37Z</time>
      </trkpt>
      <trkpt lat="-34.96557" lon="-58.065292">
        <time>2021-05-01T12:43:38Z</time>
      </trkpt>
      <trkpt lat="-34.965614" lon="-58.065342">
        <time>2021-05-01T12:43:39Z</time>
      </trkpt>
      <trkpt lat="-34.96566" lon="-58.06539">
        <time>2021-05-01T12:43:40Z</time>
      </trkpt>
      <trkpt lat="-34.965702" lon="-58.06544">
        <time>2021-05-01T12:43:41Z</time>
      </trkpt>
      <trkpt lat="-34.965748" lon="-58.065495">
        <time>2021-05-01T12:43:42Z</time>
      </trkpt>
      <trkpt lat="-34.965794" lon="-58.065544">
        <time>2021-05-01T12:43:43Z</time>
      </trkpt>
      <trkpt lat="-34.96584" lon="-58.065594">
        <time>2021-05-01T12:43:44Z</time>
      </trkpt>
      <trkpt lat="-34.965885" lon="-58.065643">
        <time>2021-05-01T12:43:45Z</time>
      </trkpt>
      <trkpt lat="-34.96593" lon="-58.065693">
        <time>2021-05-01T12:43:46Z</time>
      </trkpt>
      <trkpt lat="-34.965973" lon="-58.065746">
        <time>2021-05-01T12:43:47Z</time>
      </trkpt>
      <trkpt lat="-34.96602" lon="-58.065796">
        <time>2021-05-01T12:43:48Z</time>
      </trkpt>
      <trkpt lat="-34.966064" lon="-58.065845">
        <time>2021-05-01T12:43:49Z</time>
      </trkpt>
      <trkpt lat="-34.96611" lon="-58.065895">
        <time>2021-05-01T12:43:50Z</time>
      </trkpt>
      <trkpt lat="-34.966156" lon="-58.06595">
        <time>2021-05-01T12:43:51Z</time>
      </trkpt>
      <trkpt lat="-34.9662" lon="-58.065998">
        <time>2021-05-01T12:43:52Z</time>
      </trkpt>
      <trkpt lat="-34.966248" lon="-58.066044">
        <time>2021-05-01T12:43:53Z</time>
      </trkpt>
      <trkpt lat="-34.966293" lon="-58.066097">
        <time>2021-05-01T12:43:55Z</time>
      </trkpt>
      <trkpt lat="-34.96634" lon="-58.066147">
        <time>2021-05-01T12:43:56Z</time>
      </trkpt>
      <trkpt lat="-34.966385" lon="-58.066196">
        <time>2021-05-01T12:43:57Z</time>
      </trkpt>
      <trkpt lat="-34.96643" lon="-58.066246">
        <time>2021-05-01T12:43:58Z</time>
      </trkpt>
      <trkpt lat="-34.966476" lon="-58.0663">
        <time>2021-05-01T12:43:59Z</time>
      </trkpt>
      <trkpt lat="-34.966522" lon="-58.06635">
        <time>2021-05-01T12:44:00Z</time>
      </trkpt>
      <trkpt lat="-34.966568" lon="-58.066395">
        <time>2021-05-01T12:44:01Z</time>
      </trkpt>
      <trkpt lat="-34.966614" lon="-58.06645">
        <time>2021-05-01T12:44:02Z</time>
      </trkpt>
      <trkpt lat="-34.96666" lon="-58.066498">
        <time>2021-05-01T12:44:03Z</time>
      </trkpt>
      <trkpt lat="-34.9667" lon="-58.066547">
        <time>2021-05-01T12:44:04Z</time>
      </trkpt>
      <trkpt lat="-34.966747" lon="-58.066593">
        <time>2021-05-01T12:44:05Z</time>
      </trkpt>
      <trkpt lat="-34.966793" lon="-58.066643">
        <time>2021-05-01T12:44:06Z</time>
      </trkpt>
      <trkpt lat="-34.96684" lon="-58.066692">
        <time>2021-05-01T12:44:07Z</time>
      </trkpt>
      <trkpt lat="-34.966885" lon="-58.066746">
        <time>2021-05-01T12:44:08Z</time>
      </trkpt>
      <trkpt lat="-34.96693" lon="-58.066795">
        <time>2021-05-01T12:44:09Z</time>
      </trkpt>
      <trkpt lat="-34.966972" lon="-58.066845">
        <time>2021-05-01T12:44:10Z</time>
      </trkpt>
      <trkpt lat="-34.96702" lon="-58.0669">
        <time>2021-05-01T12:44:11Z</time>
      </trkpt>
      <trkpt lat="-34.967064" lon="-58.066948">
        <time>2021-05-01T12:44:12Z</time>
      </trkpt>
      <trkpt lat="-34.967113" lon="-58.066994">
        <time>2021-05-01T12:44:13Z</time>
      </trkpt>
      <trkpt lat="-34.967155" lon="-58.067043">
        <time>2021-05-01T12:44:14Z</time>
      </trkpt>
      <trkpt lat="-34.9672" lon="-58.067097">
        <time>2021-05-01T12:44:15Z</time>
      </trkpt>
      <trkpt lat="-34.967247" lon="-58.067146">
        <time>2021-05-01T12:44:16Z</time>
      </trkpt>
      <trkpt lat="-34.96729" lon="-58.067192">
        <time>2021-05-01T12:44:17Z</time>
      </trkpt>
      <trkpt lat="-34.967335" lon="-58.06724">
        <time>2021-05-01T12:44:18Z</time>
      </trkpt>
      <trkpt lat="-34.96738" lon="-58.06729">
        <time>2021-05-01T12:44:19Z</time>
      </trkpt>
      <trkpt lat="-34.967426" lon="-58.06734">
        <time>2021-05-01T12:44:20Z</time>
      </trkpt>
      <trkpt lat="-34.967472" lon="-58.06739">
        <time>2021-05-01T12:44:21Z</time>
      </trkpt>
      <trkpt lat="-34.967518" lon="-58.06744">
        <time>2021-05-01T12:44:22Z</time>
      </trkpt>
      <trkpt lat="-34.967564" lon="-58.06749">
        <time>2021-05-01T12:44:23Z</time>
      </trkpt>
      <trkpt lat="-34.967606" lon="-58.06754">
        <time>2021-05-01T12:44:24Z</time>
      </trkpt>
      <trkpt lat="-34.96765" lon="-58.067593">
        <time>2021-05-01T12:44:25Z</time>
      </trkpt>
      <trkpt lat="-34.967697" lon="-58.067642">
        <time>2021-05-01T12:44:26Z</time>
      </trkpt>
      <trkpt lat="-34.967743" lon="-58.06769">
        <time>2021-05-01T12:44:27Z</time>
      </trkpt>
      <trkpt lat="-34.96779" lon="-58.06774">
        <time>2021-05-01T12:44:28Z</time>
      </trkpt>
      <trkpt lat="-34.967834" lon="-58.06779">
        <time>2021-05-01T12:44:29Z</time>
      </trkpt>
      <trkpt lat="-34.96788" lon="-58.067837">
        <time>2021-05-01T12:44:30Z</time>
      </trkpt>
      <trkpt lat="-34.967926" lon="-58.067886">
        <time>2021-05-01T12:44:31Z</time>
      </trkpt>
      <trkpt lat="-34.96797" lon="-58.067936">
        <time>2021-05-01T12:44:32Z</time>
      </trkpt>
      <trkpt lat="-34.968018" lon="-58.06799">
        <time>2021-05-01T12:44:33Z</time>
      </trkpt>
      <trkpt lat="-34.968063" lon="-58.06804">
        <time>2021-05-01T12:44:34Z</time>
      </trkpt>
      <trkpt lat="-34.96811" lon="-58.06809">
        <time>2021-05-01T12:44:35Z</time>
      </trkpt>
      <trkpt lat="-34.968155" lon="-58.068142">
        <time>2021-05-01T12:44:36Z</time>
      </trkpt>
      <trkpt lat="-34.968204" lon="-58.06819">
        <time>2021-05-01T12:44:37Z</time>
      </trkpt>
      <trkpt lat="-34.96825" lon="-58.06824">
        <time>2021-05-01T12:44:38Z</time>
      </trkpt>
      <trkpt lat="-34.968296" lon="-58.06829">
        <time>2021-05-01T12:44:39Z</time>
      </trkpt>
      <trkpt lat="-34.96834" lon="-58.06834">
        <time>2021-05-01T12:44:40Z</time>
      </trkpt>
      <trkpt lat="-34.968388" lon="-58.068394">
        <time>2021-05-01T12:44:41Z</time>
      </trkpt>
      <trkpt lat="-34.968433" lon="-58.068443">
        <time>2021-05-01T12:44:42Z</time>
      </trkpt>
      <trkpt lat="-34.96848" lon="-58.068493">
        <time>2021-05-01T12:44:43Z</time>
      </trkpt>
      <trkpt lat="-34.968525" lon="-58.06854">
        <time>2021-05-01T12:44:44Z</time>
      </trkpt>
      <trkpt lat="-34.968567" lon="-58.068584">
        <time>2021-05-01T12:44:45Z</time>
      </trkpt>
      <trkpt lat="-34.968613" lon="-58.068634">
        <time>2021-05-01T12:44:46Z</time>
      </trkpt>
      <trkpt lat="-34.968655" lon="-58.068684">
        <time>2021-05-01T12:44:47Z</time>
      </trkpt>
      <trkpt lat="-34.9687" lon="-58.068737">
        <time>2021-05-01T12:44:48Z</time>
      </trkpt>
      <trkpt lat="-34.96874" lon="-58.06879">
        <time>2021-05-01T12:44:49Z</time>
      </trkpt>
      <trkpt lat="-34.968773" lon="-58.068848">
        <time>2021-05-01T12:44:50Z</time>
      </trkpt>
      <trkpt lat="-34.968803" lon="-58.06891">
        <time>2021-05-01T12:44:51Z</time>
      </trkpt>
      <trkpt lat="-34.968834" lon="-58.068974">
        <time>2021-05-01T12:44:52Z</time>
      </trkpt>
      <trkpt lat="-34.968864" lon="-58.069035">
        <time>2021-05-01T12:44:53Z</time>
      </trkpt>
      <trkpt lat="-34.968884" lon="-58.069107">
        <time>2021-05-01T12:44:54Z</time>
      </trkpt>
      <trkpt lat="-34.9689" lon="-58.069176">
        <time>2021-05-01T12:44:55Z</time>
      </trkpt>
      <trkpt lat="-34.968914" lon="-58.06925">
        <time>2021-05-01T12:44:56Z</time>
      </trkpt>
      <trkpt lat="-34.968925" lon="-58.069317">
        <time>2021-05-01T12:44:57Z</time>
      </trkpt>
      <trkpt lat="-34.968937" lon="-58.069386">
        <time>2021-05-01T12:44:58Z</time>
      </trkpt>
      <trkpt lat="-34.96895" lon="-58.06945">
        <time>2021-05-01T12:44:59Z</time>
      </trkpt>
      <trkpt lat="-34.96896" lon="-58.069515">
        <time>2021-05-01T12:45:00Z</time>
      </trkpt>
      <trkpt lat="-34.96898" lon="-58.06958">
        <time>2021-05-01T12:45:01Z</time>
      </trkpt>
      <trkpt lat="-34.969" lon="-58.06964">
        <time>2021-05-01T12:45:02Z</time>
      </trkpt>
      <trkpt lat="-34.969025" lon="-58.069695">
        <time>2021-05-01T12:45:03Z</time>
      </trkpt>
      <trkpt lat="-34.969055" lon="-58.069748">
        <time>2021-05-01T12:45:04Z</time>
      </trkpt>
      <trkpt lat="-34.96909" lon="-58.06979">
        <time>2021-05-01T12:45:05Z</time>
      </trkpt>
      <trkpt lat="-34.969128" lon="-58.06983">
        <time>2021-05-01T12:45:06Z</time>
      </trkpt>
      <trkpt lat="-34.969166" lon="-58.069862">
        <time>2021-05-01T12:45:07Z</time>
      </trkpt>
      <trkpt lat="-34.969208" lon="-58.06989">
        <time>2021-05-01T12:45:08Z</time>
      </trkpt>
      <trkpt lat="-34.969254" lon="-58.069916">
        <time>2021-05-01T12:45:09Z</time>
      </trkpt>
      <trkpt lat="-34.9693" lon="-58.069935">
        <time>2021-05-01T12:45:10Z</time>
      </trkpt>
      <trkpt lat="-34.96935" lon="-58.06995">
        <time>2021-05-01T12:45:11Z</time>
      </trkpt>
      <trkpt lat="-34.969402" lon="-58.06996">
        <time>2021-05-01T12:45:12Z</time>
      </trkpt>
      <trkpt lat="-34.969456" lon="-58.06997">
        <time>2021-05-01T12:45:13Z</time>
      </trkpt>
      <trkpt lat="-34.96951" lon="-58.069977">
        <time>2021-05-01T12:45:14Z</time>
      </trkpt>
      <trkpt lat="-34.969566" lon="-58.06999">
        <time>2021-05-01T12:45:15Z</time>
      </trkpt>
      <trkpt lat="-34.969624" lon="-58.07">
        <time>2021-05-01T12:45:16Z</time>
      </trkpt>
      <trkpt lat="-34.969685" lon="-58.070015">
        <time>2021-05-01T12:45:17Z</time>
      </trkpt>
      <trkpt lat="-34.96974" lon="-58.070038">
        <time>2021-05-01T12:45:18Z</time>
      </trkpt>
      <trkpt lat="-34.9698" lon="-58.070065">
        <time>2021-05-01T12:45:19Z</time>
      </trkpt>
      <trkpt lat="-34.969856" lon="-58.0701">
        <time>2021-05-01T12:45:20Z</time>
      </trkpt>
      <trkpt lat="-34.969913" lon="-58.070133">
        <time>2021-05-01T12:45:21Z</time>
      </trkpt>
      <trkpt lat="-34.969967" lon="-58.070175">
        <time>2021-05-01T12:45:22Z</time>
      </trkpt>
      <trkpt lat="-34.970024" lon="-58.070217">
        <time>2021-05-01T12:45:23Z</time>
      </trkpt>
      <trkpt lat="-34.970074" lon="-58.070267">
        <time>2021-05-01T12:45:24Z</time>
      </trkpt>
      <trkpt lat="-34.970123" lon="-58.07032">
        <time>2021-05-01T12:45:25Z</time>
      </trkpt>
      <trkpt lat="-34.97017" lon="-58.070374">
        <time>2021-05-01T12:45:26Z</time>
      </trkpt>
      <trkpt lat="-34.970215" lon="-58.070423">
        <time>2021-05-01T12:45:27Z</time>
      </trkpt>
      <trkpt lat="-34.97026" lon="-58.070477">
        <time>2021-05-01T12:45:28Z</time>
      </trkpt>
      <trkpt lat="-34.970306" lon="-58.070526">
        <time>2021-05-01T12:45:29Z</time>
      </trkpt>
      <trkpt lat="-34.970352" lon="-58.07058">
        <time>2021-05-01T12:45:30Z</time>
      </trkpt>
      <trkpt lat="-34.9704" lon="-58.07063">
        <time>2021-05-01T12:45:31Z</time>
      </trkpt>
      <trkpt lat="-34.970448" lon="-58.070683">
        <time>2021-05-01T12:45:32Z</time>
      </trkpt>
      <trkpt lat="-34.970493" lon="-58.070736">
        <time>2021-05-01T12:45:33Z</time>
      </trkpt>
      <trkpt lat="-34.97054" lon="-58.07079">
        <time>2021-05-01T12:45:34Z</time>
      </trkpt>
      <trkpt lat="-34.970585" lon="-58.07084">
        <time>2021-05-01T12:45:35Z</time>
      </trkpt>
      <trkpt lat="-34.97063" lon="-58.07089">
        <time>2021-05-01T12:45:36Z</time>
      </trkpt>
      <trkpt lat="-34.970673" lon="-58.07094">
        <time>2021-05-01T12:45:37Z</time>
      </trkpt>
      <trkpt lat="-34.97072" lon="-58.070988">
        <time>2021-05-01T12:45:38Z</time>
      </trkpt>
      <trkpt lat="-34.97076" lon="-58.071037">
        <time>2021-05-01T12:45:39Z</time>
      </trkpt>
      <trkpt lat="-34.970806" lon="-58.071083">
        <time>2021-05-01T12:45:40Z</time>
      </trkpt>
      <trkpt lat="-34.970848" lon="-58.071133">
        <time>2021-05-01T12:45:41Z</time>
      </trkpt>
      <trkpt lat="-34.97089" lon="-58.07118">
        <time>2021-05-01T12:45:42Z</time>
      </trkpt>
      <trkpt lat="-34.970936" lon="-58.071228">
        <time>2021-05-01T12:45:43Z</time>
      </trkpt>
      <trkpt lat="-34.970978" lon="-58.07127">
        <time>2021-05-01T12:45:44Z</time>
      </trkpt>
      <trkpt lat="-34.971016" lon="-58.071316">
        <time>2021-05-01T12:45:45Z</time>
      </trkpt>
      <trkpt lat="-34.971058" lon="-58.07136">
        <time>2021-05-01T12:45:46Z</time>
      </trkpt>
      <trkpt lat="-34.9711" lon="-58.07141">
        <time>2021-05-01T12:45:47Z</time>
      </trkpt>
      <trkpt lat="-34.97114" lon="-58.071457">
        <time>2021-05-01T12:45:48Z</time>
      </trkpt>
      <trkpt lat="-34.971188" lon="-58.071507">
        <time>2021-05-01T12:45:49Z</time>
      </trkpt>
      <trkpt lat="-34.97123" lon="-58.071552">
        <time>2021-05-01T12:45:50Z</time>
      </trkpt>
      <trkpt lat="-34.97127" lon="-58.0716">
        <time>2021-05-01T12:45:51Z</time>
      </trkpt>
      <trkpt lat="-34.971317" lon="-58.071648">
        <time>2021-05-01T12:45:52Z</time>
      </trkpt>
      <trkpt lat="-34.971363" lon="-58.071693">
        <time>2021-05-01T12:45:53Z</time>
      </trkpt>
      <trkpt lat="-34.971405" lon="-58.071743">
        <time>2021-05-01T12:45:54Z</time>
      </trkpt>
      <trkpt lat="-34.97145" lon="-58.07179">
        <time>2021-05-01T12:45:55Z</time>
      </trkpt>
      <trkpt lat="-34.971493" lon="-58.07184">
        <time>2021-05-01T12:45:56Z</time>
      </trkpt>
      <trkpt lat="-34.97154" lon="-58.071888">
        <time>2021-05-01T12:45:57Z</time>
      </trkpt>
      <trkpt lat="-34.97158" lon="-58.071934">
        <time>2021-05-01T12:45:58Z</time>
      </trkpt>
      <trkpt lat="-34.971626" lon="-58.07198">
        <time>2021-05-01T12:45:59Z</time>
      </trkpt>
      <trkpt lat="-34.971672" lon="-58.072025">
        <time>2021-05-01T12:46:00Z</time>
      </trkpt>
      <trkpt lat="-34.971714" lon="-58.072075">
        <time>2021-05-01T12:46:01Z</time>
      </trkpt>
      <trkpt lat="-34.97176" lon="-58.072124">
        <time>2021-05-01T12:46:02Z</time>
      </trkpt>
      <trkpt lat="-34.9718" lon="-58.07217">
        <time>2021-05-01T12:46:03Z</time>
      </trkpt>
      <trkpt lat="-34.971848" lon="-58.07222">
        <time>2021-05-01T12:46:04Z</time>
      </trkpt>
      <trkpt lat="-34.971893" lon="-58.072266">
        <time>2021-05-01T12:46:05Z</time>
      </trkpt>
      <trkpt lat="-34.971935" lon="-58.072315">
        <time>2021-05-01T12:46:06Z</time>
      </trkpt>
      <trkpt lat="-34.971977" lon="-58.07236">
        <time>2021-05-01T12:46:07Z</time>
      </trkpt>
      <trkpt lat="-34.97202" lon="-58.072407">
        <time>2021-05-01T12:46:08Z</time>
      </trkpt>
      <trkpt lat="-34.97206" lon="-58.072453">
        <time>2021-05-01T12:46:09Z</time>
      </trkpt>
      <trkpt lat="-34.972107" lon="-58.072502">
        <time>2021-05-01T12:46:10Z</time>
      </trkpt>
      <trkpt lat="-34.97215" lon="-58.072548">
        <time>2021-05-01T12:46:11Z</time>
      </trkpt>
      <trkpt lat="-34.97219" lon="-58.072598">
        <time>2021-05-01T12:46:12Z</time>
      </trkpt>
      <trkpt lat="-34.972237" lon="-58.072643">
        <time>2021-05-01T12:46:13Z</time>
      </trkpt>
      <trkpt lat="-34.97228" lon="-58.07269">
        <time>2021-05-01T12:46:14Z</time>
      </trkpt>
      <trkpt lat="-34.972324" lon="-58.07274">
        <time>2021-05-01T12:46:15Z</time>
      </trkpt>
      <trkpt lat="-34.972366" lon="-58.072784">
        <time>2021-05-01T12:46:16Z</time>
      </trkpt>
      <trkpt lat="-34.97241" lon="-58.072834">
        <time>2021-05-01T12:46:17Z</time>
      </trkpt>
      <trkpt lat="-34.972454" lon="-58.07288">
        <time>2021-05-01T12:46:18Z</time>
      </trkpt>
      <trkpt lat="-34.972496" lon="-58.07293">
        <time>2021-05-01T12:46:19Z</time>
      </trkpt>
      <trkpt lat="-34.97254" lon="-58.07298">
        <time>2021-05-01T12:46:20Z</time>
      </trkpt>
      <trkpt lat="-34.972584" lon="-58.073025">
        <time>2021-05-01T12:46:21Z</time>
      </trkpt>
      <trkpt lat="-34.97263" lon="-58.073074">
        <time>2021-05-01T12:46:22Z</time>
      </trkpt>
      <trkpt lat="-34.97267" lon="-58.07312">
        <time>2021-05-01T12:46:23Z</time>
      </trkpt>
      <trkpt lat="-34.972713" lon="-58.073166">
        <time>2021-05-01T12:46:24Z</time>
      </trkpt>
      <trkpt lat="-34.972755" lon="-58.073215">
        <time>2021-05-01T12:46:25Z</time>
      </trkpt>
      <trkpt lat="-34.972797" lon="-58.07326">
        <time>2021-05-01T12:46:26Z</time>
      </trkpt>
      <trkpt lat="-34.97284" lon="-58.073307">
        <time>2021-05-01T12:46:27Z</time>
      </trkpt>
      <trkpt lat="-34.972885" lon="-58.073357">
        <time>2021-05-01T12:46:28Z</time>
      </trkpt>
      <trkpt lat="-34.972927" lon="-58.073402">
        <time>2021-05-01T12:46:29Z</time>
      </trkpt>
      <trkpt lat="-34.97297" lon="-58.073452">
        <time>2021-05-01T12:46:30Z</time>
      </trkpt>
      <trkpt lat="-34.973015" lon="-58.073498">
        <time>2021-05-01T12:46:31Z</time>
      </trkpt>
      <trkpt lat="-34.973057" lon="-58.073544">
        <time>2021-05-01T12:46:32Z</time>
      </trkpt>
      <trkpt lat="-34.9731" lon="-58.073593">
        <time>2021-05-01T12:46:33Z</time>
      </trkpt>
      <trkpt lat="-34.97314" lon="-58.07364">
        <time>2021-05-01T12:46:34Z</time>
      </trkpt>
      <trkpt lat="-34.973186" lon="-58.07369">
        <time>2021-05-01T12:46:35Z</time>
      </trkpt>
      <trkpt lat="-34.97323" lon="-58.073734">
        <time>2021-05-01T12:46:36Z</time>
      </trkpt>
      <trkpt lat="-34.97327" lon="-58.073784">
        <time>2021-05-01T12:46:37Z</time>
      </trkpt>
      <trkpt lat="-34.973312" lon="-58.073833">
        <time>2021-05-01T12:46:38Z</time>
      </trkpt>
      <trkpt lat="-34.97336" lon="-58.07388">
        <time>2021-05-01T12:46:39Z</time>
      </trkpt>
      <trkpt lat="-34.9734" lon="-58.073925">
        <time>2021-05-01T12:46:40Z</time>
      </trkpt>
      <trkpt lat="-34.973442" lon="-58.07397">
        <time>2021-05-01T12:46:41Z</time>
      </trkpt>
      <trkpt lat="-34.973484" lon="-58.074017">
        <time>2021-05-01T12:46:42Z</time>
      </trkpt>
      <trkpt lat="-34.973522" lon="-58.074062">
        <time>2021-05-01T12:46:43Z</time>
      </trkpt>
      <trkpt lat="-34.973564" lon="-58.07411">
        <time>2021-05-01T12:46:44Z</time>
      </trkpt>
      <trkpt lat="-34.973606" lon="-58.074154">
        <time>2021-05-01T12:46:45Z</time>
      </trkpt>
      <trkpt lat="-34.973648" lon="-58.0742">
        <time>2021-05-01T12:46:46Z</time>
      </trkpt>
      <trkpt lat="-34.97369" lon="-58.074245">
        <time>2021-05-01T12:46:47Z</time>
      </trkpt>
      <trkpt lat="-34.973732" lon="-58.07429">
        <time>2021-05-01T12:46:48Z</time>
      </trkpt>
      <trkpt lat="-34.973774" lon="-58.074333">
        <time>2021-05-01T12:46:49Z</time>
      </trkpt>
      <trkpt lat="-34.973816" lon="-58.07438">
        <time>2021-05-01T12:46:50Z</time>
      </trkpt>
      <trkpt lat="-34.973854" lon="-58.074425">
        <time>2021-05-01T12:46:51Z</time>
      </trkpt>
      <trkpt lat="-34.973896" lon="-58.07447">
        <time>2021-05-01T12:46:52Z</time>
      </trkpt>
      <trkpt lat="-34.973938" lon="-58.074516">
        <time>2021-05-01T12:46:53Z</time>
      </trkpt>
      <trkpt lat="-34.97398" lon="-58.074562">
        <time>2021-05-01T12:46:54Z</time>
      </trkpt>
      <trkpt lat="-34.974022" lon="-58.074608">
        <time>2021-05-01T12:46:55Z</time>
      </trkpt>
      <trkpt lat="-34.974064" lon="-58.074657">
        <time>2021-05-01T12:46:56Z</time>
      </trkpt>
      <trkpt lat="-34.974102" lon="-58.074703">
        <time>2021-05-01T12:46:57Z</time>
      </trkpt>
      <trkpt lat="-34.974148" lon="-58.07475">
        <time>2021-05-01T12:46:58Z</time>
      </trkpt>
      <trkpt lat="-34.974186" lon="-58.074795">
        <time>2021-05-01T12:46:59Z</time>
      </trkpt>
      <trkpt lat="-34.97423" lon="-58.07484">
        <time>2021-05-01T12:47:00Z</time>
      </trkpt>
      <trkpt lat="-34.974274" lon="-58.074886">
        <time>2021-05-01T12:47:01Z</time>
      </trkpt>
      <trkpt lat="-34.974316" lon="-58.074936">
        <time>2021-05-01T12:47:02Z</time>
      </trkpt>
      <trkpt lat="-34.97436" lon="-58.07498">
        <time>2021-05-01T12:47:03Z</time>
      </trkpt>
      <trkpt lat="-34.974403" lon="-58.075027">
        <time>2021-05-01T12:47:04Z</time>
      </trkpt>
      <trkpt lat="-34.974445" lon="-58.075073">
        <time>2021-05-01T12:47:05Z</time>
      </trkpt>
      <trkpt lat="-34.974487" lon="-58.07512">
        <time>2021-05-01T12:47:06Z</time>
      </trkpt>
      <trkpt lat="-34.97453" lon="-58.075165">
        <time>2021-05-01T12:47:07Z</time>
      </trkpt>
      <trkpt lat="-34.97457" lon="-58.07521">
        <time>2021-05-01T12:47:08Z</time>
      </trkpt>
      <trkpt lat="-34.974613" lon="-58.075256">
        <time>2021-05-01T12:47:09Z</time>
      </trkpt>
      <trkpt lat="-34.974655" lon="-58.075302">
        <time>2021-05-01T12:47:10Z</time>
      </trkpt>
      <trkpt lat="-34.974697" lon="-58.075348">
        <time>2021-05-01T12:47:11Z</time>
      </trkpt>
      <trkpt lat="-34.974735" lon="-58.07539">
        <time>2021-05-01T12:47:12Z</time>
      </trkpt>
      <trkpt lat="-34.974773" lon="-58.07543">
        <time>2021-05-01T12:47:13Z</time>
      </trkpt>
      <trkpt lat="-34.974815" lon="-58.075478">
        <time>2021-05-01T12:47:14Z</time>
      </trkpt>
      <trkpt lat="-34.974854" lon="-58.07552">
        <time>2021-05-01T12:47:15Z</time>
      </trkpt>
      <trkpt lat="-34.974895" lon="-58.075565">
        <time>2021-05-01T12:47:16Z</time>
      </trkpt>
      <trkpt lat="-34.974937" lon="-58.07561">
        <time>2021-05-01T12:47:17Z</time>
      </trkpt>
      <trkpt lat="-34.97498" lon="-58.075657">
        <time>2021-05-01T12:47:18Z</time>
      </trkpt>
      <trkpt lat="-34.97502" lon="-58.075703">
        <time>2021-05-01T12:47:19Z</time>
      </trkpt>
      <trkpt lat="-34.975063" lon="-58.075745">
        <time>2021-05-01T12:47:20Z</time>
      </trkpt>
      <trkpt lat="-34.975105" lon="-58.07579">
        <time>2021-05-01T12:47:21Z</time>
      </trkpt>
      <trkpt lat="-34.975147" lon="-58.075836">
        <time>2021-05-01T12:47:22Z</time>
      </trkpt>
      <trkpt lat="-34.97519" lon="-58.075886">
        <time>2021-05-01T12:47:23Z</time>
      </trkpt>
      <trkpt lat="-34.97523" lon="-58.07593">
        <time>2021-05-01T12:47:24Z</time>
      </trkpt>
      <trkpt lat="-34.975273" lon="-58.075977">
        <time>2021-05-01T12:47:25Z</time>
      </trkpt>
      <trkpt lat="-34.975315" lon="-58.076023">
        <time>2021-05-01T12:47:26Z</time>
      </trkpt>
      <trkpt lat="-34.975357" lon="-58.07607">
        <time>2021-05-01T12:47:27Z</time>
      </trkpt>
      <trkpt lat="-34.9754" lon="-58.076115">
        <time>2021-05-01T12:47:28Z</time>
      </trkpt>
      <trkpt lat="-34.97544" lon="-58.076157">
        <time>2021-05-01T12:47:29Z</time>
      </trkpt>
      <trkpt lat="-34.975483" lon="-58.076202">
        <time>2021-05-01T12:47:30Z</time>
      </trkpt>
      <trkpt lat="-34.975525" lon="-58.07625">
        <time>2021-05-01T12:47:31Z</time>
      </trkpt>
      <trkpt lat="-34.975567" lon="-58.076294">
        <time>2021-05-01T12:47:32Z</time>
      </trkpt>
      <trkpt lat="-34.97561" lon="-58.07634">
        <time>2021-05-01T12:47:33Z</time>
      </trkpt>
      <trkpt lat="-34.97565" lon="-58.076385">
        <time>2021-05-01T12:47:34Z</time>
      </trkpt>
      <trkpt lat="-34.975693" lon="-58.07643">
        <time>2021-05-01T12:47:35Z</time>
      </trkpt>
      <trkpt lat="-34.97573" lon="-58.07648">
        <time>2021-05-01T12:47:36Z</time>
      </trkpt>
      <trkpt lat="-34.975773" lon="-58.076527">
        <time>2021-05-01T12:47:37Z</time>
      </trkpt>
      <trkpt lat="-34.975815" lon="-58.076572">
        <time>2021-05-01T12:47:38Z</time>
      </trkpt>
      <trkpt lat="-34.975857" lon="-58.07662">
        <time>2021-05-01T12:47:39Z</time>
      </trkpt>
      <trkpt lat="-34.9759" lon="-58.076664">
        <time>2021-05-01T12:47:40Z</time>
      </trkpt>
      <trkpt lat="-34.97594" lon="-58.07671">
        <time>2021-05-01T12:47:41Z</time>
      </trkpt>
      <trkpt lat="-34.975983" lon="-58.076756">
        <time>2021-05-01T12:47:42Z</time>
      </trkpt>
      <trkpt lat="-34.976025" lon="-58.076797">
        <time>2021-05-01T12:47:43Z</time>
      </trkpt>
      <trkpt lat="-34.976063" lon="-58.076847">
        <time>2021-05-01T12:47:44Z</time>
      </trkpt>
      <trkpt lat="-34.976105" lon="-58.076893">
        <time>2021-05-01T12:47:45Z</time>
      </trkpt>
      <trkpt lat="-34.976147" lon="-58.076935">
        <time>2021-05-01T12:47:46Z</time>
      </trkpt>
      <trkpt lat="-34.97619" lon="-58.07698">
        <time>2021-05-01T12:47:47Z</time>
      </trkpt>
      <trkpt lat="-34.97623" lon="-58.077026">
        <time>2021-05-01T12:47:48Z</time>
      </trkpt>
      <trkpt lat="-34.97627" lon="-58.077072">
        <time>2021-05-01T12:47:49Z</time>
      </trkpt>
      <trkpt lat="-34.97631" lon="-58.077118">
        <time>2021-05-01T12:47:50Z</time>
      </trkpt>
      <trkpt lat="-34.976353" lon="-58.077164">
        <time>2021-05-01T12:47:51Z</time>
      </trkpt>
      <trkpt lat="-34.976395" lon="-58.07721">
        <time>2021-05-01T12:47:52Z</time>
      </trkpt>
      <trkpt lat="-34.976437" lon="-58.077255">
        <time>2021-05-01T12:47:53Z</time>
      </trkpt>
      <trkpt lat="-34.97648" lon="-58.0773">
        <time>2021-05-01T12:47:54Z</time>
      </trkpt>
      <trkpt lat="-34.97652" lon="-58.077347">
        <time>2021-05-01T12:47:55Z</time>
      </trkpt>
      <trkpt lat="-34.976562" lon="-58.077393">
        <time>2021-05-01T12:47:56Z</time>
      </trkpt>
      <trkpt lat="-34.976604" lon="-58.07744">
        <time>2021-05-01T12:47:57Z</time>
      </trkpt>
      <trkpt lat="-34.976646" lon="-58.077484">
        <time>2021-05-01T12:47:58Z</time>
      </trkpt>
      <trkpt lat="-34.97669" lon="-58.077534">
        <time>2021-05-01T12:47:59Z</time>
      </trkpt>
      <trkpt lat="-34.97673" lon="-58.07758">
        <time>2021-05-01T12:48:00Z</time>
      </trkpt>
      <trkpt lat="-34.976776" lon="-58.077625">
        <time>2021-05-01T12:48:01Z</time>
      </trkpt>
      <trkpt lat="-34.976818" lon="-58.07767">
        <time>2021-05-01T12:48:02Z</time>
      </trkpt>
      <trkpt lat="-34.97686" lon="-58.07772">
        <time>2021-05-01T12:48:03Z</time>
      </trkpt>
      <trkpt lat="-34.976906" lon="-58.077766">
        <time>2021-05-01T12:48:04Z</time>
      </trkpt>
      <trkpt lat="-34.976948" lon="-58.077812">
        <time>2021-05-01T12:48:05Z</time>
      </trkpt>
      <trkpt lat="-34.976994" lon="-58.07786">
        <time>2021-05-01T12:48:06Z</time>
      </trkpt>
      <trkpt lat="-34.977036" lon="-58.07791">
        <time>2021-05-01T12:48:07Z</time>
      </trkpt>
      <trkpt lat="-34.97708" lon="-58.077957">
        <time>2021-05-01T12:48:08Z</time>
      </trkpt>
      <trkpt lat="-34.977123" lon="-58.078003">
        <time>2021-05-01T12:48:09Z</time>
      </trkpt>
      <trkpt lat="-34.97717" lon="-58.078053">
        <time>2021-05-01T12:48:10Z</time>
      </trkpt>
      <trkpt lat="-34.97721" lon="-58.0781">
        <time>2021-05-01T12:48:11Z</time>
      </trkpt>
      <trkpt lat="-34.977253" lon="-58.078144">
        <time>2021-05-01T12:48:12Z</time>
      </trkpt>
      <trkpt lat="-34.9773" lon="-58.078194">
        <time>2021-05-01T12:48:13Z</time>
      </trkpt>
      <trkpt lat="-34.97734" lon="-58.078243">
        <time>2021-05-01T12:48:14Z</time>
      </trkpt>
      <trkpt lat="-34.977516" lon="-58.07843">
        <time>2021-05-01T12:48:18Z</time>
      </trkpt>
      <trkpt lat="-34.97756" lon="-58.07848">
        <time>2021-05-01T12:48:19Z</time>
      </trkpt>
      <trkpt lat="-34.9776" lon="-58.078526">
        <time>2021-05-01T12:48:20Z</time>
      </trkpt>
      <trkpt lat="-34.97773" lon="-58.078667">
        <time>2021-05-01T12:48:23Z</time>
      </trkpt>
      <trkpt lat="-34.97777" lon="-58.078712">
        <time>2021-05-01T12:48:24Z</time>
      </trkpt>
      <trkpt lat="-34.977814" lon="-58.07876">
        <time>2021-05-01T12:48:25Z</time>
      </trkpt>
      <trkpt lat="-34.97785" lon="-58.078804">
        <time>2021-05-01T12:48:26Z</time>
      </trkpt>
      <trkpt lat="-34.97789" lon="-58.07885">
        <time>2021-05-01T12:48:27Z</time>
      </trkpt>
      <trkpt lat="-34.97802" lon="-58.078987">
        <time>2021-05-01T12:48:30Z</time>
      </trkpt>
      <trkpt lat="-34.97806" lon="-58.079033">
        <time>2021-05-01T12:48:31Z</time>
      </trkpt>
      <trkpt lat="-34.978104" lon="-58.07908">
        <time>2021-05-01T12:48:32Z</time>
      </trkpt>
      <trkpt lat="-34.978146" lon="-58.07913">
        <time>2021-05-01T12:48:33Z</time>
      </trkpt>
      <trkpt lat="-34.978188" lon="-58.079174">
        <time>2021-05-01T12:48:34Z</time>
      </trkpt>
      <trkpt lat="-34.97823" lon="-58.07922">
        <time>2021-05-01T12:48:35Z</time>
      </trkpt>
      <trkpt lat="-34.978275" lon="-58.07927">
        <time>2021-05-01T12:48:36Z</time>
      </trkpt>
      <trkpt lat="-34.9784" lon="-58.07941">
        <time>2021-05-01T12:48:39Z</time>
      </trkpt>
      <trkpt lat="-34.978443" lon="-58.079456">
        <time>2021-05-01T12:48:40Z</time>
      </trkpt>
      <trkpt lat="-34.97849" lon="-58.079502">
        <time>2021-05-01T12:48:41Z</time>
      </trkpt>
      <trkpt lat="-34.978577" lon="-58.079597">
        <time>2021-05-01T12:48:43Z</time>
      </trkpt>
      <trkpt lat="-34.97866" lon="-58.079693">
        <time>2021-05-01T12:48:45Z</time>
      </trkpt>
      <trkpt lat="-34.978706" lon="-58.079742">
        <time>2021-05-01T12:48:46Z</time>
      </trkpt>
      <trkpt lat="-34.97875" lon="-58.07979">
        <time>2021-05-01T12:48:47Z</time>
      </trkpt>
      <trkpt lat="-34.97884" lon="-58.079887">
        <time>2021-05-01T12:48:49Z</time>
      </trkpt>
      <trkpt lat="-34.978886" lon="-58.079937">
        <time>2021-05-01T12:48:50Z</time>
      </trkpt>
      <trkpt lat="-34.978928" lon="-58.079983">
        <time>2021-05-01T12:48:51Z</time>
      </trkpt>
      <trkpt lat="-34.978973" lon="-58.080032">
        <time>2021-05-01T12:48:52Z</time>
      </trkpt>
      <trkpt lat="-34.97902" lon="-58.08008">
        <time>2021-05-01T12:48:53Z</time>
      </trkpt>
      <trkpt lat="-34.979065" lon="-58.080128">
        <time>2021-05-01T12:48:54Z</time>
      </trkpt>
      <trkpt lat="-34.97911" lon="-58.080177">
        <time>2021-05-01T12:48:55Z</time>
      </trkpt>
      <trkpt lat="-34.979156" lon="-58.080223">
        <time>2021-05-01T12:48:56Z</time>
      </trkpt>
      <trkpt lat="-34.9792" lon="-58.080273">
        <time>2021-05-01T12:48:57Z</time>
      </trkpt>
      <trkpt lat="-34.979244" lon="-58.080322">
        <time>2021-05-01T12:48:58Z</time>
      </trkpt>
      <trkpt lat="-34.979294" lon="-58.080368">
        <time>2021-05-01T12:48:59Z</time>
      </trkpt>
      <trkpt lat="-34.979336" lon="-58.080418">
        <time>2021-05-01T12:49:00Z</time>
      </trkpt>
      <trkpt lat="-34.97938" lon="-58.080467">
        <time>2021-05-01T12:49:01Z</time>
      </trkpt>
      <trkpt lat="-34.979427" lon="-58.080513">
        <time>2021-05-01T12:49:02Z</time>
      </trkpt>
      <trkpt lat="-34.979473" lon="-58.080563">
        <time>2021-05-01T12:49:03Z</time>
      </trkpt>
      <trkpt lat="-34.97952" lon="-58.080612">
        <time>2021-05-01T12:49:04Z</time>
      </trkpt>
      <trkpt lat="-34.97956" lon="-58.080658">
        <time>2021-05-01T12:49:05Z</time>
      </trkpt>
      <trkpt lat="-34.979607" lon="-58.080704">
        <time>2021-05-01T12:49:06Z</time>
      </trkpt>
      <trkpt lat="-34.979652" lon="-58.08075">
        <time>2021-05-01T12:49:07Z</time>
      </trkpt>
      <trkpt lat="-34.979694" lon="-58.0808">
        <time>2021-05-01T12:49:08Z</time>
      </trkpt>
      <trkpt lat="-34.97974" lon="-58.080845">
        <time>2021-05-01T12:49:09Z</time>
      </trkpt>
      <trkpt lat="-34.979782" lon="-58.080894">
        <time>2021-05-01T12:49:10Z</time>
      </trkpt>
      <trkpt lat="-34.979824" lon="-58.08094">
        <time>2021-05-01T12:49:11Z</time>
      </trkpt>
      <trkpt lat="-34.979866" lon="-58.08099">
        <time>2021-05-01T12:49:12Z</time>
      </trkpt>
      <trkpt lat="-34.97991" lon="-58.081036">
        <time>2021-05-01T12:49:13Z</time>
      </trkpt>
      <trkpt lat="-34.979954" lon="-58.08108">
        <time>2021-05-01T12:49:14Z</time>
      </trkpt>
      <trkpt lat="-34.979996" lon="-58.081127">
        <time>2021-05-01T12:49:15Z</time>
      </trkpt>
      <trkpt lat="-34.98004" lon="-58.081177">
        <time>2021-05-01T12:49:16Z</time>
      </trkpt>
      <trkpt lat="-34.980083" lon="-58.081223">
        <time>2021-05-01T12:49:17Z</time>
      </trkpt>
      <trkpt lat="-34.980125" lon="-58.08127">
        <time>2021-05-01T12:49:18Z</time>
      </trkpt>
      <trkpt lat="-34.980164" lon="-58.081314">
        <time>2021-05-01T12:49:19Z</time>
      </trkpt>
      <trkpt lat="-34.98021" lon="-58.08136">
        <time>2021-05-01T12:49:20Z</time>
      </trkpt>
      <trkpt lat="-34.98025" lon="-58.081406">
        <time>2021-05-01T12:49:21Z</time>
      </trkpt>
      <trkpt lat="-34.980293" lon="-58.081455">
        <time>2021-05-01T12:49:22Z</time>
      </trkpt>
      <trkpt lat="-34.98033" lon="-58.081497">
        <time>2021-05-01T12:49:23Z</time>
      </trkpt>
      <trkpt lat="-34.980373" lon="-58.081543">
        <time>2021-05-01T12:49:24Z</time>
      </trkpt>
      <trkpt lat="-34.980415" lon="-58.08159">
        <time>2021-05-01T12:49:25Z</time>
      </trkpt>
      <trkpt lat="-34.980457" lon="-58.081635">
        <time>2021-05-01T12:49:26Z</time>
      </trkpt>
      <trkpt lat="-34.980495" lon="-58.081676">
        <time>2021-05-01T12:49:27Z</time>
      </trkpt>
      <trkpt lat="-34.980537" lon="-58.08172">
        <time>2021-05-01T12:49:28Z</time>
      </trkpt>
      <trkpt lat="-34.98058" lon="-58.081764">
        <time>2021-05-01T12:49:29Z</time>
      </trkpt>
      <trkpt lat="-34.980618" lon="-58.081806">
        <time>2021-05-01T12:49:30Z</time>
      </trkpt>
      <trkpt lat="-34.98066" lon="-58.081852">
        <time>2021-05-01T12:49:31Z</time>
      </trkpt>
      <trkpt lat="-34.9807" lon="-58.081894">
        <time>2021-05-01T12:49:32Z</time>
      </trkpt>
      <trkpt lat="-34.980743" lon="-58.08194">
        <time>2021-05-01T12:49:33Z</time>
      </trkpt>
      <trkpt lat="-34.980785" lon="-58.081985">
        <time>2021-05-01T12:49:34Z</time>
      </trkpt>
      <trkpt lat="-34.980827" lon="-58.08203">
        <time>2021-05-01T12:49:35Z</time>
      </trkpt>
      <trkpt lat="-34.98087" lon="-58.08208">
        <time>2021-05-01T12:49:36Z</time>
      </trkpt>
      <trkpt lat="-34.980915" lon="-58.08213">
        <time>2021-05-01T12:49:37Z</time>
      </trkpt>
      <trkpt lat="-34.980957" lon="-58.082176">
        <time>2021-05-01T12:49:38Z</time>
      </trkpt>
      <trkpt lat="-34.981003" lon="-58.082226">
        <time>2021-05-01T12:49:39Z</time>
      </trkpt>
      <trkpt lat="-34.98105" lon="-58.082275">
        <time>2021-05-01T12:49:40Z</time>
      </trkpt>
      <trkpt lat="-34.98109" lon="-58.08232">
        <time>2021-05-01T12:49:41Z</time>
      </trkpt>
      <trkpt lat="-34.981136" lon="-58.08237">
        <time>2021-05-01T12:49:42Z</time>
      </trkpt>
      <trkpt lat="-34.981182" lon="-58.08242">
        <time>2021-05-01T12:49:43Z</time>
      </trkpt>
      <trkpt lat="-34.981228" lon="-58.082466">
        <time>2021-05-01T12:49:44Z</time>
      </trkpt>
      <trkpt lat="-34.98127" lon="-58.082516">
        <time>2021-05-01T12:49:45Z</time>
      </trkpt>
      <trkpt lat="-34.981316" lon="-58.08256">
        <time>2021-05-01T12:49:46Z</time>
      </trkpt>
      <trkpt lat="-34.981358" lon="-58.08261">
        <time>2021-05-01T12:49:47Z</time>
      </trkpt>
      <trkpt lat="-34.981403" lon="-58.082657">
        <time>2021-05-01T12:49:48Z</time>
      </trkpt>
      <trkpt lat="-34.98145" lon="-58.082703">
        <time>2021-05-01T12:49:49Z</time>
      </trkpt>
      <trkpt lat="-34.98149" lon="-58.082752">
        <time>2021-05-01T12:49:50Z</time>
      </trkpt>
      <trkpt lat="-34.981537" lon="-58.082798">
        <time>2021-05-01T12:49:51Z</time>
      </trkpt>
      <trkpt lat="-34.981575" lon="-58.082844">
        <time>2021-05-01T12:49:52Z</time>
      </trkpt>
      <trkpt lat="-34.981617" lon="-58.08289">
        <time>2021-05-01T12:49:53Z</time>
      </trkpt>
      <trkpt lat="-34.98166" lon="-58.082935">
        <time>2021-05-01T12:49:54Z</time>
      </trkpt>
      <trkpt lat="-34.981705" lon="-58.08298">
        <time>2021-05-01T12:49:55Z</time>
      </trkpt>
      <trkpt lat="-34.981747" lon="-58.083027">
        <time>2021-05-01T12:49:56Z</time>
      </trkpt>
      <trkpt lat="-34.981785" lon="-58.083073">
        <time>2021-05-01T12:49:57Z</time>
      </trkpt>
      <trkpt lat="-34.981827" lon="-58.08312">
        <time>2021-05-01T12:49:58Z</time>
      </trkpt>
      <trkpt lat="-34.98187" lon="-58.083164">
        <time>2021-05-01T12:49:59Z</time>
      </trkpt>
      <trkpt lat="-34.98191" lon="-58.08321">
        <time>2021-05-01T12:50:00Z</time>
      </trkpt>
      <trkpt lat="-34.981956" lon="-58.083256">
        <time>2021-05-01T12:50:01Z</time>
      </trkpt>
      <trkpt lat="-34.982" lon="-58.083305">
        <time>2021-05-01T12:50:02Z</time>
      </trkpt>
      <trkpt lat="-34.982044" lon="-58.08335">
        <time>2021-05-01T12:50:03Z</time>
      </trkpt>
      <trkpt lat="-34.982086" lon="-58.083397">
        <time>2021-05-01T12:50:04Z</time>
      </trkpt>
      <trkpt lat="-34.982132" lon="-58.083447">
        <time>2021-05-01T12:50:05Z</time>
      </trkpt>
      <trkpt lat="-34.982174" lon="-58.083496">
        <time>2021-05-01T12:50:06Z</time>
      </trkpt>
      <trkpt lat="-34.982216" lon="-58.08354">
        <time>2021-05-01T12:50:07Z</time>
      </trkpt>
      <trkpt lat="-34.982258" lon="-58.08359">
        <time>2021-05-01T12:50:08Z</time>
      </trkpt>
      <trkpt lat="-34.9823" lon="-58.08364">
        <time>2021-05-01T12:50:09Z</time>
      </trkpt>
      <trkpt lat="-34.98234" lon="-58.083687">
        <time>2021-05-01T12:50:10Z</time>
      </trkpt>
      <trkpt lat="-34.982384" lon="-58.083736">
        <time>2021-05-01T12:50:11Z</time>
      </trkpt>
      <trkpt lat="-34.982426" lon="-58.083782">
        <time>2021-05-01T12:50:12Z</time>
      </trkpt>
      <trkpt lat="-34.982468" lon="-58.083824">
        <time>2021-05-01T12:50:13Z</time>
      </trkpt>
      <trkpt lat="-34.982513" lon="-58.083874">
        <time>2021-05-01T12:50:14Z</time>
      </trkpt>
      <trkpt lat="-34.982555" lon="-58.08392">
        <time>2021-05-01T12:50:15Z</time>
      </trkpt>
      <trkpt lat="-34.982597" lon="-58.083965">
        <time>2021-05-01T12:50:16Z</time>
      </trkpt>
      <trkpt lat="-34.98264" lon="-58.08401">
        <time>2021-05-01T12:50:17Z</time>
      </trkpt>
      <trkpt lat="-34.98268" lon="-58.08406">
        <time>2021-05-01T12:50:18Z</time>
      </trkpt>
      <trkpt lat="-34.982723" lon="-58.084106">
        <time>2021-05-01T12:50:19Z</time>
      </trkpt>
      <trkpt lat="-34.982765" lon="-58.084152">
        <time>2021-05-01T12:50:20Z</time>
      </trkpt>
      <trkpt lat="-34.982807" lon="-58.084198">
        <time>2021-05-01T12:50:21Z</time>
      </trkpt>
      <trkpt lat="-34.98285" lon="-58.084248">
        <time>2021-05-01T12:50:22Z</time>
      </trkpt>
      <trkpt lat="-34.982895" lon="-58.084293">
        <time>2021-05-01T12:50:23Z</time>
      </trkpt>
      <trkpt lat="-34.98294" lon="-58.08434">
        <time>2021-05-01T12:50:24Z</time>
      </trkpt>
      <trkpt lat="-34.982983" lon="-58.084385">
        <time>2021-05-01T12:50:25Z</time>
      </trkpt>
      <trkpt lat="-34.983025" lon="-58.08443">
        <time>2021-05-01T12:50:26Z</time>
      </trkpt>
      <trkpt lat="-34.983063" lon="-58.084476">
        <time>2021-05-01T12:50:27Z</time>
      </trkpt>
      <trkpt lat="-34.983105" lon="-58.084522">
        <time>2021-05-01T12:50:28Z</time>
      </trkpt>
      <trkpt lat="-34.983147" lon="-58.084564">
        <time>2021-05-01T12:50:29Z</time>
      </trkpt>
      <trkpt lat="-34.98319" lon="-58.08461">
        <time>2021-05-01T12:50:30Z</time>
      </trkpt>
      <trkpt lat="-34.98323" lon="-58.084652">
        <time>2021-05-01T12:50:31Z</time>
      </trkpt>
      <trkpt lat="-34.98327" lon="-58.084694">
        <time>2021-05-01T12:50:32Z</time>
      </trkpt>
      <trkpt lat="-34.983307" lon="-58.084736">
        <time>2021-05-01T12:50:33Z</time>
      </trkpt>
      <trkpt lat="-34.983345" lon="-58.084778">
        <time>2021-05-01T12:50:34Z</time>
      </trkpt>
      <trkpt lat="-34.983376" lon="-58.084816">
        <time>2021-05-01T12:50:35Z</time>
      </trkpt>
      <trkpt lat="-34.983433" lon="-58.084885">
        <time>2021-05-01T12:50:37Z</time>
      </trkpt>
      <trkpt lat="-34.98346" lon="-58.084934">
        <time>2021-05-01T12:50:39Z</time>
      </trkpt>
      <trkpt lat="-34.983418" lon="-58.084972">
        <time>2021-05-01T12:50:42Z</time>
      </trkpt>
      <trkpt lat="-34.98337" lon="-58.084995">
        <time>2021-05-01T12:50:44Z</time>
      </trkpt>
      <trkpt lat="-34.98333" lon="-58.08505">
        <time>2021-05-01T12:50:46Z</time>
      </trkpt>
      <trkpt lat="-34.98329" lon="-58.0851">
        <time>2021-05-01T12:50:48Z</time>
      </trkpt>
      <trkpt lat="-34.983257" lon="-58.08515">
        <time>2021-05-01T12:50:50Z</time>
      </trkpt>
      <trkpt lat="-34.98321" lon="-58.085217">
        <time>2021-05-01T12:50:52Z</time>
      </trkpt>
      <trkpt lat="-34.98317" lon="-58.085274">
        <time>2021-05-01T12:50:54Z</time>
      </trkpt>
      <trkpt lat="-34.98316" lon="-58.085342">
        <time>2021-05-01T12:50:56Z</time>
      </trkpt>
      <trkpt lat="-34.98317" lon="-58.08537">
        <time>2021-05-01T12:51:06Z</time>
      </trkpt>
      <trkpt lat="-34.98317" lon="-58.08537">
        <time>2021-05-01T12:51:16Z</time>
      </trkpt>
      <trkpt lat="-34.98331" lon="-58.08517">
        <time>2021-05-01T12:58:36Z</time>
      </trkpt>
      <trkpt lat="-34.9833" lon="-58.085083">
        <time>2021-05-01T12:58:38Z</time>
      </trkpt>
      <trkpt lat="-34.983303" lon="-58.08501">
        <time>2021-05-01T12:58:39Z</time>
      </trkpt>
      <trkpt lat="-34.983337" lon="-58.084934">
        <time>2021-05-01T12:58:41Z</time>
      </trkpt>
      <trkpt lat="-34.983387" lon="-58.084938">
        <time>2021-05-01T12:58:43Z</time>
      </trkpt>
      <trkpt lat="-34.983475" lon="-58.08493">
        <time>2021-05-01T12:58:46Z</time>
      </trkpt>
      <trkpt lat="-34.983547" lon="-58.084984">
        <time>2021-05-01T12:58:48Z</time>
      </trkpt>
      <trkpt lat="-34.98358" lon="-58.085022">
        <time>2021-05-01T12:58:49Z</time>
      </trkpt>
      <trkpt lat="-34.983616" lon="-58.08506">
        <time>2021-05-01T12:58:50Z</time>
      </trkpt>
      <trkpt lat="-34.98365" lon="-58.085102">
        <time>2021-05-01T12:58:51Z</time>
      </trkpt>
      <trkpt lat="-34.983685" lon="-58.08514">
        <time>2021-05-01T12:58:52Z</time>
      </trkpt>
      <trkpt lat="-34.98372" lon="-58.08518">
        <time>2021-05-01T12:58:53Z</time>
      </trkpt>
      <trkpt lat="-34.983757" lon="-58.08522">
        <time>2021-05-01T12:58:54Z</time>
      </trkpt>
      <trkpt lat="-34.98379" lon="-58.085266">
        <time>2021-05-01T12:58:55Z</time>
      </trkpt>
      <trkpt lat="-34.98383" lon="-58.085308">
        <time>2021-05-01T12:58:56Z</time>
      </trkpt>
      <trkpt lat="-34.98387" lon="-58.085354">
        <time>2021-05-01T12:58:57Z</time>
      </trkpt>
      <trkpt lat="-34.983913" lon="-58.085396">
        <time>2021-05-01T12:58:58Z</time>
      </trkpt>
      <trkpt lat="-34.98395" lon="-58.085445">
        <time>2021-05-01T12:58:59Z</time>
      </trkpt>
      <trkpt lat="-34.984" lon="-58.0855">
        <time>2021-05-01T12:59:00Z</time>
      </trkpt>
      <trkpt lat="-34.98404" lon="-58.08555">
        <time>2021-05-01T12:59:01Z</time>
      </trkpt>
      <trkpt lat="-34.98408" lon="-58.085598">
        <time>2021-05-01T12:59:02Z</time>
      </trkpt>
      <trkpt lat="-34.984127" lon="-58.085648">
        <time>2021-05-01T12:59:03Z</time>
      </trkpt>
      <trkpt lat="-34.98417" lon="-58.0857">
        <time>2021-05-01T12:59:04Z</time>
      </trkpt>
      <trkpt lat="-34.984215" lon="-58.08575">
        <time>2021-05-01T12:59:05Z</time>
      </trkpt>
      <trkpt lat="-34.98426" lon="-58.0858">
        <time>2021-05-01T12:59:06Z</time>
      </trkpt>
      <trkpt lat="-34.984306" lon="-58.085846">
        <time>2021-05-01T12:59:07Z</time>
      </trkpt>
      <trkpt lat="-34.98435" lon="-58.08589">
        <time>2021-05-01T12:59:08Z</time>
      </trkpt>
      <trkpt lat="-34.98439" lon="-58.085938">
        <time>2021-05-01T12:59:09Z</time>
      </trkpt>
      <trkpt lat="-34.984436" lon="-58.085987">
        <time>2021-05-01T12:59:10Z</time>
      </trkpt>
      <trkpt lat="-34.984478" lon="-58.086037">
        <time>2021-05-01T12:59:11Z</time>
      </trkpt>
      <trkpt lat="-34.984524" lon="-58.08609">
        <time>2021-05-01T12:59:12Z</time>
      </trkpt>
      <trkpt lat="-34.984566" lon="-58.086143">
        <time>2021-05-01T12:59:13Z</time>
      </trkpt>
      <trkpt lat="-34.98461" lon="-58.086193">
        <time>2021-05-01T12:59:14Z</time>
      </trkpt>
      <trkpt lat="-34.984653" lon="-58.086243">
        <time>2021-05-01T12:59:15Z</time>
      </trkpt>
      <trkpt lat="-34.9847" lon="-58.08629">
        <time>2021-05-01T12:59:16Z</time>
      </trkpt>
      <trkpt lat="-34.98474" lon="-58.086334">
        <time>2021-05-01T12:59:17Z</time>
      </trkpt>
      <trkpt lat="-34.984787" lon="-58.08638">
        <time>2021-05-01T12:59:18Z</time>
      </trkpt>
      <trkpt lat="-34.984833" lon="-58.08643">
        <time>2021-05-01T12:59:19Z</time>
      </trkpt>
      <trkpt lat="-34.98488" lon="-58.086475">
        <time>2021-05-01T12:59:20Z</time>
      </trkpt>
      <trkpt lat="-34.98492" lon="-58.08652">
        <time>2021-05-01T12:59:21Z</time>
      </trkpt>
      <trkpt lat="-34.984966" lon="-58.08657">
        <time>2021-05-01T12:59:22Z</time>
      </trkpt>
      <trkpt lat="-34.985004" lon="-58.086613">
        <time>2021-05-01T12:59:23Z</time>
      </trkpt>
      <trkpt lat="-34.985046" lon="-58.08666">
        <time>2021-05-01T12:59:24Z</time>
      </trkpt>
      <trkpt lat="-34.985085" lon="-58.086704">
        <time>2021-05-01T12:59:25Z</time>
      </trkpt>
      <trkpt lat="-34.985123" lon="-58.086754">
        <time>2021-05-01T12:59:26Z</time>
      </trkpt>
      <trkpt lat="-34.98516" lon="-58.0868">
        <time>2021-05-01T12:59:27Z</time>
      </trkpt>
      <trkpt lat="-34.9852" lon="-58.086845">
        <time>2021-05-01T12:59:28Z</time>
      </trkpt>
      <trkpt lat="-34.985233" lon="-58.086887">
        <time>2021-05-01T12:59:29Z</time>
      </trkpt>
      <trkpt lat="-34.98527" lon="-58.08693">
        <time>2021-05-01T12:59:30Z</time>
      </trkpt>
      <trkpt lat="-34.98531" lon="-58.08697">
        <time>2021-05-01T12:59:31Z</time>
      </trkpt>
      <trkpt lat="-34.98534" lon="-58.087017">
        <time>2021-05-01T12:59:32Z</time>
      </trkpt>
      <trkpt lat="-34.985367" lon="-58.087112">
        <time>2021-05-01T12:59:34Z</time>
      </trkpt>
      <trkpt lat="-34.985336" lon="-58.08719">
        <time>2021-05-01T12:59:36Z</time>
      </trkpt>
      <trkpt lat="-34.98529" lon="-58.08726">
        <time>2021-05-01T12:59:38Z</time>
      </trkpt>
      <trkpt lat="-34.985237" lon="-58.08735">
        <time>2021-05-01T12:59:40Z</time>
      </trkpt>
      <trkpt lat="-34.985203" lon="-58.08739">
        <time>2021-05-01T12:59:41Z</time>
      </trkpt>
      <trkpt lat="-34.98517" lon="-58.087433">
        <time>2021-05-01T12:59:42Z</time>
      </trkpt>
      <trkpt lat="-34.98513" lon="-58.08748">
        <time>2021-05-01T12:59:43Z</time>
      </trkpt>
      <trkpt lat="-34.985092" lon="-58.087524">
        <time>2021-05-01T12:59:44Z</time>
      </trkpt>
      <trkpt lat="-34.985058" lon="-58.087574">
        <time>2021-05-01T12:59:45Z</time>
      </trkpt>
      <trkpt lat="-34.98502" lon="-58.087624">
        <time>2021-05-01T12:59:46Z</time>
      </trkpt>
      <trkpt lat="-34.98498" lon="-58.087673">
        <time>2021-05-01T12:59:47Z</time>
      </trkpt>
      <trkpt lat="-34.984943" lon="-58.087723">
        <time>2021-05-01T12:59:48Z</time>
      </trkpt>
      <trkpt lat="-34.984905" lon="-58.087772">
        <time>2021-05-01T12:59:49Z</time>
      </trkpt>
      <trkpt lat="-34.984867" lon="-58.087822">
        <time>2021-05-01T12:59:50Z</time>
      </trkpt>
      <trkpt lat="-34.98483" lon="-58.087875">
        <time>2021-05-01T12:59:51Z</time>
      </trkpt>
      <trkpt lat="-34.98479" lon="-58.087925">
        <time>2021-05-01T12:59:52Z</time>
      </trkpt>
      <trkpt lat="-34.984753" lon="-58.08798">
        <time>2021-05-01T12:59:53Z</time>
      </trkpt>
      <trkpt lat="-34.98471" lon="-58.08803">
        <time>2021-05-01T12:59:54Z</time>
      </trkpt>
      <trkpt lat="-34.984673" lon="-58.08808">
        <time>2021-05-01T12:59:55Z</time>
      </trkpt>
      <trkpt lat="-34.984634" lon="-58.088135">
        <time>2021-05-01T12:59:56Z</time>
      </trkpt>
      <trkpt lat="-34.984596" lon="-58.08819">
        <time>2021-05-01T12:59:57Z</time>
      </trkpt>
      <trkpt lat="-34.984554" lon="-58.08824">
        <time>2021-05-01T12:59:58Z</time>
      </trkpt>
      <trkpt lat="-34.984516" lon="-58.088295">
        <time>2021-05-01T12:59:59Z</time>
      </trkpt>
      <trkpt lat="-34.984478" lon="-58.088352">
        <time>2021-05-01T13:00:00Z</time>
      </trkpt>
      <trkpt lat="-34.98444" lon="-58.088406">
        <time>2021-05-01T13:00:01Z</time>
      </trkpt>
      <trkpt lat="-34.9844" lon="-58.08846">
        <time>2021-05-01T13:00:02Z</time>
      </trkpt>
      <trkpt lat="-34.98436" lon="-58.088512">
        <time>2021-05-01T13:00:03Z</time>
      </trkpt>
      <trkpt lat="-34.984318" lon="-58.088562">
        <time>2021-05-01T13:00:04Z</time>
      </trkpt>
      <trkpt lat="-34.98428" lon="-58.088615">
        <time>2021-05-01T13:00:05Z</time>
      </trkpt>
      <trkpt lat="-34.98424" lon="-58.08867">
        <time>2021-05-01T13:00:06Z</time>
      </trkpt>
      <trkpt lat="-34.984203" lon="-58.088722">
        <time>2021-05-01T13:00:07Z</time>
      </trkpt>
      <trkpt lat="-34.984165" lon="-58.088776">
        <time>2021-05-01T13:00:08Z</time>
      </trkpt>
      <trkpt lat="-34.984123" lon="-58.08883">
        <time>2021-05-01T13:00:09Z</time>
      </trkpt>
      <trkpt lat="-34.984085" lon="-58.08888">
        <time>2021-05-01T13:00:10Z</time>
      </trkpt>
      <trkpt lat="-34.984047" lon="-58.088932">
        <time>2021-05-01T13:00:11Z</time>
      </trkpt>
      <trkpt lat="-34.98401" lon="-58.08899">
        <time>2021-05-01T13:00:12Z</time>
      </trkpt>
      <trkpt lat="-34.98397" lon="-58.089046">
        <time>2021-05-01T13:00:13Z</time>
      </trkpt>
      <trkpt lat="-34.98393" lon="-58.0891">
        <time>2021-05-01T13:00:14Z</time>
      </trkpt>
      <trkpt lat="-34.98389" lon="-58.089153">
        <time>2021-05-01T13:00:15Z</time>
      </trkpt>
      <trkpt lat="-34.98385" lon="-58.089207">
        <time>2021-05-01T13:00:16Z</time>
      </trkpt>
      <trkpt lat="-34.983807" lon="-58.08926">
        <time>2021-05-01T13:00:17Z</time>
      </trkpt>
      <trkpt lat="-34.983765" lon="-58.089314">
        <time>2021-05-01T13:00:18Z</time>
      </trkpt>
      <trkpt lat="-34.983723" lon="-58.089367">
        <time>2021-05-01T13:00:19Z</time>
      </trkpt>
      <trkpt lat="-34.98368" lon="-58.089417">
        <time>2021-05-01T13:00:20Z</time>
      </trkpt>
      <trkpt lat="-34.983646" lon="-58.08947">
        <time>2021-05-01T13:00:21Z</time>
      </trkpt>
      <trkpt lat="-34.983604" lon="-58.089523">
        <time>2021-05-01T13:00:22Z</time>
      </trkpt>
      <trkpt lat="-34.983574" lon="-58.08957">
        <time>2021-05-01T13:00:23Z</time>
      </trkpt>
      <trkpt lat="-34.98354" lon="-58.08961">
        <time>2021-05-01T13:00:24Z</time>
      </trkpt>
      <trkpt lat="-34.983505" lon="-58.089657">
        <time>2021-05-01T13:00:25Z</time>
      </trkpt>
      <trkpt lat="-34.98347" lon="-58.089703">
        <time>2021-05-01T13:00:26Z</time>
      </trkpt>
      <trkpt lat="-34.98344" lon="-58.08975">
        <time>2021-05-01T13:00:27Z</time>
      </trkpt>
      <trkpt lat="-34.983414" lon="-58.089794">
        <time>2021-05-01T13:00:28Z</time>
      </trkpt>
      <trkpt lat="-34.983383" lon="-58.089836">
        <time>2021-05-01T13:00:29Z</time>
      </trkpt>
      <trkpt lat="-34.983353" lon="-58.08988">
        <time>2021-05-01T13:00:30Z</time>
      </trkpt>
      <trkpt lat="-34.98332" lon="-58.08993">
        <time>2021-05-01T13:00:31Z</time>
      </trkpt>
      <trkpt lat="-34.98328" lon="-58.089973">
        <time>2021-05-01T13:00:32Z</time>
      </trkpt>
      <trkpt lat="-34.983242" lon="-58.09002">
        <time>2021-05-01T13:00:33Z</time>
      </trkpt>
      <trkpt lat="-34.983204" lon="-58.09007">
        <time>2021-05-01T13:00:34Z</time>
      </trkpt>
      <trkpt lat="-34.983166" lon="-58.09012">
        <time>2021-05-01T13:00:35Z</time>
      </trkpt>
      <trkpt lat="-34.983128" lon="-58.090164">
        <time>2021-05-01T13:00:36Z</time>
      </trkpt>
      <trkpt lat="-34.98309" lon="-58.090214">
        <time>2021-05-01T13:00:37Z</time>
      </trkpt>
      <trkpt lat="-34.98305" lon="-58.090263">
        <time>2021-05-01T13:00:38Z</time>
      </trkpt>
      <trkpt lat="-34.983017" lon="-58.090313">
        <time>2021-05-01T13:00:39Z</time>
      </trkpt>
      <trkpt lat="-34.98298" lon="-58.09036">
        <time>2021-05-01T13:00:40Z</time>
      </trkpt>
      <trkpt lat="-34.982944" lon="-58.09041">
        <time>2021-05-01T13:00:41Z</time>
      </trkpt>
      <trkpt lat="-34.982906" lon="-58.090458">
        <time>2021-05-01T13:00:42Z</time>
      </trkpt>
      <trkpt lat="-34.98287" lon="-58.090504">
        <time>2021-05-01T13:00:43Z</time>
      </trkpt>
      <trkpt lat="-34.982834" lon="-58.090553">
        <time>2021-05-01T13:00:44Z</time>
      </trkpt>
      <trkpt lat="-34.9828" lon="-58.090607">
        <time>2021-05-01T13:00:45Z</time>
      </trkpt>
      <trkpt lat="-34.98276" lon="-58.090656">
        <time>2021-05-01T13:00:46Z</time>
      </trkpt>
      <trkpt lat="-34.982723" lon="-58.090706">
        <time>2021-05-01T13:00:47Z</time>
      </trkpt>
      <trkpt lat="-34.98269" lon="-58.09075">
        <time>2021-05-01T13:00:48Z</time>
      </trkpt>
      <trkpt lat="-34.982655" lon="-58.0908">
        <time>2021-05-01T13:00:49Z</time>
      </trkpt>
      <trkpt lat="-34.982616" lon="-58.09085">
        <time>2021-05-01T13:00:50Z</time>
      </trkpt>
      <trkpt lat="-34.98258" lon="-58.090897">
        <time>2021-05-01T13:00:51Z</time>
      </trkpt>
      <trkpt lat="-34.982544" lon="-58.090942">
        <time>2021-05-01T13:00:52Z</time>
      </trkpt>
      <trkpt lat="-34.98251" lon="-58.090992">
        <time>2021-05-01T13:00:53Z</time>
      </trkpt>
      <trkpt lat="-34.98248" lon="-58.091034">
        <time>2021-05-01T13:00:54Z</time>
      </trkpt>
      <trkpt lat="-34.982445" lon="-58.091076">
        <time>2021-05-01T13:00:55Z</time>
      </trkpt>
      <trkpt lat="-34.982384" lon="-58.091152">
        <time>2021-05-01T13:00:57Z</time>
      </trkpt>
      <trkpt lat="-34.982323" lon="-58.091225">
        <time>2021-05-01T13:00:59Z</time>
      </trkpt>
      <trkpt lat="-34.982292" lon="-58.09127">
        <time>2021-05-01T13:01:00Z</time>
      </trkpt>
      <trkpt lat="-34.98226" lon="-58.091316">
        <time>2021-05-01T13:01:01Z</time>
      </trkpt>
      <trkpt lat="-34.98223" lon="-58.091362">
        <time>2021-05-01T13:01:02Z</time>
      </trkpt>
      <trkpt lat="-34.982197" lon="-58.091404">
        <time>2021-05-01T13:01:03Z</time>
      </trkpt>
      <trkpt lat="-34.982162" lon="-58.09145">
        <time>2021-05-01T13:01:04Z</time>
      </trkpt>
      <trkpt lat="-34.982132" lon="-58.091496">
        <time>2021-05-01T13:01:05Z</time>
      </trkpt>
      <trkpt lat="-34.982098" lon="-58.09154">
        <time>2021-05-01T13:01:06Z</time>
      </trkpt>
      <trkpt lat="-34.98206" lon="-58.091587">
        <time>2021-05-01T13:01:07Z</time>
      </trkpt>
      <trkpt lat="-34.982025" lon="-58.091637">
        <time>2021-05-01T13:01:08Z</time>
      </trkpt>
      <trkpt lat="-34.981987" lon="-58.091682">
        <time>2021-05-01T13:01:09Z</time>
      </trkpt>
      <trkpt lat="-34.981953" lon="-58.091732">
        <time>2021-05-01T13:01:10Z</time>
      </trkpt>
      <trkpt lat="-34.98192" lon="-58.091778">
        <time>2021-05-01T13:01:11Z</time>
      </trkpt>
      <trkpt lat="-34.981888" lon="-58.091824">
        <time>2021-05-01T13:01:12Z</time>
      </trkpt>
      <trkpt lat="-34.981853" lon="-58.091866">
        <time>2021-05-01T13:01:13Z</time>
      </trkpt>
      <trkpt lat="-34.98182" lon="-58.09191">
        <time>2021-05-01T13:01:14Z</time>
      </trkpt>
      <trkpt lat="-34.98179" lon="-58.091957">
        <time>2021-05-01T13:01:15Z</time>
      </trkpt>
      <trkpt lat="-34.98176" lon="-58.092003">
        <time>2021-05-01T13:01:16Z</time>
      </trkpt>
      <trkpt lat="-34.981728" lon="-58.092052">
        <time>2021-05-01T13:01:17Z</time>
      </trkpt>
      <trkpt lat="-34.98169" lon="-58.092094">
        <time>2021-05-01T13:01:18Z</time>
      </trkpt>
      <trkpt lat="-34.981655" lon="-58.09214">
        <time>2021-05-01T13:01:19Z</time>
      </trkpt>
      <trkpt lat="-34.98162" lon="-58.092186">
        <time>2021-05-01T13:01:20Z</time>
      </trkpt>
      <trkpt lat="-34.981586" lon="-58.09223">
        <time>2021-05-01T13:01:21Z</time>
      </trkpt>
      <trkpt lat="-34.981552" lon="-58.09228">
        <time>2021-05-01T13:01:22Z</time>
      </trkpt>
      <trkpt lat="-34.981518" lon="-58.092327">
        <time>2021-05-01T13:01:23Z</time>
      </trkpt>
      <trkpt lat="-34.981483" lon="-58.092373">
        <time>2021-05-01T13:01:24Z</time>
      </trkpt>
      <trkpt lat="-34.98145" lon="-58.09242">
        <time>2021-05-01T13:01:25Z</time>
      </trkpt>
      <trkpt lat="-34.981415" lon="-58.092464">
        <time>2021-05-01T13:01:26Z</time>
      </trkpt>
      <trkpt lat="-34.98138" lon="-58.09251">
        <time>2021-05-01T13:01:27Z</time>
      </trkpt>
      <trkpt lat="-34.981346" lon="-58.092556">
        <time>2021-05-01T13:01:28Z</time>
      </trkpt>
      <trkpt lat="-34.98131" lon="-58.0926">
        <time>2021-05-01T13:01:29Z</time>
      </trkpt>
      <trkpt lat="-34.981277" lon="-58.092648">
        <time>2021-05-01T13:01:30Z</time>
      </trkpt>
      <trkpt lat="-34.981224" lon="-58.092728">
        <time>2021-05-01T13:01:32Z</time>
      </trkpt>
      <trkpt lat="-34.981194" lon="-58.092777">
        <time>2021-05-01T13:01:33Z</time>
      </trkpt>
      <trkpt lat="-34.981167" lon="-58.09282">
        <time>2021-05-01T13:01:34Z</time>
      </trkpt>
      <trkpt lat="-34.981136" lon="-58.09286">
        <time>2021-05-01T13:01:35Z</time>
      </trkpt>
      <trkpt lat="-34.981106" lon="-58.092903">
        <time>2021-05-01T13:01:36Z</time>
      </trkpt>
      <trkpt lat="-34.981045" lon="-58.092987">
        <time>2021-05-01T13:01:38Z</time>
      </trkpt>
      <trkpt lat="-34.981014" lon="-58.093025">
        <time>2021-05-01T13:01:39Z</time>
      </trkpt>
      <trkpt lat="-34.980984" lon="-58.09307">
        <time>2021-05-01T13:01:40Z</time>
      </trkpt>
      <trkpt lat="-34.980953" lon="-58.093117">
        <time>2021-05-01T13:01:41Z</time>
      </trkpt>
      <trkpt lat="-34.980934" lon="-58.09317">
        <time>2021-05-01T13:01:42Z</time>
      </trkpt>
      <trkpt lat="-34.980934" lon="-58.093227">
        <time>2021-05-01T13:01:43Z</time>
      </trkpt>
      <trkpt lat="-34.980957" lon="-58.09328">
        <time>2021-05-01T13:01:44Z</time>
      </trkpt>
      <trkpt lat="-34.980988" lon="-58.09333">
        <time>2021-05-01T13:01:45Z</time>
      </trkpt>
      <trkpt lat="-34.98102" lon="-58.093376">
        <time>2021-05-01T13:01:46Z</time>
      </trkpt>
      <trkpt lat="-34.981052" lon="-58.093422">
        <time>2021-05-01T13:01:47Z</time>
      </trkpt>
      <trkpt lat="-34.981087" lon="-58.093468">
        <time>2021-05-01T13:01:48Z</time>
      </trkpt>
      <trkpt lat="-34.981125" lon="-58.093513">
        <time>2021-05-01T13:01:49Z</time>
      </trkpt>
      <trkpt lat="-34.98116" lon="-58.09356">
        <time>2021-05-01T13:01:50Z</time>
      </trkpt>
      <trkpt lat="-34.9812" lon="-58.093605">
        <time>2021-05-01T13:01:51Z</time>
      </trkpt>
      <trkpt lat="-34.98124" lon="-58.093647">
        <time>2021-05-01T13:01:52Z</time>
      </trkpt>
      <trkpt lat="-34.981277" lon="-58.093693">
        <time>2021-05-01T13:01:53Z</time>
      </trkpt>
      <trkpt lat="-34.981316" lon="-58.093735">
        <time>2021-05-01T13:01:54Z</time>
      </trkpt>
      <trkpt lat="-34.981354" lon="-58.09378">
        <time>2021-05-01T13:01:55Z</time>
      </trkpt>
      <trkpt lat="-34.981396" lon="-58.09383">
        <time>2021-05-01T13:01:56Z</time>
      </trkpt>
      <trkpt lat="-34.981434" lon="-58.093872">
        <time>2021-05-01T13:01:57Z</time>
      </trkpt>
      <trkpt lat="-34.981476" lon="-58.093918">
        <time>2021-05-01T13:01:58Z</time>
      </trkpt>
      <trkpt lat="-34.981514" lon="-58.093967">
        <time>2021-05-01T13:01:59Z</time>
      </trkpt>
      <trkpt lat="-34.981556" lon="-58.094013">
        <time>2021-05-01T13:02:00Z</time>
      </trkpt>
      <trkpt lat="-34.981594" lon="-58.09406">
        <time>2021-05-01T13:02:01Z</time>
      </trkpt>
      <trkpt lat="-34.981636" lon="-58.09411">
        <time>2021-05-01T13:02:02Z</time>
      </trkpt>
      <trkpt lat="-34.981678" lon="-58.094154">
        <time>2021-05-01T13:02:03Z</time>
      </trkpt>
      <trkpt lat="-34.981716" lon="-58.094204">
        <time>2021-05-01T13:02:04Z</time>
      </trkpt>
      <trkpt lat="-34.98176" lon="-58.09425">
        <time>2021-05-01T13:02:05Z</time>
      </trkpt>
      <trkpt lat="-34.9818" lon="-58.094296">
        <time>2021-05-01T13:02:06Z</time>
      </trkpt>
      <trkpt lat="-34.98184" lon="-58.094345">
        <time>2021-05-01T13:02:07Z</time>
      </trkpt>
      <trkpt lat="-34.98188" lon="-58.09439">
        <time>2021-05-01T13:02:08Z</time>
      </trkpt>
      <trkpt lat="-34.98192" lon="-58.094437">
        <time>2021-05-01T13:02:09Z</time>
      </trkpt>
      <trkpt lat="-34.981956" lon="-58.094482">
        <time>2021-05-01T13:02:10Z</time>
      </trkpt>
      <trkpt lat="-34.981995" lon="-58.094524">
        <time>2021-05-01T13:02:11Z</time>
      </trkpt>
      <trkpt lat="-34.982037" lon="-58.09457">
        <time>2021-05-01T13:02:12Z</time>
      </trkpt>
      <trkpt lat="-34.982075" lon="-58.09462">
        <time>2021-05-01T13:02:13Z</time>
      </trkpt>
      <trkpt lat="-34.982117" lon="-58.09466">
        <time>2021-05-01T13:02:14Z</time>
      </trkpt>
      <trkpt lat="-34.982155" lon="-58.09471">
        <time>2021-05-01T13:02:15Z</time>
      </trkpt>
      <trkpt lat="-34.982193" lon="-58.094753">
        <time>2021-05-01T13:02:16Z</time>
      </trkpt>
      <trkpt lat="-34.98223" lon="-58.094795">
        <time>2021-05-01T13:02:17Z</time>
      </trkpt>
      <trkpt lat="-34.982273" lon="-58.09484">
        <time>2021-05-01T13:02:18Z</time>
      </trkpt>
      <trkpt lat="-34.98231" lon="-58.094887">
        <time>2021-05-01T13:02:19Z</time>
      </trkpt>
      <trkpt lat="-34.98235" lon="-58.09493">
        <time>2021-05-01T13:02:20Z</time>
      </trkpt>
      <trkpt lat="-34.982388" lon="-58.094975">
        <time>2021-05-01T13:02:21Z</time>
      </trkpt>
      <trkpt lat="-34.982426" lon="-58.09502">
        <time>2021-05-01T13:02:22Z</time>
      </trkpt>
      <trkpt lat="-34.982464" lon="-58.095066">
        <time>2021-05-01T13:02:23Z</time>
      </trkpt>
      <trkpt lat="-34.982502" lon="-58.095108">
        <time>2021-05-01T13:02:24Z</time>
      </trkpt>
      <trkpt lat="-34.98254" lon="-58.095154">
        <time>2021-05-01T13:02:25Z</time>
      </trkpt>
      <trkpt lat="-34.98258" lon="-58.0952">
        <time>2021-05-01T13:02:26Z</time>
      </trkpt>
      <trkpt lat="-34.982613" lon="-58.09524">
        <time>2021-05-01T13:02:27Z</time>
      </trkpt>
      <trkpt lat="-34.98265" lon="-58.095284">
        <time>2021-05-01T13:02:28Z</time>
      </trkpt>
      <trkpt lat="-34.982685" lon="-58.09532">
        <time>2021-05-01T13:02:29Z</time>
      </trkpt>
      <trkpt lat="-34.982723" lon="-58.095364">
        <time>2021-05-01T13:02:30Z</time>
      </trkpt>
      <trkpt lat="-34.98276" lon="-58.09541">
        <time>2021-05-01T13:02:31Z</time>
      </trkpt>
      <trkpt lat="-34.9828" lon="-58.09546">
        <time>2021-05-01T13:02:32Z</time>
      </trkpt>
      <trkpt lat="-34.982838" lon="-58.095505">
        <time>2021-05-01T13:02:33Z</time>
      </trkpt>
      <trkpt lat="-34.982876" lon="-58.09555">
        <time>2021-05-01T13:02:34Z</time>
      </trkpt>
      <trkpt lat="-34.982914" lon="-58.095596">
        <time>2021-05-01T13:02:35Z</time>
      </trkpt>
      <trkpt lat="-34.982952" lon="-58.095642">
        <time>2021-05-01T13:02:36Z</time>
      </trkpt>
      <trkpt lat="-34.982994" lon="-58.095684">
        <time>2021-05-01T13:02:37Z</time>
      </trkpt>
      <trkpt lat="-34.983036" lon="-58.095726">
        <time>2021-05-01T13:02:38Z</time>
      </trkpt>
      <trkpt lat="-34.983074" lon="-58.09577">
        <time>2021-05-01T13:02:39Z</time>
      </trkpt>
      <trkpt lat="-34.98311" lon="-58.09582">
        <time>2021-05-01T13:02:40Z</time>
      </trkpt>
      <trkpt lat="-34.983147" lon="-58.095867">
        <time>2021-05-01T13:02:41Z</time>
      </trkpt>
      <trkpt lat="-34.98318" lon="-58.095913">
        <time>2021-05-01T13:02:42Z</time>
      </trkpt>
      <trkpt lat="-34.98322" lon="-58.09596">
        <time>2021-05-01T13:02:43Z</time>
      </trkpt>
      <trkpt lat="-34.983257" lon="-58.096004">
        <time>2021-05-01T13:02:44Z</time>
      </trkpt>
      <trkpt lat="-34.983295" lon="-58.096046">
        <time>2021-05-01T13:02:45Z</time>
      </trkpt>
      <trkpt lat="-34.983334" lon="-58.096092">
        <time>2021-05-01T13:02:46Z</time>
      </trkpt>
      <trkpt lat="-34.98337" lon="-58.096134">
        <time>2021-05-01T13:02:47Z</time>
      </trkpt>
      <trkpt lat="-34.98341" lon="-58.096176">
        <time>2021-05-01T13:02:48Z</time>
      </trkpt>
      <trkpt lat="-34.983448" lon="-58.09622">
        <time>2021-05-01T13:02:49Z</time>
      </trkpt>
      <trkpt lat="-34.983486" lon="-58.09626">
        <time>2021-05-01T13:02:50Z</time>
      </trkpt>
      <trkpt lat="-34.983524" lon="-58.096306">
        <time>2021-05-01T13:02:51Z</time>
      </trkpt>
      <trkpt lat="-34.98356" lon="-58.096355">
        <time>2021-05-01T13:02:52Z</time>
      </trkpt>
      <trkpt lat="-34.983593" lon="-58.0964">
        <time>2021-05-01T13:02:53Z</time>
      </trkpt>
      <trkpt lat="-34.983635" lon="-58.096447">
        <time>2021-05-01T13:02:54Z</time>
      </trkpt>
      <trkpt lat="-34.983673" lon="-58.096493">
        <time>2021-05-01T13:02:55Z</time>
      </trkpt>
      <trkpt lat="-34.983707" lon="-58.09654">
        <time>2021-05-01T13:02:56Z</time>
      </trkpt>
      <trkpt lat="-34.98375" lon="-58.096577">
        <time>2021-05-01T13:02:57Z</time>
      </trkpt>
      <trkpt lat="-34.98379" lon="-58.09662">
        <time>2021-05-01T13:02:58Z</time>
      </trkpt>
      <trkpt lat="-34.98383" lon="-58.096664">
        <time>2021-05-01T13:02:59Z</time>
      </trkpt>
      <trkpt lat="-34.983868" lon="-58.096706">
        <time>2021-05-01T13:03:00Z</time>
      </trkpt>
      <trkpt lat="-34.983906" lon="-58.096752">
        <time>2021-05-01T13:03:01Z</time>
      </trkpt>
      <trkpt lat="-34.983944" lon="-58.096798">
        <time>2021-05-01T13:03:02Z</time>
      </trkpt>
      <trkpt lat="-34.983986" lon="-58.09684">
        <time>2021-05-01T13:03:03Z</time>
      </trkpt>
      <trkpt lat="-34.984024" lon="-58.096886">
        <time>2021-05-01T13:03:04Z</time>
      </trkpt>
      <trkpt lat="-34.984062" lon="-58.09693">
        <time>2021-05-01T13:03:05Z</time>
      </trkpt>
      <trkpt lat="-34.984097" lon="-58.09698">
        <time>2021-05-01T13:03:06Z</time>
      </trkpt>
      <trkpt lat="-34.984135" lon="-58.097027">
        <time>2021-05-01T13:03:07Z</time>
      </trkpt>
      <trkpt lat="-34.984173" lon="-58.097073">
        <time>2021-05-01T13:03:08Z</time>
      </trkpt>
      <trkpt lat="-34.98421" lon="-58.09712">
        <time>2021-05-01T13:03:09Z</time>
      </trkpt>
      <trkpt lat="-34.98425" lon="-58.097168">
        <time>2021-05-01T13:03:10Z</time>
      </trkpt>
      <trkpt lat="-34.984287" lon="-58.097214">
        <time>2021-05-01T13:03:11Z</time>
      </trkpt>
      <trkpt lat="-34.98432" lon="-58.097263">
        <time>2021-05-01T13:03:12Z</time>
      </trkpt>
      <trkpt lat="-34.98436" lon="-58.09731">
        <time>2021-05-01T13:03:13Z</time>
      </trkpt>
      <trkpt lat="-34.984398" lon="-58.097355">
        <time>2021-05-01T13:03:14Z</time>
      </trkpt>
      <trkpt lat="-34.98444" lon="-58.097397">
        <time>2021-05-01T13:03:15Z</time>
      </trkpt>
      <trkpt lat="-34.984478" lon="-58.097443">
        <time>2021-05-01T13:03:16Z</time>
      </trkpt>
      <trkpt lat="-34.98452" lon="-58.09749">
        <time>2021-05-01T13:03:17Z</time>
      </trkpt>
      <trkpt lat="-34.984562" lon="-58.097534">
        <time>2021-05-01T13:03:18Z</time>
      </trkpt>
      <trkpt lat="-34.9846" lon="-58.09758">
        <time>2021-05-01T13:03:19Z</time>
      </trkpt>
      <trkpt lat="-34.984642" lon="-58.09763">
        <time>2021-05-01T13:03:20Z</time>
      </trkpt>
      <trkpt lat="-34.984684" lon="-58.09768">
        <time>2021-05-01T13:03:21Z</time>
      </trkpt>
      <trkpt lat="-34.984726" lon="-58.097725">
        <time>2021-05-01T13:03:22Z</time>
      </trkpt>
      <trkpt lat="-34.984764" lon="-58.09777">
        <time>2021-05-01T13:03:23Z</time>
      </trkpt>
      <trkpt lat="-34.984806" lon="-58.097816">
        <time>2021-05-01T13:03:24Z</time>
      </trkpt>
      <trkpt lat="-34.98485" lon="-58.097862">
        <time>2021-05-01T13:03:25Z</time>
      </trkpt>
      <trkpt lat="-34.98489" lon="-58.097908">
        <time>2021-05-01T13:03:26Z</time>
      </trkpt>
      <trkpt lat="-34.984932" lon="-58.097958">
        <time>2021-05-01T13:03:27Z</time>
      </trkpt>
      <trkpt lat="-34.984974" lon="-58.098003">
        <time>2021-05-01T13:03:28Z</time>
      </trkpt>
      <trkpt lat="-34.985012" lon="-58.098053">
        <time>2021-05-01T13:03:29Z</time>
      </trkpt>
      <trkpt lat="-34.985054" lon="-58.0981">
        <time>2021-05-01T13:03:30Z</time>
      </trkpt>
      <trkpt lat="-34.985092" lon="-58.098145">
        <time>2021-05-01T13:03:31Z</time>
      </trkpt>
      <trkpt lat="-34.985134" lon="-58.09819">
        <time>2021-05-01T13:03:32Z</time>
      </trkpt>
      <trkpt lat="-34.985176" lon="-58.098236">
        <time>2021-05-01T13:03:33Z</time>
      </trkpt>
      <trkpt lat="-34.985218" lon="-58.098278">
        <time>2021-05-01T13:03:34Z</time>
      </trkpt>
      <trkpt lat="-34.98526" lon="-58.09833">
        <time>2021-05-01T13:03:35Z</time>
      </trkpt>
      <trkpt lat="-34.985302" lon="-58.098373">
        <time>2021-05-01T13:03:36Z</time>
      </trkpt>
      <trkpt lat="-34.985344" lon="-58.09842">
        <time>2021-05-01T13:03:37Z</time>
      </trkpt>
      <trkpt lat="-34.98538" lon="-58.098473">
        <time>2021-05-01T13:03:38Z</time>
      </trkpt>
      <trkpt lat="-34.98542" lon="-58.09852">
        <time>2021-05-01T13:03:39Z</time>
      </trkpt>
      <trkpt lat="-34.985462" lon="-58.098557">
        <time>2021-05-01T13:03:40Z</time>
      </trkpt>
      <trkpt lat="-34.985508" lon="-58.098602">
        <time>2021-05-01T13:03:41Z</time>
      </trkpt>
      <trkpt lat="-34.985546" lon="-58.098648">
        <time>2021-05-01T13:03:42Z</time>
      </trkpt>
      <trkpt lat="-34.985588" lon="-58.098694">
        <time>2021-05-01T13:03:43Z</time>
      </trkpt>
      <trkpt lat="-34.985626" lon="-58.098743">
        <time>2021-05-01T13:03:44Z</time>
      </trkpt>
      <trkpt lat="-34.985664" lon="-58.098793">
        <time>2021-05-01T13:03:45Z</time>
      </trkpt>
      <trkpt lat="-34.985706" lon="-58.098843">
        <time>2021-05-01T13:03:46Z</time>
      </trkpt>
      <trkpt lat="-34.985744" lon="-58.098892">
        <time>2021-05-01T13:03:47Z</time>
      </trkpt>
      <trkpt lat="-34.985786" lon="-58.09894">
        <time>2021-05-01T13:03:48Z</time>
      </trkpt>
      <trkpt lat="-34.98583" lon="-58.098988">
        <time>2021-05-01T13:03:49Z</time>
      </trkpt>
      <trkpt lat="-34.985867" lon="-58.099037">
        <time>2021-05-01T13:03:50Z</time>
      </trkpt>
      <trkpt lat="-34.98591" lon="-58.099083">
        <time>2021-05-01T13:03:51Z</time>
      </trkpt>
      <trkpt lat="-34.985947" lon="-58.099133">
        <time>2021-05-01T13:03:52Z</time>
      </trkpt>
      <trkpt lat="-34.98599" lon="-58.09918">
        <time>2021-05-01T13:03:53Z</time>
      </trkpt>
      <trkpt lat="-34.98603" lon="-58.099228">
        <time>2021-05-01T13:03:54Z</time>
      </trkpt>
      <trkpt lat="-34.98607" lon="-58.099274">
        <time>2021-05-01T13:03:55Z</time>
      </trkpt>
      <trkpt lat="-34.98611" lon="-58.099323">
        <time>2021-05-01T13:03:56Z</time>
      </trkpt>
      <trkpt lat="-34.986153" lon="-58.09937">
        <time>2021-05-01T13:03:57Z</time>
      </trkpt>
      <trkpt lat="-34.986195" lon="-58.099415">
        <time>2021-05-01T13:03:58Z</time>
      </trkpt>
      <trkpt lat="-34.986233" lon="-58.099464">
        <time>2021-05-01T13:03:59Z</time>
      </trkpt>
      <trkpt lat="-34.98627" lon="-58.099514">
        <time>2021-05-01T13:04:00Z</time>
      </trkpt>
      <trkpt lat="-34.986313" lon="-58.099564">
        <time>2021-05-01T13:04:01Z</time>
      </trkpt>
      <trkpt lat="-34.986355" lon="-58.09961">
        <time>2021-05-01T13:04:02Z</time>
      </trkpt>
      <trkpt lat="-34.986397" lon="-58.099655">
        <time>2021-05-01T13:04:03Z</time>
      </trkpt>
      <trkpt lat="-34.98644" lon="-58.099705">
        <time>2021-05-01T13:04:04Z</time>
      </trkpt>
      <trkpt lat="-34.98648" lon="-58.099754">
        <time>2021-05-01T13:04:05Z</time>
      </trkpt>
      <trkpt lat="-34.986523" lon="-58.0998">
        <time>2021-05-01T13:04:06Z</time>
      </trkpt>
      <trkpt lat="-34.986565" lon="-58.099846">
        <time>2021-05-01T13:04:07Z</time>
      </trkpt>
      <trkpt lat="-34.986607" lon="-58.099895">
        <time>2021-05-01T13:04:08Z</time>
      </trkpt>
      <trkpt lat="-34.98665" lon="-58.099945">
        <time>2021-05-01T13:04:09Z</time>
      </trkpt>
      <trkpt lat="-34.98669" lon="-58.09999">
        <time>2021-05-01T13:04:10Z</time>
      </trkpt>
      <trkpt lat="-34.986732" lon="-58.10004">
        <time>2021-05-01T13:04:11Z</time>
      </trkpt>
      <trkpt lat="-34.986774" lon="-58.10009">
        <time>2021-05-01T13:04:12Z</time>
      </trkpt>
      <trkpt lat="-34.986816" lon="-58.100136">
        <time>2021-05-01T13:04:13Z</time>
      </trkpt>
      <trkpt lat="-34.98686" lon="-58.10018">
        <time>2021-05-01T13:04:14Z</time>
      </trkpt>
      <trkpt lat="-34.9869" lon="-58.100227">
        <time>2021-05-01T13:04:15Z</time>
      </trkpt>
      <trkpt lat="-34.986946" lon="-58.10027">
        <time>2021-05-01T13:04:16Z</time>
      </trkpt>
      <trkpt lat="-34.986988" lon="-58.100315">
        <time>2021-05-01T13:04:17Z</time>
      </trkpt>
      <trkpt lat="-34.987026" lon="-58.10036">
        <time>2021-05-01T13:04:18Z</time>
      </trkpt>
      <trkpt lat="-34.98707" lon="-58.10041">
        <time>2021-05-01T13:04:19Z</time>
      </trkpt>
      <trkpt lat="-34.987106" lon="-58.10046">
        <time>2021-05-01T13:04:20Z</time>
      </trkpt>
      <trkpt lat="-34.987144" lon="-58.10051">
        <time>2021-05-01T13:04:21Z</time>
      </trkpt>
      <trkpt lat="-34.987186" lon="-58.100555">
        <time>2021-05-01T13:04:22Z</time>
      </trkpt>
      <trkpt lat="-34.98723" lon="-58.100597">
        <time>2021-05-01T13:04:23Z</time>
      </trkpt>
      <trkpt lat="-34.98727" lon="-58.100643">
        <time>2021-05-01T13:04:24Z</time>
      </trkpt>
      <trkpt lat="-34.987312" lon="-58.100693">
        <time>2021-05-01T13:04:25Z</time>
      </trkpt>
      <trkpt lat="-34.987354" lon="-58.100742">
        <time>2021-05-01T13:04:26Z</time>
      </trkpt>
      <trkpt lat="-34.987396" lon="-58.10079">
        <time>2021-05-01T13:04:27Z</time>
      </trkpt>
      <trkpt lat="-34.98744" lon="-58.100838">
        <time>2021-05-01T13:04:28Z</time>
      </trkpt>
      <trkpt lat="-34.98748" lon="-58.100883">
        <time>2021-05-01T13:04:29Z</time>
      </trkpt>
      <trkpt lat="-34.987522" lon="-58.10093">
        <time>2021-05-01T13:04:30Z</time>
      </trkpt>
      <trkpt lat="-34.98756" lon="-58.10098">
        <time>2021-05-01T13:04:31Z</time>
      </trkpt>
      <trkpt lat="-34.9876" lon="-58.101032">
        <time>2021-05-01T13:04:32Z</time>
      </trkpt>
      <trkpt lat="-34.98764" lon="-58.10108">
        <time>2021-05-01T13:04:33Z</time>
      </trkpt>
      <trkpt lat="-34.987682" lon="-58.101128">
        <time>2021-05-01T13:04:34Z</time>
      </trkpt>
      <trkpt lat="-34.987724" lon="-58.101173">
        <time>2021-05-01T13:04:35Z</time>
      </trkpt>
      <trkpt lat="-34.987766" lon="-58.10122">
        <time>2021-05-01T13:04:36Z</time>
      </trkpt>
      <trkpt lat="-34.987812" lon="-58.101265">
        <time>2021-05-01T13:04:37Z</time>
      </trkpt>
      <trkpt lat="-34.987854" lon="-58.10131">
        <time>2021-05-01T13:04:38Z</time>
      </trkpt>
      <trkpt lat="-34.987896" lon="-58.101357">
        <time>2021-05-01T13:04:39Z</time>
      </trkpt>
      <trkpt lat="-34.987938" lon="-58.101406">
        <time>2021-05-01T13:04:40Z</time>
      </trkpt>
      <trkpt lat="-34.98798" lon="-58.101456">
        <time>2021-05-01T13:04:41Z</time>
      </trkpt>
      <trkpt lat="-34.98802" lon="-58.101505">
        <time>2021-05-01T13:04:42Z</time>
      </trkpt>
      <trkpt lat="-34.988064" lon="-58.10155">
        <time>2021-05-01T13:04:43Z</time>
      </trkpt>
      <trkpt lat="-34.98811" lon="-58.101597">
        <time>2021-05-01T13:04:44Z</time>
      </trkpt>
      <trkpt lat="-34.98815" lon="-58.101646">
        <time>2021-05-01T13:04:45Z</time>
      </trkpt>
      <trkpt lat="-34.988194" lon="-58.101696">
        <time>2021-05-01T13:04:46Z</time>
      </trkpt>
      <trkpt lat="-34.98824" lon="-58.10175">
        <time>2021-05-01T13:04:47Z</time>
      </trkpt>
      <trkpt lat="-34.98828" lon="-58.1018">
        <time>2021-05-01T13:04:48Z</time>
      </trkpt>
      <trkpt lat="-34.988323" lon="-58.10185">
        <time>2021-05-01T13:04:49Z</time>
      </trkpt>
      <trkpt lat="-34.988365" lon="-58.101902">
        <time>2021-05-01T13:04:50Z</time>
      </trkpt>
      <trkpt lat="-34.988407" lon="-58.101948">
        <time>2021-05-01T13:04:51Z</time>
      </trkpt>
      <trkpt lat="-34.98845" lon="-58.101997">
        <time>2021-05-01T13:04:52Z</time>
      </trkpt>
      <trkpt lat="-34.98849" lon="-58.102047">
        <time>2021-05-01T13:04:53Z</time>
      </trkpt>
      <trkpt lat="-34.988533" lon="-58.1021">
        <time>2021-05-01T13:04:54Z</time>
      </trkpt>
      <trkpt lat="-34.988575" lon="-58.102146">
        <time>2021-05-01T13:04:55Z</time>
      </trkpt>
      <trkpt lat="-34.988617" lon="-58.102196">
        <time>2021-05-01T13:04:56Z</time>
      </trkpt>
      <trkpt lat="-34.988655" lon="-58.10224">
        <time>2021-05-01T13:04:57Z</time>
      </trkpt>
      <trkpt lat="-34.988697" lon="-58.102287">
        <time>2021-05-01T13:04:58Z</time>
      </trkpt>
      <trkpt lat="-34.98874" lon="-58.102337">
        <time>2021-05-01T13:04:59Z</time>
      </trkpt>
      <trkpt lat="-34.988777" lon="-58.102383">
        <time>2021-05-01T13:05:00Z</time>
      </trkpt>
      <trkpt lat="-34.988815" lon="-58.10243">
        <time>2021-05-01T13:05:01Z</time>
      </trkpt>
      <trkpt lat="-34.988857" lon="-58.102478">
        <time>2021-05-01T13:05:02Z</time>
      </trkpt>
      <trkpt lat="-34.988895" lon="-58.102524">
        <time>2021-05-01T13:05:03Z</time>
      </trkpt>
      <trkpt lat="-34.988937" lon="-58.10257">
        <time>2021-05-01T13:05:04Z</time>
      </trkpt>
      <trkpt lat="-34.98898" lon="-58.10262">
        <time>2021-05-01T13:05:05Z</time>
      </trkpt>
      <trkpt lat="-34.98902" lon="-58.102665">
        <time>2021-05-01T13:05:06Z</time>
      </trkpt>
      <trkpt lat="-34.989063" lon="-58.10271">
        <time>2021-05-01T13:05:07Z</time>
      </trkpt>
      <trkpt lat="-34.989105" lon="-58.102757">
        <time>2021-05-01T13:05:08Z</time>
      </trkpt>
      <trkpt lat="-34.989143" lon="-58.102802">
        <time>2021-05-01T13:05:09Z</time>
      </trkpt>
      <trkpt lat="-34.989223" lon="-58.102898">
        <time>2021-05-01T13:05:10Z</time>
      </trkpt>
      <trkpt lat="-34.989265" lon="-58.102947">
        <time>2021-05-01T13:05:11Z</time>
      </trkpt>
      <trkpt lat="-34.989307" lon="-58.102993">
        <time>2021-05-01T13:05:12Z</time>
      </trkpt>
      <trkpt lat="-34.98935" lon="-58.103043">
        <time>2021-05-01T13:05:13Z</time>
      </trkpt>
      <trkpt lat="-34.989388" lon="-58.10309">
        <time>2021-05-01T13:05:14Z</time>
      </trkpt>
      <trkpt lat="-34.98943" lon="-58.103138">
        <time>2021-05-01T13:05:15Z</time>
      </trkpt>
      <trkpt lat="-34.98947" lon="-58.103184">
        <time>2021-05-01T13:05:16Z</time>
      </trkpt>
      <trkpt lat="-34.989513" lon="-58.103233">
        <time>2021-05-01T13:05:17Z</time>
      </trkpt>
      <trkpt lat="-34.989555" lon="-58.103283">
        <time>2021-05-01T13:05:18Z</time>
      </trkpt>
      <trkpt lat="-34.989597" lon="-58.103333">
        <time>2021-05-01T13:05:19Z</time>
      </trkpt>
      <trkpt lat="-34.98964" lon="-58.10338">
        <time>2021-05-01T13:05:20Z</time>
      </trkpt>
      <trkpt lat="-34.98968" lon="-58.103428">
        <time>2021-05-01T13:05:21Z</time>
      </trkpt>
      <trkpt lat="-34.989723" lon="-58.103477">
        <time>2021-05-01T13:05:22Z</time>
      </trkpt>
      <trkpt lat="-34.98977" lon="-58.103523">
        <time>2021-05-01T13:05:23Z</time>
      </trkpt>
      <trkpt lat="-34.98981" lon="-58.103573">
        <time>2021-05-01T13:05:24Z</time>
      </trkpt>
      <trkpt lat="-34.989853" lon="-58.10362">
        <time>2021-05-01T13:05:25Z</time>
      </trkpt>
      <trkpt lat="-34.9899" lon="-58.10367">
        <time>2021-05-01T13:05:26Z</time>
      </trkpt>
      <trkpt lat="-34.98994" lon="-58.103718">
        <time>2021-05-01T13:05:27Z</time>
      </trkpt>
      <trkpt lat="-34.989983" lon="-58.103767">
        <time>2021-05-01T13:05:28Z</time>
      </trkpt>
      <trkpt lat="-34.99003" lon="-58.103813">
        <time>2021-05-01T13:05:29Z</time>
      </trkpt>
      <trkpt lat="-34.990074" lon="-58.103863">
        <time>2021-05-01T13:05:30Z</time>
      </trkpt>
      <trkpt lat="-34.99012" lon="-58.103912">
        <time>2021-05-01T13:05:31Z</time>
      </trkpt>
      <trkpt lat="-34.99016" lon="-58.103966">
        <time>2021-05-01T13:05:32Z</time>
      </trkpt>
      <trkpt lat="-34.990208" lon="-58.104023">
        <time>2021-05-01T13:05:33Z</time>
      </trkpt>
      <trkpt lat="-34.99025" lon="-58.104076">
        <time>2021-05-01T13:05:34Z</time>
      </trkpt>
      <trkpt lat="-34.990295" lon="-58.10413">
        <time>2021-05-01T13:05:35Z</time>
      </trkpt>
      <trkpt lat="-34.990345" lon="-58.10418">
        <time>2021-05-01T13:05:36Z</time>
      </trkpt>
      <trkpt lat="-34.99039" lon="-58.104233">
        <time>2021-05-01T13:05:37Z</time>
      </trkpt>
      <trkpt lat="-34.990437" lon="-58.104286">
        <time>2021-05-01T13:05:38Z</time>
      </trkpt>
      <trkpt lat="-34.990482" lon="-58.104336">
        <time>2021-05-01T13:05:39Z</time>
      </trkpt>
      <trkpt lat="-34.99053" lon="-58.104393">
        <time>2021-05-01T13:05:40Z</time>
      </trkpt>
      <trkpt lat="-34.990574" lon="-58.104443">
        <time>2021-05-01T13:05:41Z</time>
      </trkpt>
      <trkpt lat="-34.990623" lon="-58.104496">
        <time>2021-05-01T13:05:42Z</time>
      </trkpt>
      <trkpt lat="-34.99067" lon="-58.104546">
        <time>2021-05-01T13:05:43Z</time>
      </trkpt>
      <trkpt lat="-34.990715" lon="-58.1046">
        <time>2021-05-01T13:05:44Z</time>
      </trkpt>
      <trkpt lat="-34.99076" lon="-58.104652">
        <time>2021-05-01T13:05:45Z</time>
      </trkpt>
      <trkpt lat="-34.990807" lon="-58.104706">
        <time>2021-05-01T13:05:46Z</time>
      </trkpt>
      <trkpt lat="-34.990852" lon="-58.104755">
        <time>2021-05-01T13:05:47Z</time>
      </trkpt>
      <trkpt lat="-34.9909" lon="-58.10481">
        <time>2021-05-01T13:05:48Z</time>
      </trkpt>
      <trkpt lat="-34.990944" lon="-58.104862">
        <time>2021-05-01T13:05:49Z</time>
      </trkpt>
      <trkpt lat="-34.99099" lon="-58.104916">
        <time>2021-05-01T13:05:50Z</time>
      </trkpt>
      <trkpt lat="-34.99103" lon="-58.10497">
        <time>2021-05-01T13:05:51Z</time>
      </trkpt>
      <trkpt lat="-34.991077" lon="-58.105022">
        <time>2021-05-01T13:05:52Z</time>
      </trkpt>
      <trkpt lat="-34.991123" lon="-58.105072">
        <time>2021-05-01T13:05:53Z</time>
      </trkpt>
      <trkpt lat="-34.99117" lon="-58.10512">
        <time>2021-05-01T13:05:54Z</time>
      </trkpt>
      <trkpt lat="-34.991215" lon="-58.10517">
        <time>2021-05-01T13:05:55Z</time>
      </trkpt>
      <trkpt lat="-34.99126" lon="-58.105225">
        <time>2021-05-01T13:05:56Z</time>
      </trkpt>
      <trkpt lat="-34.9913" lon="-58.10528">
        <time>2021-05-01T13:05:57Z</time>
      </trkpt>
      <trkpt lat="-34.99134" lon="-58.105343">
        <time>2021-05-01T13:05:58Z</time>
      </trkpt>
      <trkpt lat="-34.991383" lon="-58.105404">
        <time>2021-05-01T13:05:59Z</time>
      </trkpt>
      <trkpt lat="-34.991432" lon="-58.105453">
        <time>2021-05-01T13:06:00Z</time>
      </trkpt>
      <trkpt lat="-34.99148" lon="-58.105503">
        <time>2021-05-01T13:06:01Z</time>
      </trkpt>
      <trkpt lat="-34.99153" lon="-58.105553">
        <time>2021-05-01T13:06:02Z</time>
      </trkpt>
      <trkpt lat="-34.991577" lon="-58.105606">
        <time>2021-05-01T13:06:03Z</time>
      </trkpt>
      <trkpt lat="-34.991623" lon="-58.10566">
        <time>2021-05-01T13:06:04Z</time>
      </trkpt>
      <trkpt lat="-34.99167" lon="-58.105713">
        <time>2021-05-01T13:06:05Z</time>
      </trkpt>
      <trkpt lat="-34.991714" lon="-58.105762">
        <time>2021-05-01T13:06:06Z</time>
      </trkpt>
      <trkpt lat="-34.99176" lon="-58.105816">
        <time>2021-05-01T13:06:07Z</time>
      </trkpt>
      <trkpt lat="-34.991806" lon="-58.105865">
        <time>2021-05-01T13:06:08Z</time>
      </trkpt>
      <trkpt lat="-34.99185" lon="-58.10592">
        <time>2021-05-01T13:06:09Z</time>
      </trkpt>
      <trkpt lat="-34.991898" lon="-58.10597">
        <time>2021-05-01T13:06:10Z</time>
      </trkpt>
      <trkpt lat="-34.991943" lon="-58.10602">
        <time>2021-05-01T13:06:11Z</time>
      </trkpt>
      <trkpt lat="-34.99199" lon="-58.106075">
        <time>2021-05-01T13:06:12Z</time>
      </trkpt>
      <trkpt lat="-34.992035" lon="-58.106125">
        <time>2021-05-01T13:06:13Z</time>
      </trkpt>
      <trkpt lat="-34.99208" lon="-58.106174">
        <time>2021-05-01T13:06:14Z</time>
      </trkpt>
      <trkpt lat="-34.992126" lon="-58.10623">
        <time>2021-05-01T13:06:15Z</time>
      </trkpt>
      <trkpt lat="-34.99217" lon="-58.106285">
        <time>2021-05-01T13:06:16Z</time>
      </trkpt>
      <trkpt lat="-34.992214" lon="-58.106335">
        <time>2021-05-01T13:06:17Z</time>
      </trkpt>
      <trkpt lat="-34.992256" lon="-58.106388">
        <time>2021-05-01T13:06:18Z</time>
      </trkpt>
      <trkpt lat="-34.992302" lon="-58.106438">
        <time>2021-05-01T13:06:19Z</time>
      </trkpt>
      <trkpt lat="-34.992348" lon="-58.106487">
        <time>2021-05-01T13:06:20Z</time>
      </trkpt>
      <trkpt lat="-34.992393" lon="-58.10654">
        <time>2021-05-01T13:06:21Z</time>
      </trkpt>
      <trkpt lat="-34.992435" lon="-58.10659">
        <time>2021-05-01T13:06:22Z</time>
      </trkpt>
      <trkpt lat="-34.992474" lon="-58.106636">
        <time>2021-05-01T13:06:23Z</time>
      </trkpt>
      <trkpt lat="-34.992516" lon="-58.106686">
        <time>2021-05-01T13:06:24Z</time>
      </trkpt>
      <trkpt lat="-34.99255" lon="-58.10673">
        <time>2021-05-01T13:06:25Z</time>
      </trkpt>
      <trkpt lat="-34.992588" lon="-58.10678">
        <time>2021-05-01T13:06:26Z</time>
      </trkpt>
      <trkpt lat="-34.99262" lon="-58.10683">
        <time>2021-05-01T13:06:27Z</time>
      </trkpt>
      <trkpt lat="-34.992653" lon="-58.10688">
        <time>2021-05-01T13:06:28Z</time>
      </trkpt>
      <trkpt lat="-34.992695" lon="-58.10693">
        <time>2021-05-01T13:06:29Z</time>
      </trkpt>
      <trkpt lat="-34.992737" lon="-58.106968">
        <time>2021-05-01T13:06:30Z</time>
      </trkpt>
      <trkpt lat="-34.99278" lon="-58.107002">
        <time>2021-05-01T13:06:31Z</time>
      </trkpt>
      <trkpt lat="-34.992825" lon="-58.107056">
        <time>2021-05-01T13:06:32Z</time>
      </trkpt>
      <trkpt lat="-34.992863" lon="-58.107105">
        <time>2021-05-01T13:06:33Z</time>
      </trkpt>
      <trkpt lat="-34.9929" lon="-58.107143">
        <time>2021-05-01T13:06:34Z</time>
      </trkpt>
      <trkpt lat="-34.99297" lon="-58.107224">
        <time>2021-05-01T13:06:36Z</time>
      </trkpt>
      <trkpt lat="-34.993008" lon="-58.107265">
        <time>2021-05-01T13:06:37Z</time>
      </trkpt>
      <trkpt lat="-34.993042" lon="-58.107307">
        <time>2021-05-01T13:06:38Z</time>
      </trkpt>
      <trkpt lat="-34.99308" lon="-58.10735">
        <time>2021-05-01T13:06:39Z</time>
      </trkpt>
      <trkpt lat="-34.99312" lon="-58.107395">
        <time>2021-05-01T13:06:40Z</time>
      </trkpt>
      <trkpt lat="-34.99316" lon="-58.107437">
        <time>2021-05-01T13:06:41Z</time>
      </trkpt>
      <trkpt lat="-34.993195" lon="-58.10748">
        <time>2021-05-01T13:06:42Z</time>
      </trkpt>
      <trkpt lat="-34.993225" lon="-58.10752">
        <time>2021-05-01T13:06:43Z</time>
      </trkpt>
      <trkpt lat="-34.993263" lon="-58.107563">
        <time>2021-05-01T13:06:44Z</time>
      </trkpt>
      <trkpt lat="-34.993298" lon="-58.10761">
        <time>2021-05-01T13:06:45Z</time>
      </trkpt>
      <trkpt lat="-34.993336" lon="-58.107655">
        <time>2021-05-01T13:06:46Z</time>
      </trkpt>
      <trkpt lat="-34.993378" lon="-58.1077">
        <time>2021-05-01T13:06:47Z</time>
      </trkpt>
      <trkpt lat="-34.993416" lon="-58.107746">
        <time>2021-05-01T13:06:48Z</time>
      </trkpt>
      <trkpt lat="-34.993458" lon="-58.107796">
        <time>2021-05-01T13:06:49Z</time>
      </trkpt>
      <trkpt lat="-34.993496" lon="-58.10784">
        <time>2021-05-01T13:06:50Z</time>
      </trkpt>
      <trkpt lat="-34.993538" lon="-58.10789">
        <time>2021-05-01T13:06:51Z</time>
      </trkpt>
      <trkpt lat="-34.99358" lon="-58.107937">
        <time>2021-05-01T13:06:52Z</time>
      </trkpt>
      <trkpt lat="-34.99362" lon="-58.107983">
        <time>2021-05-01T13:06:53Z</time>
      </trkpt>
      <trkpt lat="-34.993664" lon="-58.10803">
        <time>2021-05-01T13:06:54Z</time>
      </trkpt>
      <trkpt lat="-34.993706" lon="-58.108078">
        <time>2021-05-01T13:06:55Z</time>
      </trkpt>
      <trkpt lat="-34.993748" lon="-58.108128">
        <time>2021-05-01T13:06:56Z</time>
      </trkpt>
      <trkpt lat="-34.993793" lon="-58.108173">
        <time>2021-05-01T13:06:57Z</time>
      </trkpt>
      <trkpt lat="-34.993835" lon="-58.108223">
        <time>2021-05-01T13:06:58Z</time>
      </trkpt>
      <trkpt lat="-34.993877" lon="-58.108273">
        <time>2021-05-01T13:06:59Z</time>
      </trkpt>
      <trkpt lat="-34.99392" lon="-58.108322">
        <time>2021-05-01T13:07:00Z</time>
      </trkpt>
      <trkpt lat="-34.99396" lon="-58.10837">
        <time>2021-05-01T13:07:01Z</time>
      </trkpt>
      <trkpt lat="-34.994003" lon="-58.10842">
        <time>2021-05-01T13:07:02Z</time>
      </trkpt>
      <trkpt lat="-34.994045" lon="-58.10847">
        <time>2021-05-01T13:07:03Z</time>
      </trkpt>
      <trkpt lat="-34.994087" lon="-58.10852">
        <time>2021-05-01T13:07:04Z</time>
      </trkpt>
      <trkpt lat="-34.99413" lon="-58.10857">
        <time>2021-05-01T13:07:05Z</time>
      </trkpt>
      <trkpt lat="-34.99417" lon="-58.10862">
        <time>2021-05-01T13:07:06Z</time>
      </trkpt>
      <trkpt lat="-34.994213" lon="-58.10867">
        <time>2021-05-01T13:07:07Z</time>
      </trkpt>
      <trkpt lat="-34.99426" lon="-58.10872">
        <time>2021-05-01T13:07:08Z</time>
      </trkpt>
      <trkpt lat="-34.9943" lon="-58.10877">
        <time>2021-05-01T13:07:09Z</time>
      </trkpt>
      <trkpt lat="-34.994343" lon="-58.108818">
        <time>2021-05-01T13:07:10Z</time>
      </trkpt>
      <trkpt lat="-34.994385" lon="-58.108868">
        <time>2021-05-01T13:07:11Z</time>
      </trkpt>
      <trkpt lat="-34.994427" lon="-58.108917">
        <time>2021-05-01T13:07:12Z</time>
      </trkpt>
      <trkpt lat="-34.994473" lon="-58.108967">
        <time>2021-05-01T13:07:13Z</time>
      </trkpt>
      <trkpt lat="-34.994514" lon="-58.109013">
        <time>2021-05-01T13:07:14Z</time>
      </trkpt>
      <trkpt lat="-34.994556" lon="-58.109062">
        <time>2021-05-01T13:07:15Z</time>
      </trkpt>
      <trkpt lat="-34.9946" lon="-58.10911">
        <time>2021-05-01T13:07:16Z</time>
      </trkpt>
      <trkpt lat="-34.99464" lon="-58.10916">
        <time>2021-05-01T13:07:17Z</time>
      </trkpt>
      <trkpt lat="-34.994682" lon="-58.10921">
        <time>2021-05-01T13:07:18Z</time>
      </trkpt>
      <trkpt lat="-34.994724" lon="-58.10926">
        <time>2021-05-01T13:07:19Z</time>
      </trkpt>
      <trkpt lat="-34.994766" lon="-58.10931">
        <time>2021-05-01T13:07:20Z</time>
      </trkpt>
      <trkpt lat="-34.994812" lon="-58.10936">
        <time>2021-05-01T13:07:21Z</time>
      </trkpt>
      <trkpt lat="-34.994854" lon="-58.109413">
        <time>2021-05-01T13:07:22Z</time>
      </trkpt>
      <trkpt lat="-34.994896" lon="-58.109463">
        <time>2021-05-01T13:07:23Z</time>
      </trkpt>
      <trkpt lat="-34.994938" lon="-58.109512">
        <time>2021-05-01T13:07:24Z</time>
      </trkpt>
      <trkpt lat="-34.99498" lon="-58.109562">
        <time>2021-05-01T13:07:25Z</time>
      </trkpt>
      <trkpt lat="-34.995026" lon="-58.109608">
        <time>2021-05-01T13:07:26Z</time>
      </trkpt>
      <trkpt lat="-34.995068" lon="-58.109657">
        <time>2021-05-01T13:07:27Z</time>
      </trkpt>
      <trkpt lat="-34.99511" lon="-58.109707">
        <time>2021-05-01T13:07:28Z</time>
      </trkpt>
      <trkpt lat="-34.99515" lon="-58.109756">
        <time>2021-05-01T13:07:29Z</time>
      </trkpt>
      <trkpt lat="-34.995197" lon="-58.109806">
        <time>2021-05-01T13:07:30Z</time>
      </trkpt>
      <trkpt lat="-34.99524" lon="-58.10986">
        <time>2021-05-01T13:07:31Z</time>
      </trkpt>
      <trkpt lat="-34.99528" lon="-58.10991">
        <time>2021-05-01T13:07:32Z</time>
      </trkpt>
      <trkpt lat="-34.995323" lon="-58.10996">
        <time>2021-05-01T13:07:33Z</time>
      </trkpt>
      <trkpt lat="-34.99537" lon="-58.11001">
        <time>2021-05-01T13:07:34Z</time>
      </trkpt>
      <trkpt lat="-34.995415" lon="-58.110058">
        <time>2021-05-01T13:07:35Z</time>
      </trkpt>
      <trkpt lat="-34.995457" lon="-58.11011">
        <time>2021-05-01T13:07:36Z</time>
      </trkpt>
      <trkpt lat="-34.9955" lon="-58.11016">
        <time>2021-05-01T13:07:37Z</time>
      </trkpt>
      <trkpt lat="-34.995544" lon="-58.11021">
        <time>2021-05-01T13:07:38Z</time>
      </trkpt>
      <trkpt lat="-34.99559" lon="-58.110264">
        <time>2021-05-01T13:07:39Z</time>
      </trkpt>
      <trkpt lat="-34.995632" lon="-58.110313">
        <time>2021-05-01T13:07:40Z</time>
      </trkpt>
      <trkpt lat="-34.995678" lon="-58.110367">
        <time>2021-05-01T13:07:41Z</time>
      </trkpt>
      <trkpt lat="-34.995724" lon="-58.110416">
        <time>2021-05-01T13:07:42Z</time>
      </trkpt>
      <trkpt lat="-34.995766" lon="-58.11047">
        <time>2021-05-01T13:07:43Z</time>
      </trkpt>
      <trkpt lat="-34.99581" lon="-58.110523">
        <time>2021-05-01T13:07:44Z</time>
      </trkpt>
      <trkpt lat="-34.995857" lon="-58.110577">
        <time>2021-05-01T13:07:45Z</time>
      </trkpt>
      <trkpt lat="-34.995903" lon="-58.110626">
        <time>2021-05-01T13:07:46Z</time>
      </trkpt>
      <trkpt lat="-34.995945" lon="-58.11068">
        <time>2021-05-01T13:07:47Z</time>
      </trkpt>
      <trkpt lat="-34.99599" lon="-58.110733">
        <time>2021-05-01T13:07:48Z</time>
      </trkpt>
      <trkpt lat="-34.996037" lon="-58.110786">
        <time>2021-05-01T13:07:49Z</time>
      </trkpt>
      <trkpt lat="-34.996082" lon="-58.11084">
        <time>2021-05-01T13:07:50Z</time>
      </trkpt>
      <trkpt lat="-34.996128" lon="-58.11089">
        <time>2021-05-01T13:07:51Z</time>
      </trkpt>
      <trkpt lat="-34.996174" lon="-58.110943">
        <time>2021-05-01T13:07:52Z</time>
      </trkpt>
      <trkpt lat="-34.996216" lon="-58.110996">
        <time>2021-05-01T13:07:53Z</time>
      </trkpt>
      <trkpt lat="-34.99626" lon="-58.111046">
        <time>2021-05-01T13:07:54Z</time>
      </trkpt>
      <trkpt lat="-34.996304" lon="-58.1111">
        <time>2021-05-01T13:07:55Z</time>
      </trkpt>
      <trkpt lat="-34.99635" lon="-58.111153">
        <time>2021-05-01T13:07:56Z</time>
      </trkpt>
      <trkpt lat="-34.99639" lon="-58.111206">
        <time>2021-05-01T13:07:57Z</time>
      </trkpt>
      <trkpt lat="-34.996437" lon="-58.11125">
        <time>2021-05-01T13:07:58Z</time>
      </trkpt>
      <trkpt lat="-34.996483" lon="-58.1113">
        <time>2021-05-01T13:07:59Z</time>
      </trkpt>
      <trkpt lat="-34.996525" lon="-58.111355">
        <time>2021-05-01T13:08:00Z</time>
      </trkpt>
      <trkpt lat="-34.996567" lon="-58.11141">
        <time>2021-05-01T13:08:01Z</time>
      </trkpt>
      <trkpt lat="-34.996613" lon="-58.11146">
        <time>2021-05-01T13:08:02Z</time>
      </trkpt>
      <trkpt lat="-34.99666" lon="-58.11151">
        <time>2021-05-01T13:08:03Z</time>
      </trkpt>
      <trkpt lat="-34.9967" lon="-58.111565">
        <time>2021-05-01T13:08:04Z</time>
      </trkpt>
      <trkpt lat="-34.996746" lon="-58.111614">
        <time>2021-05-01T13:08:05Z</time>
      </trkpt>
      <trkpt lat="-34.99679" lon="-58.111668">
        <time>2021-05-01T13:08:06Z</time>
      </trkpt>
      <trkpt lat="-34.996838" lon="-58.111717">
        <time>2021-05-01T13:08:07Z</time>
      </trkpt>
      <trkpt lat="-34.996883" lon="-58.111767">
        <time>2021-05-01T13:08:08Z</time>
      </trkpt>
      <trkpt lat="-34.99693" lon="-58.111816">
        <time>2021-05-01T13:08:09Z</time>
      </trkpt>
      <trkpt lat="-34.996975" lon="-58.111866">
        <time>2021-05-01T13:08:10Z</time>
      </trkpt>
      <trkpt lat="-34.997025" lon="-58.111916">
        <time>2021-05-01T13:08:11Z</time>
      </trkpt>
      <trkpt lat="-34.997063" lon="-58.111973">
        <time>2021-05-01T13:08:12Z</time>
      </trkpt>
      <trkpt lat="-34.997105" lon="-58.11203">
        <time>2021-05-01T13:08:13Z</time>
      </trkpt>
      <trkpt lat="-34.99715" lon="-58.112083">
        <time>2021-05-01T13:08:14Z</time>
      </trkpt>
      <trkpt lat="-34.997196" lon="-58.112133">
        <time>2021-05-01T13:08:15Z</time>
      </trkpt>
      <trkpt lat="-34.997242" lon="-58.112186">
        <time>2021-05-01T13:08:16Z</time>
      </trkpt>
      <trkpt lat="-34.997284" lon="-58.11224">
        <time>2021-05-01T13:08:17Z</time>
      </trkpt>
      <trkpt lat="-34.99733" lon="-58.11229">
        <time>2021-05-01T13:08:18Z</time>
      </trkpt>
      <trkpt lat="-34.997375" lon="-58.112343">
        <time>2021-05-01T13:08:19Z</time>
      </trkpt>
      <trkpt lat="-34.99742" lon="-58.112396">
        <time>2021-05-01T13:08:20Z</time>
      </trkpt>
      <trkpt lat="-34.997467" lon="-58.112446">
        <time>2021-05-01T13:08:21Z</time>
      </trkpt>
      <trkpt lat="-34.997513" lon="-58.1125">
        <time>2021-05-01T13:08:22Z</time>
      </trkpt>
      <trkpt lat="-34.99756" lon="-58.112553">
        <time>2021-05-01T13:08:23Z</time>
      </trkpt>
      <trkpt lat="-34.997604" lon="-58.112602">
        <time>2021-05-01T13:08:24Z</time>
      </trkpt>
      <trkpt lat="-34.99765" lon="-58.112656">
        <time>2021-05-01T13:08:25Z</time>
      </trkpt>
      <trkpt lat="-34.997696" lon="-58.11271">
        <time>2021-05-01T13:08:26Z</time>
      </trkpt>
      <trkpt lat="-34.99774" lon="-58.112766">
        <time>2021-05-01T13:08:27Z</time>
      </trkpt>
      <trkpt lat="-34.997787" lon="-58.112823">
        <time>2021-05-01T13:08:28Z</time>
      </trkpt>
      <trkpt lat="-34.997837" lon="-58.112877">
        <time>2021-05-01T13:08:29Z</time>
      </trkpt>
      <trkpt lat="-34.997883" lon="-58.11293">
        <time>2021-05-01T13:08:30Z</time>
      </trkpt>
      <trkpt lat="-34.997932" lon="-58.112984">
        <time>2021-05-01T13:08:31Z</time>
      </trkpt>
      <trkpt lat="-34.997982" lon="-58.113033">
        <time>2021-05-01T13:08:32Z</time>
      </trkpt>
      <trkpt lat="-34.99803" lon="-58.113083">
        <time>2021-05-01T13:08:33Z</time>
      </trkpt>
      <trkpt lat="-34.998077" lon="-58.113136">
        <time>2021-05-01T13:08:34Z</time>
      </trkpt>
      <trkpt lat="-34.998123" lon="-58.11319">
        <time>2021-05-01T13:08:35Z</time>
      </trkpt>
      <trkpt lat="-34.99817" lon="-58.113247">
        <time>2021-05-01T13:08:36Z</time>
      </trkpt>
      <trkpt lat="-34.998215" lon="-58.1133">
        <time>2021-05-01T13:08:37Z</time>
      </trkpt>
      <trkpt lat="-34.99826" lon="-58.113354">
        <time>2021-05-01T13:08:38Z</time>
      </trkpt>
      <trkpt lat="-34.998306" lon="-58.113407">
        <time>2021-05-01T13:08:39Z</time>
      </trkpt>
      <trkpt lat="-34.998352" lon="-58.11346">
        <time>2021-05-01T13:08:40Z</time>
      </trkpt>
      <trkpt lat="-34.998398" lon="-58.113518">
        <time>2021-05-01T13:08:41Z</time>
      </trkpt>
      <trkpt lat="-34.998444" lon="-58.113575">
        <time>2021-05-01T13:08:42Z</time>
      </trkpt>
      <trkpt lat="-34.99849" lon="-58.113636">
        <time>2021-05-01T13:08:43Z</time>
      </trkpt>
      <trkpt lat="-34.99854" lon="-58.113693">
        <time>2021-05-01T13:08:44Z</time>
      </trkpt>
      <trkpt lat="-34.998585" lon="-58.113747">
        <time>2021-05-01T13:08:45Z</time>
      </trkpt>
      <trkpt lat="-34.99863" lon="-58.1138">
        <time>2021-05-01T13:08:46Z</time>
      </trkpt>
      <trkpt lat="-34.998676" lon="-58.113853">
        <time>2021-05-01T13:08:47Z</time>
      </trkpt>
      <trkpt lat="-34.998722" lon="-58.113903">
        <time>2021-05-01T13:08:48Z</time>
      </trkpt>
      <trkpt lat="-34.998768" lon="-58.113956">
        <time>2021-05-01T13:08:49Z</time>
      </trkpt>
      <trkpt lat="-34.99881" lon="-58.114014">
        <time>2021-05-01T13:08:50Z</time>
      </trkpt>
      <trkpt lat="-34.998856" lon="-58.11407">
        <time>2021-05-01T13:08:51Z</time>
      </trkpt>
      <trkpt lat="-34.998898" lon="-58.114124">
        <time>2021-05-01T13:08:52Z</time>
      </trkpt>
      <trkpt lat="-34.998943" lon="-58.114178">
        <time>2021-05-01T13:08:53Z</time>
      </trkpt>
      <trkpt lat="-34.99899" lon="-58.114227">
        <time>2021-05-01T13:08:54Z</time>
      </trkpt>
      <trkpt lat="-34.99904" lon="-58.11428">
        <time>2021-05-01T13:08:55Z</time>
      </trkpt>
      <trkpt lat="-34.999084" lon="-58.11433">
        <time>2021-05-01T13:08:56Z</time>
      </trkpt>
      <trkpt lat="-34.999134" lon="-58.11438">
        <time>2021-05-01T13:08:57Z</time>
      </trkpt>
      <trkpt lat="-34.99918" lon="-58.114433">
        <time>2021-05-01T13:08:58Z</time>
      </trkpt>
      <trkpt lat="-34.99923" lon="-58.11449">
        <time>2021-05-01T13:08:59Z</time>
      </trkpt>
      <trkpt lat="-34.999275" lon="-58.114544">
        <time>2021-05-01T13:09:00Z</time>
      </trkpt>
      <trkpt lat="-34.999317" lon="-58.1146">
        <time>2021-05-01T13:09:01Z</time>
      </trkpt>
      <trkpt lat="-34.99936" lon="-58.11466">
        <time>2021-05-01T13:09:02Z</time>
      </trkpt>
      <trkpt lat="-34.999405" lon="-58.114716">
        <time>2021-05-01T13:09:03Z</time>
      </trkpt>
      <trkpt lat="-34.99945" lon="-58.11477">
        <time>2021-05-01T13:09:04Z</time>
      </trkpt>
      <trkpt lat="-34.9995" lon="-58.114822">
        <time>2021-05-01T13:09:05Z</time>
      </trkpt>
      <trkpt lat="-34.99955" lon="-58.11488">
        <time>2021-05-01T13:09:06Z</time>
      </trkpt>
      <trkpt lat="-34.999596" lon="-58.11493">
        <time>2021-05-01T13:09:07Z</time>
      </trkpt>
      <trkpt lat="-34.999645" lon="-58.11498">
        <time>2021-05-01T13:09:08Z</time>
      </trkpt>
      <trkpt lat="-34.99969" lon="-58.115036">
        <time>2021-05-01T13:09:09Z</time>
      </trkpt>
      <trkpt lat="-34.99974" lon="-58.115093">
        <time>2021-05-01T13:09:10Z</time>
      </trkpt>
      <trkpt lat="-34.99979" lon="-58.11515">
        <time>2021-05-01T13:09:11Z</time>
      </trkpt>
      <trkpt lat="-34.99984" lon="-58.115208">
        <time>2021-05-01T13:09:12Z</time>
      </trkpt>
      <trkpt lat="-34.99988" lon="-58.11527">
        <time>2021-05-01T13:09:13Z</time>
      </trkpt>
      <trkpt lat="-34.999924" lon="-58.115326">
        <time>2021-05-01T13:09:14Z</time>
      </trkpt>
      <trkpt lat="-34.999973" lon="-58.115383">
        <time>2021-05-01T13:09:15Z</time>
      </trkpt>
      <trkpt lat="-35.000027" lon="-58.115437">
        <time>2021-05-01T13:09:16Z</time>
      </trkpt>
      <trkpt lat="-35.00008" lon="-58.115494">
        <time>2021-05-01T13:09:17Z</time>
      </trkpt>
      <trkpt lat="-35.00013" lon="-58.115547">
        <time>2021-05-01T13:09:18Z</time>
      </trkpt>
      <trkpt lat="-35.00018" lon="-58.11561">
        <time>2021-05-01T13:09:19Z</time>
      </trkpt>
      <trkpt lat="-35.00023" lon="-58.11566">
        <time>2021-05-01T13:09:20Z</time>
      </trkpt>
      <trkpt lat="-35.000275" lon="-58.115715">
        <time>2021-05-01T13:09:21Z</time>
      </trkpt>
      <trkpt lat="-35.000317" lon="-58.115772">
        <time>2021-05-01T13:09:22Z</time>
      </trkpt>
      <trkpt lat="-35.000362" lon="-58.115826">
        <time>2021-05-01T13:09:23Z</time>
      </trkpt>
      <trkpt lat="-35.00041" lon="-58.11588">
        <time>2021-05-01T13:09:24Z</time>
      </trkpt>
      <trkpt lat="-35.00045" lon="-58.115936">
        <time>2021-05-01T13:09:25Z</time>
      </trkpt>
      <trkpt lat="-35.000492" lon="-58.115993">
        <time>2021-05-01T13:09:26Z</time>
      </trkpt>
      <trkpt lat="-35.000538" lon="-58.116043">
        <time>2021-05-01T13:09:27Z</time>
      </trkpt>
      <trkpt lat="-35.000587" lon="-58.116085">
        <time>2021-05-01T13:09:28Z</time>
      </trkpt>
      <trkpt lat="-35.000633" lon="-58.11613">
        <time>2021-05-01T13:09:29Z</time>
      </trkpt>
      <trkpt lat="-35.000683" lon="-58.116177">
        <time>2021-05-01T13:09:30Z</time>
      </trkpt>
      <trkpt lat="-35.00073" lon="-58.116226">
        <time>2021-05-01T13:09:31Z</time>
      </trkpt>
      <trkpt lat="-35.00078" lon="-58.11628">
        <time>2021-05-01T13:09:32Z</time>
      </trkpt>
      <trkpt lat="-35.00082" lon="-58.116333">
        <time>2021-05-01T13:09:33Z</time>
      </trkpt>
      <trkpt lat="-35.000866" lon="-58.116386">
        <time>2021-05-01T13:09:34Z</time>
      </trkpt>
      <trkpt lat="-35.00091" lon="-58.11644">
        <time>2021-05-01T13:09:35Z</time>
      </trkpt>
      <trkpt lat="-35.00096" lon="-58.116493">
        <time>2021-05-01T13:09:36Z</time>
      </trkpt>
      <trkpt lat="-35.001007" lon="-58.116543">
        <time>2021-05-01T13:09:37Z</time>
      </trkpt>
      <trkpt lat="-35.001057" lon="-58.116592">
        <time>2021-05-01T13:09:38Z</time>
      </trkpt>
      <trkpt lat="-35.001106" lon="-58.116642">
        <time>2021-05-01T13:09:39Z</time>
      </trkpt>
      <trkpt lat="-35.001152" lon="-58.116695">
        <time>2021-05-01T13:09:40Z</time>
      </trkpt>
      <trkpt lat="-35.00119" lon="-58.116753">
        <time>2021-05-01T13:09:41Z</time>
      </trkpt>
      <trkpt lat="-35.00123" lon="-58.11681">
        <time>2021-05-01T13:09:42Z</time>
      </trkpt>
      <trkpt lat="-35.001266" lon="-58.116867">
        <time>2021-05-01T13:09:43Z</time>
      </trkpt>
      <trkpt lat="-35.001305" lon="-58.116924">
        <time>2021-05-01T13:09:44Z</time>
      </trkpt>
      <trkpt lat="-35.00135" lon="-58.116978">
        <time>2021-05-01T13:09:45Z</time>
      </trkpt>
      <trkpt lat="-35.001396" lon="-58.11703">
        <time>2021-05-01T13:09:46Z</time>
      </trkpt>
      <trkpt lat="-35.001442" lon="-58.117085">
        <time>2021-05-01T13:09:47Z</time>
      </trkpt>
      <trkpt lat="-35.00149" lon="-58.117134">
        <time>2021-05-01T13:09:48Z</time>
      </trkpt>
      <trkpt lat="-35.001537" lon="-58.117184">
        <time>2021-05-01T13:09:49Z</time>
      </trkpt>
      <trkpt lat="-35.001583" lon="-58.117237">
        <time>2021-05-01T13:09:50Z</time>
      </trkpt>
      <trkpt lat="-35.001625" lon="-58.11729">
        <time>2021-05-01T13:09:51Z</time>
      </trkpt>
      <trkpt lat="-35.001667" lon="-58.11734">
        <time>2021-05-01T13:09:52Z</time>
      </trkpt>
      <trkpt lat="-35.001713" lon="-58.11739">
        <time>2021-05-01T13:09:53Z</time>
      </trkpt>
      <trkpt lat="-35.001755" lon="-58.11744">
        <time>2021-05-01T13:09:54Z</time>
      </trkpt>
      <trkpt lat="-35.001797" lon="-58.11749">
        <time>2021-05-01T13:09:55Z</time>
      </trkpt>
      <trkpt lat="-35.001842" lon="-58.11754">
        <time>2021-05-01T13:09:56Z</time>
      </trkpt>
      <trkpt lat="-35.001892" lon="-58.11758">
        <time>2021-05-01T13:09:57Z</time>
      </trkpt>
      <trkpt lat="-35.001934" lon="-58.117634">
        <time>2021-05-01T13:09:58Z</time>
      </trkpt>
      <trkpt lat="-35.001965" lon="-58.117695">
        <time>2021-05-01T13:09:59Z</time>
      </trkpt>
      <trkpt lat="-35.002003" lon="-58.11774">
        <time>2021-05-01T13:10:00Z</time>
      </trkpt>
      <trkpt lat="-35.00205" lon="-58.117775">
        <time>2021-05-01T13:10:01Z</time>
      </trkpt>
      <trkpt lat="-35.002087" lon="-58.11782">
        <time>2021-05-01T13:10:02Z</time>
      </trkpt>
      <trkpt lat="-35.002125" lon="-58.11787">
        <time>2021-05-01T13:10:03Z</time>
      </trkpt>
      <trkpt lat="-35.002167" lon="-58.11792">
        <time>2021-05-01T13:10:04Z</time>
      </trkpt>
      <trkpt lat="-35.00221" lon="-58.11797">
        <time>2021-05-01T13:10:05Z</time>
      </trkpt>
      <trkpt lat="-35.00225" lon="-58.11802">
        <time>2021-05-01T13:10:06Z</time>
      </trkpt>
      <trkpt lat="-35.002296" lon="-58.11807">
        <time>2021-05-01T13:10:07Z</time>
      </trkpt>
      <trkpt lat="-35.00234" lon="-58.11812">
        <time>2021-05-01T13:10:08Z</time>
      </trkpt>
      <trkpt lat="-35.00238" lon="-58.118164">
        <time>2021-05-01T13:10:09Z</time>
      </trkpt>
      <trkpt lat="-35.002422" lon="-58.118214">
        <time>2021-05-01T13:10:10Z</time>
      </trkpt>
      <trkpt lat="-35.002464" lon="-58.118267">
        <time>2021-05-01T13:10:11Z</time>
      </trkpt>
      <trkpt lat="-35.00251" lon="-58.118317">
        <time>2021-05-01T13:10:12Z</time>
      </trkpt>
      <trkpt lat="-35.002552" lon="-58.118366">
        <time>2021-05-01T13:10:13Z</time>
      </trkpt>
      <trkpt lat="-35.00259" lon="-58.118416">
        <time>2021-05-01T13:10:14Z</time>
      </trkpt>
      <trkpt lat="-35.002636" lon="-58.11846">
        <time>2021-05-01T13:10:15Z</time>
      </trkpt>
      <trkpt lat="-35.00268" lon="-58.118504">
        <time>2021-05-01T13:10:16Z</time>
      </trkpt>
      <trkpt lat="-35.002724" lon="-58.11855">
        <time>2021-05-01T13:10:17Z</time>
      </trkpt>
      <trkpt lat="-35.002766" lon="-58.118595">
        <time>2021-05-01T13:10:18Z</time>
      </trkpt>
      <trkpt lat="-35.002804" lon="-58.118645">
        <time>2021-05-01T13:10:19Z</time>
      </trkpt>
      <trkpt lat="-35.002846" lon="-58.118694">
        <time>2021-05-01T13:10:20Z</time>
      </trkpt>
      <trkpt lat="-35.002888" lon="-58.118744">
        <time>2021-05-01T13:10:21Z</time>
      </trkpt>
      <trkpt lat="-35.00293" lon="-58.118793">
        <time>2021-05-01T13:10:22Z</time>
      </trkpt>
      <trkpt lat="-35.00297" lon="-58.118843">
        <time>2021-05-01T13:10:23Z</time>
      </trkpt>
      <trkpt lat="-35.003014" lon="-58.118893">
        <time>2021-05-01T13:10:24Z</time>
      </trkpt>
      <trkpt lat="-35.003056" lon="-58.118942">
        <time>2021-05-01T13:10:25Z</time>
      </trkpt>
      <trkpt lat="-35.003098" lon="-58.11899">
        <time>2021-05-01T13:10:26Z</time>
      </trkpt>
      <trkpt lat="-35.00314" lon="-58.11904">
        <time>2021-05-01T13:10:27Z</time>
      </trkpt>
      <trkpt lat="-35.00318" lon="-58.11909">
        <time>2021-05-01T13:10:28Z</time>
      </trkpt>
      <trkpt lat="-35.003223" lon="-58.11914">
        <time>2021-05-01T13:10:29Z</time>
      </trkpt>
      <trkpt lat="-35.003265" lon="-58.11919">
        <time>2021-05-01T13:10:30Z</time>
      </trkpt>
      <trkpt lat="-35.003307" lon="-58.11924">
        <time>2021-05-01T13:10:31Z</time>
      </trkpt>
      <trkpt lat="-35.003353" lon="-58.119286">
        <time>2021-05-01T13:10:32Z</time>
      </trkpt>
      <trkpt lat="-35.003395" lon="-58.119335">
        <time>2021-05-01T13:10:33Z</time>
      </trkpt>
      <trkpt lat="-35.003437" lon="-58.119385">
        <time>2021-05-01T13:10:34Z</time>
      </trkpt>
      <trkpt lat="-35.00348" lon="-58.119434">
        <time>2021-05-01T13:10:35Z</time>
      </trkpt>
      <trkpt lat="-35.003525" lon="-58.11948">
        <time>2021-05-01T13:10:36Z</time>
      </trkpt>
      <trkpt lat="-35.003567" lon="-58.119526">
        <time>2021-05-01T13:10:37Z</time>
      </trkpt>
      <trkpt lat="-35.003605" lon="-58.119568">
        <time>2021-05-01T13:10:38Z</time>
      </trkpt>
      <trkpt lat="-35.003647" lon="-58.11961">
        <time>2021-05-01T13:10:39Z</time>
      </trkpt>
      <trkpt lat="-35.003685" lon="-58.11965">
        <time>2021-05-01T13:10:40Z</time>
      </trkpt>
      <trkpt lat="-35.00372" lon="-58.119694">
        <time>2021-05-01T13:10:41Z</time>
      </trkpt>
      <trkpt lat="-35.003754" lon="-58.11973">
        <time>2021-05-01T13:10:42Z</time>
      </trkpt>
      <trkpt lat="-35.003788" lon="-58.119774">
        <time>2021-05-01T13:10:43Z</time>
      </trkpt>
      <trkpt lat="-35.00382" lon="-58.119816">
        <time>2021-05-01T13:10:44Z</time>
      </trkpt>
      <trkpt lat="-35.00388" lon="-58.119892">
        <time>2021-05-01T13:10:46Z</time>
      </trkpt>
      <trkpt lat="-35.003944" lon="-58.11996">
        <time>2021-05-01T13:10:48Z</time>
      </trkpt>
      <trkpt lat="-35.004" lon="-58.120026">
        <time>2021-05-01T13:10:50Z</time>
      </trkpt>
      <trkpt lat="-35.00406" lon="-58.120087">
        <time>2021-05-01T13:10:52Z</time>
      </trkpt>
      <trkpt lat="-35.00411" lon="-58.12015">
        <time>2021-05-01T13:10:54Z</time>
      </trkpt>
      <trkpt lat="-35.004158" lon="-58.1202">
        <time>2021-05-01T13:10:56Z</time>
      </trkpt>
      <trkpt lat="-35.004196" lon="-58.120243">
        <time>2021-05-01T13:10:58Z</time>
      </trkpt>
      <trkpt lat="-35.004215" lon="-58.12027">
        <time>2021-05-01T13:11:08Z</time>
      </trkpt>
      <trkpt lat="-35.004257" lon="-58.120296">
        <time>2021-05-01T13:11:18Z</time>
      </trkpt>
      <trkpt lat="-35.00429" lon="-58.12034">
        <time>2021-05-01T13:11:21Z</time>
      </trkpt>
      <trkpt lat="-35.004333" lon="-58.12037">
        <time>2021-05-01T13:11:24Z</time>
      </trkpt>
      <trkpt lat="-35.004375" lon="-58.1204">
        <time>2021-05-01T13:11:28Z</time>
      </trkpt>
      <trkpt lat="-35.004406" lon="-58.12043">
        <time>2021-05-01T13:11:38Z</time>
      </trkpt>
      <trkpt lat="-35.00447" lon="-58.120518">
        <time>2021-05-01T13:11:42Z</time>
      </trkpt>
      <trkpt lat="-35.004444" lon="-58.120472">
        <time>2021-05-01T13:11:42Z</time>
      </trkpt>
      <trkpt lat="-35.00451" lon="-58.120567">
        <time>2021-05-01T13:11:56Z</time>
      </trkpt>
      <trkpt lat="-35.004528" lon="-58.1206">
        <time>2021-05-01T13:12:06Z</time>
      </trkpt>
      <trkpt lat="-35.00458" lon="-58.120636">
        <time>2021-05-01T13:12:11Z</time>
      </trkpt>
      <trkpt lat="-35.00462" lon="-58.120678">
        <time>2021-05-01T13:12:26Z</time>
      </trkpt>
      <trkpt lat="-35.004665" lon="-58.120716">
        <time>2021-05-01T13:12:28Z</time>
      </trkpt>
      <trkpt lat="-35.004726" lon="-58.120785">
        <time>2021-05-01T13:12:30Z</time>
      </trkpt>
      <trkpt lat="-35.004784" lon="-58.120846">
        <time>2021-05-01T13:12:32Z</time>
      </trkpt>
      <trkpt lat="-35.00483" lon="-58.120903">
        <time>2021-05-01T13:12:34Z</time>
      </trkpt>
      <trkpt lat="-35.004887" lon="-58.120968">
        <time>2021-05-01T13:12:36Z</time>
      </trkpt>
      <trkpt lat="-35.004948" lon="-58.121037">
        <time>2021-05-01T13:12:38Z</time>
      </trkpt>
      <trkpt lat="-35.005013" lon="-58.12111">
        <time>2021-05-01T13:12:40Z</time>
      </trkpt>
      <trkpt lat="-35.005047" lon="-58.121147">
        <time>2021-05-01T13:12:41Z</time>
      </trkpt>
      <trkpt lat="-35.005077" lon="-58.121185">
        <time>2021-05-01T13:12:42Z</time>
      </trkpt>
      <trkpt lat="-35.00511" lon="-58.121227">
        <time>2021-05-01T13:12:43Z</time>
      </trkpt>
      <trkpt lat="-35.005142" lon="-58.12127">
        <time>2021-05-01T13:12:44Z</time>
      </trkpt>
      <trkpt lat="-35.00518" lon="-58.121307">
        <time>2021-05-01T13:12:45Z</time>
      </trkpt>
      <trkpt lat="-35.005215" lon="-58.12135">
        <time>2021-05-01T13:12:46Z</time>
      </trkpt>
      <trkpt lat="-35.005253" lon="-58.12139">
        <time>2021-05-01T13:12:47Z</time>
      </trkpt>
      <trkpt lat="-35.005295" lon="-58.121433">
        <time>2021-05-01T13:12:48Z</time>
      </trkpt>
      <trkpt lat="-35.00533" lon="-58.121475">
        <time>2021-05-01T13:12:49Z</time>
      </trkpt>
      <trkpt lat="-35.005363" lon="-58.121517">
        <time>2021-05-01T13:12:50Z</time>
      </trkpt>
      <trkpt lat="-35.0054" lon="-58.121555">
        <time>2021-05-01T13:12:51Z</time>
      </trkpt>
      <trkpt lat="-35.00544" lon="-58.121597">
        <time>2021-05-01T13:12:52Z</time>
      </trkpt>
      <trkpt lat="-35.005478" lon="-58.12164">
        <time>2021-05-01T13:12:53Z</time>
      </trkpt>
      <trkpt lat="-35.005516" lon="-58.121677">
        <time>2021-05-01T13:12:54Z</time>
      </trkpt>
      <trkpt lat="-35.005554" lon="-58.121727">
        <time>2021-05-01T13:12:55Z</time>
      </trkpt>
      <trkpt lat="-35.0056" lon="-58.12177">
        <time>2021-05-01T13:12:56Z</time>
      </trkpt>
      <trkpt lat="-35.005642" lon="-58.12181">
        <time>2021-05-01T13:12:57Z</time>
      </trkpt>
      <trkpt lat="-35.00568" lon="-58.121857">
        <time>2021-05-01T13:12:58Z</time>
      </trkpt>
      <trkpt lat="-35.005722" lon="-58.121902">
        <time>2021-05-01T13:12:59Z</time>
      </trkpt>
      <trkpt lat="-35.00576" lon="-58.121944">
        <time>2021-05-01T13:13:00Z</time>
      </trkpt>
      <trkpt lat="-35.005802" lon="-58.121986">
        <time>2021-05-01T13:13:01Z</time>
      </trkpt>
      <trkpt lat="-35.00584" lon="-58.12203">
        <time>2021-05-01T13:13:02Z</time>
      </trkpt>
      <trkpt lat="-35.00588" lon="-58.12207">
        <time>2021-05-01T13:13:03Z</time>
      </trkpt>
      <trkpt lat="-35.005913" lon="-58.122112">
        <time>2021-05-01T13:13:04Z</time>
      </trkpt>
      <trkpt lat="-35.005947" lon="-58.122154">
        <time>2021-05-01T13:13:05Z</time>
      </trkpt>
      <trkpt lat="-35.005985" lon="-58.122192">
        <time>2021-05-01T13:13:06Z</time>
      </trkpt>
      <trkpt lat="-35.006046" lon="-58.12224">
        <time>2021-05-01T13:13:08Z</time>
      </trkpt>
      <trkpt lat="-35.006084" lon="-58.12228">
        <time>2021-05-01T13:13:09Z</time>
      </trkpt>
      <trkpt lat="-35.00612" lon="-58.122322">
        <time>2021-05-01T13:13:10Z</time>
      </trkpt>
      <trkpt lat="-35.006157" lon="-58.122364">
        <time>2021-05-01T13:13:11Z</time>
      </trkpt>
      <trkpt lat="-35.006195" lon="-58.122406">
        <time>2021-05-01T13:13:12Z</time>
      </trkpt>
      <trkpt lat="-35.006233" lon="-58.122448">
        <time>2021-05-01T13:13:13Z</time>
      </trkpt>
      <trkpt lat="-35.00627" lon="-58.122494">
        <time>2021-05-01T13:13:14Z</time>
      </trkpt>
      <trkpt lat="-35.00631" lon="-58.122536">
        <time>2021-05-01T13:13:15Z</time>
      </trkpt>
      <trkpt lat="-35.006348" lon="-58.122574">
        <time>2021-05-01T13:13:16Z</time>
      </trkpt>
      <trkpt lat="-35.006386" lon="-58.122616">
        <time>2021-05-01T13:13:17Z</time>
      </trkpt>
      <trkpt lat="-35.00642" lon="-58.12266">
        <time>2021-05-01T13:13:18Z</time>
      </trkpt>
      <trkpt lat="-35.00646" lon="-58.122704">
        <time>2021-05-01T13:13:19Z</time>
      </trkpt>
      <trkpt lat="-35.006496" lon="-58.12274">
        <time>2021-05-01T13:13:20Z</time>
      </trkpt>
      <trkpt lat="-35.00654" lon="-58.122784">
        <time>2021-05-01T13:13:21Z</time>
      </trkpt>
      <trkpt lat="-35.006577" lon="-58.12283">
        <time>2021-05-01T13:13:22Z</time>
      </trkpt>
      <trkpt lat="-35.00662" lon="-58.122875">
        <time>2021-05-01T13:13:23Z</time>
      </trkpt>
      <trkpt lat="-35.006657" lon="-58.122917">
        <time>2021-05-01T13:13:24Z</time>
      </trkpt>
      <trkpt lat="-35.00669" lon="-58.122963">
        <time>2021-05-01T13:13:25Z</time>
      </trkpt>
      <trkpt lat="-35.006725" lon="-58.123005">
        <time>2021-05-01T13:13:26Z</time>
      </trkpt>
      <trkpt lat="-35.006763" lon="-58.123047">
        <time>2021-05-01T13:13:27Z</time>
      </trkpt>
      <trkpt lat="-35.0068" lon="-58.12309">
        <time>2021-05-01T13:13:28Z</time>
      </trkpt>
      <trkpt lat="-35.006844" lon="-58.12314">
        <time>2021-05-01T13:13:29Z</time>
      </trkpt>
      <trkpt lat="-35.00688" lon="-58.123184">
        <time>2021-05-01T13:13:30Z</time>
      </trkpt>
      <trkpt lat="-35.006916" lon="-58.123226">
        <time>2021-05-01T13:13:31Z</time>
      </trkpt>
      <trkpt lat="-35.006954" lon="-58.123264">
        <time>2021-05-01T13:13:32Z</time>
      </trkpt>
      <trkpt lat="-35.00699" lon="-58.123306">
        <time>2021-05-01T13:13:33Z</time>
      </trkpt>
      <trkpt lat="-35.007023" lon="-58.123344">
        <time>2021-05-01T13:13:34Z</time>
      </trkpt>
      <trkpt lat="-35.00706" lon="-58.123386">
        <time>2021-05-01T13:13:35Z</time>
      </trkpt>
      <trkpt lat="-35.007095" lon="-58.123432">
        <time>2021-05-01T13:13:36Z</time>
      </trkpt>
      <trkpt lat="-35.007137" lon="-58.123474">
        <time>2021-05-01T13:13:37Z</time>
      </trkpt>
      <trkpt lat="-35.007175" lon="-58.12352">
        <time>2021-05-01T13:13:38Z</time>
      </trkpt>
      <trkpt lat="-35.007214" lon="-58.123566">
        <time>2021-05-01T13:13:39Z</time>
      </trkpt>
      <trkpt lat="-35.00725" lon="-58.123608">
        <time>2021-05-01T13:13:40Z</time>
      </trkpt>
      <trkpt lat="-35.00729" lon="-58.12365">
        <time>2021-05-01T13:13:41Z</time>
      </trkpt>
      <trkpt lat="-35.007328" lon="-58.123684">
        <time>2021-05-01T13:13:42Z</time>
      </trkpt>
      <trkpt lat="-35.00737" lon="-58.123726">
        <time>2021-05-01T13:13:43Z</time>
      </trkpt>
      <trkpt lat="-35.00741" lon="-58.123768">
        <time>2021-05-01T13:13:44Z</time>
      </trkpt>
      <trkpt lat="-35.00745" lon="-58.12381">
        <time>2021-05-01T13:13:45Z</time>
      </trkpt>
      <trkpt lat="-35.007492" lon="-58.12385">
        <time>2021-05-01T13:13:46Z</time>
      </trkpt>
      <trkpt lat="-35.00753" lon="-58.123894">
        <time>2021-05-01T13:13:47Z</time>
      </trkpt>
      <trkpt lat="-35.007572" lon="-58.12393">
        <time>2021-05-01T13:13:48Z</time>
      </trkpt>
      <trkpt lat="-35.00761" lon="-58.123978">
        <time>2021-05-01T13:13:49Z</time>
      </trkpt>
      <trkpt lat="-35.007652" lon="-58.12402">
        <time>2021-05-01T13:13:50Z</time>
      </trkpt>
      <trkpt lat="-35.00769" lon="-58.12406">
        <time>2021-05-01T13:13:51Z</time>
      </trkpt>
      <trkpt lat="-35.00773" lon="-58.124107">
        <time>2021-05-01T13:13:52Z</time>
      </trkpt>
      <trkpt lat="-35.00777" lon="-58.12415">
        <time>2021-05-01T13:13:53Z</time>
      </trkpt>
      <trkpt lat="-35.007812" lon="-58.124195">
        <time>2021-05-01T13:13:54Z</time>
      </trkpt>
      <trkpt lat="-35.007854" lon="-58.12424">
        <time>2021-05-01T13:13:55Z</time>
      </trkpt>
      <trkpt lat="-35.007896" lon="-58.124294">
        <time>2021-05-01T13:13:56Z</time>
      </trkpt>
      <trkpt lat="-35.00794" lon="-58.12434">
        <time>2021-05-01T13:13:57Z</time>
      </trkpt>
      <trkpt lat="-35.00798" lon="-58.124386">
        <time>2021-05-01T13:13:58Z</time>
      </trkpt>
      <trkpt lat="-35.00802" lon="-58.124428">
        <time>2021-05-01T13:13:59Z</time>
      </trkpt>
      <trkpt lat="-35.00806" lon="-58.12447">
        <time>2021-05-01T13:14:00Z</time>
      </trkpt>
      <trkpt lat="-35.008102" lon="-58.124516">
        <time>2021-05-01T13:14:01Z</time>
      </trkpt>
      <trkpt lat="-35.00814" lon="-58.12456">
        <time>2021-05-01T13:14:02Z</time>
      </trkpt>
      <trkpt lat="-35.008183" lon="-58.124607">
        <time>2021-05-01T13:14:03Z</time>
      </trkpt>
      <trkpt lat="-35.008224" lon="-58.124653">
        <time>2021-05-01T13:14:04Z</time>
      </trkpt>
      <trkpt lat="-35.008263" lon="-58.124695">
        <time>2021-05-01T13:14:05Z</time>
      </trkpt>
      <trkpt lat="-35.0083" lon="-58.124737">
        <time>2021-05-01T13:14:06Z</time>
      </trkpt>
      <trkpt lat="-35.00834" lon="-58.12478">
        <time>2021-05-01T13:14:07Z</time>
      </trkpt>
      <trkpt lat="-35.00838" lon="-58.124825">
        <time>2021-05-01T13:14:08Z</time>
      </trkpt>
      <trkpt lat="-35.008423" lon="-58.12487">
        <time>2021-05-01T13:14:09Z</time>
      </trkpt>
      <trkpt lat="-35.00846" lon="-58.124916">
        <time>2021-05-01T13:14:10Z</time>
      </trkpt>
      <trkpt lat="-35.0085" lon="-58.12496">
        <time>2021-05-01T13:14:11Z</time>
      </trkpt>
      <trkpt lat="-35.00854" lon="-58.125004">
        <time>2021-05-01T13:14:12Z</time>
      </trkpt>
      <trkpt lat="-35.00858" lon="-58.125046">
        <time>2021-05-01T13:14:13Z</time>
      </trkpt>
      <trkpt lat="-35.008617" lon="-58.125088">
        <time>2021-05-01T13:14:14Z</time>
      </trkpt>
      <trkpt lat="-35.00866" lon="-58.125126">
        <time>2021-05-01T13:14:15Z</time>
      </trkpt>
      <trkpt lat="-35.008698" lon="-58.125168">
        <time>2021-05-01T13:14:16Z</time>
      </trkpt>
      <trkpt lat="-35.00873" lon="-58.12521">
        <time>2021-05-01T13:14:17Z</time>
      </trkpt>
      <trkpt lat="-35.008774" lon="-58.125256">
        <time>2021-05-01T13:14:18Z</time>
      </trkpt>
      <trkpt lat="-35.00881" lon="-58.125298">
        <time>2021-05-01T13:14:19Z</time>
      </trkpt>
      <trkpt lat="-35.00885" lon="-58.125343">
        <time>2021-05-01T13:14:20Z</time>
      </trkpt>
      <trkpt lat="-35.00889" lon="-58.125385">
        <time>2021-05-01T13:14:21Z</time>
      </trkpt>
      <trkpt lat="-35.008926" lon="-58.125427">
        <time>2021-05-01T13:14:22Z</time>
      </trkpt>
      <trkpt lat="-35.008965" lon="-58.12547">
        <time>2021-05-01T13:14:23Z</time>
      </trkpt>
      <trkpt lat="-35.009003" lon="-58.12551">
        <time>2021-05-01T13:14:24Z</time>
      </trkpt>
      <trkpt lat="-35.00904" lon="-58.125553">
        <time>2021-05-01T13:14:25Z</time>
      </trkpt>
      <trkpt lat="-35.00908" lon="-58.125595">
        <time>2021-05-01T13:14:26Z</time>
      </trkpt>
      <trkpt lat="-35.009113" lon="-58.125637">
        <time>2021-05-01T13:14:27Z</time>
      </trkpt>
      <trkpt lat="-35.009144" lon="-58.125675">
        <time>2021-05-01T13:14:28Z</time>
      </trkpt>
      <trkpt lat="-35.009174" lon="-58.125717">
        <time>2021-05-01T13:14:29Z</time>
      </trkpt>
      <trkpt lat="-35.00921" lon="-58.125755">
        <time>2021-05-01T13:14:30Z</time>
      </trkpt>
      <trkpt lat="-35.009277" lon="-58.125828">
        <time>2021-05-01T13:14:32Z</time>
      </trkpt>
      <trkpt lat="-35.00931" lon="-58.125862">
        <time>2021-05-01T13:14:33Z</time>
      </trkpt>
      <trkpt lat="-35.009384" lon="-58.125927">
        <time>2021-05-01T13:14:35Z</time>
      </trkpt>
      <trkpt lat="-35.00942" lon="-58.12597">
        <time>2021-05-01T13:14:36Z</time>
      </trkpt>
      <trkpt lat="-35.009453" lon="-58.126007">
        <time>2021-05-01T13:14:37Z</time>
      </trkpt>
      <trkpt lat="-35.009518" lon="-58.12608">
        <time>2021-05-01T13:14:39Z</time>
      </trkpt>
      <trkpt lat="-35.009583" lon="-58.126152">
        <time>2021-05-01T13:14:41Z</time>
      </trkpt>
      <trkpt lat="-35.009617" lon="-58.12619">
        <time>2021-05-01T13:14:42Z</time>
      </trkpt>
      <trkpt lat="-35.009655" lon="-58.126232">
        <time>2021-05-01T13:14:43Z</time>
      </trkpt>
      <trkpt lat="-35.00968" lon="-58.126274">
        <time>2021-05-01T13:14:44Z</time>
      </trkpt>
      <trkpt lat="-35.009747" lon="-58.126347">
        <time>2021-05-01T13:14:46Z</time>
      </trkpt>
      <trkpt lat="-35.009804" lon="-58.126423">
        <time>2021-05-01T13:14:48Z</time>
      </trkpt>
      <trkpt lat="-35.00986" lon="-58.126503">
        <time>2021-05-01T13:14:50Z</time>
      </trkpt>
      <trkpt lat="-35.009914" lon="-58.12658">
        <time>2021-05-01T13:14:52Z</time>
      </trkpt>
      <trkpt lat="-35.009945" lon="-58.126617">
        <time>2021-05-01T13:14:53Z</time>
      </trkpt>
      <trkpt lat="-35.010006" lon="-58.126694">
        <time>2021-05-01T13:14:55Z</time>
      </trkpt>
      <trkpt lat="-35.01004" lon="-58.12673">
        <time>2021-05-01T13:14:56Z</time>
      </trkpt>
      <trkpt lat="-35.010075" lon="-58.126774">
        <time>2021-05-01T13:14:57Z</time>
      </trkpt>
      <trkpt lat="-35.010113" lon="-58.126812">
        <time>2021-05-01T13:14:58Z</time>
      </trkpt>
      <trkpt lat="-35.010147" lon="-58.126854">
        <time>2021-05-01T13:14:59Z</time>
      </trkpt>
      <trkpt lat="-35.01018" lon="-58.12689">
        <time>2021-05-01T13:15:00Z</time>
      </trkpt>
      <trkpt lat="-35.01022" lon="-58.126926">
        <time>2021-05-01T13:15:01Z</time>
      </trkpt>
      <trkpt lat="-35.010254" lon="-58.126965">
        <time>2021-05-01T13:15:02Z</time>
      </trkpt>
      <trkpt lat="-35.01029" lon="-58.127007">
        <time>2021-05-01T13:15:03Z</time>
      </trkpt>
      <trkpt lat="-35.010323" lon="-58.127045">
        <time>2021-05-01T13:15:04Z</time>
      </trkpt>
      <trkpt lat="-35.01036" lon="-58.127083">
        <time>2021-05-01T13:15:05Z</time>
      </trkpt>
      <trkpt lat="-35.010395" lon="-58.127113">
        <time>2021-05-01T13:15:06Z</time>
      </trkpt>
      <trkpt lat="-35.01046" lon="-58.12718">
        <time>2021-05-01T13:15:08Z</time>
      </trkpt>
      <trkpt lat="-35.01053" lon="-58.12724">
        <time>2021-05-01T13:15:10Z</time>
      </trkpt>
      <trkpt lat="-35.010586" lon="-58.12732">
        <time>2021-05-01T13:15:12Z</time>
      </trkpt>
      <trkpt lat="-35.01065" lon="-58.127396">
        <time>2021-05-01T13:15:14Z</time>
      </trkpt>
      <trkpt lat="-35.01068" lon="-58.127438">
        <time>2021-05-01T13:15:15Z</time>
      </trkpt>
      <trkpt lat="-35.010715" lon="-58.12748">
        <time>2021-05-01T13:15:16Z</time>
      </trkpt>
      <trkpt lat="-35.010746" lon="-58.127518">
        <time>2021-05-01T13:15:17Z</time>
      </trkpt>
      <trkpt lat="-35.01081" lon="-58.127594">
        <time>2021-05-01T13:15:19Z</time>
      </trkpt>
      <trkpt lat="-35.010876" lon="-58.127663">
        <time>2021-05-01T13:15:21Z</time>
      </trkpt>
      <trkpt lat="-35.010944" lon="-58.12773">
        <time>2021-05-01T13:15:23Z</time>
      </trkpt>
      <trkpt lat="-35.01098" lon="-58.127766">
        <time>2021-05-01T13:15:24Z</time>
      </trkpt>
      <trkpt lat="-35.011017" lon="-58.1278">
        <time>2021-05-01T13:15:25Z</time>
      </trkpt>
      <trkpt lat="-35.01105" lon="-58.12784">
        <time>2021-05-01T13:15:26Z</time>
      </trkpt>
      <trkpt lat="-35.011086" lon="-58.127876">
        <time>2021-05-01T13:15:27Z</time>
      </trkpt>
      <trkpt lat="-35.011124" lon="-58.12792">
        <time>2021-05-01T13:15:28Z</time>
      </trkpt>
      <trkpt lat="-35.01116" lon="-58.127956">
        <time>2021-05-01T13:15:29Z</time>
      </trkpt>
      <trkpt lat="-35.011223" lon="-58.128033">
        <time>2021-05-01T13:15:31Z</time>
      </trkpt>
      <trkpt lat="-35.011288" lon="-58.1281">
        <time>2021-05-01T13:15:33Z</time>
      </trkpt>
      <trkpt lat="-35.01136" lon="-58.128166">
        <time>2021-05-01T13:15:35Z</time>
      </trkpt>
      <trkpt lat="-35.011395" lon="-58.1282">
        <time>2021-05-01T13:15:36Z</time>
      </trkpt>
      <trkpt lat="-35.01143" lon="-58.128235">
        <time>2021-05-01T13:15:37Z</time>
      </trkpt>
      <trkpt lat="-35.011463" lon="-58.128277">
        <time>2021-05-01T13:15:38Z</time>
      </trkpt>
      <trkpt lat="-35.011494" lon="-58.12832">
        <time>2021-05-01T13:15:39Z</time>
      </trkpt>
      <trkpt lat="-35.011528" lon="-58.12836">
        <time>2021-05-01T13:15:40Z</time>
      </trkpt>
      <trkpt lat="-35.011562" lon="-58.1284">
        <time>2021-05-01T13:15:41Z</time>
      </trkpt>
      <trkpt lat="-35.0116" lon="-58.12844">
        <time>2021-05-01T13:15:42Z</time>
      </trkpt>
      <trkpt lat="-35.011635" lon="-58.12848">
        <time>2021-05-01T13:15:43Z</time>
      </trkpt>
      <trkpt lat="-35.011673" lon="-58.12852">
        <time>2021-05-01T13:15:44Z</time>
      </trkpt>
      <trkpt lat="-35.01171" lon="-58.128563">
        <time>2021-05-01T13:15:45Z</time>
      </trkpt>
      <trkpt lat="-35.01175" lon="-58.128605">
        <time>2021-05-01T13:15:46Z</time>
      </trkpt>
      <trkpt lat="-35.011787" lon="-58.12865">
        <time>2021-05-01T13:15:47Z</time>
      </trkpt>
      <trkpt lat="-35.011826" lon="-58.128696">
        <time>2021-05-01T13:15:48Z</time>
      </trkpt>
      <trkpt lat="-35.011868" lon="-58.12874">
        <time>2021-05-01T13:15:49Z</time>
      </trkpt>
      <trkpt lat="-35.011906" lon="-58.128777">
        <time>2021-05-01T13:15:50Z</time>
      </trkpt>
      <trkpt lat="-35.011948" lon="-58.12882">
        <time>2021-05-01T13:15:51Z</time>
      </trkpt>
      <trkpt lat="-35.011986" lon="-58.12886">
        <time>2021-05-01T13:15:52Z</time>
      </trkpt>
      <trkpt lat="-35.012028" lon="-58.128902">
        <time>2021-05-01T13:15:53Z</time>
      </trkpt>
      <trkpt lat="-35.012066" lon="-58.12895">
        <time>2021-05-01T13:15:54Z</time>
      </trkpt>
      <trkpt lat="-35.012108" lon="-58.128994">
        <time>2021-05-01T13:15:55Z</time>
      </trkpt>
      <trkpt lat="-35.01215" lon="-58.12904">
        <time>2021-05-01T13:15:56Z</time>
      </trkpt>
      <trkpt lat="-35.01219" lon="-58.12908">
        <time>2021-05-01T13:15:57Z</time>
      </trkpt>
      <trkpt lat="-35.012234" lon="-58.129128">
        <time>2021-05-01T13:15:58Z</time>
      </trkpt>
      <trkpt lat="-35.012276" lon="-58.12917">
        <time>2021-05-01T13:15:59Z</time>
      </trkpt>
      <trkpt lat="-35.012314" lon="-58.12921">
        <time>2021-05-01T13:16:00Z</time>
      </trkpt>
      <trkpt lat="-35.012352" lon="-58.129257">
        <time>2021-05-01T13:16:01Z</time>
      </trkpt>
      <trkpt lat="-35.01239" lon="-58.129303">
        <time>2021-05-01T13:16:02Z</time>
      </trkpt>
      <trkpt lat="-35.01243" lon="-58.12935">
        <time>2021-05-01T13:16:03Z</time>
      </trkpt>
      <trkpt lat="-35.012466" lon="-58.129395">
        <time>2021-05-01T13:16:04Z</time>
      </trkpt>
      <trkpt lat="-35.012505" lon="-58.12944">
        <time>2021-05-01T13:16:05Z</time>
      </trkpt>
      <trkpt lat="-35.012543" lon="-58.129482">
        <time>2021-05-01T13:16:06Z</time>
      </trkpt>
      <trkpt lat="-35.012585" lon="-58.129524">
        <time>2021-05-01T13:16:07Z</time>
      </trkpt>
      <trkpt lat="-35.012623" lon="-58.12957">
        <time>2021-05-01T13:16:08Z</time>
      </trkpt>
      <trkpt lat="-35.012657" lon="-58.129616">
        <time>2021-05-01T13:16:09Z</time>
      </trkpt>
      <trkpt lat="-35.012695" lon="-58.12966">
        <time>2021-05-01T13:16:10Z</time>
      </trkpt>
      <trkpt lat="-35.012733" lon="-58.129704">
        <time>2021-05-01T13:16:11Z</time>
      </trkpt>
      <trkpt lat="-35.01277" lon="-58.12974">
        <time>2021-05-01T13:16:12Z</time>
      </trkpt>
      <trkpt lat="-35.01281" lon="-58.129784">
        <time>2021-05-01T13:16:13Z</time>
      </trkpt>
      <trkpt lat="-35.012844" lon="-58.129826">
        <time>2021-05-01T13:16:14Z</time>
      </trkpt>
      <trkpt lat="-35.012882" lon="-58.129868">
        <time>2021-05-01T13:16:15Z</time>
      </trkpt>
      <trkpt lat="-35.01292" lon="-58.129913">
        <time>2021-05-01T13:16:16Z</time>
      </trkpt>
      <trkpt lat="-35.01296" lon="-58.129955">
        <time>2021-05-01T13:16:17Z</time>
      </trkpt>
      <trkpt lat="-35.013" lon="-58.129997">
        <time>2021-05-01T13:16:18Z</time>
      </trkpt>
      <trkpt lat="-35.013035" lon="-58.13004">
        <time>2021-05-01T13:16:19Z</time>
      </trkpt>
      <trkpt lat="-35.013096" lon="-58.1301">
        <time>2021-05-01T13:16:21Z</time>
      </trkpt>
      <trkpt lat="-35.013138" lon="-58.130142">
        <time>2021-05-01T13:16:23Z</time>
      </trkpt>
      <trkpt lat="-35.01318" lon="-58.130184">
        <time>2021-05-01T13:16:25Z</time>
      </trkpt>
      <trkpt lat="-35.01324" lon="-58.13025">
        <time>2021-05-01T13:16:27Z</time>
      </trkpt>
      <trkpt lat="-35.013313" lon="-58.13032">
        <time>2021-05-01T13:16:29Z</time>
      </trkpt>
      <trkpt lat="-35.013355" lon="-58.130363">
        <time>2021-05-01T13:16:30Z</time>
      </trkpt>
      <trkpt lat="-35.013393" lon="-58.130405">
        <time>2021-05-01T13:16:31Z</time>
      </trkpt>
      <trkpt lat="-35.013435" lon="-58.130444">
        <time>2021-05-01T13:16:32Z</time>
      </trkpt>
      <trkpt lat="-35.013474" lon="-58.130486">
        <time>2021-05-01T13:16:33Z</time>
      </trkpt>
      <trkpt lat="-35.01351" lon="-58.130535">
        <time>2021-05-01T13:16:34Z</time>
      </trkpt>
      <trkpt lat="-35.013546" lon="-58.130577">
        <time>2021-05-01T13:16:35Z</time>
      </trkpt>
      <trkpt lat="-35.01359" lon="-58.13062">
        <time>2021-05-01T13:16:36Z</time>
      </trkpt>
      <trkpt lat="-35.013634" lon="-58.130665">
        <time>2021-05-01T13:16:37Z</time>
      </trkpt>
      <trkpt lat="-35.01368" lon="-58.13071">
        <time>2021-05-01T13:16:38Z</time>
      </trkpt>
      <trkpt lat="-35.013725" lon="-58.130753">
        <time>2021-05-01T13:16:40Z</time>
      </trkpt>
      <trkpt lat="-35.013767" lon="-58.130802">
        <time>2021-05-01T13:16:41Z</time>
      </trkpt>
      <trkpt lat="-35.01381" lon="-58.130848">
        <time>2021-05-01T13:16:42Z</time>
      </trkpt>
      <trkpt lat="-35.013847" lon="-58.130894">
        <time>2021-05-01T13:16:43Z</time>
      </trkpt>
      <trkpt lat="-35.01388" lon="-58.130943">
        <time>2021-05-01T13:16:44Z</time>
      </trkpt>
      <trkpt lat="-35.013916" lon="-58.13099">
        <time>2021-05-01T13:16:45Z</time>
      </trkpt>
      <trkpt lat="-35.013954" lon="-58.13103">
        <time>2021-05-01T13:16:46Z</time>
      </trkpt>
      <trkpt lat="-35.013992" lon="-58.13107">
        <time>2021-05-01T13:16:47Z</time>
      </trkpt>
      <trkpt lat="-35.014027" lon="-58.13111">
        <time>2021-05-01T13:16:48Z</time>
      </trkpt>
      <trkpt lat="-35.014065" lon="-58.131153">
        <time>2021-05-01T13:16:49Z</time>
      </trkpt>
      <trkpt lat="-35.014103" lon="-58.131195">
        <time>2021-05-01T13:16:50Z</time>
      </trkpt>
      <trkpt lat="-35.01414" lon="-58.131237">
        <time>2021-05-01T13:16:51Z</time>
      </trkpt>
      <trkpt lat="-35.014183" lon="-58.131283">
        <time>2021-05-01T13:16:52Z</time>
      </trkpt>
      <trkpt lat="-35.01422" lon="-58.131325">
        <time>2021-05-01T13:16:53Z</time>
      </trkpt>
      <trkpt lat="-35.01426" lon="-58.131367">
        <time>2021-05-01T13:16:54Z</time>
      </trkpt>
      <trkpt lat="-35.014297" lon="-58.131405">
        <time>2021-05-01T13:16:55Z</time>
      </trkpt>
      <trkpt lat="-35.014336" lon="-58.131443">
        <time>2021-05-01T13:16:56Z</time>
      </trkpt>
      <trkpt lat="-35.014374" lon="-58.131485">
        <time>2021-05-01T13:16:57Z</time>
      </trkpt>
      <trkpt lat="-35.014412" lon="-58.131527">
        <time>2021-05-01T13:16:58Z</time>
      </trkpt>
      <trkpt lat="-35.01445" lon="-58.131573">
        <time>2021-05-01T13:16:59Z</time>
      </trkpt>
      <trkpt lat="-35.014492" lon="-58.13162">
        <time>2021-05-01T13:17:00Z</time>
      </trkpt>
      <trkpt lat="-35.014534" lon="-58.131664">
        <time>2021-05-01T13:17:01Z</time>
      </trkpt>
      <trkpt lat="-35.014572" lon="-58.13171">
        <time>2021-05-01T13:17:02Z</time>
      </trkpt>
      <trkpt lat="-35.014614" lon="-58.131756">
        <time>2021-05-01T13:17:03Z</time>
      </trkpt>
      <trkpt lat="-35.014656" lon="-58.1318">
        <time>2021-05-01T13:17:04Z</time>
      </trkpt>
      <trkpt lat="-35.014698" lon="-58.13185">
        <time>2021-05-01T13:17:05Z</time>
      </trkpt>
      <trkpt lat="-35.01474" lon="-58.131897">
        <time>2021-05-01T13:17:06Z</time>
      </trkpt>
      <trkpt lat="-35.01478" lon="-58.131943">
        <time>2021-05-01T13:17:07Z</time>
      </trkpt>
      <trkpt lat="-35.01482" lon="-58.13199">
        <time>2021-05-01T13:17:08Z</time>
      </trkpt>
      <trkpt lat="-35.01486" lon="-58.13204">
        <time>2021-05-01T13:17:09Z</time>
      </trkpt>
      <trkpt lat="-35.0149" lon="-58.132084">
        <time>2021-05-01T13:17:10Z</time>
      </trkpt>
      <trkpt lat="-35.014942" lon="-58.13213">
        <time>2021-05-01T13:17:11Z</time>
      </trkpt>
      <trkpt lat="-35.014984" lon="-58.132175">
        <time>2021-05-01T13:17:12Z</time>
      </trkpt>
      <trkpt lat="-35.015026" lon="-58.132225">
        <time>2021-05-01T13:17:13Z</time>
      </trkpt>
      <trkpt lat="-35.015064" lon="-58.132275">
        <time>2021-05-01T13:17:14Z</time>
      </trkpt>
      <trkpt lat="-35.015106" lon="-58.13232">
        <time>2021-05-01T13:17:15Z</time>
      </trkpt>
      <trkpt lat="-35.01515" lon="-58.13237">
        <time>2021-05-01T13:17:16Z</time>
      </trkpt>
      <trkpt lat="-35.015186" lon="-58.132416">
        <time>2021-05-01T13:17:17Z</time>
      </trkpt>
      <trkpt lat="-35.01523" lon="-58.13246">
        <time>2021-05-01T13:17:18Z</time>
      </trkpt>
      <trkpt lat="-35.01527" lon="-58.13251">
        <time>2021-05-01T13:17:19Z</time>
      </trkpt>
      <trkpt lat="-35.015312" lon="-58.132557">
        <time>2021-05-01T13:17:20Z</time>
      </trkpt>
      <trkpt lat="-35.015354" lon="-58.1326">
        <time>2021-05-01T13:17:21Z</time>
      </trkpt>
      <trkpt lat="-35.015396" lon="-58.13264">
        <time>2021-05-01T13:17:22Z</time>
      </trkpt>
      <trkpt lat="-35.015438" lon="-58.132683">
        <time>2021-05-01T13:17:23Z</time>
      </trkpt>
      <trkpt lat="-35.015476" lon="-58.132725">
        <time>2021-05-01T13:17:24Z</time>
      </trkpt>
      <trkpt lat="-35.015514" lon="-58.13277">
        <time>2021-05-01T13:17:25Z</time>
      </trkpt>
      <trkpt lat="-35.015556" lon="-58.13281">
        <time>2021-05-01T13:17:26Z</time>
      </trkpt>
      <trkpt lat="-35.0156" lon="-58.132847">
        <time>2021-05-01T13:17:27Z</time>
      </trkpt>
      <trkpt lat="-35.01564" lon="-58.132885">
        <time>2021-05-01T13:17:28Z</time>
      </trkpt>
      <trkpt lat="-35.015682" lon="-58.132923">
        <time>2021-05-01T13:17:29Z</time>
      </trkpt>
      <trkpt lat="-35.01572" lon="-58.13296">
        <time>2021-05-01T13:17:30Z</time>
      </trkpt>
      <trkpt lat="-35.01576" lon="-58.133007">
        <time>2021-05-01T13:17:31Z</time>
      </trkpt>
      <trkpt lat="-35.015797" lon="-58.133053">
        <time>2021-05-01T13:17:32Z</time>
      </trkpt>
      <trkpt lat="-35.015835" lon="-58.133083">
        <time>2021-05-01T13:17:33Z</time>
      </trkpt>
      <trkpt lat="-35.015873" lon="-58.13312">
        <time>2021-05-01T13:17:34Z</time>
      </trkpt>
      <trkpt lat="-35.01591" lon="-58.13316">
        <time>2021-05-01T13:17:35Z</time>
      </trkpt>
      <trkpt lat="-35.01595" lon="-58.1332">
        <time>2021-05-01T13:17:36Z</time>
      </trkpt>
      <trkpt lat="-35.015987" lon="-58.133244">
        <time>2021-05-01T13:17:37Z</time>
      </trkpt>
      <trkpt lat="-35.01602" lon="-58.133286">
        <time>2021-05-01T13:17:38Z</time>
      </trkpt>
      <trkpt lat="-35.016056" lon="-58.13333">
        <time>2021-05-01T13:17:39Z</time>
      </trkpt>
      <trkpt lat="-35.01609" lon="-58.133373">
        <time>2021-05-01T13:17:40Z</time>
      </trkpt>
      <trkpt lat="-35.016155" lon="-58.133446">
        <time>2021-05-01T13:17:42Z</time>
      </trkpt>
      <trkpt lat="-35.016193" lon="-58.13348">
        <time>2021-05-01T13:17:43Z</time>
      </trkpt>
      <trkpt lat="-35.016228" lon="-58.13352">
        <time>2021-05-01T13:17:44Z</time>
      </trkpt>
      <trkpt lat="-35.016266" lon="-58.133556">
        <time>2021-05-01T13:17:45Z</time>
      </trkpt>
      <trkpt lat="-35.0163" lon="-58.133595">
        <time>2021-05-01T13:17:46Z</time>
      </trkpt>
      <trkpt lat="-35.016357" lon="-58.13367">
        <time>2021-05-01T13:17:48Z</time>
      </trkpt>
      <trkpt lat="-35.016407" lon="-58.13375">
        <time>2021-05-01T13:17:50Z</time>
      </trkpt>
      <trkpt lat="-35.01644" lon="-58.133793">
        <time>2021-05-01T13:17:51Z</time>
      </trkpt>
      <trkpt lat="-35.016476" lon="-58.13383">
        <time>2021-05-01T13:17:52Z</time>
      </trkpt>
      <trkpt lat="-35.016514" lon="-58.133873">
        <time>2021-05-01T13:17:53Z</time>
      </trkpt>
      <trkpt lat="-35.016556" lon="-58.13392">
        <time>2021-05-01T13:17:54Z</time>
      </trkpt>
      <trkpt lat="-35.016594" lon="-58.133965">
        <time>2021-05-01T13:17:55Z</time>
      </trkpt>
      <trkpt lat="-35.016636" lon="-58.13401">
        <time>2021-05-01T13:17:56Z</time>
      </trkpt>
      <trkpt lat="-35.016674" lon="-58.134052">
        <time>2021-05-01T13:17:57Z</time>
      </trkpt>
      <trkpt lat="-35.016712" lon="-58.134094">
        <time>2021-05-01T13:17:58Z</time>
      </trkpt>
      <trkpt lat="-35.01675" lon="-58.13414">
        <time>2021-05-01T13:17:59Z</time>
      </trkpt>
      <trkpt lat="-35.01679" lon="-58.134182">
        <time>2021-05-01T13:18:00Z</time>
      </trkpt>
      <trkpt lat="-35.016823" lon="-58.13422">
        <time>2021-05-01T13:18:01Z</time>
      </trkpt>
      <trkpt lat="-35.016865" lon="-58.13426">
        <time>2021-05-01T13:18:02Z</time>
      </trkpt>
      <trkpt lat="-35.016907" lon="-58.1343">
        <time>2021-05-01T13:18:03Z</time>
      </trkpt>
      <trkpt lat="-35.016945" lon="-58.134346">
        <time>2021-05-01T13:18:04Z</time>
      </trkpt>
      <trkpt lat="-35.01699" lon="-58.134384">
        <time>2021-05-01T13:18:05Z</time>
      </trkpt>
      <trkpt lat="-35.01703" lon="-58.134426">
        <time>2021-05-01T13:18:06Z</time>
      </trkpt>
      <trkpt lat="-35.017067" lon="-58.134468">
        <time>2021-05-01T13:18:07Z</time>
      </trkpt>
      <trkpt lat="-35.017097" lon="-58.134518">
        <time>2021-05-01T13:18:08Z</time>
      </trkpt>
      <trkpt lat="-35.017128" lon="-58.134563">
        <time>2021-05-01T13:18:09Z</time>
      </trkpt>
      <trkpt lat="-35.01716" lon="-58.13461">
        <time>2021-05-01T13:18:10Z</time>
      </trkpt>
      <trkpt lat="-35.017193" lon="-58.134655">
        <time>2021-05-01T13:18:11Z</time>
      </trkpt>
      <trkpt lat="-35.017227" lon="-58.134693">
        <time>2021-05-01T13:18:12Z</time>
      </trkpt>
      <trkpt lat="-35.017265" lon="-58.13474">
        <time>2021-05-01T13:18:13Z</time>
      </trkpt>
      <trkpt lat="-35.017303" lon="-58.134777">
        <time>2021-05-01T13:18:14Z</time>
      </trkpt>
      <trkpt lat="-35.01734" lon="-58.134823">
        <time>2021-05-01T13:18:15Z</time>
      </trkpt>
      <trkpt lat="-35.017376" lon="-58.134857">
        <time>2021-05-01T13:18:16Z</time>
      </trkpt>
      <trkpt lat="-35.01744" lon="-58.134922">
        <time>2021-05-01T13:18:18Z</time>
      </trkpt>
      <trkpt lat="-35.01748" lon="-58.134953">
        <time>2021-05-01T13:18:19Z</time>
      </trkpt>
      <trkpt lat="-35.017517" lon="-58.134983">
        <time>2021-05-01T13:18:20Z</time>
      </trkpt>
      <trkpt lat="-35.017555" lon="-58.135025">
        <time>2021-05-01T13:18:21Z</time>
      </trkpt>
      <trkpt lat="-35.017593" lon="-58.135063">
        <time>2021-05-01T13:18:22Z</time>
      </trkpt>
      <trkpt lat="-35.01763" lon="-58.135105">
        <time>2021-05-01T13:18:23Z</time>
      </trkpt>
      <trkpt lat="-35.01767" lon="-58.135147">
        <time>2021-05-01T13:18:24Z</time>
      </trkpt>
      <trkpt lat="-35.017708" lon="-58.13519">
        <time>2021-05-01T13:18:25Z</time>
      </trkpt>
      <trkpt lat="-35.017746" lon="-58.13523">
        <time>2021-05-01T13:18:26Z</time>
      </trkpt>
      <trkpt lat="-35.017784" lon="-58.135273">
        <time>2021-05-01T13:18:27Z</time>
      </trkpt>
      <trkpt lat="-35.017826" lon="-58.135315">
        <time>2021-05-01T13:18:28Z</time>
      </trkpt>
      <trkpt lat="-35.017864" lon="-58.13536">
        <time>2021-05-01T13:18:29Z</time>
      </trkpt>
      <trkpt lat="-35.017902" lon="-58.135406">
        <time>2021-05-01T13:18:30Z</time>
      </trkpt>
      <trkpt lat="-35.01794" lon="-58.135452">
        <time>2021-05-01T13:18:31Z</time>
      </trkpt>
      <trkpt lat="-35.017982" lon="-58.135494">
        <time>2021-05-01T13:18:32Z</time>
      </trkpt>
      <trkpt lat="-35.01802" lon="-58.135536">
        <time>2021-05-01T13:18:33Z</time>
      </trkpt>
      <trkpt lat="-35.018063" lon="-58.135582">
        <time>2021-05-01T13:18:34Z</time>
      </trkpt>
      <trkpt lat="-35.018105" lon="-58.135624">
        <time>2021-05-01T13:18:35Z</time>
      </trkpt>
      <trkpt lat="-35.018147" lon="-58.135666">
        <time>2021-05-01T13:18:36Z</time>
      </trkpt>
      <trkpt lat="-35.01819" lon="-58.135715">
        <time>2021-05-01T13:18:37Z</time>
      </trkpt>
      <trkpt lat="-35.01823" lon="-58.13576">
        <time>2021-05-01T13:18:38Z</time>
      </trkpt>
      <trkpt lat="-35.018276" lon="-58.135807">
        <time>2021-05-01T13:18:39Z</time>
      </trkpt>
      <trkpt lat="-35.01832" lon="-58.135853">
        <time>2021-05-01T13:18:40Z</time>
      </trkpt>
      <trkpt lat="-35.01836" lon="-58.13589">
        <time>2021-05-01T13:18:41Z</time>
      </trkpt>
      <trkpt lat="-35.018402" lon="-58.135933">
        <time>2021-05-01T13:18:42Z</time>
      </trkpt>
      <trkpt lat="-35.018444" lon="-58.13597">
        <time>2021-05-01T13:18:43Z</time>
      </trkpt>
      <trkpt lat="-35.018482" lon="-58.13601">
        <time>2021-05-01T13:18:44Z</time>
      </trkpt>
      <trkpt lat="-35.01852" lon="-58.136047">
        <time>2021-05-01T13:18:45Z</time>
      </trkpt>
      <trkpt lat="-35.018555" lon="-58.136086">
        <time>2021-05-01T13:18:46Z</time>
      </trkpt>
      <trkpt lat="-35.018585" lon="-58.136127">
        <time>2021-05-01T13:18:47Z</time>
      </trkpt>
      <trkpt lat="-35.018623" lon="-58.13617">
        <time>2021-05-01T13:18:48Z</time>
      </trkpt>
      <trkpt lat="-35.01866" lon="-58.136208">
        <time>2021-05-01T13:18:49Z</time>
      </trkpt>
      <trkpt lat="-35.018703" lon="-58.13625">
        <time>2021-05-01T13:18:50Z</time>
      </trkpt>
      <trkpt lat="-35.01874" lon="-58.136288">
        <time>2021-05-01T13:18:51Z</time>
      </trkpt>
      <trkpt lat="-35.01878" lon="-58.136326">
        <time>2021-05-01T13:18:52Z</time>
      </trkpt>
      <trkpt lat="-35.018814" lon="-58.136368">
        <time>2021-05-01T13:18:53Z</time>
      </trkpt>
      <trkpt lat="-35.01885" lon="-58.136417">
        <time>2021-05-01T13:18:54Z</time>
      </trkpt>
      <trkpt lat="-35.018883" lon="-58.136463">
        <time>2021-05-01T13:18:55Z</time>
      </trkpt>
      <trkpt lat="-35.018917" lon="-58.136505">
        <time>2021-05-01T13:18:56Z</time>
      </trkpt>
      <trkpt lat="-35.018955" lon="-58.13655">
        <time>2021-05-01T13:18:57Z</time>
      </trkpt>
      <trkpt lat="-35.01899" lon="-58.136597">
        <time>2021-05-01T13:18:58Z</time>
      </trkpt>
      <trkpt lat="-35.019028" lon="-58.136642">
        <time>2021-05-01T13:18:59Z</time>
      </trkpt>
      <trkpt lat="-35.01907" lon="-58.13669">
        <time>2021-05-01T13:19:00Z</time>
      </trkpt>
      <trkpt lat="-35.019104" lon="-58.136734">
        <time>2021-05-01T13:19:01Z</time>
      </trkpt>
      <trkpt lat="-35.019142" lon="-58.13678">
        <time>2021-05-01T13:19:02Z</time>
      </trkpt>
      <trkpt lat="-35.01918" lon="-58.136826">
        <time>2021-05-01T13:19:03Z</time>
      </trkpt>
      <trkpt lat="-35.01922" lon="-58.136875">
        <time>2021-05-01T13:19:04Z</time>
      </trkpt>
      <trkpt lat="-35.019264" lon="-58.136917">
        <time>2021-05-01T13:19:05Z</time>
      </trkpt>
      <trkpt lat="-35.019302" lon="-58.136963">
        <time>2021-05-01T13:19:06Z</time>
      </trkpt>
      <trkpt lat="-35.01934" lon="-58.13701">
        <time>2021-05-01T13:19:07Z</time>
      </trkpt>
      <trkpt lat="-35.019382" lon="-58.13706">
        <time>2021-05-01T13:19:08Z</time>
      </trkpt>
      <trkpt lat="-35.01942" lon="-58.1371">
        <time>2021-05-01T13:19:09Z</time>
      </trkpt>
      <trkpt lat="-35.01946" lon="-58.137146">
        <time>2021-05-01T13:19:10Z</time>
      </trkpt>
      <trkpt lat="-35.019497" lon="-58.137188">
        <time>2021-05-01T13:19:11Z</time>
      </trkpt>
      <trkpt lat="-35.01953" lon="-58.13723">
        <time>2021-05-01T13:19:12Z</time>
      </trkpt>
      <trkpt lat="-35.019566" lon="-58.13727">
        <time>2021-05-01T13:19:13Z</time>
      </trkpt>
      <trkpt lat="-35.0196" lon="-58.137314">
        <time>2021-05-01T13:19:14Z</time>
      </trkpt>
      <trkpt lat="-35.01963" lon="-58.13736">
        <time>2021-05-01T13:19:15Z</time>
      </trkpt>
      <trkpt lat="-35.01966" lon="-58.1374">
        <time>2021-05-01T13:19:16Z</time>
      </trkpt>
      <trkpt lat="-35.01969" lon="-58.137444">
        <time>2021-05-01T13:19:17Z</time>
      </trkpt>
      <trkpt lat="-35.019726" lon="-58.137486">
        <time>2021-05-01T13:19:18Z</time>
      </trkpt>
      <trkpt lat="-35.01976" lon="-58.137524">
        <time>2021-05-01T13:19:19Z</time>
      </trkpt>
      <trkpt lat="-35.019802" lon="-58.137558">
        <time>2021-05-01T13:19:20Z</time>
      </trkpt>
      <trkpt lat="-35.019844" lon="-58.137596">
        <time>2021-05-01T13:19:21Z</time>
      </trkpt>
      <trkpt lat="-35.01988" lon="-58.137634">
        <time>2021-05-01T13:19:22Z</time>
      </trkpt>
      <trkpt lat="-35.019917" lon="-58.137676">
        <time>2021-05-01T13:19:23Z</time>
      </trkpt>
      <trkpt lat="-35.019962" lon="-58.137714">
        <time>2021-05-01T13:19:24Z</time>
      </trkpt>
      <trkpt lat="-35.020004" lon="-58.137756">
        <time>2021-05-01T13:19:25Z</time>
      </trkpt>
      <trkpt lat="-35.020042" lon="-58.137802">
        <time>2021-05-01T13:19:26Z</time>
      </trkpt>
      <trkpt lat="-35.02008" lon="-58.137848">
        <time>2021-05-01T13:19:27Z</time>
      </trkpt>
      <trkpt lat="-35.020126" lon="-58.13789">
        <time>2021-05-01T13:19:28Z</time>
      </trkpt>
      <trkpt lat="-35.02017" lon="-58.137936">
        <time>2021-05-01T13:19:29Z</time>
      </trkpt>
      <trkpt lat="-35.020203" lon="-58.137978">
        <time>2021-05-01T13:19:30Z</time>
      </trkpt>
      <trkpt lat="-35.020245" lon="-58.13802">
        <time>2021-05-01T13:19:31Z</time>
      </trkpt>
      <trkpt lat="-35.020287" lon="-58.13807">
        <time>2021-05-01T13:19:32Z</time>
      </trkpt>
      <trkpt lat="-35.020325" lon="-58.13811">
        <time>2021-05-01T13:19:33Z</time>
      </trkpt>
      <trkpt lat="-35.020367" lon="-58.138157">
        <time>2021-05-01T13:19:34Z</time>
      </trkpt>
      <trkpt lat="-35.020412" lon="-58.138203">
        <time>2021-05-01T13:19:35Z</time>
      </trkpt>
      <trkpt lat="-35.020454" lon="-58.13825">
        <time>2021-05-01T13:19:36Z</time>
      </trkpt>
      <trkpt lat="-35.0205" lon="-58.138294">
        <time>2021-05-01T13:19:37Z</time>
      </trkpt>
      <trkpt lat="-35.020542" lon="-58.138344">
        <time>2021-05-01T13:19:38Z</time>
      </trkpt>
      <trkpt lat="-35.02058" lon="-58.138393">
        <time>2021-05-01T13:19:39Z</time>
      </trkpt>
      <trkpt lat="-35.020615" lon="-58.13844">
        <time>2021-05-01T13:19:40Z</time>
      </trkpt>
      <trkpt lat="-35.020657" lon="-58.138485">
        <time>2021-05-01T13:19:41Z</time>
      </trkpt>
      <trkpt lat="-35.020695" lon="-58.13853">
        <time>2021-05-01T13:19:42Z</time>
      </trkpt>
      <trkpt lat="-35.020737" lon="-58.138577">
        <time>2021-05-01T13:19:43Z</time>
      </trkpt>
      <trkpt lat="-35.02078" lon="-58.138622">
        <time>2021-05-01T13:19:44Z</time>
      </trkpt>
      <trkpt lat="-35.02082" lon="-58.138657">
        <time>2021-05-01T13:19:45Z</time>
      </trkpt>
      <trkpt lat="-35.020863" lon="-58.1387">
        <time>2021-05-01T13:19:46Z</time>
      </trkpt>
      <trkpt lat="-35.0209" lon="-58.138744">
        <time>2021-05-01T13:19:47Z</time>
      </trkpt>
      <trkpt lat="-35.02094" lon="-58.138783">
        <time>2021-05-01T13:19:48Z</time>
      </trkpt>
      <trkpt lat="-35.02098" lon="-58.13883">
        <time>2021-05-01T13:19:49Z</time>
      </trkpt>
      <trkpt lat="-35.02102" lon="-58.13887">
        <time>2021-05-01T13:19:50Z</time>
      </trkpt>
      <trkpt lat="-35.021057" lon="-58.138912">
        <time>2021-05-01T13:19:51Z</time>
      </trkpt>
      <trkpt lat="-35.0211" lon="-58.138958">
        <time>2021-05-01T13:19:52Z</time>
      </trkpt>
      <trkpt lat="-35.02114" lon="-58.139">
        <time>2021-05-01T13:19:53Z</time>
      </trkpt>
      <trkpt lat="-35.021183" lon="-58.139046">
        <time>2021-05-01T13:19:54Z</time>
      </trkpt>
      <trkpt lat="-35.021225" lon="-58.13909">
        <time>2021-05-01T13:19:55Z</time>
      </trkpt>
      <trkpt lat="-35.021267" lon="-58.13914">
        <time>2021-05-01T13:19:56Z</time>
      </trkpt>
      <trkpt lat="-35.02131" lon="-58.139187">
        <time>2021-05-01T13:19:57Z</time>
      </trkpt>
      <trkpt lat="-35.02135" lon="-58.13924">
        <time>2021-05-01T13:19:58Z</time>
      </trkpt>
      <trkpt lat="-35.021397" lon="-58.13929">
        <time>2021-05-01T13:19:59Z</time>
      </trkpt>
      <trkpt lat="-35.02144" lon="-58.13934">
        <time>2021-05-01T13:20:00Z</time>
      </trkpt>
      <trkpt lat="-35.02148" lon="-58.13939">
        <time>2021-05-01T13:20:01Z</time>
      </trkpt>
      <trkpt lat="-35.021523" lon="-58.13944">
        <time>2021-05-01T13:20:02Z</time>
      </trkpt>
      <trkpt lat="-35.02156" lon="-58.139484">
        <time>2021-05-01T13:20:03Z</time>
      </trkpt>
      <trkpt lat="-35.021603" lon="-58.139526">
        <time>2021-05-01T13:20:04Z</time>
      </trkpt>
      <trkpt lat="-35.021645" lon="-58.139572">
        <time>2021-05-01T13:20:05Z</time>
      </trkpt>
      <trkpt lat="-35.021687" lon="-58.139614">
        <time>2021-05-01T13:20:06Z</time>
      </trkpt>
      <trkpt lat="-35.02173" lon="-58.139652">
        <time>2021-05-01T13:20:07Z</time>
      </trkpt>
      <trkpt lat="-35.02177" lon="-58.139694">
        <time>2021-05-01T13:20:08Z</time>
      </trkpt>
      <trkpt lat="-35.021812" lon="-58.139736">
        <time>2021-05-01T13:20:09Z</time>
      </trkpt>
      <trkpt lat="-35.021847" lon="-58.13979">
        <time>2021-05-01T13:20:10Z</time>
      </trkpt>
      <trkpt lat="-35.02189" lon="-58.13984">
        <time>2021-05-01T13:20:11Z</time>
      </trkpt>
      <trkpt lat="-35.02193" lon="-58.13989">
        <time>2021-05-01T13:20:12Z</time>
      </trkpt>
      <trkpt lat="-35.02197" lon="-58.13994">
        <time>2021-05-01T13:20:13Z</time>
      </trkpt>
      <trkpt lat="-35.02201" lon="-58.139988">
        <time>2021-05-01T13:20:14Z</time>
      </trkpt>
      <trkpt lat="-35.022057" lon="-58.140038">
        <time>2021-05-01T13:20:15Z</time>
      </trkpt>
      <trkpt lat="-35.0221" lon="-58.140087">
        <time>2021-05-01T13:20:16Z</time>
      </trkpt>
      <trkpt lat="-35.022133" lon="-58.140133">
        <time>2021-05-01T13:20:17Z</time>
      </trkpt>
      <trkpt lat="-35.02218" lon="-58.14018">
        <time>2021-05-01T13:20:18Z</time>
      </trkpt>
      <trkpt lat="-35.022224" lon="-58.14023">
        <time>2021-05-01T13:20:19Z</time>
      </trkpt>
      <trkpt lat="-35.02227" lon="-58.140274">
        <time>2021-05-01T13:20:20Z</time>
      </trkpt>
      <trkpt lat="-35.022316" lon="-58.140327">
        <time>2021-05-01T13:20:21Z</time>
      </trkpt>
      <trkpt lat="-35.022366" lon="-58.140373">
        <time>2021-05-01T13:20:22Z</time>
      </trkpt>
      <trkpt lat="-35.022408" lon="-58.140423">
        <time>2021-05-01T13:20:23Z</time>
      </trkpt>
      <trkpt lat="-35.02245" lon="-58.14047">
        <time>2021-05-01T13:20:24Z</time>
      </trkpt>
      <trkpt lat="-35.022495" lon="-58.14051">
        <time>2021-05-01T13:20:25Z</time>
      </trkpt>
      <trkpt lat="-35.022545" lon="-58.140556">
        <time>2021-05-01T13:20:26Z</time>
      </trkpt>
      <trkpt lat="-35.02259" lon="-58.140602">
        <time>2021-05-01T13:20:27Z</time>
      </trkpt>
      <trkpt lat="-35.022636" lon="-58.140648">
        <time>2021-05-01T13:20:28Z</time>
      </trkpt>
      <trkpt lat="-35.022682" lon="-58.140697">
        <time>2021-05-01T13:20:29Z</time>
      </trkpt>
      <trkpt lat="-35.02272" lon="-58.140747">
        <time>2021-05-01T13:20:30Z</time>
      </trkpt>
      <trkpt lat="-35.022762" lon="-58.140793">
        <time>2021-05-01T13:20:31Z</time>
      </trkpt>
      <trkpt lat="-35.022804" lon="-58.14084">
        <time>2021-05-01T13:20:32Z</time>
      </trkpt>
      <trkpt lat="-35.022846" lon="-58.140884">
        <time>2021-05-01T13:20:33Z</time>
      </trkpt>
      <trkpt lat="-35.02289" lon="-58.140926">
        <time>2021-05-01T13:20:34Z</time>
      </trkpt>
      <trkpt lat="-35.022926" lon="-58.140972">
        <time>2021-05-01T13:20:35Z</time>
      </trkpt>
      <trkpt lat="-35.022964" lon="-58.141014">
        <time>2021-05-01T13:20:36Z</time>
      </trkpt>
      <trkpt lat="-35.023" lon="-58.14105">
        <time>2021-05-01T13:20:37Z</time>
      </trkpt>
      <trkpt lat="-35.023037" lon="-58.14109">
        <time>2021-05-01T13:20:38Z</time>
      </trkpt>
      <trkpt lat="-35.023075" lon="-58.141132">
        <time>2021-05-01T13:20:39Z</time>
      </trkpt>
      <trkpt lat="-35.023113" lon="-58.14118">
        <time>2021-05-01T13:20:40Z</time>
      </trkpt>
      <trkpt lat="-35.02316" lon="-58.141228">
        <time>2021-05-01T13:20:41Z</time>
      </trkpt>
      <trkpt lat="-35.0232" lon="-58.141273">
        <time>2021-05-01T13:20:42Z</time>
      </trkpt>
      <trkpt lat="-35.023243" lon="-58.141323">
        <time>2021-05-01T13:20:43Z</time>
      </trkpt>
      <trkpt lat="-35.023285" lon="-58.141373">
        <time>2021-05-01T13:20:44Z</time>
      </trkpt>
      <trkpt lat="-35.023327" lon="-58.14142">
        <time>2021-05-01T13:20:45Z</time>
      </trkpt>
      <trkpt lat="-35.02337" lon="-58.141468">
        <time>2021-05-01T13:20:46Z</time>
      </trkpt>
      <trkpt lat="-35.02341" lon="-58.141514">
        <time>2021-05-01T13:20:47Z</time>
      </trkpt>
      <trkpt lat="-35.02345" lon="-58.14156">
        <time>2021-05-01T13:20:48Z</time>
      </trkpt>
      <trkpt lat="-35.02349" lon="-58.141605">
        <time>2021-05-01T13:20:49Z</time>
      </trkpt>
      <trkpt lat="-35.02353" lon="-58.14165">
        <time>2021-05-01T13:20:50Z</time>
      </trkpt>
      <trkpt lat="-35.02357" lon="-58.141697">
        <time>2021-05-01T13:20:51Z</time>
      </trkpt>
      <trkpt lat="-35.023605" lon="-58.141743">
        <time>2021-05-01T13:20:52Z</time>
      </trkpt>
      <trkpt lat="-35.023643" lon="-58.14179">
        <time>2021-05-01T13:20:53Z</time>
      </trkpt>
      <trkpt lat="-35.02368" lon="-58.141834">
        <time>2021-05-01T13:20:54Z</time>
      </trkpt>
      <trkpt lat="-35.023724" lon="-58.141884">
        <time>2021-05-01T13:20:55Z</time>
      </trkpt>
      <trkpt lat="-35.023766" lon="-58.14193">
        <time>2021-05-01T13:20:56Z</time>
      </trkpt>
      <trkpt lat="-35.023808" lon="-58.14197">
        <time>2021-05-01T13:20:57Z</time>
      </trkpt>
      <trkpt lat="-35.023853" lon="-58.142017">
        <time>2021-05-01T13:20:58Z</time>
      </trkpt>
      <trkpt lat="-35.02389" lon="-58.14207">
        <time>2021-05-01T13:20:59Z</time>
      </trkpt>
      <trkpt lat="-35.023933" lon="-58.142117">
        <time>2021-05-01T13:21:00Z</time>
      </trkpt>
      <trkpt lat="-35.023975" lon="-58.14216">
        <time>2021-05-01T13:21:01Z</time>
      </trkpt>
      <trkpt lat="-35.024017" lon="-58.1422">
        <time>2021-05-01T13:21:02Z</time>
      </trkpt>
      <trkpt lat="-35.02406" lon="-58.142246">
        <time>2021-05-01T13:21:03Z</time>
      </trkpt>
      <trkpt lat="-35.0241" lon="-58.142296">
        <time>2021-05-01T13:21:04Z</time>
      </trkpt>
      <trkpt lat="-35.024143" lon="-58.142345">
        <time>2021-05-01T13:21:05Z</time>
      </trkpt>
      <trkpt lat="-35.02419" lon="-58.14239">
        <time>2021-05-01T13:21:06Z</time>
      </trkpt>
      <trkpt lat="-35.024235" lon="-58.142437">
        <time>2021-05-01T13:21:07Z</time>
      </trkpt>
      <trkpt lat="-35.024277" lon="-58.142483">
        <time>2021-05-01T13:21:08Z</time>
      </trkpt>
      <trkpt lat="-35.02432" lon="-58.14253">
        <time>2021-05-01T13:21:09Z</time>
      </trkpt>
      <trkpt lat="-35.02436" lon="-58.14257">
        <time>2021-05-01T13:21:10Z</time>
      </trkpt>
      <trkpt lat="-35.0244" lon="-58.142616">
        <time>2021-05-01T13:21:11Z</time>
      </trkpt>
      <trkpt lat="-35.024437" lon="-58.142662">
        <time>2021-05-01T13:21:12Z</time>
      </trkpt>
      <trkpt lat="-35.02448" lon="-58.14271">
        <time>2021-05-01T13:21:13Z</time>
      </trkpt>
      <trkpt lat="-35.024517" lon="-58.14276">
        <time>2021-05-01T13:21:14Z</time>
      </trkpt>
      <trkpt lat="-35.024555" lon="-58.142807">
        <time>2021-05-01T13:21:15Z</time>
      </trkpt>
      <trkpt lat="-35.0246" lon="-58.142857">
        <time>2021-05-01T13:21:16Z</time>
      </trkpt>
      <trkpt lat="-35.02464" lon="-58.142902">
        <time>2021-05-01T13:21:17Z</time>
      </trkpt>
      <trkpt lat="-35.024685" lon="-58.14295">
        <time>2021-05-01T13:21:18Z</time>
      </trkpt>
      <trkpt lat="-35.024727" lon="-58.14299">
        <time>2021-05-01T13:21:19Z</time>
      </trkpt>
      <trkpt lat="-35.02477" lon="-58.143032">
        <time>2021-05-01T13:21:20Z</time>
      </trkpt>
      <trkpt lat="-35.02481" lon="-58.143078">
        <time>2021-05-01T13:21:21Z</time>
      </trkpt>
      <trkpt lat="-35.024853" lon="-58.14312">
        <time>2021-05-01T13:21:22Z</time>
      </trkpt>
      <trkpt lat="-35.024895" lon="-58.143166">
        <time>2021-05-01T13:21:23Z</time>
      </trkpt>
      <trkpt lat="-35.024937" lon="-58.143215">
        <time>2021-05-01T13:21:24Z</time>
      </trkpt>
      <trkpt lat="-35.02498" lon="-58.14326">
        <time>2021-05-01T13:21:25Z</time>
      </trkpt>
      <trkpt lat="-35.02502" lon="-58.143307">
        <time>2021-05-01T13:21:26Z</time>
      </trkpt>
      <trkpt lat="-35.025063" lon="-58.143356">
        <time>2021-05-01T13:21:27Z</time>
      </trkpt>
      <trkpt lat="-35.0251" lon="-58.143402">
        <time>2021-05-01T13:21:28Z</time>
      </trkpt>
      <trkpt lat="-35.025143" lon="-58.143448">
        <time>2021-05-01T13:21:29Z</time>
      </trkpt>
      <trkpt lat="-35.025185" lon="-58.143494">
        <time>2021-05-01T13:21:30Z</time>
      </trkpt>
      <trkpt lat="-35.025223" lon="-58.14354">
        <time>2021-05-01T13:21:31Z</time>
      </trkpt>
      <trkpt lat="-35.025265" lon="-58.143585">
        <time>2021-05-01T13:21:32Z</time>
      </trkpt>
      <trkpt lat="-35.025307" lon="-58.143627">
        <time>2021-05-01T13:21:33Z</time>
      </trkpt>
      <trkpt lat="-35.02535" lon="-58.143673">
        <time>2021-05-01T13:21:34Z</time>
      </trkpt>
      <trkpt lat="-35.02539" lon="-58.14372">
        <time>2021-05-01T13:21:35Z</time>
      </trkpt>
      <trkpt lat="-35.025433" lon="-58.143764">
        <time>2021-05-01T13:21:36Z</time>
      </trkpt>
      <trkpt lat="-35.02547" lon="-58.14381">
        <time>2021-05-01T13:21:37Z</time>
      </trkpt>
      <trkpt lat="-35.025513" lon="-58.143856">
        <time>2021-05-01T13:21:38Z</time>
      </trkpt>
      <trkpt lat="-35.025555" lon="-58.1439">
        <time>2021-05-01T13:21:39Z</time>
      </trkpt>
      <trkpt lat="-35.025593" lon="-58.143944">
        <time>2021-05-01T13:21:40Z</time>
      </trkpt>
      <trkpt lat="-35.02563" lon="-58.14399">
        <time>2021-05-01T13:21:41Z</time>
      </trkpt>
      <trkpt lat="-35.02567" lon="-58.144035">
        <time>2021-05-01T13:21:42Z</time>
      </trkpt>
      <trkpt lat="-35.02571" lon="-58.14408">
        <time>2021-05-01T13:21:43Z</time>
      </trkpt>
      <trkpt lat="-35.02575" lon="-58.14413">
        <time>2021-05-01T13:21:44Z</time>
      </trkpt>
      <trkpt lat="-35.02579" lon="-58.144173">
        <time>2021-05-01T13:21:45Z</time>
      </trkpt>
      <trkpt lat="-35.025833" lon="-58.14422">
        <time>2021-05-01T13:21:46Z</time>
      </trkpt>
      <trkpt lat="-35.02587" lon="-58.14426">
        <time>2021-05-01T13:21:47Z</time>
      </trkpt>
      <trkpt lat="-35.025913" lon="-58.144302">
        <time>2021-05-01T13:21:48Z</time>
      </trkpt>
      <trkpt lat="-35.025955" lon="-58.144344">
        <time>2021-05-01T13:21:49Z</time>
      </trkpt>
      <trkpt lat="-35.025993" lon="-58.14439">
        <time>2021-05-01T13:21:50Z</time>
      </trkpt>
      <trkpt lat="-35.02603" lon="-58.144436">
        <time>2021-05-01T13:21:51Z</time>
      </trkpt>
      <trkpt lat="-35.026073" lon="-58.144478">
        <time>2021-05-01T13:21:52Z</time>
      </trkpt>
      <trkpt lat="-35.026108" lon="-58.14452">
        <time>2021-05-01T13:21:53Z</time>
      </trkpt>
      <trkpt lat="-35.026146" lon="-58.144566">
        <time>2021-05-01T13:21:54Z</time>
      </trkpt>
      <trkpt lat="-35.026188" lon="-58.144608">
        <time>2021-05-01T13:21:55Z</time>
      </trkpt>
      <trkpt lat="-35.026226" lon="-58.144653">
        <time>2021-05-01T13:21:56Z</time>
      </trkpt>
      <trkpt lat="-35.026268" lon="-58.1447">
        <time>2021-05-01T13:21:57Z</time>
      </trkpt>
      <trkpt lat="-35.02631" lon="-58.14474">
        <time>2021-05-01T13:21:58Z</time>
      </trkpt>
      <trkpt lat="-35.02635" lon="-58.144787">
        <time>2021-05-01T13:21:59Z</time>
      </trkpt>
      <trkpt lat="-35.02639" lon="-58.144833">
        <time>2021-05-01T13:22:00Z</time>
      </trkpt>
      <trkpt lat="-35.026432" lon="-58.144875">
        <time>2021-05-01T13:22:01Z</time>
      </trkpt>
      <trkpt lat="-35.026474" lon="-58.14492">
        <time>2021-05-01T13:22:02Z</time>
      </trkpt>
      <trkpt lat="-35.026512" lon="-58.144966">
        <time>2021-05-01T13:22:03Z</time>
      </trkpt>
      <trkpt lat="-35.026554" lon="-58.14501">
        <time>2021-05-01T13:22:04Z</time>
      </trkpt>
      <trkpt lat="-35.026596" lon="-58.145058">
        <time>2021-05-01T13:22:05Z</time>
      </trkpt>
      <trkpt lat="-35.026638" lon="-58.145103">
        <time>2021-05-01T13:22:06Z</time>
      </trkpt>
      <trkpt lat="-35.026676" lon="-58.145153">
        <time>2021-05-01T13:22:07Z</time>
      </trkpt>
      <trkpt lat="-35.026714" lon="-58.1452">
        <time>2021-05-01T13:22:08Z</time>
      </trkpt>
      <trkpt lat="-35.026756" lon="-58.145245">
        <time>2021-05-01T13:22:09Z</time>
      </trkpt>
      <trkpt lat="-35.026794" lon="-58.145287">
        <time>2021-05-01T13:22:10Z</time>
      </trkpt>
      <trkpt lat="-35.026836" lon="-58.14533">
        <time>2021-05-01T13:22:11Z</time>
      </trkpt>
      <trkpt lat="-35.026875" lon="-58.14537">
        <time>2021-05-01T13:22:12Z</time>
      </trkpt>
      <trkpt lat="-35.026913" lon="-58.145416">
        <time>2021-05-01T13:22:13Z</time>
      </trkpt>
      <trkpt lat="-35.02695" lon="-58.145454">
        <time>2021-05-01T13:22:14Z</time>
      </trkpt>
      <trkpt lat="-35.026993" lon="-58.145496">
        <time>2021-05-01T13:22:15Z</time>
      </trkpt>
      <trkpt lat="-35.02704" lon="-58.14554">
        <time>2021-05-01T13:22:16Z</time>
      </trkpt>
      <trkpt lat="-35.02708" lon="-58.145576">
        <time>2021-05-01T13:22:17Z</time>
      </trkpt>
      <trkpt lat="-35.027126" lon="-58.145622">
        <time>2021-05-01T13:22:18Z</time>
      </trkpt>
      <trkpt lat="-35.027164" lon="-58.14567">
        <time>2021-05-01T13:22:19Z</time>
      </trkpt>
      <trkpt lat="-35.027206" lon="-58.145714">
        <time>2021-05-01T13:22:20Z</time>
      </trkpt>
      <trkpt lat="-35.027252" lon="-58.14576">
        <time>2021-05-01T13:22:21Z</time>
      </trkpt>
      <trkpt lat="-35.027294" lon="-58.145805">
        <time>2021-05-01T13:22:22Z</time>
      </trkpt>
      <trkpt lat="-35.027336" lon="-58.145855">
        <time>2021-05-01T13:22:23Z</time>
      </trkpt>
      <trkpt lat="-35.027374" lon="-58.1459">
        <time>2021-05-01T13:22:24Z</time>
      </trkpt>
      <trkpt lat="-35.027416" lon="-58.145947">
        <time>2021-05-01T13:22:25Z</time>
      </trkpt>
      <trkpt lat="-35.02746" lon="-58.14599">
        <time>2021-05-01T13:22:26Z</time>
      </trkpt>
      <trkpt lat="-35.027496" lon="-58.14603">
        <time>2021-05-01T13:22:27Z</time>
      </trkpt>
      <trkpt lat="-35.02754" lon="-58.14607">
        <time>2021-05-01T13:22:28Z</time>
      </trkpt>
      <trkpt lat="-35.02758" lon="-58.14612">
        <time>2021-05-01T13:22:29Z</time>
      </trkpt>
      <trkpt lat="-35.02762" lon="-58.146164">
        <time>2021-05-01T13:22:30Z</time>
      </trkpt>
      <trkpt lat="-35.027657" lon="-58.146206">
        <time>2021-05-01T13:22:31Z</time>
      </trkpt>
      <trkpt lat="-35.027695" lon="-58.146244">
        <time>2021-05-01T13:22:32Z</time>
      </trkpt>
      <trkpt lat="-35.027733" lon="-58.146282">
        <time>2021-05-01T13:22:33Z</time>
      </trkpt>
      <trkpt lat="-35.027767" lon="-58.14632">
        <time>2021-05-01T13:22:34Z</time>
      </trkpt>
      <trkpt lat="-35.027805" lon="-58.146362">
        <time>2021-05-01T13:22:35Z</time>
      </trkpt>
      <trkpt lat="-35.027843" lon="-58.1464">
        <time>2021-05-01T13:22:36Z</time>
      </trkpt>
      <trkpt lat="-35.02788" lon="-58.14644">
        <time>2021-05-01T13:22:37Z</time>
      </trkpt>
      <trkpt lat="-35.027924" lon="-58.14648">
        <time>2021-05-01T13:22:38Z</time>
      </trkpt>
      <trkpt lat="-35.02796" lon="-58.14653">
        <time>2021-05-01T13:22:39Z</time>
      </trkpt>
      <trkpt lat="-35.028" lon="-58.146572">
        <time>2021-05-01T13:22:40Z</time>
      </trkpt>
      <trkpt lat="-35.028038" lon="-58.146606">
        <time>2021-05-01T13:22:41Z</time>
      </trkpt>
      <trkpt lat="-35.028114" lon="-58.146667">
        <time>2021-05-01T13:22:43Z</time>
      </trkpt>
      <trkpt lat="-35.028152" lon="-58.1467">
        <time>2021-05-01T13:22:44Z</time>
      </trkpt>
      <trkpt lat="-35.02819" lon="-58.146755">
        <time>2021-05-01T13:22:45Z</time>
      </trkpt>
      <trkpt lat="-35.028233" lon="-58.146805">
        <time>2021-05-01T13:22:46Z</time>
      </trkpt>
      <trkpt lat="-35.028275" lon="-58.146854">
        <time>2021-05-01T13:22:47Z</time>
      </trkpt>
      <trkpt lat="-35.028316" lon="-58.14691">
        <time>2021-05-01T13:22:48Z</time>
      </trkpt>
      <trkpt lat="-35.02836" lon="-58.146957">
        <time>2021-05-01T13:22:49Z</time>
      </trkpt>
      <trkpt lat="-35.028404" lon="-58.147">
        <time>2021-05-01T13:22:50Z</time>
      </trkpt>
      <trkpt lat="-35.028446" lon="-58.147045">
        <time>2021-05-01T13:22:51Z</time>
      </trkpt>
      <trkpt lat="-35.02849" lon="-58.147095">
        <time>2021-05-01T13:22:52Z</time>
      </trkpt>
      <trkpt lat="-35.028526" lon="-58.14714">
        <time>2021-05-01T13:22:53Z</time>
      </trkpt>
      <trkpt lat="-35.02856" lon="-58.147182">
        <time>2021-05-01T13:22:54Z</time>
      </trkpt>
      <trkpt lat="-35.0286" lon="-58.147224">
        <time>2021-05-01T13:22:55Z</time>
      </trkpt>
      <trkpt lat="-35.028645" lon="-58.147263">
        <time>2021-05-01T13:22:56Z</time>
      </trkpt>
      <trkpt lat="-35.02868" lon="-58.14731">
        <time>2021-05-01T13:22:57Z</time>
      </trkpt>
      <trkpt lat="-35.02872" lon="-58.14735">
        <time>2021-05-01T13:22:58Z</time>
      </trkpt>
      <trkpt lat="-35.02876" lon="-58.147392">
        <time>2021-05-01T13:22:59Z</time>
      </trkpt>
      <trkpt lat="-35.0288" lon="-58.147438">
        <time>2021-05-01T13:23:00Z</time>
      </trkpt>
      <trkpt lat="-35.028843" lon="-58.147488">
        <time>2021-05-01T13:23:01Z</time>
      </trkpt>
      <trkpt lat="-35.02888" lon="-58.14754">
        <time>2021-05-01T13:23:02Z</time>
      </trkpt>
      <trkpt lat="-35.028923" lon="-58.147583">
        <time>2021-05-01T13:23:03Z</time>
      </trkpt>
      <trkpt lat="-35.02896" lon="-58.14763">
        <time>2021-05-01T13:23:04Z</time>
      </trkpt>
      <trkpt lat="-35.029003" lon="-58.147675">
        <time>2021-05-01T13:23:05Z</time>
      </trkpt>
      <trkpt lat="-35.029045" lon="-58.147717">
        <time>2021-05-01T13:23:06Z</time>
      </trkpt>
      <trkpt lat="-35.029083" lon="-58.147762">
        <time>2021-05-01T13:23:07Z</time>
      </trkpt>
      <trkpt lat="-35.029125" lon="-58.147804">
        <time>2021-05-01T13:23:08Z</time>
      </trkpt>
      <trkpt lat="-35.029163" lon="-58.14785">
        <time>2021-05-01T13:23:09Z</time>
      </trkpt>
      <trkpt lat="-35.0292" lon="-58.147896">
        <time>2021-05-01T13:23:10Z</time>
      </trkpt>
      <trkpt lat="-35.029243" lon="-58.147938">
        <time>2021-05-01T13:23:11Z</time>
      </trkpt>
      <trkpt lat="-35.029285" lon="-58.147984">
        <time>2021-05-01T13:23:12Z</time>
      </trkpt>
      <trkpt lat="-35.029324" lon="-58.148037">
        <time>2021-05-01T13:23:13Z</time>
      </trkpt>
      <trkpt lat="-35.02936" lon="-58.148087">
        <time>2021-05-01T13:23:14Z</time>
      </trkpt>
      <trkpt lat="-35.029404" lon="-58.148136">
        <time>2021-05-01T13:23:15Z</time>
      </trkpt>
      <trkpt lat="-35.029446" lon="-58.148186">
        <time>2021-05-01T13:23:16Z</time>
      </trkpt>
      <trkpt lat="-35.029488" lon="-58.148235">
        <time>2021-05-01T13:23:17Z</time>
      </trkpt>
      <trkpt lat="-35.029526" lon="-58.14828">
        <time>2021-05-01T13:23:18Z</time>
      </trkpt>
      <trkpt lat="-35.029564" lon="-58.148327">
        <time>2021-05-01T13:23:19Z</time>
      </trkpt>
      <trkpt lat="-35.029602" lon="-58.148373">
        <time>2021-05-01T13:23:20Z</time>
      </trkpt>
      <trkpt lat="-35.029644" lon="-58.148415">
        <time>2021-05-01T13:23:21Z</time>
      </trkpt>
      <trkpt lat="-35.029686" lon="-58.14846">
        <time>2021-05-01T13:23:22Z</time>
      </trkpt>
      <trkpt lat="-35.029724" lon="-58.14851">
        <time>2021-05-01T13:23:23Z</time>
      </trkpt>
      <trkpt lat="-35.029766" lon="-58.148552">
        <time>2021-05-01T13:23:24Z</time>
      </trkpt>
      <trkpt lat="-35.029808" lon="-58.148598">
        <time>2021-05-01T13:23:25Z</time>
      </trkpt>
      <trkpt lat="-35.02985" lon="-58.14864">
        <time>2021-05-01T13:23:26Z</time>
      </trkpt>
      <trkpt lat="-35.02989" lon="-58.148685">
        <time>2021-05-01T13:23:27Z</time>
      </trkpt>
      <trkpt lat="-35.02993" lon="-58.14873">
        <time>2021-05-01T13:23:28Z</time>
      </trkpt>
      <trkpt lat="-35.02997" lon="-58.148777">
        <time>2021-05-01T13:23:29Z</time>
      </trkpt>
      <trkpt lat="-35.03001" lon="-58.148823">
        <time>2021-05-01T13:23:30Z</time>
      </trkpt>
      <trkpt lat="-35.03005" lon="-58.148865">
        <time>2021-05-01T13:23:31Z</time>
      </trkpt>
      <trkpt lat="-35.03009" lon="-58.148914">
        <time>2021-05-01T13:23:32Z</time>
      </trkpt>
      <trkpt lat="-35.03013" lon="-58.14896">
        <time>2021-05-01T13:23:33Z</time>
      </trkpt>
      <trkpt lat="-35.03017" lon="-58.149006">
        <time>2021-05-01T13:23:34Z</time>
      </trkpt>
      <trkpt lat="-35.030212" lon="-58.14905">
        <time>2021-05-01T13:23:35Z</time>
      </trkpt>
      <trkpt lat="-35.030254" lon="-58.149097">
        <time>2021-05-01T13:23:36Z</time>
      </trkpt>
      <trkpt lat="-35.030296" lon="-58.14914">
        <time>2021-05-01T13:23:37Z</time>
      </trkpt>
      <trkpt lat="-35.03034" lon="-58.149185">
        <time>2021-05-01T13:23:38Z</time>
      </trkpt>
      <trkpt lat="-35.030376" lon="-58.149227">
        <time>2021-05-01T13:23:39Z</time>
      </trkpt>
      <trkpt lat="-35.030415" lon="-58.14927">
        <time>2021-05-01T13:23:40Z</time>
      </trkpt>
      <trkpt lat="-35.030453" lon="-58.149315">
        <time>2021-05-01T13:23:41Z</time>
      </trkpt>
      <trkpt lat="-35.03049" lon="-58.149357">
        <time>2021-05-01T13:23:42Z</time>
      </trkpt>
      <trkpt lat="-35.03053" lon="-58.1494">
        <time>2021-05-01T13:23:43Z</time>
      </trkpt>
      <trkpt lat="-35.03057" lon="-58.149445">
        <time>2021-05-01T13:23:44Z</time>
      </trkpt>
      <trkpt lat="-35.03061" lon="-58.14949">
        <time>2021-05-01T13:23:45Z</time>
      </trkpt>
      <trkpt lat="-35.030647" lon="-58.149536">
        <time>2021-05-01T13:23:46Z</time>
      </trkpt>
      <trkpt lat="-35.030685" lon="-58.14958">
        <time>2021-05-01T13:23:47Z</time>
      </trkpt>
      <trkpt lat="-35.030727" lon="-58.14962">
        <time>2021-05-01T13:23:48Z</time>
      </trkpt>
      <trkpt lat="-35.030766" lon="-58.149666">
        <time>2021-05-01T13:23:49Z</time>
      </trkpt>
      <trkpt lat="-35.030804" lon="-58.14971">
        <time>2021-05-01T13:23:50Z</time>
      </trkpt>
      <trkpt lat="-35.03084" lon="-58.149757">
        <time>2021-05-01T13:23:51Z</time>
      </trkpt>
      <trkpt lat="-35.03088" lon="-58.149807">
        <time>2021-05-01T13:23:52Z</time>
      </trkpt>
      <trkpt lat="-35.03092" lon="-58.149853">
        <time>2021-05-01T13:23:53Z</time>
      </trkpt>
      <trkpt lat="-35.030952" lon="-58.1499">
        <time>2021-05-01T13:23:54Z</time>
      </trkpt>
      <trkpt lat="-35.03099" lon="-58.149944">
        <time>2021-05-01T13:23:55Z</time>
      </trkpt>
      <trkpt lat="-35.031033" lon="-58.14999">
        <time>2021-05-01T13:23:56Z</time>
      </trkpt>
      <trkpt lat="-35.03108" lon="-58.150032">
        <time>2021-05-01T13:23:57Z</time>
      </trkpt>
      <trkpt lat="-35.03112" lon="-58.150074">
        <time>2021-05-01T13:23:58Z</time>
      </trkpt>
      <trkpt lat="-35.03116" lon="-58.150116">
        <time>2021-05-01T13:23:59Z</time>
      </trkpt>
      <trkpt lat="-35.031197" lon="-58.150154">
        <time>2021-05-01T13:24:00Z</time>
      </trkpt>
      <trkpt lat="-35.03124" lon="-58.150196">
        <time>2021-05-01T13:24:01Z</time>
      </trkpt>
      <trkpt lat="-35.03128" lon="-58.150234">
        <time>2021-05-01T13:24:02Z</time>
      </trkpt>
      <trkpt lat="-35.031322" lon="-58.15028">
        <time>2021-05-01T13:24:03Z</time>
      </trkpt>
      <trkpt lat="-35.031364" lon="-58.15032">
        <time>2021-05-01T13:24:04Z</time>
      </trkpt>
      <trkpt lat="-35.031406" lon="-58.150364">
        <time>2021-05-01T13:24:05Z</time>
      </trkpt>
      <trkpt lat="-35.031445" lon="-58.15041">
        <time>2021-05-01T13:24:06Z</time>
      </trkpt>
      <trkpt lat="-35.031483" lon="-58.150455">
        <time>2021-05-01T13:24:07Z</time>
      </trkpt>
      <trkpt lat="-35.03152" lon="-58.1505">
        <time>2021-05-01T13:24:08Z</time>
      </trkpt>
      <trkpt lat="-35.03156" lon="-58.15055">
        <time>2021-05-01T13:24:09Z</time>
      </trkpt>
      <trkpt lat="-35.0316" lon="-58.150597">
        <time>2021-05-01T13:24:10Z</time>
      </trkpt>
      <trkpt lat="-35.03164" lon="-58.150642">
        <time>2021-05-01T13:24:11Z</time>
      </trkpt>
      <trkpt lat="-35.031677" lon="-58.15069">
        <time>2021-05-01T13:24:12Z</time>
      </trkpt>
      <trkpt lat="-35.031715" lon="-58.15073">
        <time>2021-05-01T13:24:13Z</time>
      </trkpt>
      <trkpt lat="-35.031754" lon="-58.15077">
        <time>2021-05-01T13:24:14Z</time>
      </trkpt>
      <trkpt lat="-35.031788" lon="-58.15081">
        <time>2021-05-01T13:24:15Z</time>
      </trkpt>
      <trkpt lat="-35.031826" lon="-58.150852">
        <time>2021-05-01T13:24:16Z</time>
      </trkpt>
      <trkpt lat="-35.031864" lon="-58.150894">
        <time>2021-05-01T13:24:17Z</time>
      </trkpt>
      <trkpt lat="-35.0319" lon="-58.150936">
        <time>2021-05-01T13:24:18Z</time>
      </trkpt>
      <trkpt lat="-35.031933" lon="-58.150974">
        <time>2021-05-01T13:24:19Z</time>
      </trkpt>
      <trkpt lat="-35.031967" lon="-58.151016">
        <time>2021-05-01T13:24:20Z</time>
      </trkpt>
      <trkpt lat="-35.032005" lon="-58.151054">
        <time>2021-05-01T13:24:21Z</time>
      </trkpt>
      <trkpt lat="-35.03204" lon="-58.151096">
        <time>2021-05-01T13:24:22Z</time>
      </trkpt>
      <trkpt lat="-35.03207" lon="-58.15114">
        <time>2021-05-01T13:24:23Z</time>
      </trkpt>
      <trkpt lat="-35.032104" lon="-58.151184">
        <time>2021-05-01T13:24:24Z</time>
      </trkpt>
      <trkpt lat="-35.032143" lon="-58.15123">
        <time>2021-05-01T13:24:25Z</time>
      </trkpt>
      <trkpt lat="-35.032177" lon="-58.151276">
        <time>2021-05-01T13:24:26Z</time>
      </trkpt>
      <trkpt lat="-35.03221" lon="-58.151325">
        <time>2021-05-01T13:24:27Z</time>
      </trkpt>
      <trkpt lat="-35.032246" lon="-58.15137">
        <time>2021-05-01T13:24:28Z</time>
      </trkpt>
      <trkpt lat="-35.032276" lon="-58.15142">
        <time>2021-05-01T13:24:29Z</time>
      </trkpt>
      <trkpt lat="-35.03231" lon="-58.151463">
        <time>2021-05-01T13:24:30Z</time>
      </trkpt>
      <trkpt lat="-35.032345" lon="-58.15151">
        <time>2021-05-01T13:24:31Z</time>
      </trkpt>
      <trkpt lat="-35.03238" lon="-58.15155">
        <time>2021-05-01T13:24:32Z</time>
      </trkpt>
      <trkpt lat="-35.032413" lon="-58.151592">
        <time>2021-05-01T13:24:33Z</time>
      </trkpt>
      <trkpt lat="-35.03245" lon="-58.151638">
        <time>2021-05-01T13:24:34Z</time>
      </trkpt>
      <trkpt lat="-35.032494" lon="-58.151676">
        <time>2021-05-01T13:24:35Z</time>
      </trkpt>
      <trkpt lat="-35.032536" lon="-58.15172">
        <time>2021-05-01T13:24:36Z</time>
      </trkpt>
      <trkpt lat="-35.032578" lon="-58.151756">
        <time>2021-05-01T13:24:37Z</time>
      </trkpt>
      <trkpt lat="-35.032616" lon="-58.1518">
        <time>2021-05-01T13:24:38Z</time>
      </trkpt>
      <trkpt lat="-35.032658" lon="-58.151836">
        <time>2021-05-01T13:24:39Z</time>
      </trkpt>
      <trkpt lat="-35.032696" lon="-58.151875">
        <time>2021-05-01T13:24:40Z</time>
      </trkpt>
      <trkpt lat="-35.032734" lon="-58.15192">
        <time>2021-05-01T13:24:41Z</time>
      </trkpt>
      <trkpt lat="-35.032772" lon="-58.151962">
        <time>2021-05-01T13:24:42Z</time>
      </trkpt>
      <trkpt lat="-35.032806" lon="-58.152008">
        <time>2021-05-01T13:24:43Z</time>
      </trkpt>
      <trkpt lat="-35.032845" lon="-58.15205">
        <time>2021-05-01T13:24:44Z</time>
      </trkpt>
      <trkpt lat="-35.032883" lon="-58.152092">
        <time>2021-05-01T13:24:45Z</time>
      </trkpt>
      <trkpt lat="-35.032925" lon="-58.152138">
        <time>2021-05-01T13:24:46Z</time>
      </trkpt>
      <trkpt lat="-35.032963" lon="-58.15218">
        <time>2021-05-01T13:24:47Z</time>
      </trkpt>
      <trkpt lat="-35.033" lon="-58.152225">
        <time>2021-05-01T13:24:48Z</time>
      </trkpt>
      <trkpt lat="-35.03304" lon="-58.152267">
        <time>2021-05-01T13:24:49Z</time>
      </trkpt>
      <trkpt lat="-35.03308" lon="-58.15231">
        <time>2021-05-01T13:24:50Z</time>
      </trkpt>
      <trkpt lat="-35.03312" lon="-58.15235">
        <time>2021-05-01T13:24:51Z</time>
      </trkpt>
      <trkpt lat="-35.033154" lon="-58.152397">
        <time>2021-05-01T13:24:52Z</time>
      </trkpt>
      <trkpt lat="-35.033188" lon="-58.152447">
        <time>2021-05-01T13:24:53Z</time>
      </trkpt>
      <trkpt lat="-35.033226" lon="-58.152493">
        <time>2021-05-01T13:24:54Z</time>
      </trkpt>
      <trkpt lat="-35.033264" lon="-58.152534">
        <time>2021-05-01T13:24:55Z</time>
      </trkpt>
      <trkpt lat="-35.033302" lon="-58.15258">
        <time>2021-05-01T13:24:56Z</time>
      </trkpt>
      <trkpt lat="-35.03334" lon="-58.152622">
        <time>2021-05-01T13:24:57Z</time>
      </trkpt>
      <trkpt lat="-35.03338" lon="-58.152664">
        <time>2021-05-01T13:24:58Z</time>
      </trkpt>
      <trkpt lat="-35.03342" lon="-58.15271">
        <time>2021-05-01T13:24:59Z</time>
      </trkpt>
      <trkpt lat="-35.033463" lon="-58.152752">
        <time>2021-05-01T13:25:00Z</time>
      </trkpt>
      <trkpt lat="-35.033504" lon="-58.152798">
        <time>2021-05-01T13:25:01Z</time>
      </trkpt>
      <trkpt lat="-35.033543" lon="-58.152843">
        <time>2021-05-01T13:25:02Z</time>
      </trkpt>
      <trkpt lat="-35.033585" lon="-58.15289">
        <time>2021-05-01T13:25:03Z</time>
      </trkpt>
      <trkpt lat="-35.033627" lon="-58.152935">
        <time>2021-05-01T13:25:04Z</time>
      </trkpt>
      <trkpt lat="-35.033665" lon="-58.15298">
        <time>2021-05-01T13:25:05Z</time>
      </trkpt>
      <trkpt lat="-35.033707" lon="-58.153027">
        <time>2021-05-01T13:25:06Z</time>
      </trkpt>
      <trkpt lat="-35.03375" lon="-58.153072">
        <time>2021-05-01T13:25:07Z</time>
      </trkpt>
      <trkpt lat="-35.03379" lon="-58.15312">
        <time>2021-05-01T13:25:08Z</time>
      </trkpt>
      <trkpt lat="-35.03383" lon="-58.153168">
        <time>2021-05-01T13:25:09Z</time>
      </trkpt>
      <trkpt lat="-35.03387" lon="-58.153214">
        <time>2021-05-01T13:25:10Z</time>
      </trkpt>
      <trkpt lat="-35.033913" lon="-58.15326">
        <time>2021-05-01T13:25:11Z</time>
      </trkpt>
      <trkpt lat="-35.033955" lon="-58.153305">
        <time>2021-05-01T13:25:12Z</time>
      </trkpt>
      <trkpt lat="-35.033993" lon="-58.153343">
        <time>2021-05-01T13:25:13Z</time>
      </trkpt>
      <trkpt lat="-35.03403" lon="-58.153385">
        <time>2021-05-01T13:25:14Z</time>
      </trkpt>
      <trkpt lat="-35.034073" lon="-58.153423">
        <time>2021-05-01T13:25:15Z</time>
      </trkpt>
      <trkpt lat="-35.034107" lon="-58.15347">
        <time>2021-05-01T13:25:16Z</time>
      </trkpt>
      <trkpt lat="-35.03415" lon="-58.15351">
        <time>2021-05-01T13:25:17Z</time>
      </trkpt>
      <trkpt lat="-35.034187" lon="-58.153557">
        <time>2021-05-01T13:25:18Z</time>
      </trkpt>
      <trkpt lat="-35.034225" lon="-58.153603">
        <time>2021-05-01T13:25:19Z</time>
      </trkpt>
      <trkpt lat="-35.034264" lon="-58.15365">
        <time>2021-05-01T13:25:20Z</time>
      </trkpt>
      <trkpt lat="-35.034298" lon="-58.153698">
        <time>2021-05-01T13:25:21Z</time>
      </trkpt>
      <trkpt lat="-35.03434" lon="-58.153744">
        <time>2021-05-01T13:25:22Z</time>
      </trkpt>
      <trkpt lat="-35.03438" lon="-58.153793">
        <time>2021-05-01T13:25:23Z</time>
      </trkpt>
      <trkpt lat="-35.034416" lon="-58.15384">
        <time>2021-05-01T13:25:24Z</time>
      </trkpt>
      <trkpt lat="-35.034454" lon="-58.153885">
        <time>2021-05-01T13:25:25Z</time>
      </trkpt>
      <trkpt lat="-35.034492" lon="-58.15393">
        <time>2021-05-01T13:25:26Z</time>
      </trkpt>
      <trkpt lat="-35.03453" lon="-58.153976">
        <time>2021-05-01T13:25:27Z</time>
      </trkpt>
      <trkpt lat="-35.034573" lon="-58.154015">
        <time>2021-05-01T13:25:28Z</time>
      </trkpt>
      <trkpt lat="-35.03461" lon="-58.154057">
        <time>2021-05-01T13:25:29Z</time>
      </trkpt>
      <trkpt lat="-35.034645" lon="-58.154102">
        <time>2021-05-01T13:25:30Z</time>
      </trkpt>
      <trkpt lat="-35.034683" lon="-58.154144">
        <time>2021-05-01T13:25:31Z</time>
      </trkpt>
      <trkpt lat="-35.034725" lon="-58.154186">
        <time>2021-05-01T13:25:32Z</time>
      </trkpt>
      <trkpt lat="-35.034767" lon="-58.15423">
        <time>2021-05-01T13:25:33Z</time>
      </trkpt>
      <trkpt lat="-35.03481" lon="-58.15427">
        <time>2021-05-01T13:25:34Z</time>
      </trkpt>
      <trkpt lat="-35.03485" lon="-58.154316">
        <time>2021-05-01T13:25:35Z</time>
      </trkpt>
      <trkpt lat="-35.034893" lon="-58.154358">
        <time>2021-05-01T13:25:36Z</time>
      </trkpt>
      <trkpt lat="-35.034935" lon="-58.154404">
        <time>2021-05-01T13:25:37Z</time>
      </trkpt>
      <trkpt lat="-35.034977" lon="-58.15445">
        <time>2021-05-01T13:25:38Z</time>
      </trkpt>
      <trkpt lat="-35.035015" lon="-58.154495">
        <time>2021-05-01T13:25:39Z</time>
      </trkpt>
      <trkpt lat="-35.035057" lon="-58.154545">
        <time>2021-05-01T13:25:40Z</time>
      </trkpt>
      <trkpt lat="-35.035095" lon="-58.15459">
        <time>2021-05-01T13:25:41Z</time>
      </trkpt>
      <trkpt lat="-35.035137" lon="-58.15464">
        <time>2021-05-01T13:25:42Z</time>
      </trkpt>
      <trkpt lat="-35.03518" lon="-58.15469">
        <time>2021-05-01T13:25:43Z</time>
      </trkpt>
      <trkpt lat="-35.035217" lon="-58.15474">
        <time>2021-05-01T13:25:44Z</time>
      </trkpt>
      <trkpt lat="-35.03526" lon="-58.15479">
        <time>2021-05-01T13:25:45Z</time>
      </trkpt>
      <trkpt lat="-35.0353" lon="-58.154842">
        <time>2021-05-01T13:25:46Z</time>
      </trkpt>
      <trkpt lat="-35.03534" lon="-58.15489">
        <time>2021-05-01T13:25:47Z</time>
      </trkpt>
      <trkpt lat="-35.03538" lon="-58.154934">
        <time>2021-05-01T13:25:48Z</time>
      </trkpt>
      <trkpt lat="-35.035423" lon="-58.154984">
        <time>2021-05-01T13:25:49Z</time>
      </trkpt>
      <trkpt lat="-35.03546" lon="-58.15503">
        <time>2021-05-01T13:25:50Z</time>
      </trkpt>
      <trkpt lat="-35.035503" lon="-58.155075">
        <time>2021-05-01T13:25:51Z</time>
      </trkpt>
      <trkpt lat="-35.035545" lon="-58.15512">
        <time>2021-05-01T13:25:52Z</time>
      </trkpt>
      <trkpt lat="-35.035587" lon="-58.155167">
        <time>2021-05-01T13:25:53Z</time>
      </trkpt>
      <trkpt lat="-35.035625" lon="-58.155212">
        <time>2021-05-01T13:25:54Z</time>
      </trkpt>
      <trkpt lat="-35.035667" lon="-58.15526">
        <time>2021-05-01T13:25:55Z</time>
      </trkpt>
      <trkpt lat="-35.035706" lon="-58.155304">
        <time>2021-05-01T13:25:56Z</time>
      </trkpt>
      <trkpt lat="-35.035748" lon="-58.155346">
        <time>2021-05-01T13:25:57Z</time>
      </trkpt>
      <trkpt lat="-35.03579" lon="-58.15539">
        <time>2021-05-01T13:25:58Z</time>
      </trkpt>
      <trkpt lat="-35.035828" lon="-58.155437">
        <time>2021-05-01T13:25:59Z</time>
      </trkpt>
      <trkpt lat="-35.035873" lon="-58.15548">
        <time>2021-05-01T13:26:00Z</time>
      </trkpt>
      <trkpt lat="-35.035915" lon="-58.155525">
        <time>2021-05-01T13:26:01Z</time>
      </trkpt>
      <trkpt lat="-35.035957" lon="-58.15557">
        <time>2021-05-01T13:26:02Z</time>
      </trkpt>
      <trkpt lat="-35.036" lon="-58.155613">
        <time>2021-05-01T13:26:03Z</time>
      </trkpt>
      <trkpt lat="-35.03604" lon="-58.15566">
        <time>2021-05-01T13:26:04Z</time>
      </trkpt>
      <trkpt lat="-35.036083" lon="-58.155704">
        <time>2021-05-01T13:26:05Z</time>
      </trkpt>
      <trkpt lat="-35.03612" lon="-58.155746">
        <time>2021-05-01T13:26:06Z</time>
      </trkpt>
      <trkpt lat="-35.036163" lon="-58.155785">
        <time>2021-05-01T13:26:07Z</time>
      </trkpt>
      <trkpt lat="-35.0362" lon="-58.155827">
        <time>2021-05-01T13:26:08Z</time>
      </trkpt>
      <trkpt lat="-35.03624" lon="-58.15587">
        <time>2021-05-01T13:26:09Z</time>
      </trkpt>
      <trkpt lat="-35.036278" lon="-58.15591">
        <time>2021-05-01T13:26:10Z</time>
      </trkpt>
      <trkpt lat="-35.03632" lon="-58.155952">
        <time>2021-05-01T13:26:11Z</time>
      </trkpt>
      <trkpt lat="-35.03636" lon="-58.15599">
        <time>2021-05-01T13:26:12Z</time>
      </trkpt>
      <trkpt lat="-35.036404" lon="-58.156033">
        <time>2021-05-01T13:26:13Z</time>
      </trkpt>
      <trkpt lat="-35.03644" lon="-58.156075">
        <time>2021-05-01T13:26:14Z</time>
      </trkpt>
      <trkpt lat="-35.036484" lon="-58.15612">
        <time>2021-05-01T13:26:15Z</time>
      </trkpt>
      <trkpt lat="-35.036526" lon="-58.156162">
        <time>2021-05-01T13:26:16Z</time>
      </trkpt>
      <trkpt lat="-35.036568" lon="-58.156208">
        <time>2021-05-01T13:26:17Z</time>
      </trkpt>
      <trkpt lat="-35.03661" lon="-58.156254">
        <time>2021-05-01T13:26:18Z</time>
      </trkpt>
      <trkpt lat="-35.03665" lon="-58.156296">
        <time>2021-05-01T13:26:19Z</time>
      </trkpt>
      <trkpt lat="-35.036694" lon="-58.156338">
        <time>2021-05-01T13:26:20Z</time>
      </trkpt>
      <trkpt lat="-35.03673" lon="-58.15638">
        <time>2021-05-01T13:26:21Z</time>
      </trkpt>
      <trkpt lat="-35.036774" lon="-58.15642">
        <time>2021-05-01T13:26:22Z</time>
      </trkpt>
      <trkpt lat="-35.03681" lon="-58.156467">
        <time>2021-05-01T13:26:23Z</time>
      </trkpt>
      <trkpt lat="-35.03685" lon="-58.156513">
        <time>2021-05-01T13:26:24Z</time>
      </trkpt>
      <trkpt lat="-35.036892" lon="-58.15656">
        <time>2021-05-01T13:26:25Z</time>
      </trkpt>
      <trkpt lat="-35.03693" lon="-58.1566">
        <time>2021-05-01T13:26:26Z</time>
      </trkpt>
      <trkpt lat="-35.036972" lon="-58.156643">
        <time>2021-05-01T13:26:27Z</time>
      </trkpt>
      <trkpt lat="-35.037006" lon="-58.156685">
        <time>2021-05-01T13:26:28Z</time>
      </trkpt>
      <trkpt lat="-35.037045" lon="-58.156723">
        <time>2021-05-01T13:26:29Z</time>
      </trkpt>
      <trkpt lat="-35.037083" lon="-58.156765">
        <time>2021-05-01T13:26:30Z</time>
      </trkpt>
      <trkpt lat="-35.03712" lon="-58.156815">
        <time>2021-05-01T13:26:31Z</time>
      </trkpt>
      <trkpt lat="-35.037163" lon="-58.15686">
        <time>2021-05-01T13:26:32Z</time>
      </trkpt>
      <trkpt lat="-35.037205" lon="-58.156902">
        <time>2021-05-01T13:26:33Z</time>
      </trkpt>
      <trkpt lat="-35.037247" lon="-58.156948">
        <time>2021-05-01T13:26:34Z</time>
      </trkpt>
      <trkpt lat="-35.037285" lon="-58.156994">
        <time>2021-05-01T13:26:35Z</time>
      </trkpt>
      <trkpt lat="-35.037327" lon="-58.157036">
        <time>2021-05-01T13:26:36Z</time>
      </trkpt>
      <trkpt lat="-35.03737" lon="-58.15708">
        <time>2021-05-01T13:26:37Z</time>
      </trkpt>
      <trkpt lat="-35.037407" lon="-58.157127">
        <time>2021-05-01T13:26:38Z</time>
      </trkpt>
      <trkpt lat="-35.037445" lon="-58.157177">
        <time>2021-05-01T13:26:39Z</time>
      </trkpt>
      <trkpt lat="-35.037487" lon="-58.15722">
        <time>2021-05-01T13:26:40Z</time>
      </trkpt>
      <trkpt lat="-35.037525" lon="-58.15726">
        <time>2021-05-01T13:26:41Z</time>
      </trkpt>
      <trkpt lat="-35.037563" lon="-58.157307">
        <time>2021-05-01T13:26:42Z</time>
      </trkpt>
      <trkpt lat="-35.037605" lon="-58.157352">
        <time>2021-05-01T13:26:43Z</time>
      </trkpt>
      <trkpt lat="-35.037643" lon="-58.1574">
        <time>2021-05-01T13:26:44Z</time>
      </trkpt>
      <trkpt lat="-35.03768" lon="-58.157444">
        <time>2021-05-01T13:26:45Z</time>
      </trkpt>
      <trkpt lat="-35.03772" lon="-58.15749">
        <time>2021-05-01T13:26:46Z</time>
      </trkpt>
      <trkpt lat="-35.037758" lon="-58.157536">
        <time>2021-05-01T13:26:47Z</time>
      </trkpt>
      <trkpt lat="-35.037796" lon="-58.157574">
        <time>2021-05-01T13:26:48Z</time>
      </trkpt>
      <trkpt lat="-35.037834" lon="-58.15762">
        <time>2021-05-01T13:26:49Z</time>
      </trkpt>
      <trkpt lat="-35.037876" lon="-58.15766">
        <time>2021-05-01T13:26:50Z</time>
      </trkpt>
      <trkpt lat="-35.037918" lon="-58.157707">
        <time>2021-05-01T13:26:51Z</time>
      </trkpt>
      <trkpt lat="-35.037956" lon="-58.157757">
        <time>2021-05-01T13:26:52Z</time>
      </trkpt>
      <trkpt lat="-35.037994" lon="-58.157803">
        <time>2021-05-01T13:26:53Z</time>
      </trkpt>
      <trkpt lat="-35.038036" lon="-58.15785">
        <time>2021-05-01T13:26:54Z</time>
      </trkpt>
      <trkpt lat="-35.038074" lon="-58.157894">
        <time>2021-05-01T13:26:55Z</time>
      </trkpt>
      <trkpt lat="-35.038116" lon="-58.157936">
        <time>2021-05-01T13:26:56Z</time>
      </trkpt>
      <trkpt lat="-35.03816" lon="-58.15798">
        <time>2021-05-01T13:26:57Z</time>
      </trkpt>
      <trkpt lat="-35.0382" lon="-58.158028">
        <time>2021-05-01T13:26:58Z</time>
      </trkpt>
      <trkpt lat="-35.03824" lon="-58.158077">
        <time>2021-05-01T13:26:59Z</time>
      </trkpt>
      <trkpt lat="-35.03828" lon="-58.158123">
        <time>2021-05-01T13:27:00Z</time>
      </trkpt>
      <trkpt lat="-35.038322" lon="-58.158165">
        <time>2021-05-01T13:27:01Z</time>
      </trkpt>
      <trkpt lat="-35.038364" lon="-58.15821">
        <time>2021-05-01T13:27:02Z</time>
      </trkpt>
      <trkpt lat="-35.038406" lon="-58.158253">
        <time>2021-05-01T13:27:03Z</time>
      </trkpt>
      <trkpt lat="-35.038445" lon="-58.1583">
        <time>2021-05-01T13:27:04Z</time>
      </trkpt>
      <trkpt lat="-35.038486" lon="-58.15834">
        <time>2021-05-01T13:27:05Z</time>
      </trkpt>
      <trkpt lat="-35.038525" lon="-58.158386">
        <time>2021-05-01T13:27:06Z</time>
      </trkpt>
      <trkpt lat="-35.038563" lon="-58.158432">
        <time>2021-05-01T13:27:07Z</time>
      </trkpt>
      <trkpt lat="-35.0386" lon="-58.158478">
        <time>2021-05-01T13:27:08Z</time>
      </trkpt>
      <trkpt lat="-35.038643" lon="-58.15852">
        <time>2021-05-01T13:27:09Z</time>
      </trkpt>
      <trkpt lat="-35.03868" lon="-58.15857">
        <time>2021-05-01T13:27:10Z</time>
      </trkpt>
      <trkpt lat="-35.03872" lon="-58.15861">
        <time>2021-05-01T13:27:11Z</time>
      </trkpt>
      <trkpt lat="-35.038757" lon="-58.15866">
        <time>2021-05-01T13:27:12Z</time>
      </trkpt>
      <trkpt lat="-35.0388" lon="-58.158707">
        <time>2021-05-01T13:27:13Z</time>
      </trkpt>
      <trkpt lat="-35.03884" lon="-58.158752">
        <time>2021-05-01T13:27:14Z</time>
      </trkpt>
      <trkpt lat="-35.038883" lon="-58.158802">
        <time>2021-05-01T13:27:15Z</time>
      </trkpt>
      <trkpt lat="-35.038925" lon="-58.158848">
        <time>2021-05-01T13:27:16Z</time>
      </trkpt>
      <trkpt lat="-35.038967" lon="-58.158897">
        <time>2021-05-01T13:27:17Z</time>
      </trkpt>
      <trkpt lat="-35.03901" lon="-58.158943">
        <time>2021-05-01T13:27:18Z</time>
      </trkpt>
      <trkpt lat="-35.03905" lon="-58.15899">
        <time>2021-05-01T13:27:19Z</time>
      </trkpt>
      <trkpt lat="-35.039093" lon="-58.159035">
        <time>2021-05-01T13:27:20Z</time>
      </trkpt>
      <trkpt lat="-35.039135" lon="-58.15908">
        <time>2021-05-01T13:27:21Z</time>
      </trkpt>
      <trkpt lat="-35.039177" lon="-58.15913">
        <time>2021-05-01T13:27:22Z</time>
      </trkpt>
      <trkpt lat="-35.039223" lon="-58.159176">
        <time>2021-05-01T13:27:23Z</time>
      </trkpt>
      <trkpt lat="-35.039265" lon="-58.15922">
        <time>2021-05-01T13:27:24Z</time>
      </trkpt>
      <trkpt lat="-35.039307" lon="-58.159264">
        <time>2021-05-01T13:27:25Z</time>
      </trkpt>
      <trkpt lat="-35.039345" lon="-58.1593">
        <time>2021-05-01T13:27:26Z</time>
      </trkpt>
      <trkpt lat="-35.03938" lon="-58.159348">
        <time>2021-05-01T13:27:27Z</time>
      </trkpt>
      <trkpt lat="-35.039417" lon="-58.159386">
        <time>2021-05-01T13:27:28Z</time>
      </trkpt>
      <trkpt lat="-35.03945" lon="-58.159424">
        <time>2021-05-01T13:27:29Z</time>
      </trkpt>
      <trkpt lat="-35.039486" lon="-58.159462">
        <time>2021-05-01T13:27:30Z</time>
      </trkpt>
      <trkpt lat="-35.039547" lon="-58.159542">
        <time>2021-05-01T13:27:32Z</time>
      </trkpt>
      <trkpt lat="-35.03961" lon="-58.15961">
        <time>2021-05-01T13:27:34Z</time>
      </trkpt>
      <trkpt lat="-35.039673" lon="-58.15969">
        <time>2021-05-01T13:27:36Z</time>
      </trkpt>
      <trkpt lat="-35.039738" lon="-58.159763">
        <time>2021-05-01T13:27:38Z</time>
      </trkpt>
      <trkpt lat="-35.039803" lon="-58.15984">
        <time>2021-05-01T13:27:40Z</time>
      </trkpt>
      <trkpt lat="-35.039837" lon="-58.159874">
        <time>2021-05-01T13:27:41Z</time>
      </trkpt>
      <trkpt lat="-35.03987" lon="-58.159916">
        <time>2021-05-01T13:27:42Z</time>
      </trkpt>
      <trkpt lat="-35.03991" lon="-58.159954">
        <time>2021-05-01T13:27:43Z</time>
      </trkpt>
      <trkpt lat="-35.039944" lon="-58.159992">
        <time>2021-05-01T13:27:44Z</time>
      </trkpt>
      <trkpt lat="-35.039978" lon="-58.16003">
        <time>2021-05-01T13:27:45Z</time>
      </trkpt>
      <trkpt lat="-35.040012" lon="-58.160072">
        <time>2021-05-01T13:27:46Z</time>
      </trkpt>
      <trkpt lat="-35.040047" lon="-58.16011">
        <time>2021-05-01T13:27:47Z</time>
      </trkpt>
      <trkpt lat="-35.04008" lon="-58.16015">
        <time>2021-05-01T13:27:48Z</time>
      </trkpt>
      <trkpt lat="-35.040115" lon="-58.16019">
        <time>2021-05-01T13:27:49Z</time>
      </trkpt>
      <trkpt lat="-35.040154" lon="-58.16023">
        <time>2021-05-01T13:27:50Z</time>
      </trkpt>
      <trkpt lat="-35.040188" lon="-58.160267">
        <time>2021-05-01T13:27:51Z</time>
      </trkpt>
      <trkpt lat="-35.040226" lon="-58.160305">
        <time>2021-05-01T13:27:52Z</time>
      </trkpt>
      <trkpt lat="-35.040264" lon="-58.16034">
        <time>2021-05-01T13:27:53Z</time>
      </trkpt>
      <trkpt lat="-35.040302" lon="-58.160374">
        <time>2021-05-01T13:27:54Z</time>
      </trkpt>
      <trkpt lat="-35.040337" lon="-58.160408">
        <time>2021-05-01T13:27:55Z</time>
      </trkpt>
      <trkpt lat="-35.0404" lon="-58.16048">
        <time>2021-05-01T13:27:57Z</time>
      </trkpt>
      <trkpt lat="-35.04044" lon="-58.160515">
        <time>2021-05-01T13:27:58Z</time>
      </trkpt>
      <trkpt lat="-35.040474" lon="-58.160553">
        <time>2021-05-01T13:27:59Z</time>
      </trkpt>
      <trkpt lat="-35.04051" lon="-58.160595">
        <time>2021-05-01T13:28:00Z</time>
      </trkpt>
      <trkpt lat="-35.040546" lon="-58.160637">
        <time>2021-05-01T13:28:01Z</time>
      </trkpt>
      <trkpt lat="-35.04058" lon="-58.160675">
        <time>2021-05-01T13:28:02Z</time>
      </trkpt>
      <trkpt lat="-35.040623" lon="-58.160717">
        <time>2021-05-01T13:28:03Z</time>
      </trkpt>
      <trkpt lat="-35.040665" lon="-58.160755">
        <time>2021-05-01T13:28:04Z</time>
      </trkpt>
      <trkpt lat="-35.0407" lon="-58.160797">
        <time>2021-05-01T13:28:05Z</time>
      </trkpt>
      <trkpt lat="-35.040733" lon="-58.160843">
        <time>2021-05-01T13:28:06Z</time>
      </trkpt>
      <trkpt lat="-35.040768" lon="-58.160892">
        <time>2021-05-01T13:28:07Z</time>
      </trkpt>
      <trkpt lat="-35.040802" lon="-58.16094">
        <time>2021-05-01T13:28:08Z</time>
      </trkpt>
      <trkpt lat="-35.040836" lon="-58.160984">
        <time>2021-05-01T13:28:09Z</time>
      </trkpt>
      <trkpt lat="-35.040874" lon="-58.161026">
        <time>2021-05-01T13:28:10Z</time>
      </trkpt>
      <trkpt lat="-35.04091" lon="-58.161068">
        <time>2021-05-01T13:28:11Z</time>
      </trkpt>
      <trkpt lat="-35.040947" lon="-58.161106">
        <time>2021-05-01T13:28:12Z</time>
      </trkpt>
      <trkpt lat="-35.040985" lon="-58.161148">
        <time>2021-05-01T13:28:13Z</time>
      </trkpt>
      <trkpt lat="-35.041023" lon="-58.16119">
        <time>2021-05-01T13:28:14Z</time>
      </trkpt>
      <trkpt lat="-35.041107" lon="-58.161266">
        <time>2021-05-01T13:28:15Z</time>
      </trkpt>
      <trkpt lat="-35.04115" lon="-58.161304">
        <time>2021-05-01T13:28:16Z</time>
      </trkpt>
      <trkpt lat="-35.041187" lon="-58.16134">
        <time>2021-05-01T13:28:17Z</time>
      </trkpt>
      <trkpt lat="-35.04123" lon="-58.161373">
        <time>2021-05-01T13:28:18Z</time>
      </trkpt>
      <trkpt lat="-35.04127" lon="-58.161415">
        <time>2021-05-01T13:28:19Z</time>
      </trkpt>
      <trkpt lat="-35.041306" lon="-58.161465">
        <time>2021-05-01T13:28:20Z</time>
      </trkpt>
      <trkpt lat="-35.041336" lon="-58.16151">
        <time>2021-05-01T13:28:21Z</time>
      </trkpt>
      <trkpt lat="-35.041367" lon="-58.161556">
        <time>2021-05-01T13:28:22Z</time>
      </trkpt>
      <trkpt lat="-35.0414" lon="-58.161602">
        <time>2021-05-01T13:28:23Z</time>
      </trkpt>
      <trkpt lat="-35.041435" lon="-58.161648">
        <time>2021-05-01T13:28:24Z</time>
      </trkpt>
      <trkpt lat="-35.041473" lon="-58.161697">
        <time>2021-05-01T13:28:25Z</time>
      </trkpt>
      <trkpt lat="-35.04151" lon="-58.161743">
        <time>2021-05-01T13:28:26Z</time>
      </trkpt>
      <trkpt lat="-35.041553" lon="-58.16179">
        <time>2021-05-01T13:28:27Z</time>
      </trkpt>
      <trkpt lat="-35.041595" lon="-58.16183">
        <time>2021-05-01T13:28:28Z</time>
      </trkpt>
      <trkpt lat="-35.041637" lon="-58.161877">
        <time>2021-05-01T13:28:29Z</time>
      </trkpt>
      <trkpt lat="-35.04168" lon="-58.16192">
        <time>2021-05-01T13:28:30Z</time>
      </trkpt>
      <trkpt lat="-35.041718" lon="-58.16196">
        <time>2021-05-01T13:28:31Z</time>
      </trkpt>
      <trkpt lat="-35.041756" lon="-58.162003">
        <time>2021-05-01T13:28:32Z</time>
      </trkpt>
      <trkpt lat="-35.041794" lon="-58.16205">
        <time>2021-05-01T13:28:33Z</time>
      </trkpt>
      <trkpt lat="-35.041832" lon="-58.162094">
        <time>2021-05-01T13:28:34Z</time>
      </trkpt>
      <trkpt lat="-35.04187" lon="-58.16214">
        <time>2021-05-01T13:28:35Z</time>
      </trkpt>
      <trkpt lat="-35.04191" lon="-58.16219">
        <time>2021-05-01T13:28:36Z</time>
      </trkpt>
      <trkpt lat="-35.041946" lon="-58.16224">
        <time>2021-05-01T13:28:37Z</time>
      </trkpt>
      <trkpt lat="-35.041985" lon="-58.162285">
        <time>2021-05-01T13:28:38Z</time>
      </trkpt>
      <trkpt lat="-35.042027" lon="-58.16233">
        <time>2021-05-01T13:28:39Z</time>
      </trkpt>
      <trkpt lat="-35.04207" lon="-58.162376">
        <time>2021-05-01T13:28:40Z</time>
      </trkpt>
      <trkpt lat="-35.04211" lon="-58.162422">
        <time>2021-05-01T13:28:41Z</time>
      </trkpt>
      <trkpt lat="-35.042152" lon="-58.162468">
        <time>2021-05-01T13:28:42Z</time>
      </trkpt>
      <trkpt lat="-35.042194" lon="-58.162514">
        <time>2021-05-01T13:28:43Z</time>
      </trkpt>
      <trkpt lat="-35.042236" lon="-58.16256">
        <time>2021-05-01T13:28:44Z</time>
      </trkpt>
      <trkpt lat="-35.042274" lon="-58.1626">
        <time>2021-05-01T13:28:45Z</time>
      </trkpt>
      <trkpt lat="-35.042316" lon="-58.162647">
        <time>2021-05-01T13:28:46Z</time>
      </trkpt>
      <trkpt lat="-35.04236" lon="-58.162693">
        <time>2021-05-01T13:28:47Z</time>
      </trkpt>
      <trkpt lat="-35.0424" lon="-58.162735">
        <time>2021-05-01T13:28:48Z</time>
      </trkpt>
      <trkpt lat="-35.04244" lon="-58.162777">
        <time>2021-05-01T13:28:49Z</time>
      </trkpt>
      <trkpt lat="-35.04248" lon="-58.162823">
        <time>2021-05-01T13:28:50Z</time>
      </trkpt>
      <trkpt lat="-35.042522" lon="-58.162865">
        <time>2021-05-01T13:28:51Z</time>
      </trkpt>
      <trkpt lat="-35.042564" lon="-58.162914">
        <time>2021-05-01T13:28:52Z</time>
      </trkpt>
      <trkpt lat="-35.042606" lon="-58.16296">
        <time>2021-05-01T13:28:53Z</time>
      </trkpt>
      <trkpt lat="-35.04265" lon="-58.16301">
        <time>2021-05-01T13:28:54Z</time>
      </trkpt>
      <trkpt lat="-35.04269" lon="-58.163055">
        <time>2021-05-01T13:28:55Z</time>
      </trkpt>
      <trkpt lat="-35.04273" lon="-58.1631">
        <time>2021-05-01T13:28:56Z</time>
      </trkpt>
      <trkpt lat="-35.04277" lon="-58.16315">
        <time>2021-05-01T13:28:57Z</time>
      </trkpt>
      <trkpt lat="-35.042812" lon="-58.1632">
        <time>2021-05-01T13:28:58Z</time>
      </trkpt>
      <trkpt lat="-35.04286" lon="-58.163246">
        <time>2021-05-01T13:28:59Z</time>
      </trkpt>
      <trkpt lat="-35.042896" lon="-58.163296">
        <time>2021-05-01T13:29:00Z</time>
      </trkpt>
      <trkpt lat="-35.04294" lon="-58.163345">
        <time>2021-05-01T13:29:01Z</time>
      </trkpt>
      <trkpt lat="-35.04298" lon="-58.163395">
        <time>2021-05-01T13:29:02Z</time>
      </trkpt>
      <trkpt lat="-35.043022" lon="-58.16344">
        <time>2021-05-01T13:29:03Z</time>
      </trkpt>
      <trkpt lat="-35.043064" lon="-58.16349">
        <time>2021-05-01T13:29:04Z</time>
      </trkpt>
      <trkpt lat="-35.04311" lon="-58.163536">
        <time>2021-05-01T13:29:05Z</time>
      </trkpt>
      <trkpt lat="-35.04315" lon="-58.16358">
        <time>2021-05-01T13:29:06Z</time>
      </trkpt>
      <trkpt lat="-35.04319" lon="-58.163628">
        <time>2021-05-01T13:29:07Z</time>
      </trkpt>
      <trkpt lat="-35.04323" lon="-58.163673">
        <time>2021-05-01T13:29:08Z</time>
      </trkpt>
      <trkpt lat="-35.04327" lon="-58.163723">
        <time>2021-05-01T13:29:09Z</time>
      </trkpt>
      <trkpt lat="-35.043312" lon="-58.163773">
        <time>2021-05-01T13:29:10Z</time>
      </trkpt>
      <trkpt lat="-35.043358" lon="-58.163822">
        <time>2021-05-01T13:29:11Z</time>
      </trkpt>
      <trkpt lat="-35.0434" lon="-58.163868">
        <time>2021-05-01T13:29:12Z</time>
      </trkpt>
      <trkpt lat="-35.04344" lon="-58.163918">
        <time>2021-05-01T13:29:13Z</time>
      </trkpt>
      <trkpt lat="-35.04348" lon="-58.16396">
        <time>2021-05-01T13:29:14Z</time>
      </trkpt>
      <trkpt lat="-35.04352" lon="-58.16401">
        <time>2021-05-01T13:29:15Z</time>
      </trkpt>
      <trkpt lat="-35.043564" lon="-58.164055">
        <time>2021-05-01T13:29:16Z</time>
      </trkpt>
      <trkpt lat="-35.043606" lon="-58.1641">
        <time>2021-05-01T13:29:17Z</time>
      </trkpt>
      <trkpt lat="-35.043644" lon="-58.164143">
        <time>2021-05-01T13:29:18Z</time>
      </trkpt>
      <trkpt lat="-35.043686" lon="-58.164185">
        <time>2021-05-01T13:29:19Z</time>
      </trkpt>
      <trkpt lat="-35.043728" lon="-58.16422">
        <time>2021-05-01T13:29:20Z</time>
      </trkpt>
      <trkpt lat="-35.043766" lon="-58.16425">
        <time>2021-05-01T13:29:21Z</time>
      </trkpt>
      <trkpt lat="-35.043808" lon="-58.16428">
        <time>2021-05-01T13:29:22Z</time>
      </trkpt>
      <trkpt lat="-35.043842" lon="-58.164314">
        <time>2021-05-01T13:29:23Z</time>
      </trkpt>
      <trkpt lat="-35.0439" lon="-58.164383">
        <time>2021-05-01T13:29:25Z</time>
      </trkpt>
      <trkpt lat="-35.043934" lon="-58.164448">
        <time>2021-05-01T13:29:27Z</time>
      </trkpt>
      <trkpt lat="-35.04394" lon="-58.164463">
        <time>2021-05-01T13:30:56Z</time>
      </trkpt>
      <trkpt lat="-35.04394" lon="-58.164463">
        <time>2021-05-01T13:31:06Z</time>
      </trkpt>
      <trkpt lat="-35.04394" lon="-58.164463">
        <time>2021-05-01T13:31:16Z</time>
      </trkpt>
      <trkpt lat="-35.04394" lon="-58.164463">
        <time>2021-05-01T13:31:26Z</time>
      </trkpt>
      <trkpt lat="-35.04394" lon="-58.164463">
        <time>2021-05-01T13:31:36Z</time>
      </trkpt>
      <trkpt lat="-35.04394" lon="-58.164463">
        <time>2021-05-01T13:31:46Z</time>
      </trkpt>
      <trkpt lat="-35.04394" lon="-58.164463">
        <time>2021-05-01T13:31:56Z</time>
      </trkpt>
      <trkpt lat="-35.04394" lon="-58.164463">
        <time>2021-05-01T13:32:06Z</time>
      </trkpt>
      <trkpt lat="-35.04394" lon="-58.164463">
        <time>2021-05-01T13:32:16Z</time>
      </trkpt>
      <trkpt lat="-35.04394" lon="-58.164463">
        <time>2021-05-01T13:32:26Z</time>
      </trkpt>
      <trkpt lat="-35.04394" lon="-58.164463">
        <time>2021-05-01T13:32:36Z</time>
      </trkpt>
      <trkpt lat="-35.04393" lon="-58.164516">
        <time>2021-05-01T13:32:45Z</time>
      </trkpt>
      <trkpt lat="-35.04393" lon="-58.16459">
        <time>2021-05-01T13:32:48Z</time>
      </trkpt>
      <trkpt lat="-35.04393" lon="-58.164646">
        <time>2021-05-01T13:32:50Z</time>
      </trkpt>
      <trkpt lat="-35.043922" lon="-58.16473">
        <time>2021-05-01T13:32:52Z</time>
      </trkpt>
      <trkpt lat="-35.04391" lon="-58.164833">
        <time>2021-05-01T13:32:54Z</time>
      </trkpt>
      <trkpt lat="-35.043907" lon="-58.16489">
        <time>2021-05-01T13:32:55Z</time>
      </trkpt>
      <trkpt lat="-35.0439" lon="-58.164948">
        <time>2021-05-01T13:32:56Z</time>
      </trkpt>
      <trkpt lat="-35.04389" lon="-58.16501">
        <time>2021-05-01T13:32:57Z</time>
      </trkpt>
      <trkpt lat="-35.043884" lon="-58.16507">
        <time>2021-05-01T13:32:58Z</time>
      </trkpt>
      <trkpt lat="-35.043884" lon="-58.16514">
        <time>2021-05-01T13:32:59Z</time>
      </trkpt>
      <trkpt lat="-35.043877" lon="-58.165203">
        <time>2021-05-01T13:33:00Z</time>
      </trkpt>
      <trkpt lat="-35.043865" lon="-58.16527">
        <time>2021-05-01T13:33:01Z</time>
      </trkpt>
      <trkpt lat="-35.043854" lon="-58.165337">
        <time>2021-05-01T13:33:02Z</time>
      </trkpt>
      <trkpt lat="-35.043842" lon="-58.16541">
        <time>2021-05-01T13:33:03Z</time>
      </trkpt>
      <trkpt lat="-35.043835" lon="-58.165478">
        <time>2021-05-01T13:33:04Z</time>
      </trkpt>
      <trkpt lat="-35.043827" lon="-58.165546">
        <time>2021-05-01T13:33:05Z</time>
      </trkpt>
      <trkpt lat="-35.043823" lon="-58.16562">
        <time>2021-05-01T13:33:06Z</time>
      </trkpt>
      <trkpt lat="-35.04381" lon="-58.16569">
        <time>2021-05-01T13:33:07Z</time>
      </trkpt>
      <trkpt lat="-35.0438" lon="-58.16576">
        <time>2021-05-01T13:33:08Z</time>
      </trkpt>
      <trkpt lat="-35.04379" lon="-58.165833">
        <time>2021-05-01T13:33:09Z</time>
      </trkpt>
      <trkpt lat="-35.04378" lon="-58.1659">
        <time>2021-05-01T13:33:10Z</time>
      </trkpt>
      <trkpt lat="-35.043766" lon="-58.165974">
        <time>2021-05-01T13:33:11Z</time>
      </trkpt>
      <trkpt lat="-35.043755" lon="-58.166042">
        <time>2021-05-01T13:33:12Z</time>
      </trkpt>
      <trkpt lat="-35.04374" lon="-58.16611">
        <time>2021-05-01T13:33:13Z</time>
      </trkpt>
      <trkpt lat="-35.043736" lon="-58.16618">
        <time>2021-05-01T13:33:14Z</time>
      </trkpt>
      <trkpt lat="-35.043728" lon="-58.166252">
        <time>2021-05-01T13:33:15Z</time>
      </trkpt>
      <trkpt lat="-35.04372" lon="-58.16632">
        <time>2021-05-01T13:33:16Z</time>
      </trkpt>
      <trkpt lat="-35.043716" lon="-58.166393">
        <time>2021-05-01T13:33:17Z</time>
      </trkpt>
      <trkpt lat="-35.043713" lon="-58.166462">
        <time>2021-05-01T13:33:18Z</time>
      </trkpt>
      <trkpt lat="-35.043705" lon="-58.16653">
        <time>2021-05-01T13:33:19Z</time>
      </trkpt>
      <trkpt lat="-35.043694" lon="-58.1666">
        <time>2021-05-01T13:33:20Z</time>
      </trkpt>
      <trkpt lat="-35.043682" lon="-58.166664">
        <time>2021-05-01T13:33:21Z</time>
      </trkpt>
      <trkpt lat="-35.04368" lon="-58.16673">
        <time>2021-05-01T13:33:22Z</time>
      </trkpt>
      <trkpt lat="-35.043667" lon="-58.166798">
        <time>2021-05-01T13:33:23Z</time>
      </trkpt>
      <trkpt lat="-35.04366" lon="-58.166866">
        <time>2021-05-01T13:33:24Z</time>
      </trkpt>
      <trkpt lat="-35.043655" lon="-58.166935">
        <time>2021-05-01T13:33:25Z</time>
      </trkpt>
      <trkpt lat="-35.043644" lon="-58.167004">
        <time>2021-05-01T13:33:26Z</time>
      </trkpt>
      <trkpt lat="-35.043633" lon="-58.167072">
        <time>2021-05-01T13:33:27Z</time>
      </trkpt>
      <trkpt lat="-35.04362" lon="-58.16714">
        <time>2021-05-01T13:33:28Z</time>
      </trkpt>
      <trkpt lat="-35.043613" lon="-58.16721">
        <time>2021-05-01T13:33:29Z</time>
      </trkpt>
      <trkpt lat="-35.043602" lon="-58.16728">
        <time>2021-05-01T13:33:30Z</time>
      </trkpt>
      <trkpt lat="-35.0436" lon="-58.167347">
        <time>2021-05-01T13:33:31Z</time>
      </trkpt>
      <trkpt lat="-35.04359" lon="-58.16741">
        <time>2021-05-01T13:33:32Z</time>
      </trkpt>
      <trkpt lat="-35.04358" lon="-58.16748">
        <time>2021-05-01T13:33:33Z</time>
      </trkpt>
      <trkpt lat="-35.043568" lon="-58.16755">
        <time>2021-05-01T13:33:34Z</time>
      </trkpt>
      <trkpt lat="-35.043564" lon="-58.167618">
        <time>2021-05-01T13:33:35Z</time>
      </trkpt>
      <trkpt lat="-35.043552" lon="-58.167683">
        <time>2021-05-01T13:33:36Z</time>
      </trkpt>
      <trkpt lat="-35.04355" lon="-58.16775">
        <time>2021-05-01T13:33:37Z</time>
      </trkpt>
      <trkpt lat="-35.04354" lon="-58.167816">
        <time>2021-05-01T13:33:38Z</time>
      </trkpt>
      <trkpt lat="-35.043533" lon="-58.16788">
        <time>2021-05-01T13:33:39Z</time>
      </trkpt>
      <trkpt lat="-35.04352" lon="-58.167946">
        <time>2021-05-01T13:33:40Z</time>
      </trkpt>
      <trkpt lat="-35.043514" lon="-58.168007">
        <time>2021-05-01T13:33:41Z</time>
      </trkpt>
      <trkpt lat="-35.043507" lon="-58.16807">
        <time>2021-05-01T13:33:42Z</time>
      </trkpt>
      <trkpt lat="-35.043503" lon="-58.168137">
        <time>2021-05-01T13:33:43Z</time>
      </trkpt>
      <trkpt lat="-35.043495" lon="-58.1682">
        <time>2021-05-01T13:33:44Z</time>
      </trkpt>
      <trkpt lat="-35.043488" lon="-58.168266">
        <time>2021-05-01T13:33:45Z</time>
      </trkpt>
      <trkpt lat="-35.043476" lon="-58.16833">
        <time>2021-05-01T13:33:46Z</time>
      </trkpt>
      <trkpt lat="-35.04347" lon="-58.168396">
        <time>2021-05-01T13:33:47Z</time>
      </trkpt>
      <trkpt lat="-35.04346" lon="-58.168457">
        <time>2021-05-01T13:33:48Z</time>
      </trkpt>
      <trkpt lat="-35.043453" lon="-58.16852">
        <time>2021-05-01T13:33:49Z</time>
      </trkpt>
      <trkpt lat="-35.043446" lon="-58.168583">
        <time>2021-05-01T13:33:50Z</time>
      </trkpt>
      <trkpt lat="-35.04344" lon="-58.168648">
        <time>2021-05-01T13:33:51Z</time>
      </trkpt>
      <trkpt lat="-35.043434" lon="-58.16871">
        <time>2021-05-01T13:33:52Z</time>
      </trkpt>
      <trkpt lat="-35.043427" lon="-58.168766">
        <time>2021-05-01T13:33:53Z</time>
      </trkpt>
      <trkpt lat="-35.04342" lon="-58.168827">
        <time>2021-05-01T13:33:54Z</time>
      </trkpt>
      <trkpt lat="-35.043407" lon="-58.168888">
        <time>2021-05-01T13:33:55Z</time>
      </trkpt>
      <trkpt lat="-35.0434" lon="-58.168945">
        <time>2021-05-01T13:33:56Z</time>
      </trkpt>
      <trkpt lat="-35.043396" lon="-58.169006">
        <time>2021-05-01T13:33:57Z</time>
      </trkpt>
      <trkpt lat="-35.04339" lon="-58.169064">
        <time>2021-05-01T13:33:58Z</time>
      </trkpt>
      <trkpt lat="-35.043385" lon="-58.169117">
        <time>2021-05-01T13:33:59Z</time>
      </trkpt>
      <trkpt lat="-35.04337" lon="-58.169224">
        <time>2021-05-01T13:34:01Z</time>
      </trkpt>
      <trkpt lat="-35.04336" lon="-58.16928">
        <time>2021-05-01T13:34:02Z</time>
      </trkpt>
      <trkpt lat="-35.043354" lon="-58.16934">
        <time>2021-05-01T13:34:03Z</time>
      </trkpt>
      <trkpt lat="-35.043346" lon="-58.1694">
        <time>2021-05-01T13:34:04Z</time>
      </trkpt>
      <trkpt lat="-35.04334" lon="-58.169456">
        <time>2021-05-01T13:34:05Z</time>
      </trkpt>
      <trkpt lat="-35.043335" lon="-58.169514">
        <time>2021-05-01T13:34:06Z</time>
      </trkpt>
      <trkpt lat="-35.043327" lon="-58.16957">
        <time>2021-05-01T13:34:07Z</time>
      </trkpt>
      <trkpt lat="-35.04332" lon="-58.16963">
        <time>2021-05-01T13:34:08Z</time>
      </trkpt>
      <trkpt lat="-35.043312" lon="-58.169685">
        <time>2021-05-01T13:34:09Z</time>
      </trkpt>
      <trkpt lat="-35.043304" lon="-58.169746">
        <time>2021-05-01T13:34:10Z</time>
      </trkpt>
      <trkpt lat="-35.043297" lon="-58.169804">
        <time>2021-05-01T13:34:11Z</time>
      </trkpt>
      <trkpt lat="-35.04329" lon="-58.169865">
        <time>2021-05-01T13:34:12Z</time>
      </trkpt>
      <trkpt lat="-35.04328" lon="-58.16993">
        <time>2021-05-01T13:34:13Z</time>
      </trkpt>
      <trkpt lat="-35.043274" lon="-58.16999">
        <time>2021-05-01T13:34:14Z</time>
      </trkpt>
      <trkpt lat="-35.043262" lon="-58.17005">
        <time>2021-05-01T13:34:15Z</time>
      </trkpt>
      <trkpt lat="-35.04325" lon="-58.170116">
        <time>2021-05-01T13:34:16Z</time>
      </trkpt>
      <trkpt lat="-35.043243" lon="-58.170177">
        <time>2021-05-01T13:34:17Z</time>
      </trkpt>
      <trkpt lat="-35.043236" lon="-58.170242">
        <time>2021-05-01T13:34:18Z</time>
      </trkpt>
      <trkpt lat="-35.043224" lon="-58.170307">
        <time>2021-05-01T13:34:19Z</time>
      </trkpt>
      <trkpt lat="-35.043213" lon="-58.170376">
        <time>2021-05-01T13:34:20Z</time>
      </trkpt>
      <trkpt lat="-35.043205" lon="-58.17044">
        <time>2021-05-01T13:34:21Z</time>
      </trkpt>
      <trkpt lat="-35.043194" lon="-58.170506">
        <time>2021-05-01T13:34:22Z</time>
      </trkpt>
      <trkpt lat="-35.043182" lon="-58.17057">
        <time>2021-05-01T13:34:23Z</time>
      </trkpt>
      <trkpt lat="-35.043175" lon="-58.170635">
        <time>2021-05-01T13:34:24Z</time>
      </trkpt>
      <trkpt lat="-35.043163" lon="-58.1707">
        <time>2021-05-01T13:34:25Z</time>
      </trkpt>
      <trkpt lat="-35.043156" lon="-58.170765">
        <time>2021-05-01T13:34:26Z</time>
      </trkpt>
      <trkpt lat="-35.043148" lon="-58.17083">
        <time>2021-05-01T13:34:27Z</time>
      </trkpt>
      <trkpt lat="-35.043137" lon="-58.17089">
        <time>2021-05-01T13:34:28Z</time>
      </trkpt>
      <trkpt lat="-35.04312" lon="-58.170956">
        <time>2021-05-01T13:34:29Z</time>
      </trkpt>
      <trkpt lat="-35.04311" lon="-58.171017">
        <time>2021-05-01T13:34:30Z</time>
      </trkpt>
      <trkpt lat="-35.043095" lon="-58.17108">
        <time>2021-05-01T13:34:31Z</time>
      </trkpt>
      <trkpt lat="-35.043083" lon="-58.171146">
        <time>2021-05-01T13:34:32Z</time>
      </trkpt>
      <trkpt lat="-35.04307" lon="-58.171215">
        <time>2021-05-01T13:34:33Z</time>
      </trkpt>
      <trkpt lat="-35.043064" lon="-58.17128">
        <time>2021-05-01T13:34:34Z</time>
      </trkpt>
      <trkpt lat="-35.04305" lon="-58.171345">
        <time>2021-05-01T13:34:35Z</time>
      </trkpt>
      <trkpt lat="-35.04303" lon="-58.17141">
        <time>2021-05-01T13:34:36Z</time>
      </trkpt>
      <trkpt lat="-35.04302" lon="-58.17148">
        <time>2021-05-01T13:34:37Z</time>
      </trkpt>
      <trkpt lat="-35.043003" lon="-58.171547">
        <time>2021-05-01T13:34:38Z</time>
      </trkpt>
      <trkpt lat="-35.04299" lon="-58.17161">
        <time>2021-05-01T13:34:39Z</time>
      </trkpt>
      <trkpt lat="-35.042976" lon="-58.171677">
        <time>2021-05-01T13:34:40Z</time>
      </trkpt>
      <trkpt lat="-35.042957" lon="-58.171745">
        <time>2021-05-01T13:34:41Z</time>
      </trkpt>
      <trkpt lat="-35.04294" lon="-58.171806">
        <time>2021-05-01T13:34:42Z</time>
      </trkpt>
      <trkpt lat="-35.04292" lon="-58.171875">
        <time>2021-05-01T13:34:43Z</time>
      </trkpt>
      <trkpt lat="-35.0429" lon="-58.17194">
        <time>2021-05-01T13:34:44Z</time>
      </trkpt>
      <trkpt lat="-35.04288" lon="-58.172005">
        <time>2021-05-01T13:34:45Z</time>
      </trkpt>
      <trkpt lat="-35.042862" lon="-58.17207">
        <time>2021-05-01T13:34:46Z</time>
      </trkpt>
      <trkpt lat="-35.042843" lon="-58.172134">
        <time>2021-05-01T13:34:47Z</time>
      </trkpt>
      <trkpt lat="-35.042824" lon="-58.172195">
        <time>2021-05-01T13:34:48Z</time>
      </trkpt>
      <trkpt lat="-35.0428" lon="-58.17226">
        <time>2021-05-01T13:34:49Z</time>
      </trkpt>
      <trkpt lat="-35.042778" lon="-58.172325">
        <time>2021-05-01T13:34:50Z</time>
      </trkpt>
      <trkpt lat="-35.04276" lon="-58.172386">
        <time>2021-05-01T13:34:51Z</time>
      </trkpt>
      <trkpt lat="-35.042736" lon="-58.17245">
        <time>2021-05-01T13:34:52Z</time>
      </trkpt>
      <trkpt lat="-35.042717" lon="-58.172512">
        <time>2021-05-01T13:34:53Z</time>
      </trkpt>
      <trkpt lat="-35.042698" lon="-58.172577">
        <time>2021-05-01T13:34:54Z</time>
      </trkpt>
      <trkpt lat="-35.042675" lon="-58.172634">
        <time>2021-05-01T13:34:55Z</time>
      </trkpt>
      <trkpt lat="-35.04265" lon="-58.172695">
        <time>2021-05-01T13:34:56Z</time>
      </trkpt>
      <trkpt lat="-35.04263" lon="-58.17276">
        <time>2021-05-01T13:34:57Z</time>
      </trkpt>
      <trkpt lat="-35.042606" lon="-58.17282">
        <time>2021-05-01T13:34:58Z</time>
      </trkpt>
      <trkpt lat="-35.04258" lon="-58.172882">
        <time>2021-05-01T13:34:59Z</time>
      </trkpt>
      <trkpt lat="-35.042553" lon="-58.172943">
        <time>2021-05-01T13:35:00Z</time>
      </trkpt>
      <trkpt lat="-35.042534" lon="-58.173004">
        <time>2021-05-01T13:35:01Z</time>
      </trkpt>
      <trkpt lat="-35.042515" lon="-58.173065">
        <time>2021-05-01T13:35:02Z</time>
      </trkpt>
      <trkpt lat="-35.042492" lon="-58.17313">
        <time>2021-05-01T13:35:03Z</time>
      </trkpt>
      <trkpt lat="-35.042473" lon="-58.17319">
        <time>2021-05-01T13:35:04Z</time>
      </trkpt>
      <trkpt lat="-35.042454" lon="-58.173252">
        <time>2021-05-01T13:35:05Z</time>
      </trkpt>
      <trkpt lat="-35.042435" lon="-58.173313">
        <time>2021-05-01T13:35:06Z</time>
      </trkpt>
      <trkpt lat="-35.042416" lon="-58.173374">
        <time>2021-05-01T13:35:07Z</time>
      </trkpt>
      <trkpt lat="-35.04239" lon="-58.17343">
        <time>2021-05-01T13:35:08Z</time>
      </trkpt>
      <trkpt lat="-35.042366" lon="-58.173492">
        <time>2021-05-01T13:35:09Z</time>
      </trkpt>
      <trkpt lat="-35.042343" lon="-58.173553">
        <time>2021-05-01T13:35:10Z</time>
      </trkpt>
      <trkpt lat="-35.04232" lon="-58.173615">
        <time>2021-05-01T13:35:11Z</time>
      </trkpt>
      <trkpt lat="-35.0423" lon="-58.17368">
        <time>2021-05-01T13:35:12Z</time>
      </trkpt>
      <trkpt lat="-35.04225" lon="-58.1738">
        <time>2021-05-01T13:35:14Z</time>
      </trkpt>
      <trkpt lat="-35.04223" lon="-58.173862">
        <time>2021-05-01T13:35:15Z</time>
      </trkpt>
      <trkpt lat="-35.042206" lon="-58.173923">
        <time>2021-05-01T13:35:16Z</time>
      </trkpt>
      <trkpt lat="-35.04218" lon="-58.173985">
        <time>2021-05-01T13:35:17Z</time>
      </trkpt>
      <trkpt lat="-35.042156" lon="-58.17405">
        <time>2021-05-01T13:35:18Z</time>
      </trkpt>
      <trkpt lat="-35.042137" lon="-58.17411">
        <time>2021-05-01T13:35:19Z</time>
      </trkpt>
      <trkpt lat="-35.042114" lon="-58.17417">
        <time>2021-05-01T13:35:20Z</time>
      </trkpt>
      <trkpt lat="-35.04209" lon="-58.17423">
        <time>2021-05-01T13:35:21Z</time>
      </trkpt>
      <trkpt lat="-35.04207" lon="-58.17429">
        <time>2021-05-01T13:35:22Z</time>
      </trkpt>
      <trkpt lat="-35.042046" lon="-58.174347">
        <time>2021-05-01T13:35:23Z</time>
      </trkpt>
      <trkpt lat="-35.042023" lon="-58.17441">
        <time>2021-05-01T13:35:24Z</time>
      </trkpt>
      <trkpt lat="-35.042" lon="-58.174473">
        <time>2021-05-01T13:35:25Z</time>
      </trkpt>
      <trkpt lat="-35.041977" lon="-58.174534">
        <time>2021-05-01T13:35:26Z</time>
      </trkpt>
      <trkpt lat="-35.041954" lon="-58.17459">
        <time>2021-05-01T13:35:27Z</time>
      </trkpt>
      <trkpt lat="-35.04191" lon="-58.174706">
        <time>2021-05-01T13:35:29Z</time>
      </trkpt>
      <trkpt lat="-35.041885" lon="-58.174767">
        <time>2021-05-01T13:35:30Z</time>
      </trkpt>
      <trkpt lat="-35.041862" lon="-58.174828">
        <time>2021-05-01T13:35:31Z</time>
      </trkpt>
      <trkpt lat="-35.041843" lon="-58.174885">
        <time>2021-05-01T13:35:32Z</time>
      </trkpt>
      <trkpt lat="-35.041824" lon="-58.174942">
        <time>2021-05-01T13:35:33Z</time>
      </trkpt>
      <trkpt lat="-35.041798" lon="-58.175">
        <time>2021-05-01T13:35:34Z</time>
      </trkpt>
      <trkpt lat="-35.041775" lon="-58.17506">
        <time>2021-05-01T13:35:35Z</time>
      </trkpt>
      <trkpt lat="-35.04175" lon="-58.17512">
        <time>2021-05-01T13:35:36Z</time>
      </trkpt>
      <trkpt lat="-35.04173" lon="-58.175182">
        <time>2021-05-01T13:35:37Z</time>
      </trkpt>
      <trkpt lat="-35.041702" lon="-58.175243">
        <time>2021-05-01T13:35:38Z</time>
      </trkpt>
      <trkpt lat="-35.041683" lon="-58.17531">
        <time>2021-05-01T13:35:39Z</time>
      </trkpt>
      <trkpt lat="-35.04166" lon="-58.17537">
        <time>2021-05-01T13:35:40Z</time>
      </trkpt>
      <trkpt lat="-35.041634" lon="-58.17543">
        <time>2021-05-01T13:35:41Z</time>
      </trkpt>
      <trkpt lat="-35.04161" lon="-58.17549">
        <time>2021-05-01T13:35:42Z</time>
      </trkpt>
      <trkpt lat="-35.041588" lon="-58.175552">
        <time>2021-05-01T13:35:43Z</time>
      </trkpt>
      <trkpt lat="-35.04156" lon="-58.175613">
        <time>2021-05-01T13:35:44Z</time>
      </trkpt>
      <trkpt lat="-35.04154" lon="-58.175674">
        <time>2021-05-01T13:35:45Z</time>
      </trkpt>
      <trkpt lat="-35.04152" lon="-58.175735">
        <time>2021-05-01T13:35:46Z</time>
      </trkpt>
      <trkpt lat="-35.041496" lon="-58.175797">
        <time>2021-05-01T13:35:47Z</time>
      </trkpt>
      <trkpt lat="-35.04147" lon="-58.175858">
        <time>2021-05-01T13:35:48Z</time>
      </trkpt>
      <trkpt lat="-35.041447" lon="-58.17592">
        <time>2021-05-01T13:35:49Z</time>
      </trkpt>
      <trkpt lat="-35.041424" lon="-58.17598">
        <time>2021-05-01T13:35:50Z</time>
      </trkpt>
      <trkpt lat="-35.0414" lon="-58.17604">
        <time>2021-05-01T13:35:51Z</time>
      </trkpt>
      <trkpt lat="-35.04138" lon="-58.1761">
        <time>2021-05-01T13:35:52Z</time>
      </trkpt>
      <trkpt lat="-35.04136" lon="-58.17616">
        <time>2021-05-01T13:35:53Z</time>
      </trkpt>
      <trkpt lat="-35.041336" lon="-58.176216">
        <time>2021-05-01T13:35:54Z</time>
      </trkpt>
      <trkpt lat="-35.041313" lon="-58.176277">
        <time>2021-05-01T13:35:55Z</time>
      </trkpt>
      <trkpt lat="-35.04129" lon="-58.176334">
        <time>2021-05-01T13:35:56Z</time>
      </trkpt>
      <trkpt lat="-35.041267" lon="-58.176395">
        <time>2021-05-01T13:35:57Z</time>
      </trkpt>
      <trkpt lat="-35.041245" lon="-58.176453">
        <time>2021-05-01T13:35:58Z</time>
      </trkpt>
      <trkpt lat="-35.04122" lon="-58.17651">
        <time>2021-05-01T13:35:59Z</time>
      </trkpt>
      <trkpt lat="-35.041203" lon="-58.17657">
        <time>2021-05-01T13:36:00Z</time>
      </trkpt>
      <trkpt lat="-35.041176" lon="-58.176624">
        <time>2021-05-01T13:36:01Z</time>
      </trkpt>
      <trkpt lat="-35.041153" lon="-58.176685">
        <time>2021-05-01T13:36:02Z</time>
      </trkpt>
      <trkpt lat="-35.04113" lon="-58.176743">
        <time>2021-05-01T13:36:03Z</time>
      </trkpt>
      <trkpt lat="-35.041107" lon="-58.176804">
        <time>2021-05-01T13:36:04Z</time>
      </trkpt>
      <trkpt lat="-35.041084" lon="-58.176865">
        <time>2021-05-01T13:36:05Z</time>
      </trkpt>
      <trkpt lat="-35.04106" lon="-58.176926">
        <time>2021-05-01T13:36:06Z</time>
      </trkpt>
      <trkpt lat="-35.04104" lon="-58.176987">
        <time>2021-05-01T13:36:07Z</time>
      </trkpt>
      <trkpt lat="-35.04101" lon="-58.177048">
        <time>2021-05-01T13:36:08Z</time>
      </trkpt>
      <trkpt lat="-35.04099" lon="-58.17711">
        <time>2021-05-01T13:36:09Z</time>
      </trkpt>
      <trkpt lat="-35.040936" lon="-58.17723">
        <time>2021-05-01T13:36:11Z</time>
      </trkpt>
      <trkpt lat="-35.040916" lon="-58.17729">
        <time>2021-05-01T13:36:12Z</time>
      </trkpt>
      <trkpt lat="-35.040897" lon="-58.177353">
        <time>2021-05-01T13:36:13Z</time>
      </trkpt>
      <trkpt lat="-35.040874" lon="-58.177414">
        <time>2021-05-01T13:36:14Z</time>
      </trkpt>
      <trkpt lat="-35.040848" lon="-58.177475">
        <time>2021-05-01T13:36:15Z</time>
      </trkpt>
      <trkpt lat="-35.040825" lon="-58.177532">
        <time>2021-05-01T13:36:16Z</time>
      </trkpt>
      <trkpt lat="-35.040802" lon="-58.177593">
        <time>2021-05-01T13:36:17Z</time>
      </trkpt>
      <trkpt lat="-35.04078" lon="-58.17765">
        <time>2021-05-01T13:36:18Z</time>
      </trkpt>
      <trkpt lat="-35.040752" lon="-58.17771">
        <time>2021-05-01T13:36:19Z</time>
      </trkpt>
      <trkpt lat="-35.04074" lon="-58.17777">
        <time>2021-05-01T13:36:20Z</time>
      </trkpt>
      <trkpt lat="-35.040714" lon="-58.177826">
        <time>2021-05-01T13:36:21Z</time>
      </trkpt>
      <trkpt lat="-35.04066" lon="-58.177933">
        <time>2021-05-01T13:36:23Z</time>
      </trkpt>
      <trkpt lat="-35.040638" lon="-58.17799">
        <time>2021-05-01T13:36:24Z</time>
      </trkpt>
      <trkpt lat="-35.04062" lon="-58.17805">
        <time>2021-05-01T13:36:25Z</time>
      </trkpt>
      <trkpt lat="-35.04059" lon="-58.178104">
        <time>2021-05-01T13:36:26Z</time>
      </trkpt>
      <trkpt lat="-35.040565" lon="-58.17816">
        <time>2021-05-01T13:36:27Z</time>
      </trkpt>
      <trkpt lat="-35.040524" lon="-58.178288">
        <time>2021-05-01T13:36:29Z</time>
      </trkpt>
      <trkpt lat="-35.0405" lon="-58.17835">
        <time>2021-05-01T13:36:30Z</time>
      </trkpt>
      <trkpt lat="-35.040478" lon="-58.178406">
        <time>2021-05-01T13:36:31Z</time>
      </trkpt>
      <trkpt lat="-35.040455" lon="-58.178467">
        <time>2021-05-01T13:36:32Z</time>
      </trkpt>
      <trkpt lat="-35.04043" lon="-58.178524">
        <time>2021-05-01T13:36:33Z</time>
      </trkpt>
      <trkpt lat="-35.040405" lon="-58.178585">
        <time>2021-05-01T13:36:34Z</time>
      </trkpt>
      <trkpt lat="-35.040386" lon="-58.178642">
        <time>2021-05-01T13:36:35Z</time>
      </trkpt>
      <trkpt lat="-35.040363" lon="-58.178703">
        <time>2021-05-01T13:36:36Z</time>
      </trkpt>
      <trkpt lat="-35.04034" lon="-58.178764">
        <time>2021-05-01T13:36:37Z</time>
      </trkpt>
      <trkpt lat="-35.04032" lon="-58.178825">
        <time>2021-05-01T13:36:38Z</time>
      </trkpt>
      <trkpt lat="-35.0403" lon="-58.178886">
        <time>2021-05-01T13:36:39Z</time>
      </trkpt>
      <trkpt lat="-35.04027" lon="-58.178944">
        <time>2021-05-01T13:36:40Z</time>
      </trkpt>
      <trkpt lat="-35.04025" lon="-58.179005">
        <time>2021-05-01T13:36:41Z</time>
      </trkpt>
      <trkpt lat="-35.040226" lon="-58.179066">
        <time>2021-05-01T13:36:42Z</time>
      </trkpt>
      <trkpt lat="-35.040207" lon="-58.179127">
        <time>2021-05-01T13:36:43Z</time>
      </trkpt>
      <trkpt lat="-35.040188" lon="-58.179188">
        <time>2021-05-01T13:36:44Z</time>
      </trkpt>
      <trkpt lat="-35.04016" lon="-58.179245">
        <time>2021-05-01T13:36:45Z</time>
      </trkpt>
      <trkpt lat="-35.04014" lon="-58.179306">
        <time>2021-05-01T13:36:46Z</time>
      </trkpt>
      <trkpt lat="-35.04011" lon="-58.179363">
        <time>2021-05-01T13:36:47Z</time>
      </trkpt>
      <trkpt lat="-35.04009" lon="-58.179424">
        <time>2021-05-01T13:36:48Z</time>
      </trkpt>
      <trkpt lat="-35.040066" lon="-58.17948">
        <time>2021-05-01T13:36:49Z</time>
      </trkpt>
      <trkpt lat="-35.040047" lon="-58.179543">
        <time>2021-05-01T13:36:50Z</time>
      </trkpt>
      <trkpt lat="-35.039932" lon="-58.179836">
        <time>2021-05-01T13:36:55Z</time>
      </trkpt>
      <trkpt lat="-35.039913" lon="-58.179897">
        <time>2021-05-01T13:36:56Z</time>
      </trkpt>
      <trkpt lat="-35.03989" lon="-58.179955">
        <time>2021-05-01T13:36:57Z</time>
      </trkpt>
      <trkpt lat="-35.039864" lon="-58.18001">
        <time>2021-05-01T13:36:58Z</time>
      </trkpt>
      <trkpt lat="-35.03984" lon="-58.18007">
        <time>2021-05-01T13:36:59Z</time>
      </trkpt>
      <trkpt lat="-35.03977" lon="-58.18024">
        <time>2021-05-01T13:37:02Z</time>
      </trkpt>
      <trkpt lat="-35.039745" lon="-58.180298">
        <time>2021-05-01T13:37:03Z</time>
      </trkpt>
      <trkpt lat="-35.039722" lon="-58.180355">
        <time>2021-05-01T13:37:04Z</time>
      </trkpt>
      <trkpt lat="-35.0397" lon="-58.180412">
        <time>2021-05-01T13:37:05Z</time>
      </trkpt>
      <trkpt lat="-35.039677" lon="-58.18047">
        <time>2021-05-01T13:37:06Z</time>
      </trkpt>
      <trkpt lat="-35.03965" lon="-58.180527">
        <time>2021-05-01T13:37:07Z</time>
      </trkpt>
      <trkpt lat="-35.039627" lon="-58.180584">
        <time>2021-05-01T13:37:08Z</time>
      </trkpt>
      <trkpt lat="-35.039604" lon="-58.180645">
        <time>2021-05-01T13:37:09Z</time>
      </trkpt>
      <trkpt lat="-35.03958" lon="-58.180702">
        <time>2021-05-01T13:37:10Z</time>
      </trkpt>
      <trkpt lat="-35.03956" lon="-58.180763">
        <time>2021-05-01T13:37:11Z</time>
      </trkpt>
      <trkpt lat="-35.03953" lon="-58.180824">
        <time>2021-05-01T13:37:12Z</time>
      </trkpt>
      <trkpt lat="-35.03951" lon="-58.180885">
        <time>2021-05-01T13:37:13Z</time>
      </trkpt>
      <trkpt lat="-35.039486" lon="-58.180946">
        <time>2021-05-01T13:37:14Z</time>
      </trkpt>
      <trkpt lat="-35.039463" lon="-58.181007">
        <time>2021-05-01T13:37:15Z</time>
      </trkpt>
      <trkpt lat="-35.039444" lon="-58.18107">
        <time>2021-05-01T13:37:16Z</time>
      </trkpt>
      <trkpt lat="-35.03942" lon="-58.18113">
        <time>2021-05-01T13:37:17Z</time>
      </trkpt>
      <trkpt lat="-35.0394" lon="-58.18119">
        <time>2021-05-01T13:37:18Z</time>
      </trkpt>
      <trkpt lat="-35.03937" lon="-58.18125">
        <time>2021-05-01T13:37:19Z</time>
      </trkpt>
      <trkpt lat="-35.039345" lon="-58.181313">
        <time>2021-05-01T13:37:20Z</time>
      </trkpt>
      <trkpt lat="-35.03932" lon="-58.181374">
        <time>2021-05-01T13:37:21Z</time>
      </trkpt>
      <trkpt lat="-35.0393" lon="-58.181435">
        <time>2021-05-01T13:37:22Z</time>
      </trkpt>
      <trkpt lat="-35.039276" lon="-58.181496">
        <time>2021-05-01T13:37:23Z</time>
      </trkpt>
      <trkpt lat="-35.039257" lon="-58.18156">
        <time>2021-05-01T13:37:24Z</time>
      </trkpt>
      <trkpt lat="-35.039238" lon="-58.181625">
        <time>2021-05-01T13:37:25Z</time>
      </trkpt>
      <trkpt lat="-35.039215" lon="-58.181686">
        <time>2021-05-01T13:37:26Z</time>
      </trkpt>
      <trkpt lat="-35.039192" lon="-58.18175">
        <time>2021-05-01T13:37:27Z</time>
      </trkpt>
      <trkpt lat="-35.03917" lon="-58.181812">
        <time>2021-05-01T13:37:28Z</time>
      </trkpt>
      <trkpt lat="-35.039146" lon="-58.181873">
        <time>2021-05-01T13:37:29Z</time>
      </trkpt>
      <trkpt lat="-35.03912" lon="-58.181934">
        <time>2021-05-01T13:37:30Z</time>
      </trkpt>
      <trkpt lat="-35.039097" lon="-58.181995">
        <time>2021-05-01T13:37:31Z</time>
      </trkpt>
      <trkpt lat="-35.03907" lon="-58.182056">
        <time>2021-05-01T13:37:32Z</time>
      </trkpt>
      <trkpt lat="-35.03905" lon="-58.18212">
        <time>2021-05-01T13:37:33Z</time>
      </trkpt>
      <trkpt lat="-35.03903" lon="-58.182186">
        <time>2021-05-01T13:37:34Z</time>
      </trkpt>
      <trkpt lat="-35.039" lon="-58.182247">
        <time>2021-05-01T13:37:35Z</time>
      </trkpt>
      <trkpt lat="-35.03898" lon="-58.182312">
        <time>2021-05-01T13:37:36Z</time>
      </trkpt>
      <trkpt lat="-35.03895" lon="-58.182373">
        <time>2021-05-01T13:37:37Z</time>
      </trkpt>
      <trkpt lat="-35.03893" lon="-58.182438">
        <time>2021-05-01T13:37:38Z</time>
      </trkpt>
      <trkpt lat="-35.038902" lon="-58.1825">
        <time>2021-05-01T13:37:39Z</time>
      </trkpt>
      <trkpt lat="-35.03888" lon="-58.182564">
        <time>2021-05-01T13:37:40Z</time>
      </trkpt>
      <trkpt lat="-35.038853" lon="-58.182625">
        <time>2021-05-01T13:37:41Z</time>
      </trkpt>
      <trkpt lat="-35.038826" lon="-58.18269">
        <time>2021-05-01T13:37:42Z</time>
      </trkpt>
      <trkpt lat="-35.038803" lon="-58.182755">
        <time>2021-05-01T13:37:43Z</time>
      </trkpt>
      <trkpt lat="-35.038776" lon="-58.182816">
        <time>2021-05-01T13:37:44Z</time>
      </trkpt>
      <trkpt lat="-35.038754" lon="-58.182877">
        <time>2021-05-01T13:37:45Z</time>
      </trkpt>
      <trkpt lat="-35.038727" lon="-58.18294">
        <time>2021-05-01T13:37:46Z</time>
      </trkpt>
      <trkpt lat="-35.038704" lon="-58.183002">
        <time>2021-05-01T13:37:47Z</time>
      </trkpt>
      <trkpt lat="-35.03868" lon="-58.183064">
        <time>2021-05-01T13:37:48Z</time>
      </trkpt>
      <trkpt lat="-35.03866" lon="-58.183125">
        <time>2021-05-01T13:37:49Z</time>
      </trkpt>
      <trkpt lat="-35.03863" lon="-58.18318">
        <time>2021-05-01T13:37:50Z</time>
      </trkpt>
      <trkpt lat="-35.03861" lon="-58.183243">
        <time>2021-05-01T13:37:51Z</time>
      </trkpt>
      <trkpt lat="-35.038586" lon="-58.183304">
        <time>2021-05-01T13:37:52Z</time>
      </trkpt>
      <trkpt lat="-35.038563" lon="-58.183365">
        <time>2021-05-01T13:37:53Z</time>
      </trkpt>
      <trkpt lat="-35.03854" lon="-58.183422">
        <time>2021-05-01T13:37:54Z</time>
      </trkpt>
      <trkpt lat="-35.038513" lon="-58.18348">
        <time>2021-05-01T13:37:55Z</time>
      </trkpt>
      <trkpt lat="-35.03849" lon="-58.18354">
        <time>2021-05-01T13:37:56Z</time>
      </trkpt>
      <trkpt lat="-35.038467" lon="-58.1836">
        <time>2021-05-01T13:37:57Z</time>
      </trkpt>
      <trkpt lat="-35.038445" lon="-58.183662">
        <time>2021-05-01T13:37:58Z</time>
      </trkpt>
      <trkpt lat="-35.038425" lon="-58.183723">
        <time>2021-05-01T13:37:59Z</time>
      </trkpt>
      <trkpt lat="-35.0384" lon="-58.183784">
        <time>2021-05-01T13:38:00Z</time>
      </trkpt>
      <trkpt lat="-35.038376" lon="-58.18384">
        <time>2021-05-01T13:38:01Z</time>
      </trkpt>
      <trkpt lat="-35.03835" lon="-58.183903">
        <time>2021-05-01T13:38:02Z</time>
      </trkpt>
      <trkpt lat="-35.038326" lon="-58.183964">
        <time>2021-05-01T13:38:03Z</time>
      </trkpt>
      <trkpt lat="-35.038303" lon="-58.184025">
        <time>2021-05-01T13:38:04Z</time>
      </trkpt>
      <trkpt lat="-35.03828" lon="-58.184086">
        <time>2021-05-01T13:38:05Z</time>
      </trkpt>
      <trkpt lat="-35.03826" lon="-58.184143">
        <time>2021-05-01T13:38:06Z</time>
      </trkpt>
      <trkpt lat="-35.03824" lon="-58.184204">
        <time>2021-05-01T13:38:07Z</time>
      </trkpt>
      <trkpt lat="-35.038216" lon="-58.184265">
        <time>2021-05-01T13:38:08Z</time>
      </trkpt>
      <trkpt lat="-35.038193" lon="-58.184322">
        <time>2021-05-01T13:38:09Z</time>
      </trkpt>
      <trkpt lat="-35.03817" lon="-58.184383">
        <time>2021-05-01T13:38:10Z</time>
      </trkpt>
      <trkpt lat="-35.038143" lon="-58.18444">
        <time>2021-05-01T13:38:11Z</time>
      </trkpt>
      <trkpt lat="-35.038124" lon="-58.1845">
        <time>2021-05-01T13:38:12Z</time>
      </trkpt>
      <trkpt lat="-35.0381" lon="-58.18456">
        <time>2021-05-01T13:38:13Z</time>
      </trkpt>
      <trkpt lat="-35.03808" lon="-58.18462">
        <time>2021-05-01T13:38:14Z</time>
      </trkpt>
      <trkpt lat="-35.03805" lon="-58.184677">
        <time>2021-05-01T13:38:15Z</time>
      </trkpt>
      <trkpt lat="-35.03803" lon="-58.184734">
        <time>2021-05-01T13:38:16Z</time>
      </trkpt>
      <trkpt lat="-35.038006" lon="-58.18479">
        <time>2021-05-01T13:38:17Z</time>
      </trkpt>
      <trkpt lat="-35.037987" lon="-58.184853">
        <time>2021-05-01T13:38:18Z</time>
      </trkpt>
      <trkpt lat="-35.037964" lon="-58.184914">
        <time>2021-05-01T13:38:19Z</time>
      </trkpt>
      <trkpt lat="-35.037945" lon="-58.18497">
        <time>2021-05-01T13:38:20Z</time>
      </trkpt>
      <trkpt lat="-35.037918" lon="-58.185028">
        <time>2021-05-01T13:38:21Z</time>
      </trkpt>
      <trkpt lat="-35.037895" lon="-58.18509">
        <time>2021-05-01T13:38:22Z</time>
      </trkpt>
      <trkpt lat="-35.037872" lon="-58.18515">
        <time>2021-05-01T13:38:23Z</time>
      </trkpt>
      <trkpt lat="-35.03785" lon="-58.185207">
        <time>2021-05-01T13:38:24Z</time>
      </trkpt>
      <trkpt lat="-35.037827" lon="-58.18527">
        <time>2021-05-01T13:38:25Z</time>
      </trkpt>
      <trkpt lat="-35.037804" lon="-58.18533">
        <time>2021-05-01T13:38:26Z</time>
      </trkpt>
      <trkpt lat="-35.037785" lon="-58.185387">
        <time>2021-05-01T13:38:27Z</time>
      </trkpt>
      <trkpt lat="-35.037758" lon="-58.185444">
        <time>2021-05-01T13:38:28Z</time>
      </trkpt>
      <trkpt lat="-35.03774" lon="-58.1855">
        <time>2021-05-01T13:38:29Z</time>
      </trkpt>
      <trkpt lat="-35.037716" lon="-58.185562">
        <time>2021-05-01T13:38:30Z</time>
      </trkpt>
      <trkpt lat="-35.037693" lon="-58.18562">
        <time>2021-05-01T13:38:31Z</time>
      </trkpt>
      <trkpt lat="-35.03767" lon="-58.18568">
        <time>2021-05-01T13:38:32Z</time>
      </trkpt>
      <trkpt lat="-35.037647" lon="-58.185738">
        <time>2021-05-01T13:38:33Z</time>
      </trkpt>
      <trkpt lat="-35.037624" lon="-58.185795">
        <time>2021-05-01T13:38:34Z</time>
      </trkpt>
      <trkpt lat="-35.0376" lon="-58.18585">
        <time>2021-05-01T13:38:35Z</time>
      </trkpt>
      <trkpt lat="-35.03758" lon="-58.185905">
        <time>2021-05-01T13:38:36Z</time>
      </trkpt>
      <trkpt lat="-35.037556" lon="-58.185963">
        <time>2021-05-01T13:38:37Z</time>
      </trkpt>
      <trkpt lat="-35.037533" lon="-58.18602">
        <time>2021-05-01T13:38:38Z</time>
      </trkpt>
      <trkpt lat="-35.037514" lon="-58.18608">
        <time>2021-05-01T13:38:39Z</time>
      </trkpt>
      <trkpt lat="-35.03749" lon="-58.18614">
        <time>2021-05-01T13:38:40Z</time>
      </trkpt>
      <trkpt lat="-35.037468" lon="-58.186195">
        <time>2021-05-01T13:38:41Z</time>
      </trkpt>
      <trkpt lat="-35.037445" lon="-58.186253">
        <time>2021-05-01T13:38:42Z</time>
      </trkpt>
      <trkpt lat="-35.037422" lon="-58.18631">
        <time>2021-05-01T13:38:43Z</time>
      </trkpt>
      <trkpt lat="-35.0374" lon="-58.18637">
        <time>2021-05-01T13:38:44Z</time>
      </trkpt>
      <trkpt lat="-35.037376" lon="-58.186428">
        <time>2021-05-01T13:38:45Z</time>
      </trkpt>
      <trkpt lat="-35.037357" lon="-58.186485">
        <time>2021-05-01T13:38:46Z</time>
      </trkpt>
      <trkpt lat="-35.037334" lon="-58.186546">
        <time>2021-05-01T13:38:47Z</time>
      </trkpt>
      <trkpt lat="-35.03731" lon="-58.186604">
        <time>2021-05-01T13:38:48Z</time>
      </trkpt>
      <trkpt lat="-35.03729" lon="-58.186657">
        <time>2021-05-01T13:38:49Z</time>
      </trkpt>
      <trkpt lat="-35.037266" lon="-58.186714">
        <time>2021-05-01T13:38:50Z</time>
      </trkpt>
      <trkpt lat="-35.037243" lon="-58.18677">
        <time>2021-05-01T13:38:51Z</time>
      </trkpt>
      <trkpt lat="-35.03722" lon="-58.186832">
        <time>2021-05-01T13:38:52Z</time>
      </trkpt>
      <trkpt lat="-35.0372" lon="-58.18689">
        <time>2021-05-01T13:38:53Z</time>
      </trkpt>
      <trkpt lat="-35.037178" lon="-58.186947">
        <time>2021-05-01T13:38:54Z</time>
      </trkpt>
      <trkpt lat="-35.037155" lon="-58.187004">
        <time>2021-05-01T13:38:55Z</time>
      </trkpt>
      <trkpt lat="-35.037132" lon="-58.187065">
        <time>2021-05-01T13:38:56Z</time>
      </trkpt>
      <trkpt lat="-35.03711" lon="-58.187122">
        <time>2021-05-01T13:38:57Z</time>
      </trkpt>
      <trkpt lat="-35.037086" lon="-58.187183">
        <time>2021-05-01T13:38:58Z</time>
      </trkpt>
      <trkpt lat="-35.037064" lon="-58.18724">
        <time>2021-05-01T13:38:59Z</time>
      </trkpt>
      <trkpt lat="-35.03704" lon="-58.1873">
        <time>2021-05-01T13:39:00Z</time>
      </trkpt>
      <trkpt lat="-35.037018" lon="-58.187363">
        <time>2021-05-01T13:39:01Z</time>
      </trkpt>
      <trkpt lat="-35.036995" lon="-58.18742">
        <time>2021-05-01T13:39:02Z</time>
      </trkpt>
      <trkpt lat="-35.036972" lon="-58.18748">
        <time>2021-05-01T13:39:03Z</time>
      </trkpt>
      <trkpt lat="-35.036945" lon="-58.187542">
        <time>2021-05-01T13:39:04Z</time>
      </trkpt>
      <trkpt lat="-35.036922" lon="-58.187603">
        <time>2021-05-01T13:39:05Z</time>
      </trkpt>
      <trkpt lat="-35.0369" lon="-58.187664">
        <time>2021-05-01T13:39:06Z</time>
      </trkpt>
      <trkpt lat="-35.03688" lon="-58.187725">
        <time>2021-05-01T13:39:07Z</time>
      </trkpt>
      <trkpt lat="-35.036854" lon="-58.187786">
        <time>2021-05-01T13:39:08Z</time>
      </trkpt>
      <trkpt lat="-35.03683" lon="-58.187847">
        <time>2021-05-01T13:39:09Z</time>
      </trkpt>
      <trkpt lat="-35.036804" lon="-58.187904">
        <time>2021-05-01T13:39:10Z</time>
      </trkpt>
      <trkpt lat="-35.03678" lon="-58.187965">
        <time>2021-05-01T13:39:11Z</time>
      </trkpt>
      <trkpt lat="-35.036755" lon="-58.188023">
        <time>2021-05-01T13:39:12Z</time>
      </trkpt>
      <trkpt lat="-35.036728" lon="-58.188084">
        <time>2021-05-01T13:39:13Z</time>
      </trkpt>
      <trkpt lat="-35.036705" lon="-58.18814">
        <time>2021-05-01T13:39:14Z</time>
      </trkpt>
      <trkpt lat="-35.036686" lon="-58.188206">
        <time>2021-05-01T13:39:15Z</time>
      </trkpt>
      <trkpt lat="-35.036667" lon="-58.188267">
        <time>2021-05-01T13:39:16Z</time>
      </trkpt>
      <trkpt lat="-35.036644" lon="-58.188328">
        <time>2021-05-01T13:39:17Z</time>
      </trkpt>
      <trkpt lat="-35.036625" lon="-58.188385">
        <time>2021-05-01T13:39:18Z</time>
      </trkpt>
      <trkpt lat="-35.036602" lon="-58.188446">
        <time>2021-05-01T13:39:19Z</time>
      </trkpt>
      <trkpt lat="-35.03658" lon="-58.188503">
        <time>2021-05-01T13:39:20Z</time>
      </trkpt>
      <trkpt lat="-35.03656" lon="-58.188564">
        <time>2021-05-01T13:39:21Z</time>
      </trkpt>
      <trkpt lat="-35.036537" lon="-58.18862">
        <time>2021-05-01T13:39:22Z</time>
      </trkpt>
      <trkpt lat="-35.036514" lon="-58.188683">
        <time>2021-05-01T13:39:23Z</time>
      </trkpt>
      <trkpt lat="-35.036488" lon="-58.18874">
        <time>2021-05-01T13:39:24Z</time>
      </trkpt>
      <trkpt lat="-35.036465" lon="-58.1888">
        <time>2021-05-01T13:39:25Z</time>
      </trkpt>
      <trkpt lat="-35.03644" lon="-58.18886">
        <time>2021-05-01T13:39:26Z</time>
      </trkpt>
      <trkpt lat="-35.03642" lon="-58.188923">
        <time>2021-05-01T13:39:27Z</time>
      </trkpt>
      <trkpt lat="-35.0364" lon="-58.188984">
        <time>2021-05-01T13:39:28Z</time>
      </trkpt>
      <trkpt lat="-35.036373" lon="-58.189045">
        <time>2021-05-01T13:39:29Z</time>
      </trkpt>
      <trkpt lat="-35.036346" lon="-58.189106">
        <time>2021-05-01T13:39:30Z</time>
      </trkpt>
      <trkpt lat="-35.036324" lon="-58.189167">
        <time>2021-05-01T13:39:31Z</time>
      </trkpt>
      <trkpt lat="-35.0363" lon="-58.189228">
        <time>2021-05-01T13:39:32Z</time>
      </trkpt>
      <trkpt lat="-35.036278" lon="-58.189293">
        <time>2021-05-01T13:39:33Z</time>
      </trkpt>
      <trkpt lat="-35.036255" lon="-58.189354">
        <time>2021-05-01T13:39:34Z</time>
      </trkpt>
      <trkpt lat="-35.036232" lon="-58.18942">
        <time>2021-05-01T13:39:35Z</time>
      </trkpt>
      <trkpt lat="-35.03621" lon="-58.18948">
        <time>2021-05-01T13:39:36Z</time>
      </trkpt>
      <trkpt lat="-35.036182" lon="-58.18954">
        <time>2021-05-01T13:39:37Z</time>
      </trkpt>
      <trkpt lat="-35.03616" lon="-58.1896">
        <time>2021-05-01T13:39:38Z</time>
      </trkpt>
      <trkpt lat="-35.036133" lon="-58.189667">
        <time>2021-05-01T13:39:39Z</time>
      </trkpt>
      <trkpt lat="-35.03611" lon="-58.189728">
        <time>2021-05-01T13:39:40Z</time>
      </trkpt>
      <trkpt lat="-35.036087" lon="-58.189793">
        <time>2021-05-01T13:39:41Z</time>
      </trkpt>
      <trkpt lat="-35.036068" lon="-58.189854">
        <time>2021-05-01T13:39:42Z</time>
      </trkpt>
      <trkpt lat="-35.03604" lon="-58.189915">
        <time>2021-05-01T13:39:43Z</time>
      </trkpt>
      <trkpt lat="-35.03602" lon="-58.189976">
        <time>2021-05-01T13:39:44Z</time>
      </trkpt>
      <trkpt lat="-35.036" lon="-58.190033">
        <time>2021-05-01T13:39:45Z</time>
      </trkpt>
      <trkpt lat="-35.035976" lon="-58.19009">
        <time>2021-05-01T13:39:47Z</time>
      </trkpt>
      <trkpt lat="-35.035957" lon="-58.190147">
        <time>2021-05-01T13:39:48Z</time>
      </trkpt>
      <trkpt lat="-35.035934" lon="-58.19021">
        <time>2021-05-01T13:39:49Z</time>
      </trkpt>
      <trkpt lat="-35.03591" lon="-58.190266">
        <time>2021-05-01T13:39:50Z</time>
      </trkpt>
      <trkpt lat="-35.03589" lon="-58.19033">
        <time>2021-05-01T13:39:51Z</time>
      </trkpt>
      <trkpt lat="-35.035862" lon="-58.190388">
        <time>2021-05-01T13:39:52Z</time>
      </trkpt>
      <trkpt lat="-35.03584" lon="-58.19045">
        <time>2021-05-01T13:39:53Z</time>
      </trkpt>
      <trkpt lat="-35.035812" lon="-58.19051">
        <time>2021-05-01T13:39:54Z</time>
      </trkpt>
      <trkpt lat="-35.03579" lon="-58.19057">
        <time>2021-05-01T13:39:55Z</time>
      </trkpt>
      <trkpt lat="-35.035767" lon="-58.190628">
        <time>2021-05-01T13:39:56Z</time>
      </trkpt>
      <trkpt lat="-35.035744" lon="-58.19069">
        <time>2021-05-01T13:39:57Z</time>
      </trkpt>
      <trkpt lat="-35.035725" lon="-58.190746">
        <time>2021-05-01T13:39:58Z</time>
      </trkpt>
      <trkpt lat="-35.0357" lon="-58.190804">
        <time>2021-05-01T13:39:59Z</time>
      </trkpt>
      <trkpt lat="-35.03568" lon="-58.190857">
        <time>2021-05-01T13:40:00Z</time>
      </trkpt>
      <trkpt lat="-35.035656" lon="-58.19091">
        <time>2021-05-01T13:40:01Z</time>
      </trkpt>
      <trkpt lat="-35.035633" lon="-58.190968">
        <time>2021-05-01T13:40:02Z</time>
      </trkpt>
      <trkpt lat="-35.03561" lon="-58.191025">
        <time>2021-05-01T13:40:03Z</time>
      </trkpt>
      <trkpt lat="-35.035587" lon="-58.191086">
        <time>2021-05-01T13:40:04Z</time>
      </trkpt>
      <trkpt lat="-35.03557" lon="-58.191143">
        <time>2021-05-01T13:40:05Z</time>
      </trkpt>
      <trkpt lat="-35.035545" lon="-58.1912">
        <time>2021-05-01T13:40:06Z</time>
      </trkpt>
      <trkpt lat="-35.035522" lon="-58.191257">
        <time>2021-05-01T13:40:07Z</time>
      </trkpt>
      <trkpt lat="-35.0355" lon="-58.19132">
        <time>2021-05-01T13:40:08Z</time>
      </trkpt>
      <trkpt lat="-35.035477" lon="-58.191376">
        <time>2021-05-01T13:40:09Z</time>
      </trkpt>
      <trkpt lat="-35.035454" lon="-58.191437">
        <time>2021-05-01T13:40:10Z</time>
      </trkpt>
      <trkpt lat="-35.03543" lon="-58.191494">
        <time>2021-05-01T13:40:11Z</time>
      </trkpt>
      <trkpt lat="-35.035408" lon="-58.191555">
        <time>2021-05-01T13:40:12Z</time>
      </trkpt>
      <trkpt lat="-35.03539" lon="-58.191616">
        <time>2021-05-01T13:40:13Z</time>
      </trkpt>
      <trkpt lat="-35.035366" lon="-58.191673">
        <time>2021-05-01T13:40:14Z</time>
      </trkpt>
      <trkpt lat="-35.035343" lon="-58.191734">
        <time>2021-05-01T13:40:15Z</time>
      </trkpt>
      <trkpt lat="-35.03532" lon="-58.191795">
        <time>2021-05-01T13:40:16Z</time>
      </trkpt>
      <trkpt lat="-35.035297" lon="-58.191856">
        <time>2021-05-01T13:40:17Z</time>
      </trkpt>
      <trkpt lat="-35.035275" lon="-58.191917">
        <time>2021-05-01T13:40:18Z</time>
      </trkpt>
      <trkpt lat="-35.03525" lon="-58.191982">
        <time>2021-05-01T13:40:19Z</time>
      </trkpt>
      <trkpt lat="-35.03523" lon="-58.192043">
        <time>2021-05-01T13:40:20Z</time>
      </trkpt>
      <trkpt lat="-35.035202" lon="-58.192104">
        <time>2021-05-01T13:40:21Z</time>
      </trkpt>
      <trkpt lat="-35.03518" lon="-58.19217">
        <time>2021-05-01T13:40:22Z</time>
      </trkpt>
      <trkpt lat="-35.035156" lon="-58.19223">
        <time>2021-05-01T13:40:23Z</time>
      </trkpt>
      <trkpt lat="-35.035133" lon="-58.19229">
        <time>2021-05-01T13:40:24Z</time>
      </trkpt>
      <trkpt lat="-35.03511" lon="-58.192352">
        <time>2021-05-01T13:40:25Z</time>
      </trkpt>
      <trkpt lat="-35.035088" lon="-58.192413">
        <time>2021-05-01T13:40:26Z</time>
      </trkpt>
      <trkpt lat="-35.03506" lon="-58.19247">
        <time>2021-05-01T13:40:27Z</time>
      </trkpt>
      <trkpt lat="-35.035038" lon="-58.19253">
        <time>2021-05-01T13:40:28Z</time>
      </trkpt>
      <trkpt lat="-35.035015" lon="-58.192593">
        <time>2021-05-01T13:40:29Z</time>
      </trkpt>
      <trkpt lat="-35.034992" lon="-58.192654">
        <time>2021-05-01T13:40:30Z</time>
      </trkpt>
      <trkpt lat="-35.03497" lon="-58.19271">
        <time>2021-05-01T13:40:31Z</time>
      </trkpt>
      <trkpt lat="-35.03495" lon="-58.192772">
        <time>2021-05-01T13:40:32Z</time>
      </trkpt>
      <trkpt lat="-35.034927" lon="-58.19283">
        <time>2021-05-01T13:40:33Z</time>
      </trkpt>
      <trkpt lat="-35.034904" lon="-58.192883">
        <time>2021-05-01T13:40:34Z</time>
      </trkpt>
      <trkpt lat="-35.03488" lon="-58.192936">
        <time>2021-05-01T13:40:35Z</time>
      </trkpt>
      <trkpt lat="-35.03486" lon="-58.192997">
        <time>2021-05-01T13:40:36Z</time>
      </trkpt>
      <trkpt lat="-35.034836" lon="-58.193058">
        <time>2021-05-01T13:40:37Z</time>
      </trkpt>
      <trkpt lat="-35.03481" lon="-58.19312">
        <time>2021-05-01T13:40:38Z</time>
      </trkpt>
      <trkpt lat="-35.034786" lon="-58.19318">
        <time>2021-05-01T13:40:39Z</time>
      </trkpt>
      <trkpt lat="-35.034763" lon="-58.19324">
        <time>2021-05-01T13:40:40Z</time>
      </trkpt>
      <trkpt lat="-35.034737" lon="-58.193302">
        <time>2021-05-01T13:40:41Z</time>
      </trkpt>
      <trkpt lat="-35.03471" lon="-58.193363">
        <time>2021-05-01T13:40:42Z</time>
      </trkpt>
      <trkpt lat="-35.034687" lon="-58.193424">
        <time>2021-05-01T13:40:43Z</time>
      </trkpt>
      <trkpt lat="-35.034664" lon="-58.193485">
        <time>2021-05-01T13:40:44Z</time>
      </trkpt>
      <trkpt lat="-35.034645" lon="-58.193546">
        <time>2021-05-01T13:40:45Z</time>
      </trkpt>
      <trkpt lat="-35.034622" lon="-58.193607">
        <time>2021-05-01T13:40:46Z</time>
      </trkpt>
      <trkpt lat="-35.034595" lon="-58.193665">
        <time>2021-05-01T13:40:47Z</time>
      </trkpt>
      <trkpt lat="-35.03457" lon="-58.19372">
        <time>2021-05-01T13:40:48Z</time>
      </trkpt>
      <trkpt lat="-35.034546" lon="-58.193783">
        <time>2021-05-01T13:40:49Z</time>
      </trkpt>
      <trkpt lat="-35.034523" lon="-58.193844">
        <time>2021-05-01T13:40:50Z</time>
      </trkpt>
      <trkpt lat="-35.0345" lon="-58.193905">
        <time>2021-05-01T13:40:51Z</time>
      </trkpt>
      <trkpt lat="-35.034473" lon="-58.193966">
        <time>2021-05-01T13:40:52Z</time>
      </trkpt>
      <trkpt lat="-35.034443" lon="-58.194023">
        <time>2021-05-01T13:40:53Z</time>
      </trkpt>
      <trkpt lat="-35.03442" lon="-58.194084">
        <time>2021-05-01T13:40:54Z</time>
      </trkpt>
      <trkpt lat="-35.034397" lon="-58.194145">
        <time>2021-05-01T13:40:55Z</time>
      </trkpt>
      <trkpt lat="-35.034378" lon="-58.194206">
        <time>2021-05-01T13:40:56Z</time>
      </trkpt>
      <trkpt lat="-35.034355" lon="-58.194267">
        <time>2021-05-01T13:40:57Z</time>
      </trkpt>
      <trkpt lat="-35.034332" lon="-58.194324">
        <time>2021-05-01T13:40:58Z</time>
      </trkpt>
      <trkpt lat="-35.034306" lon="-58.194386">
        <time>2021-05-01T13:40:59Z</time>
      </trkpt>
      <trkpt lat="-35.034283" lon="-58.194443">
        <time>2021-05-01T13:41:00Z</time>
      </trkpt>
      <trkpt lat="-35.034256" lon="-58.194504">
        <time>2021-05-01T13:41:01Z</time>
      </trkpt>
      <trkpt lat="-35.034233" lon="-58.194565">
        <time>2021-05-01T13:41:02Z</time>
      </trkpt>
      <trkpt lat="-35.034214" lon="-58.194626">
        <time>2021-05-01T13:41:03Z</time>
      </trkpt>
      <trkpt lat="-35.034187" lon="-58.194683">
        <time>2021-05-01T13:41:04Z</time>
      </trkpt>
      <trkpt lat="-35.034164" lon="-58.194744">
        <time>2021-05-01T13:41:05Z</time>
      </trkpt>
      <trkpt lat="-35.03414" lon="-58.194805">
        <time>2021-05-01T13:41:06Z</time>
      </trkpt>
      <trkpt lat="-35.03412" lon="-58.194866">
        <time>2021-05-01T13:41:07Z</time>
      </trkpt>
      <trkpt lat="-35.034092" lon="-58.194923">
        <time>2021-05-01T13:41:08Z</time>
      </trkpt>
      <trkpt lat="-35.03407" lon="-58.194984">
        <time>2021-05-01T13:41:09Z</time>
      </trkpt>
      <trkpt lat="-35.03405" lon="-58.19505">
        <time>2021-05-01T13:41:10Z</time>
      </trkpt>
      <trkpt lat="-35.034027" lon="-58.19511">
        <time>2021-05-01T13:41:11Z</time>
      </trkpt>
      <trkpt lat="-35.034004" lon="-58.19517">
        <time>2021-05-01T13:41:12Z</time>
      </trkpt>
      <trkpt lat="-35.03398" lon="-58.195232">
        <time>2021-05-01T13:41:13Z</time>
      </trkpt>
      <trkpt lat="-35.033955" lon="-58.19529">
        <time>2021-05-01T13:41:14Z</time>
      </trkpt>
      <trkpt lat="-35.03393" lon="-58.195347">
        <time>2021-05-01T13:41:15Z</time>
      </trkpt>
      <trkpt lat="-35.03391" lon="-58.195404">
        <time>2021-05-01T13:41:16Z</time>
      </trkpt>
      <trkpt lat="-35.033886" lon="-58.19546">
        <time>2021-05-01T13:41:17Z</time>
      </trkpt>
      <trkpt lat="-35.033867" lon="-58.195522">
        <time>2021-05-01T13:41:18Z</time>
      </trkpt>
      <trkpt lat="-35.033844" lon="-58.195583">
        <time>2021-05-01T13:41:19Z</time>
      </trkpt>
      <trkpt lat="-35.033817" lon="-58.19564">
        <time>2021-05-01T13:41:20Z</time>
      </trkpt>
      <trkpt lat="-35.033794" lon="-58.1957">
        <time>2021-05-01T13:41:21Z</time>
      </trkpt>
      <trkpt lat="-35.03377" lon="-58.195763">
        <time>2021-05-01T13:41:22Z</time>
      </trkpt>
      <trkpt lat="-35.03375" lon="-58.195824">
        <time>2021-05-01T13:41:23Z</time>
      </trkpt>
      <trkpt lat="-35.033726" lon="-58.19588">
        <time>2021-05-01T13:41:24Z</time>
      </trkpt>
      <trkpt lat="-35.033703" lon="-58.195942">
        <time>2021-05-01T13:41:25Z</time>
      </trkpt>
      <trkpt lat="-35.03368" lon="-58.196003">
        <time>2021-05-01T13:41:26Z</time>
      </trkpt>
      <trkpt lat="-35.033657" lon="-58.196064">
        <time>2021-05-01T13:41:27Z</time>
      </trkpt>
      <trkpt lat="-35.033634" lon="-58.196125">
        <time>2021-05-01T13:41:28Z</time>
      </trkpt>
      <trkpt lat="-35.03361" lon="-58.196186">
        <time>2021-05-01T13:41:29Z</time>
      </trkpt>
      <trkpt lat="-35.03359" lon="-58.196247">
        <time>2021-05-01T13:41:30Z</time>
      </trkpt>
      <trkpt lat="-35.033566" lon="-58.196304">
        <time>2021-05-01T13:41:31Z</time>
      </trkpt>
      <trkpt lat="-35.033543" lon="-58.19636">
        <time>2021-05-01T13:41:32Z</time>
      </trkpt>
      <trkpt lat="-35.033524" lon="-58.196415">
        <time>2021-05-01T13:41:33Z</time>
      </trkpt>
      <trkpt lat="-35.0335" lon="-58.196472">
        <time>2021-05-01T13:41:34Z</time>
      </trkpt>
      <trkpt lat="-35.03348" lon="-58.196533">
        <time>2021-05-01T13:41:35Z</time>
      </trkpt>
      <trkpt lat="-35.03346" lon="-58.19659">
        <time>2021-05-01T13:41:36Z</time>
      </trkpt>
      <trkpt lat="-35.033436" lon="-58.19665">
        <time>2021-05-01T13:41:37Z</time>
      </trkpt>
      <trkpt lat="-35.033413" lon="-58.196712">
        <time>2021-05-01T13:41:38Z</time>
      </trkpt>
      <trkpt lat="-35.03339" lon="-58.196774">
        <time>2021-05-01T13:41:39Z</time>
      </trkpt>
      <trkpt lat="-35.033367" lon="-58.196835">
        <time>2021-05-01T13:41:40Z</time>
      </trkpt>
      <trkpt lat="-35.033344" lon="-58.196896">
        <time>2021-05-01T13:41:41Z</time>
      </trkpt>
      <trkpt lat="-35.033318" lon="-58.196957">
        <time>2021-05-01T13:41:42Z</time>
      </trkpt>
      <trkpt lat="-35.033295" lon="-58.197018">
        <time>2021-05-01T13:41:43Z</time>
      </trkpt>
      <trkpt lat="-35.03327" lon="-58.197083">
        <time>2021-05-01T13:41:44Z</time>
      </trkpt>
      <trkpt lat="-35.03325" lon="-58.197144">
        <time>2021-05-01T13:41:45Z</time>
      </trkpt>
      <trkpt lat="-35.033226" lon="-58.197205">
        <time>2021-05-01T13:41:46Z</time>
      </trkpt>
      <trkpt lat="-35.033203" lon="-58.197266">
        <time>2021-05-01T13:41:47Z</time>
      </trkpt>
      <trkpt lat="-35.033184" lon="-58.197327">
        <time>2021-05-01T13:41:48Z</time>
      </trkpt>
      <trkpt lat="-35.03316" lon="-58.197384">
        <time>2021-05-01T13:41:49Z</time>
      </trkpt>
      <trkpt lat="-35.03314" lon="-58.197445">
        <time>2021-05-01T13:41:50Z</time>
      </trkpt>
      <trkpt lat="-35.033115" lon="-58.197502">
        <time>2021-05-01T13:41:51Z</time>
      </trkpt>
      <trkpt lat="-35.033092" lon="-58.197563">
        <time>2021-05-01T13:41:52Z</time>
      </trkpt>
      <trkpt lat="-35.033073" lon="-58.197624">
        <time>2021-05-01T13:41:53Z</time>
      </trkpt>
      <trkpt lat="-35.03305" lon="-58.19768">
        <time>2021-05-01T13:41:54Z</time>
      </trkpt>
      <trkpt lat="-35.033028" lon="-58.197742">
        <time>2021-05-01T13:41:55Z</time>
      </trkpt>
      <trkpt lat="-35.033005" lon="-58.197803">
        <time>2021-05-01T13:41:56Z</time>
      </trkpt>
      <trkpt lat="-35.03298" lon="-58.197865">
        <time>2021-05-01T13:41:57Z</time>
      </trkpt>
      <trkpt lat="-35.03296" lon="-58.197926">
        <time>2021-05-01T13:41:58Z</time>
      </trkpt>
      <trkpt lat="-35.032936" lon="-58.197987">
        <time>2021-05-01T13:41:59Z</time>
      </trkpt>
      <trkpt lat="-35.032913" lon="-58.198048">
        <time>2021-05-01T13:42:00Z</time>
      </trkpt>
      <trkpt lat="-35.03289" lon="-58.198105">
        <time>2021-05-01T13:42:01Z</time>
      </trkpt>
      <trkpt lat="-35.032867" lon="-58.198166">
        <time>2021-05-01T13:42:02Z</time>
      </trkpt>
      <trkpt lat="-35.032845" lon="-58.198227">
        <time>2021-05-01T13:42:03Z</time>
      </trkpt>
      <trkpt lat="-35.03282" lon="-58.198288">
        <time>2021-05-01T13:42:04Z</time>
      </trkpt>
      <trkpt lat="-35.032795" lon="-58.19835">
        <time>2021-05-01T13:42:05Z</time>
      </trkpt>
      <trkpt lat="-35.032772" lon="-58.19841">
        <time>2021-05-01T13:42:06Z</time>
      </trkpt>
      <trkpt lat="-35.032753" lon="-58.19847">
        <time>2021-05-01T13:42:07Z</time>
      </trkpt>
      <trkpt lat="-35.03273" lon="-58.19853">
        <time>2021-05-01T13:42:08Z</time>
      </trkpt>
      <trkpt lat="-35.032707" lon="-58.19859">
        <time>2021-05-01T13:42:09Z</time>
      </trkpt>
      <trkpt lat="-35.032684" lon="-58.19865">
        <time>2021-05-01T13:42:10Z</time>
      </trkpt>
      <trkpt lat="-35.03266" lon="-58.19871">
        <time>2021-05-01T13:42:11Z</time>
      </trkpt>
      <trkpt lat="-35.03264" lon="-58.198772">
        <time>2021-05-01T13:42:12Z</time>
      </trkpt>
      <trkpt lat="-35.032616" lon="-58.19883">
        <time>2021-05-01T13:42:13Z</time>
      </trkpt>
      <trkpt lat="-35.032593" lon="-58.198887">
        <time>2021-05-01T13:42:14Z</time>
      </trkpt>
      <trkpt lat="-35.03257" lon="-58.198944">
        <time>2021-05-01T13:42:15Z</time>
      </trkpt>
      <trkpt lat="-35.03255" lon="-58.199">
        <time>2021-05-01T13:42:16Z</time>
      </trkpt>
      <trkpt lat="-35.032528" lon="-58.19906">
        <time>2021-05-01T13:42:17Z</time>
      </trkpt>
      <trkpt lat="-35.032505" lon="-58.199116">
        <time>2021-05-01T13:42:18Z</time>
      </trkpt>
      <trkpt lat="-35.032482" lon="-58.199173">
        <time>2021-05-01T13:42:19Z</time>
      </trkpt>
      <trkpt lat="-35.03246" lon="-58.19923">
        <time>2021-05-01T13:42:20Z</time>
      </trkpt>
      <trkpt lat="-35.03244" lon="-58.19929">
        <time>2021-05-01T13:42:21Z</time>
      </trkpt>
      <trkpt lat="-35.032417" lon="-58.19935">
        <time>2021-05-01T13:42:22Z</time>
      </trkpt>
      <trkpt lat="-35.032394" lon="-58.199406">
        <time>2021-05-01T13:42:23Z</time>
      </trkpt>
      <trkpt lat="-35.032375" lon="-58.199463">
        <time>2021-05-01T13:42:24Z</time>
      </trkpt>
      <trkpt lat="-35.032352" lon="-58.199516">
        <time>2021-05-01T13:42:25Z</time>
      </trkpt>
      <trkpt lat="-35.03233" lon="-58.199574">
        <time>2021-05-01T13:42:26Z</time>
      </trkpt>
      <trkpt lat="-35.03231" lon="-58.19963">
        <time>2021-05-01T13:42:27Z</time>
      </trkpt>
      <trkpt lat="-35.032288" lon="-58.199688">
        <time>2021-05-01T13:42:28Z</time>
      </trkpt>
      <trkpt lat="-35.032265" lon="-58.199745">
        <time>2021-05-01T13:42:29Z</time>
      </trkpt>
      <trkpt lat="-35.03224" lon="-58.199806">
        <time>2021-05-01T13:42:30Z</time>
      </trkpt>
      <trkpt lat="-35.03222" lon="-58.199863">
        <time>2021-05-01T13:42:31Z</time>
      </trkpt>
      <trkpt lat="-35.032196" lon="-58.199924">
        <time>2021-05-01T13:42:32Z</time>
      </trkpt>
      <trkpt lat="-35.032173" lon="-58.19998">
        <time>2021-05-01T13:42:33Z</time>
      </trkpt>
      <trkpt lat="-35.03215" lon="-58.200043">
        <time>2021-05-01T13:42:34Z</time>
      </trkpt>
      <trkpt lat="-35.032127" lon="-58.2001">
        <time>2021-05-01T13:42:35Z</time>
      </trkpt>
      <trkpt lat="-35.032104" lon="-58.20016">
        <time>2021-05-01T13:42:36Z</time>
      </trkpt>
      <trkpt lat="-35.03208" lon="-58.20022">
        <time>2021-05-01T13:42:37Z</time>
      </trkpt>
      <trkpt lat="-35.032063" lon="-58.200275">
        <time>2021-05-01T13:42:38Z</time>
      </trkpt>
      <trkpt lat="-35.03204" lon="-58.200336">
        <time>2021-05-01T13:42:39Z</time>
      </trkpt>
      <trkpt lat="-35.032017" lon="-58.200394">
        <time>2021-05-01T13:42:40Z</time>
      </trkpt>
      <trkpt lat="-35.03199" lon="-58.20045">
        <time>2021-05-01T13:42:41Z</time>
      </trkpt>
      <trkpt lat="-35.031967" lon="-58.200512">
        <time>2021-05-01T13:42:42Z</time>
      </trkpt>
      <trkpt lat="-35.031948" lon="-58.20057">
        <time>2021-05-01T13:42:43Z</time>
      </trkpt>
      <trkpt lat="-35.03192" lon="-58.20063">
        <time>2021-05-01T13:42:44Z</time>
      </trkpt>
      <trkpt lat="-35.0319" lon="-58.200684">
        <time>2021-05-01T13:42:45Z</time>
      </trkpt>
      <trkpt lat="-35.031876" lon="-58.200745">
        <time>2021-05-01T13:42:46Z</time>
      </trkpt>
      <trkpt lat="-35.031853" lon="-58.2008">
        <time>2021-05-01T13:42:47Z</time>
      </trkpt>
      <trkpt lat="-35.031834" lon="-58.200863">
        <time>2021-05-01T13:42:48Z</time>
      </trkpt>
      <trkpt lat="-35.03181" lon="-58.20092">
        <time>2021-05-01T13:42:49Z</time>
      </trkpt>
      <trkpt lat="-35.031788" lon="-58.200977">
        <time>2021-05-01T13:42:50Z</time>
      </trkpt>
      <trkpt lat="-35.03177" lon="-58.201035">
        <time>2021-05-01T13:42:51Z</time>
      </trkpt>
      <trkpt lat="-35.03175" lon="-58.20109">
        <time>2021-05-01T13:42:52Z</time>
      </trkpt>
      <trkpt lat="-35.031727" lon="-58.20115">
        <time>2021-05-01T13:42:53Z</time>
      </trkpt>
      <trkpt lat="-35.031704" lon="-58.201206">
        <time>2021-05-01T13:42:54Z</time>
      </trkpt>
      <trkpt lat="-35.03168" lon="-58.201263">
        <time>2021-05-01T13:42:55Z</time>
      </trkpt>
      <trkpt lat="-35.03166" lon="-58.20132">
        <time>2021-05-01T13:42:56Z</time>
      </trkpt>
      <trkpt lat="-35.031635" lon="-58.201378">
        <time>2021-05-01T13:42:57Z</time>
      </trkpt>
      <trkpt lat="-35.031612" lon="-58.201435">
        <time>2021-05-01T13:42:58Z</time>
      </trkpt>
      <trkpt lat="-35.03159" lon="-58.201492">
        <time>2021-05-01T13:42:59Z</time>
      </trkpt>
      <trkpt lat="-35.03157" lon="-58.201553">
        <time>2021-05-01T13:43:00Z</time>
      </trkpt>
      <trkpt lat="-35.031548" lon="-58.20161">
        <time>2021-05-01T13:43:01Z</time>
      </trkpt>
      <trkpt lat="-35.031525" lon="-58.201668">
        <time>2021-05-01T13:43:02Z</time>
      </trkpt>
      <trkpt lat="-35.0315" lon="-58.20173">
        <time>2021-05-01T13:43:03Z</time>
      </trkpt>
      <trkpt lat="-35.031483" lon="-58.201786">
        <time>2021-05-01T13:43:04Z</time>
      </trkpt>
      <trkpt lat="-35.03146" lon="-58.201847">
        <time>2021-05-01T13:43:05Z</time>
      </trkpt>
      <trkpt lat="-35.03144" lon="-58.201904">
        <time>2021-05-01T13:43:06Z</time>
      </trkpt>
      <trkpt lat="-35.031418" lon="-58.201965">
        <time>2021-05-01T13:43:07Z</time>
      </trkpt>
      <trkpt lat="-35.031395" lon="-58.202023">
        <time>2021-05-01T13:43:08Z</time>
      </trkpt>
      <trkpt lat="-35.031372" lon="-58.202084">
        <time>2021-05-01T13:43:09Z</time>
      </trkpt>
      <trkpt lat="-35.03135" lon="-58.20214">
        <time>2021-05-01T13:43:10Z</time>
      </trkpt>
      <trkpt lat="-35.031326" lon="-58.202198">
        <time>2021-05-01T13:43:11Z</time>
      </trkpt>
      <trkpt lat="-35.031303" lon="-58.20225">
        <time>2021-05-01T13:43:12Z</time>
      </trkpt>
      <trkpt lat="-35.031284" lon="-58.20231">
        <time>2021-05-01T13:43:13Z</time>
      </trkpt>
      <trkpt lat="-35.03126" lon="-58.202362">
        <time>2021-05-01T13:43:14Z</time>
      </trkpt>
      <trkpt lat="-35.031242" lon="-58.20242">
        <time>2021-05-01T13:43:15Z</time>
      </trkpt>
      <trkpt lat="-35.03122" lon="-58.202473">
        <time>2021-05-01T13:43:16Z</time>
      </trkpt>
      <trkpt lat="-35.0312" lon="-58.202526">
        <time>2021-05-01T13:43:17Z</time>
      </trkpt>
      <trkpt lat="-35.031178" lon="-58.20258">
        <time>2021-05-01T13:43:18Z</time>
      </trkpt>
      <trkpt lat="-35.03116" lon="-58.20263">
        <time>2021-05-01T13:43:19Z</time>
      </trkpt>
      <trkpt lat="-35.03114" lon="-58.202682">
        <time>2021-05-01T13:43:20Z</time>
      </trkpt>
      <trkpt lat="-35.03112" lon="-58.202736">
        <time>2021-05-01T13:43:21Z</time>
      </trkpt>
      <trkpt lat="-35.031097" lon="-58.20279">
        <time>2021-05-01T13:43:22Z</time>
      </trkpt>
      <trkpt lat="-35.03108" lon="-58.202843">
        <time>2021-05-01T13:43:23Z</time>
      </trkpt>
      <trkpt lat="-35.031055" lon="-58.202896">
        <time>2021-05-01T13:43:24Z</time>
      </trkpt>
      <trkpt lat="-35.031036" lon="-58.202953">
        <time>2021-05-01T13:43:25Z</time>
      </trkpt>
      <trkpt lat="-35.031013" lon="-58.203007">
        <time>2021-05-01T13:43:26Z</time>
      </trkpt>
      <trkpt lat="-35.030994" lon="-58.20306">
        <time>2021-05-01T13:43:27Z</time>
      </trkpt>
      <trkpt lat="-35.03097" lon="-58.203117">
        <time>2021-05-01T13:43:28Z</time>
      </trkpt>
      <trkpt lat="-35.03095" lon="-58.20317">
        <time>2021-05-01T13:43:29Z</time>
      </trkpt>
      <trkpt lat="-35.03093" lon="-58.203228">
        <time>2021-05-01T13:43:30Z</time>
      </trkpt>
      <trkpt lat="-35.030907" lon="-58.20328">
        <time>2021-05-01T13:43:31Z</time>
      </trkpt>
      <trkpt lat="-35.030888" lon="-58.20334">
        <time>2021-05-01T13:43:32Z</time>
      </trkpt>
      <trkpt lat="-35.030865" lon="-58.203392">
        <time>2021-05-01T13:43:33Z</time>
      </trkpt>
      <trkpt lat="-35.03084" lon="-58.20345">
        <time>2021-05-01T13:43:34Z</time>
      </trkpt>
      <trkpt lat="-35.03082" lon="-58.203506">
        <time>2021-05-01T13:43:35Z</time>
      </trkpt>
      <trkpt lat="-35.0308" lon="-58.203564">
        <time>2021-05-01T13:43:36Z</time>
      </trkpt>
      <trkpt lat="-35.030777" lon="-58.20362">
        <time>2021-05-01T13:43:37Z</time>
      </trkpt>
      <trkpt lat="-35.030758" lon="-58.20368">
        <time>2021-05-01T13:43:38Z</time>
      </trkpt>
      <trkpt lat="-35.030735" lon="-58.20373">
        <time>2021-05-01T13:43:39Z</time>
      </trkpt>
      <trkpt lat="-35.030716" lon="-58.20379">
        <time>2021-05-01T13:43:40Z</time>
      </trkpt>
      <trkpt lat="-35.030693" lon="-58.203846">
        <time>2021-05-01T13:43:41Z</time>
      </trkpt>
      <trkpt lat="-35.03067" lon="-58.2039">
        <time>2021-05-01T13:43:42Z</time>
      </trkpt>
      <trkpt lat="-35.030647" lon="-58.203957">
        <time>2021-05-01T13:43:43Z</time>
      </trkpt>
      <trkpt lat="-35.03063" lon="-58.204014">
        <time>2021-05-01T13:43:44Z</time>
      </trkpt>
      <trkpt lat="-35.030605" lon="-58.204067">
        <time>2021-05-01T13:43:45Z</time>
      </trkpt>
      <trkpt lat="-35.030582" lon="-58.204124">
        <time>2021-05-01T13:43:46Z</time>
      </trkpt>
      <trkpt lat="-35.030563" lon="-58.204178">
        <time>2021-05-01T13:43:47Z</time>
      </trkpt>
      <trkpt lat="-35.03054" lon="-58.204235">
        <time>2021-05-01T13:43:48Z</time>
      </trkpt>
      <trkpt lat="-35.030518" lon="-58.204296">
        <time>2021-05-01T13:43:49Z</time>
      </trkpt>
      <trkpt lat="-35.0305" lon="-58.204353">
        <time>2021-05-01T13:43:50Z</time>
      </trkpt>
      <trkpt lat="-35.030476" lon="-58.20441">
        <time>2021-05-01T13:43:51Z</time>
      </trkpt>
      <trkpt lat="-35.030453" lon="-58.20447">
        <time>2021-05-01T13:43:52Z</time>
      </trkpt>
      <trkpt lat="-35.03043" lon="-58.20453">
        <time>2021-05-01T13:43:53Z</time>
      </trkpt>
      <trkpt lat="-35.030407" lon="-58.204586">
        <time>2021-05-01T13:43:54Z</time>
      </trkpt>
      <trkpt lat="-35.030384" lon="-58.20464">
        <time>2021-05-01T13:43:55Z</time>
      </trkpt>
      <trkpt lat="-35.030365" lon="-58.204697">
        <time>2021-05-01T13:43:56Z</time>
      </trkpt>
      <trkpt lat="-35.03034" lon="-58.204758">
        <time>2021-05-01T13:43:57Z</time>
      </trkpt>
      <trkpt lat="-35.030315" lon="-58.204815">
        <time>2021-05-01T13:43:58Z</time>
      </trkpt>
      <trkpt lat="-35.030296" lon="-58.204876">
        <time>2021-05-01T13:43:59Z</time>
      </trkpt>
      <trkpt lat="-35.030273" lon="-58.204937">
        <time>2021-05-01T13:44:00Z</time>
      </trkpt>
      <trkpt lat="-35.03025" lon="-58.204994">
        <time>2021-05-01T13:44:01Z</time>
      </trkpt>
      <trkpt lat="-35.030228" lon="-58.20505">
        <time>2021-05-01T13:44:02Z</time>
      </trkpt>
      <trkpt lat="-35.030205" lon="-58.205112">
        <time>2021-05-01T13:44:03Z</time>
      </trkpt>
      <trkpt lat="-35.03018" lon="-58.20517">
        <time>2021-05-01T13:44:04Z</time>
      </trkpt>
      <trkpt lat="-35.03016" lon="-58.205227">
        <time>2021-05-01T13:44:05Z</time>
      </trkpt>
      <trkpt lat="-35.030136" lon="-58.205288">
        <time>2021-05-01T13:44:06Z</time>
      </trkpt>
      <trkpt lat="-35.030113" lon="-58.205345">
        <time>2021-05-01T13:44:07Z</time>
      </trkpt>
      <trkpt lat="-35.030094" lon="-58.205402">
        <time>2021-05-01T13:44:08Z</time>
      </trkpt>
      <trkpt lat="-35.03007" lon="-58.20546">
        <time>2021-05-01T13:44:09Z</time>
      </trkpt>
      <trkpt lat="-35.03005" lon="-58.205517">
        <time>2021-05-01T13:44:10Z</time>
      </trkpt>
      <trkpt lat="-35.030025" lon="-58.205574">
        <time>2021-05-01T13:44:11Z</time>
      </trkpt>
      <trkpt lat="-35.030006" lon="-58.20563">
        <time>2021-05-01T13:44:12Z</time>
      </trkpt>
      <trkpt lat="-35.029984" lon="-58.20569">
        <time>2021-05-01T13:44:13Z</time>
      </trkpt>
      <trkpt lat="-35.029964" lon="-58.205746">
        <time>2021-05-01T13:44:14Z</time>
      </trkpt>
      <trkpt lat="-35.02994" lon="-58.205803">
        <time>2021-05-01T13:44:15Z</time>
      </trkpt>
      <trkpt lat="-35.02992" lon="-58.205864">
        <time>2021-05-01T13:44:16Z</time>
      </trkpt>
      <trkpt lat="-35.029892" lon="-58.20592">
        <time>2021-05-01T13:44:17Z</time>
      </trkpt>
      <trkpt lat="-35.02987" lon="-58.20598">
        <time>2021-05-01T13:44:18Z</time>
      </trkpt>
      <trkpt lat="-35.02985" lon="-58.20604">
        <time>2021-05-01T13:44:19Z</time>
      </trkpt>
      <trkpt lat="-35.029827" lon="-58.206097">
        <time>2021-05-01T13:44:20Z</time>
      </trkpt>
      <trkpt lat="-35.029804" lon="-58.206158">
        <time>2021-05-01T13:44:21Z</time>
      </trkpt>
      <trkpt lat="-35.02978" lon="-58.20622">
        <time>2021-05-01T13:44:22Z</time>
      </trkpt>
      <trkpt lat="-35.02976" lon="-58.206276">
        <time>2021-05-01T13:44:23Z</time>
      </trkpt>
      <trkpt lat="-35.029736" lon="-58.206337">
        <time>2021-05-01T13:44:24Z</time>
      </trkpt>
      <trkpt lat="-35.029716" lon="-58.206398">
        <time>2021-05-01T13:44:25Z</time>
      </trkpt>
      <trkpt lat="-35.02969" lon="-58.206455">
        <time>2021-05-01T13:44:26Z</time>
      </trkpt>
      <trkpt lat="-35.029667" lon="-58.206516">
        <time>2021-05-01T13:44:27Z</time>
      </trkpt>
      <trkpt lat="-35.029648" lon="-58.206577">
        <time>2021-05-01T13:44:28Z</time>
      </trkpt>
      <trkpt lat="-35.029625" lon="-58.206635">
        <time>2021-05-01T13:44:29Z</time>
      </trkpt>
      <trkpt lat="-35.029606" lon="-58.20669">
        <time>2021-05-01T13:44:30Z</time>
      </trkpt>
      <trkpt lat="-35.029583" lon="-58.206753">
        <time>2021-05-01T13:44:31Z</time>
      </trkpt>
      <trkpt lat="-35.029564" lon="-58.20681">
        <time>2021-05-01T13:44:32Z</time>
      </trkpt>
      <trkpt lat="-35.02954" lon="-58.206867">
        <time>2021-05-01T13:44:33Z</time>
      </trkpt>
      <trkpt lat="-35.029514" lon="-58.20693">
        <time>2021-05-01T13:44:34Z</time>
      </trkpt>
      <trkpt lat="-35.02949" lon="-58.206985">
        <time>2021-05-01T13:44:35Z</time>
      </trkpt>
      <trkpt lat="-35.02947" lon="-58.207047">
        <time>2021-05-01T13:44:36Z</time>
      </trkpt>
      <trkpt lat="-35.029446" lon="-58.20711">
        <time>2021-05-01T13:44:37Z</time>
      </trkpt>
      <trkpt lat="-35.029423" lon="-58.207172">
        <time>2021-05-01T13:44:38Z</time>
      </trkpt>
      <trkpt lat="-35.0294" lon="-58.207233">
        <time>2021-05-01T13:44:39Z</time>
      </trkpt>
      <trkpt lat="-35.029377" lon="-58.2073">
        <time>2021-05-01T13:44:40Z</time>
      </trkpt>
      <trkpt lat="-35.02935" lon="-58.20736">
        <time>2021-05-01T13:44:41Z</time>
      </trkpt>
      <trkpt lat="-35.029327" lon="-58.20742">
        <time>2021-05-01T13:44:42Z</time>
      </trkpt>
      <trkpt lat="-35.029305" lon="-58.20748">
        <time>2021-05-01T13:44:43Z</time>
      </trkpt>
      <trkpt lat="-35.02928" lon="-58.207542">
        <time>2021-05-01T13:44:44Z</time>
      </trkpt>
      <trkpt lat="-35.02926" lon="-58.2076">
        <time>2021-05-01T13:44:45Z</time>
      </trkpt>
      <trkpt lat="-35.029236" lon="-58.20766">
        <time>2021-05-01T13:44:46Z</time>
      </trkpt>
      <trkpt lat="-35.029213" lon="-58.20772">
        <time>2021-05-01T13:44:47Z</time>
      </trkpt>
      <trkpt lat="-35.02919" lon="-58.207783">
        <time>2021-05-01T13:44:48Z</time>
      </trkpt>
      <trkpt lat="-35.029167" lon="-58.20784">
        <time>2021-05-01T13:44:49Z</time>
      </trkpt>
      <trkpt lat="-35.02915" lon="-58.2079">
        <time>2021-05-01T13:44:50Z</time>
      </trkpt>
      <trkpt lat="-35.02912" lon="-58.207962">
        <time>2021-05-01T13:44:51Z</time>
      </trkpt>
      <trkpt lat="-35.0291" lon="-58.208023">
        <time>2021-05-01T13:44:52Z</time>
      </trkpt>
      <trkpt lat="-35.02908" lon="-58.20808">
        <time>2021-05-01T13:44:53Z</time>
      </trkpt>
      <trkpt lat="-35.029057" lon="-58.20814">
        <time>2021-05-01T13:44:54Z</time>
      </trkpt>
      <trkpt lat="-35.029034" lon="-58.208202">
        <time>2021-05-01T13:44:55Z</time>
      </trkpt>
      <trkpt lat="-35.02901" lon="-58.208263">
        <time>2021-05-01T13:44:56Z</time>
      </trkpt>
      <trkpt lat="-35.028988" lon="-58.208324">
        <time>2021-05-01T13:44:57Z</time>
      </trkpt>
      <trkpt lat="-35.028965" lon="-58.208385">
        <time>2021-05-01T13:44:58Z</time>
      </trkpt>
      <trkpt lat="-35.028942" lon="-58.208447">
        <time>2021-05-01T13:44:59Z</time>
      </trkpt>
      <trkpt lat="-35.02892" lon="-58.208504">
        <time>2021-05-01T13:45:00Z</time>
      </trkpt>
      <trkpt lat="-35.028896" lon="-58.208565">
        <time>2021-05-01T13:45:01Z</time>
      </trkpt>
      <trkpt lat="-35.028873" lon="-58.208626">
        <time>2021-05-01T13:45:02Z</time>
      </trkpt>
      <trkpt lat="-35.02885" lon="-58.208687">
        <time>2021-05-01T13:45:03Z</time>
      </trkpt>
      <trkpt lat="-35.02883" lon="-58.208748">
        <time>2021-05-01T13:45:04Z</time>
      </trkpt>
      <trkpt lat="-35.02881" lon="-58.208805">
        <time>2021-05-01T13:45:05Z</time>
      </trkpt>
      <trkpt lat="-35.02878" lon="-58.208866">
        <time>2021-05-01T13:45:06Z</time>
      </trkpt>
      <trkpt lat="-35.02876" lon="-58.208927">
        <time>2021-05-01T13:45:07Z</time>
      </trkpt>
      <trkpt lat="-35.028736" lon="-58.208984">
        <time>2021-05-01T13:45:08Z</time>
      </trkpt>
      <trkpt lat="-35.028713" lon="-58.209045">
        <time>2021-05-01T13:45:09Z</time>
      </trkpt>
      <trkpt lat="-35.02869" lon="-58.209106">
        <time>2021-05-01T13:45:10Z</time>
      </trkpt>
      <trkpt lat="-35.028664" lon="-58.20917">
        <time>2021-05-01T13:45:11Z</time>
      </trkpt>
      <trkpt lat="-35.02864" lon="-58.209232">
        <time>2021-05-01T13:45:12Z</time>
      </trkpt>
      <trkpt lat="-35.028618" lon="-58.209293">
        <time>2021-05-01T13:45:13Z</time>
      </trkpt>
      <trkpt lat="-35.028595" lon="-58.209354">
        <time>2021-05-01T13:45:14Z</time>
      </trkpt>
      <trkpt lat="-35.028572" lon="-58.209415">
        <time>2021-05-01T13:45:15Z</time>
      </trkpt>
      <trkpt lat="-35.02855" lon="-58.209473">
        <time>2021-05-01T13:45:16Z</time>
      </trkpt>
      <trkpt lat="-35.02853" lon="-58.209534">
        <time>2021-05-01T13:45:17Z</time>
      </trkpt>
      <trkpt lat="-35.028507" lon="-58.20959">
        <time>2021-05-01T13:45:18Z</time>
      </trkpt>
      <trkpt lat="-35.028484" lon="-58.209652">
        <time>2021-05-01T13:45:19Z</time>
      </trkpt>
      <trkpt lat="-35.028458" lon="-58.20971">
        <time>2021-05-01T13:45:20Z</time>
      </trkpt>
      <trkpt lat="-35.028435" lon="-58.20977">
        <time>2021-05-01T13:45:21Z</time>
      </trkpt>
      <trkpt lat="-35.028416" lon="-58.209827">
        <time>2021-05-01T13:45:22Z</time>
      </trkpt>
      <trkpt lat="-35.028393" lon="-58.20989">
        <time>2021-05-01T13:45:23Z</time>
      </trkpt>
      <trkpt lat="-35.02837" lon="-58.20995">
        <time>2021-05-01T13:45:24Z</time>
      </trkpt>
      <trkpt lat="-35.028347" lon="-58.21001">
        <time>2021-05-01T13:45:25Z</time>
      </trkpt>
      <trkpt lat="-35.028324" lon="-58.210068">
        <time>2021-05-01T13:45:26Z</time>
      </trkpt>
      <trkpt lat="-35.028305" lon="-58.210125">
        <time>2021-05-01T13:45:27Z</time>
      </trkpt>
      <trkpt lat="-35.028282" lon="-58.210186">
        <time>2021-05-01T13:45:28Z</time>
      </trkpt>
      <trkpt lat="-35.028263" lon="-58.21024">
        <time>2021-05-01T13:45:29Z</time>
      </trkpt>
      <trkpt lat="-35.028244" lon="-58.210297">
        <time>2021-05-01T13:45:30Z</time>
      </trkpt>
      <trkpt lat="-35.02822" lon="-58.210354">
        <time>2021-05-01T13:45:31Z</time>
      </trkpt>
      <trkpt lat="-35.0282" lon="-58.21041">
        <time>2021-05-01T13:45:32Z</time>
      </trkpt>
      <trkpt lat="-35.028175" lon="-58.21047">
        <time>2021-05-01T13:45:33Z</time>
      </trkpt>
      <trkpt lat="-35.028156" lon="-58.21052">
        <time>2021-05-01T13:45:34Z</time>
      </trkpt>
      <trkpt lat="-35.028133" lon="-58.21058">
        <time>2021-05-01T13:45:35Z</time>
      </trkpt>
      <trkpt lat="-35.02811" lon="-58.210636">
        <time>2021-05-01T13:45:36Z</time>
      </trkpt>
      <trkpt lat="-35.028088" lon="-58.210697">
        <time>2021-05-01T13:45:37Z</time>
      </trkpt>
      <trkpt lat="-35.028065" lon="-58.21076">
        <time>2021-05-01T13:45:38Z</time>
      </trkpt>
      <trkpt lat="-35.028046" lon="-58.21082">
        <time>2021-05-01T13:45:39Z</time>
      </trkpt>
      <trkpt lat="-35.028023" lon="-58.21088">
        <time>2021-05-01T13:45:40Z</time>
      </trkpt>
      <trkpt lat="-35.028" lon="-58.210938">
        <time>2021-05-01T13:45:41Z</time>
      </trkpt>
      <trkpt lat="-35.027977" lon="-58.211">
        <time>2021-05-01T13:45:42Z</time>
      </trkpt>
      <trkpt lat="-35.027954" lon="-58.211056">
        <time>2021-05-01T13:45:43Z</time>
      </trkpt>
      <trkpt lat="-35.02793" lon="-58.211113">
        <time>2021-05-01T13:45:44Z</time>
      </trkpt>
      <trkpt lat="-35.02791" lon="-58.211174">
        <time>2021-05-01T13:45:45Z</time>
      </trkpt>
      <trkpt lat="-35.027885" lon="-58.211235">
        <time>2021-05-01T13:45:46Z</time>
      </trkpt>
      <trkpt lat="-35.027866" lon="-58.211292">
        <time>2021-05-01T13:45:47Z</time>
      </trkpt>
      <trkpt lat="-35.027843" lon="-58.211353">
        <time>2021-05-01T13:45:48Z</time>
      </trkpt>
      <trkpt lat="-35.02782" lon="-58.21141">
        <time>2021-05-01T13:45:49Z</time>
      </trkpt>
      <trkpt lat="-35.027798" lon="-58.21147">
        <time>2021-05-01T13:45:50Z</time>
      </trkpt>
      <trkpt lat="-35.027775" lon="-58.211533">
        <time>2021-05-01T13:45:51Z</time>
      </trkpt>
      <trkpt lat="-35.027752" lon="-58.211594">
        <time>2021-05-01T13:45:52Z</time>
      </trkpt>
      <trkpt lat="-35.02773" lon="-58.211655">
        <time>2021-05-01T13:45:53Z</time>
      </trkpt>
      <trkpt lat="-35.027706" lon="-58.21171">
        <time>2021-05-01T13:45:54Z</time>
      </trkpt>
      <trkpt lat="-35.027683" lon="-58.211773">
        <time>2021-05-01T13:45:55Z</time>
      </trkpt>
      <trkpt lat="-35.02766" lon="-58.21183">
        <time>2021-05-01T13:45:56Z</time>
      </trkpt>
      <trkpt lat="-35.02764" lon="-58.211887">
        <time>2021-05-01T13:45:57Z</time>
      </trkpt>
      <trkpt lat="-35.02762" lon="-58.211945">
        <time>2021-05-01T13:45:58Z</time>
      </trkpt>
      <trkpt lat="-35.027596" lon="-58.212006">
        <time>2021-05-01T13:45:59Z</time>
      </trkpt>
      <trkpt lat="-35.027573" lon="-58.212063">
        <time>2021-05-01T13:46:00Z</time>
      </trkpt>
      <trkpt lat="-35.02755" lon="-58.21212">
        <time>2021-05-01T13:46:01Z</time>
      </trkpt>
      <trkpt lat="-35.02753" lon="-58.212177">
        <time>2021-05-01T13:46:02Z</time>
      </trkpt>
      <trkpt lat="-35.027504" lon="-58.212234">
        <time>2021-05-01T13:46:03Z</time>
      </trkpt>
      <trkpt lat="-35.027485" lon="-58.212296">
        <time>2021-05-01T13:46:04Z</time>
      </trkpt>
      <trkpt lat="-35.027462" lon="-58.212353">
        <time>2021-05-01T13:46:05Z</time>
      </trkpt>
      <trkpt lat="-35.02744" lon="-58.212414">
        <time>2021-05-01T13:46:06Z</time>
      </trkpt>
      <trkpt lat="-35.02742" lon="-58.21247">
        <time>2021-05-01T13:46:07Z</time>
      </trkpt>
      <trkpt lat="-35.027397" lon="-58.212532">
        <time>2021-05-01T13:46:08Z</time>
      </trkpt>
      <trkpt lat="-35.027374" lon="-58.21259">
        <time>2021-05-01T13:46:09Z</time>
      </trkpt>
      <trkpt lat="-35.02735" lon="-58.21265">
        <time>2021-05-01T13:46:10Z</time>
      </trkpt>
      <trkpt lat="-35.02733" lon="-58.212708">
        <time>2021-05-01T13:46:11Z</time>
      </trkpt>
      <trkpt lat="-35.027306" lon="-58.21277">
        <time>2021-05-01T13:46:12Z</time>
      </trkpt>
      <trkpt lat="-35.027283" lon="-58.21283">
        <time>2021-05-01T13:46:13Z</time>
      </trkpt>
      <trkpt lat="-35.02726" lon="-58.21289">
        <time>2021-05-01T13:46:14Z</time>
      </trkpt>
      <trkpt lat="-35.027237" lon="-58.21295">
        <time>2021-05-01T13:46:15Z</time>
      </trkpt>
      <trkpt lat="-35.027214" lon="-58.213017">
        <time>2021-05-01T13:46:16Z</time>
      </trkpt>
      <trkpt lat="-35.02719" lon="-58.213078">
        <time>2021-05-01T13:46:17Z</time>
      </trkpt>
      <trkpt lat="-35.02717" lon="-58.21314">
        <time>2021-05-01T13:46:18Z</time>
      </trkpt>
      <trkpt lat="-35.027145" lon="-58.213203">
        <time>2021-05-01T13:46:19Z</time>
      </trkpt>
      <trkpt lat="-35.02712" lon="-58.213264">
        <time>2021-05-01T13:46:20Z</time>
      </trkpt>
      <trkpt lat="-35.0271" lon="-58.21332">
        <time>2021-05-01T13:46:21Z</time>
      </trkpt>
      <trkpt lat="-35.027077" lon="-58.213383">
        <time>2021-05-01T13:46:22Z</time>
      </trkpt>
      <trkpt lat="-35.02705" lon="-58.213444">
        <time>2021-05-01T13:46:23Z</time>
      </trkpt>
      <trkpt lat="-35.02703" lon="-58.213505">
        <time>2021-05-01T13:46:24Z</time>
      </trkpt>
      <trkpt lat="-35.027008" lon="-58.213566">
        <time>2021-05-01T13:46:25Z</time>
      </trkpt>
      <trkpt lat="-35.026985" lon="-58.213623">
        <time>2021-05-01T13:46:26Z</time>
      </trkpt>
      <trkpt lat="-35.026962" lon="-58.213684">
        <time>2021-05-01T13:46:27Z</time>
      </trkpt>
      <trkpt lat="-35.02694" lon="-58.213745">
        <time>2021-05-01T13:46:28Z</time>
      </trkpt>
      <trkpt lat="-35.026913" lon="-58.213806">
        <time>2021-05-01T13:46:29Z</time>
      </trkpt>
      <trkpt lat="-35.02689" lon="-58.213867">
        <time>2021-05-01T13:46:30Z</time>
      </trkpt>
      <trkpt lat="-35.026867" lon="-58.21393">
        <time>2021-05-01T13:46:31Z</time>
      </trkpt>
      <trkpt lat="-35.026848" lon="-58.213985">
        <time>2021-05-01T13:46:32Z</time>
      </trkpt>
      <trkpt lat="-35.026825" lon="-58.21405">
        <time>2021-05-01T13:46:33Z</time>
      </trkpt>
      <trkpt lat="-35.026802" lon="-58.214108">
        <time>2021-05-01T13:46:34Z</time>
      </trkpt>
      <trkpt lat="-35.02678" lon="-58.21417">
        <time>2021-05-01T13:46:35Z</time>
      </trkpt>
      <trkpt lat="-35.026756" lon="-58.214226">
        <time>2021-05-01T13:46:36Z</time>
      </trkpt>
      <trkpt lat="-35.026733" lon="-58.214287">
        <time>2021-05-01T13:46:37Z</time>
      </trkpt>
      <trkpt lat="-35.026714" lon="-58.214344">
        <time>2021-05-01T13:46:38Z</time>
      </trkpt>
      <trkpt lat="-35.02669" lon="-58.2144">
        <time>2021-05-01T13:46:39Z</time>
      </trkpt>
      <trkpt lat="-35.026672" lon="-58.21446">
        <time>2021-05-01T13:46:40Z</time>
      </trkpt>
      <trkpt lat="-35.026653" lon="-58.214516">
        <time>2021-05-01T13:46:41Z</time>
      </trkpt>
      <trkpt lat="-35.02663" lon="-58.214573">
        <time>2021-05-01T13:46:42Z</time>
      </trkpt>
      <trkpt lat="-35.026608" lon="-58.21463">
        <time>2021-05-01T13:46:43Z</time>
      </trkpt>
      <trkpt lat="-35.026585" lon="-58.214687">
        <time>2021-05-01T13:46:44Z</time>
      </trkpt>
      <trkpt lat="-35.026566" lon="-58.214745">
        <time>2021-05-01T13:46:45Z</time>
      </trkpt>
      <trkpt lat="-35.026543" lon="-58.2148">
        <time>2021-05-01T13:46:46Z</time>
      </trkpt>
      <trkpt lat="-35.02652" lon="-58.21486">
        <time>2021-05-01T13:46:47Z</time>
      </trkpt>
      <trkpt lat="-35.026497" lon="-58.21492">
        <time>2021-05-01T13:46:48Z</time>
      </trkpt>
      <trkpt lat="-35.026478" lon="-58.21498">
        <time>2021-05-01T13:46:49Z</time>
      </trkpt>
      <trkpt lat="-35.02645" lon="-58.21504">
        <time>2021-05-01T13:46:50Z</time>
      </trkpt>
      <trkpt lat="-35.02643" lon="-58.215096">
        <time>2021-05-01T13:46:51Z</time>
      </trkpt>
      <trkpt lat="-35.02641" lon="-58.215157">
        <time>2021-05-01T13:46:52Z</time>
      </trkpt>
      <trkpt lat="-35.026386" lon="-58.215214">
        <time>2021-05-01T13:46:53Z</time>
      </trkpt>
      <trkpt lat="-35.026363" lon="-58.21527">
        <time>2021-05-01T13:46:54Z</time>
      </trkpt>
      <trkpt lat="-35.02634" lon="-58.21533">
        <time>2021-05-01T13:46:55Z</time>
      </trkpt>
      <trkpt lat="-35.02632" lon="-58.21539">
        <time>2021-05-01T13:46:56Z</time>
      </trkpt>
      <trkpt lat="-35.0263" lon="-58.215443">
        <time>2021-05-01T13:46:57Z</time>
      </trkpt>
      <trkpt lat="-35.02628" lon="-58.215496">
        <time>2021-05-01T13:46:58Z</time>
      </trkpt>
      <trkpt lat="-35.026257" lon="-58.215553">
        <time>2021-05-01T13:46:59Z</time>
      </trkpt>
      <trkpt lat="-35.026234" lon="-58.21561">
        <time>2021-05-01T13:47:00Z</time>
      </trkpt>
      <trkpt lat="-35.026215" lon="-58.215668">
        <time>2021-05-01T13:47:01Z</time>
      </trkpt>
      <trkpt lat="-35.02619" lon="-58.215725">
        <time>2021-05-01T13:47:02Z</time>
      </trkpt>
      <trkpt lat="-35.026173" lon="-58.215786">
        <time>2021-05-01T13:47:03Z</time>
      </trkpt>
      <trkpt lat="-35.026154" lon="-58.215843">
        <time>2021-05-01T13:47:04Z</time>
      </trkpt>
      <trkpt lat="-35.02613" lon="-58.2159">
        <time>2021-05-01T13:47:05Z</time>
      </trkpt>
      <trkpt lat="-35.02611" lon="-58.21596">
        <time>2021-05-01T13:47:06Z</time>
      </trkpt>
      <trkpt lat="-35.02609" lon="-58.21602">
        <time>2021-05-01T13:47:07Z</time>
      </trkpt>
      <trkpt lat="-35.026066" lon="-58.216076">
        <time>2021-05-01T13:47:08Z</time>
      </trkpt>
      <trkpt lat="-35.026047" lon="-58.216137">
        <time>2021-05-01T13:47:09Z</time>
      </trkpt>
      <trkpt lat="-35.02603" lon="-58.216194">
        <time>2021-05-01T13:47:10Z</time>
      </trkpt>
      <trkpt lat="-35.026012" lon="-58.216255">
        <time>2021-05-01T13:47:11Z</time>
      </trkpt>
      <trkpt lat="-35.025993" lon="-58.216316">
        <time>2021-05-01T13:47:12Z</time>
      </trkpt>
      <trkpt lat="-35.025978" lon="-58.216377">
        <time>2021-05-01T13:47:13Z</time>
      </trkpt>
      <trkpt lat="-35.02596" lon="-58.216434">
        <time>2021-05-01T13:47:14Z</time>
      </trkpt>
      <trkpt lat="-35.02594" lon="-58.216496">
        <time>2021-05-01T13:47:15Z</time>
      </trkpt>
      <trkpt lat="-35.025925" lon="-58.216557">
        <time>2021-05-01T13:47:16Z</time>
      </trkpt>
      <trkpt lat="-35.025906" lon="-58.216618">
        <time>2021-05-01T13:47:17Z</time>
      </trkpt>
      <trkpt lat="-35.02589" lon="-58.21668">
        <time>2021-05-01T13:47:18Z</time>
      </trkpt>
      <trkpt lat="-35.025875" lon="-58.21674">
        <time>2021-05-01T13:47:19Z</time>
      </trkpt>
      <trkpt lat="-35.02586" lon="-58.216805">
        <time>2021-05-01T13:47:20Z</time>
      </trkpt>
      <trkpt lat="-35.02585" lon="-58.21687">
        <time>2021-05-01T13:47:21Z</time>
      </trkpt>
      <trkpt lat="-35.025833" lon="-58.216934">
        <time>2021-05-01T13:47:22Z</time>
      </trkpt>
      <trkpt lat="-35.025818" lon="-58.217">
        <time>2021-05-01T13:47:23Z</time>
      </trkpt>
      <trkpt lat="-35.025803" lon="-58.217064">
        <time>2021-05-01T13:47:24Z</time>
      </trkpt>
      <trkpt lat="-35.025787" lon="-58.217133">
        <time>2021-05-01T13:47:25Z</time>
      </trkpt>
      <trkpt lat="-35.025776" lon="-58.217197">
        <time>2021-05-01T13:47:26Z</time>
      </trkpt>
      <trkpt lat="-35.02576" lon="-58.217262">
        <time>2021-05-01T13:47:27Z</time>
      </trkpt>
      <trkpt lat="-35.02575" lon="-58.21733">
        <time>2021-05-01T13:47:28Z</time>
      </trkpt>
      <trkpt lat="-35.02574" lon="-58.217396">
        <time>2021-05-01T13:47:29Z</time>
      </trkpt>
      <trkpt lat="-35.025726" lon="-58.21746">
        <time>2021-05-01T13:47:30Z</time>
      </trkpt>
      <trkpt lat="-35.025715" lon="-58.217525">
        <time>2021-05-01T13:47:31Z</time>
      </trkpt>
      <trkpt lat="-35.025703" lon="-58.217594">
        <time>2021-05-01T13:47:32Z</time>
      </trkpt>
      <trkpt lat="-35.025696" lon="-58.217663">
        <time>2021-05-01T13:47:33Z</time>
      </trkpt>
      <trkpt lat="-35.025684" lon="-58.217728">
        <time>2021-05-01T13:47:34Z</time>
      </trkpt>
      <trkpt lat="-35.025677" lon="-58.217796">
        <time>2021-05-01T13:47:35Z</time>
      </trkpt>
      <trkpt lat="-35.02567" lon="-58.217865">
        <time>2021-05-01T13:47:36Z</time>
      </trkpt>
      <trkpt lat="-35.025658" lon="-58.21793">
        <time>2021-05-01T13:47:37Z</time>
      </trkpt>
      <trkpt lat="-35.02565" lon="-58.21799">
        <time>2021-05-01T13:47:38Z</time>
      </trkpt>
      <trkpt lat="-35.025642" lon="-58.218052">
        <time>2021-05-01T13:47:39Z</time>
      </trkpt>
      <trkpt lat="-35.02564" lon="-58.218113">
        <time>2021-05-01T13:47:40Z</time>
      </trkpt>
      <trkpt lat="-35.02563" lon="-58.218174">
        <time>2021-05-01T13:47:41Z</time>
      </trkpt>
      <trkpt lat="-35.025623" lon="-58.21824">
        <time>2021-05-01T13:47:42Z</time>
      </trkpt>
      <trkpt lat="-35.02562" lon="-58.218304">
        <time>2021-05-01T13:47:43Z</time>
      </trkpt>
      <trkpt lat="-35.025616" lon="-58.21837">
        <time>2021-05-01T13:47:44Z</time>
      </trkpt>
      <trkpt lat="-35.02561" lon="-58.218437">
        <time>2021-05-01T13:47:45Z</time>
      </trkpt>
      <trkpt lat="-35.025604" lon="-58.218502">
        <time>2021-05-01T13:47:46Z</time>
      </trkpt>
      <trkpt lat="-35.0256" lon="-58.21857">
        <time>2021-05-01T13:47:47Z</time>
      </trkpt>
      <trkpt lat="-35.025597" lon="-58.218636">
        <time>2021-05-01T13:47:48Z</time>
      </trkpt>
      <trkpt lat="-35.025593" lon="-58.218704">
        <time>2021-05-01T13:47:49Z</time>
      </trkpt>
      <trkpt lat="-35.025593" lon="-58.21877">
        <time>2021-05-01T13:47:50Z</time>
      </trkpt>
      <trkpt lat="-35.025593" lon="-58.218838">
        <time>2021-05-01T13:47:51Z</time>
      </trkpt>
      <trkpt lat="-35.025593" lon="-58.218903">
        <time>2021-05-01T13:47:52Z</time>
      </trkpt>
      <trkpt lat="-35.02559" lon="-58.21897">
        <time>2021-05-01T13:47:53Z</time>
      </trkpt>
      <trkpt lat="-35.02559" lon="-58.219036">
        <time>2021-05-01T13:47:54Z</time>
      </trkpt>
      <trkpt lat="-35.02559" lon="-58.219105">
        <time>2021-05-01T13:47:55Z</time>
      </trkpt>
      <trkpt lat="-35.02559" lon="-58.219173">
        <time>2021-05-01T13:47:56Z</time>
      </trkpt>
      <trkpt lat="-35.025585" lon="-58.219246">
        <time>2021-05-01T13:47:57Z</time>
      </trkpt>
      <trkpt lat="-35.025585" lon="-58.219315">
        <time>2021-05-01T13:47:58Z</time>
      </trkpt>
      <trkpt lat="-35.02558" lon="-58.219383">
        <time>2021-05-01T13:47:59Z</time>
      </trkpt>
      <trkpt lat="-35.02558" lon="-58.21945">
        <time>2021-05-01T13:48:00Z</time>
      </trkpt>
      <trkpt lat="-35.02558" lon="-58.219517">
        <time>2021-05-01T13:48:01Z</time>
      </trkpt>
      <trkpt lat="-35.02558" lon="-58.21958">
        <time>2021-05-01T13:48:02Z</time>
      </trkpt>
      <trkpt lat="-35.02558" lon="-58.219646">
        <time>2021-05-01T13:48:03Z</time>
      </trkpt>
      <trkpt lat="-35.025585" lon="-58.21971">
        <time>2021-05-01T13:48:04Z</time>
      </trkpt>
      <trkpt lat="-35.02558" lon="-58.21978">
        <time>2021-05-01T13:48:05Z</time>
      </trkpt>
      <trkpt lat="-35.025578" lon="-58.21985">
        <time>2021-05-01T13:48:06Z</time>
      </trkpt>
      <trkpt lat="-35.02558" lon="-58.219917">
        <time>2021-05-01T13:48:07Z</time>
      </trkpt>
      <trkpt lat="-35.02558" lon="-58.219986">
        <time>2021-05-01T13:48:08Z</time>
      </trkpt>
      <trkpt lat="-35.025578" lon="-58.220055">
        <time>2021-05-01T13:48:09Z</time>
      </trkpt>
      <trkpt lat="-35.025578" lon="-58.220123">
        <time>2021-05-01T13:48:10Z</time>
      </trkpt>
      <trkpt lat="-35.02558" lon="-58.220192">
        <time>2021-05-01T13:48:11Z</time>
      </trkpt>
      <trkpt lat="-35.02558" lon="-58.220264">
        <time>2021-05-01T13:48:12Z</time>
      </trkpt>
      <trkpt lat="-35.025578" lon="-58.220333">
        <time>2021-05-01T13:48:13Z</time>
      </trkpt>
      <trkpt lat="-35.025578" lon="-58.220406">
        <time>2021-05-01T13:48:14Z</time>
      </trkpt>
      <trkpt lat="-35.025574" lon="-58.220474">
        <time>2021-05-01T13:48:15Z</time>
      </trkpt>
      <trkpt lat="-35.025574" lon="-58.220547">
        <time>2021-05-01T13:48:16Z</time>
      </trkpt>
      <trkpt lat="-35.025574" lon="-58.220615">
        <time>2021-05-01T13:48:17Z</time>
      </trkpt>
      <trkpt lat="-35.025578" lon="-58.220684">
        <time>2021-05-01T13:48:18Z</time>
      </trkpt>
      <trkpt lat="-35.025578" lon="-58.220753">
        <time>2021-05-01T13:48:19Z</time>
      </trkpt>
      <trkpt lat="-35.025574" lon="-58.220825">
        <time>2021-05-01T13:48:20Z</time>
      </trkpt>
      <trkpt lat="-35.025578" lon="-58.220894">
        <time>2021-05-01T13:48:21Z</time>
      </trkpt>
      <trkpt lat="-35.025578" lon="-58.220963">
        <time>2021-05-01T13:48:22Z</time>
      </trkpt>
      <trkpt lat="-35.025574" lon="-58.22103">
        <time>2021-05-01T13:48:23Z</time>
      </trkpt>
      <trkpt lat="-35.025574" lon="-58.2211">
        <time>2021-05-01T13:48:24Z</time>
      </trkpt>
      <trkpt lat="-35.025574" lon="-58.221172">
        <time>2021-05-01T13:48:25Z</time>
      </trkpt>
      <trkpt lat="-35.025574" lon="-58.22124">
        <time>2021-05-01T13:48:26Z</time>
      </trkpt>
      <trkpt lat="-35.025574" lon="-58.221313">
        <time>2021-05-01T13:48:27Z</time>
      </trkpt>
      <trkpt lat="-35.025574" lon="-58.221386">
        <time>2021-05-01T13:48:28Z</time>
      </trkpt>
      <trkpt lat="-35.025574" lon="-58.22146">
        <time>2021-05-01T13:48:29Z</time>
      </trkpt>
      <trkpt lat="-35.025574" lon="-58.22153">
        <time>2021-05-01T13:48:30Z</time>
      </trkpt>
      <trkpt lat="-35.02557" lon="-58.221607">
        <time>2021-05-01T13:48:31Z</time>
      </trkpt>
      <trkpt lat="-35.025574" lon="-58.22168">
        <time>2021-05-01T13:48:32Z</time>
      </trkpt>
      <trkpt lat="-35.025574" lon="-58.221752">
        <time>2021-05-01T13:48:33Z</time>
      </trkpt>
      <trkpt lat="-35.025574" lon="-58.221825">
        <time>2021-05-01T13:48:34Z</time>
      </trkpt>
      <trkpt lat="-35.02557" lon="-58.221897">
        <time>2021-05-01T13:48:35Z</time>
      </trkpt>
      <trkpt lat="-35.02557" lon="-58.221973">
        <time>2021-05-01T13:48:36Z</time>
      </trkpt>
      <trkpt lat="-35.02557" lon="-58.222042">
        <time>2021-05-01T13:48:37Z</time>
      </trkpt>
      <trkpt lat="-35.02557" lon="-58.222115">
        <time>2021-05-01T13:48:38Z</time>
      </trkpt>
      <trkpt lat="-35.025574" lon="-58.222187">
        <time>2021-05-01T13:48:39Z</time>
      </trkpt>
      <trkpt lat="-35.025574" lon="-58.22226">
        <time>2021-05-01T13:48:40Z</time>
      </trkpt>
      <trkpt lat="-35.025574" lon="-58.222332">
        <time>2021-05-01T13:48:41Z</time>
      </trkpt>
      <trkpt lat="-35.025574" lon="-58.222404">
        <time>2021-05-01T13:48:42Z</time>
      </trkpt>
      <trkpt lat="-35.025574" lon="-58.222473">
        <time>2021-05-01T13:48:43Z</time>
      </trkpt>
      <trkpt lat="-35.025574" lon="-58.222546">
        <time>2021-05-01T13:48:44Z</time>
      </trkpt>
      <trkpt lat="-35.02557" lon="-58.22262">
        <time>2021-05-01T13:48:45Z</time>
      </trkpt>
      <trkpt lat="-35.02557" lon="-58.222687">
        <time>2021-05-01T13:48:46Z</time>
      </trkpt>
      <trkpt lat="-35.025574" lon="-58.22275">
        <time>2021-05-01T13:48:47Z</time>
      </trkpt>
      <trkpt lat="-35.025578" lon="-58.222816">
        <time>2021-05-01T13:48:48Z</time>
      </trkpt>
      <trkpt lat="-35.025578" lon="-58.22289">
        <time>2021-05-01T13:48:49Z</time>
      </trkpt>
      <trkpt lat="-35.025578" lon="-58.222954">
        <time>2021-05-01T13:48:50Z</time>
      </trkpt>
      <trkpt lat="-35.025574" lon="-58.223026">
        <time>2021-05-01T13:48:51Z</time>
      </trkpt>
      <trkpt lat="-35.025574" lon="-58.2231">
        <time>2021-05-01T13:48:52Z</time>
      </trkpt>
      <trkpt lat="-35.025574" lon="-58.22317">
        <time>2021-05-01T13:48:53Z</time>
      </trkpt>
      <trkpt lat="-35.025578" lon="-58.223244">
        <time>2021-05-01T13:48:54Z</time>
      </trkpt>
      <trkpt lat="-35.025578" lon="-58.223316">
        <time>2021-05-01T13:48:55Z</time>
      </trkpt>
      <trkpt lat="-35.025574" lon="-58.22339">
        <time>2021-05-01T13:48:56Z</time>
      </trkpt>
      <trkpt lat="-35.025574" lon="-58.22346">
        <time>2021-05-01T13:48:57Z</time>
      </trkpt>
      <trkpt lat="-35.025574" lon="-58.223534">
        <time>2021-05-01T13:48:58Z</time>
      </trkpt>
      <trkpt lat="-35.025574" lon="-58.223606">
        <time>2021-05-01T13:48:59Z</time>
      </trkpt>
      <trkpt lat="-35.025578" lon="-58.223675">
        <time>2021-05-01T13:49:00Z</time>
      </trkpt>
      <trkpt lat="-35.025574" lon="-58.223743">
        <time>2021-05-01T13:49:01Z</time>
      </trkpt>
      <trkpt lat="-35.025574" lon="-58.223812">
        <time>2021-05-01T13:49:02Z</time>
      </trkpt>
      <trkpt lat="-35.025574" lon="-58.223877">
        <time>2021-05-01T13:49:03Z</time>
      </trkpt>
      <trkpt lat="-35.025574" lon="-58.223946">
        <time>2021-05-01T13:49:04Z</time>
      </trkpt>
      <trkpt lat="-35.025574" lon="-58.224014">
        <time>2021-05-01T13:49:05Z</time>
      </trkpt>
      <trkpt lat="-35.025574" lon="-58.22408">
        <time>2021-05-01T13:49:06Z</time>
      </trkpt>
      <trkpt lat="-35.025574" lon="-58.224144">
        <time>2021-05-01T13:49:07Z</time>
      </trkpt>
      <trkpt lat="-35.025578" lon="-58.224213">
        <time>2021-05-01T13:49:08Z</time>
      </trkpt>
      <trkpt lat="-35.025578" lon="-58.22428">
        <time>2021-05-01T13:49:09Z</time>
      </trkpt>
      <trkpt lat="-35.025574" lon="-58.22435">
        <time>2021-05-01T13:49:10Z</time>
      </trkpt>
      <trkpt lat="-35.025574" lon="-58.224415">
        <time>2021-05-01T13:49:11Z</time>
      </trkpt>
      <trkpt lat="-35.025574" lon="-58.224483">
        <time>2021-05-01T13:49:12Z</time>
      </trkpt>
      <trkpt lat="-35.025574" lon="-58.224552">
        <time>2021-05-01T13:49:13Z</time>
      </trkpt>
      <trkpt lat="-35.02557" lon="-58.22462">
        <time>2021-05-01T13:49:14Z</time>
      </trkpt>
      <trkpt lat="-35.02557" lon="-58.22469">
        <time>2021-05-01T13:49:15Z</time>
      </trkpt>
      <trkpt lat="-35.02557" lon="-58.224762">
        <time>2021-05-01T13:49:16Z</time>
      </trkpt>
      <trkpt lat="-35.02557" lon="-58.22483">
        <time>2021-05-01T13:49:17Z</time>
      </trkpt>
      <trkpt lat="-35.02557" lon="-58.224903">
        <time>2021-05-01T13:49:18Z</time>
      </trkpt>
      <trkpt lat="-35.02557" lon="-58.22497">
        <time>2021-05-01T13:49:19Z</time>
      </trkpt>
      <trkpt lat="-35.02557" lon="-58.22504">
        <time>2021-05-01T13:49:20Z</time>
      </trkpt>
      <trkpt lat="-35.025574" lon="-58.22511">
        <time>2021-05-01T13:49:21Z</time>
      </trkpt>
      <trkpt lat="-35.025574" lon="-58.22518">
        <time>2021-05-01T13:49:22Z</time>
      </trkpt>
      <trkpt lat="-35.02557" lon="-58.22525">
        <time>2021-05-01T13:49:23Z</time>
      </trkpt>
      <trkpt lat="-35.025566" lon="-58.22532">
        <time>2021-05-01T13:49:24Z</time>
      </trkpt>
      <trkpt lat="-35.025566" lon="-58.22539">
        <time>2021-05-01T13:49:25Z</time>
      </trkpt>
      <trkpt lat="-35.025566" lon="-58.22546">
        <time>2021-05-01T13:49:26Z</time>
      </trkpt>
      <trkpt lat="-35.025566" lon="-58.225533">
        <time>2021-05-01T13:49:27Z</time>
      </trkpt>
      <trkpt lat="-35.02557" lon="-58.225605">
        <time>2021-05-01T13:49:28Z</time>
      </trkpt>
      <trkpt lat="-35.02557" lon="-58.225677">
        <time>2021-05-01T13:49:29Z</time>
      </trkpt>
      <trkpt lat="-35.025566" lon="-58.225746">
        <time>2021-05-01T13:49:30Z</time>
      </trkpt>
      <trkpt lat="-35.025566" lon="-58.22582">
        <time>2021-05-01T13:49:31Z</time>
      </trkpt>
      <trkpt lat="-35.025566" lon="-58.225887">
        <time>2021-05-01T13:49:32Z</time>
      </trkpt>
      <trkpt lat="-35.025562" lon="-58.22596">
        <time>2021-05-01T13:49:33Z</time>
      </trkpt>
      <trkpt lat="-35.025566" lon="-58.22603">
        <time>2021-05-01T13:49:34Z</time>
      </trkpt>
      <trkpt lat="-35.025562" lon="-58.2261">
        <time>2021-05-01T13:49:35Z</time>
      </trkpt>
      <trkpt lat="-35.025562" lon="-58.22617">
        <time>2021-05-01T13:49:36Z</time>
      </trkpt>
      <trkpt lat="-35.025562" lon="-58.226242">
        <time>2021-05-01T13:49:37Z</time>
      </trkpt>
      <trkpt lat="-35.02556" lon="-58.226315">
        <time>2021-05-01T13:49:38Z</time>
      </trkpt>
      <trkpt lat="-35.02556" lon="-58.226383">
        <time>2021-05-01T13:49:39Z</time>
      </trkpt>
      <trkpt lat="-35.02556" lon="-58.22645">
        <time>2021-05-01T13:49:40Z</time>
      </trkpt>
      <trkpt lat="-35.025562" lon="-58.226524">
        <time>2021-05-01T13:49:41Z</time>
      </trkpt>
      <trkpt lat="-35.025562" lon="-58.226593">
        <time>2021-05-01T13:49:42Z</time>
      </trkpt>
      <trkpt lat="-35.025562" lon="-58.226665">
        <time>2021-05-01T13:49:43Z</time>
      </trkpt>
      <trkpt lat="-35.025562" lon="-58.226734">
        <time>2021-05-01T13:49:44Z</time>
      </trkpt>
      <trkpt lat="-35.025562" lon="-58.226803">
        <time>2021-05-01T13:49:45Z</time>
      </trkpt>
      <trkpt lat="-35.02556" lon="-58.226875">
        <time>2021-05-01T13:49:46Z</time>
      </trkpt>
      <trkpt lat="-35.025562" lon="-58.226944">
        <time>2021-05-01T13:49:47Z</time>
      </trkpt>
      <trkpt lat="-35.02556" lon="-58.227013">
        <time>2021-05-01T13:49:48Z</time>
      </trkpt>
      <trkpt lat="-35.02556" lon="-58.22708">
        <time>2021-05-01T13:49:49Z</time>
      </trkpt>
      <trkpt lat="-35.025555" lon="-58.22715">
        <time>2021-05-01T13:49:50Z</time>
      </trkpt>
      <trkpt lat="-35.02555" lon="-58.227215">
        <time>2021-05-01T13:49:51Z</time>
      </trkpt>
      <trkpt lat="-35.02555" lon="-58.227287">
        <time>2021-05-01T13:49:52Z</time>
      </trkpt>
      <trkpt lat="-35.02555" lon="-58.22736">
        <time>2021-05-01T13:49:53Z</time>
      </trkpt>
      <trkpt lat="-35.02555" lon="-58.227425">
        <time>2021-05-01T13:49:54Z</time>
      </trkpt>
      <trkpt lat="-35.02555" lon="-58.227493">
        <time>2021-05-01T13:49:55Z</time>
      </trkpt>
      <trkpt lat="-35.025547" lon="-58.22756">
        <time>2021-05-01T13:49:56Z</time>
      </trkpt>
      <trkpt lat="-35.025547" lon="-58.227627">
        <time>2021-05-01T13:49:57Z</time>
      </trkpt>
      <trkpt lat="-35.025547" lon="-58.227695">
        <time>2021-05-01T13:49:58Z</time>
      </trkpt>
      <trkpt lat="-35.025547" lon="-58.227764">
        <time>2021-05-01T13:49:59Z</time>
      </trkpt>
      <trkpt lat="-35.025547" lon="-58.227833">
        <time>2021-05-01T13:50:00Z</time>
      </trkpt>
      <trkpt lat="-35.025543" lon="-58.227898">
        <time>2021-05-01T13:50:01Z</time>
      </trkpt>
      <trkpt lat="-35.025543" lon="-58.227966">
        <time>2021-05-01T13:50:02Z</time>
      </trkpt>
      <trkpt lat="-35.025543" lon="-58.22803">
        <time>2021-05-01T13:50:03Z</time>
      </trkpt>
      <trkpt lat="-35.025543" lon="-58.2281">
        <time>2021-05-01T13:50:04Z</time>
      </trkpt>
      <trkpt lat="-35.02554" lon="-58.22817">
        <time>2021-05-01T13:50:05Z</time>
      </trkpt>
      <trkpt lat="-35.02554" lon="-58.228237">
        <time>2021-05-01T13:50:06Z</time>
      </trkpt>
      <trkpt lat="-35.025536" lon="-58.228302">
        <time>2021-05-01T13:50:07Z</time>
      </trkpt>
      <trkpt lat="-35.025536" lon="-58.228367">
        <time>2021-05-01T13:50:08Z</time>
      </trkpt>
      <trkpt lat="-35.02553" lon="-58.22843">
        <time>2021-05-01T13:50:09Z</time>
      </trkpt>
      <trkpt lat="-35.025528" lon="-58.2285">
        <time>2021-05-01T13:50:10Z</time>
      </trkpt>
      <trkpt lat="-35.02552" lon="-58.228565">
        <time>2021-05-01T13:50:11Z</time>
      </trkpt>
      <trkpt lat="-35.025513" lon="-58.228634">
        <time>2021-05-01T13:50:12Z</time>
      </trkpt>
      <trkpt lat="-35.02551" lon="-58.228703">
        <time>2021-05-01T13:50:13Z</time>
      </trkpt>
      <trkpt lat="-35.0255" lon="-58.22877">
        <time>2021-05-01T13:50:14Z</time>
      </trkpt>
      <trkpt lat="-35.02549" lon="-58.22884">
        <time>2021-05-01T13:50:15Z</time>
      </trkpt>
      <trkpt lat="-35.025482" lon="-58.22891">
        <time>2021-05-01T13:50:16Z</time>
      </trkpt>
      <trkpt lat="-35.025475" lon="-58.228973">
        <time>2021-05-01T13:50:17Z</time>
      </trkpt>
      <trkpt lat="-35.025463" lon="-58.22904">
        <time>2021-05-01T13:50:18Z</time>
      </trkpt>
      <trkpt lat="-35.025455" lon="-58.229107">
        <time>2021-05-01T13:50:19Z</time>
      </trkpt>
      <trkpt lat="-35.02544" lon="-58.229176">
        <time>2021-05-01T13:50:20Z</time>
      </trkpt>
      <trkpt lat="-35.025425" lon="-58.22924">
        <time>2021-05-01T13:50:21Z</time>
      </trkpt>
      <trkpt lat="-35.02541" lon="-58.229305">
        <time>2021-05-01T13:50:22Z</time>
      </trkpt>
      <trkpt lat="-35.025394" lon="-58.229366">
        <time>2021-05-01T13:50:23Z</time>
      </trkpt>
      <trkpt lat="-35.02537" lon="-58.229427">
        <time>2021-05-01T13:50:24Z</time>
      </trkpt>
      <trkpt lat="-35.025352" lon="-58.229485">
        <time>2021-05-01T13:50:25Z</time>
      </trkpt>
      <trkpt lat="-35.02533" lon="-58.229546">
        <time>2021-05-01T13:50:26Z</time>
      </trkpt>
      <trkpt lat="-35.02531" lon="-58.229607">
        <time>2021-05-01T13:50:27Z</time>
      </trkpt>
      <trkpt lat="-35.02529" lon="-58.229668">
        <time>2021-05-01T13:50:28Z</time>
      </trkpt>
      <trkpt lat="-35.025276" lon="-58.22973">
        <time>2021-05-01T13:50:29Z</time>
      </trkpt>
      <trkpt lat="-35.025265" lon="-58.22979">
        <time>2021-05-01T13:50:30Z</time>
      </trkpt>
      <trkpt lat="-35.025257" lon="-58.229855">
        <time>2021-05-01T13:50:31Z</time>
      </trkpt>
      <trkpt lat="-35.025246" lon="-58.229916">
        <time>2021-05-01T13:50:32Z</time>
      </trkpt>
      <trkpt lat="-35.02524" lon="-58.22998">
        <time>2021-05-01T13:50:33Z</time>
      </trkpt>
      <trkpt lat="-35.025238" lon="-58.23004">
        <time>2021-05-01T13:50:34Z</time>
      </trkpt>
      <trkpt lat="-35.025238" lon="-58.230103">
        <time>2021-05-01T13:50:35Z</time>
      </trkpt>
      <trkpt lat="-35.025238" lon="-58.230167">
        <time>2021-05-01T13:50:36Z</time>
      </trkpt>
      <trkpt lat="-35.02524" lon="-58.230232">
        <time>2021-05-01T13:50:37Z</time>
      </trkpt>
      <trkpt lat="-35.02525" lon="-58.230293">
        <time>2021-05-01T13:50:38Z</time>
      </trkpt>
      <trkpt lat="-35.02526" lon="-58.23036">
        <time>2021-05-01T13:50:39Z</time>
      </trkpt>
      <trkpt lat="-35.025272" lon="-58.23042">
        <time>2021-05-01T13:50:40Z</time>
      </trkpt>
      <trkpt lat="-35.025284" lon="-58.23048">
        <time>2021-05-01T13:50:41Z</time>
      </trkpt>
      <trkpt lat="-35.0253" lon="-58.230537">
        <time>2021-05-01T13:50:42Z</time>
      </trkpt>
      <trkpt lat="-35.025322" lon="-58.23059">
        <time>2021-05-01T13:50:43Z</time>
      </trkpt>
      <trkpt lat="-35.02534" lon="-58.230644">
        <time>2021-05-01T13:50:44Z</time>
      </trkpt>
      <trkpt lat="-35.025364" lon="-58.230698">
        <time>2021-05-01T13:50:45Z</time>
      </trkpt>
      <trkpt lat="-35.025387" lon="-58.23075">
        <time>2021-05-01T13:50:46Z</time>
      </trkpt>
      <trkpt lat="-35.025406" lon="-58.2308">
        <time>2021-05-01T13:50:47Z</time>
      </trkpt>
      <trkpt lat="-35.02543" lon="-58.230854">
        <time>2021-05-01T13:50:48Z</time>
      </trkpt>
      <trkpt lat="-35.025448" lon="-58.23091">
        <time>2021-05-01T13:50:49Z</time>
      </trkpt>
      <trkpt lat="-35.025463" lon="-58.230972">
        <time>2021-05-01T13:50:50Z</time>
      </trkpt>
      <trkpt lat="-35.02548" lon="-58.231033">
        <time>2021-05-01T13:50:51Z</time>
      </trkpt>
      <trkpt lat="-35.025494" lon="-58.2311">
        <time>2021-05-01T13:50:52Z</time>
      </trkpt>
      <trkpt lat="-35.025505" lon="-58.231163">
        <time>2021-05-01T13:50:53Z</time>
      </trkpt>
      <trkpt lat="-35.025517" lon="-58.231228">
        <time>2021-05-01T13:50:54Z</time>
      </trkpt>
      <trkpt lat="-35.025528" lon="-58.231297">
        <time>2021-05-01T13:50:55Z</time>
      </trkpt>
      <trkpt lat="-35.025536" lon="-58.231365">
        <time>2021-05-01T13:50:56Z</time>
      </trkpt>
      <trkpt lat="-35.02554" lon="-58.231438">
        <time>2021-05-01T13:50:57Z</time>
      </trkpt>
      <trkpt lat="-35.02554" lon="-58.231506">
        <time>2021-05-01T13:50:58Z</time>
      </trkpt>
      <trkpt lat="-35.02554" lon="-58.231575">
        <time>2021-05-01T13:50:59Z</time>
      </trkpt>
      <trkpt lat="-35.02554" lon="-58.231647">
        <time>2021-05-01T13:51:00Z</time>
      </trkpt>
      <trkpt lat="-35.025543" lon="-58.23172">
        <time>2021-05-01T13:51:01Z</time>
      </trkpt>
      <trkpt lat="-35.025543" lon="-58.23179">
        <time>2021-05-01T13:51:02Z</time>
      </trkpt>
      <trkpt lat="-35.025543" lon="-58.23186">
        <time>2021-05-01T13:51:03Z</time>
      </trkpt>
      <trkpt lat="-35.025547" lon="-58.23193">
        <time>2021-05-01T13:51:04Z</time>
      </trkpt>
      <trkpt lat="-35.02555" lon="-58.232002">
        <time>2021-05-01T13:51:05Z</time>
      </trkpt>
      <trkpt lat="-35.02555" lon="-58.232075">
        <time>2021-05-01T13:51:06Z</time>
      </trkpt>
      <trkpt lat="-35.025547" lon="-58.232147">
        <time>2021-05-01T13:51:07Z</time>
      </trkpt>
      <trkpt lat="-35.025547" lon="-58.23222">
        <time>2021-05-01T13:51:08Z</time>
      </trkpt>
      <trkpt lat="-35.025547" lon="-58.23229">
        <time>2021-05-01T13:51:09Z</time>
      </trkpt>
      <trkpt lat="-35.025547" lon="-58.23236">
        <time>2021-05-01T13:51:10Z</time>
      </trkpt>
      <trkpt lat="-35.025547" lon="-58.23243">
        <time>2021-05-01T13:51:11Z</time>
      </trkpt>
      <trkpt lat="-35.025547" lon="-58.2325">
        <time>2021-05-01T13:51:12Z</time>
      </trkpt>
      <trkpt lat="-35.025547" lon="-58.232567">
        <time>2021-05-01T13:51:13Z</time>
      </trkpt>
      <trkpt lat="-35.025547" lon="-58.232635">
        <time>2021-05-01T13:51:14Z</time>
      </trkpt>
      <trkpt lat="-35.025547" lon="-58.232704">
        <time>2021-05-01T13:51:15Z</time>
      </trkpt>
      <trkpt lat="-35.025543" lon="-58.23277">
        <time>2021-05-01T13:51:16Z</time>
      </trkpt>
      <trkpt lat="-35.025543" lon="-58.232838">
        <time>2021-05-01T13:51:17Z</time>
      </trkpt>
      <trkpt lat="-35.025543" lon="-58.232903">
        <time>2021-05-01T13:51:18Z</time>
      </trkpt>
      <trkpt lat="-35.025543" lon="-58.23297">
        <time>2021-05-01T13:51:19Z</time>
      </trkpt>
      <trkpt lat="-35.02554" lon="-58.233036">
        <time>2021-05-01T13:51:20Z</time>
      </trkpt>
      <trkpt lat="-35.02554" lon="-58.233105">
        <time>2021-05-01T13:51:21Z</time>
      </trkpt>
      <trkpt lat="-35.025536" lon="-58.233173">
        <time>2021-05-01T13:51:22Z</time>
      </trkpt>
      <trkpt lat="-35.025536" lon="-58.23331">
        <time>2021-05-01T13:51:23Z</time>
      </trkpt>
      <trkpt lat="-35.02554" lon="-58.23338">
        <time>2021-05-01T13:51:24Z</time>
      </trkpt>
      <trkpt lat="-35.025536" lon="-58.233448">
        <time>2021-05-01T13:51:25Z</time>
      </trkpt>
      <trkpt lat="-35.025536" lon="-58.23352">
        <time>2021-05-01T13:51:26Z</time>
      </trkpt>
      <trkpt lat="-35.025536" lon="-58.23359">
        <time>2021-05-01T13:51:27Z</time>
      </trkpt>
      <trkpt lat="-35.025536" lon="-58.23366">
        <time>2021-05-01T13:51:28Z</time>
      </trkpt>
      <trkpt lat="-35.025536" lon="-58.23373">
        <time>2021-05-01T13:51:29Z</time>
      </trkpt>
      <trkpt lat="-35.02554" lon="-58.233803">
        <time>2021-05-01T13:51:30Z</time>
      </trkpt>
      <trkpt lat="-35.02554" lon="-58.233875">
        <time>2021-05-01T13:51:31Z</time>
      </trkpt>
      <trkpt lat="-35.025536" lon="-58.233944">
        <time>2021-05-01T13:51:32Z</time>
      </trkpt>
      <trkpt lat="-35.025536" lon="-58.234013">
        <time>2021-05-01T13:51:33Z</time>
      </trkpt>
      <trkpt lat="-35.025536" lon="-58.23408">
        <time>2021-05-01T13:51:34Z</time>
      </trkpt>
      <trkpt lat="-35.025536" lon="-58.234154">
        <time>2021-05-01T13:51:35Z</time>
      </trkpt>
      <trkpt lat="-35.025536" lon="-58.234222">
        <time>2021-05-01T13:51:36Z</time>
      </trkpt>
      <trkpt lat="-35.025536" lon="-58.23429">
        <time>2021-05-01T13:51:37Z</time>
      </trkpt>
      <trkpt lat="-35.025536" lon="-58.23436">
        <time>2021-05-01T13:51:38Z</time>
      </trkpt>
      <trkpt lat="-35.025536" lon="-58.234425">
        <time>2021-05-01T13:51:39Z</time>
      </trkpt>
      <trkpt lat="-35.02553" lon="-58.23449">
        <time>2021-05-01T13:51:40Z</time>
      </trkpt>
      <trkpt lat="-35.025543" lon="-58.234554">
        <time>2021-05-01T13:51:41Z</time>
      </trkpt>
      <trkpt lat="-35.02554" lon="-58.234623">
        <time>2021-05-01T13:51:42Z</time>
      </trkpt>
      <trkpt lat="-35.025543" lon="-58.23469">
        <time>2021-05-01T13:51:43Z</time>
      </trkpt>
      <trkpt lat="-35.025543" lon="-58.23476">
        <time>2021-05-01T13:51:44Z</time>
      </trkpt>
      <trkpt lat="-35.02554" lon="-58.23483">
        <time>2021-05-01T13:51:45Z</time>
      </trkpt>
      <trkpt lat="-35.02554" lon="-58.234898">
        <time>2021-05-01T13:51:46Z</time>
      </trkpt>
      <trkpt lat="-35.025543" lon="-58.234962">
        <time>2021-05-01T13:51:47Z</time>
      </trkpt>
      <trkpt lat="-35.02554" lon="-58.23503">
        <time>2021-05-01T13:51:48Z</time>
      </trkpt>
      <trkpt lat="-35.02554" lon="-58.2351">
        <time>2021-05-01T13:51:49Z</time>
      </trkpt>
      <trkpt lat="-35.02554" lon="-58.23517">
        <time>2021-05-01T13:51:50Z</time>
      </trkpt>
      <trkpt lat="-35.02554" lon="-58.235233">
        <time>2021-05-01T13:51:51Z</time>
      </trkpt>
      <trkpt lat="-35.025536" lon="-58.235302">
        <time>2021-05-01T13:51:52Z</time>
      </trkpt>
      <trkpt lat="-35.025536" lon="-58.235367">
        <time>2021-05-01T13:51:53Z</time>
      </trkpt>
      <trkpt lat="-35.025528" lon="-58.235435">
        <time>2021-05-01T13:51:54Z</time>
      </trkpt>
      <trkpt lat="-35.025528" lon="-58.235504">
        <time>2021-05-01T13:51:55Z</time>
      </trkpt>
      <trkpt lat="-35.025528" lon="-58.235577">
        <time>2021-05-01T13:51:56Z</time>
      </trkpt>
      <trkpt lat="-35.02552" lon="-58.23565">
        <time>2021-05-01T13:51:57Z</time>
      </trkpt>
      <trkpt lat="-35.025513" lon="-58.235718">
        <time>2021-05-01T13:51:58Z</time>
      </trkpt>
      <trkpt lat="-35.02551" lon="-58.23579">
        <time>2021-05-01T13:51:59Z</time>
      </trkpt>
      <trkpt lat="-35.0255" lon="-58.23586">
        <time>2021-05-01T13:52:00Z</time>
      </trkpt>
      <trkpt lat="-35.025497" lon="-58.23593">
        <time>2021-05-01T13:52:01Z</time>
      </trkpt>
      <trkpt lat="-35.02549" lon="-58.236">
        <time>2021-05-01T13:52:02Z</time>
      </trkpt>
      <trkpt lat="-35.025482" lon="-58.23607">
        <time>2021-05-01T13:52:03Z</time>
      </trkpt>
      <trkpt lat="-35.025475" lon="-58.236137">
        <time>2021-05-01T13:52:04Z</time>
      </trkpt>
      <trkpt lat="-35.02547" lon="-58.236206">
        <time>2021-05-01T13:52:05Z</time>
      </trkpt>
      <trkpt lat="-35.025463" lon="-58.23627">
        <time>2021-05-01T13:52:06Z</time>
      </trkpt>
      <trkpt lat="-35.025455" lon="-58.236336">
        <time>2021-05-01T13:52:07Z</time>
      </trkpt>
      <trkpt lat="-35.025448" lon="-58.236404">
        <time>2021-05-01T13:52:08Z</time>
      </trkpt>
      <trkpt lat="-35.02544" lon="-58.23647">
        <time>2021-05-01T13:52:09Z</time>
      </trkpt>
      <trkpt lat="-35.02543" lon="-58.236538">
        <time>2021-05-01T13:52:10Z</time>
      </trkpt>
      <trkpt lat="-35.02542" lon="-58.236607">
        <time>2021-05-01T13:52:11Z</time>
      </trkpt>
      <trkpt lat="-35.02541" lon="-58.23667">
        <time>2021-05-01T13:52:12Z</time>
      </trkpt>
      <trkpt lat="-35.0254" lon="-58.236744">
        <time>2021-05-01T13:52:13Z</time>
      </trkpt>
      <trkpt lat="-35.02539" lon="-58.236813">
        <time>2021-05-01T13:52:14Z</time>
      </trkpt>
      <trkpt lat="-35.02538" lon="-58.236877">
        <time>2021-05-01T13:52:15Z</time>
      </trkpt>
      <trkpt lat="-35.02537" lon="-58.236942">
        <time>2021-05-01T13:52:16Z</time>
      </trkpt>
      <trkpt lat="-35.02536" lon="-58.23701">
        <time>2021-05-01T13:52:17Z</time>
      </trkpt>
      <trkpt lat="-35.025345" lon="-58.237076">
        <time>2021-05-01T13:52:18Z</time>
      </trkpt>
      <trkpt lat="-35.025333" lon="-58.237144">
        <time>2021-05-01T13:52:19Z</time>
      </trkpt>
      <trkpt lat="-35.025322" lon="-58.23721">
        <time>2021-05-01T13:52:20Z</time>
      </trkpt>
      <trkpt lat="-35.025307" lon="-58.237274">
        <time>2021-05-01T13:52:21Z</time>
      </trkpt>
      <trkpt lat="-35.0253" lon="-58.23734">
        <time>2021-05-01T13:52:22Z</time>
      </trkpt>
      <trkpt lat="-35.025284" lon="-58.237404">
        <time>2021-05-01T13:52:23Z</time>
      </trkpt>
      <trkpt lat="-35.02527" lon="-58.23747">
        <time>2021-05-01T13:52:24Z</time>
      </trkpt>
      <trkpt lat="-35.025257" lon="-58.23753">
        <time>2021-05-01T13:52:25Z</time>
      </trkpt>
      <trkpt lat="-35.025246" lon="-58.237595">
        <time>2021-05-01T13:52:26Z</time>
      </trkpt>
      <trkpt lat="-35.025234" lon="-58.23766">
        <time>2021-05-01T13:52:27Z</time>
      </trkpt>
      <trkpt lat="-35.025223" lon="-58.237724">
        <time>2021-05-01T13:52:28Z</time>
      </trkpt>
      <trkpt lat="-35.02521" lon="-58.237793">
        <time>2021-05-01T13:52:29Z</time>
      </trkpt>
      <trkpt lat="-35.025196" lon="-58.237858">
        <time>2021-05-01T13:52:30Z</time>
      </trkpt>
      <trkpt lat="-35.02518" lon="-58.237926">
        <time>2021-05-01T13:52:31Z</time>
      </trkpt>
      <trkpt lat="-35.025166" lon="-58.23799">
        <time>2021-05-01T13:52:32Z</time>
      </trkpt>
      <trkpt lat="-35.025154" lon="-58.23806">
        <time>2021-05-01T13:52:33Z</time>
      </trkpt>
      <trkpt lat="-35.02514" lon="-58.23813">
        <time>2021-05-01T13:52:34Z</time>
      </trkpt>
      <trkpt lat="-35.025127" lon="-58.238194">
        <time>2021-05-01T13:52:35Z</time>
      </trkpt>
      <trkpt lat="-35.025112" lon="-58.238262">
        <time>2021-05-01T13:52:36Z</time>
      </trkpt>
      <trkpt lat="-35.0251" lon="-58.23833">
        <time>2021-05-01T13:52:37Z</time>
      </trkpt>
      <trkpt lat="-35.025085" lon="-58.2384">
        <time>2021-05-01T13:52:38Z</time>
      </trkpt>
      <trkpt lat="-35.025074" lon="-58.238464">
        <time>2021-05-01T13:52:39Z</time>
      </trkpt>
      <trkpt lat="-35.02506" lon="-58.238533">
        <time>2021-05-01T13:52:40Z</time>
      </trkpt>
      <trkpt lat="-35.025047" lon="-58.2386">
        <time>2021-05-01T13:52:41Z</time>
      </trkpt>
      <trkpt lat="-35.025036" lon="-58.23867">
        <time>2021-05-01T13:52:42Z</time>
      </trkpt>
      <trkpt lat="-35.02502" lon="-58.23874">
        <time>2021-05-01T13:52:43Z</time>
      </trkpt>
      <trkpt lat="-35.025005" lon="-58.238808">
        <time>2021-05-01T13:52:44Z</time>
      </trkpt>
      <trkpt lat="-35.02499" lon="-58.238876">
        <time>2021-05-01T13:52:45Z</time>
      </trkpt>
      <trkpt lat="-35.024975" lon="-58.238945">
        <time>2021-05-01T13:52:46Z</time>
      </trkpt>
      <trkpt lat="-35.024963" lon="-58.239014">
        <time>2021-05-01T13:52:47Z</time>
      </trkpt>
      <trkpt lat="-35.024952" lon="-58.239082">
        <time>2021-05-01T13:52:48Z</time>
      </trkpt>
      <trkpt lat="-35.024937" lon="-58.239155">
        <time>2021-05-01T13:52:49Z</time>
      </trkpt>
      <trkpt lat="-35.02492" lon="-58.239223">
        <time>2021-05-01T13:52:50Z</time>
      </trkpt>
      <trkpt lat="-35.024906" lon="-58.239292">
        <time>2021-05-01T13:52:51Z</time>
      </trkpt>
      <trkpt lat="-35.02489" lon="-58.23936">
        <time>2021-05-01T13:52:52Z</time>
      </trkpt>
      <trkpt lat="-35.02488" lon="-58.23943">
        <time>2021-05-01T13:52:53Z</time>
      </trkpt>
      <trkpt lat="-35.024864" lon="-58.2395">
        <time>2021-05-01T13:52:54Z</time>
      </trkpt>
      <trkpt lat="-35.024853" lon="-58.239567">
        <time>2021-05-01T13:52:55Z</time>
      </trkpt>
      <trkpt lat="-35.024837" lon="-58.239635">
        <time>2021-05-01T13:52:56Z</time>
      </trkpt>
      <trkpt lat="-35.024822" lon="-58.239704">
        <time>2021-05-01T13:52:57Z</time>
      </trkpt>
      <trkpt lat="-35.02481" lon="-58.23977">
        <time>2021-05-01T13:52:58Z</time>
      </trkpt>
      <trkpt lat="-35.024796" lon="-58.239834">
        <time>2021-05-01T13:52:59Z</time>
      </trkpt>
      <trkpt lat="-35.024784" lon="-58.239902">
        <time>2021-05-01T13:53:00Z</time>
      </trkpt>
      <trkpt lat="-35.024773" lon="-58.23997">
        <time>2021-05-01T13:53:01Z</time>
      </trkpt>
      <trkpt lat="-35.02476" lon="-58.240036">
        <time>2021-05-01T13:53:02Z</time>
      </trkpt>
      <trkpt lat="-35.02475" lon="-58.240105">
        <time>2021-05-01T13:53:03Z</time>
      </trkpt>
      <trkpt lat="-35.02474" lon="-58.240173">
        <time>2021-05-01T13:53:04Z</time>
      </trkpt>
      <trkpt lat="-35.024723" lon="-58.24024">
        <time>2021-05-01T13:53:05Z</time>
      </trkpt>
      <trkpt lat="-35.024708" lon="-58.240307">
        <time>2021-05-01T13:53:06Z</time>
      </trkpt>
      <trkpt lat="-35.024696" lon="-58.240376">
        <time>2021-05-01T13:53:07Z</time>
      </trkpt>
      <trkpt lat="-35.024685" lon="-58.240437">
        <time>2021-05-01T13:53:08Z</time>
      </trkpt>
      <trkpt lat="-35.02467" lon="-58.2405">
        <time>2021-05-01T13:53:09Z</time>
      </trkpt>
      <trkpt lat="-35.02466" lon="-58.240562">
        <time>2021-05-01T13:53:10Z</time>
      </trkpt>
      <trkpt lat="-35.024643" lon="-58.240627">
        <time>2021-05-01T13:53:11Z</time>
      </trkpt>
      <trkpt lat="-35.024628" lon="-58.240692">
        <time>2021-05-01T13:53:12Z</time>
      </trkpt>
      <trkpt lat="-35.024616" lon="-58.240757">
        <time>2021-05-01T13:53:13Z</time>
      </trkpt>
      <trkpt lat="-35.02461" lon="-58.240826">
        <time>2021-05-01T13:53:14Z</time>
      </trkpt>
      <trkpt lat="-35.024593" lon="-58.24089">
        <time>2021-05-01T13:53:15Z</time>
      </trkpt>
      <trkpt lat="-35.024582" lon="-58.240955">
        <time>2021-05-01T13:53:16Z</time>
      </trkpt>
      <trkpt lat="-35.024567" lon="-58.24102">
        <time>2021-05-01T13:53:17Z</time>
      </trkpt>
      <trkpt lat="-35.02455" lon="-58.241085">
        <time>2021-05-01T13:53:18Z</time>
      </trkpt>
      <trkpt lat="-35.024544" lon="-58.24115">
        <time>2021-05-01T13:53:19Z</time>
      </trkpt>
      <trkpt lat="-35.024532" lon="-58.24122">
        <time>2021-05-01T13:53:20Z</time>
      </trkpt>
      <trkpt lat="-35.024517" lon="-58.241283">
        <time>2021-05-01T13:53:21Z</time>
      </trkpt>
      <trkpt lat="-35.0245" lon="-58.241344">
        <time>2021-05-01T13:53:22Z</time>
      </trkpt>
      <trkpt lat="-35.02449" lon="-58.24141">
        <time>2021-05-01T13:53:23Z</time>
      </trkpt>
      <trkpt lat="-35.02448" lon="-58.241474">
        <time>2021-05-01T13:53:24Z</time>
      </trkpt>
      <trkpt lat="-35.024464" lon="-58.241535">
        <time>2021-05-01T13:53:25Z</time>
      </trkpt>
      <trkpt lat="-35.02445" lon="-58.2416">
        <time>2021-05-01T13:53:26Z</time>
      </trkpt>
      <trkpt lat="-35.024437" lon="-58.241665">
        <time>2021-05-01T13:53:27Z</time>
      </trkpt>
      <trkpt lat="-35.024426" lon="-58.24173">
        <time>2021-05-01T13:53:28Z</time>
      </trkpt>
      <trkpt lat="-35.02441" lon="-58.24179">
        <time>2021-05-01T13:53:29Z</time>
      </trkpt>
      <trkpt lat="-35.024395" lon="-58.241856">
        <time>2021-05-01T13:53:30Z</time>
      </trkpt>
      <trkpt lat="-35.024384" lon="-58.24192">
        <time>2021-05-01T13:53:31Z</time>
      </trkpt>
      <trkpt lat="-35.024372" lon="-58.24198">
        <time>2021-05-01T13:53:32Z</time>
      </trkpt>
      <trkpt lat="-35.024357" lon="-58.24205">
        <time>2021-05-01T13:53:33Z</time>
      </trkpt>
      <trkpt lat="-35.024345" lon="-58.242115">
        <time>2021-05-01T13:53:34Z</time>
      </trkpt>
      <trkpt lat="-35.02433" lon="-58.24218">
        <time>2021-05-01T13:53:35Z</time>
      </trkpt>
      <trkpt lat="-35.024315" lon="-58.24224">
        <time>2021-05-01T13:53:36Z</time>
      </trkpt>
      <trkpt lat="-35.024303" lon="-58.242306">
        <time>2021-05-01T13:53:37Z</time>
      </trkpt>
      <trkpt lat="-35.024292" lon="-58.24237">
        <time>2021-05-01T13:53:38Z</time>
      </trkpt>
      <trkpt lat="-35.024277" lon="-58.242435">
        <time>2021-05-01T13:53:39Z</time>
      </trkpt>
      <trkpt lat="-35.024265" lon="-58.242504">
        <time>2021-05-01T13:53:40Z</time>
      </trkpt>
      <trkpt lat="-35.024254" lon="-58.24257">
        <time>2021-05-01T13:53:41Z</time>
      </trkpt>
      <trkpt lat="-35.02424" lon="-58.242634">
        <time>2021-05-01T13:53:42Z</time>
      </trkpt>
      <trkpt lat="-35.024227" lon="-58.2427">
        <time>2021-05-01T13:53:43Z</time>
      </trkpt>
      <trkpt lat="-35.024216" lon="-58.242764">
        <time>2021-05-01T13:53:44Z</time>
      </trkpt>
      <trkpt lat="-35.0242" lon="-58.242825">
        <time>2021-05-01T13:53:45Z</time>
      </trkpt>
      <trkpt lat="-35.02419" lon="-58.24289">
        <time>2021-05-01T13:53:46Z</time>
      </trkpt>
      <trkpt lat="-35.024178" lon="-58.242954">
        <time>2021-05-01T13:53:47Z</time>
      </trkpt>
      <trkpt lat="-35.024166" lon="-58.24302">
        <time>2021-05-01T13:53:48Z</time>
      </trkpt>
      <trkpt lat="-35.02415" lon="-58.243084">
        <time>2021-05-01T13:53:49Z</time>
      </trkpt>
      <trkpt lat="-35.024136" lon="-58.24315">
        <time>2021-05-01T13:53:50Z</time>
      </trkpt>
      <trkpt lat="-35.024124" lon="-58.243217">
        <time>2021-05-01T13:53:51Z</time>
      </trkpt>
      <trkpt lat="-35.024113" lon="-58.243282">
        <time>2021-05-01T13:53:52Z</time>
      </trkpt>
      <trkpt lat="-35.0241" lon="-58.243347">
        <time>2021-05-01T13:53:53Z</time>
      </trkpt>
      <trkpt lat="-35.02409" lon="-58.24341">
        <time>2021-05-01T13:53:54Z</time>
      </trkpt>
      <trkpt lat="-35.024075" lon="-58.24347">
        <time>2021-05-01T13:53:55Z</time>
      </trkpt>
      <trkpt lat="-35.024063" lon="-58.243534">
        <time>2021-05-01T13:53:56Z</time>
      </trkpt>
      <trkpt lat="-35.02405" lon="-58.243595">
        <time>2021-05-01T13:53:57Z</time>
      </trkpt>
      <trkpt lat="-35.02404" lon="-58.24366">
        <time>2021-05-01T13:53:58Z</time>
      </trkpt>
      <trkpt lat="-35.024025" lon="-58.243725">
        <time>2021-05-01T13:53:59Z</time>
      </trkpt>
      <trkpt lat="-35.024014" lon="-58.24379">
        <time>2021-05-01T13:54:00Z</time>
      </trkpt>
      <trkpt lat="-35.024002" lon="-58.243855">
        <time>2021-05-01T13:54:01Z</time>
      </trkpt>
      <trkpt lat="-35.02399" lon="-58.24392">
        <time>2021-05-01T13:54:02Z</time>
      </trkpt>
      <trkpt lat="-35.023975" lon="-58.24398">
        <time>2021-05-01T13:54:03Z</time>
      </trkpt>
      <trkpt lat="-35.02396" lon="-58.244045">
        <time>2021-05-01T13:54:04Z</time>
      </trkpt>
      <trkpt lat="-35.02395" lon="-58.24411">
        <time>2021-05-01T13:54:05Z</time>
      </trkpt>
      <trkpt lat="-35.023937" lon="-58.244175">
        <time>2021-05-01T13:54:06Z</time>
      </trkpt>
      <trkpt lat="-35.023926" lon="-58.244236">
        <time>2021-05-01T13:54:07Z</time>
      </trkpt>
      <trkpt lat="-35.023914" lon="-58.2443">
        <time>2021-05-01T13:54:08Z</time>
      </trkpt>
      <trkpt lat="-35.0239" lon="-58.24436">
        <time>2021-05-01T13:54:09Z</time>
      </trkpt>
      <trkpt lat="-35.023888" lon="-58.244427">
        <time>2021-05-01T13:54:10Z</time>
      </trkpt>
      <trkpt lat="-35.023876" lon="-58.244488">
        <time>2021-05-01T13:54:11Z</time>
      </trkpt>
      <trkpt lat="-35.02386" lon="-58.244553">
        <time>2021-05-01T13:54:12Z</time>
      </trkpt>
      <trkpt lat="-35.02385" lon="-58.244614">
        <time>2021-05-01T13:54:13Z</time>
      </trkpt>
      <trkpt lat="-35.023838" lon="-58.244675">
        <time>2021-05-01T13:54:14Z</time>
      </trkpt>
      <trkpt lat="-35.02383" lon="-58.244736">
        <time>2021-05-01T13:54:15Z</time>
      </trkpt>
      <trkpt lat="-35.023815" lon="-58.2448">
        <time>2021-05-01T13:54:16Z</time>
      </trkpt>
      <trkpt lat="-35.023804" lon="-58.24486">
        <time>2021-05-01T13:54:17Z</time>
      </trkpt>
      <trkpt lat="-35.02379" lon="-58.244926">
        <time>2021-05-01T13:54:18Z</time>
      </trkpt>
      <trkpt lat="-35.023777" lon="-58.24499">
        <time>2021-05-01T13:54:19Z</time>
      </trkpt>
      <trkpt lat="-35.02376" lon="-58.245052">
        <time>2021-05-01T13:54:20Z</time>
      </trkpt>
      <trkpt lat="-35.023754" lon="-58.245117">
        <time>2021-05-01T13:54:21Z</time>
      </trkpt>
      <trkpt lat="-35.02374" lon="-58.245182">
        <time>2021-05-01T13:54:22Z</time>
      </trkpt>
      <trkpt lat="-35.023727" lon="-58.245247">
        <time>2021-05-01T13:54:23Z</time>
      </trkpt>
      <trkpt lat="-35.023716" lon="-58.245308">
        <time>2021-05-01T13:54:24Z</time>
      </trkpt>
      <trkpt lat="-35.023693" lon="-58.24543">
        <time>2021-05-01T13:54:26Z</time>
      </trkpt>
      <trkpt lat="-35.023678" lon="-58.24549">
        <time>2021-05-01T13:54:27Z</time>
      </trkpt>
      <trkpt lat="-35.02367" lon="-58.245556">
        <time>2021-05-01T13:54:28Z</time>
      </trkpt>
      <trkpt lat="-35.023655" lon="-58.24562">
        <time>2021-05-01T13:54:29Z</time>
      </trkpt>
      <trkpt lat="-35.02364" lon="-58.245686">
        <time>2021-05-01T13:54:30Z</time>
      </trkpt>
      <trkpt lat="-35.023624" lon="-58.245747">
        <time>2021-05-01T13:54:31Z</time>
      </trkpt>
      <trkpt lat="-35.02361" lon="-58.245815">
        <time>2021-05-01T13:54:32Z</time>
      </trkpt>
      <trkpt lat="-35.023598" lon="-58.24588">
        <time>2021-05-01T13:54:33Z</time>
      </trkpt>
      <trkpt lat="-35.023586" lon="-58.245945">
        <time>2021-05-01T13:54:34Z</time>
      </trkpt>
      <trkpt lat="-35.023575" lon="-58.24601">
        <time>2021-05-01T13:54:35Z</time>
      </trkpt>
      <trkpt lat="-35.02356" lon="-58.246075">
        <time>2021-05-01T13:54:36Z</time>
      </trkpt>
      <trkpt lat="-35.02355" lon="-58.24614">
        <time>2021-05-01T13:54:37Z</time>
      </trkpt>
      <trkpt lat="-35.023537" lon="-58.246204">
        <time>2021-05-01T13:54:38Z</time>
      </trkpt>
      <trkpt lat="-35.02352" lon="-58.24627">
        <time>2021-05-01T13:54:39Z</time>
      </trkpt>
      <trkpt lat="-35.02351" lon="-58.246334">
        <time>2021-05-01T13:54:40Z</time>
      </trkpt>
      <trkpt lat="-35.0235" lon="-58.2464">
        <time>2021-05-01T13:54:41Z</time>
      </trkpt>
      <trkpt lat="-35.023487" lon="-58.246464">
        <time>2021-05-01T13:54:42Z</time>
      </trkpt>
      <trkpt lat="-35.02347" lon="-58.246525">
        <time>2021-05-01T13:54:43Z</time>
      </trkpt>
      <trkpt lat="-35.02346" lon="-58.246586">
        <time>2021-05-01T13:54:44Z</time>
      </trkpt>
      <trkpt lat="-35.023445" lon="-58.24665">
        <time>2021-05-01T13:54:45Z</time>
      </trkpt>
      <trkpt lat="-35.023434" lon="-58.246716">
        <time>2021-05-01T13:54:46Z</time>
      </trkpt>
      <trkpt lat="-35.02342" lon="-58.246777">
        <time>2021-05-01T13:54:47Z</time>
      </trkpt>
      <trkpt lat="-35.023407" lon="-58.24684">
        <time>2021-05-01T13:54:48Z</time>
      </trkpt>
      <trkpt lat="-35.023396" lon="-58.246902">
        <time>2021-05-01T13:54:49Z</time>
      </trkpt>
      <trkpt lat="-35.023384" lon="-58.24696">
        <time>2021-05-01T13:54:50Z</time>
      </trkpt>
      <trkpt lat="-35.02337" lon="-58.247017">
        <time>2021-05-01T13:54:51Z</time>
      </trkpt>
      <trkpt lat="-35.02336" lon="-58.247078">
        <time>2021-05-01T13:54:52Z</time>
      </trkpt>
      <trkpt lat="-35.02335" lon="-58.247143">
        <time>2021-05-01T13:54:53Z</time>
      </trkpt>
      <trkpt lat="-35.023335" lon="-58.24721">
        <time>2021-05-01T13:54:54Z</time>
      </trkpt>
      <trkpt lat="-35.02332" lon="-58.247276">
        <time>2021-05-01T13:54:55Z</time>
      </trkpt>
      <trkpt lat="-35.023308" lon="-58.24734">
        <time>2021-05-01T13:54:56Z</time>
      </trkpt>
      <trkpt lat="-35.023296" lon="-58.247402">
        <time>2021-05-01T13:54:57Z</time>
      </trkpt>
      <trkpt lat="-35.02328" lon="-58.247463">
        <time>2021-05-01T13:54:58Z</time>
      </trkpt>
      <trkpt lat="-35.02327" lon="-58.247524">
        <time>2021-05-01T13:54:59Z</time>
      </trkpt>
      <trkpt lat="-35.02326" lon="-58.247585">
        <time>2021-05-01T13:55:00Z</time>
      </trkpt>
      <trkpt lat="-35.023247" lon="-58.24765">
        <time>2021-05-01T13:55:01Z</time>
      </trkpt>
      <trkpt lat="-35.023235" lon="-58.24771">
        <time>2021-05-01T13:55:02Z</time>
      </trkpt>
      <trkpt lat="-35.02322" lon="-58.247776">
        <time>2021-05-01T13:55:03Z</time>
      </trkpt>
      <trkpt lat="-35.02321" lon="-58.247837">
        <time>2021-05-01T13:55:04Z</time>
      </trkpt>
      <trkpt lat="-35.023193" lon="-58.247902">
        <time>2021-05-01T13:55:05Z</time>
      </trkpt>
      <trkpt lat="-35.02317" lon="-58.248024">
        <time>2021-05-01T13:55:07Z</time>
      </trkpt>
      <trkpt lat="-35.02316" lon="-58.24809">
        <time>2021-05-01T13:55:08Z</time>
      </trkpt>
      <trkpt lat="-35.023148" lon="-58.24815">
        <time>2021-05-01T13:55:09Z</time>
      </trkpt>
      <trkpt lat="-35.023136" lon="-58.248215">
        <time>2021-05-01T13:55:10Z</time>
      </trkpt>
      <trkpt lat="-35.02312" lon="-58.248276">
        <time>2021-05-01T13:55:11Z</time>
      </trkpt>
      <trkpt lat="-35.02311" lon="-58.24834">
        <time>2021-05-01T13:55:12Z</time>
      </trkpt>
      <trkpt lat="-35.023033" lon="-58.24872">
        <time>2021-05-01T13:55:18Z</time>
      </trkpt>
      <trkpt lat="-35.023006" lon="-58.248848">
        <time>2021-05-01T13:55:20Z</time>
      </trkpt>
      <trkpt lat="-35.02299" lon="-58.248913">
        <time>2021-05-01T13:55:21Z</time>
      </trkpt>
      <trkpt lat="-35.022984" lon="-58.248978">
        <time>2021-05-01T13:55:22Z</time>
      </trkpt>
      <trkpt lat="-35.022972" lon="-58.249043">
        <time>2021-05-01T13:55:23Z</time>
      </trkpt>
      <trkpt lat="-35.022953" lon="-58.249107">
        <time>2021-05-01T13:55:24Z</time>
      </trkpt>
      <trkpt lat="-35.022938" lon="-58.24917">
        <time>2021-05-01T13:55:25Z</time>
      </trkpt>
      <trkpt lat="-35.022926" lon="-58.249233">
        <time>2021-05-01T13:55:26Z</time>
      </trkpt>
      <trkpt lat="-35.02291" lon="-58.2493">
        <time>2021-05-01T13:55:27Z</time>
      </trkpt>
      <trkpt lat="-35.0229" lon="-58.249367">
        <time>2021-05-01T13:55:28Z</time>
      </trkpt>
      <trkpt lat="-35.02289" lon="-58.24943">
        <time>2021-05-01T13:55:29Z</time>
      </trkpt>
      <trkpt lat="-35.022873" lon="-58.249496">
        <time>2021-05-01T13:55:30Z</time>
      </trkpt>
      <trkpt lat="-35.02286" lon="-58.249557">
        <time>2021-05-01T13:55:31Z</time>
      </trkpt>
      <trkpt lat="-35.02285" lon="-58.249622">
        <time>2021-05-01T13:55:32Z</time>
      </trkpt>
      <trkpt lat="-35.022835" lon="-58.249683">
        <time>2021-05-01T13:55:33Z</time>
      </trkpt>
      <trkpt lat="-35.02282" lon="-58.24975">
        <time>2021-05-01T13:55:34Z</time>
      </trkpt>
      <trkpt lat="-35.022808" lon="-58.249813">
        <time>2021-05-01T13:55:35Z</time>
      </trkpt>
      <trkpt lat="-35.022797" lon="-58.249878">
        <time>2021-05-01T13:55:36Z</time>
      </trkpt>
      <trkpt lat="-35.02278" lon="-58.24994">
        <time>2021-05-01T13:55:37Z</time>
      </trkpt>
      <trkpt lat="-35.022766" lon="-58.250004">
        <time>2021-05-01T13:55:38Z</time>
      </trkpt>
      <trkpt lat="-35.02275" lon="-58.250065">
        <time>2021-05-01T13:55:39Z</time>
      </trkpt>
      <trkpt lat="-35.02274" lon="-58.250126">
        <time>2021-05-01T13:55:40Z</time>
      </trkpt>
      <trkpt lat="-35.022728" lon="-58.25019">
        <time>2021-05-01T13:55:41Z</time>
      </trkpt>
      <trkpt lat="-35.022717" lon="-58.25025">
        <time>2021-05-01T13:55:42Z</time>
      </trkpt>
      <trkpt lat="-35.02271" lon="-58.250317">
        <time>2021-05-01T13:55:43Z</time>
      </trkpt>
      <trkpt lat="-35.022694" lon="-58.250378">
        <time>2021-05-01T13:55:44Z</time>
      </trkpt>
      <trkpt lat="-35.02268" lon="-58.250443">
        <time>2021-05-01T13:55:45Z</time>
      </trkpt>
      <trkpt lat="-35.022663" lon="-58.25051">
        <time>2021-05-01T13:55:46Z</time>
      </trkpt>
      <trkpt lat="-35.022648" lon="-58.250576">
        <time>2021-05-01T13:55:47Z</time>
      </trkpt>
      <trkpt lat="-35.022633" lon="-58.25064">
        <time>2021-05-01T13:55:48Z</time>
      </trkpt>
      <trkpt lat="-35.02262" lon="-58.25071">
        <time>2021-05-01T13:55:49Z</time>
      </trkpt>
      <trkpt lat="-35.022606" lon="-58.25077">
        <time>2021-05-01T13:55:50Z</time>
      </trkpt>
      <trkpt lat="-35.02259" lon="-58.250835">
        <time>2021-05-01T13:55:51Z</time>
      </trkpt>
      <trkpt lat="-35.022575" lon="-58.250904">
        <time>2021-05-01T13:55:52Z</time>
      </trkpt>
      <trkpt lat="-35.02256" lon="-58.250977">
        <time>2021-05-01T13:55:53Z</time>
      </trkpt>
      <trkpt lat="-35.022537" lon="-58.251057">
        <time>2021-05-01T13:55:54Z</time>
      </trkpt>
      <trkpt lat="-35.022514" lon="-58.25115">
        <time>2021-05-01T13:55:55Z</time>
      </trkpt>
      <trkpt lat="-35.022495" lon="-58.251232">
        <time>2021-05-01T13:55:56Z</time>
      </trkpt>
      <trkpt lat="-35.022476" lon="-58.251316">
        <time>2021-05-01T13:55:57Z</time>
      </trkpt>
      <trkpt lat="-35.02246" lon="-58.251396">
        <time>2021-05-01T13:55:58Z</time>
      </trkpt>
      <trkpt lat="-35.02245" lon="-58.251476">
        <time>2021-05-01T13:55:59Z</time>
      </trkpt>
      <trkpt lat="-35.022434" lon="-58.251556">
        <time>2021-05-01T13:56:00Z</time>
      </trkpt>
      <trkpt lat="-35.022423" lon="-58.251633">
        <time>2021-05-01T13:56:01Z</time>
      </trkpt>
      <trkpt lat="-35.022408" lon="-58.25171">
        <time>2021-05-01T13:56:02Z</time>
      </trkpt>
      <trkpt lat="-35.022392" lon="-58.25179">
        <time>2021-05-01T13:56:03Z</time>
      </trkpt>
      <trkpt lat="-35.022377" lon="-58.25187">
        <time>2021-05-01T13:56:04Z</time>
      </trkpt>
      <trkpt lat="-35.022346" lon="-58.252018">
        <time>2021-05-01T13:56:06Z</time>
      </trkpt>
      <trkpt lat="-35.022312" lon="-58.252163">
        <time>2021-05-01T13:56:08Z</time>
      </trkpt>
      <trkpt lat="-35.0223" lon="-58.252235">
        <time>2021-05-01T13:56:09Z</time>
      </trkpt>
      <trkpt lat="-35.02226" lon="-58.25244">
        <time>2021-05-01T13:56:12Z</time>
      </trkpt>
      <trkpt lat="-35.022236" lon="-58.2525">
        <time>2021-05-01T13:56:13Z</time>
      </trkpt>
      <trkpt lat="-35.022213" lon="-58.252552">
        <time>2021-05-01T13:56:14Z</time>
      </trkpt>
      <trkpt lat="-35.022194" lon="-58.252605">
        <time>2021-05-01T13:56:15Z</time>
      </trkpt>
      <trkpt lat="-35.02216" lon="-58.252705">
        <time>2021-05-01T13:56:17Z</time>
      </trkpt>
      <trkpt lat="-35.02215" lon="-58.252796">
        <time>2021-05-01T13:56:19Z</time>
      </trkpt>
      <trkpt lat="-35.022163" lon="-58.25289">
        <time>2021-05-01T13:56:21Z</time>
      </trkpt>
      <trkpt lat="-35.022198" lon="-58.252968">
        <time>2021-05-01T13:56:23Z</time>
      </trkpt>
      <trkpt lat="-35.022255" lon="-58.25303">
        <time>2021-05-01T13:56:25Z</time>
      </trkpt>
      <trkpt lat="-35.02231" lon="-58.253082">
        <time>2021-05-01T13:56:27Z</time>
      </trkpt>
      <trkpt lat="-35.022358" lon="-58.253128">
        <time>2021-05-01T13:56:29Z</time>
      </trkpt>
      <trkpt lat="-35.022408" lon="-58.25318">
        <time>2021-05-01T13:56:31Z</time>
      </trkpt>
      <trkpt lat="-35.022472" lon="-58.25325">
        <time>2021-05-01T13:56:33Z</time>
      </trkpt>
      <trkpt lat="-35.022507" lon="-58.25329">
        <time>2021-05-01T13:56:34Z</time>
      </trkpt>
      <trkpt lat="-35.02254" lon="-58.253323">
        <time>2021-05-01T13:56:35Z</time>
      </trkpt>
      <trkpt lat="-35.022606" lon="-58.253387">
        <time>2021-05-01T13:56:37Z</time>
      </trkpt>
      <trkpt lat="-35.022667" lon="-58.253456">
        <time>2021-05-01T13:56:39Z</time>
      </trkpt>
      <trkpt lat="-35.02273" lon="-58.25351">
        <time>2021-05-01T13:56:41Z</time>
      </trkpt>
      <trkpt lat="-35.02279" lon="-58.253567">
        <time>2021-05-01T13:56:43Z</time>
      </trkpt>
      <trkpt lat="-35.022846" lon="-58.25361">
        <time>2021-05-01T13:56:45Z</time>
      </trkpt>
      <trkpt lat="-35.022896" lon="-58.25366">
        <time>2021-05-01T13:56:47Z</time>
      </trkpt>
      <trkpt lat="-35.022945" lon="-58.253708">
        <time>2021-05-01T13:56:49Z</time>
      </trkpt>
      <trkpt lat="-35.023" lon="-58.253754">
        <time>2021-05-01T13:56:51Z</time>
      </trkpt>
      <trkpt lat="-35.02304" lon="-58.25379">
        <time>2021-05-01T13:56:53Z</time>
      </trkpt>
      <trkpt lat="-35.02308" lon="-58.253838">
        <time>2021-05-01T13:56:55Z</time>
      </trkpt>
      <trkpt lat="-35.023113" lon="-58.25388">
        <time>2021-05-01T13:56:57Z</time>
      </trkpt>
      <trkpt lat="-35.023144" lon="-58.25392">
        <time>2021-05-01T13:56:59Z</time>
      </trkpt>
      <trkpt lat="-35.02317" lon="-58.253983">
        <time>2021-05-01T13:57:02Z</time>
      </trkpt>
      <trkpt lat="-35.023174" lon="-58.253994">
        <time>2021-05-01T13:57:12Z</time>
      </trkpt>
      <trkpt lat="-35.023174" lon="-58.253994">
        <time>2021-05-01T13:57:22Z</time>
      </trkpt>
      <trkpt lat="-35.02322" lon="-58.25399">
        <time>2021-05-01T13:57:32Z</time>
      </trkpt>
      <trkpt lat="-35.023228" lon="-58.253998">
        <time>2021-05-01T13:57:42Z</time>
      </trkpt>
      <trkpt lat="-35.023228" lon="-58.253998">
        <time>2021-05-01T13:59:02Z</time>
      </trkpt>
      <trkpt lat="-35.02324" lon="-58.25394">
        <time>2021-05-01T13:59:08Z</time>
      </trkpt>
      <trkpt lat="-35.02335" lon="-58.25412">
        <time>2021-05-01T14:02:06Z</time>
      </trkpt>
      <trkpt lat="-35.023415" lon="-58.25419">
        <time>2021-05-01T14:02:08Z</time>
      </trkpt>
      <trkpt lat="-35.023396" lon="-58.254276">
        <time>2021-05-01T14:02:09Z</time>
      </trkpt>
      <trkpt lat="-35.02345" lon="-58.25435">
        <time>2021-05-01T14:02:11Z</time>
      </trkpt>
      <trkpt lat="-35.023487" lon="-58.254387">
        <time>2021-05-01T14:02:12Z</time>
      </trkpt>
      <trkpt lat="-35.02353" lon="-58.254425">
        <time>2021-05-01T14:02:13Z</time>
      </trkpt>
      <trkpt lat="-35.02357" lon="-58.254463">
        <time>2021-05-01T14:02:14Z</time>
      </trkpt>
      <trkpt lat="-35.023617" lon="-58.254498">
        <time>2021-05-01T14:02:15Z</time>
      </trkpt>
      <trkpt lat="-35.023663" lon="-58.254536">
        <time>2021-05-01T14:02:16Z</time>
      </trkpt>
      <trkpt lat="-35.0237" lon="-58.254574">
        <time>2021-05-01T14:02:17Z</time>
      </trkpt>
      <trkpt lat="-35.023743" lon="-58.254612">
        <time>2021-05-01T14:02:18Z</time>
      </trkpt>
      <trkpt lat="-35.023785" lon="-58.25465">
        <time>2021-05-01T14:02:19Z</time>
      </trkpt>
      <trkpt lat="-35.023823" lon="-58.25469">
        <time>2021-05-01T14:02:20Z</time>
      </trkpt>
      <trkpt lat="-35.02386" lon="-58.254726">
        <time>2021-05-01T14:02:21Z</time>
      </trkpt>
      <trkpt lat="-35.0239" lon="-58.25477">
        <time>2021-05-01T14:02:22Z</time>
      </trkpt>
      <trkpt lat="-35.02394" lon="-58.254814">
        <time>2021-05-01T14:02:23Z</time>
      </trkpt>
      <trkpt lat="-35.023983" lon="-58.25486">
        <time>2021-05-01T14:02:24Z</time>
      </trkpt>
      <trkpt lat="-35.02402" lon="-58.25491">
        <time>2021-05-01T14:02:25Z</time>
      </trkpt>
      <trkpt lat="-35.024067" lon="-58.254955">
        <time>2021-05-01T14:02:26Z</time>
      </trkpt>
      <trkpt lat="-35.02411" lon="-58.254997">
        <time>2021-05-01T14:02:27Z</time>
      </trkpt>
      <trkpt lat="-35.024155" lon="-58.255047">
        <time>2021-05-01T14:02:28Z</time>
      </trkpt>
      <trkpt lat="-35.024197" lon="-58.255096">
        <time>2021-05-01T14:02:29Z</time>
      </trkpt>
      <trkpt lat="-35.02424" lon="-58.255142">
        <time>2021-05-01T14:02:30Z</time>
      </trkpt>
      <trkpt lat="-35.02428" lon="-58.255196">
        <time>2021-05-01T14:02:31Z</time>
      </trkpt>
      <trkpt lat="-35.024326" lon="-58.25524">
        <time>2021-05-01T14:02:32Z</time>
      </trkpt>
      <trkpt lat="-35.024372" lon="-58.25529">
        <time>2021-05-01T14:02:33Z</time>
      </trkpt>
      <trkpt lat="-35.024414" lon="-58.25534">
        <time>2021-05-01T14:02:34Z</time>
      </trkpt>
      <trkpt lat="-35.02446" lon="-58.25539">
        <time>2021-05-01T14:02:35Z</time>
      </trkpt>
      <trkpt lat="-35.024506" lon="-58.25544">
        <time>2021-05-01T14:02:36Z</time>
      </trkpt>
      <trkpt lat="-35.02455" lon="-58.25549">
        <time>2021-05-01T14:02:37Z</time>
      </trkpt>
      <trkpt lat="-35.024597" lon="-58.25554">
        <time>2021-05-01T14:02:38Z</time>
      </trkpt>
      <trkpt lat="-35.024643" lon="-58.25559">
        <time>2021-05-01T14:02:39Z</time>
      </trkpt>
      <trkpt lat="-35.02469" lon="-58.25564">
        <time>2021-05-01T14:02:40Z</time>
      </trkpt>
      <trkpt lat="-35.02473" lon="-58.255688">
        <time>2021-05-01T14:02:41Z</time>
      </trkpt>
      <trkpt lat="-35.024776" lon="-58.255737">
        <time>2021-05-01T14:02:42Z</time>
      </trkpt>
      <trkpt lat="-35.024822" lon="-58.255787">
        <time>2021-05-01T14:02:43Z</time>
      </trkpt>
      <trkpt lat="-35.024868" lon="-58.255836">
        <time>2021-05-01T14:02:44Z</time>
      </trkpt>
      <trkpt lat="-35.02491" lon="-58.25589">
        <time>2021-05-01T14:02:45Z</time>
      </trkpt>
      <trkpt lat="-35.024956" lon="-58.25594">
        <time>2021-05-01T14:02:46Z</time>
      </trkpt>
      <trkpt lat="-35.025" lon="-58.255993">
        <time>2021-05-01T14:02:47Z</time>
      </trkpt>
      <trkpt lat="-35.025047" lon="-58.256042">
        <time>2021-05-01T14:02:48Z</time>
      </trkpt>
      <trkpt lat="-35.02509" lon="-58.256092">
        <time>2021-05-01T14:02:49Z</time>
      </trkpt>
      <trkpt lat="-35.025135" lon="-58.25614">
        <time>2021-05-01T14:02:50Z</time>
      </trkpt>
      <trkpt lat="-35.02518" lon="-58.25619">
        <time>2021-05-01T14:02:51Z</time>
      </trkpt>
      <trkpt lat="-35.025227" lon="-58.25624">
        <time>2021-05-01T14:02:52Z</time>
      </trkpt>
      <trkpt lat="-35.025272" lon="-58.25629">
        <time>2021-05-01T14:02:53Z</time>
      </trkpt>
      <trkpt lat="-35.02532" lon="-58.256344">
        <time>2021-05-01T14:02:54Z</time>
      </trkpt>
      <trkpt lat="-35.025364" lon="-58.256397">
        <time>2021-05-01T14:02:55Z</time>
      </trkpt>
      <trkpt lat="-35.025406" lon="-58.256447">
        <time>2021-05-01T14:02:56Z</time>
      </trkpt>
      <trkpt lat="-35.025448" lon="-58.256493">
        <time>2021-05-01T14:02:57Z</time>
      </trkpt>
      <trkpt lat="-35.02549" lon="-58.256542">
        <time>2021-05-01T14:02:58Z</time>
      </trkpt>
      <trkpt lat="-35.025528" lon="-58.256584">
        <time>2021-05-01T14:02:59Z</time>
      </trkpt>
      <trkpt lat="-35.02557" lon="-58.25663">
        <time>2021-05-01T14:03:00Z</time>
      </trkpt>
      <trkpt lat="-35.025604" lon="-58.25667">
        <time>2021-05-01T14:03:01Z</time>
      </trkpt>
      <trkpt lat="-35.025642" lon="-58.25671">
        <time>2021-05-01T14:03:02Z</time>
      </trkpt>
      <trkpt lat="-35.02568" lon="-58.25675">
        <time>2021-05-01T14:03:03Z</time>
      </trkpt>
      <trkpt lat="-35.025715" lon="-58.25679">
        <time>2021-05-01T14:03:04Z</time>
      </trkpt>
      <trkpt lat="-35.025753" lon="-58.256832">
        <time>2021-05-01T14:03:05Z</time>
      </trkpt>
      <trkpt lat="-35.02579" lon="-58.256874">
        <time>2021-05-01T14:03:06Z</time>
      </trkpt>
      <trkpt lat="-35.02586" lon="-58.256947">
        <time>2021-05-01T14:03:08Z</time>
      </trkpt>
      <trkpt lat="-35.025894" lon="-58.256985">
        <time>2021-05-01T14:03:09Z</time>
      </trkpt>
      <trkpt lat="-35.02593" lon="-58.257023">
        <time>2021-05-01T14:03:10Z</time>
      </trkpt>
      <trkpt lat="-35.025963" lon="-58.25706">
        <time>2021-05-01T14:03:11Z</time>
      </trkpt>
      <trkpt lat="-35.025997" lon="-58.257103">
        <time>2021-05-01T14:03:12Z</time>
      </trkpt>
      <trkpt lat="-35.02603" lon="-58.25714">
        <time>2021-05-01T14:03:13Z</time>
      </trkpt>
      <trkpt lat="-35.02607" lon="-58.257183">
        <time>2021-05-01T14:03:14Z</time>
      </trkpt>
      <trkpt lat="-35.02611" lon="-58.25723">
        <time>2021-05-01T14:03:15Z</time>
      </trkpt>
      <trkpt lat="-35.026157" lon="-58.257275">
        <time>2021-05-01T14:03:16Z</time>
      </trkpt>
      <trkpt lat="-35.0262" lon="-58.257324">
        <time>2021-05-01T14:03:17Z</time>
      </trkpt>
      <trkpt lat="-35.02624" lon="-58.257374">
        <time>2021-05-01T14:03:18Z</time>
      </trkpt>
      <trkpt lat="-35.026287" lon="-58.25742">
        <time>2021-05-01T14:03:19Z</time>
      </trkpt>
      <trkpt lat="-35.026333" lon="-58.25747">
        <time>2021-05-01T14:03:20Z</time>
      </trkpt>
      <trkpt lat="-35.02638" lon="-58.25752">
        <time>2021-05-01T14:03:21Z</time>
      </trkpt>
      <trkpt lat="-35.02643" lon="-58.257565">
        <time>2021-05-01T14:03:22Z</time>
      </trkpt>
      <trkpt lat="-35.02647" lon="-58.25761">
        <time>2021-05-01T14:03:23Z</time>
      </trkpt>
      <trkpt lat="-35.026516" lon="-58.257656">
        <time>2021-05-01T14:03:24Z</time>
      </trkpt>
      <trkpt lat="-35.026558" lon="-58.2577">
        <time>2021-05-01T14:03:25Z</time>
      </trkpt>
      <trkpt lat="-35.026604" lon="-58.257744">
        <time>2021-05-01T14:03:26Z</time>
      </trkpt>
      <trkpt lat="-35.026646" lon="-58.257797">
        <time>2021-05-01T14:03:27Z</time>
      </trkpt>
      <trkpt lat="-35.02669" lon="-58.25784">
        <time>2021-05-01T14:03:28Z</time>
      </trkpt>
      <trkpt lat="-35.026737" lon="-58.25789">
        <time>2021-05-01T14:03:29Z</time>
      </trkpt>
      <trkpt lat="-35.026783" lon="-58.25794">
        <time>2021-05-01T14:03:30Z</time>
      </trkpt>
      <trkpt lat="-35.02683" lon="-58.25798">
        <time>2021-05-01T14:03:31Z</time>
      </trkpt>
      <trkpt lat="-35.026875" lon="-58.258022">
        <time>2021-05-01T14:03:32Z</time>
      </trkpt>
      <trkpt lat="-35.026917" lon="-58.25806">
        <time>2021-05-01T14:03:33Z</time>
      </trkpt>
      <trkpt lat="-35.026962" lon="-58.2581">
        <time>2021-05-01T14:03:34Z</time>
      </trkpt>
      <trkpt lat="-35.027008" lon="-58.258133">
        <time>2021-05-01T14:03:35Z</time>
      </trkpt>
      <trkpt lat="-35.027054" lon="-58.258167">
        <time>2021-05-01T14:03:36Z</time>
      </trkpt>
      <trkpt lat="-35.027096" lon="-58.25821">
        <time>2021-05-01T14:03:37Z</time>
      </trkpt>
      <trkpt lat="-35.027134" lon="-58.258247">
        <time>2021-05-01T14:03:38Z</time>
      </trkpt>
      <trkpt lat="-35.02717" lon="-58.258286">
        <time>2021-05-01T14:03:39Z</time>
      </trkpt>
      <trkpt lat="-35.027203" lon="-58.258327">
        <time>2021-05-01T14:03:40Z</time>
      </trkpt>
      <trkpt lat="-35.027237" lon="-58.258366">
        <time>2021-05-01T14:03:41Z</time>
      </trkpt>
      <trkpt lat="-35.027267" lon="-58.258404">
        <time>2021-05-01T14:03:42Z</time>
      </trkpt>
      <trkpt lat="-35.027306" lon="-58.258442">
        <time>2021-05-01T14:03:43Z</time>
      </trkpt>
      <trkpt lat="-35.02734" lon="-58.258484">
        <time>2021-05-01T14:03:44Z</time>
      </trkpt>
      <trkpt lat="-35.027374" lon="-58.25852">
        <time>2021-05-01T14:03:45Z</time>
      </trkpt>
      <trkpt lat="-35.02744" lon="-58.25859">
        <time>2021-05-01T14:03:47Z</time>
      </trkpt>
      <trkpt lat="-35.027504" lon="-58.258663">
        <time>2021-05-01T14:03:49Z</time>
      </trkpt>
      <trkpt lat="-35.02757" lon="-58.25874">
        <time>2021-05-01T14:03:51Z</time>
      </trkpt>
      <trkpt lat="-35.0276" lon="-58.258778">
        <time>2021-05-01T14:03:52Z</time>
      </trkpt>
      <trkpt lat="-35.027634" lon="-58.258816">
        <time>2021-05-01T14:03:53Z</time>
      </trkpt>
      <trkpt lat="-35.02767" lon="-58.258854">
        <time>2021-05-01T14:03:54Z</time>
      </trkpt>
      <trkpt lat="-35.027706" lon="-58.258896">
        <time>2021-05-01T14:03:55Z</time>
      </trkpt>
      <trkpt lat="-35.027744" lon="-58.258934">
        <time>2021-05-01T14:03:56Z</time>
      </trkpt>
      <trkpt lat="-35.02778" lon="-58.258972">
        <time>2021-05-01T14:03:57Z</time>
      </trkpt>
      <trkpt lat="-35.027817" lon="-58.259007">
        <time>2021-05-01T14:03:58Z</time>
      </trkpt>
      <trkpt lat="-35.027855" lon="-58.259045">
        <time>2021-05-01T14:03:59Z</time>
      </trkpt>
      <trkpt lat="-35.027893" lon="-58.259083">
        <time>2021-05-01T14:04:00Z</time>
      </trkpt>
      <trkpt lat="-35.027935" lon="-58.259117">
        <time>2021-05-01T14:04:01Z</time>
      </trkpt>
      <trkpt lat="-35.027973" lon="-58.259155">
        <time>2021-05-01T14:04:02Z</time>
      </trkpt>
      <trkpt lat="-35.02801" lon="-58.259193">
        <time>2021-05-01T14:04:03Z</time>
      </trkpt>
      <trkpt lat="-35.02805" lon="-58.25923">
        <time>2021-05-01T14:04:04Z</time>
      </trkpt>
      <trkpt lat="-35.028088" lon="-58.25927">
        <time>2021-05-01T14:04:05Z</time>
      </trkpt>
      <trkpt lat="-35.028122" lon="-58.259308">
        <time>2021-05-01T14:04:06Z</time>
      </trkpt>
      <trkpt lat="-35.028156" lon="-58.259346">
        <time>2021-05-01T14:04:07Z</time>
      </trkpt>
      <trkpt lat="-35.028187" lon="-58.259388">
        <time>2021-05-01T14:04:08Z</time>
      </trkpt>
      <trkpt lat="-35.028248" lon="-58.25947">
        <time>2021-05-01T14:04:10Z</time>
      </trkpt>
      <trkpt lat="-35.02828" lon="-58.259514">
        <time>2021-05-01T14:04:11Z</time>
      </trkpt>
      <trkpt lat="-35.02831" lon="-58.259556">
        <time>2021-05-01T14:04:12Z</time>
      </trkpt>
      <trkpt lat="-35.028366" lon="-58.259636">
        <time>2021-05-01T14:04:14Z</time>
      </trkpt>
      <trkpt lat="-35.02843" lon="-58.259712">
        <time>2021-05-01T14:04:16Z</time>
      </trkpt>
      <trkpt lat="-35.02847" lon="-58.259747">
        <time>2021-05-01T14:04:17Z</time>
      </trkpt>
      <trkpt lat="-35.028503" lon="-58.259785">
        <time>2021-05-01T14:04:18Z</time>
      </trkpt>
      <trkpt lat="-35.028538" lon="-58.259823">
        <time>2021-05-01T14:04:19Z</time>
      </trkpt>
      <trkpt lat="-35.028576" lon="-58.259857">
        <time>2021-05-01T14:04:20Z</time>
      </trkpt>
      <trkpt lat="-35.028614" lon="-58.259895">
        <time>2021-05-01T14:04:21Z</time>
      </trkpt>
      <trkpt lat="-35.02865" lon="-58.259945">
        <time>2021-05-01T14:04:22Z</time>
      </trkpt>
      <trkpt lat="-35.02868" lon="-58.25999">
        <time>2021-05-01T14:04:23Z</time>
      </trkpt>
      <trkpt lat="-35.02871" lon="-58.260036">
        <time>2021-05-01T14:04:24Z</time>
      </trkpt>
      <trkpt lat="-35.028748" lon="-58.260082">
        <time>2021-05-01T14:04:25Z</time>
      </trkpt>
      <trkpt lat="-35.028778" lon="-58.26013">
        <time>2021-05-01T14:04:26Z</time>
      </trkpt>
      <trkpt lat="-35.028812" lon="-58.260178">
        <time>2021-05-01T14:04:27Z</time>
      </trkpt>
      <trkpt lat="-35.028847" lon="-58.26022">
        <time>2021-05-01T14:04:28Z</time>
      </trkpt>
      <trkpt lat="-35.02888" lon="-58.26026">
        <time>2021-05-01T14:04:29Z</time>
      </trkpt>
      <trkpt lat="-35.028915" lon="-58.260307">
        <time>2021-05-01T14:04:30Z</time>
      </trkpt>
      <trkpt lat="-35.02895" lon="-58.260345">
        <time>2021-05-01T14:04:31Z</time>
      </trkpt>
      <trkpt lat="-35.02898" lon="-58.260387">
        <time>2021-05-01T14:04:32Z</time>
      </trkpt>
      <trkpt lat="-35.029045" lon="-58.260464">
        <time>2021-05-01T14:04:34Z</time>
      </trkpt>
      <trkpt lat="-35.02908" lon="-58.260498">
        <time>2021-05-01T14:04:35Z</time>
      </trkpt>
      <trkpt lat="-35.029114" lon="-58.260536">
        <time>2021-05-01T14:04:36Z</time>
      </trkpt>
      <trkpt lat="-35.029152" lon="-58.260574">
        <time>2021-05-01T14:04:37Z</time>
      </trkpt>
      <trkpt lat="-35.029186" lon="-58.260612">
        <time>2021-05-01T14:04:38Z</time>
      </trkpt>
      <trkpt lat="-35.029224" lon="-58.26065">
        <time>2021-05-01T14:04:39Z</time>
      </trkpt>
      <trkpt lat="-35.029263" lon="-58.26069">
        <time>2021-05-01T14:04:40Z</time>
      </trkpt>
      <trkpt lat="-35.029297" lon="-58.260727">
        <time>2021-05-01T14:04:41Z</time>
      </trkpt>
      <trkpt lat="-35.029327" lon="-58.26077">
        <time>2021-05-01T14:04:42Z</time>
      </trkpt>
      <trkpt lat="-35.029396" lon="-58.260845">
        <time>2021-05-01T14:04:44Z</time>
      </trkpt>
      <trkpt lat="-35.029434" lon="-58.260883">
        <time>2021-05-01T14:04:45Z</time>
      </trkpt>
      <trkpt lat="-35.029472" lon="-58.26092">
        <time>2021-05-01T14:04:46Z</time>
      </trkpt>
      <trkpt lat="-35.02951" lon="-58.260963">
        <time>2021-05-01T14:04:47Z</time>
      </trkpt>
      <trkpt lat="-35.029552" lon="-58.26101">
        <time>2021-05-01T14:04:48Z</time>
      </trkpt>
      <trkpt lat="-35.02959" lon="-58.26105">
        <time>2021-05-01T14:04:49Z</time>
      </trkpt>
      <trkpt lat="-35.02963" lon="-58.26109">
        <time>2021-05-01T14:04:50Z</time>
      </trkpt>
      <trkpt lat="-35.029667" lon="-58.26113">
        <time>2021-05-01T14:04:51Z</time>
      </trkpt>
      <trkpt lat="-35.029705" lon="-58.261173">
        <time>2021-05-01T14:04:52Z</time>
      </trkpt>
      <trkpt lat="-35.02974" lon="-58.26121">
        <time>2021-05-01T14:04:53Z</time>
      </trkpt>
      <trkpt lat="-35.029804" lon="-58.261288">
        <time>2021-05-01T14:04:55Z</time>
      </trkpt>
      <trkpt lat="-35.02984" lon="-58.261326">
        <time>2021-05-01T14:04:56Z</time>
      </trkpt>
      <trkpt lat="-35.029873" lon="-58.261364">
        <time>2021-05-01T14:04:57Z</time>
      </trkpt>
      <trkpt lat="-35.029903" lon="-58.261414">
        <time>2021-05-01T14:04:58Z</time>
      </trkpt>
      <trkpt lat="-35.029938" lon="-58.26146">
        <time>2021-05-01T14:04:59Z</time>
      </trkpt>
      <trkpt lat="-35.02997" lon="-58.26151">
        <time>2021-05-01T14:05:00Z</time>
      </trkpt>
      <trkpt lat="-35.030003" lon="-58.261555">
        <time>2021-05-01T14:05:01Z</time>
      </trkpt>
      <trkpt lat="-35.030033" lon="-58.2616">
        <time>2021-05-01T14:05:02Z</time>
      </trkpt>
      <trkpt lat="-35.030075" lon="-58.261635">
        <time>2021-05-01T14:05:03Z</time>
      </trkpt>
      <trkpt lat="-35.030117" lon="-58.261673">
        <time>2021-05-01T14:05:04Z</time>
      </trkpt>
      <trkpt lat="-35.030155" lon="-58.26171">
        <time>2021-05-01T14:05:05Z</time>
      </trkpt>
      <trkpt lat="-35.030197" lon="-58.26175">
        <time>2021-05-01T14:05:06Z</time>
      </trkpt>
      <trkpt lat="-35.030235" lon="-58.261787">
        <time>2021-05-01T14:05:07Z</time>
      </trkpt>
      <trkpt lat="-35.03027" lon="-58.261826">
        <time>2021-05-01T14:05:08Z</time>
      </trkpt>
      <trkpt lat="-35.030304" lon="-58.26186">
        <time>2021-05-01T14:05:09Z</time>
      </trkpt>
      <trkpt lat="-35.03034" lon="-58.261898">
        <time>2021-05-01T14:05:10Z</time>
      </trkpt>
      <trkpt lat="-35.030376" lon="-58.26194">
        <time>2021-05-01T14:05:11Z</time>
      </trkpt>
      <trkpt lat="-35.030415" lon="-58.261982">
        <time>2021-05-01T14:05:12Z</time>
      </trkpt>
      <trkpt lat="-35.03045" lon="-58.262024">
        <time>2021-05-01T14:05:13Z</time>
      </trkpt>
      <trkpt lat="-35.030487" lon="-58.262066">
        <time>2021-05-01T14:05:14Z</time>
      </trkpt>
      <trkpt lat="-35.03052" lon="-58.262108">
        <time>2021-05-01T14:05:15Z</time>
      </trkpt>
      <trkpt lat="-35.030556" lon="-58.26215">
        <time>2021-05-01T14:05:16Z</time>
      </trkpt>
      <trkpt lat="-35.030594" lon="-58.26219">
        <time>2021-05-01T14:05:17Z</time>
      </trkpt>
      <trkpt lat="-35.030632" lon="-58.262234">
        <time>2021-05-01T14:05:18Z</time>
      </trkpt>
      <trkpt lat="-35.03067" lon="-58.262276">
        <time>2021-05-01T14:05:19Z</time>
      </trkpt>
      <trkpt lat="-35.030704" lon="-58.26232">
        <time>2021-05-01T14:05:20Z</time>
      </trkpt>
      <trkpt lat="-35.030743" lon="-58.262363">
        <time>2021-05-01T14:05:21Z</time>
      </trkpt>
      <trkpt lat="-35.030777" lon="-58.2624">
        <time>2021-05-01T14:05:22Z</time>
      </trkpt>
      <trkpt lat="-35.03081" lon="-58.26244">
        <time>2021-05-01T14:05:23Z</time>
      </trkpt>
      <trkpt lat="-35.030846" lon="-58.262478">
        <time>2021-05-01T14:05:24Z</time>
      </trkpt>
      <trkpt lat="-35.030914" lon="-58.262554">
        <time>2021-05-01T14:05:26Z</time>
      </trkpt>
      <trkpt lat="-35.03095" lon="-58.262596">
        <time>2021-05-01T14:05:27Z</time>
      </trkpt>
      <trkpt lat="-35.03099" lon="-58.262638">
        <time>2021-05-01T14:05:28Z</time>
      </trkpt>
      <trkpt lat="-35.03103" lon="-58.262684">
        <time>2021-05-01T14:05:29Z</time>
      </trkpt>
      <trkpt lat="-35.03107" lon="-58.262726">
        <time>2021-05-01T14:05:30Z</time>
      </trkpt>
      <trkpt lat="-35.03111" lon="-58.26277">
        <time>2021-05-01T14:05:31Z</time>
      </trkpt>
      <trkpt lat="-35.031147" lon="-58.262814">
        <time>2021-05-01T14:05:32Z</time>
      </trkpt>
      <trkpt lat="-35.03119" lon="-58.26285">
        <time>2021-05-01T14:05:33Z</time>
      </trkpt>
      <trkpt lat="-35.031227" lon="-58.262894">
        <time>2021-05-01T14:05:34Z</time>
      </trkpt>
      <trkpt lat="-35.03127" lon="-58.262936">
        <time>2021-05-01T14:05:35Z</time>
      </trkpt>
      <trkpt lat="-35.03131" lon="-58.262978">
        <time>2021-05-01T14:05:36Z</time>
      </trkpt>
      <trkpt lat="-35.031353" lon="-58.26302">
        <time>2021-05-01T14:05:37Z</time>
      </trkpt>
      <trkpt lat="-35.03139" lon="-58.26306">
        <time>2021-05-01T14:05:38Z</time>
      </trkpt>
      <trkpt lat="-35.03143" lon="-58.2631">
        <time>2021-05-01T14:05:39Z</time>
      </trkpt>
      <trkpt lat="-35.031467" lon="-58.263145">
        <time>2021-05-01T14:05:40Z</time>
      </trkpt>
      <trkpt lat="-35.03151" lon="-58.26319">
        <time>2021-05-01T14:05:41Z</time>
      </trkpt>
      <trkpt lat="-35.031548" lon="-58.263237">
        <time>2021-05-01T14:05:42Z</time>
      </trkpt>
      <trkpt lat="-35.031586" lon="-58.26328">
        <time>2021-05-01T14:05:43Z</time>
      </trkpt>
      <trkpt lat="-35.031624" lon="-58.263325">
        <time>2021-05-01T14:05:44Z</time>
      </trkpt>
      <trkpt lat="-35.03166" lon="-58.263367">
        <time>2021-05-01T14:05:45Z</time>
      </trkpt>
      <trkpt lat="-35.031693" lon="-58.26341">
        <time>2021-05-01T14:05:46Z</time>
      </trkpt>
      <trkpt lat="-35.03173" lon="-58.263447">
        <time>2021-05-01T14:05:47Z</time>
      </trkpt>
      <trkpt lat="-35.031765" lon="-58.26349">
        <time>2021-05-01T14:05:48Z</time>
      </trkpt>
      <trkpt lat="-35.0318" lon="-58.263527">
        <time>2021-05-01T14:05:49Z</time>
      </trkpt>
      <trkpt lat="-35.031834" lon="-58.26357">
        <time>2021-05-01T14:05:50Z</time>
      </trkpt>
      <trkpt lat="-35.031868" lon="-58.263603">
        <time>2021-05-01T14:05:51Z</time>
      </trkpt>
      <trkpt lat="-35.031933" lon="-58.263676">
        <time>2021-05-01T14:05:53Z</time>
      </trkpt>
      <trkpt lat="-35.031998" lon="-58.263752">
        <time>2021-05-01T14:05:55Z</time>
      </trkpt>
      <trkpt lat="-35.032036" lon="-58.26379">
        <time>2021-05-01T14:05:56Z</time>
      </trkpt>
      <trkpt lat="-35.03207" lon="-58.26383">
        <time>2021-05-01T14:05:57Z</time>
      </trkpt>
      <trkpt lat="-35.032104" lon="-58.263866">
        <time>2021-05-01T14:05:58Z</time>
      </trkpt>
      <trkpt lat="-35.03217" lon="-58.26394">
        <time>2021-05-01T14:06:00Z</time>
      </trkpt>
      <trkpt lat="-35.03223" lon="-58.264008">
        <time>2021-05-01T14:06:02Z</time>
      </trkpt>
      <trkpt lat="-35.0323" lon="-58.264084">
        <time>2021-05-01T14:06:04Z</time>
      </trkpt>
      <trkpt lat="-35.032333" lon="-58.264122">
        <time>2021-05-01T14:06:05Z</time>
      </trkpt>
      <trkpt lat="-35.032368" lon="-58.26416">
        <time>2021-05-01T14:06:06Z</time>
      </trkpt>
      <trkpt lat="-35.032402" lon="-58.264194">
        <time>2021-05-01T14:06:07Z</time>
      </trkpt>
      <trkpt lat="-35.032433" lon="-58.264233">
        <time>2021-05-01T14:06:08Z</time>
      </trkpt>
      <trkpt lat="-35.032467" lon="-58.26427">
        <time>2021-05-01T14:06:09Z</time>
      </trkpt>
      <trkpt lat="-35.032505" lon="-58.26431">
        <time>2021-05-01T14:06:10Z</time>
      </trkpt>
      <trkpt lat="-35.03254" lon="-58.26435">
        <time>2021-05-01T14:06:11Z</time>
      </trkpt>
      <trkpt lat="-35.032578" lon="-58.26439">
        <time>2021-05-01T14:06:12Z</time>
      </trkpt>
      <trkpt lat="-35.03261" lon="-58.26443">
        <time>2021-05-01T14:06:13Z</time>
      </trkpt>
      <trkpt lat="-35.032646" lon="-58.26447">
        <time>2021-05-01T14:06:14Z</time>
      </trkpt>
      <trkpt lat="-35.03268" lon="-58.264507">
        <time>2021-05-01T14:06:15Z</time>
      </trkpt>
      <trkpt lat="-35.03271" lon="-58.264545">
        <time>2021-05-01T14:06:16Z</time>
      </trkpt>
      <trkpt lat="-35.032745" lon="-58.264587">
        <time>2021-05-01T14:06:17Z</time>
      </trkpt>
      <trkpt lat="-35.03278" lon="-58.26462">
        <time>2021-05-01T14:06:18Z</time>
      </trkpt>
      <trkpt lat="-35.032845" lon="-58.264698">
        <time>2021-05-01T14:06:20Z</time>
      </trkpt>
      <trkpt lat="-35.03291" lon="-58.264774">
        <time>2021-05-01T14:06:22Z</time>
      </trkpt>
      <trkpt lat="-35.032944" lon="-58.264812">
        <time>2021-05-01T14:06:23Z</time>
      </trkpt>
      <trkpt lat="-35.03298" lon="-58.264854">
        <time>2021-05-01T14:06:24Z</time>
      </trkpt>
      <trkpt lat="-35.03302" lon="-58.264896">
        <time>2021-05-01T14:06:25Z</time>
      </trkpt>
      <trkpt lat="-35.033054" lon="-58.26494">
        <time>2021-05-01T14:06:26Z</time>
      </trkpt>
      <trkpt lat="-35.03309" lon="-58.26498">
        <time>2021-05-01T14:06:27Z</time>
      </trkpt>
      <trkpt lat="-35.033127" lon="-58.265022">
        <time>2021-05-01T14:06:28Z</time>
      </trkpt>
      <trkpt lat="-35.03316" lon="-58.26506">
        <time>2021-05-01T14:06:29Z</time>
      </trkpt>
      <trkpt lat="-35.033195" lon="-58.2651">
        <time>2021-05-01T14:06:30Z</time>
      </trkpt>
      <trkpt lat="-35.03323" lon="-58.265137">
        <time>2021-05-01T14:06:31Z</time>
      </trkpt>
      <trkpt lat="-35.033264" lon="-58.26518">
        <time>2021-05-01T14:06:32Z</time>
      </trkpt>
      <trkpt lat="-35.033302" lon="-58.265217">
        <time>2021-05-01T14:06:33Z</time>
      </trkpt>
      <trkpt lat="-35.033337" lon="-58.26526">
        <time>2021-05-01T14:06:34Z</time>
      </trkpt>
      <trkpt lat="-35.03338" lon="-58.2653">
        <time>2021-05-01T14:06:35Z</time>
      </trkpt>
      <trkpt lat="-35.033417" lon="-58.26534">
        <time>2021-05-01T14:06:36Z</time>
      </trkpt>
      <trkpt lat="-35.033455" lon="-58.26538">
        <time>2021-05-01T14:06:37Z</time>
      </trkpt>
      <trkpt lat="-35.033493" lon="-58.265423">
        <time>2021-05-01T14:06:38Z</time>
      </trkpt>
      <trkpt lat="-35.033527" lon="-58.26546">
        <time>2021-05-01T14:06:39Z</time>
      </trkpt>
      <trkpt lat="-35.03356" lon="-58.265503">
        <time>2021-05-01T14:06:40Z</time>
      </trkpt>
      <trkpt lat="-35.033596" lon="-58.265545">
        <time>2021-05-01T14:06:41Z</time>
      </trkpt>
      <trkpt lat="-35.03363" lon="-58.26558">
        <time>2021-05-01T14:06:42Z</time>
      </trkpt>
      <trkpt lat="-35.03367" lon="-58.265617">
        <time>2021-05-01T14:06:43Z</time>
      </trkpt>
      <trkpt lat="-35.03371" lon="-58.26565">
        <time>2021-05-01T14:06:44Z</time>
      </trkpt>
      <trkpt lat="-35.033752" lon="-58.265682">
        <time>2021-05-01T14:06:45Z</time>
      </trkpt>
      <trkpt lat="-35.033794" lon="-58.265705">
        <time>2021-05-01T14:06:46Z</time>
      </trkpt>
      <trkpt lat="-35.03387" lon="-58.265747">
        <time>2021-05-01T14:06:48Z</time>
      </trkpt>
      <trkpt lat="-35.033916" lon="-58.265766">
        <time>2021-05-01T14:06:49Z</time>
      </trkpt>
      <trkpt lat="-35.033997" lon="-58.265762">
        <time>2021-05-01T14:06:51Z</time>
      </trkpt>
      <trkpt lat="-35.03404" lon="-58.26573">
        <time>2021-05-01T14:06:52Z</time>
      </trkpt>
      <trkpt lat="-35.034084" lon="-58.265705">
        <time>2021-05-01T14:06:53Z</time>
      </trkpt>
      <trkpt lat="-35.034122" lon="-58.265667">
        <time>2021-05-01T14:06:54Z</time>
      </trkpt>
      <trkpt lat="-35.034157" lon="-58.26563">
        <time>2021-05-01T14:06:55Z</time>
      </trkpt>
      <trkpt lat="-35.034218" lon="-58.265553">
        <time>2021-05-01T14:06:57Z</time>
      </trkpt>
      <trkpt lat="-35.034252" lon="-58.26551">
        <time>2021-05-01T14:06:58Z</time>
      </trkpt>
      <trkpt lat="-35.034283" lon="-58.26547">
        <time>2021-05-01T14:06:59Z</time>
      </trkpt>
      <trkpt lat="-35.03434" lon="-58.265392">
        <time>2021-05-01T14:07:01Z</time>
      </trkpt>
      <trkpt lat="-35.03437" lon="-58.265347">
        <time>2021-05-01T14:07:02Z</time>
      </trkpt>
      <trkpt lat="-35.034405" lon="-58.265305">
        <time>2021-05-01T14:07:03Z</time>
      </trkpt>
      <trkpt lat="-35.034435" lon="-58.265255">
        <time>2021-05-01T14:07:04Z</time>
      </trkpt>
      <trkpt lat="-35.03447" lon="-58.26521">
        <time>2021-05-01T14:07:05Z</time>
      </trkpt>
      <trkpt lat="-35.034504" lon="-58.265163">
        <time>2021-05-01T14:07:06Z</time>
      </trkpt>
      <trkpt lat="-35.034534" lon="-58.26512">
        <time>2021-05-01T14:07:07Z</time>
      </trkpt>
      <trkpt lat="-35.03457" lon="-58.26508">
        <time>2021-05-01T14:07:08Z</time>
      </trkpt>
      <trkpt lat="-35.0346" lon="-58.265034">
        <time>2021-05-01T14:07:09Z</time>
      </trkpt>
      <trkpt lat="-35.03463" lon="-58.264988">
        <time>2021-05-01T14:07:10Z</time>
      </trkpt>
      <trkpt lat="-35.03466" lon="-58.264946">
        <time>2021-05-01T14:07:11Z</time>
      </trkpt>
      <trkpt lat="-35.034687" lon="-58.2649">
        <time>2021-05-01T14:07:12Z</time>
      </trkpt>
      <trkpt lat="-35.03472" lon="-58.26486">
        <time>2021-05-01T14:07:13Z</time>
      </trkpt>
      <trkpt lat="-35.03475" lon="-58.264812">
        <time>2021-05-01T14:07:14Z</time>
      </trkpt>
      <trkpt lat="-35.034782" lon="-58.264767">
        <time>2021-05-01T14:07:15Z</time>
      </trkpt>
      <trkpt lat="-35.034817" lon="-58.26472">
        <time>2021-05-01T14:07:16Z</time>
      </trkpt>
      <trkpt lat="-35.034847" lon="-58.264683">
        <time>2021-05-01T14:07:17Z</time>
      </trkpt>
      <trkpt lat="-35.034878" lon="-58.264637">
        <time>2021-05-01T14:07:18Z</time>
      </trkpt>
      <trkpt lat="-35.034912" lon="-58.26459">
        <time>2021-05-01T14:07:19Z</time>
      </trkpt>
      <trkpt lat="-35.034946" lon="-58.26455">
        <time>2021-05-01T14:07:20Z</time>
      </trkpt>
      <trkpt lat="-35.034977" lon="-58.264503">
        <time>2021-05-01T14:07:21Z</time>
      </trkpt>
      <trkpt lat="-35.035007" lon="-58.264458">
        <time>2021-05-01T14:07:22Z</time>
      </trkpt>
      <trkpt lat="-35.035038" lon="-58.264416">
        <time>2021-05-01T14:07:23Z</time>
      </trkpt>
      <trkpt lat="-35.035072" lon="-58.264374">
        <time>2021-05-01T14:07:24Z</time>
      </trkpt>
      <trkpt lat="-35.03511" lon="-58.264343">
        <time>2021-05-01T14:07:25Z</time>
      </trkpt>
      <trkpt lat="-35.03515" lon="-58.26431">
        <time>2021-05-01T14:07:26Z</time>
      </trkpt>
      <trkpt lat="-35.035187" lon="-58.264275">
        <time>2021-05-01T14:07:27Z</time>
      </trkpt>
      <trkpt lat="-35.03523" lon="-58.264244">
        <time>2021-05-01T14:07:28Z</time>
      </trkpt>
      <trkpt lat="-35.035275" lon="-58.26422">
        <time>2021-05-01T14:07:29Z</time>
      </trkpt>
      <trkpt lat="-35.035324" lon="-58.264206">
        <time>2021-05-01T14:07:30Z</time>
      </trkpt>
      <trkpt lat="-35.035378" lon="-58.264206">
        <time>2021-05-01T14:07:31Z</time>
      </trkpt>
      <trkpt lat="-35.035427" lon="-58.264217">
        <time>2021-05-01T14:07:32Z</time>
      </trkpt>
      <trkpt lat="-35.035477" lon="-58.264244">
        <time>2021-05-01T14:07:33Z</time>
      </trkpt>
      <trkpt lat="-35.035522" lon="-58.264267">
        <time>2021-05-01T14:07:34Z</time>
      </trkpt>
      <trkpt lat="-35.035564" lon="-58.264305">
        <time>2021-05-01T14:07:35Z</time>
      </trkpt>
      <trkpt lat="-35.035603" lon="-58.26434">
        <time>2021-05-01T14:07:36Z</time>
      </trkpt>
      <trkpt lat="-35.03564" lon="-58.26438">
        <time>2021-05-01T14:07:37Z</time>
      </trkpt>
      <trkpt lat="-35.03568" lon="-58.264423">
        <time>2021-05-01T14:07:38Z</time>
      </trkpt>
      <trkpt lat="-35.035717" lon="-58.264465">
        <time>2021-05-01T14:07:39Z</time>
      </trkpt>
      <trkpt lat="-35.03575" lon="-58.264507">
        <time>2021-05-01T14:07:40Z</time>
      </trkpt>
      <trkpt lat="-35.03579" lon="-58.26455">
        <time>2021-05-01T14:07:41Z</time>
      </trkpt>
      <trkpt lat="-35.035824" lon="-58.26459">
        <time>2021-05-01T14:07:42Z</time>
      </trkpt>
      <trkpt lat="-35.03586" lon="-58.264633">
        <time>2021-05-01T14:07:43Z</time>
      </trkpt>
      <trkpt lat="-35.035896" lon="-58.264675">
        <time>2021-05-01T14:07:44Z</time>
      </trkpt>
      <trkpt lat="-35.035934" lon="-58.264717">
        <time>2021-05-01T14:07:45Z</time>
      </trkpt>
      <trkpt lat="-35.03597" lon="-58.264755">
        <time>2021-05-01T14:07:46Z</time>
      </trkpt>
      <trkpt lat="-35.036007" lon="-58.264793">
        <time>2021-05-01T14:07:47Z</time>
      </trkpt>
      <trkpt lat="-35.036045" lon="-58.26483">
        <time>2021-05-01T14:07:48Z</time>
      </trkpt>
      <trkpt lat="-35.036083" lon="-58.264866">
        <time>2021-05-01T14:07:49Z</time>
      </trkpt>
      <trkpt lat="-35.03612" lon="-58.264904">
        <time>2021-05-01T14:07:50Z</time>
      </trkpt>
      <trkpt lat="-35.03616" lon="-58.264942">
        <time>2021-05-01T14:07:51Z</time>
      </trkpt>
      <trkpt lat="-35.036198" lon="-58.26498">
        <time>2021-05-01T14:07:52Z</time>
      </trkpt>
      <trkpt lat="-35.036232" lon="-58.265022">
        <time>2021-05-01T14:07:53Z</time>
      </trkpt>
      <trkpt lat="-35.03627" lon="-58.26506">
        <time>2021-05-01T14:07:54Z</time>
      </trkpt>
      <trkpt lat="-35.036304" lon="-58.2651">
        <time>2021-05-01T14:07:55Z</time>
      </trkpt>
      <trkpt lat="-35.03634" lon="-58.26514">
        <time>2021-05-01T14:07:56Z</time>
      </trkpt>
      <trkpt lat="-35.036373" lon="-58.265182">
        <time>2021-05-01T14:07:57Z</time>
      </trkpt>
      <trkpt lat="-35.036415" lon="-58.26522">
        <time>2021-05-01T14:07:58Z</time>
      </trkpt>
      <trkpt lat="-35.036453" lon="-58.265263">
        <time>2021-05-01T14:07:59Z</time>
      </trkpt>
      <trkpt lat="-35.03649" lon="-58.265305">
        <time>2021-05-01T14:08:00Z</time>
      </trkpt>
      <trkpt lat="-35.03653" lon="-58.265347">
        <time>2021-05-01T14:08:01Z</time>
      </trkpt>
      <trkpt lat="-35.036564" lon="-58.265385">
        <time>2021-05-01T14:08:02Z</time>
      </trkpt>
      <trkpt lat="-35.036602" lon="-58.265423">
        <time>2021-05-01T14:08:03Z</time>
      </trkpt>
      <trkpt lat="-35.03664" lon="-58.265465">
        <time>2021-05-01T14:08:04Z</time>
      </trkpt>
      <trkpt lat="-35.03668" lon="-58.265507">
        <time>2021-05-01T14:08:05Z</time>
      </trkpt>
      <trkpt lat="-35.036716" lon="-58.265553">
        <time>2021-05-01T14:08:06Z</time>
      </trkpt>
      <trkpt lat="-35.036755" lon="-58.265594">
        <time>2021-05-01T14:08:07Z</time>
      </trkpt>
      <trkpt lat="-35.03679" lon="-58.265636">
        <time>2021-05-01T14:08:08Z</time>
      </trkpt>
      <trkpt lat="-35.036827" lon="-58.26568">
        <time>2021-05-01T14:08:09Z</time>
      </trkpt>
      <trkpt lat="-35.03686" lon="-58.26572">
        <time>2021-05-01T14:08:10Z</time>
      </trkpt>
      <trkpt lat="-35.036896" lon="-58.265766">
        <time>2021-05-01T14:08:11Z</time>
      </trkpt>
      <trkpt lat="-35.03693" lon="-58.265812">
        <time>2021-05-01T14:08:12Z</time>
      </trkpt>
      <trkpt lat="-35.03697" lon="-58.265858">
        <time>2021-05-01T14:08:13Z</time>
      </trkpt>
      <trkpt lat="-35.037006" lon="-58.2659">
        <time>2021-05-01T14:08:14Z</time>
      </trkpt>
      <trkpt lat="-35.037045" lon="-58.26594">
        <time>2021-05-01T14:08:15Z</time>
      </trkpt>
      <trkpt lat="-35.037083" lon="-58.265984">
        <time>2021-05-01T14:08:16Z</time>
      </trkpt>
      <trkpt lat="-35.03712" lon="-58.26603">
        <time>2021-05-01T14:08:17Z</time>
      </trkpt>
      <trkpt lat="-35.03716" lon="-58.26607">
        <time>2021-05-01T14:08:18Z</time>
      </trkpt>
      <trkpt lat="-35.0372" lon="-58.266117">
        <time>2021-05-01T14:08:19Z</time>
      </trkpt>
      <trkpt lat="-35.03724" lon="-58.266163">
        <time>2021-05-01T14:08:20Z</time>
      </trkpt>
      <trkpt lat="-35.03728" lon="-58.266205">
        <time>2021-05-01T14:08:21Z</time>
      </trkpt>
      <trkpt lat="-35.037323" lon="-58.26625">
        <time>2021-05-01T14:08:22Z</time>
      </trkpt>
      <trkpt lat="-35.037365" lon="-58.26629">
        <time>2021-05-01T14:08:23Z</time>
      </trkpt>
      <trkpt lat="-35.037403" lon="-58.266335">
        <time>2021-05-01T14:08:24Z</time>
      </trkpt>
      <trkpt lat="-35.03744" lon="-58.266376">
        <time>2021-05-01T14:08:25Z</time>
      </trkpt>
      <trkpt lat="-35.037483" lon="-58.26642">
        <time>2021-05-01T14:08:26Z</time>
      </trkpt>
      <trkpt lat="-35.037525" lon="-58.266464">
        <time>2021-05-01T14:08:27Z</time>
      </trkpt>
      <trkpt lat="-35.037563" lon="-58.26651">
        <time>2021-05-01T14:08:28Z</time>
      </trkpt>
      <trkpt lat="-35.037605" lon="-58.266556">
        <time>2021-05-01T14:08:29Z</time>
      </trkpt>
      <trkpt lat="-35.037643" lon="-58.2666">
        <time>2021-05-01T14:08:30Z</time>
      </trkpt>
      <trkpt lat="-35.03768" lon="-58.266644">
        <time>2021-05-01T14:08:31Z</time>
      </trkpt>
      <trkpt lat="-35.037724" lon="-58.26669">
        <time>2021-05-01T14:08:32Z</time>
      </trkpt>
      <trkpt lat="-35.037766" lon="-58.266735">
        <time>2021-05-01T14:08:33Z</time>
      </trkpt>
      <trkpt lat="-35.037804" lon="-58.26678">
        <time>2021-05-01T14:08:34Z</time>
      </trkpt>
      <trkpt lat="-35.037846" lon="-58.266827">
        <time>2021-05-01T14:08:35Z</time>
      </trkpt>
      <trkpt lat="-35.037888" lon="-58.26687">
        <time>2021-05-01T14:08:36Z</time>
      </trkpt>
      <trkpt lat="-35.037926" lon="-58.26691">
        <time>2021-05-01T14:08:37Z</time>
      </trkpt>
      <trkpt lat="-35.037964" lon="-58.266953">
        <time>2021-05-01T14:08:38Z</time>
      </trkpt>
      <trkpt lat="-35.038" lon="-58.266994">
        <time>2021-05-01T14:08:39Z</time>
      </trkpt>
      <trkpt lat="-35.038036" lon="-58.267033">
        <time>2021-05-01T14:08:40Z</time>
      </trkpt>
      <trkpt lat="-35.03807" lon="-58.267075">
        <time>2021-05-01T14:08:41Z</time>
      </trkpt>
      <trkpt lat="-35.03811" lon="-58.267117">
        <time>2021-05-01T14:08:42Z</time>
      </trkpt>
      <trkpt lat="-35.038147" lon="-58.26716">
        <time>2021-05-01T14:08:43Z</time>
      </trkpt>
      <trkpt lat="-35.038185" lon="-58.2672">
        <time>2021-05-01T14:08:44Z</time>
      </trkpt>
      <trkpt lat="-35.03822" lon="-58.267242">
        <time>2021-05-01T14:08:45Z</time>
      </trkpt>
      <trkpt lat="-35.038258" lon="-58.267284">
        <time>2021-05-01T14:08:46Z</time>
      </trkpt>
      <trkpt lat="-35.0383" lon="-58.26733">
        <time>2021-05-01T14:08:47Z</time>
      </trkpt>
      <trkpt lat="-35.038338" lon="-58.267376">
        <time>2021-05-01T14:08:48Z</time>
      </trkpt>
      <trkpt lat="-35.038376" lon="-58.267418">
        <time>2021-05-01T14:08:49Z</time>
      </trkpt>
      <trkpt lat="-35.038414" lon="-58.26746">
        <time>2021-05-01T14:08:50Z</time>
      </trkpt>
      <trkpt lat="-35.038452" lon="-58.2675">
        <time>2021-05-01T14:08:51Z</time>
      </trkpt>
      <trkpt lat="-35.03849" lon="-58.26754">
        <time>2021-05-01T14:08:52Z</time>
      </trkpt>
      <trkpt lat="-35.03853" lon="-58.26758">
        <time>2021-05-01T14:08:53Z</time>
      </trkpt>
      <trkpt lat="-35.038563" lon="-58.267612">
        <time>2021-05-01T14:08:54Z</time>
      </trkpt>
      <trkpt lat="-35.038597" lon="-58.26765">
        <time>2021-05-01T14:08:55Z</time>
      </trkpt>
      <trkpt lat="-35.038635" lon="-58.26769">
        <time>2021-05-01T14:08:56Z</time>
      </trkpt>
      <trkpt lat="-35.038677" lon="-58.26773">
        <time>2021-05-01T14:08:57Z</time>
      </trkpt>
      <trkpt lat="-35.038715" lon="-58.267773">
        <time>2021-05-01T14:08:58Z</time>
      </trkpt>
      <trkpt lat="-35.038754" lon="-58.26781">
        <time>2021-05-01T14:08:59Z</time>
      </trkpt>
      <trkpt lat="-35.038788" lon="-58.26785">
        <time>2021-05-01T14:09:00Z</time>
      </trkpt>
      <trkpt lat="-35.038826" lon="-58.26789">
        <time>2021-05-01T14:09:01Z</time>
      </trkpt>
      <trkpt lat="-35.03886" lon="-58.267933">
        <time>2021-05-01T14:09:02Z</time>
      </trkpt>
      <trkpt lat="-35.0389" lon="-58.267975">
        <time>2021-05-01T14:09:03Z</time>
      </trkpt>
      <trkpt lat="-35.038937" lon="-58.268017">
        <time>2021-05-01T14:09:04Z</time>
      </trkpt>
      <trkpt lat="-35.038975" lon="-58.26806">
        <time>2021-05-01T14:09:05Z</time>
      </trkpt>
      <trkpt lat="-35.039013" lon="-58.2681">
        <time>2021-05-01T14:09:06Z</time>
      </trkpt>
      <trkpt lat="-35.03905" lon="-58.268143">
        <time>2021-05-01T14:09:07Z</time>
      </trkpt>
      <trkpt lat="-35.039085" lon="-58.26818">
        <time>2021-05-01T14:09:08Z</time>
      </trkpt>
      <trkpt lat="-35.039124" lon="-58.268223">
        <time>2021-05-01T14:09:09Z</time>
      </trkpt>
      <trkpt lat="-35.039165" lon="-58.268265">
        <time>2021-05-01T14:09:10Z</time>
      </trkpt>
      <trkpt lat="-35.0392" lon="-58.268307">
        <time>2021-05-01T14:09:11Z</time>
      </trkpt>
      <trkpt lat="-35.03924" lon="-58.26835">
        <time>2021-05-01T14:09:12Z</time>
      </trkpt>
      <trkpt lat="-35.03928" lon="-58.268394">
        <time>2021-05-01T14:09:13Z</time>
      </trkpt>
      <trkpt lat="-35.03932" lon="-58.268436">
        <time>2021-05-01T14:09:14Z</time>
      </trkpt>
      <trkpt lat="-35.03936" lon="-58.268482">
        <time>2021-05-01T14:09:15Z</time>
      </trkpt>
      <trkpt lat="-35.0394" lon="-58.268524">
        <time>2021-05-01T14:09:16Z</time>
      </trkpt>
      <trkpt lat="-35.039436" lon="-58.268566">
        <time>2021-05-01T14:09:17Z</time>
      </trkpt>
      <trkpt lat="-35.03947" lon="-58.26861">
        <time>2021-05-01T14:09:18Z</time>
      </trkpt>
      <trkpt lat="-35.03951" lon="-58.26865">
        <time>2021-05-01T14:09:19Z</time>
      </trkpt>
      <trkpt lat="-35.03955" lon="-58.268692">
        <time>2021-05-01T14:09:20Z</time>
      </trkpt>
      <trkpt lat="-35.03959" lon="-58.268738">
        <time>2021-05-01T14:09:21Z</time>
      </trkpt>
      <trkpt lat="-35.03963" lon="-58.26878">
        <time>2021-05-01T14:09:22Z</time>
      </trkpt>
      <trkpt lat="-35.03967" lon="-58.26882">
        <time>2021-05-01T14:09:23Z</time>
      </trkpt>
      <trkpt lat="-35.039707" lon="-58.268864">
        <time>2021-05-01T14:09:24Z</time>
      </trkpt>
      <trkpt lat="-35.039745" lon="-58.268906">
        <time>2021-05-01T14:09:25Z</time>
      </trkpt>
      <trkpt lat="-35.039783" lon="-58.268944">
        <time>2021-05-01T14:09:26Z</time>
      </trkpt>
      <trkpt lat="-35.03982" lon="-58.268982">
        <time>2021-05-01T14:09:27Z</time>
      </trkpt>
      <trkpt lat="-35.03986" lon="-58.269024">
        <time>2021-05-01T14:09:28Z</time>
      </trkpt>
      <trkpt lat="-35.039898" lon="-58.269066">
        <time>2021-05-01T14:09:29Z</time>
      </trkpt>
      <trkpt lat="-35.039936" lon="-58.269108">
        <time>2021-05-01T14:09:30Z</time>
      </trkpt>
      <trkpt lat="-35.039974" lon="-58.269154">
        <time>2021-05-01T14:09:31Z</time>
      </trkpt>
      <trkpt lat="-35.040012" lon="-58.2692">
        <time>2021-05-01T14:09:32Z</time>
      </trkpt>
      <trkpt lat="-35.04005" lon="-58.269245">
        <time>2021-05-01T14:09:33Z</time>
      </trkpt>
      <trkpt lat="-35.040092" lon="-58.26929">
        <time>2021-05-01T14:09:34Z</time>
      </trkpt>
      <trkpt lat="-35.04013" lon="-58.26934">
        <time>2021-05-01T14:09:35Z</time>
      </trkpt>
      <trkpt lat="-35.04017" lon="-58.26939">
        <time>2021-05-01T14:09:36Z</time>
      </trkpt>
      <trkpt lat="-35.040207" lon="-58.269436">
        <time>2021-05-01T14:09:37Z</time>
      </trkpt>
      <trkpt lat="-35.040245" lon="-58.26948">
        <time>2021-05-01T14:09:38Z</time>
      </trkpt>
      <trkpt lat="-35.040283" lon="-58.269527">
        <time>2021-05-01T14:09:39Z</time>
      </trkpt>
      <trkpt lat="-35.04032" lon="-58.26957">
        <time>2021-05-01T14:09:40Z</time>
      </trkpt>
      <trkpt lat="-35.040356" lon="-58.269615">
        <time>2021-05-01T14:09:41Z</time>
      </trkpt>
      <trkpt lat="-35.04039" lon="-58.26966">
        <time>2021-05-01T14:09:42Z</time>
      </trkpt>
      <trkpt lat="-35.04043" lon="-58.2697">
        <time>2021-05-01T14:09:43Z</time>
      </trkpt>
      <trkpt lat="-35.040466" lon="-58.26974">
        <time>2021-05-01T14:09:44Z</time>
      </trkpt>
      <trkpt lat="-35.040504" lon="-58.269783">
        <time>2021-05-01T14:09:45Z</time>
      </trkpt>
      <trkpt lat="-35.04054" lon="-58.26983">
        <time>2021-05-01T14:09:46Z</time>
      </trkpt>
      <trkpt lat="-35.040577" lon="-58.269867">
        <time>2021-05-01T14:09:47Z</time>
      </trkpt>
      <trkpt lat="-35.04061" lon="-58.26991">
        <time>2021-05-01T14:09:48Z</time>
      </trkpt>
      <trkpt lat="-35.04065" lon="-58.26995">
        <time>2021-05-01T14:09:49Z</time>
      </trkpt>
      <trkpt lat="-35.040684" lon="-58.269993">
        <time>2021-05-01T14:09:50Z</time>
      </trkpt>
      <trkpt lat="-35.04072" lon="-58.270035">
        <time>2021-05-01T14:09:51Z</time>
      </trkpt>
      <trkpt lat="-35.040764" lon="-58.27008">
        <time>2021-05-01T14:09:52Z</time>
      </trkpt>
      <trkpt lat="-35.040802" lon="-58.270123">
        <time>2021-05-01T14:09:53Z</time>
      </trkpt>
      <trkpt lat="-35.04084" lon="-58.27017">
        <time>2021-05-01T14:09:54Z</time>
      </trkpt>
      <trkpt lat="-35.04088" lon="-58.27021">
        <time>2021-05-01T14:09:55Z</time>
      </trkpt>
      <trkpt lat="-35.040916" lon="-58.270252">
        <time>2021-05-01T14:09:56Z</time>
      </trkpt>
      <trkpt lat="-35.040955" lon="-58.27029">
        <time>2021-05-01T14:09:57Z</time>
      </trkpt>
      <trkpt lat="-35.04099" lon="-58.270332">
        <time>2021-05-01T14:09:58Z</time>
      </trkpt>
      <trkpt lat="-35.041023" lon="-58.27038">
        <time>2021-05-01T14:09:59Z</time>
      </trkpt>
      <trkpt lat="-35.04106" lon="-58.27042">
        <time>2021-05-01T14:10:00Z</time>
      </trkpt>
      <trkpt lat="-35.0411" lon="-58.270462">
        <time>2021-05-01T14:10:01Z</time>
      </trkpt>
      <trkpt lat="-35.041138" lon="-58.270504">
        <time>2021-05-01T14:10:02Z</time>
      </trkpt>
      <trkpt lat="-35.04118" lon="-58.270546">
        <time>2021-05-01T14:10:03Z</time>
      </trkpt>
      <trkpt lat="-35.041214" lon="-58.270588">
        <time>2021-05-01T14:10:04Z</time>
      </trkpt>
      <trkpt lat="-35.041252" lon="-58.270634">
        <time>2021-05-01T14:10:05Z</time>
      </trkpt>
      <trkpt lat="-35.04129" lon="-58.270676">
        <time>2021-05-01T14:10:06Z</time>
      </trkpt>
      <trkpt lat="-35.04133" lon="-58.270718">
        <time>2021-05-01T14:10:07Z</time>
      </trkpt>
      <trkpt lat="-35.041363" lon="-58.27076">
        <time>2021-05-01T14:10:08Z</time>
      </trkpt>
      <trkpt lat="-35.041397" lon="-58.270798">
        <time>2021-05-01T14:10:09Z</time>
      </trkpt>
      <trkpt lat="-35.041435" lon="-58.270836">
        <time>2021-05-01T14:10:10Z</time>
      </trkpt>
      <trkpt lat="-35.04147" lon="-58.27088">
        <time>2021-05-01T14:10:11Z</time>
      </trkpt>
      <trkpt lat="-35.041508" lon="-58.270924">
        <time>2021-05-01T14:10:12Z</time>
      </trkpt>
      <trkpt lat="-35.041546" lon="-58.270966">
        <time>2021-05-01T14:10:13Z</time>
      </trkpt>
      <trkpt lat="-35.04158" lon="-58.27101">
        <time>2021-05-01T14:10:14Z</time>
      </trkpt>
      <trkpt lat="-35.04162" lon="-58.27105">
        <time>2021-05-01T14:10:15Z</time>
      </trkpt>
      <trkpt lat="-35.041656" lon="-58.27109">
        <time>2021-05-01T14:10:16Z</time>
      </trkpt>
      <trkpt lat="-35.04169" lon="-58.271137">
        <time>2021-05-01T14:10:17Z</time>
      </trkpt>
      <trkpt lat="-35.04173" lon="-58.27118">
        <time>2021-05-01T14:10:18Z</time>
      </trkpt>
      <trkpt lat="-35.041767" lon="-58.271217">
        <time>2021-05-01T14:10:19Z</time>
      </trkpt>
      <trkpt lat="-35.0418" lon="-58.271255">
        <time>2021-05-01T14:10:20Z</time>
      </trkpt>
      <trkpt lat="-35.04184" lon="-58.271297">
        <time>2021-05-01T14:10:21Z</time>
      </trkpt>
      <trkpt lat="-35.041874" lon="-58.27134">
        <time>2021-05-01T14:10:22Z</time>
      </trkpt>
      <trkpt lat="-35.041912" lon="-58.27138">
        <time>2021-05-01T14:10:23Z</time>
      </trkpt>
      <trkpt lat="-35.04195" lon="-58.271423">
        <time>2021-05-01T14:10:24Z</time>
      </trkpt>
      <trkpt lat="-35.041985" lon="-58.271465">
        <time>2021-05-01T14:10:25Z</time>
      </trkpt>
      <trkpt lat="-35.04202" lon="-58.271503">
        <time>2021-05-01T14:10:26Z</time>
      </trkpt>
      <trkpt lat="-35.042057" lon="-58.27154">
        <time>2021-05-01T14:10:27Z</time>
      </trkpt>
      <trkpt lat="-35.04209" lon="-58.271584">
        <time>2021-05-01T14:10:28Z</time>
      </trkpt>
      <trkpt lat="-35.04213" lon="-58.27162">
        <time>2021-05-01T14:10:29Z</time>
      </trkpt>
      <trkpt lat="-35.042164" lon="-58.27166">
        <time>2021-05-01T14:10:30Z</time>
      </trkpt>
      <trkpt lat="-35.042202" lon="-58.2717">
        <time>2021-05-01T14:10:31Z</time>
      </trkpt>
      <trkpt lat="-35.042236" lon="-58.271744">
        <time>2021-05-01T14:10:32Z</time>
      </trkpt>
      <trkpt lat="-35.042274" lon="-58.271786">
        <time>2021-05-01T14:10:33Z</time>
      </trkpt>
      <trkpt lat="-35.042313" lon="-58.271824">
        <time>2021-05-01T14:10:34Z</time>
      </trkpt>
      <trkpt lat="-35.04235" lon="-58.271866">
        <time>2021-05-01T14:10:35Z</time>
      </trkpt>
      <trkpt lat="-35.042385" lon="-58.271908">
        <time>2021-05-01T14:10:36Z</time>
      </trkpt>
      <trkpt lat="-35.042423" lon="-58.27195">
        <time>2021-05-01T14:10:37Z</time>
      </trkpt>
      <trkpt lat="-35.042458" lon="-58.271988">
        <time>2021-05-01T14:10:38Z</time>
      </trkpt>
      <trkpt lat="-35.042496" lon="-58.27203">
        <time>2021-05-01T14:10:39Z</time>
      </trkpt>
      <trkpt lat="-35.04253" lon="-58.272068">
        <time>2021-05-01T14:10:40Z</time>
      </trkpt>
      <trkpt lat="-35.04257" lon="-58.272106">
        <time>2021-05-01T14:10:41Z</time>
      </trkpt>
      <trkpt lat="-35.042603" lon="-58.272144">
        <time>2021-05-01T14:10:42Z</time>
      </trkpt>
      <trkpt lat="-35.04264" lon="-58.27219">
        <time>2021-05-01T14:10:43Z</time>
      </trkpt>
      <trkpt lat="-35.04268" lon="-58.272236">
        <time>2021-05-01T14:10:44Z</time>
      </trkpt>
      <trkpt lat="-35.042713" lon="-58.272278">
        <time>2021-05-01T14:10:45Z</time>
      </trkpt>
      <trkpt lat="-35.04275" lon="-58.272316">
        <time>2021-05-01T14:10:46Z</time>
      </trkpt>
      <trkpt lat="-35.042786" lon="-58.272358">
        <time>2021-05-01T14:10:47Z</time>
      </trkpt>
      <trkpt lat="-35.042824" lon="-58.2724">
        <time>2021-05-01T14:10:48Z</time>
      </trkpt>
      <trkpt lat="-35.042862" lon="-58.27244">
        <time>2021-05-01T14:10:49Z</time>
      </trkpt>
      <trkpt lat="-35.0429" lon="-58.27248">
        <time>2021-05-01T14:10:50Z</time>
      </trkpt>
      <trkpt lat="-35.04294" lon="-58.272522">
        <time>2021-05-01T14:10:51Z</time>
      </trkpt>
      <trkpt lat="-35.042976" lon="-58.27256">
        <time>2021-05-01T14:10:52Z</time>
      </trkpt>
      <trkpt lat="-35.04301" lon="-58.272602">
        <time>2021-05-01T14:10:53Z</time>
      </trkpt>
      <trkpt lat="-35.043053" lon="-58.272644">
        <time>2021-05-01T14:10:54Z</time>
      </trkpt>
      <trkpt lat="-35.043087" lon="-58.272682">
        <time>2021-05-01T14:10:55Z</time>
      </trkpt>
      <trkpt lat="-35.043125" lon="-58.272724">
        <time>2021-05-01T14:10:56Z</time>
      </trkpt>
      <trkpt lat="-35.04316" lon="-58.272766">
        <time>2021-05-01T14:10:57Z</time>
      </trkpt>
      <trkpt lat="-35.043198" lon="-58.27281">
        <time>2021-05-01T14:10:58Z</time>
      </trkpt>
      <trkpt lat="-35.043232" lon="-58.272854">
        <time>2021-05-01T14:10:59Z</time>
      </trkpt>
      <trkpt lat="-35.043274" lon="-58.272896">
        <time>2021-05-01T14:11:00Z</time>
      </trkpt>
      <trkpt lat="-35.043312" lon="-58.27294">
        <time>2021-05-01T14:11:01Z</time>
      </trkpt>
      <trkpt lat="-35.04335" lon="-58.272984">
        <time>2021-05-01T14:11:02Z</time>
      </trkpt>
      <trkpt lat="-35.04339" lon="-58.273026">
        <time>2021-05-01T14:11:03Z</time>
      </trkpt>
      <trkpt lat="-35.043427" lon="-58.27307">
        <time>2021-05-01T14:11:04Z</time>
      </trkpt>
      <trkpt lat="-35.04346" lon="-58.27311">
        <time>2021-05-01T14:11:05Z</time>
      </trkpt>
      <trkpt lat="-35.0435" lon="-58.273148">
        <time>2021-05-01T14:11:06Z</time>
      </trkpt>
      <trkpt lat="-35.043537" lon="-58.27319">
        <time>2021-05-01T14:11:07Z</time>
      </trkpt>
      <trkpt lat="-35.04357" lon="-58.273235">
        <time>2021-05-01T14:11:08Z</time>
      </trkpt>
      <trkpt lat="-35.04361" lon="-58.273277">
        <time>2021-05-01T14:11:09Z</time>
      </trkpt>
      <trkpt lat="-35.043648" lon="-58.273323">
        <time>2021-05-01T14:11:10Z</time>
      </trkpt>
      <trkpt lat="-35.043686" lon="-58.273365">
        <time>2021-05-01T14:11:11Z</time>
      </trkpt>
      <trkpt lat="-35.043724" lon="-58.273407">
        <time>2021-05-01T14:11:12Z</time>
      </trkpt>
      <trkpt lat="-35.043762" lon="-58.27345">
        <time>2021-05-01T14:11:13Z</time>
      </trkpt>
      <trkpt lat="-35.043797" lon="-58.27349">
        <time>2021-05-01T14:11:14Z</time>
      </trkpt>
      <trkpt lat="-35.04383" lon="-58.273533">
        <time>2021-05-01T14:11:15Z</time>
      </trkpt>
      <trkpt lat="-35.04387" lon="-58.27357">
        <time>2021-05-01T14:11:16Z</time>
      </trkpt>
      <trkpt lat="-35.043907" lon="-58.273613">
        <time>2021-05-01T14:11:17Z</time>
      </trkpt>
      <trkpt lat="-35.043945" lon="-58.273655">
        <time>2021-05-01T14:11:18Z</time>
      </trkpt>
      <trkpt lat="-35.043983" lon="-58.2737">
        <time>2021-05-01T14:11:19Z</time>
      </trkpt>
      <trkpt lat="-35.04402" lon="-58.273743">
        <time>2021-05-01T14:11:20Z</time>
      </trkpt>
      <trkpt lat="-35.04406" lon="-58.27379">
        <time>2021-05-01T14:11:21Z</time>
      </trkpt>
      <trkpt lat="-35.044098" lon="-58.27383">
        <time>2021-05-01T14:11:22Z</time>
      </trkpt>
      <trkpt lat="-35.044136" lon="-58.27387">
        <time>2021-05-01T14:11:23Z</time>
      </trkpt>
      <trkpt lat="-35.044174" lon="-58.27391">
        <time>2021-05-01T14:11:24Z</time>
      </trkpt>
      <trkpt lat="-35.044212" lon="-58.273952">
        <time>2021-05-01T14:11:25Z</time>
      </trkpt>
      <trkpt lat="-35.044247" lon="-58.273994">
        <time>2021-05-01T14:11:26Z</time>
      </trkpt>
      <trkpt lat="-35.044285" lon="-58.274033">
        <time>2021-05-01T14:11:27Z</time>
      </trkpt>
      <trkpt lat="-35.044323" lon="-58.27408">
        <time>2021-05-01T14:11:28Z</time>
      </trkpt>
      <trkpt lat="-35.04436" lon="-58.27412">
        <time>2021-05-01T14:11:29Z</time>
      </trkpt>
      <trkpt lat="-35.0444" lon="-58.274162">
        <time>2021-05-01T14:11:30Z</time>
      </trkpt>
      <trkpt lat="-35.04444" lon="-58.274208">
        <time>2021-05-01T14:11:31Z</time>
      </trkpt>
      <trkpt lat="-35.04448" lon="-58.27425">
        <time>2021-05-01T14:11:32Z</time>
      </trkpt>
      <trkpt lat="-35.044518" lon="-58.274292">
        <time>2021-05-01T14:11:33Z</time>
      </trkpt>
      <trkpt lat="-35.04455" lon="-58.274334">
        <time>2021-05-01T14:11:34Z</time>
      </trkpt>
      <trkpt lat="-35.04459" lon="-58.274376">
        <time>2021-05-01T14:11:35Z</time>
      </trkpt>
      <trkpt lat="-35.04463" lon="-58.274418">
        <time>2021-05-01T14:11:36Z</time>
      </trkpt>
      <trkpt lat="-35.044666" lon="-58.274464">
        <time>2021-05-01T14:11:37Z</time>
      </trkpt>
      <trkpt lat="-35.044704" lon="-58.274506">
        <time>2021-05-01T14:11:38Z</time>
      </trkpt>
      <trkpt lat="-35.044743" lon="-58.27455">
        <time>2021-05-01T14:11:39Z</time>
      </trkpt>
      <trkpt lat="-35.04478" lon="-58.274597">
        <time>2021-05-01T14:11:40Z</time>
      </trkpt>
      <trkpt lat="-35.04482" lon="-58.274643">
        <time>2021-05-01T14:11:41Z</time>
      </trkpt>
      <trkpt lat="-35.04486" lon="-58.274685">
        <time>2021-05-01T14:11:42Z</time>
      </trkpt>
      <trkpt lat="-35.0449" lon="-58.27473">
        <time>2021-05-01T14:11:43Z</time>
      </trkpt>
      <trkpt lat="-35.04494" lon="-58.274776">
        <time>2021-05-01T14:11:44Z</time>
      </trkpt>
      <trkpt lat="-35.04498" lon="-58.274822">
        <time>2021-05-01T14:11:45Z</time>
      </trkpt>
      <trkpt lat="-35.045017" lon="-58.274868">
        <time>2021-05-01T14:11:46Z</time>
      </trkpt>
      <trkpt lat="-35.045055" lon="-58.27491">
        <time>2021-05-01T14:11:47Z</time>
      </trkpt>
      <trkpt lat="-35.045097" lon="-58.27495">
        <time>2021-05-01T14:11:48Z</time>
      </trkpt>
      <trkpt lat="-35.045135" lon="-58.27499">
        <time>2021-05-01T14:11:49Z</time>
      </trkpt>
      <trkpt lat="-35.045174" lon="-58.275036">
        <time>2021-05-01T14:11:50Z</time>
      </trkpt>
      <trkpt lat="-35.04521" lon="-58.275078">
        <time>2021-05-01T14:11:51Z</time>
      </trkpt>
      <trkpt lat="-35.045254" lon="-58.27512">
        <time>2021-05-01T14:11:52Z</time>
      </trkpt>
      <trkpt lat="-35.045296" lon="-58.275158">
        <time>2021-05-01T14:11:53Z</time>
      </trkpt>
      <trkpt lat="-35.045334" lon="-58.2752">
        <time>2021-05-01T14:11:54Z</time>
      </trkpt>
      <trkpt lat="-35.045376" lon="-58.275246">
        <time>2021-05-01T14:11:55Z</time>
      </trkpt>
      <trkpt lat="-35.045414" lon="-58.27529">
        <time>2021-05-01T14:11:56Z</time>
      </trkpt>
      <trkpt lat="-35.045452" lon="-58.275333">
        <time>2021-05-01T14:11:57Z</time>
      </trkpt>
      <trkpt lat="-35.045494" lon="-58.275368">
        <time>2021-05-01T14:11:58Z</time>
      </trkpt>
      <trkpt lat="-35.045532" lon="-58.27541">
        <time>2021-05-01T14:11:59Z</time>
      </trkpt>
      <trkpt lat="-35.04557" lon="-58.275463">
        <time>2021-05-01T14:12:00Z</time>
      </trkpt>
      <trkpt lat="-35.045612" lon="-58.275505">
        <time>2021-05-01T14:12:01Z</time>
      </trkpt>
      <trkpt lat="-35.04565" lon="-58.27555">
        <time>2021-05-01T14:12:02Z</time>
      </trkpt>
      <trkpt lat="-35.045692" lon="-58.275597">
        <time>2021-05-01T14:12:03Z</time>
      </trkpt>
      <trkpt lat="-35.04573" lon="-58.275642">
        <time>2021-05-01T14:12:04Z</time>
      </trkpt>
      <trkpt lat="-35.04577" lon="-58.27569">
        <time>2021-05-01T14:12:05Z</time>
      </trkpt>
      <trkpt lat="-35.045807" lon="-58.27573">
        <time>2021-05-01T14:12:06Z</time>
      </trkpt>
      <trkpt lat="-35.045845" lon="-58.275772">
        <time>2021-05-01T14:12:07Z</time>
      </trkpt>
      <trkpt lat="-35.045887" lon="-58.27581">
        <time>2021-05-01T14:12:08Z</time>
      </trkpt>
      <trkpt lat="-35.04593" lon="-58.275852">
        <time>2021-05-01T14:12:09Z</time>
      </trkpt>
      <trkpt lat="-35.045967" lon="-58.275898">
        <time>2021-05-01T14:12:10Z</time>
      </trkpt>
      <trkpt lat="-35.04601" lon="-58.275944">
        <time>2021-05-01T14:12:11Z</time>
      </trkpt>
      <trkpt lat="-35.046047" lon="-58.27598">
        <time>2021-05-01T14:12:12Z</time>
      </trkpt>
      <trkpt lat="-35.04609" lon="-58.27602">
        <time>2021-05-01T14:12:13Z</time>
      </trkpt>
      <trkpt lat="-35.046127" lon="-58.27606">
        <time>2021-05-01T14:12:14Z</time>
      </trkpt>
      <trkpt lat="-35.04617" lon="-58.276096">
        <time>2021-05-01T14:12:15Z</time>
      </trkpt>
      <trkpt lat="-35.04621" lon="-58.27614">
        <time>2021-05-01T14:12:16Z</time>
      </trkpt>
      <trkpt lat="-35.046253" lon="-58.276176">
        <time>2021-05-01T14:12:17Z</time>
      </trkpt>
      <trkpt lat="-35.04629" lon="-58.27622">
        <time>2021-05-01T14:12:18Z</time>
      </trkpt>
      <trkpt lat="-35.04633" lon="-58.276253">
        <time>2021-05-01T14:12:19Z</time>
      </trkpt>
      <trkpt lat="-35.046368" lon="-58.276295">
        <time>2021-05-01T14:12:20Z</time>
      </trkpt>
      <trkpt lat="-35.046406" lon="-58.276337">
        <time>2021-05-01T14:12:21Z</time>
      </trkpt>
      <trkpt lat="-35.046448" lon="-58.27638">
        <time>2021-05-01T14:12:22Z</time>
      </trkpt>
      <trkpt lat="-35.046486" lon="-58.276424">
        <time>2021-05-01T14:12:23Z</time>
      </trkpt>
      <trkpt lat="-35.046524" lon="-58.276463">
        <time>2021-05-01T14:12:24Z</time>
      </trkpt>
      <trkpt lat="-35.046562" lon="-58.276505">
        <time>2021-05-01T14:12:25Z</time>
      </trkpt>
      <trkpt lat="-35.046597" lon="-58.276546">
        <time>2021-05-01T14:12:26Z</time>
      </trkpt>
      <trkpt lat="-35.046635" lon="-58.276592">
        <time>2021-05-01T14:12:27Z</time>
      </trkpt>
      <trkpt lat="-35.04667" lon="-58.276634">
        <time>2021-05-01T14:12:28Z</time>
      </trkpt>
      <trkpt lat="-35.046703" lon="-58.276672">
        <time>2021-05-01T14:12:29Z</time>
      </trkpt>
      <trkpt lat="-35.046738" lon="-58.276714">
        <time>2021-05-01T14:12:30Z</time>
      </trkpt>
      <trkpt lat="-35.046772" lon="-58.276756">
        <time>2021-05-01T14:12:31Z</time>
      </trkpt>
      <trkpt lat="-35.046803" lon="-58.276802">
        <time>2021-05-01T14:12:32Z</time>
      </trkpt>
      <trkpt lat="-35.04684" lon="-58.276844">
        <time>2021-05-01T14:12:33Z</time>
      </trkpt>
      <trkpt lat="-35.046875" lon="-58.276882">
        <time>2021-05-01T14:12:34Z</time>
      </trkpt>
      <trkpt lat="-35.046944" lon="-58.276947">
        <time>2021-05-01T14:12:36Z</time>
      </trkpt>
      <trkpt lat="-35.04698" lon="-58.27698">
        <time>2021-05-01T14:12:37Z</time>
      </trkpt>
      <trkpt lat="-35.047016" lon="-58.27702">
        <time>2021-05-01T14:12:38Z</time>
      </trkpt>
      <trkpt lat="-35.047054" lon="-58.27706">
        <time>2021-05-01T14:12:39Z</time>
      </trkpt>
      <trkpt lat="-35.047092" lon="-58.2771">
        <time>2021-05-01T14:12:40Z</time>
      </trkpt>
      <trkpt lat="-35.04713" lon="-58.27714">
        <time>2021-05-01T14:12:41Z</time>
      </trkpt>
      <trkpt lat="-35.04717" lon="-58.277184">
        <time>2021-05-01T14:12:42Z</time>
      </trkpt>
      <trkpt lat="-35.047207" lon="-58.27722">
        <time>2021-05-01T14:12:43Z</time>
      </trkpt>
      <trkpt lat="-35.047245" lon="-58.277264">
        <time>2021-05-01T14:12:44Z</time>
      </trkpt>
      <trkpt lat="-35.04728" lon="-58.2773">
        <time>2021-05-01T14:12:45Z</time>
      </trkpt>
      <trkpt lat="-35.047318" lon="-58.277344">
        <time>2021-05-01T14:12:46Z</time>
      </trkpt>
      <trkpt lat="-35.04735" lon="-58.27738">
        <time>2021-05-01T14:12:47Z</time>
      </trkpt>
      <trkpt lat="-35.047386" lon="-58.277424">
        <time>2021-05-01T14:12:48Z</time>
      </trkpt>
      <trkpt lat="-35.04742" lon="-58.277466">
        <time>2021-05-01T14:12:49Z</time>
      </trkpt>
      <trkpt lat="-35.047455" lon="-58.27751">
        <time>2021-05-01T14:12:50Z</time>
      </trkpt>
      <trkpt lat="-35.04749" lon="-58.277554">
        <time>2021-05-01T14:12:51Z</time>
      </trkpt>
      <trkpt lat="-35.047527" lon="-58.277596">
        <time>2021-05-01T14:12:52Z</time>
      </trkpt>
      <trkpt lat="-35.047558" lon="-58.277637">
        <time>2021-05-01T14:12:53Z</time>
      </trkpt>
      <trkpt lat="-35.0476" lon="-58.277676">
        <time>2021-05-01T14:12:54Z</time>
      </trkpt>
      <trkpt lat="-35.047638" lon="-58.277714">
        <time>2021-05-01T14:12:55Z</time>
      </trkpt>
      <trkpt lat="-35.047676" lon="-58.277756">
        <time>2021-05-01T14:12:56Z</time>
      </trkpt>
      <trkpt lat="-35.047714" lon="-58.277794">
        <time>2021-05-01T14:12:57Z</time>
      </trkpt>
      <trkpt lat="-35.047752" lon="-58.277832">
        <time>2021-05-01T14:12:58Z</time>
      </trkpt>
      <trkpt lat="-35.047787" lon="-58.277874">
        <time>2021-05-01T14:12:59Z</time>
      </trkpt>
      <trkpt lat="-35.04782" lon="-58.27792">
        <time>2021-05-01T14:13:00Z</time>
      </trkpt>
      <trkpt lat="-35.047855" lon="-58.27796">
        <time>2021-05-01T14:13:01Z</time>
      </trkpt>
      <trkpt lat="-35.047894" lon="-58.278004">
        <time>2021-05-01T14:13:02Z</time>
      </trkpt>
      <trkpt lat="-35.04793" lon="-58.27804">
        <time>2021-05-01T14:13:03Z</time>
      </trkpt>
      <trkpt lat="-35.04797" lon="-58.27808">
        <time>2021-05-01T14:13:04Z</time>
      </trkpt>
      <trkpt lat="-35.048008" lon="-58.27812">
        <time>2021-05-01T14:13:05Z</time>
      </trkpt>
      <trkpt lat="-35.048042" lon="-58.278152">
        <time>2021-05-01T14:13:06Z</time>
      </trkpt>
      <trkpt lat="-35.04811" lon="-58.27823">
        <time>2021-05-01T14:13:07Z</time>
      </trkpt>
      <trkpt lat="-35.04814" lon="-58.27827">
        <time>2021-05-01T14:13:08Z</time>
      </trkpt>
      <trkpt lat="-35.048176" lon="-58.278313">
        <time>2021-05-01T14:13:09Z</time>
      </trkpt>
      <trkpt lat="-35.04821" lon="-58.27836">
        <time>2021-05-01T14:13:10Z</time>
      </trkpt>
      <trkpt lat="-35.048244" lon="-58.278404">
        <time>2021-05-01T14:13:11Z</time>
      </trkpt>
      <trkpt lat="-35.04828" lon="-58.278442">
        <time>2021-05-01T14:13:12Z</time>
      </trkpt>
      <trkpt lat="-35.048313" lon="-58.27848">
        <time>2021-05-01T14:13:13Z</time>
      </trkpt>
      <trkpt lat="-35.048347" lon="-58.27852">
        <time>2021-05-01T14:13:14Z</time>
      </trkpt>
      <trkpt lat="-35.048386" lon="-58.278557">
        <time>2021-05-01T14:13:15Z</time>
      </trkpt>
      <trkpt lat="-35.04842" lon="-58.2786">
        <time>2021-05-01T14:13:16Z</time>
      </trkpt>
      <trkpt lat="-35.048454" lon="-58.278637">
        <time>2021-05-01T14:13:17Z</time>
      </trkpt>
      <trkpt lat="-35.04849" lon="-58.27868">
        <time>2021-05-01T14:13:18Z</time>
      </trkpt>
      <trkpt lat="-35.048523" lon="-58.27872">
        <time>2021-05-01T14:13:19Z</time>
      </trkpt>
      <trkpt lat="-35.04856" lon="-58.27876">
        <time>2021-05-01T14:13:20Z</time>
      </trkpt>
      <trkpt lat="-35.048595" lon="-58.278797">
        <time>2021-05-01T14:13:21Z</time>
      </trkpt>
      <trkpt lat="-35.04863" lon="-58.27884">
        <time>2021-05-01T14:13:22Z</time>
      </trkpt>
      <trkpt lat="-35.048664" lon="-58.278877">
        <time>2021-05-01T14:13:23Z</time>
      </trkpt>
      <trkpt lat="-35.0487" lon="-58.27892">
        <time>2021-05-01T14:13:24Z</time>
      </trkpt>
      <trkpt lat="-35.048737" lon="-58.27896">
        <time>2021-05-01T14:13:25Z</time>
      </trkpt>
      <trkpt lat="-35.04877" lon="-58.279003">
        <time>2021-05-01T14:13:26Z</time>
      </trkpt>
      <trkpt lat="-35.04881" lon="-58.27904">
        <time>2021-05-01T14:13:27Z</time>
      </trkpt>
      <trkpt lat="-35.048847" lon="-58.279083">
        <time>2021-05-01T14:13:28Z</time>
      </trkpt>
      <trkpt lat="-35.04888" lon="-58.27912">
        <time>2021-05-01T14:13:29Z</time>
      </trkpt>
      <trkpt lat="-35.048916" lon="-58.279163">
        <time>2021-05-01T14:13:30Z</time>
      </trkpt>
      <trkpt lat="-35.048954" lon="-58.279205">
        <time>2021-05-01T14:13:31Z</time>
      </trkpt>
      <trkpt lat="-35.04899" lon="-58.279243">
        <time>2021-05-01T14:13:32Z</time>
      </trkpt>
      <trkpt lat="-35.049023" lon="-58.279285">
        <time>2021-05-01T14:13:33Z</time>
      </trkpt>
      <trkpt lat="-35.04906" lon="-58.279327">
        <time>2021-05-01T14:13:34Z</time>
      </trkpt>
      <trkpt lat="-35.0491" lon="-58.27937">
        <time>2021-05-01T14:13:35Z</time>
      </trkpt>
      <trkpt lat="-35.049133" lon="-58.27941">
        <time>2021-05-01T14:13:36Z</time>
      </trkpt>
      <trkpt lat="-35.04917" lon="-58.27945">
        <time>2021-05-01T14:13:37Z</time>
      </trkpt>
      <trkpt lat="-35.049206" lon="-58.279488">
        <time>2021-05-01T14:13:38Z</time>
      </trkpt>
      <trkpt lat="-35.04924" lon="-58.27953">
        <time>2021-05-01T14:13:39Z</time>
      </trkpt>
      <trkpt lat="-35.04928" lon="-58.279568">
        <time>2021-05-01T14:13:40Z</time>
      </trkpt>
      <trkpt lat="-35.049316" lon="-58.279606">
        <time>2021-05-01T14:13:41Z</time>
      </trkpt>
      <trkpt lat="-35.049385" lon="-58.279675">
        <time>2021-05-01T14:13:43Z</time>
      </trkpt>
      <trkpt lat="-35.049416" lon="-58.279713">
        <time>2021-05-01T14:13:44Z</time>
      </trkpt>
      <trkpt lat="-35.049454" lon="-58.279747">
        <time>2021-05-01T14:13:45Z</time>
      </trkpt>
      <trkpt lat="-35.049488" lon="-58.27979">
        <time>2021-05-01T14:13:46Z</time>
      </trkpt>
      <trkpt lat="-35.049526" lon="-58.279823">
        <time>2021-05-01T14:13:47Z</time>
      </trkpt>
      <trkpt lat="-35.04956" lon="-58.279865">
        <time>2021-05-01T14:13:48Z</time>
      </trkpt>
      <trkpt lat="-35.049595" lon="-58.279907">
        <time>2021-05-01T14:13:49Z</time>
      </trkpt>
      <trkpt lat="-35.049633" lon="-58.27995">
        <time>2021-05-01T14:13:50Z</time>
      </trkpt>
      <trkpt lat="-35.049667" lon="-58.27999">
        <time>2021-05-01T14:13:51Z</time>
      </trkpt>
      <trkpt lat="-35.049706" lon="-58.280033">
        <time>2021-05-01T14:13:52Z</time>
      </trkpt>
      <trkpt lat="-35.049744" lon="-58.280075">
        <time>2021-05-01T14:13:53Z</time>
      </trkpt>
      <trkpt lat="-35.04978" lon="-58.280117">
        <time>2021-05-01T14:13:54Z</time>
      </trkpt>
      <trkpt lat="-35.049816" lon="-58.280155">
        <time>2021-05-01T14:13:55Z</time>
      </trkpt>
      <trkpt lat="-35.049854" lon="-58.280193">
        <time>2021-05-01T14:13:56Z</time>
      </trkpt>
      <trkpt lat="-35.049896" lon="-58.280235">
        <time>2021-05-01T14:13:57Z</time>
      </trkpt>
      <trkpt lat="-35.049934" lon="-58.280277">
        <time>2021-05-01T14:13:58Z</time>
      </trkpt>
      <trkpt lat="-35.049973" lon="-58.28032">
        <time>2021-05-01T14:13:59Z</time>
      </trkpt>
      <trkpt lat="-35.05001" lon="-58.280365">
        <time>2021-05-01T14:14:00Z</time>
      </trkpt>
      <trkpt lat="-35.05005" lon="-58.280407">
        <time>2021-05-01T14:14:01Z</time>
      </trkpt>
      <trkpt lat="-35.050087" lon="-58.280445">
        <time>2021-05-01T14:14:02Z</time>
      </trkpt>
      <trkpt lat="-35.050125" lon="-58.280487">
        <time>2021-05-01T14:14:03Z</time>
      </trkpt>
      <trkpt lat="-35.050163" lon="-58.280533">
        <time>2021-05-01T14:14:04Z</time>
      </trkpt>
      <trkpt lat="-35.0502" lon="-58.280575">
        <time>2021-05-01T14:14:05Z</time>
      </trkpt>
      <trkpt lat="-35.05024" lon="-58.280617">
        <time>2021-05-01T14:14:06Z</time>
      </trkpt>
      <trkpt lat="-35.050278" lon="-58.28066">
        <time>2021-05-01T14:14:07Z</time>
      </trkpt>
      <trkpt lat="-35.050312" lon="-58.2807">
        <time>2021-05-01T14:14:08Z</time>
      </trkpt>
      <trkpt lat="-35.050354" lon="-58.280746">
        <time>2021-05-01T14:14:09Z</time>
      </trkpt>
      <trkpt lat="-35.050392" lon="-58.280792">
        <time>2021-05-01T14:14:10Z</time>
      </trkpt>
      <trkpt lat="-35.05043" lon="-58.280834">
        <time>2021-05-01T14:14:11Z</time>
      </trkpt>
      <trkpt lat="-35.05047" lon="-58.280876">
        <time>2021-05-01T14:14:12Z</time>
      </trkpt>
      <trkpt lat="-35.050507" lon="-58.28092">
        <time>2021-05-01T14:14:13Z</time>
      </trkpt>
      <trkpt lat="-35.050545" lon="-58.28096">
        <time>2021-05-01T14:14:14Z</time>
      </trkpt>
      <trkpt lat="-35.050583" lon="-58.281002">
        <time>2021-05-01T14:14:15Z</time>
      </trkpt>
      <trkpt lat="-35.05062" lon="-58.281048">
        <time>2021-05-01T14:14:16Z</time>
      </trkpt>
      <trkpt lat="-35.050663" lon="-58.281094">
        <time>2021-05-01T14:14:17Z</time>
      </trkpt>
      <trkpt lat="-35.050705" lon="-58.28114">
        <time>2021-05-01T14:14:18Z</time>
      </trkpt>
      <trkpt lat="-35.050743" lon="-58.28118">
        <time>2021-05-01T14:14:19Z</time>
      </trkpt>
      <trkpt lat="-35.05078" lon="-58.281227">
        <time>2021-05-01T14:14:20Z</time>
      </trkpt>
      <trkpt lat="-35.05082" lon="-58.28127">
        <time>2021-05-01T14:14:21Z</time>
      </trkpt>
      <trkpt lat="-35.050858" lon="-58.281315">
        <time>2021-05-01T14:14:22Z</time>
      </trkpt>
      <trkpt lat="-35.0509" lon="-58.281357">
        <time>2021-05-01T14:14:23Z</time>
      </trkpt>
      <trkpt lat="-35.050938" lon="-58.281403">
        <time>2021-05-01T14:14:24Z</time>
      </trkpt>
      <trkpt lat="-35.05098" lon="-58.28145">
        <time>2021-05-01T14:14:25Z</time>
      </trkpt>
      <trkpt lat="-35.051018" lon="-58.28149">
        <time>2021-05-01T14:14:26Z</time>
      </trkpt>
      <trkpt lat="-35.051056" lon="-58.281532">
        <time>2021-05-01T14:14:27Z</time>
      </trkpt>
      <trkpt lat="-35.051094" lon="-58.281578">
        <time>2021-05-01T14:14:28Z</time>
      </trkpt>
      <trkpt lat="-35.051136" lon="-58.28162">
        <time>2021-05-01T14:14:29Z</time>
      </trkpt>
      <trkpt lat="-35.051174" lon="-58.281662">
        <time>2021-05-01T14:14:30Z</time>
      </trkpt>
      <trkpt lat="-35.051216" lon="-58.281708">
        <time>2021-05-01T14:14:31Z</time>
      </trkpt>
      <trkpt lat="-35.051254" lon="-58.281754">
        <time>2021-05-01T14:14:32Z</time>
      </trkpt>
      <trkpt lat="-35.051296" lon="-58.281796">
        <time>2021-05-01T14:14:33Z</time>
      </trkpt>
      <trkpt lat="-35.051334" lon="-58.281834">
        <time>2021-05-01T14:14:34Z</time>
      </trkpt>
      <trkpt lat="-35.051373" lon="-58.28188">
        <time>2021-05-01T14:14:35Z</time>
      </trkpt>
      <trkpt lat="-35.051414" lon="-58.28192">
        <time>2021-05-01T14:14:36Z</time>
      </trkpt>
      <trkpt lat="-35.051456" lon="-58.281963">
        <time>2021-05-01T14:14:37Z</time>
      </trkpt>
      <trkpt lat="-35.051495" lon="-58.28201">
        <time>2021-05-01T14:14:38Z</time>
      </trkpt>
      <trkpt lat="-35.051537" lon="-58.28205">
        <time>2021-05-01T14:14:39Z</time>
      </trkpt>
      <trkpt lat="-35.051575" lon="-58.282097">
        <time>2021-05-01T14:14:40Z</time>
      </trkpt>
      <trkpt lat="-35.051617" lon="-58.282143">
        <time>2021-05-01T14:14:41Z</time>
      </trkpt>
      <trkpt lat="-35.051655" lon="-58.282185">
        <time>2021-05-01T14:14:42Z</time>
      </trkpt>
      <trkpt lat="-35.051697" lon="-58.28223">
        <time>2021-05-01T14:14:43Z</time>
      </trkpt>
      <trkpt lat="-35.05174" lon="-58.282276">
        <time>2021-05-01T14:14:44Z</time>
      </trkpt>
      <trkpt lat="-35.05178" lon="-58.282322">
        <time>2021-05-01T14:14:45Z</time>
      </trkpt>
      <trkpt lat="-35.05182" lon="-58.282368">
        <time>2021-05-01T14:14:46Z</time>
      </trkpt>
      <trkpt lat="-35.051857" lon="-58.28241">
        <time>2021-05-01T14:14:47Z</time>
      </trkpt>
      <trkpt lat="-35.051895" lon="-58.282455">
        <time>2021-05-01T14:14:48Z</time>
      </trkpt>
      <trkpt lat="-35.051937" lon="-58.2825">
        <time>2021-05-01T14:14:49Z</time>
      </trkpt>
      <trkpt lat="-35.051975" lon="-58.282543">
        <time>2021-05-01T14:14:50Z</time>
      </trkpt>
      <trkpt lat="-35.052013" lon="-58.282585">
        <time>2021-05-01T14:14:51Z</time>
      </trkpt>
      <trkpt lat="-35.05205" lon="-58.282627">
        <time>2021-05-01T14:14:52Z</time>
      </trkpt>
      <trkpt lat="-35.05209" lon="-58.28267">
        <time>2021-05-01T14:14:53Z</time>
      </trkpt>
      <trkpt lat="-35.052128" lon="-58.282715">
        <time>2021-05-01T14:14:54Z</time>
      </trkpt>
      <trkpt lat="-35.052166" lon="-58.282757">
        <time>2021-05-01T14:14:55Z</time>
      </trkpt>
      <trkpt lat="-35.052204" lon="-58.282803">
        <time>2021-05-01T14:14:56Z</time>
      </trkpt>
      <trkpt lat="-35.052246" lon="-58.28285">
        <time>2021-05-01T14:14:57Z</time>
      </trkpt>
      <trkpt lat="-35.05228" lon="-58.282894">
        <time>2021-05-01T14:14:58Z</time>
      </trkpt>
      <trkpt lat="-35.05232" lon="-58.282936">
        <time>2021-05-01T14:14:59Z</time>
      </trkpt>
      <trkpt lat="-35.052357" lon="-58.282978">
        <time>2021-05-01T14:15:00Z</time>
      </trkpt>
      <trkpt lat="-35.052395" lon="-58.283024">
        <time>2021-05-01T14:15:01Z</time>
      </trkpt>
      <trkpt lat="-35.052437" lon="-58.283066">
        <time>2021-05-01T14:15:02Z</time>
      </trkpt>
      <trkpt lat="-35.052475" lon="-58.283108">
        <time>2021-05-01T14:15:03Z</time>
      </trkpt>
      <trkpt lat="-35.052513" lon="-58.28315">
        <time>2021-05-01T14:15:04Z</time>
      </trkpt>
      <trkpt lat="-35.052555" lon="-58.28319">
        <time>2021-05-01T14:15:05Z</time>
      </trkpt>
      <trkpt lat="-35.052593" lon="-58.283234">
        <time>2021-05-01T14:15:06Z</time>
      </trkpt>
      <trkpt lat="-35.05263" lon="-58.283276">
        <time>2021-05-01T14:15:07Z</time>
      </trkpt>
      <trkpt lat="-35.052673" lon="-58.28332">
        <time>2021-05-01T14:15:08Z</time>
      </trkpt>
      <trkpt lat="-35.05271" lon="-58.283363">
        <time>2021-05-01T14:15:09Z</time>
      </trkpt>
      <trkpt lat="-35.05275" lon="-58.28341">
        <time>2021-05-01T14:15:10Z</time>
      </trkpt>
      <trkpt lat="-35.052788" lon="-58.28345">
        <time>2021-05-01T14:15:11Z</time>
      </trkpt>
      <trkpt lat="-35.052826" lon="-58.283493">
        <time>2021-05-01T14:15:12Z</time>
      </trkpt>
      <trkpt lat="-35.052864" lon="-58.283535">
        <time>2021-05-01T14:15:13Z</time>
      </trkpt>
      <trkpt lat="-35.052902" lon="-58.28358">
        <time>2021-05-01T14:15:14Z</time>
      </trkpt>
      <trkpt lat="-35.052944" lon="-58.283627">
        <time>2021-05-01T14:15:15Z</time>
      </trkpt>
      <trkpt lat="-35.052982" lon="-58.283672">
        <time>2021-05-01T14:15:16Z</time>
      </trkpt>
      <trkpt lat="-35.053024" lon="-58.283714">
        <time>2021-05-01T14:15:17Z</time>
      </trkpt>
      <trkpt lat="-35.053062" lon="-58.28376">
        <time>2021-05-01T14:15:18Z</time>
      </trkpt>
      <trkpt lat="-35.053104" lon="-58.283806">
        <time>2021-05-01T14:15:19Z</time>
      </trkpt>
      <trkpt lat="-35.053143" lon="-58.283848">
        <time>2021-05-01T14:15:20Z</time>
      </trkpt>
      <trkpt lat="-35.05318" lon="-58.28389">
        <time>2021-05-01T14:15:21Z</time>
      </trkpt>
      <trkpt lat="-35.053215" lon="-58.28393">
        <time>2021-05-01T14:15:22Z</time>
      </trkpt>
      <trkpt lat="-35.053253" lon="-58.283974">
        <time>2021-05-01T14:15:23Z</time>
      </trkpt>
      <trkpt lat="-35.05329" lon="-58.28402">
        <time>2021-05-01T14:15:24Z</time>
      </trkpt>
      <trkpt lat="-35.05333" lon="-58.28406">
        <time>2021-05-01T14:15:25Z</time>
      </trkpt>
      <trkpt lat="-35.053368" lon="-58.284103">
        <time>2021-05-01T14:15:26Z</time>
      </trkpt>
      <trkpt lat="-35.05341" lon="-58.28415">
        <time>2021-05-01T14:15:27Z</time>
      </trkpt>
      <trkpt lat="-35.053448" lon="-58.284195">
        <time>2021-05-01T14:15:28Z</time>
      </trkpt>
      <trkpt lat="-35.053486" lon="-58.284237">
        <time>2021-05-01T14:15:29Z</time>
      </trkpt>
      <trkpt lat="-35.053528" lon="-58.284283">
        <time>2021-05-01T14:15:30Z</time>
      </trkpt>
      <trkpt lat="-35.053566" lon="-58.284325">
        <time>2021-05-01T14:15:31Z</time>
      </trkpt>
      <trkpt lat="-35.053604" lon="-58.28437">
        <time>2021-05-01T14:15:32Z</time>
      </trkpt>
      <trkpt lat="-35.053646" lon="-58.284416">
        <time>2021-05-01T14:15:33Z</time>
      </trkpt>
      <trkpt lat="-35.053688" lon="-58.28446">
        <time>2021-05-01T14:15:34Z</time>
      </trkpt>
      <trkpt lat="-35.053726" lon="-58.284504">
        <time>2021-05-01T14:15:35Z</time>
      </trkpt>
      <trkpt lat="-35.053764" lon="-58.28455">
        <time>2021-05-01T14:15:36Z</time>
      </trkpt>
      <trkpt lat="-35.053806" lon="-58.284595">
        <time>2021-05-01T14:15:37Z</time>
      </trkpt>
      <trkpt lat="-35.053844" lon="-58.284637">
        <time>2021-05-01T14:15:38Z</time>
      </trkpt>
      <trkpt lat="-35.053883" lon="-58.284683">
        <time>2021-05-01T14:15:39Z</time>
      </trkpt>
      <trkpt lat="-35.053925" lon="-58.28473">
        <time>2021-05-01T14:15:40Z</time>
      </trkpt>
      <trkpt lat="-35.053963" lon="-58.28477">
        <time>2021-05-01T14:15:41Z</time>
      </trkpt>
      <trkpt lat="-35.054005" lon="-58.284817">
        <time>2021-05-01T14:15:42Z</time>
      </trkpt>
      <trkpt lat="-35.054043" lon="-58.284863">
        <time>2021-05-01T14:15:43Z</time>
      </trkpt>
      <trkpt lat="-35.05408" lon="-58.28491">
        <time>2021-05-01T14:15:44Z</time>
      </trkpt>
      <trkpt lat="-35.054123" lon="-58.28495">
        <time>2021-05-01T14:15:45Z</time>
      </trkpt>
      <trkpt lat="-35.05416" lon="-58.284996">
        <time>2021-05-01T14:15:46Z</time>
      </trkpt>
      <trkpt lat="-35.054203" lon="-58.285038">
        <time>2021-05-01T14:15:47Z</time>
      </trkpt>
      <trkpt lat="-35.05424" lon="-58.285084">
        <time>2021-05-01T14:15:48Z</time>
      </trkpt>
      <trkpt lat="-35.054283" lon="-58.285122">
        <time>2021-05-01T14:15:49Z</time>
      </trkpt>
      <trkpt lat="-35.05432" lon="-58.285164">
        <time>2021-05-01T14:15:50Z</time>
      </trkpt>
      <trkpt lat="-35.054363" lon="-58.285202">
        <time>2021-05-01T14:15:51Z</time>
      </trkpt>
      <trkpt lat="-35.05441" lon="-58.285236">
        <time>2021-05-01T14:15:52Z</time>
      </trkpt>
      <trkpt lat="-35.05445" lon="-58.28527">
        <time>2021-05-01T14:15:53Z</time>
      </trkpt>
      <trkpt lat="-35.054497" lon="-58.285305">
        <time>2021-05-01T14:15:54Z</time>
      </trkpt>
      <trkpt lat="-35.054543" lon="-58.28534">
        <time>2021-05-01T14:15:55Z</time>
      </trkpt>
      <trkpt lat="-35.05459" lon="-58.28537">
        <time>2021-05-01T14:15:56Z</time>
      </trkpt>
      <trkpt lat="-35.054638" lon="-58.285397">
        <time>2021-05-01T14:15:57Z</time>
      </trkpt>
      <trkpt lat="-35.054688" lon="-58.285423">
        <time>2021-05-01T14:15:58Z</time>
      </trkpt>
      <trkpt lat="-35.054737" lon="-58.285446">
        <time>2021-05-01T14:15:59Z</time>
      </trkpt>
      <trkpt lat="-35.054787" lon="-58.28547">
        <time>2021-05-01T14:16:00Z</time>
      </trkpt>
      <trkpt lat="-35.054836" lon="-58.28549">
        <time>2021-05-01T14:16:01Z</time>
      </trkpt>
      <trkpt lat="-35.054886" lon="-58.285507">
        <time>2021-05-01T14:16:02Z</time>
      </trkpt>
      <trkpt lat="-35.054935" lon="-58.285526">
        <time>2021-05-01T14:16:03Z</time>
      </trkpt>
      <trkpt lat="-35.054985" lon="-58.28555">
        <time>2021-05-01T14:16:04Z</time>
      </trkpt>
      <trkpt lat="-35.055035" lon="-58.28557">
        <time>2021-05-01T14:16:05Z</time>
      </trkpt>
      <trkpt lat="-35.055088" lon="-58.285587">
        <time>2021-05-01T14:16:06Z</time>
      </trkpt>
      <trkpt lat="-35.055138" lon="-58.285606">
        <time>2021-05-01T14:16:07Z</time>
      </trkpt>
      <trkpt lat="-35.05519" lon="-58.28563">
        <time>2021-05-01T14:16:08Z</time>
      </trkpt>
      <trkpt lat="-35.05524" lon="-58.285652">
        <time>2021-05-01T14:16:09Z</time>
      </trkpt>
      <trkpt lat="-35.055294" lon="-58.28567">
        <time>2021-05-01T14:16:10Z</time>
      </trkpt>
      <trkpt lat="-35.055347" lon="-58.28569">
        <time>2021-05-01T14:16:11Z</time>
      </trkpt>
      <trkpt lat="-35.0554" lon="-58.28571">
        <time>2021-05-01T14:16:12Z</time>
      </trkpt>
      <trkpt lat="-35.05545" lon="-58.28573">
        <time>2021-05-01T14:16:13Z</time>
      </trkpt>
      <trkpt lat="-35.055508" lon="-58.285748">
        <time>2021-05-01T14:16:14Z</time>
      </trkpt>
      <trkpt lat="-35.05556" lon="-58.285763">
        <time>2021-05-01T14:16:15Z</time>
      </trkpt>
      <trkpt lat="-35.05561" lon="-58.285786">
        <time>2021-05-01T14:16:16Z</time>
      </trkpt>
      <trkpt lat="-35.055664" lon="-58.2858">
        <time>2021-05-01T14:16:17Z</time>
      </trkpt>
      <trkpt lat="-35.055714" lon="-58.28582">
        <time>2021-05-01T14:16:18Z</time>
      </trkpt>
      <trkpt lat="-35.055763" lon="-58.285835">
        <time>2021-05-01T14:16:19Z</time>
      </trkpt>
      <trkpt lat="-35.055813" lon="-58.285854">
        <time>2021-05-01T14:16:20Z</time>
      </trkpt>
      <trkpt lat="-35.055862" lon="-58.285877">
        <time>2021-05-01T14:16:21Z</time>
      </trkpt>
      <trkpt lat="-35.055912" lon="-58.2859">
        <time>2021-05-01T14:16:22Z</time>
      </trkpt>
      <trkpt lat="-35.05596" lon="-58.285915">
        <time>2021-05-01T14:16:23Z</time>
      </trkpt>
      <trkpt lat="-35.05601" lon="-58.28593">
        <time>2021-05-01T14:16:24Z</time>
      </trkpt>
      <trkpt lat="-35.05607" lon="-58.28595">
        <time>2021-05-01T14:16:25Z</time>
      </trkpt>
      <trkpt lat="-35.05612" lon="-58.285973">
        <time>2021-05-01T14:16:26Z</time>
      </trkpt>
      <trkpt lat="-35.05618" lon="-58.28599">
        <time>2021-05-01T14:16:27Z</time>
      </trkpt>
      <trkpt lat="-35.056236" lon="-58.286015">
        <time>2021-05-01T14:16:28Z</time>
      </trkpt>
      <trkpt lat="-35.056293" lon="-58.286034">
        <time>2021-05-01T14:16:29Z</time>
      </trkpt>
      <trkpt lat="-35.05635" lon="-58.286057">
        <time>2021-05-01T14:16:30Z</time>
      </trkpt>
      <trkpt lat="-35.056408" lon="-58.28608">
        <time>2021-05-01T14:16:31Z</time>
      </trkpt>
      <trkpt lat="-35.056465" lon="-58.286102">
        <time>2021-05-01T14:16:32Z</time>
      </trkpt>
      <trkpt lat="-35.056526" lon="-58.286125">
        <time>2021-05-01T14:16:33Z</time>
      </trkpt>
      <trkpt lat="-35.056583" lon="-58.286148">
        <time>2021-05-01T14:16:34Z</time>
      </trkpt>
      <trkpt lat="-35.05664" lon="-58.286175">
        <time>2021-05-01T14:16:35Z</time>
      </trkpt>
      <trkpt lat="-35.056694" lon="-58.286198">
        <time>2021-05-01T14:16:36Z</time>
      </trkpt>
      <trkpt lat="-35.056747" lon="-58.28622">
        <time>2021-05-01T14:16:37Z</time>
      </trkpt>
      <trkpt lat="-35.0568" lon="-58.286243">
        <time>2021-05-01T14:16:38Z</time>
      </trkpt>
      <trkpt lat="-35.056854" lon="-58.286266">
        <time>2021-05-01T14:16:39Z</time>
      </trkpt>
      <trkpt lat="-35.056908" lon="-58.286285">
        <time>2021-05-01T14:16:40Z</time>
      </trkpt>
      <trkpt lat="-35.056957" lon="-58.28631">
        <time>2021-05-01T14:16:41Z</time>
      </trkpt>
      <trkpt lat="-35.05701" lon="-58.28633">
        <time>2021-05-01T14:16:42Z</time>
      </trkpt>
      <trkpt lat="-35.05706" lon="-58.28635">
        <time>2021-05-01T14:16:43Z</time>
      </trkpt>
      <trkpt lat="-35.057117" lon="-58.286354">
        <time>2021-05-01T14:16:50Z</time>
      </trkpt>
      <trkpt lat="-35.05713" lon="-58.286366">
        <time>2021-05-01T14:17:12Z</time>
      </trkpt>
      <trkpt lat="-35.05713" lon="-58.286407">
        <time>2021-05-01T14:17:27Z</time>
      </trkpt>
      <trkpt lat="-35.057117" lon="-58.286366">
        <time>2021-05-01T14:18:57Z</time>
      </trkpt>
      <trkpt lat="-35.057144" lon="-58.28636">
        <time>2021-05-01T14:19:12Z</time>
      </trkpt>
      <trkpt lat="-35.057194" lon="-58.286385">
        <time>2021-05-01T14:19:16Z</time>
      </trkpt>
      <trkpt lat="-35.05725" lon="-58.286407">
        <time>2021-05-01T14:20:10Z</time>
      </trkpt>
      <trkpt lat="-35.057297" lon="-58.286415">
        <time>2021-05-01T14:20:12Z</time>
      </trkpt>
      <trkpt lat="-35.057346" lon="-58.286427">
        <time>2021-05-01T14:20:14Z</time>
      </trkpt>
      <trkpt lat="-35.05736" lon="-58.28644">
        <time>2021-05-01T14:20:28Z</time>
      </trkpt>
      <trkpt lat="-35.05737" lon="-58.286415">
        <time>2021-05-01T14:21:00Z</time>
      </trkpt>
      <trkpt lat="-35.05741" lon="-58.286465">
        <time>2021-05-01T14:21:02Z</time>
      </trkpt>
      <trkpt lat="-35.057457" lon="-58.28649">
        <time>2021-05-01T14:21:18Z</time>
      </trkpt>
      <trkpt lat="-35.057526" lon="-58.28652">
        <time>2021-05-01T14:21:20Z</time>
      </trkpt>
      <trkpt lat="-35.057602" lon="-58.28655">
        <time>2021-05-01T14:21:22Z</time>
      </trkpt>
      <trkpt lat="-35.057682" lon="-58.28658">
        <time>2021-05-01T14:21:24Z</time>
      </trkpt>
      <trkpt lat="-35.05777" lon="-58.286613">
        <time>2021-05-01T14:21:26Z</time>
      </trkpt>
      <trkpt lat="-35.05781" lon="-58.286633">
        <time>2021-05-01T14:21:27Z</time>
      </trkpt>
      <trkpt lat="-35.057858" lon="-58.28665">
        <time>2021-05-01T14:21:28Z</time>
      </trkpt>
      <trkpt lat="-35.0579" lon="-58.28668">
        <time>2021-05-01T14:21:29Z</time>
      </trkpt>
      <trkpt lat="-35.057945" lon="-58.2867">
        <time>2021-05-01T14:21:30Z</time>
      </trkpt>
      <trkpt lat="-35.05799" lon="-58.286724">
        <time>2021-05-01T14:21:31Z</time>
      </trkpt>
      <trkpt lat="-35.058037" lon="-58.28674">
        <time>2021-05-01T14:21:32Z</time>
      </trkpt>
      <trkpt lat="-35.05808" lon="-58.286755">
        <time>2021-05-01T14:21:33Z</time>
      </trkpt>
      <trkpt lat="-35.058167" lon="-58.28679">
        <time>2021-05-01T14:21:35Z</time>
      </trkpt>
      <trkpt lat="-35.058212" lon="-58.286808">
        <time>2021-05-01T14:21:36Z</time>
      </trkpt>
      <trkpt lat="-35.058258" lon="-58.286827">
        <time>2021-05-01T14:21:37Z</time>
      </trkpt>
      <trkpt lat="-35.0583" lon="-58.28685">
        <time>2021-05-01T14:21:38Z</time>
      </trkpt>
      <trkpt lat="-35.058346" lon="-58.286877">
        <time>2021-05-01T14:21:39Z</time>
      </trkpt>
      <trkpt lat="-35.05839" lon="-58.286903">
        <time>2021-05-01T14:21:40Z</time>
      </trkpt>
      <trkpt lat="-35.058437" lon="-58.286934">
        <time>2021-05-01T14:21:41Z</time>
      </trkpt>
      <trkpt lat="-35.05848" lon="-58.286964">
        <time>2021-05-01T14:21:42Z</time>
      </trkpt>
      <trkpt lat="-35.058525" lon="-58.286995">
        <time>2021-05-01T14:21:43Z</time>
      </trkpt>
      <trkpt lat="-35.058567" lon="-58.28703">
        <time>2021-05-01T14:21:44Z</time>
      </trkpt>
      <trkpt lat="-35.058605" lon="-58.28706">
        <time>2021-05-01T14:21:45Z</time>
      </trkpt>
      <trkpt lat="-35.05864" lon="-58.2871">
        <time>2021-05-01T14:21:46Z</time>
      </trkpt>
      <trkpt lat="-35.058674" lon="-58.28714">
        <time>2021-05-01T14:21:47Z</time>
      </trkpt>
      <trkpt lat="-35.058712" lon="-58.287178">
        <time>2021-05-01T14:21:48Z</time>
      </trkpt>
      <trkpt lat="-35.05875" lon="-58.287216">
        <time>2021-05-01T14:21:49Z</time>
      </trkpt>
      <trkpt lat="-35.058792" lon="-58.28725">
        <time>2021-05-01T14:21:50Z</time>
      </trkpt>
      <trkpt lat="-35.05883" lon="-58.287285">
        <time>2021-05-01T14:21:51Z</time>
      </trkpt>
      <trkpt lat="-35.058872" lon="-58.287315">
        <time>2021-05-01T14:21:52Z</time>
      </trkpt>
      <trkpt lat="-35.058918" lon="-58.287346">
        <time>2021-05-01T14:21:53Z</time>
      </trkpt>
      <trkpt lat="-35.058964" lon="-58.287376">
        <time>2021-05-01T14:21:54Z</time>
      </trkpt>
      <trkpt lat="-35.05901" lon="-58.287403">
        <time>2021-05-01T14:21:55Z</time>
      </trkpt>
      <trkpt lat="-35.05906" lon="-58.287437">
        <time>2021-05-01T14:21:56Z</time>
      </trkpt>
      <trkpt lat="-35.059105" lon="-58.287464">
        <time>2021-05-01T14:21:57Z</time>
      </trkpt>
      <trkpt lat="-35.059155" lon="-58.287495">
        <time>2021-05-01T14:21:58Z</time>
      </trkpt>
      <trkpt lat="-35.0592" lon="-58.287525">
        <time>2021-05-01T14:21:59Z</time>
      </trkpt>
      <trkpt lat="-35.059246" lon="-58.287548">
        <time>2021-05-01T14:22:00Z</time>
      </trkpt>
      <trkpt lat="-35.059288" lon="-58.28757">
        <time>2021-05-01T14:22:01Z</time>
      </trkpt>
      <trkpt lat="-35.059364" lon="-58.287617">
        <time>2021-05-01T14:22:03Z</time>
      </trkpt>
      <trkpt lat="-35.05944" lon="-58.28766">
        <time>2021-05-01T14:22:05Z</time>
      </trkpt>
      <trkpt lat="-35.05951" lon="-58.287704">
        <time>2021-05-01T14:22:07Z</time>
      </trkpt>
      <trkpt lat="-35.059586" lon="-58.28776">
        <time>2021-05-01T14:22:09Z</time>
      </trkpt>
      <trkpt lat="-35.059628" lon="-58.287792">
        <time>2021-05-01T14:22:10Z</time>
      </trkpt>
      <trkpt lat="-35.059666" lon="-58.287827">
        <time>2021-05-01T14:22:11Z</time>
      </trkpt>
      <trkpt lat="-35.059704" lon="-58.287857">
        <time>2021-05-01T14:22:12Z</time>
      </trkpt>
      <trkpt lat="-35.059742" lon="-58.287888">
        <time>2021-05-01T14:22:13Z</time>
      </trkpt>
      <trkpt lat="-35.05978" lon="-58.287918">
        <time>2021-05-01T14:22:14Z</time>
      </trkpt>
      <trkpt lat="-35.059822" lon="-58.287952">
        <time>2021-05-01T14:22:15Z</time>
      </trkpt>
      <trkpt lat="-35.059864" lon="-58.287987">
        <time>2021-05-01T14:22:16Z</time>
      </trkpt>
      <trkpt lat="-35.059906" lon="-58.288025">
        <time>2021-05-01T14:22:17Z</time>
      </trkpt>
      <trkpt lat="-35.059948" lon="-58.288055">
        <time>2021-05-01T14:22:18Z</time>
      </trkpt>
      <trkpt lat="-35.05999" lon="-58.288082">
        <time>2021-05-01T14:22:19Z</time>
      </trkpt>
      <trkpt lat="-35.060028" lon="-58.288113">
        <time>2021-05-01T14:22:20Z</time>
      </trkpt>
      <trkpt lat="-35.06011" lon="-58.288162">
        <time>2021-05-01T14:22:22Z</time>
      </trkpt>
      <trkpt lat="-35.060146" lon="-58.28819">
        <time>2021-05-01T14:22:23Z</time>
      </trkpt>
      <trkpt lat="-35.06019" lon="-58.288216">
        <time>2021-05-01T14:22:24Z</time>
      </trkpt>
      <trkpt lat="-35.06023" lon="-58.288242">
        <time>2021-05-01T14:22:25Z</time>
      </trkpt>
      <trkpt lat="-35.060272" lon="-58.288273">
        <time>2021-05-01T14:22:26Z</time>
      </trkpt>
      <trkpt lat="-35.060314" lon="-58.2883">
        <time>2021-05-01T14:22:27Z</time>
      </trkpt>
      <trkpt lat="-35.06036" lon="-58.28833">
        <time>2021-05-01T14:22:28Z</time>
      </trkpt>
      <trkpt lat="-35.060413" lon="-58.288364">
        <time>2021-05-01T14:22:29Z</time>
      </trkpt>
      <trkpt lat="-35.060448" lon="-58.2884">
        <time>2021-05-01T14:22:30Z</time>
      </trkpt>
      <trkpt lat="-35.060516" lon="-58.288456">
        <time>2021-05-01T14:22:32Z</time>
      </trkpt>
      <trkpt lat="-35.06058" lon="-58.2885">
        <time>2021-05-01T14:22:34Z</time>
      </trkpt>
      <trkpt lat="-35.060654" lon="-58.288563">
        <time>2021-05-01T14:22:36Z</time>
      </trkpt>
      <trkpt lat="-35.06069" lon="-58.2886">
        <time>2021-05-01T14:22:37Z</time>
      </trkpt>
      <trkpt lat="-35.060734" lon="-58.288635">
        <time>2021-05-01T14:22:38Z</time>
      </trkpt>
      <trkpt lat="-35.060772" lon="-58.28867">
        <time>2021-05-01T14:22:39Z</time>
      </trkpt>
      <trkpt lat="-35.060814" lon="-58.288704">
        <time>2021-05-01T14:22:40Z</time>
      </trkpt>
      <trkpt lat="-35.060852" lon="-58.288734">
        <time>2021-05-01T14:22:41Z</time>
      </trkpt>
      <trkpt lat="-35.06089" lon="-58.288765">
        <time>2021-05-01T14:22:42Z</time>
      </trkpt>
      <trkpt lat="-35.06097" lon="-58.288815">
        <time>2021-05-01T14:22:44Z</time>
      </trkpt>
      <trkpt lat="-35.061012" lon="-58.28884">
        <time>2021-05-01T14:22:45Z</time>
      </trkpt>
      <trkpt lat="-35.061092" lon="-58.288887">
        <time>2021-05-01T14:22:47Z</time>
      </trkpt>
      <trkpt lat="-35.061172" lon="-58.288902">
        <time>2021-05-01T14:22:49Z</time>
      </trkpt>
      <trkpt lat="-35.06125" lon="-58.288918">
        <time>2021-05-01T14:22:51Z</time>
      </trkpt>
      <trkpt lat="-35.061317" lon="-58.288906">
        <time>2021-05-01T14:22:53Z</time>
      </trkpt>
      <trkpt lat="-35.061386" lon="-58.288845">
        <time>2021-05-01T14:22:55Z</time>
      </trkpt>
      <trkpt lat="-35.061413" lon="-58.288803">
        <time>2021-05-01T14:22:56Z</time>
      </trkpt>
      <trkpt lat="-35.061474" lon="-58.288727">
        <time>2021-05-01T14:22:58Z</time>
      </trkpt>
      <trkpt lat="-35.06151" lon="-58.28869">
        <time>2021-05-01T14:22:59Z</time>
      </trkpt>
      <trkpt lat="-35.06154" lon="-58.28865">
        <time>2021-05-01T14:23:00Z</time>
      </trkpt>
      <trkpt lat="-35.061596" lon="-58.288574">
        <time>2021-05-01T14:23:02Z</time>
      </trkpt>
      <trkpt lat="-35.06167" lon="-58.288498">
        <time>2021-05-01T14:23:04Z</time>
      </trkpt>
      <trkpt lat="-35.061707" lon="-58.28845">
        <time>2021-05-01T14:23:05Z</time>
      </trkpt>
      <trkpt lat="-35.061737" lon="-58.28841">
        <time>2021-05-01T14:23:06Z</time>
      </trkpt>
      <trkpt lat="-35.06177" lon="-58.28837">
        <time>2021-05-01T14:23:07Z</time>
      </trkpt>
      <trkpt lat="-35.061802" lon="-58.288326">
        <time>2021-05-01T14:23:08Z</time>
      </trkpt>
      <trkpt lat="-35.061832" lon="-58.288284">
        <time>2021-05-01T14:23:09Z</time>
      </trkpt>
      <trkpt lat="-35.061863" lon="-58.288242">
        <time>2021-05-01T14:23:10Z</time>
      </trkpt>
      <trkpt lat="-35.06189" lon="-58.288197">
        <time>2021-05-01T14:23:11Z</time>
      </trkpt>
      <trkpt lat="-35.061924" lon="-58.288155">
        <time>2021-05-01T14:23:12Z</time>
      </trkpt>
      <trkpt lat="-35.061954" lon="-58.288105">
        <time>2021-05-01T14:23:13Z</time>
      </trkpt>
      <trkpt lat="-35.061985" lon="-58.28806">
        <time>2021-05-01T14:23:14Z</time>
      </trkpt>
      <trkpt lat="-35.06202" lon="-58.288013">
        <time>2021-05-01T14:23:15Z</time>
      </trkpt>
      <trkpt lat="-35.062054" lon="-58.287968">
        <time>2021-05-01T14:23:16Z</time>
      </trkpt>
      <trkpt lat="-35.062088" lon="-58.287918">
        <time>2021-05-01T14:23:17Z</time>
      </trkpt>
      <trkpt lat="-35.062126" lon="-58.287872">
        <time>2021-05-01T14:23:18Z</time>
      </trkpt>
      <trkpt lat="-35.06216" lon="-58.287827">
        <time>2021-05-01T14:23:19Z</time>
      </trkpt>
      <trkpt lat="-35.0622" lon="-58.287777">
        <time>2021-05-01T14:23:20Z</time>
      </trkpt>
      <trkpt lat="-35.062237" lon="-58.28773">
        <time>2021-05-01T14:23:21Z</time>
      </trkpt>
      <trkpt lat="-35.06227" lon="-58.287685">
        <time>2021-05-01T14:23:22Z</time>
      </trkpt>
      <trkpt lat="-35.062305" lon="-58.287636">
        <time>2021-05-01T14:23:23Z</time>
      </trkpt>
      <trkpt lat="-35.06234" lon="-58.28759">
        <time>2021-05-01T14:23:24Z</time>
      </trkpt>
      <trkpt lat="-35.062374" lon="-58.28754">
        <time>2021-05-01T14:23:25Z</time>
      </trkpt>
      <trkpt lat="-35.06241" lon="-58.28749">
        <time>2021-05-01T14:23:26Z</time>
      </trkpt>
      <trkpt lat="-35.062443" lon="-58.28744">
        <time>2021-05-01T14:23:27Z</time>
      </trkpt>
      <trkpt lat="-35.06248" lon="-58.28739">
        <time>2021-05-01T14:23:28Z</time>
      </trkpt>
      <trkpt lat="-35.06252" lon="-58.287346">
        <time>2021-05-01T14:23:29Z</time>
      </trkpt>
      <trkpt lat="-35.062553" lon="-58.2873">
        <time>2021-05-01T14:23:30Z</time>
      </trkpt>
      <trkpt lat="-35.062588" lon="-58.287254">
        <time>2021-05-01T14:23:31Z</time>
      </trkpt>
      <trkpt lat="-35.062622" lon="-58.28721">
        <time>2021-05-01T14:23:32Z</time>
      </trkpt>
      <trkpt lat="-35.062656" lon="-58.287163">
        <time>2021-05-01T14:23:33Z</time>
      </trkpt>
      <trkpt lat="-35.06269" lon="-58.287113">
        <time>2021-05-01T14:23:34Z</time>
      </trkpt>
      <trkpt lat="-35.062725" lon="-58.287064">
        <time>2021-05-01T14:23:35Z</time>
      </trkpt>
      <trkpt lat="-35.06276" lon="-58.287018">
        <time>2021-05-01T14:23:36Z</time>
      </trkpt>
      <trkpt lat="-35.06279" lon="-58.286976">
        <time>2021-05-01T14:23:37Z</time>
      </trkpt>
      <trkpt lat="-35.062824" lon="-58.28693">
        <time>2021-05-01T14:23:38Z</time>
      </trkpt>
      <trkpt lat="-35.06286" lon="-58.28689">
        <time>2021-05-01T14:23:39Z</time>
      </trkpt>
      <trkpt lat="-35.062893" lon="-58.286846">
        <time>2021-05-01T14:23:40Z</time>
      </trkpt>
      <trkpt lat="-35.062927" lon="-58.286808">
        <time>2021-05-01T14:23:41Z</time>
      </trkpt>
      <trkpt lat="-35.06296" lon="-58.28677">
        <time>2021-05-01T14:23:42Z</time>
      </trkpt>
      <trkpt lat="-35.062992" lon="-58.28673">
        <time>2021-05-01T14:23:43Z</time>
      </trkpt>
      <trkpt lat="-35.063034" lon="-58.286697">
        <time>2021-05-01T14:23:44Z</time>
      </trkpt>
      <trkpt lat="-35.063114" lon="-58.286674">
        <time>2021-05-01T14:23:46Z</time>
      </trkpt>
      <trkpt lat="-35.063175" lon="-58.28672">
        <time>2021-05-01T14:23:48Z</time>
      </trkpt>
      <trkpt lat="-35.063236" lon="-58.286793">
        <time>2021-05-01T14:23:50Z</time>
      </trkpt>
      <trkpt lat="-35.063267" lon="-58.28683">
        <time>2021-05-01T14:23:51Z</time>
      </trkpt>
      <trkpt lat="-35.063305" lon="-58.286873">
        <time>2021-05-01T14:23:52Z</time>
      </trkpt>
      <trkpt lat="-35.06334" lon="-58.28691">
        <time>2021-05-01T14:23:53Z</time>
      </trkpt>
      <trkpt lat="-35.063377" lon="-58.286953">
        <time>2021-05-01T14:23:54Z</time>
      </trkpt>
      <trkpt lat="-35.06341" lon="-58.287">
        <time>2021-05-01T14:23:55Z</time>
      </trkpt>
      <trkpt lat="-35.06345" lon="-58.287045">
        <time>2021-05-01T14:23:56Z</time>
      </trkpt>
      <trkpt lat="-35.063488" lon="-58.28709">
        <time>2021-05-01T14:23:57Z</time>
      </trkpt>
      <trkpt lat="-35.063526" lon="-58.287132">
        <time>2021-05-01T14:23:58Z</time>
      </trkpt>
      <trkpt lat="-35.063564" lon="-58.287174">
        <time>2021-05-01T14:23:59Z</time>
      </trkpt>
      <trkpt lat="-35.063602" lon="-58.287216">
        <time>2021-05-01T14:24:00Z</time>
      </trkpt>
      <trkpt lat="-35.063637" lon="-58.287262">
        <time>2021-05-01T14:24:01Z</time>
      </trkpt>
      <trkpt lat="-35.06367" lon="-58.287308">
        <time>2021-05-01T14:24:02Z</time>
      </trkpt>
      <trkpt lat="-35.06371" lon="-58.287354">
        <time>2021-05-01T14:24:03Z</time>
      </trkpt>
      <trkpt lat="-35.063747" lon="-58.2874">
        <time>2021-05-01T14:24:04Z</time>
      </trkpt>
      <trkpt lat="-35.063786" lon="-58.287445">
        <time>2021-05-01T14:24:05Z</time>
      </trkpt>
      <trkpt lat="-35.063824" lon="-58.287487">
        <time>2021-05-01T14:24:06Z</time>
      </trkpt>
      <trkpt lat="-35.063866" lon="-58.28753">
        <time>2021-05-01T14:24:07Z</time>
      </trkpt>
      <trkpt lat="-35.063904" lon="-58.28757">
        <time>2021-05-01T14:24:08Z</time>
      </trkpt>
      <trkpt lat="-35.06394" lon="-58.28762">
        <time>2021-05-01T14:24:09Z</time>
      </trkpt>
      <trkpt lat="-35.063976" lon="-58.287663">
        <time>2021-05-01T14:24:10Z</time>
      </trkpt>
      <trkpt lat="-35.06402" lon="-58.28771">
        <time>2021-05-01T14:24:11Z</time>
      </trkpt>
      <trkpt lat="-35.06406" lon="-58.287754">
        <time>2021-05-01T14:24:12Z</time>
      </trkpt>
      <trkpt lat="-35.0641" lon="-58.287796">
        <time>2021-05-01T14:24:13Z</time>
      </trkpt>
      <trkpt lat="-35.06414" lon="-58.28784">
        <time>2021-05-01T14:24:14Z</time>
      </trkpt>
      <trkpt lat="-35.06418" lon="-58.287888">
        <time>2021-05-01T14:24:15Z</time>
      </trkpt>
      <trkpt lat="-35.064213" lon="-58.287933">
        <time>2021-05-01T14:24:16Z</time>
      </trkpt>
      <trkpt lat="-35.064247" lon="-58.287983">
        <time>2021-05-01T14:24:17Z</time>
      </trkpt>
      <trkpt lat="-35.06428" lon="-58.288025">
        <time>2021-05-01T14:24:18Z</time>
      </trkpt>
      <trkpt lat="-35.064323" lon="-58.288067">
        <time>2021-05-01T14:24:19Z</time>
      </trkpt>
      <trkpt lat="-35.06436" lon="-58.288113">
        <time>2021-05-01T14:24:20Z</time>
      </trkpt>
      <trkpt lat="-35.064404" lon="-58.28816">
        <time>2021-05-01T14:24:21Z</time>
      </trkpt>
      <trkpt lat="-35.06444" lon="-58.2882">
        <time>2021-05-01T14:24:22Z</time>
      </trkpt>
      <trkpt lat="-35.064484" lon="-58.288246">
        <time>2021-05-01T14:24:23Z</time>
      </trkpt>
      <trkpt lat="-35.06452" lon="-58.288292">
        <time>2021-05-01T14:24:24Z</time>
      </trkpt>
      <trkpt lat="-35.064564" lon="-58.288338">
        <time>2021-05-01T14:24:25Z</time>
      </trkpt>
      <trkpt lat="-35.06461" lon="-58.288383">
        <time>2021-05-01T14:24:26Z</time>
      </trkpt>
      <trkpt lat="-35.064655" lon="-58.288425">
        <time>2021-05-01T14:24:27Z</time>
      </trkpt>
      <trkpt lat="-35.064697" lon="-58.288464">
        <time>2021-05-01T14:24:28Z</time>
      </trkpt>
      <trkpt lat="-35.064735" lon="-58.28851">
        <time>2021-05-01T14:24:29Z</time>
      </trkpt>
      <trkpt lat="-35.06477" lon="-58.288555">
        <time>2021-05-01T14:24:30Z</time>
      </trkpt>
      <trkpt lat="-35.064804" lon="-58.2886">
        <time>2021-05-01T14:24:31Z</time>
      </trkpt>
      <trkpt lat="-35.064842" lon="-58.288647">
        <time>2021-05-01T14:24:32Z</time>
      </trkpt>
      <trkpt lat="-35.06488" lon="-58.28869">
        <time>2021-05-01T14:24:33Z</time>
      </trkpt>
      <trkpt lat="-35.064915" lon="-58.28873">
        <time>2021-05-01T14:24:34Z</time>
      </trkpt>
      <trkpt lat="-35.06495" lon="-58.288773">
        <time>2021-05-01T14:24:35Z</time>
      </trkpt>
      <trkpt lat="-35.064983" lon="-58.288815">
        <time>2021-05-01T14:24:36Z</time>
      </trkpt>
      <trkpt lat="-35.065014" lon="-58.288857">
        <time>2021-05-01T14:24:38Z</time>
      </trkpt>
      <trkpt lat="-35.065075" lon="-58.288937">
        <time>2021-05-01T14:24:40Z</time>
      </trkpt>
      <trkpt lat="-35.06514" lon="-58.28901">
        <time>2021-05-01T14:24:42Z</time>
      </trkpt>
      <trkpt lat="-35.0652" lon="-58.28907">
        <time>2021-05-01T14:24:44Z</time>
      </trkpt>
      <trkpt lat="-35.065266" lon="-58.289097">
        <time>2021-05-01T14:24:46Z</time>
      </trkpt>
      <trkpt lat="-35.065315" lon="-58.289055">
        <time>2021-05-01T14:24:48Z</time>
      </trkpt>
      <trkpt lat="-35.065372" lon="-58.288986">
        <time>2021-05-01T14:24:50Z</time>
      </trkpt>
      <trkpt lat="-35.065437" lon="-58.28891">
        <time>2021-05-01T14:24:52Z</time>
      </trkpt>
      <trkpt lat="-35.06547" lon="-58.288868">
        <time>2021-05-01T14:24:53Z</time>
      </trkpt>
      <trkpt lat="-35.06551" lon="-58.288826">
        <time>2021-05-01T14:24:54Z</time>
      </trkpt>
      <trkpt lat="-35.065544" lon="-58.288784">
        <time>2021-05-01T14:24:55Z</time>
      </trkpt>
      <trkpt lat="-35.06558" lon="-58.28874">
        <time>2021-05-01T14:24:56Z</time>
      </trkpt>
      <trkpt lat="-35.065613" lon="-58.288696">
        <time>2021-05-01T14:24:57Z</time>
      </trkpt>
      <trkpt lat="-35.065647" lon="-58.28866">
        <time>2021-05-01T14:24:58Z</time>
      </trkpt>
      <trkpt lat="-35.065685" lon="-58.288616">
        <time>2021-05-01T14:24:59Z</time>
      </trkpt>
      <trkpt lat="-35.065723" lon="-58.288574">
        <time>2021-05-01T14:25:00Z</time>
      </trkpt>
      <trkpt lat="-35.06576" lon="-58.288536">
        <time>2021-05-01T14:25:01Z</time>
      </trkpt>
      <trkpt lat="-35.0658" lon="-58.288498">
        <time>2021-05-01T14:25:02Z</time>
      </trkpt>
      <trkpt lat="-35.065838" lon="-58.288456">
        <time>2021-05-01T14:25:03Z</time>
      </trkpt>
      <trkpt lat="-35.065876" lon="-58.288418">
        <time>2021-05-01T14:25:04Z</time>
      </trkpt>
      <trkpt lat="-35.06591" lon="-58.28838">
        <time>2021-05-01T14:25:05Z</time>
      </trkpt>
      <trkpt lat="-35.06598" lon="-58.288303">
        <time>2021-05-01T14:25:07Z</time>
      </trkpt>
      <trkpt lat="-35.06602" lon="-58.288277">
        <time>2021-05-01T14:25:08Z</time>
      </trkpt>
      <trkpt lat="-35.066063" lon="-58.28824">
        <time>2021-05-01T14:25:09Z</time>
      </trkpt>
      <trkpt lat="-35.066124" lon="-58.28816">
        <time>2021-05-01T14:25:11Z</time>
      </trkpt>
      <trkpt lat="-35.066162" lon="-58.28812">
        <time>2021-05-01T14:25:12Z</time>
      </trkpt>
      <trkpt lat="-35.066196" lon="-58.28808">
        <time>2021-05-01T14:25:13Z</time>
      </trkpt>
      <trkpt lat="-35.06623" lon="-58.288036">
        <time>2021-05-01T14:25:14Z</time>
      </trkpt>
      <trkpt lat="-35.06626" lon="-58.287994">
        <time>2021-05-01T14:25:15Z</time>
      </trkpt>
      <trkpt lat="-35.066288" lon="-58.28795">
        <time>2021-05-01T14:25:16Z</time>
      </trkpt>
      <trkpt lat="-35.06634" lon="-58.287872">
        <time>2021-05-01T14:25:18Z</time>
      </trkpt>
      <trkpt lat="-35.066406" lon="-58.287804">
        <time>2021-05-01T14:25:20Z</time>
      </trkpt>
      <trkpt lat="-35.066475" lon="-58.287746">
        <time>2021-05-01T14:25:22Z</time>
      </trkpt>
      <trkpt lat="-35.06654" lon="-58.287685">
        <time>2021-05-01T14:25:24Z</time>
      </trkpt>
      <trkpt lat="-35.066586" lon="-58.28767">
        <time>2021-05-01T14:25:25Z</time>
      </trkpt>
      <trkpt lat="-35.066635" lon="-58.287685">
        <time>2021-05-01T14:25:26Z</time>
      </trkpt>
      <trkpt lat="-35.06671" lon="-58.287827">
        <time>2021-05-01T14:25:50Z</time>
      </trkpt>
      <trkpt lat="-35.06666" lon="-58.287758">
        <time>2021-05-01T14:25:50Z</time>
      </trkpt>
      <trkpt lat="-35.066765" lon="-58.28789">
        <time>2021-05-01T14:25:52Z</time>
      </trkpt>
      <trkpt lat="-35.066826" lon="-58.28797">
        <time>2021-05-01T14:25:54Z</time>
      </trkpt>
      <trkpt lat="-35.066853" lon="-58.288013">
        <time>2021-05-01T14:25:55Z</time>
      </trkpt>
      <trkpt lat="-35.066887" lon="-58.288055">
        <time>2021-05-01T14:25:56Z</time>
      </trkpt>
      <trkpt lat="-35.066917" lon="-58.288094">
        <time>2021-05-01T14:25:57Z</time>
      </trkpt>
      <trkpt lat="-35.066948" lon="-58.288136">
        <time>2021-05-01T14:25:58Z</time>
      </trkpt>
      <trkpt lat="-35.06698" lon="-58.288174">
        <time>2021-05-01T14:25:59Z</time>
      </trkpt>
      <trkpt lat="-35.067036" lon="-58.288254">
        <time>2021-05-01T14:26:01Z</time>
      </trkpt>
      <trkpt lat="-35.067085" lon="-58.28834">
        <time>2021-05-01T14:26:03Z</time>
      </trkpt>
      <trkpt lat="-35.06714" lon="-58.28842">
        <time>2021-05-01T14:26:05Z</time>
      </trkpt>
      <trkpt lat="-35.067192" lon="-58.288498">
        <time>2021-05-01T14:26:07Z</time>
      </trkpt>
      <trkpt lat="-35.06724" lon="-58.288574">
        <time>2021-05-01T14:26:09Z</time>
      </trkpt>
      <trkpt lat="-35.067295" lon="-58.288654">
        <time>2021-05-01T14:26:11Z</time>
      </trkpt>
      <trkpt lat="-35.067326" lon="-58.288696">
        <time>2021-05-01T14:26:12Z</time>
      </trkpt>
      <trkpt lat="-35.067356" lon="-58.28874">
        <time>2021-05-01T14:26:13Z</time>
      </trkpt>
      <trkpt lat="-35.06739" lon="-58.28878">
        <time>2021-05-01T14:26:14Z</time>
      </trkpt>
      <trkpt lat="-35.067425" lon="-58.288826">
        <time>2021-05-01T14:26:15Z</time>
      </trkpt>
      <trkpt lat="-35.06746" lon="-58.288868">
        <time>2021-05-01T14:26:16Z</time>
      </trkpt>
      <trkpt lat="-35.06749" lon="-58.288914">
        <time>2021-05-01T14:26:17Z</time>
      </trkpt>
      <trkpt lat="-35.06752" lon="-58.288956">
        <time>2021-05-01T14:26:18Z</time>
      </trkpt>
      <trkpt lat="-35.067554" lon="-58.288998">
        <time>2021-05-01T14:26:19Z</time>
      </trkpt>
      <trkpt lat="-35.067585" lon="-58.28904">
        <time>2021-05-01T14:26:20Z</time>
      </trkpt>
      <trkpt lat="-35.06762" lon="-58.289085">
        <time>2021-05-01T14:26:21Z</time>
      </trkpt>
      <trkpt lat="-35.067654" lon="-58.28913">
        <time>2021-05-01T14:26:22Z</time>
      </trkpt>
      <trkpt lat="-35.067688" lon="-58.289177">
        <time>2021-05-01T14:26:23Z</time>
      </trkpt>
      <trkpt lat="-35.067722" lon="-58.28922">
        <time>2021-05-01T14:26:24Z</time>
      </trkpt>
      <trkpt lat="-35.067757" lon="-58.289265">
        <time>2021-05-01T14:26:25Z</time>
      </trkpt>
      <trkpt lat="-35.06779" lon="-58.28931">
        <time>2021-05-01T14:26:26Z</time>
      </trkpt>
      <trkpt lat="-35.067825" lon="-58.289356">
        <time>2021-05-01T14:26:27Z</time>
      </trkpt>
      <trkpt lat="-35.06786" lon="-58.289402">
        <time>2021-05-01T14:26:28Z</time>
      </trkpt>
      <trkpt lat="-35.067894" lon="-58.289448">
        <time>2021-05-01T14:26:29Z</time>
      </trkpt>
      <trkpt lat="-35.067932" lon="-58.28949">
        <time>2021-05-01T14:26:30Z</time>
      </trkpt>
      <trkpt lat="-35.067966" lon="-58.28953">
        <time>2021-05-01T14:26:31Z</time>
      </trkpt>
      <trkpt lat="-35.067997" lon="-58.289577">
        <time>2021-05-01T14:26:32Z</time>
      </trkpt>
      <trkpt lat="-35.06803" lon="-58.289623">
        <time>2021-05-01T14:26:33Z</time>
      </trkpt>
      <trkpt lat="-35.068066" lon="-58.28967">
        <time>2021-05-01T14:26:34Z</time>
      </trkpt>
      <trkpt lat="-35.0681" lon="-58.28971">
        <time>2021-05-01T14:26:35Z</time>
      </trkpt>
      <trkpt lat="-35.068134" lon="-58.289753">
        <time>2021-05-01T14:26:36Z</time>
      </trkpt>
      <trkpt lat="-35.068165" lon="-58.28979">
        <time>2021-05-01T14:26:37Z</time>
      </trkpt>
      <trkpt lat="-35.068195" lon="-58.289837">
        <time>2021-05-01T14:26:38Z</time>
      </trkpt>
      <trkpt lat="-35.06823" lon="-58.28988">
        <time>2021-05-01T14:26:39Z</time>
      </trkpt>
      <trkpt lat="-35.068264" lon="-58.28992">
        <time>2021-05-01T14:26:40Z</time>
      </trkpt>
      <trkpt lat="-35.0683" lon="-58.289963">
        <time>2021-05-01T14:26:41Z</time>
      </trkpt>
      <trkpt lat="-35.068333" lon="-58.290005">
        <time>2021-05-01T14:26:42Z</time>
      </trkpt>
      <trkpt lat="-35.068367" lon="-58.290043">
        <time>2021-05-01T14:26:43Z</time>
      </trkpt>
      <trkpt lat="-35.0684" lon="-58.29008">
        <time>2021-05-01T14:26:44Z</time>
      </trkpt>
      <trkpt lat="-35.068428" lon="-58.290123">
        <time>2021-05-01T14:26:45Z</time>
      </trkpt>
      <trkpt lat="-35.068462" lon="-58.29017">
        <time>2021-05-01T14:26:46Z</time>
      </trkpt>
      <trkpt lat="-35.068497" lon="-58.290215">
        <time>2021-05-01T14:26:47Z</time>
      </trkpt>
      <trkpt lat="-35.06853" lon="-58.29026">
        <time>2021-05-01T14:26:48Z</time>
      </trkpt>
      <trkpt lat="-35.068565" lon="-58.290306">
        <time>2021-05-01T14:26:49Z</time>
      </trkpt>
      <trkpt lat="-35.0686" lon="-58.290356">
        <time>2021-05-01T14:26:50Z</time>
      </trkpt>
      <trkpt lat="-35.068638" lon="-58.290405">
        <time>2021-05-01T14:26:51Z</time>
      </trkpt>
      <trkpt lat="-35.068672" lon="-58.29045">
        <time>2021-05-01T14:26:52Z</time>
      </trkpt>
      <trkpt lat="-35.068707" lon="-58.2905">
        <time>2021-05-01T14:26:53Z</time>
      </trkpt>
      <trkpt lat="-35.068745" lon="-58.290546">
        <time>2021-05-01T14:26:54Z</time>
      </trkpt>
      <trkpt lat="-35.06878" lon="-58.29059">
        <time>2021-05-01T14:26:55Z</time>
      </trkpt>
      <trkpt lat="-35.068813" lon="-58.290634">
        <time>2021-05-01T14:26:56Z</time>
      </trkpt>
      <trkpt lat="-35.068848" lon="-58.29068">
        <time>2021-05-01T14:26:57Z</time>
      </trkpt>
      <trkpt lat="-35.06888" lon="-58.29072">
        <time>2021-05-01T14:26:58Z</time>
      </trkpt>
      <trkpt lat="-35.068913" lon="-58.290768">
        <time>2021-05-01T14:26:59Z</time>
      </trkpt>
      <trkpt lat="-35.068943" lon="-58.29081">
        <time>2021-05-01T14:27:00Z</time>
      </trkpt>
      <trkpt lat="-35.068974" lon="-58.29085">
        <time>2021-05-01T14:27:01Z</time>
      </trkpt>
      <trkpt lat="-35.06903" lon="-58.290928">
        <time>2021-05-01T14:27:03Z</time>
      </trkpt>
      <trkpt lat="-35.06908" lon="-58.29099">
        <time>2021-05-01T14:27:05Z</time>
      </trkpt>
      <trkpt lat="-35.069134" lon="-58.291023">
        <time>2021-05-01T14:27:07Z</time>
      </trkpt>
      <trkpt lat="-35.069206" lon="-58.291">
        <time>2021-05-01T14:27:09Z</time>
      </trkpt>
      <trkpt lat="-35.069244" lon="-58.290947">
        <time>2021-05-01T14:27:10Z</time>
      </trkpt>
      <trkpt lat="-35.06928" lon="-58.2909">
        <time>2021-05-01T14:27:11Z</time>
      </trkpt>
      <trkpt lat="-35.069317" lon="-58.29086">
        <time>2021-05-01T14:27:12Z</time>
      </trkpt>
      <trkpt lat="-35.06935" lon="-58.290813">
        <time>2021-05-01T14:27:13Z</time>
      </trkpt>
      <trkpt lat="-35.069386" lon="-58.290768">
        <time>2021-05-01T14:27:14Z</time>
      </trkpt>
      <trkpt lat="-35.069447" lon="-58.29069">
        <time>2021-05-01T14:27:16Z</time>
      </trkpt>
      <trkpt lat="-35.069477" lon="-58.29065">
        <time>2021-05-01T14:27:17Z</time>
      </trkpt>
      <trkpt lat="-35.069515" lon="-58.29061">
        <time>2021-05-01T14:27:18Z</time>
      </trkpt>
      <trkpt lat="-35.069553" lon="-58.290573">
        <time>2021-05-01T14:27:19Z</time>
      </trkpt>
      <trkpt lat="-35.069622" lon="-58.2905">
        <time>2021-05-01T14:27:21Z</time>
      </trkpt>
      <trkpt lat="-35.06966" lon="-58.290462">
        <time>2021-05-01T14:27:22Z</time>
      </trkpt>
      <trkpt lat="-35.069695" lon="-58.290424">
        <time>2021-05-01T14:27:23Z</time>
      </trkpt>
      <trkpt lat="-35.069733" lon="-58.29038">
        <time>2021-05-01T14:27:24Z</time>
      </trkpt>
      <trkpt lat="-35.069767" lon="-58.29034">
        <time>2021-05-01T14:27:25Z</time>
      </trkpt>
      <trkpt lat="-35.069805" lon="-58.290302">
        <time>2021-05-01T14:27:26Z</time>
      </trkpt>
      <trkpt lat="-35.06984" lon="-58.290264">
        <time>2021-05-01T14:27:27Z</time>
      </trkpt>
      <trkpt lat="-35.069897" lon="-58.290188">
        <time>2021-05-01T14:27:29Z</time>
      </trkpt>
      <trkpt lat="-35.069954" lon="-58.290127">
        <time>2021-05-01T14:27:31Z</time>
      </trkpt>
      <trkpt lat="-35.070023" lon="-58.290096">
        <time>2021-05-01T14:27:33Z</time>
      </trkpt>
      <trkpt lat="-35.070065" lon="-58.290154">
        <time>2021-05-01T14:27:35Z</time>
      </trkpt>
      <trkpt lat="-35.07009" lon="-58.290207">
        <time>2021-05-01T14:27:37Z</time>
      </trkpt>
      <trkpt lat="-35.07013" lon="-58.29024">
        <time>2021-05-01T14:27:39Z</time>
      </trkpt>
      <trkpt lat="-35.070187" lon="-58.29028">
        <time>2021-05-01T14:27:41Z</time>
      </trkpt>
      <trkpt lat="-35.07024" lon="-58.29031">
        <time>2021-05-01T14:27:43Z</time>
      </trkpt>
      <trkpt lat="-35.070282" lon="-58.290333">
        <time>2021-05-01T14:27:45Z</time>
      </trkpt>
      <trkpt lat="-35.070347" lon="-58.290356">
        <time>2021-05-01T14:27:48Z</time>
      </trkpt>
      <trkpt lat="-35.070465" lon="-58.290432">
        <time>2021-05-01T14:28:17Z</time>
      </trkpt>
      <trkpt lat="-35.070415" lon="-58.290432">
        <time>2021-05-01T14:28:17Z</time>
      </trkpt>
      <trkpt lat="-35.070385" lon="-58.290386">
        <time>2021-05-01T14:28:17Z</time>
      </trkpt>
      <trkpt lat="-35.070515" lon="-58.29035">
        <time>2021-05-01T14:28:24Z</time>
      </trkpt>
      <trkpt lat="-35.070553" lon="-58.290306">
        <time>2021-05-01T14:28:38Z</time>
      </trkpt>
      <trkpt lat="-35.070587" lon="-58.290257">
        <time>2021-05-01T14:28:42Z</time>
      </trkpt>
      <trkpt lat="-35.07063" lon="-58.290215">
        <time>2021-05-01T14:28:48Z</time>
      </trkpt>
      <trkpt lat="-35.070667" lon="-58.29018">
        <time>2021-05-01T14:28:52Z</time>
      </trkpt>
      <trkpt lat="-35.070698" lon="-58.290127">
        <time>2021-05-01T14:28:56Z</time>
      </trkpt>
      <trkpt lat="-35.070732" lon="-58.290085">
        <time>2021-05-01T14:29:00Z</time>
      </trkpt>
      <trkpt lat="-35.072266" lon="-58.29047">
        <time>2021-05-01T14:32:50Z</time>
      </trkpt>
      <trkpt lat="-35.07217" lon="-58.290485">
        <time>2021-05-01T14:32:52Z</time>
      </trkpt>
      <trkpt lat="-35.07222" lon="-58.290565">
        <time>2021-05-01T14:32:54Z</time>
      </trkpt>
      <trkpt lat="-35.072254" lon="-58.29062">
        <time>2021-05-01T14:32:55Z</time>
      </trkpt>
      <trkpt lat="-35.072292" lon="-58.290665">
        <time>2021-05-01T14:32:56Z</time>
      </trkpt>
      <trkpt lat="-35.07235" lon="-58.290737">
        <time>2021-05-01T14:32:57Z</time>
      </trkpt>
      <trkpt lat="-35.072376" lon="-58.290787">
        <time>2021-05-01T14:32:58Z</time>
      </trkpt>
      <trkpt lat="-35.072433" lon="-58.29085">
        <time>2021-05-01T14:33:00Z</time>
      </trkpt>
      <trkpt lat="-35.0725" lon="-58.290924">
        <time>2021-05-01T14:33:02Z</time>
      </trkpt>
      <trkpt lat="-35.072556" lon="-58.290997">
        <time>2021-05-01T14:33:04Z</time>
      </trkpt>
      <trkpt lat="-35.07261" lon="-58.291058">
        <time>2021-05-01T14:33:06Z</time>
      </trkpt>
      <trkpt lat="-35.07266" lon="-58.291126">
        <time>2021-05-01T14:33:08Z</time>
      </trkpt>
      <trkpt lat="-35.0727" lon="-58.291195">
        <time>2021-05-01T14:33:10Z</time>
      </trkpt>
      <trkpt lat="-35.072742" lon="-58.29125">
        <time>2021-05-01T14:33:12Z</time>
      </trkpt>
      <trkpt lat="-35.07279" lon="-58.291306">
        <time>2021-05-01T14:33:14Z</time>
      </trkpt>
      <trkpt lat="-35.072838" lon="-58.291374">
        <time>2021-05-01T14:33:16Z</time>
      </trkpt>
      <trkpt lat="-35.072895" lon="-58.29145">
        <time>2021-05-01T14:33:18Z</time>
      </trkpt>
      <trkpt lat="-35.072926" lon="-58.29149">
        <time>2021-05-01T14:33:19Z</time>
      </trkpt>
      <trkpt lat="-35.07296" lon="-58.29153">
        <time>2021-05-01T14:33:20Z</time>
      </trkpt>
      <trkpt lat="-35.072994" lon="-58.29157">
        <time>2021-05-01T14:33:21Z</time>
      </trkpt>
      <trkpt lat="-35.073025" lon="-58.291615">
        <time>2021-05-01T14:33:22Z</time>
      </trkpt>
      <trkpt lat="-35.073055" lon="-58.29166">
        <time>2021-05-01T14:33:23Z</time>
      </trkpt>
      <trkpt lat="-35.073082" lon="-58.291706">
        <time>2021-05-01T14:33:24Z</time>
      </trkpt>
      <trkpt lat="-35.073116" lon="-58.291756">
        <time>2021-05-01T14:33:25Z</time>
      </trkpt>
      <trkpt lat="-35.07315" lon="-58.291805">
        <time>2021-05-01T14:33:26Z</time>
      </trkpt>
      <trkpt lat="-35.073185" lon="-58.291855">
        <time>2021-05-01T14:33:27Z</time>
      </trkpt>
      <trkpt lat="-35.07322" lon="-58.291904">
        <time>2021-05-01T14:33:28Z</time>
      </trkpt>
      <trkpt lat="-35.073257" lon="-58.291954">
        <time>2021-05-01T14:33:29Z</time>
      </trkpt>
      <trkpt lat="-35.07329" lon="-58.292007">
        <time>2021-05-01T14:33:30Z</time>
      </trkpt>
      <trkpt lat="-35.07333" lon="-58.29206">
        <time>2021-05-01T14:33:31Z</time>
      </trkpt>
      <trkpt lat="-35.07337" lon="-58.29211">
        <time>2021-05-01T14:33:32Z</time>
      </trkpt>
      <trkpt lat="-35.07341" lon="-58.292164">
        <time>2021-05-01T14:33:33Z</time>
      </trkpt>
      <trkpt lat="-35.073452" lon="-58.292213">
        <time>2021-05-01T14:33:34Z</time>
      </trkpt>
      <trkpt lat="-35.07349" lon="-58.29226">
        <time>2021-05-01T14:33:35Z</time>
      </trkpt>
      <trkpt lat="-35.07353" lon="-58.29231">
        <time>2021-05-01T14:33:36Z</time>
      </trkpt>
      <trkpt lat="-35.073563" lon="-58.292362">
        <time>2021-05-01T14:33:37Z</time>
      </trkpt>
      <trkpt lat="-35.073605" lon="-58.292416">
        <time>2021-05-01T14:33:38Z</time>
      </trkpt>
      <trkpt lat="-35.073647" lon="-58.292465">
        <time>2021-05-01T14:33:39Z</time>
      </trkpt>
      <trkpt lat="-35.07369" lon="-58.29252">
        <time>2021-05-01T14:33:40Z</time>
      </trkpt>
      <trkpt lat="-35.073727" lon="-58.292572">
        <time>2021-05-01T14:33:41Z</time>
      </trkpt>
      <trkpt lat="-35.07377" lon="-58.292625">
        <time>2021-05-01T14:33:42Z</time>
      </trkpt>
      <trkpt lat="-35.073807" lon="-58.29267">
        <time>2021-05-01T14:33:43Z</time>
      </trkpt>
      <trkpt lat="-35.073845" lon="-58.292717">
        <time>2021-05-01T14:33:44Z</time>
      </trkpt>
      <trkpt lat="-35.073883" lon="-58.292763">
        <time>2021-05-01T14:33:45Z</time>
      </trkpt>
      <trkpt lat="-35.073917" lon="-58.292805">
        <time>2021-05-01T14:33:46Z</time>
      </trkpt>
      <trkpt lat="-35.073956" lon="-58.29286">
        <time>2021-05-01T14:33:47Z</time>
      </trkpt>
      <trkpt lat="-35.073997" lon="-58.292908">
        <time>2021-05-01T14:33:48Z</time>
      </trkpt>
      <trkpt lat="-35.07403" lon="-58.29296">
        <time>2021-05-01T14:33:49Z</time>
      </trkpt>
      <trkpt lat="-35.074074" lon="-58.29301">
        <time>2021-05-01T14:33:50Z</time>
      </trkpt>
      <trkpt lat="-35.074112" lon="-58.29306">
        <time>2021-05-01T14:33:51Z</time>
      </trkpt>
      <trkpt lat="-35.07415" lon="-58.29311">
        <time>2021-05-01T14:33:52Z</time>
      </trkpt>
      <trkpt lat="-35.074184" lon="-58.29316">
        <time>2021-05-01T14:33:53Z</time>
      </trkpt>
      <trkpt lat="-35.074223" lon="-58.29321">
        <time>2021-05-01T14:33:54Z</time>
      </trkpt>
      <trkpt lat="-35.07426" lon="-58.29326">
        <time>2021-05-01T14:33:55Z</time>
      </trkpt>
      <trkpt lat="-35.0743" lon="-58.293312">
        <time>2021-05-01T14:33:56Z</time>
      </trkpt>
      <trkpt lat="-35.074333" lon="-58.29336">
        <time>2021-05-01T14:33:57Z</time>
      </trkpt>
      <trkpt lat="-35.07437" lon="-58.293415">
        <time>2021-05-01T14:33:58Z</time>
      </trkpt>
      <trkpt lat="-35.07441" lon="-58.29346">
        <time>2021-05-01T14:33:59Z</time>
      </trkpt>
      <trkpt lat="-35.074448" lon="-58.293518">
        <time>2021-05-01T14:34:00Z</time>
      </trkpt>
      <trkpt lat="-35.074482" lon="-58.293568">
        <time>2021-05-01T14:34:01Z</time>
      </trkpt>
      <trkpt lat="-35.07452" lon="-58.293617">
        <time>2021-05-01T14:34:02Z</time>
      </trkpt>
      <trkpt lat="-35.07456" lon="-58.29366">
        <time>2021-05-01T14:34:03Z</time>
      </trkpt>
      <trkpt lat="-35.074596" lon="-58.293705">
        <time>2021-05-01T14:34:04Z</time>
      </trkpt>
      <trkpt lat="-35.07463" lon="-58.29375">
        <time>2021-05-01T14:34:05Z</time>
      </trkpt>
      <trkpt lat="-35.07466" lon="-58.2938">
        <time>2021-05-01T14:34:06Z</time>
      </trkpt>
      <trkpt lat="-35.074696" lon="-58.293842">
        <time>2021-05-01T14:34:07Z</time>
      </trkpt>
      <trkpt lat="-35.07476" lon="-58.29389">
        <time>2021-05-01T14:34:09Z</time>
      </trkpt>
      <trkpt lat="-35.074825" lon="-58.29391">
        <time>2021-05-01T14:34:11Z</time>
      </trkpt>
      <trkpt lat="-35.074886" lon="-58.293922">
        <time>2021-05-01T14:34:13Z</time>
      </trkpt>
      <trkpt lat="-35.074944" lon="-58.293888">
        <time>2021-05-01T14:34:15Z</time>
      </trkpt>
      <trkpt lat="-35.074986" lon="-58.293827">
        <time>2021-05-01T14:34:17Z</time>
      </trkpt>
      <trkpt lat="-35.075047" lon="-58.29375">
        <time>2021-05-01T14:34:19Z</time>
      </trkpt>
      <trkpt lat="-35.07508" lon="-58.293713">
        <time>2021-05-01T14:34:20Z</time>
      </trkpt>
      <trkpt lat="-35.075115" lon="-58.293674">
        <time>2021-05-01T14:34:21Z</time>
      </trkpt>
      <trkpt lat="-35.075153" lon="-58.29363">
        <time>2021-05-01T14:34:22Z</time>
      </trkpt>
      <trkpt lat="-35.075195" lon="-58.293583">
        <time>2021-05-01T14:34:23Z</time>
      </trkpt>
      <trkpt lat="-35.075237" lon="-58.293533">
        <time>2021-05-01T14:34:24Z</time>
      </trkpt>
      <trkpt lat="-35.07528" lon="-58.293484">
        <time>2021-05-01T14:34:25Z</time>
      </trkpt>
      <trkpt lat="-35.075325" lon="-58.293434">
        <time>2021-05-01T14:34:26Z</time>
      </trkpt>
      <trkpt lat="-35.07538" lon="-58.293377">
        <time>2021-05-01T14:34:27Z</time>
      </trkpt>
      <trkpt lat="-35.075428" lon="-58.29332">
        <time>2021-05-01T14:34:28Z</time>
      </trkpt>
      <trkpt lat="-35.075478" lon="-58.293266">
        <time>2021-05-01T14:34:29Z</time>
      </trkpt>
      <trkpt lat="-35.075523" lon="-58.293213">
        <time>2021-05-01T14:34:30Z</time>
      </trkpt>
      <trkpt lat="-35.07557" lon="-58.29316">
        <time>2021-05-01T14:34:31Z</time>
      </trkpt>
      <trkpt lat="-35.075615" lon="-58.29311">
        <time>2021-05-01T14:34:32Z</time>
      </trkpt>
      <trkpt lat="-35.075657" lon="-58.29306">
        <time>2021-05-01T14:34:33Z</time>
      </trkpt>
      <trkpt lat="-35.075703" lon="-58.29301">
        <time>2021-05-01T14:34:34Z</time>
      </trkpt>
      <trkpt lat="-35.07575" lon="-58.29296">
        <time>2021-05-01T14:34:35Z</time>
      </trkpt>
      <trkpt lat="-35.075806" lon="-58.292934">
        <time>2021-05-01T14:34:36Z</time>
      </trkpt>
      <trkpt lat="-35.075867" lon="-58.292953">
        <time>2021-05-01T14:34:37Z</time>
      </trkpt>
      <trkpt lat="-35.075924" lon="-58.29297">
        <time>2021-05-01T14:34:38Z</time>
      </trkpt>
      <trkpt lat="-35.07597" lon="-58.292973">
        <time>2021-05-01T14:34:39Z</time>
      </trkpt>
      <trkpt lat="-35.076015" lon="-58.292957">
        <time>2021-05-01T14:34:40Z</time>
      </trkpt>
      <trkpt lat="-35.076073" lon="-58.292934">
        <time>2021-05-01T14:34:42Z</time>
      </trkpt>
      <trkpt lat="-35.07618" lon="-58.292908">
        <time>2021-05-01T14:34:50Z</time>
      </trkpt>
      <trkpt lat="-35.07613" lon="-58.29295">
        <time>2021-05-01T14:34:50Z</time>
      </trkpt>
      <trkpt lat="-35.076214" lon="-58.29295">
        <time>2021-05-01T14:35:05Z</time>
      </trkpt>
      <trkpt lat="-35.076206" lon="-58.292988">
        <time>2021-05-01T14:35:13Z</time>
      </trkpt>
      <trkpt lat="-35.07587" lon="-58.289787">
        <ele>-4.9016757</ele>
        <time>2021-05-01T16:41:16Z</time>
      </trkpt>
      <trkpt lat="-35.075817" lon="-58.28983">
        <ele>-4.215144</ele>
        <time>2021-05-01T16:41:19Z</time>
      </trkpt>
      <trkpt lat="-35.075768" lon="-58.28988">
        <ele>-5.710554</ele>
        <time>2021-05-01T16:41:21Z</time>
      </trkpt>
      <trkpt lat="-35.075714" lon="-58.289944">
        <ele>-5.6535187</ele>
        <time>2021-05-01T16:41:23Z</time>
      </trkpt>
      <trkpt lat="-35.07566" lon="-58.289993">
        <ele>-4.584339</ele>
        <time>2021-05-01T16:41:25Z</time>
      </trkpt>
      <trkpt lat="-35.075603" lon="-58.290043">
        <ele>-26.427841</ele>
        <time>2021-05-01T16:41:27Z</time>
      </trkpt>
      <trkpt lat="-35.075546" lon="-58.2901">
        <ele>-49.750404</ele>
        <time>2021-05-01T16:41:29Z</time>
      </trkpt>
      <trkpt lat="-35.07547" lon="-58.290165">
        <ele>-61.066605</ele>
        <time>2021-05-01T16:41:31Z</time>
      </trkpt>
      <trkpt lat="-35.075424" lon="-58.290173">
        <ele>-69.54389</ele>
        <time>2021-05-01T16:41:32Z</time>
      </trkpt>
      <trkpt lat="-35.075363" lon="-58.290108">
        <ele>-71.97914</ele>
        <time>2021-05-01T16:41:34Z</time>
      </trkpt>
      <trkpt lat="-35.075314" lon="-58.290043">
        <ele>-70.69279</ele>
        <time>2021-05-01T16:41:36Z</time>
      </trkpt>
      <trkpt lat="-35.075264" lon="-58.289986">
        <ele>-65.95105</ele>
        <time>2021-05-01T16:41:38Z</time>
      </trkpt>
      <trkpt lat="-35.075222" lon="-58.289925">
        <ele>-61.080055</ele>
        <time>2021-05-01T16:41:40Z</time>
      </trkpt>
      <trkpt lat="-35.075172" lon="-58.28986">
        <ele>-60.22967</ele>
        <time>2021-05-01T16:41:42Z</time>
      </trkpt>
      <trkpt lat="-35.075123" lon="-58.289803">
        <ele>-56.12111</ele>
        <time>2021-05-01T16:41:44Z</time>
      </trkpt>
      <trkpt lat="-35.07508" lon="-58.28974">
        <ele>-53.770073</ele>
        <time>2021-05-01T16:41:46Z</time>
      </trkpt>
      <trkpt lat="-35.075024" lon="-58.289677">
        <ele>-54.096046</ele>
        <time>2021-05-01T16:41:48Z</time>
      </trkpt>
      <trkpt lat="-35.074966" lon="-58.289597">
        <ele>-53.382008</ele>
        <time>2021-05-01T16:41:50Z</time>
      </trkpt>
      <trkpt lat="-35.0749" lon="-58.289516">
        <ele>-45.29007</ele>
        <time>2021-05-01T16:41:52Z</time>
      </trkpt>
      <trkpt lat="-35.07487" lon="-58.289474">
        <ele>-41.39627</ele>
        <time>2021-05-01T16:41:53Z</time>
      </trkpt>
      <trkpt lat="-35.074837" lon="-58.289436">
        <ele>-41.09186</ele>
        <time>2021-05-01T16:41:54Z</time>
      </trkpt>
      <trkpt lat="-35.074802" lon="-58.289394">
        <ele>-41.19851</ele>
        <time>2021-05-01T16:41:55Z</time>
      </trkpt>
      <trkpt lat="-35.074768" lon="-58.28935">
        <ele>-41.193333</ele>
        <time>2021-05-01T16:41:56Z</time>
      </trkpt>
      <trkpt lat="-35.074738" lon="-58.289303">
        <ele>-39.48381</ele>
        <time>2021-05-01T16:41:57Z</time>
      </trkpt>
      <trkpt lat="-35.074707" lon="-58.289253">
        <ele>-34.16185</ele>
        <time>2021-05-01T16:41:58Z</time>
      </trkpt>
      <trkpt lat="-35.074677" lon="-58.289204">
        <ele>-30.08799</ele>
        <time>2021-05-01T16:41:59Z</time>
      </trkpt>
      <trkpt lat="-35.074646" lon="-58.28915">
        <ele>-26.752129</ele>
        <time>2021-05-01T16:42:00Z</time>
      </trkpt>
      <trkpt lat="-35.074615" lon="-58.2891">
        <ele>-24.873682</ele>
        <time>2021-05-01T16:42:01Z</time>
      </trkpt>
      <trkpt lat="-35.074577" lon="-58.28906">
        <ele>-22.083183</ele>
        <time>2021-05-01T16:42:02Z</time>
      </trkpt>
      <trkpt lat="-35.07454" lon="-58.289017">
        <ele>-18.113937</ele>
        <time>2021-05-01T16:42:03Z</time>
      </trkpt>
      <trkpt lat="-35.074505" lon="-58.28897">
        <ele>-15.590054</ele>
        <time>2021-05-01T16:42:04Z</time>
      </trkpt>
      <trkpt lat="-35.07447" lon="-58.28893">
        <ele>-22.131887</ele>
        <time>2021-05-01T16:42:05Z</time>
      </trkpt>
      <trkpt lat="-35.074436" lon="-58.288887">
        <ele>-31.460524</ele>
        <time>2021-05-01T16:42:06Z</time>
      </trkpt>
      <trkpt lat="-35.074375" lon="-58.288815">
        <ele>-39.541798</ele>
        <time>2021-05-01T16:42:08Z</time>
      </trkpt>
      <trkpt lat="-35.074318" lon="-58.288746">
        <ele>-47.505337</ele>
        <time>2021-05-01T16:42:10Z</time>
      </trkpt>
      <trkpt lat="-35.074253" lon="-58.288673">
        <ele>-55.188797</ele>
        <time>2021-05-01T16:42:12Z</time>
      </trkpt>
      <trkpt lat="-35.074173" lon="-58.28863">
        <ele>-56.432564</ele>
        <time>2021-05-01T16:42:14Z</time>
      </trkpt>
      <trkpt lat="-35.074123" lon="-58.288635">
        <ele>-60.725216</ele>
        <time>2021-05-01T16:42:15Z</time>
      </trkpt>
      <trkpt lat="-35.074047" lon="-58.288685">
        <ele>-65.28909</ele>
        <time>2021-05-01T16:42:17Z</time>
      </trkpt>
      <trkpt lat="-35.073975" lon="-58.288742">
        <ele>-72.957306</ele>
        <time>2021-05-01T16:42:19Z</time>
      </trkpt>
      <trkpt lat="-35.07391" lon="-58.28881">
        <ele>-77.35438</ele>
        <time>2021-05-01T16:42:21Z</time>
      </trkpt>
      <trkpt lat="-35.07385" lon="-58.288883">
        <ele>-80.26015</ele>
        <time>2021-05-01T16:42:23Z</time>
      </trkpt>
      <trkpt lat="-35.07378" lon="-58.288956">
        <ele>-82.255</ele>
        <time>2021-05-01T16:42:25Z</time>
      </trkpt>
      <trkpt lat="-35.073746" lon="-58.288998">
        <ele>-74.44618</ele>
        <time>2021-05-01T16:42:26Z</time>
      </trkpt>
      <trkpt lat="-35.073715" lon="-58.289036">
        <ele>-62.3204</ele>
        <time>2021-05-01T16:42:27Z</time>
      </trkpt>
      <trkpt lat="-35.073677" lon="-58.289074">
        <ele>-49.154224</ele>
        <time>2021-05-01T16:42:28Z</time>
      </trkpt>
      <trkpt lat="-35.073643" lon="-58.289116">
        <ele>-37.255344</ele>
        <time>2021-05-01T16:42:29Z</time>
      </trkpt>
      <trkpt lat="-35.07357" lon="-58.28919">
        <ele>-28.088604</ele>
        <time>2021-05-01T16:42:31Z</time>
      </trkpt>
      <trkpt lat="-35.073536" lon="-58.289227">
        <ele>-21.414782</ele>
        <time>2021-05-01T16:42:32Z</time>
      </trkpt>
      <trkpt lat="-35.0735" lon="-58.289265">
        <ele>-17.000767</ele>
        <time>2021-05-01T16:42:33Z</time>
      </trkpt>
      <trkpt lat="-35.073467" lon="-58.289303">
        <ele>-14.988841</ele>
        <time>2021-05-01T16:42:34Z</time>
      </trkpt>
      <trkpt lat="-35.073433" lon="-58.289337">
        <ele>-16.621407</ele>
        <time>2021-05-01T16:42:35Z</time>
      </trkpt>
      <trkpt lat="-35.073368" lon="-58.289406">
        <ele>-17.49828</ele>
        <time>2021-05-01T16:42:37Z</time>
      </trkpt>
      <trkpt lat="-35.073307" lon="-58.289474">
        <ele>-14.015465</ele>
        <time>2021-05-01T16:42:39Z</time>
      </trkpt>
      <trkpt lat="-35.073246" lon="-58.28954">
        <ele>-4.0689163</ele>
        <time>2021-05-01T16:42:41Z</time>
      </trkpt>
      <trkpt lat="-35.07318" lon="-58.28961">
        <ele>-31.538212</ele>
        <time>2021-05-01T16:42:43Z</time>
      </trkpt>
      <trkpt lat="-35.073147" lon="-58.289646">
        <ele>-55.775505</ele>
        <time>2021-05-01T16:42:44Z</time>
      </trkpt>
      <trkpt lat="-35.073112" lon="-58.289684">
        <ele>-65.99139</ele>
        <time>2021-05-01T16:42:45Z</time>
      </trkpt>
      <trkpt lat="-35.07305" lon="-58.28976">
        <ele>-72.8415</ele>
        <time>2021-05-01T16:42:47Z</time>
      </trkpt>
      <trkpt lat="-35.072994" lon="-58.289833">
        <ele>-78.512184</ele>
        <time>2021-05-01T16:42:49Z</time>
      </trkpt>
      <trkpt lat="-35.072926" lon="-58.289894">
        <ele>-82.94024</ele>
        <time>2021-05-01T16:42:51Z</time>
      </trkpt>
      <trkpt lat="-35.072887" lon="-58.28993">
        <ele>-88.241615</ele>
        <time>2021-05-01T16:42:52Z</time>
      </trkpt>
      <trkpt lat="-35.072826" lon="-58.29001">
        <ele>-88.32531</ele>
        <time>2021-05-01T16:42:54Z</time>
      </trkpt>
      <trkpt lat="-35.072792" lon="-58.29005">
        <ele>-89.65924</ele>
        <time>2021-05-01T16:42:55Z</time>
      </trkpt>
      <trkpt lat="-35.072758" lon="-58.29009">
        <ele>-90.400055</ele>
        <time>2021-05-01T16:42:56Z</time>
      </trkpt>
      <trkpt lat="-35.07272" lon="-58.290127">
        <ele>-90.5447</ele>
        <time>2021-05-01T16:42:57Z</time>
      </trkpt>
      <trkpt lat="-35.072685" lon="-58.29017">
        <ele>-91.4043</ele>
        <time>2021-05-01T16:42:58Z</time>
      </trkpt>
      <trkpt lat="-35.072647" lon="-58.29021">
        <ele>-94.52831</ele>
        <time>2021-05-01T16:42:59Z</time>
      </trkpt>
      <trkpt lat="-35.07261" lon="-58.290253">
        <ele>-96.21825</ele>
        <time>2021-05-01T16:43:00Z</time>
      </trkpt>
      <trkpt lat="-35.07257" lon="-58.290295">
        <ele>-96.33394</ele>
        <time>2021-05-01T16:43:01Z</time>
      </trkpt>
      <trkpt lat="-35.072533" lon="-58.290337">
        <ele>-95.31751</ele>
        <time>2021-05-01T16:43:02Z</time>
      </trkpt>
      <trkpt lat="-35.072495" lon="-58.290375">
        <ele>-91.92809</ele>
        <time>2021-05-01T16:43:03Z</time>
      </trkpt>
      <trkpt lat="-35.07246" lon="-58.290413">
        <ele>-91.214195</ele>
        <time>2021-05-01T16:43:04Z</time>
      </trkpt>
      <trkpt lat="-35.072422" lon="-58.29045">
        <ele>-90.973465</ele>
        <time>2021-05-01T16:43:05Z</time>
      </trkpt>
      <trkpt lat="-35.072388" lon="-58.290485">
        <ele>-87.9368</ele>
        <time>2021-05-01T16:43:06Z</time>
      </trkpt>
      <trkpt lat="-35.072353" lon="-58.29052">
        <ele>-84.87802</ele>
        <time>2021-05-01T16:43:07Z</time>
      </trkpt>
      <trkpt lat="-35.072285" lon="-58.290592">
        <ele>-85.30689</ele>
        <time>2021-05-01T16:43:09Z</time>
      </trkpt>
      <trkpt lat="-35.072254" lon="-58.29063">
        <ele>-84.27448</ele>
        <time>2021-05-01T16:43:10Z</time>
      </trkpt>
      <trkpt lat="-35.072216" lon="-58.29067">
        <ele>-82.17025</ele>
        <time>2021-05-01T16:43:11Z</time>
      </trkpt>
      <trkpt lat="-35.072178" lon="-58.290707">
        <ele>-80.44207</ele>
        <time>2021-05-01T16:43:12Z</time>
      </trkpt>
      <trkpt lat="-35.072144" lon="-58.290745">
        <ele>-81.11703</ele>
        <time>2021-05-01T16:43:13Z</time>
      </trkpt>
      <trkpt lat="-35.072113" lon="-58.290787">
        <ele>-82.02555</ele>
        <time>2021-05-01T16:43:14Z</time>
      </trkpt>
      <trkpt lat="-35.07208" lon="-58.29083">
        <ele>-81.8023</ele>
        <time>2021-05-01T16:43:15Z</time>
      </trkpt>
      <trkpt lat="-35.072044" lon="-58.29087">
        <ele>-78.726166</ele>
        <time>2021-05-01T16:43:16Z</time>
      </trkpt>
      <trkpt lat="-35.072006" lon="-58.29091">
        <ele>-75.33533</ele>
        <time>2021-05-01T16:43:17Z</time>
      </trkpt>
      <trkpt lat="-35.07197" lon="-58.290947">
        <ele>-70.59765</ele>
        <time>2021-05-01T16:43:18Z</time>
      </trkpt>
      <trkpt lat="-35.071934" lon="-58.290985">
        <ele>-66.79501</ele>
        <time>2021-05-01T16:43:19Z</time>
      </trkpt>
      <trkpt lat="-35.071896" lon="-58.291023">
        <ele>-64.47093</ele>
        <time>2021-05-01T16:43:20Z</time>
      </trkpt>
      <trkpt lat="-35.07186" lon="-58.291065">
        <ele>-63.048645</ele>
        <time>2021-05-01T16:43:21Z</time>
      </trkpt>
      <trkpt lat="-35.071823" lon="-58.291107">
        <ele>-61.00867</ele>
        <time>2021-05-01T16:43:22Z</time>
      </trkpt>
      <trkpt lat="-35.071785" lon="-58.291153">
        <ele>-62.635906</ele>
        <time>2021-05-01T16:43:23Z</time>
      </trkpt>
      <trkpt lat="-35.071743" lon="-58.29119">
        <ele>-63.549297</ele>
        <time>2021-05-01T16:43:24Z</time>
      </trkpt>
      <trkpt lat="-35.071705" lon="-58.291233">
        <ele>-64.30957</ele>
        <time>2021-05-01T16:43:25Z</time>
      </trkpt>
      <trkpt lat="-35.071667" lon="-58.291275">
        <ele>-62.42695</ele>
        <time>2021-05-01T16:43:26Z</time>
      </trkpt>
      <trkpt lat="-35.071632" lon="-58.29132">
        <ele>-64.10993</ele>
        <time>2021-05-01T16:43:27Z</time>
      </trkpt>
      <trkpt lat="-35.071598" lon="-58.291363">
        <ele>-59.63273</ele>
        <time>2021-05-01T16:43:28Z</time>
      </trkpt>
      <trkpt lat="-35.07156" lon="-58.291405">
        <ele>-47.912136</ele>
        <time>2021-05-01T16:43:29Z</time>
      </trkpt>
      <trkpt lat="-35.071526" lon="-58.291443">
        <ele>-36.243557</ele>
        <time>2021-05-01T16:43:30Z</time>
      </trkpt>
      <trkpt lat="-35.07149" lon="-58.29148">
        <ele>-26.52005</ele>
        <time>2021-05-01T16:43:31Z</time>
      </trkpt>
      <trkpt lat="-35.071434" lon="-58.291542">
        <ele>-19.21669</ele>
        <time>2021-05-01T16:43:33Z</time>
      </trkpt>
      <trkpt lat="-35.07137" lon="-58.291557">
        <ele>-17.930487</ele>
        <time>2021-05-01T16:43:35Z</time>
      </trkpt>
      <trkpt lat="-35.071312" lon="-58.2915">
        <ele>-16.55196</ele>
        <time>2021-05-01T16:43:37Z</time>
      </trkpt>
      <trkpt lat="-35.07126" lon="-58.291428">
        <ele>-16.05961</ele>
        <time>2021-05-01T16:43:39Z</time>
      </trkpt>
      <trkpt lat="-35.071228" lon="-58.291386">
        <ele>-15.331948</ele>
        <time>2021-05-01T16:43:40Z</time>
      </trkpt>
      <trkpt lat="-35.071198" lon="-58.291344">
        <ele>-2.1097908</ele>
        <time>2021-05-01T16:43:41Z</time>
      </trkpt>
      <trkpt lat="-35.071163" lon="-58.291298">
        <ele>-0.83507675</ele>
        <time>2021-05-01T16:43:42Z</time>
      </trkpt>
      <trkpt lat="-35.071133" lon="-58.291256">
        <ele>-7.644487</ele>
        <time>2021-05-01T16:43:43Z</time>
      </trkpt>
      <trkpt lat="-35.0711" lon="-58.29121">
        <ele>-10.953054</ele>
        <time>2021-05-01T16:43:44Z</time>
      </trkpt>
      <trkpt lat="-35.071064" lon="-58.291164">
        <ele>-11.763793</ele>
        <time>2021-05-01T16:43:45Z</time>
      </trkpt>
      <trkpt lat="-35.07103" lon="-58.29112">
        <ele>-11.677744</ele>
        <time>2021-05-01T16:43:46Z</time>
      </trkpt>
      <trkpt lat="-35.071" lon="-58.291073">
        <ele>-13.249382</ele>
        <time>2021-05-01T16:43:47Z</time>
      </trkpt>
      <trkpt lat="-35.070965" lon="-58.291023">
        <ele>-16.181921</ele>
        <time>2021-05-01T16:43:48Z</time>
      </trkpt>
      <trkpt lat="-35.07093" lon="-58.290977">
        <ele>-8.654423</ele>
        <time>2021-05-01T16:43:49Z</time>
      </trkpt>
      <trkpt lat="-35.0709" lon="-58.29093">
        <ele>-5.922102</ele>
        <time>2021-05-01T16:43:50Z</time>
      </trkpt>
      <trkpt lat="-35.070866" lon="-58.290886">
        <ele>-18.759634</ele>
        <time>2021-05-01T16:43:51Z</time>
      </trkpt>
      <trkpt lat="-35.070835" lon="-58.290844">
        <ele>-34.655884</ele>
        <time>2021-05-01T16:43:52Z</time>
      </trkpt>
      <trkpt lat="-35.0708" lon="-58.290806">
        <ele>-46.361496</ele>
        <time>2021-05-01T16:43:53Z</time>
      </trkpt>
      <trkpt lat="-35.07074" lon="-58.290733">
        <ele>-54.35682</ele>
        <time>2021-05-01T16:43:55Z</time>
      </trkpt>
      <trkpt lat="-35.070683" lon="-58.29067">
        <ele>-63.04244</ele>
        <time>2021-05-01T16:43:57Z</time>
      </trkpt>
      <trkpt lat="-35.070614" lon="-58.290627">
        <ele>-72.82495</ele>
        <time>2021-05-01T16:43:59Z</time>
      </trkpt>
      <trkpt lat="-35.070553" lon="-58.290596">
        <ele>-76.75685</ele>
        <time>2021-05-01T16:44:01Z</time>
      </trkpt>
      <trkpt lat="-35.070507" lon="-58.29054">
        <ele>-80.051346</ele>
        <time>2021-05-01T16:44:03Z</time>
      </trkpt>
      <trkpt lat="-35.070477" lon="-58.290485">
        <ele>-80.87309</ele>
        <time>2021-05-01T16:44:05Z</time>
      </trkpt>
      <trkpt lat="-35.070442" lon="-58.29044">
        <ele>-80.35317</ele>
        <time>2021-05-01T16:44:07Z</time>
      </trkpt>
      <trkpt lat="-35.07044" lon="-58.29038">
        <ele>-62.050404</ele>
        <time>2021-05-01T16:44:11Z</time>
      </trkpt>
      <trkpt lat="-35.07042" lon="-58.29033">
        <ele>-39.06651</ele>
        <time>2021-05-01T16:44:14Z</time>
      </trkpt>
      <trkpt lat="-35.070396" lon="-58.290306">
        <ele>-19.793955</ele>
        <time>2021-05-01T16:44:24Z</time>
      </trkpt>
      <trkpt lat="-35.07036" lon="-58.29026">
        <ele>-14.338891</ele>
        <time>2021-05-01T16:44:27Z</time>
      </trkpt>
      <trkpt lat="-35.070328" lon="-58.290215">
        <ele>-14.098395</ele>
        <time>2021-05-01T16:44:29Z</time>
      </trkpt>
      <trkpt lat="-35.070282" lon="-58.290157">
        <ele>-2.0714154</ele>
        <time>2021-05-01T16:44:32Z</time>
      </trkpt>
      <trkpt lat="-35.070244" lon="-58.290108">
        <ele>1.3826168</ele>
        <time>2021-05-01T16:44:35Z</time>
      </trkpt>
      <trkpt lat="-35.0702" lon="-58.290066">
        <ele>-12.6885395</ele>
        <time>2021-05-01T16:44:38Z</time>
      </trkpt>
      <trkpt lat="-35.070168" lon="-58.29001">
        <ele>-31.78992</ele>
        <time>2021-05-01T16:44:41Z</time>
      </trkpt>
      <trkpt lat="-35.070118" lon="-58.289963">
        <ele>-42.984512</ele>
        <time>2021-05-01T16:44:44Z</time>
      </trkpt>
      <trkpt lat="-35.070065" lon="-58.289936">
        <ele>-40.635242</ele>
        <time>2021-05-01T16:44:47Z</time>
      </trkpt>
      <trkpt lat="-35.070038" lon="-58.289883">
        <ele>-27.230782</ele>
        <time>2021-05-01T16:44:50Z</time>
      </trkpt>
      <trkpt lat="-35.07" lon="-58.289833">
        <ele>-13.754232</ele>
        <time>2021-05-01T16:44:54Z</time>
      </trkpt>
      <trkpt lat="-35.069965" lon="-58.289783">
        <ele>-11.432036</ele>
        <time>2021-05-01T16:44:58Z</time>
      </trkpt>
      <trkpt lat="-35.06993" lon="-58.289734">
        <ele>-13.635018</ele>
        <time>2021-05-01T16:45:02Z</time>
      </trkpt>
      <trkpt lat="-35.0699" lon="-58.289677">
        <ele>-14.093212</ele>
        <time>2021-05-01T16:45:05Z</time>
      </trkpt>
      <trkpt lat="-35.06987" lon="-58.289635">
        <ele>-12.00224</ele>
        <time>2021-05-01T16:45:07Z</time>
      </trkpt>
      <trkpt lat="-35.069836" lon="-58.28959">
        <ele>-9.097163</ele>
        <time>2021-05-01T16:45:09Z</time>
      </trkpt>
      <trkpt lat="-35.069798" lon="-58.28954">
        <ele>-8.084136</ele>
        <time>2021-05-01T16:45:11Z</time>
      </trkpt>
      <trkpt lat="-35.06976" lon="-58.289486">
        <ele>-7.989778</ele>
        <time>2021-05-01T16:45:13Z</time>
      </trkpt>
      <trkpt lat="-35.069714" lon="-58.289425">
        <ele>-3.3076878</ele>
        <time>2021-05-01T16:45:15Z</time>
      </trkpt>
      <trkpt lat="-35.06966" lon="-58.289368">
        <ele>15.31707</ele>
        <time>2021-05-01T16:45:17Z</time>
      </trkpt>
      <trkpt lat="-35.069614" lon="-58.289314">
        <ele>24.928448</ele>
        <time>2021-05-01T16:45:19Z</time>
      </trkpt>
      <trkpt lat="-35.06957" lon="-58.289253">
        <ele>-9.488053</ele>
        <time>2021-05-01T16:45:21Z</time>
      </trkpt>
      <trkpt lat="-35.06952" lon="-58.289192">
        <ele>-8.664792</ele>
        <time>2021-05-01T16:45:23Z</time>
      </trkpt>
      <trkpt lat="-35.069466" lon="-58.28912">
        <ele>11.97718</ele>
        <time>2021-05-01T16:45:25Z</time>
      </trkpt>
      <trkpt lat="-35.069412" lon="-58.28904">
        <ele>11.97718</ele>
        <time>2021-05-01T16:45:27Z</time>
      </trkpt>
      <trkpt lat="-35.06938" lon="-58.288998">
        <ele>0.13059983</ele>
        <time>2021-05-01T16:45:28Z</time>
      </trkpt>
      <trkpt lat="-35.069347" lon="-58.288956">
        <ele>-9.670535</ele>
        <time>2021-05-01T16:45:29Z</time>
      </trkpt>
      <trkpt lat="-35.069313" lon="-58.288914">
        <ele>-10.523828</ele>
        <time>2021-05-01T16:45:30Z</time>
      </trkpt>
      <trkpt lat="-35.06928" lon="-58.28887">
        <ele>-9.850943</ele>
        <time>2021-05-01T16:45:31Z</time>
      </trkpt>
      <trkpt lat="-35.06925" lon="-58.288826">
        <ele>-8.063398</ele>
        <time>2021-05-01T16:45:32Z</time>
      </trkpt>
      <trkpt lat="-35.069214" lon="-58.288784">
        <ele>-7.595752</ele>
        <time>2021-05-01T16:45:33Z</time>
      </trkpt>
      <trkpt lat="-35.06918" lon="-58.28874">
        <ele>-7.440213</ele>
        <time>2021-05-01T16:45:34Z</time>
      </trkpt>
      <trkpt lat="-35.069145" lon="-58.288692">
        <ele>-6.9341874</ele>
        <time>2021-05-01T16:45:35Z</time>
      </trkpt>
      <trkpt lat="-35.069115" lon="-58.288647">
        <ele>-4.952491</ele>
        <time>2021-05-01T16:45:36Z</time>
      </trkpt>
      <trkpt lat="-35.069077" lon="-58.2886">
        <ele>-7.003663</ele>
        <time>2021-05-01T16:45:37Z</time>
      </trkpt>
      <trkpt lat="-35.069046" lon="-58.28856">
        <ele>-17.328299</ele>
        <time>2021-05-01T16:45:38Z</time>
      </trkpt>
      <trkpt lat="-35.06901" lon="-58.28851">
        <ele>-19.58668</ele>
        <time>2021-05-01T16:45:39Z</time>
      </trkpt>
      <trkpt lat="-35.068977" lon="-58.288464">
        <ele>-16.535376</ele>
        <time>2021-05-01T16:45:40Z</time>
      </trkpt>
      <trkpt lat="-35.068943" lon="-58.288418">
        <ele>-7.706702</ele>
        <time>2021-05-01T16:45:41Z</time>
      </trkpt>
      <trkpt lat="-35.06891" lon="-58.288372">
        <ele>-2.4707222</ele>
        <time>2021-05-01T16:45:42Z</time>
      </trkpt>
      <trkpt lat="-35.068874" lon="-58.288326">
        <ele>-2.1958754</ele>
        <time>2021-05-01T16:45:43Z</time>
      </trkpt>
      <trkpt lat="-35.06884" lon="-58.288284">
        <ele>-2.3058145</ele>
        <time>2021-05-01T16:45:44Z</time>
      </trkpt>
      <trkpt lat="-35.068806" lon="-58.28824">
        <ele>-2.1906896</ele>
        <time>2021-05-01T16:45:45Z</time>
      </trkpt>
      <trkpt lat="-35.06877" lon="-58.288193">
        <ele>-3.3305044</ele>
        <time>2021-05-01T16:45:46Z</time>
      </trkpt>
      <trkpt lat="-35.068737" lon="-58.288147">
        <ele>-3.4362895</ele>
        <time>2021-05-01T16:45:47Z</time>
      </trkpt>
      <trkpt lat="-35.068703" lon="-58.2881">
        <ele>-4.619599</ele>
        <time>2021-05-01T16:45:48Z</time>
      </trkpt>
      <trkpt lat="-35.06867" lon="-58.28805">
        <ele>-6.0475783</ele>
        <time>2021-05-01T16:45:49Z</time>
      </trkpt>
      <trkpt lat="-35.068634" lon="-58.288006">
        <ele>-4.0201735</ele>
        <time>2021-05-01T16:45:50Z</time>
      </trkpt>
      <trkpt lat="-35.068596" lon="-58.28796">
        <ele>3.8349833</ele>
        <time>2021-05-01T16:45:51Z</time>
      </trkpt>
      <trkpt lat="-35.06856" lon="-58.287918">
        <ele>12.552129</ele>
        <time>2021-05-01T16:45:52Z</time>
      </trkpt>
      <trkpt lat="-35.068527" lon="-58.287872">
        <ele>6.1371675</ele>
        <time>2021-05-01T16:45:53Z</time>
      </trkpt>
      <trkpt lat="-35.068497" lon="-58.287827">
        <ele>-3.7017875</ele>
        <time>2021-05-01T16:45:54Z</time>
      </trkpt>
      <trkpt lat="-35.068462" lon="-58.28778">
        <ele>-9.167669</ele>
        <time>2021-05-01T16:45:55Z</time>
      </trkpt>
      <trkpt lat="-35.06843" lon="-58.28774">
        <ele>-17.521082</ele>
        <time>2021-05-01T16:45:56Z</time>
      </trkpt>
      <trkpt lat="-35.068398" lon="-58.287693">
        <ele>-29.202272</ele>
        <time>2021-05-01T16:45:57Z</time>
      </trkpt>
      <trkpt lat="-35.06836" lon="-58.287647">
        <ele>-35.37154</ele>
        <time>2021-05-01T16:45:58Z</time>
      </trkpt>
      <trkpt lat="-35.068325" lon="-58.287598">
        <ele>-39.961166</ele>
        <time>2021-05-01T16:45:59Z</time>
      </trkpt>
      <trkpt lat="-35.06829" lon="-58.28755">
        <ele>-43.06734</ele>
        <time>2021-05-01T16:46:00Z</time>
      </trkpt>
      <trkpt lat="-35.068256" lon="-58.28751">
        <ele>-40.218994</ele>
        <time>2021-05-01T16:46:01Z</time>
      </trkpt>
      <trkpt lat="-35.068222" lon="-58.287464">
        <ele>-36.015717</ele>
        <time>2021-05-01T16:46:02Z</time>
      </trkpt>
      <trkpt lat="-35.068188" lon="-58.287422">
        <ele>-26.864023</ele>
        <time>2021-05-01T16:46:03Z</time>
      </trkpt>
      <trkpt lat="-35.068153" lon="-58.28738">
        <ele>-23.42511</ele>
        <time>2021-05-01T16:46:04Z</time>
      </trkpt>
      <trkpt lat="-35.068123" lon="-58.287334">
        <ele>-17.673445</ele>
        <time>2021-05-01T16:46:05Z</time>
      </trkpt>
      <trkpt lat="-35.06809" lon="-58.28729">
        <ele>-12.486383</ele>
        <time>2021-05-01T16:46:06Z</time>
      </trkpt>
      <trkpt lat="-35.068054" lon="-58.287243">
        <ele>-10.042753</ele>
        <time>2021-05-01T16:46:07Z</time>
      </trkpt>
      <trkpt lat="-35.068016" lon="-58.287197">
        <ele>-6.07454</ele>
        <time>2021-05-01T16:46:08Z</time>
      </trkpt>
      <trkpt lat="-35.06798" lon="-58.28715">
        <ele>-5.012639</ele>
        <time>2021-05-01T16:46:09Z</time>
      </trkpt>
      <trkpt lat="-35.067947" lon="-58.2871">
        <ele>-4.9680467</ele>
        <time>2021-05-01T16:46:10Z</time>
      </trkpt>
      <trkpt lat="-35.067913" lon="-58.287056">
        <ele>-6.7537575</ele>
        <time>2021-05-01T16:46:11Z</time>
      </trkpt>
      <trkpt lat="-35.06788" lon="-58.287006">
        <ele>-7.755437</ele>
        <time>2021-05-01T16:46:12Z</time>
      </trkpt>
      <trkpt lat="-35.067844" lon="-58.28696">
        <ele>-6.762053</ele>
        <time>2021-05-01T16:46:13Z</time>
      </trkpt>
      <trkpt lat="-35.067806" lon="-58.28691">
        <ele>-5.2563415</ele>
        <time>2021-05-01T16:46:14Z</time>
      </trkpt>
      <trkpt lat="-35.067776" lon="-58.286865">
        <ele>-3.1075242</ele>
        <time>2021-05-01T16:46:15Z</time>
      </trkpt>
      <trkpt lat="-35.06774" lon="-58.286823">
        <ele>-5.183749</ele>
        <time>2021-05-01T16:46:16Z</time>
      </trkpt>
      <trkpt lat="-35.06771" lon="-58.28678">
        <ele>6.2917614</ele>
        <time>2021-05-01T16:46:17Z</time>
      </trkpt>
      <trkpt lat="-35.067677" lon="-58.286743">
        <ele>8.762292</ele>
        <time>2021-05-01T16:46:18Z</time>
      </trkpt>
      <trkpt lat="-35.06762" lon="-58.286663">
        <ele>4.802931</ele>
        <time>2021-05-01T16:46:20Z</time>
      </trkpt>
      <trkpt lat="-35.06756" lon="-58.28661">
        <ele>2.0392528</ele>
        <time>2021-05-01T16:46:22Z</time>
      </trkpt>
      <trkpt lat="-35.067497" lon="-58.286633">
        <ele>9.715919</ele>
        <time>2021-05-01T16:46:24Z</time>
      </trkpt>
      <trkpt lat="-35.067448" lon="-58.286694">
        <ele>1.5361414</ele>
        <time>2021-05-01T16:46:26Z</time>
      </trkpt>
      <trkpt lat="-35.067387" lon="-58.286766">
        <ele>-10.566336</ele>
        <time>2021-05-01T16:46:28Z</time>
      </trkpt>
      <trkpt lat="-35.067314" lon="-58.28683">
        <ele>-12.416924</ele>
        <time>2021-05-01T16:46:30Z</time>
      </trkpt>
      <trkpt lat="-35.06724" lon="-58.2869">
        <ele>-12.385824</ele>
        <time>2021-05-01T16:46:32Z</time>
      </trkpt>
      <trkpt lat="-35.067207" lon="-58.286934">
        <ele>-13.239016</ele>
        <time>2021-05-01T16:46:33Z</time>
      </trkpt>
      <trkpt lat="-35.067165" lon="-58.28697">
        <ele>-15.68438</ele>
        <time>2021-05-01T16:46:34Z</time>
      </trkpt>
      <trkpt lat="-35.06713" lon="-58.287006">
        <ele>-15.899982</ele>
        <time>2021-05-01T16:46:35Z</time>
      </trkpt>
      <trkpt lat="-35.067097" lon="-58.287045">
        <ele>-14.016501</ele>
        <time>2021-05-01T16:46:36Z</time>
      </trkpt>
      <trkpt lat="-35.067062" lon="-58.287083">
        <ele>-13.744903</ele>
        <time>2021-05-01T16:46:37Z</time>
      </trkpt>
      <trkpt lat="-35.066998" lon="-58.28715">
        <ele>-12.557916</ele>
        <time>2021-05-01T16:46:39Z</time>
      </trkpt>
      <trkpt lat="-35.066933" lon="-58.28722">
        <ele>-9.084721</ele>
        <time>2021-05-01T16:46:41Z</time>
      </trkpt>
      <trkpt lat="-35.066868" lon="-58.287292">
        <ele>-6.2280135</ele>
        <time>2021-05-01T16:46:43Z</time>
      </trkpt>
      <trkpt lat="-35.0668" lon="-58.287365">
        <ele>-9.206033</ele>
        <time>2021-05-01T16:46:45Z</time>
      </trkpt>
      <trkpt lat="-35.066734" lon="-58.28744">
        <ele>-14.091139</ele>
        <time>2021-05-01T16:46:47Z</time>
      </trkpt>
      <trkpt lat="-35.06667" lon="-58.287518">
        <ele>-12.262456</ele>
        <time>2021-05-01T16:46:49Z</time>
      </trkpt>
      <trkpt lat="-35.066635" lon="-58.287556">
        <ele>-7.099062</ele>
        <time>2021-05-01T16:46:50Z</time>
      </trkpt>
      <trkpt lat="-35.066574" lon="-58.287632">
        <ele>-5.55604</ele>
        <time>2021-05-01T16:46:52Z</time>
      </trkpt>
      <trkpt lat="-35.066513" lon="-58.287693">
        <ele>-5.221082</ele>
        <time>2021-05-01T16:46:54Z</time>
      </trkpt>
      <trkpt lat="-35.06645" lon="-58.28775">
        <ele>-5.6327786</ele>
        <time>2021-05-01T16:46:56Z</time>
      </trkpt>
      <trkpt lat="-35.066387" lon="-58.287815">
        <ele>-5.36834</ele>
        <time>2021-05-01T16:46:58Z</time>
      </trkpt>
      <trkpt lat="-35.066326" lon="-58.28788">
        <ele>-4.767897</ele>
        <time>2021-05-01T16:47:00Z</time>
      </trkpt>
      <trkpt lat="-35.06626" lon="-58.287952">
        <ele>5.721118</ele>
        <time>2021-05-01T16:47:02Z</time>
      </trkpt>
      <trkpt lat="-35.066227" lon="-58.28799">
        <ele>7.5036473</ele>
        <time>2021-05-01T16:47:03Z</time>
      </trkpt>
      <trkpt lat="-35.066162" lon="-58.288067">
        <ele>-0.21480794</ele>
        <time>2021-05-01T16:47:05Z</time>
      </trkpt>
      <trkpt lat="-35.066128" lon="-58.2881">
        <ele>-3.727715</ele>
        <time>2021-05-01T16:47:06Z</time>
      </trkpt>
      <trkpt lat="-35.066055" lon="-58.28817">
        <ele>-5.5249295</ele>
        <time>2021-05-01T16:47:08Z</time>
      </trkpt>
      <trkpt lat="-35.065994" lon="-58.288242">
        <ele>-7.1612782</ele>
        <time>2021-05-01T16:47:10Z</time>
      </trkpt>
      <trkpt lat="-35.065945" lon="-58.288307">
        <ele>-7.3344464</ele>
        <time>2021-05-01T16:47:12Z</time>
      </trkpt>
      <trkpt lat="-35.065903" lon="-58.288376">
        <ele>-7.5314627</ele>
        <time>2021-05-01T16:47:14Z</time>
      </trkpt>
      <trkpt lat="-35.065857" lon="-58.288445">
        <ele>-6.1979413</ele>
        <time>2021-05-01T16:47:16Z</time>
      </trkpt>
      <trkpt lat="-35.065807" lon="-58.288506">
        <ele>-7.169574</ele>
        <time>2021-05-01T16:47:18Z</time>
      </trkpt>
      <trkpt lat="-35.065754" lon="-58.28856">
        <ele>-6.4654813</ele>
        <time>2021-05-01T16:47:20Z</time>
      </trkpt>
      <trkpt lat="-35.065697" lon="-58.288624">
        <ele>-0.9574689</ele>
        <time>2021-05-01T16:47:22Z</time>
      </trkpt>
      <trkpt lat="-35.06564" lon="-58.288696">
        <ele>6.5511494</ele>
        <time>2021-05-01T16:47:24Z</time>
      </trkpt>
      <trkpt lat="-35.065575" lon="-58.28877">
        <ele>24.037529</ele>
        <time>2021-05-01T16:47:27Z</time>
      </trkpt>
      <trkpt lat="-35.065514" lon="-58.288845">
        <ele>19.896975</ele>
        <time>2021-05-01T16:47:29Z</time>
      </trkpt>
      <trkpt lat="-35.06545" lon="-58.288918">
        <ele>0.45215526</ele>
        <time>2021-05-01T16:47:31Z</time>
      </trkpt>
      <trkpt lat="-35.065388" lon="-58.288986">
        <ele>-23.052073</ele>
        <time>2021-05-01T16:47:33Z</time>
      </trkpt>
      <trkpt lat="-35.06533" lon="-58.28904">
        <ele>-32.331654</ele>
        <time>2021-05-01T16:47:35Z</time>
      </trkpt>
      <trkpt lat="-35.065277" lon="-58.289074">
        <ele>-32.76047</ele>
        <time>2021-05-01T16:47:37Z</time>
      </trkpt>
      <trkpt lat="-35.06522" lon="-58.28905">
        <ele>-29.745102</ele>
        <time>2021-05-01T16:47:39Z</time>
      </trkpt>
      <trkpt lat="-35.065166" lon="-58.28899">
        <ele>-26.678568</ele>
        <time>2021-05-01T16:47:41Z</time>
      </trkpt>
      <trkpt lat="-35.06511" lon="-58.28892">
        <ele>-24.695463</ele>
        <time>2021-05-01T16:47:43Z</time>
      </trkpt>
      <trkpt lat="-35.06505" lon="-58.28885">
        <ele>-23.995016</ele>
        <time>2021-05-01T16:47:45Z</time>
      </trkpt>
      <trkpt lat="-35.06499" lon="-58.28878">
        <ele>-23.202324</ele>
        <time>2021-05-01T16:47:47Z</time>
      </trkpt>
      <trkpt lat="-35.06493" lon="-58.288708">
        <ele>-21.588879</ele>
        <time>2021-05-01T16:47:49Z</time>
      </trkpt>
      <trkpt lat="-35.064873" lon="-58.288635">
        <ele>-21.436543</ele>
        <time>2021-05-01T16:47:51Z</time>
      </trkpt>
      <trkpt lat="-35.064816" lon="-58.28856">
        <ele>-22.25313</ele>
        <time>2021-05-01T16:47:53Z</time>
      </trkpt>
      <trkpt lat="-35.06476" lon="-58.288483">
        <ele>-27.439024</ele>
        <time>2021-05-01T16:47:55Z</time>
      </trkpt>
      <trkpt lat="-35.064705" lon="-58.28841">
        <ele>-38.18321</ele>
        <time>2021-05-01T16:47:57Z</time>
      </trkpt>
      <trkpt lat="-35.06464" lon="-58.28835">
        <ele>-39.350235</ele>
        <time>2021-05-01T16:47:59Z</time>
      </trkpt>
      <trkpt lat="-35.06457" lon="-58.28829">
        <ele>-39.367836</ele>
        <time>2021-05-01T16:48:01Z</time>
      </trkpt>
      <trkpt lat="-35.064514" lon="-58.28822">
        <ele>-39.125534</ele>
        <time>2021-05-01T16:48:03Z</time>
      </trkpt>
      <trkpt lat="-35.064457" lon="-58.288155">
        <ele>-39.155563</ele>
        <time>2021-05-01T16:48:05Z</time>
      </trkpt>
      <trkpt lat="-35.064396" lon="-58.288086">
        <ele>-37.14143</ele>
        <time>2021-05-01T16:48:07Z</time>
      </trkpt>
      <trkpt lat="-35.064335" lon="-58.288013">
        <ele>-37.9295</ele>
        <time>2021-05-01T16:48:09Z</time>
      </trkpt>
      <trkpt lat="-35.064274" lon="-58.287937">
        <ele>-33.5373</ele>
        <time>2021-05-01T16:48:11Z</time>
      </trkpt>
      <trkpt lat="-35.06421" lon="-58.287865">
        <ele>-25.267412</ele>
        <time>2021-05-01T16:48:13Z</time>
      </trkpt>
      <trkpt lat="-35.064148" lon="-58.287796">
        <ele>-21.36193</ele>
        <time>2021-05-01T16:48:15Z</time>
      </trkpt>
      <trkpt lat="-35.064087" lon="-58.287727">
        <ele>-20.696615</ele>
        <time>2021-05-01T16:48:17Z</time>
      </trkpt>
      <trkpt lat="-35.064026" lon="-58.28766">
        <ele>-27.494968</ele>
        <time>2021-05-01T16:48:19Z</time>
      </trkpt>
      <trkpt lat="-35.063965" lon="-58.28759">
        <ele>-30.19158</ele>
        <time>2021-05-01T16:48:21Z</time>
      </trkpt>
      <trkpt lat="-35.063904" lon="-58.28751">
        <ele>-26.491041</ele>
        <time>2021-05-01T16:48:23Z</time>
      </trkpt>
      <trkpt lat="-35.06384" lon="-58.287437">
        <ele>-18.3233</ele>
        <time>2021-05-01T16:48:25Z</time>
      </trkpt>
      <trkpt lat="-35.06377" lon="-58.287365">
        <ele>-14.2030945</ele>
        <time>2021-05-01T16:48:27Z</time>
      </trkpt>
      <trkpt lat="-35.063705" lon="-58.287292">
        <ele>-13.030644</ele>
        <time>2021-05-01T16:48:29Z</time>
      </trkpt>
      <trkpt lat="-35.063644" lon="-58.287216">
        <ele>-12.418999</ele>
        <time>2021-05-01T16:48:31Z</time>
      </trkpt>
      <trkpt lat="-35.063583" lon="-58.28714">
        <ele>-12.144271</ele>
        <time>2021-05-01T16:48:33Z</time>
      </trkpt>
      <trkpt lat="-35.06352" lon="-58.287067">
        <ele>-11.622797</ele>
        <time>2021-05-01T16:48:35Z</time>
      </trkpt>
      <trkpt lat="-35.06346" lon="-58.286995">
        <ele>-10.565299</ele>
        <time>2021-05-01T16:48:37Z</time>
      </trkpt>
      <trkpt lat="-35.063396" lon="-58.286922">
        <ele>-29.38149</ele>
        <time>2021-05-01T16:48:39Z</time>
      </trkpt>
      <trkpt lat="-35.063335" lon="-58.28685">
        <ele>-43.55808</ele>
        <time>2021-05-01T16:48:41Z</time>
      </trkpt>
      <trkpt lat="-35.063274" lon="-58.28678">
        <ele>-50.78747</ele>
        <time>2021-05-01T16:48:43Z</time>
      </trkpt>
      <trkpt lat="-35.063217" lon="-58.286713">
        <ele>-55.791027</ele>
        <time>2021-05-01T16:48:45Z</time>
      </trkpt>
      <trkpt lat="-35.06316" lon="-58.286663">
        <ele>-57.551067</ele>
        <time>2021-05-01T16:48:47Z</time>
      </trkpt>
      <trkpt lat="-35.063087" lon="-58.28667">
        <ele>-43.68749</ele>
        <time>2021-05-01T16:48:49Z</time>
      </trkpt>
      <trkpt lat="-35.063015" lon="-58.28673">
        <ele>-18.683975</ele>
        <time>2021-05-01T16:48:51Z</time>
      </trkpt>
      <trkpt lat="-35.062958" lon="-58.286808">
        <ele>-7.460952</ele>
        <time>2021-05-01T16:48:53Z</time>
      </trkpt>
      <trkpt lat="-35.0629" lon="-58.286877">
        <ele>-4.2369227</ele>
        <time>2021-05-01T16:48:55Z</time>
      </trkpt>
      <trkpt lat="-35.062843" lon="-58.28695">
        <ele>-5.3475995</ele>
        <time>2021-05-01T16:48:57Z</time>
      </trkpt>
      <trkpt lat="-35.062786" lon="-58.28702">
        <ele>-6.4551115</ele>
        <time>2021-05-01T16:48:59Z</time>
      </trkpt>
      <trkpt lat="-35.062733" lon="-58.287098">
        <ele>-0.98339945</ele>
        <time>2021-05-01T16:49:01Z</time>
      </trkpt>
      <trkpt lat="-35.06268" lon="-58.28717">
        <ele>10.284586</ele>
        <time>2021-05-01T16:49:03Z</time>
      </trkpt>
      <trkpt lat="-35.062626" lon="-58.287247">
        <ele>-6.766201</ele>
        <time>2021-05-01T16:49:05Z</time>
      </trkpt>
      <trkpt lat="-35.062572" lon="-58.287315">
        <ele>-26.270357</ele>
        <time>2021-05-01T16:49:07Z</time>
      </trkpt>
      <trkpt lat="-35.062515" lon="-58.28739">
        <ele>-28.030586</ele>
        <time>2021-05-01T16:49:09Z</time>
      </trkpt>
      <trkpt lat="-35.062458" lon="-58.28746">
        <ele>-25.273628</ele>
        <time>2021-05-01T16:49:11Z</time>
      </trkpt>
      <trkpt lat="-35.062405" lon="-58.287537">
        <ele>-24.361822</ele>
        <time>2021-05-01T16:49:13Z</time>
      </trkpt>
      <trkpt lat="-35.06235" lon="-58.287613">
        <ele>-21.957794</ele>
        <time>2021-05-01T16:49:15Z</time>
      </trkpt>
      <trkpt lat="-35.062298" lon="-58.287685">
        <ele>-20.778486</ele>
        <time>2021-05-01T16:49:17Z</time>
      </trkpt>
      <trkpt lat="-35.062244" lon="-58.28776">
        <ele>-21.88111</ele>
        <time>2021-05-01T16:49:19Z</time>
      </trkpt>
      <trkpt lat="-35.062187" lon="-58.287834">
        <ele>-23.308018</ele>
        <time>2021-05-01T16:49:21Z</time>
      </trkpt>
      <trkpt lat="-35.062134" lon="-58.287903">
        <ele>-22.829283</ele>
        <time>2021-05-01T16:49:23Z</time>
      </trkpt>
      <trkpt lat="-35.062077" lon="-58.287975">
        <ele>-21.156742</ele>
        <time>2021-05-01T16:49:25Z</time>
      </trkpt>
      <trkpt lat="-35.062023" lon="-58.288048">
        <ele>-20.150463</ele>
        <time>2021-05-01T16:49:27Z</time>
      </trkpt>
      <trkpt lat="-35.061966" lon="-58.28812">
        <ele>-20.150463</ele>
        <time>2021-05-01T16:49:29Z</time>
      </trkpt>
      <trkpt lat="-35.06191" lon="-58.288197">
        <ele>-19.959774</ele>
        <time>2021-05-01T16:49:31Z</time>
      </trkpt>
      <trkpt lat="-35.06185" lon="-58.288277">
        <ele>-37.069973</ele>
        <time>2021-05-01T16:49:33Z</time>
      </trkpt>
      <trkpt lat="-35.0618" lon="-58.288353">
        <ele>-50.81438</ele>
        <time>2021-05-01T16:49:35Z</time>
      </trkpt>
      <trkpt lat="-35.06174" lon="-58.288425">
        <ele>-58.4657</ele>
        <time>2021-05-01T16:49:37Z</time>
      </trkpt>
      <trkpt lat="-35.061684" lon="-58.28849">
        <ele>-62.00075</ele>
        <time>2021-05-01T16:49:39Z</time>
      </trkpt>
      <trkpt lat="-35.06163" lon="-58.28855">
        <ele>-62.59453</ele>
        <time>2021-05-01T16:49:41Z</time>
      </trkpt>
      <trkpt lat="-35.06158" lon="-58.288616">
        <ele>-64.89605</ele>
        <time>2021-05-01T16:49:43Z</time>
      </trkpt>
      <trkpt lat="-35.061535" lon="-58.28868">
        <ele>-68.11262</ele>
        <time>2021-05-01T16:49:45Z</time>
      </trkpt>
      <trkpt lat="-35.061485" lon="-58.28875">
        <ele>-69.969955</ele>
        <time>2021-05-01T16:49:47Z</time>
      </trkpt>
      <trkpt lat="-35.061424" lon="-58.28881">
        <ele>-70.09198</ele>
        <time>2021-05-01T16:49:49Z</time>
      </trkpt>
      <trkpt lat="-35.06131" lon="-58.288857">
        <ele>-69.89549</ele>
        <time>2021-05-01T16:49:52Z</time>
      </trkpt>
      <trkpt lat="-35.061237" lon="-58.28886">
        <ele>-69.30398</ele>
        <time>2021-05-01T16:49:54Z</time>
      </trkpt>
      <trkpt lat="-35.06116" lon="-58.288845">
        <ele>-70.38979</ele>
        <time>2021-05-01T16:49:56Z</time>
      </trkpt>
      <trkpt lat="-35.06109" lon="-58.28882">
        <ele>-73.144455</ele>
        <time>2021-05-01T16:49:58Z</time>
      </trkpt>
      <trkpt lat="-35.061016" lon="-58.288784">
        <ele>-72.10116</ele>
        <time>2021-05-01T16:50:00Z</time>
      </trkpt>
      <trkpt lat="-35.06095" lon="-58.28874">
        <ele>-58.01149</ele>
        <time>2021-05-01T16:50:02Z</time>
      </trkpt>
      <trkpt lat="-35.06089" lon="-58.28869">
        <ele>-44.838707</ele>
        <time>2021-05-01T16:50:04Z</time>
      </trkpt>
      <trkpt lat="-35.060833" lon="-58.28864">
        <ele>-39.840015</ele>
        <time>2021-05-01T16:50:06Z</time>
      </trkpt>
      <trkpt lat="-35.06077" lon="-58.288578">
        <ele>-41.618877</ele>
        <time>2021-05-01T16:50:08Z</time>
      </trkpt>
      <trkpt lat="-35.06073" lon="-58.288548">
        <ele>-49.56617</ele>
        <time>2021-05-01T16:50:09Z</time>
      </trkpt>
      <trkpt lat="-35.06069" lon="-58.288517">
        <ele>-55.379192</ele>
        <time>2021-05-01T16:50:10Z</time>
      </trkpt>
      <trkpt lat="-35.06065" lon="-58.288486">
        <ele>-58.06736</ele>
        <time>2021-05-01T16:50:11Z</time>
      </trkpt>
      <trkpt lat="-35.060585" lon="-58.288445">
        <ele>-63.664116</ele>
        <time>2021-05-01T16:50:13Z</time>
      </trkpt>
      <trkpt lat="-35.060528" lon="-58.2884">
        <ele>-66.77536</ele>
        <time>2021-05-01T16:50:15Z</time>
      </trkpt>
      <trkpt lat="-35.06046" lon="-58.28835">
        <ele>-69.1168</ele>
        <time>2021-05-01T16:50:17Z</time>
      </trkpt>
      <trkpt lat="-35.06042" lon="-58.28832">
        <ele>-70.048546</ele>
        <time>2021-05-01T16:50:18Z</time>
      </trkpt>
      <trkpt lat="-35.060383" lon="-58.28829">
        <ele>-70.28432</ele>
        <time>2021-05-01T16:50:19Z</time>
      </trkpt>
      <trkpt lat="-35.060345" lon="-58.28826">
        <ele>-70.35774</ele>
        <time>2021-05-01T16:50:20Z</time>
      </trkpt>
      <trkpt lat="-35.060307" lon="-58.28823">
        <ele>-70.40117</ele>
        <time>2021-05-01T16:50:21Z</time>
      </trkpt>
      <trkpt lat="-35.06023" lon="-58.28818">
        <ele>-69.87895</ele>
        <time>2021-05-01T16:50:23Z</time>
      </trkpt>
      <trkpt lat="-35.06015" lon="-58.28813">
        <ele>-57.143406</ele>
        <time>2021-05-01T16:50:25Z</time>
      </trkpt>
      <trkpt lat="-35.060112" lon="-58.2881">
        <ele>-44.901855</ele>
        <time>2021-05-01T16:50:26Z</time>
      </trkpt>
      <trkpt lat="-35.060074" lon="-58.288074">
        <ele>-41.941917</ele>
        <time>2021-05-01T16:50:27Z</time>
      </trkpt>
      <trkpt lat="-35.060036" lon="-58.28804">
        <ele>-44.351105</ele>
        <time>2021-05-01T16:50:28Z</time>
      </trkpt>
      <trkpt lat="-35.059994" lon="-58.28801">
        <ele>-47.86866</ele>
        <time>2021-05-01T16:50:29Z</time>
      </trkpt>
      <trkpt lat="-35.05995" lon="-58.287983">
        <ele>-52.83456</ele>
        <time>2021-05-01T16:50:30Z</time>
      </trkpt>
      <trkpt lat="-35.059914" lon="-58.287952">
        <ele>-54.355785</ele>
        <time>2021-05-01T16:50:31Z</time>
      </trkpt>
      <trkpt lat="-35.05987" lon="-58.28792">
        <ele>-55.495087</ele>
        <time>2021-05-01T16:50:32Z</time>
      </trkpt>
      <trkpt lat="-35.05983" lon="-58.287888">
        <ele>-47.912136</ele>
        <time>2021-05-01T16:50:33Z</time>
      </trkpt>
      <trkpt lat="-35.05979" lon="-58.287857">
        <ele>-36.816254</ele>
        <time>2021-05-01T16:50:34Z</time>
      </trkpt>
      <trkpt lat="-35.059753" lon="-58.287827">
        <ele>-27.119926</ele>
        <time>2021-05-01T16:50:35Z</time>
      </trkpt>
      <trkpt lat="-35.059715" lon="-58.287792">
        <ele>-18.45389</ele>
        <time>2021-05-01T16:50:36Z</time>
      </trkpt>
      <trkpt lat="-35.05964" lon="-58.28773">
        <ele>-15.963212</ele>
        <time>2021-05-01T16:50:38Z</time>
      </trkpt>
      <trkpt lat="-35.0596" lon="-58.287704">
        <ele>-14.14919</ele>
        <time>2021-05-01T16:50:39Z</time>
      </trkpt>
      <trkpt lat="-35.05956" lon="-58.287674">
        <ele>-14.562799</ele>
        <time>2021-05-01T16:50:40Z</time>
      </trkpt>
      <trkpt lat="-35.059517" lon="-58.287647">
        <ele>-16.424469</ele>
        <time>2021-05-01T16:50:41Z</time>
      </trkpt>
      <trkpt lat="-35.05948" lon="-58.28762">
        <ele>-13.122909</ele>
        <time>2021-05-01T16:50:42Z</time>
      </trkpt>
      <trkpt lat="-35.0594" lon="-58.287582">
        <ele>-9.859237</ele>
        <time>2021-05-01T16:50:44Z</time>
      </trkpt>
      <trkpt lat="-35.05932" lon="-58.287544">
        <ele>-6.3078613</ele>
        <time>2021-05-01T16:50:46Z</time>
      </trkpt>
      <trkpt lat="-35.05925" lon="-58.28749">
        <ele>-4.090695</ele>
        <time>2021-05-01T16:50:48Z</time>
      </trkpt>
      <trkpt lat="-35.059208" lon="-58.287468">
        <ele>-6.442668</ele>
        <time>2021-05-01T16:50:49Z</time>
      </trkpt>
      <trkpt lat="-35.059128" lon="-58.28741">
        <ele>-8.436679</ele>
        <time>2021-05-01T16:50:51Z</time>
      </trkpt>
      <trkpt lat="-35.05909" lon="-58.287384">
        <ele>-6.3742275</ele>
        <time>2021-05-01T16:50:52Z</time>
      </trkpt>
      <trkpt lat="-35.059013" lon="-58.287334">
        <ele>-2.7186</ele>
        <time>2021-05-01T16:50:54Z</time>
      </trkpt>
      <trkpt lat="-35.05894" lon="-58.287285">
        <ele>-5.326859</ele>
        <time>2021-05-01T16:50:56Z</time>
      </trkpt>
      <trkpt lat="-35.058865" lon="-58.28723">
        <ele>-4.4204836</ele>
        <time>2021-05-01T16:50:58Z</time>
      </trkpt>
      <trkpt lat="-35.058792" lon="-58.287167">
        <ele>-3.1116726</ele>
        <time>2021-05-01T16:51:00Z</time>
      </trkpt>
      <trkpt lat="-35.058723" lon="-58.287098">
        <ele>-5.6348524</ele>
        <time>2021-05-01T16:51:02Z</time>
      </trkpt>
      <trkpt lat="-35.05869" lon="-58.287064">
        <ele>-4.159142</ele>
        <time>2021-05-01T16:51:03Z</time>
      </trkpt>
      <trkpt lat="-35.05865" lon="-58.287033">
        <ele>-4.0938063</ele>
        <time>2021-05-01T16:51:04Z</time>
      </trkpt>
      <trkpt lat="-35.05858" lon="-58.286972">
        <ele>6.7783756</ele>
        <time>2021-05-01T16:51:06Z</time>
      </trkpt>
      <trkpt lat="-35.0585" lon="-58.286922">
        <ele>8.416754</ele>
        <time>2021-05-01T16:51:08Z</time>
      </trkpt>
      <trkpt lat="-35.05842" lon="-58.286873">
        <ele>5.0394773</ele>
        <time>2021-05-01T16:51:10Z</time>
      </trkpt>
      <trkpt lat="-35.058376" lon="-58.28685">
        <ele>0.8888555</ele>
        <time>2021-05-01T16:51:11Z</time>
      </trkpt>
      <trkpt lat="-35.058334" lon="-58.286823">
        <ele>-0.07166661</ele>
        <time>2021-05-01T16:51:12Z</time>
      </trkpt>
      <trkpt lat="-35.058292" lon="-58.286804">
        <ele>1.850455</ele>
        <time>2021-05-01T16:51:13Z</time>
      </trkpt>
      <trkpt lat="-35.05825" lon="-58.286785">
        <ele>-2.0382261</ele>
        <time>2021-05-01T16:51:14Z</time>
      </trkpt>
      <trkpt lat="-35.058167" lon="-58.28675">
        <ele>-4.6901183</ele>
        <time>2021-05-01T16:51:16Z</time>
      </trkpt>
      <trkpt lat="-35.05812" lon="-58.286736">
        <ele>-0.562285</ele>
        <time>2021-05-01T16:51:17Z</time>
      </trkpt>
      <trkpt lat="-35.058037" lon="-58.28671">
        <ele>-6.833603</ele>
        <time>2021-05-01T16:51:19Z</time>
      </trkpt>
      <trkpt lat="-35.057953" lon="-58.286674">
        <ele>-19.552479</ele>
        <time>2021-05-01T16:51:21Z</time>
      </trkpt>
      <trkpt lat="-35.057877" lon="-58.28663">
        <ele>-34.593742</ele>
        <time>2021-05-01T16:51:23Z</time>
      </trkpt>
      <trkpt lat="-35.0578" lon="-58.286583">
        <ele>-43.12014</ele>
        <time>2021-05-01T16:51:25Z</time>
      </trkpt>
      <trkpt lat="-35.05772" lon="-58.28655">
        <ele>-44.733112</ele>
        <time>2021-05-01T16:51:27Z</time>
      </trkpt>
      <trkpt lat="-35.057636" lon="-58.286514">
        <ele>-39.98291</ele>
        <time>2021-05-01T16:51:29Z</time>
      </trkpt>
      <trkpt lat="-35.057556" lon="-58.28649">
        <ele>-27.878294</ele>
        <time>2021-05-01T16:51:31Z</time>
      </trkpt>
      <trkpt lat="-35.057472" lon="-58.28646">
        <ele>-18.877785</ele>
        <time>2021-05-01T16:51:33Z</time>
      </trkpt>
      <trkpt lat="-35.057392" lon="-58.286423">
        <ele>-10.298843</ele>
        <time>2021-05-01T16:51:35Z</time>
      </trkpt>
      <trkpt lat="-35.05731" lon="-58.28639">
        <ele>-7.3676286</ele>
        <time>2021-05-01T16:51:37Z</time>
      </trkpt>
      <trkpt lat="-35.057224" lon="-58.286354">
        <ele>-4.833231</ele>
        <time>2021-05-01T16:51:39Z</time>
      </trkpt>
      <trkpt lat="-35.057182" lon="-58.28634">
        <ele>-11.480763</ele>
        <time>2021-05-01T16:51:40Z</time>
      </trkpt>
      <trkpt lat="-35.0571" lon="-58.286316">
        <ele>-33.467903</ele>
        <time>2021-05-01T16:51:42Z</time>
      </trkpt>
      <trkpt lat="-35.057014" lon="-58.286293">
        <ele>-49.312588</ele>
        <time>2021-05-01T16:51:44Z</time>
      </trkpt>
      <trkpt lat="-35.05694" lon="-58.286255">
        <ele>-57.927685</ele>
        <time>2021-05-01T16:51:46Z</time>
      </trkpt>
      <trkpt lat="-35.05686" lon="-58.286217">
        <ele>-62.593494</ele>
        <time>2021-05-01T16:51:48Z</time>
      </trkpt>
      <trkpt lat="-35.05678" lon="-58.286182">
        <ele>-65.18359</ele>
        <time>2021-05-01T16:51:50Z</time>
      </trkpt>
      <trkpt lat="-35.056698" lon="-58.28615">
        <ele>-68.11262</ele>
        <time>2021-05-01T16:51:52Z</time>
      </trkpt>
      <trkpt lat="-35.056614" lon="-58.286118">
        <ele>-70.55112</ele>
        <time>2021-05-01T16:51:54Z</time>
      </trkpt>
      <trkpt lat="-35.056572" lon="-58.286102">
        <ele>-71.99052</ele>
        <time>2021-05-01T16:51:55Z</time>
      </trkpt>
      <trkpt lat="-35.056526" lon="-58.286083">
        <ele>-72.71018</ele>
        <time>2021-05-01T16:51:56Z</time>
      </trkpt>
      <trkpt lat="-35.056484" lon="-58.286064">
        <ele>-62.740383</ele>
        <time>2021-05-01T16:51:57Z</time>
      </trkpt>
      <trkpt lat="-35.056442" lon="-58.28605">
        <ele>-61.409027</ele>
        <time>2021-05-01T16:51:58Z</time>
      </trkpt>
      <trkpt lat="-35.056396" lon="-58.28603">
        <ele>-62.558323</ele>
        <time>2021-05-01T16:51:59Z</time>
      </trkpt>
      <trkpt lat="-35.056355" lon="-58.286015">
        <ele>-52.68864</ele>
        <time>2021-05-01T16:52:00Z</time>
      </trkpt>
      <trkpt lat="-35.05627" lon="-58.285984">
        <ele>-48.735027</ele>
        <time>2021-05-01T16:52:02Z</time>
      </trkpt>
      <trkpt lat="-35.056194" lon="-58.285965">
        <ele>-50.227547</ele>
        <time>2021-05-01T16:52:04Z</time>
      </trkpt>
      <trkpt lat="-35.05612" lon="-58.285927">
        <ele>-51.828632</ele>
        <time>2021-05-01T16:52:06Z</time>
      </trkpt>
      <trkpt lat="-35.05604" lon="-58.285892">
        <ele>-47.708218</ele>
        <time>2021-05-01T16:52:08Z</time>
      </trkpt>
      <trkpt lat="-35.05596" lon="-58.285866">
        <ele>-40.99971</ele>
        <time>2021-05-01T16:52:10Z</time>
      </trkpt>
      <trkpt lat="-35.055897" lon="-58.285843">
        <ele>-38.529076</ele>
        <time>2021-05-01T16:52:12Z</time>
      </trkpt>
      <trkpt lat="-35.05582" lon="-58.285812">
        <ele>-40.177574</ele>
        <time>2021-05-01T16:52:14Z</time>
      </trkpt>
      <trkpt lat="-35.055737" lon="-58.285786">
        <ele>-38.06205</ele>
        <time>2021-05-01T16:52:16Z</time>
      </trkpt>
      <trkpt lat="-35.055656" lon="-58.28576">
        <ele>-30.00926</ele>
        <time>2021-05-01T16:52:18Z</time>
      </trkpt>
      <trkpt lat="-35.055576" lon="-58.285732">
        <ele>-20.280008</ele>
        <time>2021-05-01T16:52:20Z</time>
      </trkpt>
      <trkpt lat="-35.055496" lon="-58.2857">
        <ele>-17.60711</ele>
        <time>2021-05-01T16:52:22Z</time>
      </trkpt>
      <trkpt lat="-35.05542" lon="-58.285675">
        <ele>-23.0386</ele>
        <time>2021-05-01T16:52:24Z</time>
      </trkpt>
      <trkpt lat="-35.055344" lon="-58.28565">
        <ele>-31.871752</ele>
        <time>2021-05-01T16:52:26Z</time>
      </trkpt>
      <trkpt lat="-35.055264" lon="-58.285618">
        <ele>-33.396435</ele>
        <time>2021-05-01T16:52:28Z</time>
      </trkpt>
      <trkpt lat="-35.055187" lon="-58.285587">
        <ele>-31.2171</ele>
        <time>2021-05-01T16:52:30Z</time>
      </trkpt>
      <trkpt lat="-35.05511" lon="-58.285557">
        <ele>-25.375168</ele>
        <time>2021-05-01T16:52:32Z</time>
      </trkpt>
      <trkpt lat="-35.055035" lon="-58.285522">
        <ele>-21.16814</ele>
        <time>2021-05-01T16:52:34Z</time>
      </trkpt>
      <trkpt lat="-35.05496" lon="-58.285492">
        <ele>-22.57955</ele>
        <time>2021-05-01T16:52:36Z</time>
      </trkpt>
      <trkpt lat="-35.05488" lon="-58.28546">
        <ele>-38.640915</ele>
        <time>2021-05-01T16:52:38Z</time>
      </trkpt>
      <trkpt lat="-35.054794" lon="-58.285427">
        <ele>-50.136463</ele>
        <time>2021-05-01T16:52:40Z</time>
      </trkpt>
      <trkpt lat="-35.054714" lon="-58.285385">
        <ele>-53.436855</ele>
        <time>2021-05-01T16:52:42Z</time>
      </trkpt>
      <trkpt lat="-35.054634" lon="-58.285343">
        <ele>-63.791348</ele>
        <time>2021-05-01T16:52:44Z</time>
      </trkpt>
      <trkpt lat="-35.054558" lon="-58.285294">
        <ele>-65.11429</ele>
        <time>2021-05-01T16:52:46Z</time>
      </trkpt>
      <trkpt lat="-35.05448" lon="-58.285244">
        <ele>-68.3391</ele>
        <time>2021-05-01T16:52:48Z</time>
      </trkpt>
      <trkpt lat="-35.054413" lon="-58.285183">
        <ele>-66.9636</ele>
        <time>2021-05-01T16:52:50Z</time>
      </trkpt>
      <trkpt lat="-35.05434" lon="-58.285114">
        <ele>-53.27852</ele>
        <time>2021-05-01T16:52:52Z</time>
      </trkpt>
      <trkpt lat="-35.05427" lon="-58.28505">
        <ele>-42.35296</ele>
        <time>2021-05-01T16:52:54Z</time>
      </trkpt>
      <trkpt lat="-35.054237" lon="-58.28501">
        <ele>-19.897593</ele>
        <time>2021-05-01T16:52:55Z</time>
      </trkpt>
      <trkpt lat="-35.054173" lon="-58.28494">
        <ele>-11.436183</ele>
        <time>2021-05-01T16:52:57Z</time>
      </trkpt>
      <trkpt lat="-35.054108" lon="-58.284863">
        <ele>-8.93334</ele>
        <time>2021-05-01T16:52:59Z</time>
      </trkpt>
      <trkpt lat="-35.054073" lon="-58.284824">
        <ele>-8.62539</ele>
        <time>2021-05-01T16:53:00Z</time>
      </trkpt>
      <trkpt lat="-35.05401" lon="-58.284748">
        <ele>-10.036532</ele>
        <time>2021-05-01T16:53:02Z</time>
      </trkpt>
      <trkpt lat="-35.053974" lon="-58.284714">
        <ele>-11.917229</ele>
        <time>2021-05-01T16:53:03Z</time>
      </trkpt>
      <trkpt lat="-35.053944" lon="-58.284676">
        <ele>-13.235906</ele>
        <time>2021-05-01T16:53:04Z</time>
      </trkpt>
      <trkpt lat="-35.05391" lon="-58.284637">
        <ele>-12.5942</ele>
        <time>2021-05-01T16:53:05Z</time>
      </trkpt>
      <trkpt lat="-35.05384" lon="-58.28456">
        <ele>-10.8898115</ele>
        <time>2021-05-01T16:53:07Z</time>
      </trkpt>
      <trkpt lat="-35.053776" lon="-58.284492">
        <ele>-9.069168</ele>
        <time>2021-05-01T16:53:09Z</time>
      </trkpt>
      <trkpt lat="-35.053715" lon="-58.284424">
        <ele>-8.852465</ele>
        <time>2021-05-01T16:53:11Z</time>
      </trkpt>
      <trkpt lat="-35.053654" lon="-58.28435">
        <ele>-5.924176</ele>
        <time>2021-05-01T16:53:13Z</time>
      </trkpt>
      <trkpt lat="-35.05359" lon="-58.284283">
        <ele>-7.198608</ele>
        <time>2021-05-01T16:53:15Z</time>
      </trkpt>
      <trkpt lat="-35.053524" lon="-58.28421">
        <ele>-12.906243</ele>
        <time>2021-05-01T16:53:17Z</time>
      </trkpt>
      <trkpt lat="-35.053463" lon="-58.284134">
        <ele>-14.162666</ele>
        <time>2021-05-01T16:53:19Z</time>
      </trkpt>
      <trkpt lat="-35.0534" lon="-58.28406">
        <ele>-15.674014</ele>
        <time>2021-05-01T16:53:21Z</time>
      </trkpt>
      <trkpt lat="-35.053333" lon="-58.28399">
        <ele>-13.767709</ele>
        <time>2021-05-01T16:53:23Z</time>
      </trkpt>
      <trkpt lat="-35.05327" lon="-58.283916">
        <ele>-11.479727</ele>
        <time>2021-05-01T16:53:25Z</time>
      </trkpt>
      <trkpt lat="-35.053204" lon="-58.283844">
        <ele>-9.241285</ele>
        <time>2021-05-01T16:53:27Z</time>
      </trkpt>
      <trkpt lat="-35.05317" lon="-58.283806">
        <ele>-6.9103374</ele>
        <time>2021-05-01T16:53:28Z</time>
      </trkpt>
      <trkpt lat="-35.0531" lon="-58.283733">
        <ele>-8.697971</ele>
        <time>2021-05-01T16:53:30Z</time>
      </trkpt>
      <trkpt lat="-35.053036" lon="-58.28366">
        <ele>-19.9691</ele>
        <time>2021-05-01T16:53:32Z</time>
      </trkpt>
      <trkpt lat="-35.05297" lon="-58.283592">
        <ele>-27.027718</ele>
        <time>2021-05-01T16:53:34Z</time>
      </trkpt>
      <trkpt lat="-35.052906" lon="-58.283516">
        <ele>-28.710192</ele>
        <time>2021-05-01T16:53:36Z</time>
      </trkpt>
      <trkpt lat="-35.05284" lon="-58.283447">
        <ele>-26.706543</ele>
        <time>2021-05-01T16:53:38Z</time>
      </trkpt>
      <trkpt lat="-35.05278" lon="-58.283375">
        <ele>-23.467594</ele>
        <time>2021-05-01T16:53:40Z</time>
      </trkpt>
      <trkpt lat="-35.052723" lon="-58.28331">
        <ele>-15.196157</ele>
        <time>2021-05-01T16:53:42Z</time>
      </trkpt>
      <trkpt lat="-35.052666" lon="-58.28325">
        <ele>-12.055113</ele>
        <time>2021-05-01T16:53:44Z</time>
      </trkpt>
      <trkpt lat="-35.05258" lon="-58.283165">
        <ele>-9.857163</ele>
        <time>2021-05-01T16:53:47Z</time>
      </trkpt>
      <trkpt lat="-35.052525" lon="-58.283104">
        <ele>-21.388874</ele>
        <time>2021-05-01T16:53:49Z</time>
      </trkpt>
      <trkpt lat="-35.052437" lon="-58.28301">
        <ele>-35.11262</ele>
        <time>2021-05-01T16:53:52Z</time>
      </trkpt>
      <trkpt lat="-35.052345" lon="-58.282913">
        <ele>-39.764427</ele>
        <time>2021-05-01T16:53:55Z</time>
      </trkpt>
      <trkpt lat="-35.052288" lon="-58.28284">
        <ele>-40.300793</ele>
        <time>2021-05-01T16:53:57Z</time>
      </trkpt>
      <trkpt lat="-35.052223" lon="-58.28277">
        <ele>-38.165604</ele>
        <time>2021-05-01T16:53:59Z</time>
      </trkpt>
      <trkpt lat="-35.05216" lon="-58.282696">
        <ele>-38.69683</ele>
        <time>2021-05-01T16:54:01Z</time>
      </trkpt>
      <trkpt lat="-35.052094" lon="-58.282623">
        <ele>-36.633987</ele>
        <time>2021-05-01T16:54:03Z</time>
      </trkpt>
      <trkpt lat="-35.05203" lon="-58.282562">
        <ele>-32.205284</ele>
        <time>2021-05-01T16:54:05Z</time>
      </trkpt>
      <trkpt lat="-35.05197" lon="-58.28249">
        <ele>-28.61592</ele>
        <time>2021-05-01T16:54:07Z</time>
      </trkpt>
      <trkpt lat="-35.051918" lon="-58.282413">
        <ele>-26.511763</ele>
        <time>2021-05-01T16:54:09Z</time>
      </trkpt>
      <trkpt lat="-35.05186" lon="-58.282345">
        <ele>-24.842596</ele>
        <time>2021-05-01T16:54:11Z</time>
      </trkpt>
      <trkpt lat="-35.051807" lon="-58.282288">
        <ele>-17.845497</ele>
        <time>2021-05-01T16:54:13Z</time>
      </trkpt>
      <trkpt lat="-35.051746" lon="-58.282223">
        <ele>-14.309866</ele>
        <time>2021-05-01T16:54:15Z</time>
      </trkpt>
      <trkpt lat="-35.051685" lon="-58.282154">
        <ele>-14.442553</ele>
        <time>2021-05-01T16:54:17Z</time>
      </trkpt>
      <trkpt lat="-35.05162" lon="-58.28209">
        <ele>-16.70329</ele>
        <time>2021-05-01T16:54:19Z</time>
      </trkpt>
      <trkpt lat="-35.05156" lon="-58.282017">
        <ele>-18.324335</ele>
        <time>2021-05-01T16:54:21Z</time>
      </trkpt>
      <trkpt lat="-35.051495" lon="-58.281948">
        <ele>-14.95256</ele>
        <time>2021-05-01T16:54:23Z</time>
      </trkpt>
      <trkpt lat="-35.05143" lon="-58.281883">
        <ele>-13.259748</ele>
        <time>2021-05-01T16:54:25Z</time>
      </trkpt>
      <trkpt lat="-35.051365" lon="-58.281815">
        <ele>-20.928753</ele>
        <time>2021-05-01T16:54:27Z</time>
      </trkpt>
      <trkpt lat="-35.0513" lon="-58.281742">
        <ele>-31.348654</ele>
        <time>2021-05-01T16:54:29Z</time>
      </trkpt>
      <trkpt lat="-35.051235" lon="-58.281673">
        <ele>-37.76899</ele>
        <time>2021-05-01T16:54:31Z</time>
      </trkpt>
      <trkpt lat="-35.05117" lon="-58.2816">
        <ele>-36.554245</ele>
        <time>2021-05-01T16:54:33Z</time>
      </trkpt>
      <trkpt lat="-35.051105" lon="-58.28153">
        <ele>-34.944843</ele>
        <time>2021-05-01T16:54:35Z</time>
      </trkpt>
      <trkpt lat="-35.05104" lon="-58.281456">
        <ele>-38.2733</ele>
        <time>2021-05-01T16:54:37Z</time>
      </trkpt>
      <trkpt lat="-35.05101" lon="-58.281418">
        <ele>-47.5426</ele>
        <time>2021-05-01T16:54:38Z</time>
      </trkpt>
      <trkpt lat="-35.050976" lon="-58.281384">
        <ele>-52.029408</ele>
        <time>2021-05-01T16:54:39Z</time>
      </trkpt>
      <trkpt lat="-35.05094" lon="-58.281345">
        <ele>-51.94972</ele>
        <time>2021-05-01T16:54:40Z</time>
      </trkpt>
      <trkpt lat="-35.05091" lon="-58.281307">
        <ele>-43.6057</ele>
        <time>2021-05-01T16:54:41Z</time>
      </trkpt>
      <trkpt lat="-35.050842" lon="-58.28123">
        <ele>-33.738235</ele>
        <time>2021-05-01T16:54:43Z</time>
      </trkpt>
      <trkpt lat="-35.050777" lon="-58.28116">
        <ele>-31.095903</ele>
        <time>2021-05-01T16:54:45Z</time>
      </trkpt>
      <trkpt lat="-35.050713" lon="-58.281086">
        <ele>-30.079702</ele>
        <time>2021-05-01T16:54:47Z</time>
      </trkpt>
      <trkpt lat="-35.050648" lon="-58.281013">
        <ele>-29.640474</ele>
        <time>2021-05-01T16:54:49Z</time>
      </trkpt>
      <trkpt lat="-35.050583" lon="-58.280937">
        <ele>-28.547544</ele>
        <time>2021-05-01T16:54:51Z</time>
      </trkpt>
      <trkpt lat="-35.050518" lon="-58.280865">
        <ele>-27.843071</ele>
        <time>2021-05-01T16:54:53Z</time>
      </trkpt>
      <trkpt lat="-35.050453" lon="-58.280792">
        <ele>-28.938105</ele>
        <time>2021-05-01T16:54:55Z</time>
      </trkpt>
      <trkpt lat="-35.05039" lon="-58.280716">
        <ele>-28.439804</ele>
        <time>2021-05-01T16:54:57Z</time>
      </trkpt>
      <trkpt lat="-35.05029" lon="-58.28061">
        <ele>-28.379717</ele>
        <time>2021-05-01T16:55:00Z</time>
      </trkpt>
      <trkpt lat="-35.050255" lon="-58.28057">
        <ele>-28.721588</ele>
        <time>2021-05-01T16:55:01Z</time>
      </trkpt>
      <trkpt lat="-35.05022" lon="-58.280533">
        <ele>-22.03655</ele>
        <time>2021-05-01T16:55:02Z</time>
      </trkpt>
      <trkpt lat="-35.050156" lon="-58.28046">
        <ele>-3.986987</ele>
        <time>2021-05-01T16:55:04Z</time>
      </trkpt>
      <trkpt lat="-35.05012" lon="-58.280422">
        <ele>1.3452731</ele>
        <time>2021-05-01T16:55:05Z</time>
      </trkpt>
      <trkpt lat="-35.050083" lon="-58.280388">
        <ele>4.385868</ele>
        <time>2021-05-01T16:55:06Z</time>
      </trkpt>
      <trkpt lat="-35.05005" lon="-58.28035">
        <ele>3.7084167</ele>
        <time>2021-05-01T16:55:07Z</time>
      </trkpt>
      <trkpt lat="-35.049984" lon="-58.28027">
        <ele>1.7332352</ele>
        <time>2021-05-01T16:55:09Z</time>
      </trkpt>
      <trkpt lat="-35.049915" lon="-58.280193">
        <ele>-0.6234819</ele>
        <time>2021-05-01T16:55:11Z</time>
      </trkpt>
      <trkpt lat="-35.04988" lon="-58.280155">
        <ele>-1.8753897</ele>
        <time>2021-05-01T16:55:12Z</time>
      </trkpt>
      <trkpt lat="-35.04984" lon="-58.280125">
        <ele>-3.209162</ele>
        <time>2021-05-01T16:55:13Z</time>
      </trkpt>
      <trkpt lat="-35.049774" lon="-58.28005">
        <ele>-2.9000988</ele>
        <time>2021-05-01T16:55:15Z</time>
      </trkpt>
      <trkpt lat="-35.04974" lon="-58.28001">
        <ele>-0.53324234</ele>
        <time>2021-05-01T16:55:16Z</time>
      </trkpt>
      <trkpt lat="-35.049637" lon="-58.27989">
        <ele>-0.3257937</ele>
        <time>2021-05-01T16:55:19Z</time>
      </trkpt>
      <trkpt lat="-35.04957" lon="-58.27981">
        <ele>-1.0062182</ele>
        <time>2021-05-01T16:55:21Z</time>
      </trkpt>
      <trkpt lat="-35.049534" lon="-58.279774">
        <ele>-1.5372672</ele>
        <time>2021-05-01T16:55:22Z</time>
      </trkpt>
      <trkpt lat="-35.04947" lon="-58.279705">
        <ele>1.1139512</ele>
        <time>2021-05-01T16:55:24Z</time>
      </trkpt>
      <trkpt lat="-35.049408" lon="-58.279636">
        <ele>2.0693362</ele>
        <time>2021-05-01T16:55:26Z</time>
      </trkpt>
      <trkpt lat="-35.04937" lon="-58.2796">
        <ele>2.509179</ele>
        <time>2021-05-01T16:55:27Z</time>
      </trkpt>
      <trkpt lat="-35.049297" lon="-58.279522">
        <ele>3.2094183</ele>
        <time>2021-05-01T16:55:29Z</time>
      </trkpt>
      <trkpt lat="-35.04926" lon="-58.27948">
        <ele>3.5330915</ele>
        <time>2021-05-01T16:55:30Z</time>
      </trkpt>
      <trkpt lat="-35.04923" lon="-58.27944">
        <ele>-1.1223862</ele>
        <time>2021-05-01T16:55:31Z</time>
      </trkpt>
      <trkpt lat="-35.049194" lon="-58.279404">
        <ele>-1.1223862</ele>
        <time>2021-05-01T16:55:32Z</time>
      </trkpt>
      <trkpt lat="-35.049126" lon="-58.279327">
        <ele>-2.1823924</ele>
        <time>2021-05-01T16:55:34Z</time>
      </trkpt>
      <trkpt lat="-35.04909" lon="-58.27929">
        <ele>-4.189217</ele>
        <time>2021-05-01T16:55:35Z</time>
      </trkpt>
      <trkpt lat="-35.049053" lon="-58.27925">
        <ele>9.469985</ele>
        <time>2021-05-01T16:55:36Z</time>
      </trkpt>
      <trkpt lat="-35.04902" lon="-58.279213">
        <ele>10.019967</ele>
        <time>2021-05-01T16:55:37Z</time>
      </trkpt>
      <trkpt lat="-35.048985" lon="-58.279175">
        <ele>-11.792821</ele>
        <time>2021-05-01T16:55:38Z</time>
      </trkpt>
      <trkpt lat="-35.048954" lon="-58.279137">
        <ele>-27.629652</ele>
        <time>2021-05-01T16:55:39Z</time>
      </trkpt>
      <trkpt lat="-35.04892" lon="-58.279095">
        <ele>-36.46725</ele>
        <time>2021-05-01T16:55:40Z</time>
      </trkpt>
      <trkpt lat="-35.04888" lon="-58.279057">
        <ele>-41.166412</ele>
        <time>2021-05-01T16:55:41Z</time>
      </trkpt>
      <trkpt lat="-35.048813" lon="-58.278973">
        <ele>-44.901855</ele>
        <time>2021-05-01T16:55:43Z</time>
      </trkpt>
      <trkpt lat="-35.04878" lon="-58.278934">
        <ele>-45.5085</ele>
        <time>2021-05-01T16:55:44Z</time>
      </trkpt>
      <trkpt lat="-35.04874" lon="-58.278893">
        <ele>-45.596493</ele>
        <time>2021-05-01T16:55:45Z</time>
      </trkpt>
      <trkpt lat="-35.048706" lon="-58.27885">
        <ele>-44.078827</ele>
        <time>2021-05-01T16:55:46Z</time>
      </trkpt>
      <trkpt lat="-35.04867" lon="-58.278812">
        <ele>-43.734077</ele>
        <time>2021-05-01T16:55:47Z</time>
      </trkpt>
      <trkpt lat="-35.048634" lon="-58.27877">
        <ele>-40.912735</ele>
        <time>2021-05-01T16:55:48Z</time>
      </trkpt>
      <trkpt lat="-35.048595" lon="-58.27873">
        <ele>-37.753456</ele>
        <time>2021-05-01T16:55:49Z</time>
      </trkpt>
      <trkpt lat="-35.04856" lon="-58.278687">
        <ele>-36.512817</ele>
        <time>2021-05-01T16:55:50Z</time>
      </trkpt>
      <trkpt lat="-35.048523" lon="-58.278645">
        <ele>-33.078457</ele>
        <time>2021-05-01T16:55:51Z</time>
      </trkpt>
      <trkpt lat="-35.04849" lon="-58.278606">
        <ele>-29.207453</ele>
        <time>2021-05-01T16:55:52Z</time>
      </trkpt>
      <trkpt lat="-35.04845" lon="-58.278564">
        <ele>-26.25896</ele>
        <time>2021-05-01T16:55:53Z</time>
      </trkpt>
      <trkpt lat="-35.048416" lon="-58.278522">
        <ele>-26.721046</ele>
        <time>2021-05-01T16:55:54Z</time>
      </trkpt>
      <trkpt lat="-35.048378" lon="-58.27848">
        <ele>-28.285442</ele>
        <time>2021-05-01T16:55:55Z</time>
      </trkpt>
      <trkpt lat="-35.048306" lon="-58.2784">
        <ele>-38.786922</ele>
        <time>2021-05-01T16:55:57Z</time>
      </trkpt>
      <trkpt lat="-35.048267" lon="-58.278355">
        <ele>-47.854168</ele>
        <time>2021-05-01T16:55:58Z</time>
      </trkpt>
      <trkpt lat="-35.048233" lon="-58.278313">
        <ele>-50.29482</ele>
        <time>2021-05-01T16:55:59Z</time>
      </trkpt>
      <trkpt lat="-35.0482" lon="-58.278267">
        <ele>-45.448456</ele>
        <time>2021-05-01T16:56:00Z</time>
      </trkpt>
      <trkpt lat="-35.048164" lon="-58.27822">
        <ele>-33.52487</ele>
        <time>2021-05-01T16:56:01Z</time>
      </trkpt>
      <trkpt lat="-35.04809" lon="-58.278133">
        <ele>-21.256227</ele>
        <time>2021-05-01T16:56:03Z</time>
      </trkpt>
      <trkpt lat="-35.04805" lon="-58.27809">
        <ele>-17.093016</ele>
        <time>2021-05-01T16:56:04Z</time>
      </trkpt>
      <trkpt lat="-35.04801" lon="-58.27805">
        <ele>-16.60586</ele>
        <time>2021-05-01T16:56:05Z</time>
      </trkpt>
      <trkpt lat="-35.047974" lon="-58.27801">
        <ele>-16.765482</ele>
        <time>2021-05-01T16:56:06Z</time>
      </trkpt>
      <trkpt lat="-35.047935" lon="-58.27797">
        <ele>-14.693412</ele>
        <time>2021-05-01T16:56:07Z</time>
      </trkpt>
      <trkpt lat="-35.0479" lon="-58.277927">
        <ele>-10.095631</ele>
        <time>2021-05-01T16:56:08Z</time>
      </trkpt>
      <trkpt lat="-35.047863" lon="-58.27788">
        <ele>-4.283591</ele>
        <time>2021-05-01T16:56:09Z</time>
      </trkpt>
      <trkpt lat="-35.04783" lon="-58.27784">
        <ele>2.5434124</ele>
        <time>2021-05-01T16:56:10Z</time>
      </trkpt>
      <trkpt lat="-35.04779" lon="-58.277798">
        <ele>0.63886696</ele>
        <time>2021-05-01T16:56:11Z</time>
      </trkpt>
      <trkpt lat="-35.04771" lon="-58.277718">
        <ele>3.6928551</ele>
        <time>2021-05-01T16:56:13Z</time>
      </trkpt>
      <trkpt lat="-35.047676" lon="-58.277676">
        <ele>4.1296167</ele>
        <time>2021-05-01T16:56:14Z</time>
      </trkpt>
      <trkpt lat="-35.047638" lon="-58.277637">
        <ele>0.20217146</ele>
        <time>2021-05-01T16:56:15Z</time>
      </trkpt>
      <trkpt lat="-35.0476" lon="-58.2776">
        <ele>-2.5339882</ele>
        <time>2021-05-01T16:56:16Z</time>
      </trkpt>
      <trkpt lat="-35.047565" lon="-58.277557">
        <ele>-4.231737</ele>
        <time>2021-05-01T16:56:17Z</time>
      </trkpt>
      <trkpt lat="-35.04753" lon="-58.277515">
        <ele>-1.7893038</ele>
        <time>2021-05-01T16:56:18Z</time>
      </trkpt>
      <trkpt lat="-35.047493" lon="-58.277473">
        <ele>-1.7893038</ele>
        <time>2021-05-01T16:56:19Z</time>
      </trkpt>
      <trkpt lat="-35.04746" lon="-58.27743">
        <ele>-3.600152</ele>
        <time>2021-05-01T16:56:20Z</time>
      </trkpt>
      <trkpt lat="-35.04742" lon="-58.277386">
        <ele>-7.1332808</ele>
        <time>2021-05-01T16:56:21Z</time>
      </trkpt>
      <trkpt lat="-35.047386" lon="-58.277344">
        <ele>-9.256838</ele>
        <time>2021-05-01T16:56:22Z</time>
      </trkpt>
      <trkpt lat="-35.047348" lon="-58.2773">
        <ele>-7.6641884</ele>
        <time>2021-05-01T16:56:23Z</time>
      </trkpt>
      <trkpt lat="-35.047306" lon="-58.277264">
        <ele>-5.3953023</ele>
        <time>2021-05-01T16:56:24Z</time>
      </trkpt>
      <trkpt lat="-35.047268" lon="-58.27722">
        <ele>-1.9967393</ele>
        <time>2021-05-01T16:56:25Z</time>
      </trkpt>
      <trkpt lat="-35.047234" lon="-58.27718">
        <ele>-2.7466028</ele>
        <time>2021-05-01T16:56:26Z</time>
      </trkpt>
      <trkpt lat="-35.04719" lon="-58.277138">
        <ele>-4.3572226</ele>
        <time>2021-05-01T16:56:27Z</time>
      </trkpt>
      <trkpt lat="-35.047157" lon="-58.2771">
        <ele>-2.049635</ele>
        <time>2021-05-01T16:56:28Z</time>
      </trkpt>
      <trkpt lat="-35.04712" lon="-58.27706">
        <ele>-1.7094407</ele>
        <time>2021-05-01T16:56:29Z</time>
      </trkpt>
      <trkpt lat="-35.04708" lon="-58.277023">
        <ele>-1.281079</ele>
        <time>2021-05-01T16:56:30Z</time>
      </trkpt>
      <trkpt lat="-35.047043" lon="-58.27698">
        <ele>-3.7629762</ele>
        <time>2021-05-01T16:56:31Z</time>
      </trkpt>
      <trkpt lat="-35.047005" lon="-58.276947">
        <ele>-5.6016684</ele>
        <time>2021-05-01T16:56:32Z</time>
      </trkpt>
      <trkpt lat="-35.046967" lon="-58.276913">
        <ele>-4.426706</ele>
        <time>2021-05-01T16:56:33Z</time>
      </trkpt>
      <trkpt lat="-35.046932" lon="-58.276875">
        <ele>-2.2933686</ele>
        <time>2021-05-01T16:56:34Z</time>
      </trkpt>
      <trkpt lat="-35.046898" lon="-58.276836">
        <ele>-12.130794</ele>
        <time>2021-05-01T16:56:35Z</time>
      </trkpt>
      <trkpt lat="-35.046833" lon="-58.276764">
        <ele>-17.045338</ele>
        <time>2021-05-01T16:56:37Z</time>
      </trkpt>
      <trkpt lat="-35.046764" lon="-58.27669">
        <ele>-17.61022</ele>
        <time>2021-05-01T16:56:39Z</time>
      </trkpt>
      <trkpt lat="-35.046734" lon="-58.27665">
        <ele>-17.532484</ele>
        <time>2021-05-01T16:56:40Z</time>
      </trkpt>
      <trkpt lat="-35.0467" lon="-58.27661">
        <ele>-19.645754</ele>
        <time>2021-05-01T16:56:41Z</time>
      </trkpt>
      <trkpt lat="-35.046665" lon="-58.27657">
        <ele>-20.444786</ele>
        <time>2021-05-01T16:56:42Z</time>
      </trkpt>
      <trkpt lat="-35.046627" lon="-58.276527">
        <ele>-19.254</ele>
        <time>2021-05-01T16:56:43Z</time>
      </trkpt>
      <trkpt lat="-35.046593" lon="-58.276485">
        <ele>-15.5755415</ele>
        <time>2021-05-01T16:56:44Z</time>
      </trkpt>
      <trkpt lat="-35.04656" lon="-58.276443">
        <ele>-10.916767</ele>
        <time>2021-05-01T16:56:45Z</time>
      </trkpt>
      <trkpt lat="-35.046524" lon="-58.276405">
        <ele>-6.413633</ele>
        <time>2021-05-01T16:56:46Z</time>
      </trkpt>
      <trkpt lat="-35.04649" lon="-58.276363">
        <ele>-3.7007504</ele>
        <time>2021-05-01T16:56:47Z</time>
      </trkpt>
      <trkpt lat="-35.046455" lon="-58.27633">
        <ele>-1.4107293</ele>
        <time>2021-05-01T16:56:48Z</time>
      </trkpt>
      <trkpt lat="-35.04642" lon="-58.27629">
        <ele>-0.14842367</ele>
        <time>2021-05-01T16:56:49Z</time>
      </trkpt>
      <trkpt lat="-35.046356" lon="-58.276222">
        <ele>4.210538</ele>
        <time>2021-05-01T16:56:51Z</time>
      </trkpt>
      <trkpt lat="-35.04629" lon="-58.27616">
        <ele>6.7742257</ele>
        <time>2021-05-01T16:56:53Z</time>
      </trkpt>
      <trkpt lat="-35.046223" lon="-58.2761">
        <ele>8.049432</ele>
        <time>2021-05-01T16:56:55Z</time>
      </trkpt>
      <trkpt lat="-35.046154" lon="-58.27604">
        <ele>8.306765</ele>
        <time>2021-05-01T16:56:57Z</time>
      </trkpt>
      <trkpt lat="-35.04608" lon="-58.275974">
        <ele>6.845818</ele>
        <time>2021-05-01T16:56:59Z</time>
      </trkpt>
      <trkpt lat="-35.046047" lon="-58.27594">
        <ele>5.5322905</ele>
        <time>2021-05-01T16:57:00Z</time>
      </trkpt>
      <trkpt lat="-35.046013" lon="-58.2759">
        <ele>3.0818176</ele>
        <time>2021-05-01T16:57:01Z</time>
      </trkpt>
      <trkpt lat="-35.04598" lon="-58.275867">
        <ele>3.6295722</ele>
        <time>2021-05-01T16:57:02Z</time>
      </trkpt>
      <trkpt lat="-35.045914" lon="-58.27579">
        <ele>3.8474326</ele>
        <time>2021-05-01T16:57:04Z</time>
      </trkpt>
      <trkpt lat="-35.04588" lon="-58.275753">
        <ele>1.090093</ele>
        <time>2021-05-01T16:57:05Z</time>
      </trkpt>
      <trkpt lat="-35.045845" lon="-58.275715">
        <ele>-0.1868021</ele>
        <time>2021-05-01T16:57:06Z</time>
      </trkpt>
      <trkpt lat="-35.04581" lon="-58.275677">
        <ele>0.47393823</ele>
        <time>2021-05-01T16:57:07Z</time>
      </trkpt>
      <trkpt lat="-35.045746" lon="-58.275604">
        <ele>2.6336646</ele>
        <time>2021-05-01T16:57:09Z</time>
      </trkpt>
      <trkpt lat="-35.045677" lon="-58.275536">
        <ele>0.9946606</ele>
        <time>2021-05-01T16:57:11Z</time>
      </trkpt>
      <trkpt lat="-35.045616" lon="-58.27546">
        <ele>-1.4273245</ele>
        <time>2021-05-01T16:57:13Z</time>
      </trkpt>
      <trkpt lat="-35.04558" lon="-58.275425">
        <ele>-2.0641553</ele>
        <time>2021-05-01T16:57:14Z</time>
      </trkpt>
      <trkpt lat="-35.045513" lon="-58.275352">
        <ele>-4.3344073</ele>
        <time>2021-05-01T16:57:16Z</time>
      </trkpt>
      <trkpt lat="-35.04545" lon="-58.275284">
        <ele>-4.0305443</ele>
        <time>2021-05-01T16:57:18Z</time>
      </trkpt>
      <trkpt lat="-35.045383" lon="-58.275208">
        <ele>-2.4406447</ele>
        <time>2021-05-01T16:57:20Z</time>
      </trkpt>
      <trkpt lat="-35.04535" lon="-58.275173">
        <ele>-3.5472598</ele>
        <time>2021-05-01T16:57:21Z</time>
      </trkpt>
      <trkpt lat="-35.045315" lon="-58.275135">
        <ele>-3.3139105</ele>
        <time>2021-05-01T16:57:22Z</time>
      </trkpt>
      <trkpt lat="-35.04528" lon="-58.275097">
        <ele>-3.0961158</ele>
        <time>2021-05-01T16:57:23Z</time>
      </trkpt>
      <trkpt lat="-35.04525" lon="-58.275063">
        <ele>-3.393768</ele>
        <time>2021-05-01T16:57:24Z</time>
      </trkpt>
      <trkpt lat="-35.04518" lon="-58.274994">
        <ele>-4.074102</ele>
        <time>2021-05-01T16:57:26Z</time>
      </trkpt>
      <trkpt lat="-35.045147" lon="-58.274956">
        <ele>-4.201662</ele>
        <time>2021-05-01T16:57:27Z</time>
      </trkpt>
      <trkpt lat="-35.045082" lon="-58.274883">
        <ele>-3.5368888</ele>
        <time>2021-05-01T16:57:29Z</time>
      </trkpt>
      <trkpt lat="-35.045013" lon="-58.27481">
        <ele>-3.6800086</ele>
        <time>2021-05-01T16:57:31Z</time>
      </trkpt>
      <trkpt lat="-35.04498" lon="-58.274773">
        <ele>-2.4810936</ele>
        <time>2021-05-01T16:57:32Z</time>
      </trkpt>
      <trkpt lat="-35.044945" lon="-58.27474">
        <ele>-2.7103028</ele>
        <time>2021-05-01T16:57:33Z</time>
      </trkpt>
      <trkpt lat="-35.044914" lon="-58.2747">
        <ele>-2.7911997</ele>
        <time>2021-05-01T16:57:34Z</time>
      </trkpt>
      <trkpt lat="-35.04488" lon="-58.274662">
        <ele>-3.1116726</ele>
        <time>2021-05-01T16:57:35Z</time>
      </trkpt>
      <trkpt lat="-35.044846" lon="-58.274628">
        <ele>3.400302</ele>
        <time>2021-05-01T16:57:36Z</time>
      </trkpt>
      <trkpt lat="-35.04481" lon="-58.274586">
        <ele>8.3814745</ele>
        <time>2021-05-01T16:57:37Z</time>
      </trkpt>
      <trkpt lat="-35.04478" lon="-58.274548">
        <ele>17.844625</ele>
        <time>2021-05-01T16:57:38Z</time>
      </trkpt>
      <trkpt lat="-35.044746" lon="-58.274513">
        <ele>21.545631</ele>
        <time>2021-05-01T16:57:39Z</time>
      </trkpt>
      <trkpt lat="-35.044712" lon="-58.274475">
        <ele>22.70329</ele>
        <time>2021-05-01T16:57:40Z</time>
      </trkpt>
      <trkpt lat="-35.044678" lon="-58.274437">
        <ele>22.476946</ele>
        <time>2021-05-01T16:57:41Z</time>
      </trkpt>
      <trkpt lat="-35.044643" lon="-58.2744">
        <ele>20.171051</ele>
        <time>2021-05-01T16:57:42Z</time>
      </trkpt>
      <trkpt lat="-35.04461" lon="-58.274357">
        <ele>2.486357</ele>
        <time>2021-05-01T16:57:43Z</time>
      </trkpt>
      <trkpt lat="-35.044575" lon="-58.27432">
        <ele>-4.859157</ele>
        <time>2021-05-01T16:57:44Z</time>
      </trkpt>
      <trkpt lat="-35.04454" lon="-58.27428">
        <ele>-8.495781</ele>
        <time>2021-05-01T16:57:45Z</time>
      </trkpt>
      <trkpt lat="-35.044506" lon="-58.274242">
        <ele>-7.8435745</ele>
        <time>2021-05-01T16:57:46Z</time>
      </trkpt>
      <trkpt lat="-35.04447" lon="-58.274204">
        <ele>-9.962918</ele>
        <time>2021-05-01T16:57:47Z</time>
      </trkpt>
      <trkpt lat="-35.044437" lon="-58.274162">
        <ele>-9.183222</ele>
        <time>2021-05-01T16:57:48Z</time>
      </trkpt>
      <trkpt lat="-35.044403" lon="-58.274124">
        <ele>-7.8694973</ele>
        <time>2021-05-01T16:57:49Z</time>
      </trkpt>
      <trkpt lat="-35.04437" lon="-58.274086">
        <ele>-6.903079</ele>
        <time>2021-05-01T16:57:50Z</time>
      </trkpt>
      <trkpt lat="-35.044334" lon="-58.274048">
        <ele>-7.5615335</ele>
        <time>2021-05-01T16:57:51Z</time>
      </trkpt>
      <trkpt lat="-35.0443" lon="-58.27401">
        <ele>-24.365967</ele>
        <time>2021-05-01T16:57:52Z</time>
      </trkpt>
      <trkpt lat="-35.044266" lon="-58.27397">
        <ele>-38.279514</ele>
        <time>2021-05-01T16:57:53Z</time>
      </trkpt>
      <trkpt lat="-35.04423" lon="-58.273933">
        <ele>-40.948975</ele>
        <time>2021-05-01T16:57:54Z</time>
      </trkpt>
      <trkpt lat="-35.044197" lon="-58.273895">
        <ele>-41.211967</ele>
        <time>2021-05-01T16:57:55Z</time>
      </trkpt>
      <trkpt lat="-35.044163" lon="-58.273857">
        <ele>-39.48381</ele>
        <time>2021-05-01T16:57:56Z</time>
      </trkpt>
      <trkpt lat="-35.04413" lon="-58.27382">
        <ele>-38.984703</ele>
        <time>2021-05-01T16:57:57Z</time>
      </trkpt>
      <trkpt lat="-35.044094" lon="-58.27378">
        <ele>-38.660587</ele>
        <time>2021-05-01T16:57:58Z</time>
      </trkpt>
      <trkpt lat="-35.044056" lon="-58.27374">
        <ele>-38.125217</ele>
        <time>2021-05-01T16:57:59Z</time>
      </trkpt>
      <trkpt lat="-35.04402" lon="-58.2737">
        <ele>-38.57464</ele>
        <time>2021-05-01T16:58:00Z</time>
      </trkpt>
      <trkpt lat="-35.043987" lon="-58.27366">
        <ele>-37.125896</ele>
        <time>2021-05-01T16:58:01Z</time>
      </trkpt>
      <trkpt lat="-35.043953" lon="-58.27362">
        <ele>-34.607204</ele>
        <time>2021-05-01T16:58:02Z</time>
      </trkpt>
      <trkpt lat="-35.043915" lon="-58.273582">
        <ele>-33.657444</ele>
        <time>2021-05-01T16:58:03Z</time>
      </trkpt>
      <trkpt lat="-35.04388" lon="-58.27354">
        <ele>-33.648125</ele>
        <time>2021-05-01T16:58:04Z</time>
      </trkpt>
      <trkpt lat="-35.043846" lon="-58.273502">
        <ele>-33.28354</ele>
        <time>2021-05-01T16:58:05Z</time>
      </trkpt>
      <trkpt lat="-35.04381" lon="-58.27346">
        <ele>-32.537777</ele>
        <time>2021-05-01T16:58:06Z</time>
      </trkpt>
      <trkpt lat="-35.043777" lon="-58.273426">
        <ele>-34.879593</ele>
        <time>2021-05-01T16:58:07Z</time>
      </trkpt>
      <trkpt lat="-35.04374" lon="-58.273388">
        <ele>-40.36706</ele>
        <time>2021-05-01T16:58:08Z</time>
      </trkpt>
      <trkpt lat="-35.043705" lon="-58.27335">
        <ele>-46.241417</ele>
        <time>2021-05-01T16:58:09Z</time>
      </trkpt>
      <trkpt lat="-35.04367" lon="-58.27331">
        <ele>-50.99343</ele>
        <time>2021-05-01T16:58:10Z</time>
      </trkpt>
      <trkpt lat="-35.043636" lon="-58.27327">
        <ele>-48.540436</ele>
        <time>2021-05-01T16:58:11Z</time>
      </trkpt>
      <trkpt lat="-35.043602" lon="-58.27323">
        <ele>-43.188473</ele>
        <time>2021-05-01T16:58:12Z</time>
      </trkpt>
      <trkpt lat="-35.043568" lon="-58.27319">
        <ele>-37.181816</ele>
        <time>2021-05-01T16:58:13Z</time>
      </trkpt>
      <trkpt lat="-35.04353" lon="-58.27315">
        <ele>-33.208965</ele>
        <time>2021-05-01T16:58:14Z</time>
      </trkpt>
      <trkpt lat="-35.043495" lon="-58.273113">
        <ele>-30.061056</ele>
        <time>2021-05-01T16:58:15Z</time>
      </trkpt>
      <trkpt lat="-35.04346" lon="-58.27307">
        <ele>-27.26808</ele>
        <time>2021-05-01T16:58:16Z</time>
      </trkpt>
      <trkpt lat="-35.043427" lon="-58.27303">
        <ele>-28.354853</ele>
        <time>2021-05-01T16:58:17Z</time>
      </trkpt>
      <trkpt lat="-35.043392" lon="-58.27299">
        <ele>-26.933437</ele>
        <time>2021-05-01T16:58:18Z</time>
      </trkpt>
      <trkpt lat="-35.043354" lon="-58.27295">
        <ele>-24.21365</ele>
        <time>2021-05-01T16:58:19Z</time>
      </trkpt>
      <trkpt lat="-35.04332" lon="-58.27291">
        <ele>-22.418932</ele>
        <time>2021-05-01T16:58:20Z</time>
      </trkpt>
      <trkpt lat="-35.04328" lon="-58.27287">
        <ele>-19.535898</ele>
        <time>2021-05-01T16:58:21Z</time>
      </trkpt>
      <trkpt lat="-35.043247" lon="-58.272827">
        <ele>-18.37823</ele>
        <time>2021-05-01T16:58:22Z</time>
      </trkpt>
      <trkpt lat="-35.043213" lon="-58.272785">
        <ele>-18.245565</ele>
        <time>2021-05-01T16:58:23Z</time>
      </trkpt>
      <trkpt lat="-35.04318" lon="-58.272743">
        <ele>-27.202808</ele>
        <time>2021-05-01T16:58:24Z</time>
      </trkpt>
      <trkpt lat="-35.043144" lon="-58.272705">
        <ele>-29.68709</ele>
        <time>2021-05-01T16:58:25Z</time>
      </trkpt>
      <trkpt lat="-35.043083" lon="-58.272625">
        <ele>-31.760918</ele>
        <time>2021-05-01T16:58:27Z</time>
      </trkpt>
      <trkpt lat="-35.04305" lon="-58.27259">
        <ele>-32.57196</ele>
        <time>2021-05-01T16:58:28Z</time>
      </trkpt>
      <trkpt lat="-35.04301" lon="-58.272552">
        <ele>-31.262678</ele>
        <time>2021-05-01T16:58:29Z</time>
      </trkpt>
      <trkpt lat="-35.042973" lon="-58.27252">
        <ele>-29.856981</ele>
        <time>2021-05-01T16:58:30Z</time>
      </trkpt>
      <trkpt lat="-35.042934" lon="-58.272476">
        <ele>-30.755104</ele>
        <time>2021-05-01T16:58:31Z</time>
      </trkpt>
      <trkpt lat="-35.0429" lon="-58.272434">
        <ele>-31.07933</ele>
        <time>2021-05-01T16:58:32Z</time>
      </trkpt>
      <trkpt lat="-35.04283" lon="-58.27236">
        <ele>-39.53766</ele>
        <time>2021-05-01T16:58:34Z</time>
      </trkpt>
      <trkpt lat="-35.042797" lon="-58.272324">
        <ele>-46.136864</ele>
        <time>2021-05-01T16:58:35Z</time>
      </trkpt>
      <trkpt lat="-35.042763" lon="-58.27228">
        <ele>-46.781773</ele>
        <time>2021-05-01T16:58:36Z</time>
      </trkpt>
      <trkpt lat="-35.04273" lon="-58.272243">
        <ele>-48.68017</ele>
        <time>2021-05-01T16:58:37Z</time>
      </trkpt>
      <trkpt lat="-35.042694" lon="-58.2722">
        <ele>-44.97225</ele>
        <time>2021-05-01T16:58:38Z</time>
      </trkpt>
      <trkpt lat="-35.04266" lon="-58.272163">
        <ele>-45.771442</ele>
        <time>2021-05-01T16:58:39Z</time>
      </trkpt>
      <trkpt lat="-35.042625" lon="-58.27212">
        <ele>-44.130592</ele>
        <time>2021-05-01T16:58:40Z</time>
      </trkpt>
      <trkpt lat="-35.04259" lon="-58.27208">
        <ele>-44.17304</ele>
        <time>2021-05-01T16:58:41Z</time>
      </trkpt>
      <trkpt lat="-35.042553" lon="-58.27204">
        <ele>-43.716476</ele>
        <time>2021-05-01T16:58:42Z</time>
      </trkpt>
      <trkpt lat="-35.04252" lon="-58.272003">
        <ele>-43.200897</ele>
        <time>2021-05-01T16:58:43Z</time>
      </trkpt>
      <trkpt lat="-35.042484" lon="-58.27196">
        <ele>-41.718277</ele>
        <time>2021-05-01T16:58:44Z</time>
      </trkpt>
      <trkpt lat="-35.04245" lon="-58.271923">
        <ele>-40.525486</ele>
        <time>2021-05-01T16:58:45Z</time>
      </trkpt>
      <trkpt lat="-35.04241" lon="-58.271885">
        <ele>-41.247173</ele>
        <time>2021-05-01T16:58:46Z</time>
      </trkpt>
      <trkpt lat="-35.042377" lon="-58.271847">
        <ele>-40.038826</ele>
        <time>2021-05-01T16:58:47Z</time>
      </trkpt>
      <trkpt lat="-35.042343" lon="-58.27181">
        <ele>-42.304295</ele>
        <time>2021-05-01T16:58:48Z</time>
      </trkpt>
      <trkpt lat="-35.04231" lon="-58.27177">
        <ele>-43.921463</ele>
        <time>2021-05-01T16:58:49Z</time>
      </trkpt>
      <trkpt lat="-35.042274" lon="-58.271732">
        <ele>-41.725525</ele>
        <time>2021-05-01T16:58:50Z</time>
      </trkpt>
      <trkpt lat="-35.042202" lon="-58.271652">
        <ele>-45.368744</ele>
        <time>2021-05-01T16:58:51Z</time>
      </trkpt>
      <trkpt lat="-35.04214" lon="-58.271584">
        <ele>-53.864246</ele>
        <time>2021-05-01T16:58:53Z</time>
      </trkpt>
      <trkpt lat="-35.04208" lon="-58.27152">
        <ele>-61.000397</ele>
        <time>2021-05-01T16:58:55Z</time>
      </trkpt>
      <trkpt lat="-35.042023" lon="-58.271454">
        <ele>-64.4068</ele>
        <time>2021-05-01T16:58:57Z</time>
      </trkpt>
      <trkpt lat="-35.04196" lon="-58.271385">
        <ele>-65.35839</ele>
        <time>2021-05-01T16:58:59Z</time>
      </trkpt>
      <trkpt lat="-35.041893" lon="-58.271313">
        <ele>-69.83241</ele>
        <time>2021-05-01T16:59:01Z</time>
      </trkpt>
      <trkpt lat="-35.041862" lon="-58.271275">
        <ele>-72.57266</ele>
        <time>2021-05-01T16:59:02Z</time>
      </trkpt>
      <trkpt lat="-35.04183" lon="-58.271236">
        <ele>-73.41018</ele>
        <time>2021-05-01T16:59:03Z</time>
      </trkpt>
      <trkpt lat="-35.041794" lon="-58.2712">
        <ele>-73.04623</ele>
        <time>2021-05-01T16:59:04Z</time>
      </trkpt>
      <trkpt lat="-35.04176" lon="-58.27116">
        <ele>-72.10943</ele>
        <time>2021-05-01T16:59:05Z</time>
      </trkpt>
      <trkpt lat="-35.041725" lon="-58.271122">
        <ele>-70.14575</ele>
        <time>2021-05-01T16:59:06Z</time>
      </trkpt>
      <trkpt lat="-35.041695" lon="-58.271084">
        <ele>-69.52425</ele>
        <time>2021-05-01T16:59:07Z</time>
      </trkpt>
      <trkpt lat="-35.04166" lon="-58.271046">
        <ele>-68.33393</ele>
        <time>2021-05-01T16:59:08Z</time>
      </trkpt>
      <trkpt lat="-35.041626" lon="-58.271008">
        <ele>-66.84362</ele>
        <time>2021-05-01T16:59:09Z</time>
      </trkpt>
      <trkpt lat="-35.04159" lon="-58.27097">
        <ele>-66.7071</ele>
        <time>2021-05-01T16:59:10Z</time>
      </trkpt>
      <trkpt lat="-35.041557" lon="-58.27093">
        <ele>-68.93272</ele>
        <time>2021-05-01T16:59:11Z</time>
      </trkpt>
      <trkpt lat="-35.041523" lon="-58.270893">
        <ele>-69.313286</ele>
        <time>2021-05-01T16:59:12Z</time>
      </trkpt>
      <trkpt lat="-35.041492" lon="-58.270855">
        <ele>-68.33393</ele>
        <time>2021-05-01T16:59:13Z</time>
      </trkpt>
      <trkpt lat="-35.04146" lon="-58.270817">
        <ele>-70.19849</ele>
        <time>2021-05-01T16:59:14Z</time>
      </trkpt>
      <trkpt lat="-35.041393" lon="-58.27074">
        <ele>-72.2273</ele>
        <time>2021-05-01T16:59:16Z</time>
      </trkpt>
      <trkpt lat="-35.041332" lon="-58.270668">
        <ele>-70.52733</ele>
        <time>2021-05-01T16:59:18Z</time>
      </trkpt>
      <trkpt lat="-35.04127" lon="-58.270596">
        <ele>-68.856186</ele>
        <time>2021-05-01T16:59:20Z</time>
      </trkpt>
      <trkpt lat="-35.04121" lon="-58.270523">
        <ele>-68.25016</ele>
        <time>2021-05-01T16:59:22Z</time>
      </trkpt>
      <trkpt lat="-35.04115" lon="-58.270454">
        <ele>-69.563545</ele>
        <time>2021-05-01T16:59:24Z</time>
      </trkpt>
      <trkpt lat="-35.04109" lon="-58.270386">
        <ele>-69.48495</ele>
        <time>2021-05-01T16:59:26Z</time>
      </trkpt>
      <trkpt lat="-35.041027" lon="-58.270313">
        <ele>-66.99255</ele>
        <time>2021-05-01T16:59:28Z</time>
      </trkpt>
      <trkpt lat="-35.040966" lon="-58.270245">
        <ele>-65.64283</ele>
        <time>2021-05-01T16:59:30Z</time>
      </trkpt>
      <trkpt lat="-35.040905" lon="-58.27018">
        <ele>-64.80606</ele>
        <time>2021-05-01T16:59:32Z</time>
      </trkpt>
      <trkpt lat="-35.040848" lon="-58.27011">
        <ele>-63.83686</ele>
        <time>2021-05-01T16:59:34Z</time>
      </trkpt>
      <trkpt lat="-35.040787" lon="-58.270042">
        <ele>-62.646248</ele>
        <time>2021-05-01T16:59:36Z</time>
      </trkpt>
      <trkpt lat="-35.040726" lon="-58.269974">
        <ele>-65.18669</ele>
        <time>2021-05-01T16:59:38Z</time>
      </trkpt>
      <trkpt lat="-35.040657" lon="-58.269897">
        <ele>-66.43923</ele>
        <time>2021-05-01T16:59:40Z</time>
      </trkpt>
      <trkpt lat="-35.040627" lon="-58.26986">
        <ele>-65.7566</ele>
        <time>2021-05-01T16:59:41Z</time>
      </trkpt>
      <trkpt lat="-35.040592" lon="-58.26982">
        <ele>-60.026897</ele>
        <time>2021-05-01T16:59:42Z</time>
      </trkpt>
      <trkpt lat="-35.04056" lon="-58.26978">
        <ele>-54.119846</ele>
        <time>2021-05-01T16:59:43Z</time>
      </trkpt>
      <trkpt lat="-35.04053" lon="-58.26974">
        <ele>-51.805866</ele>
        <time>2021-05-01T16:59:44Z</time>
      </trkpt>
      <trkpt lat="-35.040497" lon="-58.2697">
        <ele>-50.12922</ele>
        <time>2021-05-01T16:59:45Z</time>
      </trkpt>
      <trkpt lat="-35.040466" lon="-58.269653">
        <ele>-48.24647</ele>
        <time>2021-05-01T16:59:46Z</time>
      </trkpt>
      <trkpt lat="-35.040436" lon="-58.26961">
        <ele>-22.258312</ele>
        <time>2021-05-01T16:59:47Z</time>
      </trkpt>
      <trkpt lat="-35.0404" lon="-58.269573">
        <ele>-5.4699674</ele>
        <time>2021-05-01T16:59:48Z</time>
      </trkpt>
      <trkpt lat="-35.040367" lon="-58.26953">
        <ele>-15.960102</ele>
        <time>2021-05-01T16:59:49Z</time>
      </trkpt>
      <trkpt lat="-35.040333" lon="-58.269493">
        <ele>-27.433844</ele>
        <time>2021-05-01T16:59:50Z</time>
      </trkpt>
      <trkpt lat="-35.040302" lon="-58.269455">
        <ele>-44.008427</ele>
        <time>2021-05-01T16:59:51Z</time>
      </trkpt>
      <trkpt lat="-35.040237" lon="-58.26939">
        <ele>-34.9697</ele>
        <time>2021-05-01T16:59:53Z</time>
      </trkpt>
      <trkpt lat="-35.040176" lon="-58.26933">
        <ele>-30.678448</ele>
        <time>2021-05-01T16:59:55Z</time>
      </trkpt>
      <trkpt lat="-35.04012" lon="-58.26926">
        <ele>-31.636618</ele>
        <time>2021-05-01T16:59:57Z</time>
      </trkpt>
      <trkpt lat="-35.04006" lon="-58.2692">
        <ele>-28.51025</ele>
        <time>2021-05-01T16:59:59Z</time>
      </trkpt>
      <trkpt lat="-35.040005" lon="-58.269135">
        <ele>-46.832497</ele>
        <time>2021-05-01T17:00:01Z</time>
      </trkpt>
      <trkpt lat="-35.03995" lon="-58.269077">
        <ele>-52.412323</ele>
        <time>2021-05-01T17:00:03Z</time>
      </trkpt>
      <trkpt lat="-35.039906" lon="-58.269016">
        <ele>-35.549675</ele>
        <time>2021-05-01T17:00:05Z</time>
      </trkpt>
      <trkpt lat="-35.03984" lon="-58.268955">
        <ele>-16.81627</ele>
        <time>2021-05-01T17:00:07Z</time>
      </trkpt>
      <trkpt lat="-35.039776" lon="-58.26889">
        <ele>-12.90728</ele>
        <time>2021-05-01T17:00:09Z</time>
      </trkpt>
      <trkpt lat="-35.03974" lon="-58.268856">
        <ele>-17.614365</ele>
        <time>2021-05-01T17:00:10Z</time>
      </trkpt>
      <trkpt lat="-35.039707" lon="-58.268818">
        <ele>-12.198179</ele>
        <time>2021-05-01T17:00:11Z</time>
      </trkpt>
      <trkpt lat="-35.039677" lon="-58.26878">
        <ele>-5.580928</ele>
        <time>2021-05-01T17:00:12Z</time>
      </trkpt>
      <trkpt lat="-35.039642" lon="-58.268745">
        <ele>2.9013104</ele>
        <time>2021-05-01T17:00:13Z</time>
      </trkpt>
      <trkpt lat="-35.039608" lon="-58.268707">
        <ele>4.665984</ele>
        <time>2021-05-01T17:00:14Z</time>
      </trkpt>
      <trkpt lat="-35.039543" lon="-58.26863">
        <ele>7.5420384</ele>
        <time>2021-05-01T17:00:16Z</time>
      </trkpt>
      <trkpt lat="-35.039513" lon="-58.268593">
        <ele>5.6329293</ele>
        <time>2021-05-01T17:00:17Z</time>
      </trkpt>
      <trkpt lat="-35.039444" lon="-58.268517">
        <ele>12.875934</ele>
        <time>2021-05-01T17:00:19Z</time>
      </trkpt>
      <trkpt lat="-35.03938" lon="-58.26844">
        <ele>50.73643</ele>
        <time>2021-05-01T17:00:21Z</time>
      </trkpt>
      <trkpt lat="-35.03931" lon="-58.26837">
        <ele>2.681384</ele>
        <time>2021-05-01T17:00:23Z</time>
      </trkpt>
      <trkpt lat="-35.039276" lon="-58.268333">
        <ele>2.889899</ele>
        <time>2021-05-01T17:00:24Z</time>
      </trkpt>
      <trkpt lat="-35.03924" lon="-58.268295">
        <ele>15.795571</ele>
        <time>2021-05-01T17:00:25Z</time>
      </trkpt>
      <trkpt lat="-35.039207" lon="-58.268257">
        <ele>6.0168133</ele>
        <time>2021-05-01T17:00:26Z</time>
      </trkpt>
      <trkpt lat="-35.039177" lon="-58.26822">
        <ele>17.712791</ele>
        <time>2021-05-01T17:00:27Z</time>
      </trkpt>
      <trkpt lat="-35.039143" lon="-58.268177">
        <ele>48.93704</ele>
        <time>2021-05-01T17:00:28Z</time>
      </trkpt>
      <trkpt lat="-35.03911" lon="-58.26814">
        <ele>77.19364</ele>
        <time>2021-05-01T17:00:29Z</time>
      </trkpt>
      <trkpt lat="-35.039074" lon="-58.2681">
        <ele>68.73497</ele>
        <time>2021-05-01T17:00:30Z</time>
      </trkpt>
      <trkpt lat="-35.03901" lon="-58.268024">
        <ele>54.78376</ele>
        <time>2021-05-01T17:00:32Z</time>
      </trkpt>
      <trkpt lat="-35.038975" lon="-58.267986">
        <ele>54.78376</ele>
        <time>2021-05-01T17:00:33Z</time>
      </trkpt>
      <trkpt lat="-35.038937" lon="-58.267952">
        <ele>54.78376</ele>
        <time>2021-05-01T17:00:34Z</time>
      </trkpt>
      <trkpt lat="-35.038902" lon="-58.267914">
        <ele>54.78376</ele>
        <time>2021-05-01T17:00:35Z</time>
      </trkpt>
      <trkpt lat="-35.038868" lon="-58.26787">
        <ele>54.78376</ele>
        <time>2021-05-01T17:00:36Z</time>
      </trkpt>
      <trkpt lat="-35.03883" lon="-58.267834">
        <ele>54.78376</ele>
        <time>2021-05-01T17:00:37Z</time>
      </trkpt>
      <trkpt lat="-35.0388" lon="-58.267788">
        <ele>54.78376</ele>
        <time>2021-05-01T17:00:38Z</time>
      </trkpt>
      <trkpt lat="-35.038765" lon="-58.267746">
        <ele>54.78376</ele>
        <time>2021-05-01T17:00:39Z</time>
      </trkpt>
      <trkpt lat="-35.038727" lon="-58.267708">
        <ele>54.78376</ele>
        <time>2021-05-01T17:00:40Z</time>
      </trkpt>
      <trkpt lat="-35.03869" lon="-58.26767">
        <ele>54.78376</ele>
        <time>2021-05-01T17:00:41Z</time>
      </trkpt>
      <trkpt lat="-35.03865" lon="-58.26763">
        <ele>54.78376</ele>
        <time>2021-05-01T17:00:42Z</time>
      </trkpt>
      <trkpt lat="-35.03861" lon="-58.267593">
        <ele>54.78376</ele>
        <time>2021-05-01T17:00:43Z</time>
      </trkpt>
      <trkpt lat="-35.038574" lon="-58.267555">
        <ele>54.78376</ele>
        <time>2021-05-01T17:00:44Z</time>
      </trkpt>
      <trkpt lat="-35.038536" lon="-58.267513">
        <ele>54.78376</ele>
        <time>2021-05-01T17:00:45Z</time>
      </trkpt>
      <trkpt lat="-35.038498" lon="-58.26747">
        <ele>54.78376</ele>
        <time>2021-05-01T17:00:46Z</time>
      </trkpt>
      <trkpt lat="-35.038464" lon="-58.267433">
        <ele>54.78376</ele>
        <time>2021-05-01T17:00:47Z</time>
      </trkpt>
      <trkpt lat="-35.03843" lon="-58.267395">
        <ele>54.78376</ele>
        <time>2021-05-01T17:00:48Z</time>
      </trkpt>
      <trkpt lat="-35.038364" lon="-58.267323">
        <ele>54.78376</ele>
        <time>2021-05-01T17:00:50Z</time>
      </trkpt>
      <trkpt lat="-35.0383" lon="-58.267246">
        <ele>54.78376</ele>
        <time>2021-05-01T17:00:52Z</time>
      </trkpt>
      <trkpt lat="-35.03826" lon="-58.267212">
        <ele>54.78376</ele>
        <time>2021-05-01T17:00:53Z</time>
      </trkpt>
      <trkpt lat="-35.038227" lon="-58.267174">
        <ele>54.78376</ele>
        <time>2021-05-01T17:00:54Z</time>
      </trkpt>
      <trkpt lat="-35.038197" lon="-58.26713">
        <time>2021-05-01T17:00:55Z</time>
      </trkpt>
      <trkpt lat="-35.03816" lon="-58.26709">
        <time>2021-05-01T17:00:56Z</time>
      </trkpt>
      <trkpt lat="-35.038124" lon="-58.26705">
        <time>2021-05-01T17:00:57Z</time>
      </trkpt>
      <trkpt lat="-35.03809" lon="-58.26701">
        <time>2021-05-01T17:00:58Z</time>
      </trkpt>
      <trkpt lat="-35.03805" lon="-58.26697">
        <time>2021-05-01T17:00:59Z</time>
      </trkpt>
      <trkpt lat="-35.038017" lon="-58.266933">
        <time>2021-05-01T17:01:00Z</time>
      </trkpt>
      <trkpt lat="-35.03798" lon="-58.266895">
        <time>2021-05-01T17:01:01Z</time>
      </trkpt>
      <trkpt lat="-35.037945" lon="-58.266853">
        <time>2021-05-01T17:01:02Z</time>
      </trkpt>
      <trkpt lat="-35.037907" lon="-58.26681">
        <time>2021-05-01T17:01:03Z</time>
      </trkpt>
      <trkpt lat="-35.037872" lon="-58.26677">
        <time>2021-05-01T17:01:04Z</time>
      </trkpt>
      <trkpt lat="-35.037834" lon="-58.26673">
        <time>2021-05-01T17:01:05Z</time>
      </trkpt>
      <trkpt lat="-35.037796" lon="-58.26669">
        <time>2021-05-01T17:01:06Z</time>
      </trkpt>
      <trkpt lat="-35.037758" lon="-58.26665">
        <time>2021-05-01T17:01:07Z</time>
      </trkpt>
      <trkpt lat="-35.037716" lon="-58.266617">
        <time>2021-05-01T17:01:08Z</time>
      </trkpt>
      <trkpt lat="-35.037678" lon="-58.26658">
        <time>2021-05-01T17:01:09Z</time>
      </trkpt>
      <trkpt lat="-35.03764" lon="-58.26654">
        <time>2021-05-01T17:01:10Z</time>
      </trkpt>
      <trkpt lat="-35.0376" lon="-58.2665">
        <time>2021-05-01T17:01:11Z</time>
      </trkpt>
      <trkpt lat="-35.037563" lon="-58.26646">
        <time>2021-05-01T17:01:12Z</time>
      </trkpt>
      <trkpt lat="-35.037525" lon="-58.26642">
        <time>2021-05-01T17:01:13Z</time>
      </trkpt>
      <trkpt lat="-35.03749" lon="-58.26638">
        <time>2021-05-01T17:01:14Z</time>
      </trkpt>
      <trkpt lat="-35.037457" lon="-58.266342">
        <time>2021-05-01T17:01:15Z</time>
      </trkpt>
      <trkpt lat="-35.037422" lon="-58.266304">
        <time>2021-05-01T17:01:16Z</time>
      </trkpt>
      <trkpt lat="-35.037354" lon="-58.266228">
        <time>2021-05-01T17:01:18Z</time>
      </trkpt>
      <trkpt lat="-35.03732" lon="-58.266193">
        <time>2021-05-01T17:01:19Z</time>
      </trkpt>
      <trkpt lat="-35.037285" lon="-58.26615">
        <time>2021-05-01T17:01:20Z</time>
      </trkpt>
      <trkpt lat="-35.03725" lon="-58.266113">
        <time>2021-05-01T17:01:21Z</time>
      </trkpt>
      <trkpt lat="-35.037216" lon="-58.266075">
        <time>2021-05-01T17:01:22Z</time>
      </trkpt>
      <trkpt lat="-35.037178" lon="-58.266033">
        <time>2021-05-01T17:01:23Z</time>
      </trkpt>
      <trkpt lat="-35.037144" lon="-58.265995">
        <time>2021-05-01T17:01:24Z</time>
      </trkpt>
      <trkpt lat="-35.03711" lon="-58.265953">
        <time>2021-05-01T17:01:25Z</time>
      </trkpt>
      <trkpt lat="-35.037075" lon="-58.265915">
        <time>2021-05-01T17:01:26Z</time>
      </trkpt>
      <trkpt lat="-35.03704" lon="-58.265877">
        <time>2021-05-01T17:01:27Z</time>
      </trkpt>
      <trkpt lat="-35.03698" lon="-58.265804">
        <time>2021-05-01T17:01:29Z</time>
      </trkpt>
      <trkpt lat="-35.03692" lon="-58.265736">
        <time>2021-05-01T17:01:31Z</time>
      </trkpt>
      <trkpt lat="-35.036858" lon="-58.265663">
        <time>2021-05-01T17:01:33Z</time>
      </trkpt>
      <trkpt lat="-35.036823" lon="-58.265625">
        <time>2021-05-01T17:01:34Z</time>
      </trkpt>
      <trkpt lat="-35.03679" lon="-58.265583">
        <time>2021-05-01T17:01:35Z</time>
      </trkpt>
      <trkpt lat="-35.036762" lon="-58.265537">
        <time>2021-05-01T17:01:36Z</time>
      </trkpt>
      <trkpt lat="-35.03673" lon="-58.265495">
        <time>2021-05-01T17:01:37Z</time>
      </trkpt>
      <trkpt lat="-35.036697" lon="-58.26545">
        <time>2021-05-01T17:01:38Z</time>
      </trkpt>
      <trkpt lat="-35.036663" lon="-58.26541">
        <time>2021-05-01T17:01:39Z</time>
      </trkpt>
      <trkpt lat="-35.03663" lon="-58.26537">
        <time>2021-05-01T17:01:40Z</time>
      </trkpt>
      <trkpt lat="-35.036564" lon="-58.2653">
        <time>2021-05-01T17:01:42Z</time>
      </trkpt>
      <trkpt lat="-35.036503" lon="-58.265236">
        <time>2021-05-01T17:01:44Z</time>
      </trkpt>
      <trkpt lat="-35.036446" lon="-58.26517">
        <time>2021-05-01T17:01:46Z</time>
      </trkpt>
      <trkpt lat="-35.036385" lon="-58.265102">
        <time>2021-05-01T17:01:48Z</time>
      </trkpt>
      <trkpt lat="-35.036324" lon="-58.265038">
        <time>2021-05-01T17:01:50Z</time>
      </trkpt>
      <trkpt lat="-35.03627" lon="-58.264984">
        <time>2021-05-01T17:01:52Z</time>
      </trkpt>
      <trkpt lat="-35.036217" lon="-58.264927">
        <time>2021-05-01T17:01:54Z</time>
      </trkpt>
      <trkpt lat="-35.036156" lon="-58.26487">
        <time>2021-05-01T17:01:56Z</time>
      </trkpt>
      <trkpt lat="-35.036095" lon="-58.264812">
        <time>2021-05-01T17:01:58Z</time>
      </trkpt>
      <trkpt lat="-35.036026" lon="-58.264755">
        <time>2021-05-01T17:02:00Z</time>
      </trkpt>
      <trkpt lat="-35.035965" lon="-58.264683">
        <time>2021-05-01T17:02:02Z</time>
      </trkpt>
      <trkpt lat="-35.035896" lon="-58.26461">
        <time>2021-05-01T17:02:04Z</time>
      </trkpt>
      <trkpt lat="-35.035866" lon="-58.264572">
        <time>2021-05-01T17:02:05Z</time>
      </trkpt>
      <trkpt lat="-35.03583" lon="-58.264534">
        <time>2021-05-01T17:02:06Z</time>
      </trkpt>
      <trkpt lat="-35.035767" lon="-58.264465">
        <time>2021-05-01T17:02:08Z</time>
      </trkpt>
      <trkpt lat="-35.035706" lon="-58.264393">
        <time>2021-05-01T17:02:10Z</time>
      </trkpt>
      <trkpt lat="-35.03565" lon="-58.264324">
        <time>2021-05-01T17:02:12Z</time>
      </trkpt>
      <trkpt lat="-35.035587" lon="-58.264263">
        <time>2021-05-01T17:02:14Z</time>
      </trkpt>
      <trkpt lat="-35.035526" lon="-58.264214">
        <time>2021-05-01T17:02:16Z</time>
      </trkpt>
      <trkpt lat="-35.035458" lon="-58.264202">
        <time>2021-05-01T17:02:18Z</time>
      </trkpt>
      <trkpt lat="-35.035393" lon="-58.264194">
        <time>2021-05-01T17:02:20Z</time>
      </trkpt>
      <trkpt lat="-35.035336" lon="-58.264202">
        <time>2021-05-01T17:02:22Z</time>
      </trkpt>
      <trkpt lat="-35.03529" lon="-58.26422">
        <time>2021-05-01T17:02:24Z</time>
      </trkpt>
      <trkpt lat="-35.035233" lon="-58.264244">
        <time>2021-05-01T17:02:27Z</time>
      </trkpt>
      <trkpt lat="-35.03518" lon="-58.264256">
        <time>2021-05-01T17:02:51Z</time>
      </trkpt>
      <trkpt lat="-35.035122" lon="-58.264324">
        <time>2021-05-01T17:02:51Z</time>
      </trkpt>
      <trkpt lat="-35.035065" lon="-58.264397">
        <time>2021-05-01T17:02:52Z</time>
      </trkpt>
      <trkpt lat="-35.035004" lon="-58.26448">
        <time>2021-05-01T17:02:54Z</time>
      </trkpt>
      <trkpt lat="-35.03497" lon="-58.264523">
        <time>2021-05-01T17:02:55Z</time>
      </trkpt>
      <trkpt lat="-35.034935" lon="-58.26457">
        <time>2021-05-01T17:02:56Z</time>
      </trkpt>
      <trkpt lat="-35.0349" lon="-58.264614">
        <time>2021-05-01T17:02:57Z</time>
      </trkpt>
      <trkpt lat="-35.034866" lon="-58.264652">
        <time>2021-05-01T17:02:58Z</time>
      </trkpt>
      <trkpt lat="-35.034832" lon="-58.264698">
        <time>2021-05-01T17:02:59Z</time>
      </trkpt>
      <trkpt lat="-35.034798" lon="-58.26474">
        <time>2021-05-01T17:03:00Z</time>
      </trkpt>
      <trkpt lat="-35.034767" lon="-58.26479">
        <time>2021-05-01T17:03:01Z</time>
      </trkpt>
      <trkpt lat="-35.034733" lon="-58.264835">
        <time>2021-05-01T17:03:02Z</time>
      </trkpt>
      <trkpt lat="-35.0347" lon="-58.264885">
        <time>2021-05-01T17:03:03Z</time>
      </trkpt>
      <trkpt lat="-35.034664" lon="-58.26493">
        <time>2021-05-01T17:03:04Z</time>
      </trkpt>
      <trkpt lat="-35.034626" lon="-58.26498">
        <time>2021-05-01T17:03:05Z</time>
      </trkpt>
      <trkpt lat="-35.034588" lon="-58.265034">
        <time>2021-05-01T17:03:06Z</time>
      </trkpt>
      <trkpt lat="-35.034554" lon="-58.265083">
        <time>2021-05-01T17:03:07Z</time>
      </trkpt>
      <trkpt lat="-35.03452" lon="-58.265133">
        <time>2021-05-01T17:03:08Z</time>
      </trkpt>
      <trkpt lat="-35.034485" lon="-58.26518">
        <time>2021-05-01T17:03:09Z</time>
      </trkpt>
      <trkpt lat="-35.034454" lon="-58.265224">
        <time>2021-05-01T17:03:10Z</time>
      </trkpt>
      <trkpt lat="-35.03442" lon="-58.265274">
        <time>2021-05-01T17:03:11Z</time>
      </trkpt>
      <trkpt lat="-35.03439" lon="-58.26532">
        <time>2021-05-01T17:03:12Z</time>
      </trkpt>
      <trkpt lat="-35.034355" lon="-58.265366">
        <time>2021-05-01T17:03:13Z</time>
      </trkpt>
      <trkpt lat="-35.03432" lon="-58.26541">
        <time>2021-05-01T17:03:14Z</time>
      </trkpt>
      <trkpt lat="-35.03429" lon="-58.26545">
        <time>2021-05-01T17:03:15Z</time>
      </trkpt>
      <trkpt lat="-35.03426" lon="-58.26549">
        <time>2021-05-01T17:03:16Z</time>
      </trkpt>
      <trkpt lat="-35.03423" lon="-58.265533">
        <time>2021-05-01T17:03:17Z</time>
      </trkpt>
      <trkpt lat="-35.034157" lon="-58.265602">
        <time>2021-05-01T17:03:19Z</time>
      </trkpt>
      <trkpt lat="-35.03408" lon="-58.265656">
        <time>2021-05-01T17:03:21Z</time>
      </trkpt>
      <trkpt lat="-35.034004" lon="-58.265694">
        <time>2021-05-01T17:03:23Z</time>
      </trkpt>
      <trkpt lat="-35.03393" lon="-58.26571">
        <time>2021-05-01T17:03:25Z</time>
      </trkpt>
      <trkpt lat="-35.03386" lon="-58.265682">
        <time>2021-05-01T17:03:27Z</time>
      </trkpt>
      <trkpt lat="-35.033783" lon="-58.265636">
        <time>2021-05-01T17:03:29Z</time>
      </trkpt>
      <trkpt lat="-35.03371" lon="-58.265583">
        <time>2021-05-01T17:03:31Z</time>
      </trkpt>
      <trkpt lat="-35.033672" lon="-58.265553">
        <time>2021-05-01T17:03:32Z</time>
      </trkpt>
      <trkpt lat="-35.033638" lon="-58.26552">
        <time>2021-05-01T17:03:33Z</time>
      </trkpt>
      <trkpt lat="-35.033604" lon="-58.26548">
        <time>2021-05-01T17:03:34Z</time>
      </trkpt>
      <trkpt lat="-35.03357" lon="-58.26544">
        <time>2021-05-01T17:03:35Z</time>
      </trkpt>
      <trkpt lat="-35.0335" lon="-58.26537">
        <time>2021-05-01T17:03:37Z</time>
      </trkpt>
      <trkpt lat="-35.033436" lon="-58.265297">
        <time>2021-05-01T17:03:39Z</time>
      </trkpt>
      <trkpt lat="-35.033367" lon="-58.265224">
        <time>2021-05-01T17:03:41Z</time>
      </trkpt>
      <trkpt lat="-35.033333" lon="-58.26519">
        <time>2021-05-01T17:03:42Z</time>
      </trkpt>
      <trkpt lat="-35.0333" lon="-58.265152">
        <time>2021-05-01T17:03:43Z</time>
      </trkpt>
      <trkpt lat="-35.03326" lon="-58.265118">
        <time>2021-05-01T17:03:44Z</time>
      </trkpt>
      <trkpt lat="-35.033226" lon="-58.26508">
        <time>2021-05-01T17:03:45Z</time>
      </trkpt>
      <trkpt lat="-35.03319" lon="-58.26504">
        <time>2021-05-01T17:03:46Z</time>
      </trkpt>
      <trkpt lat="-35.033157" lon="-58.265003">
        <time>2021-05-01T17:03:47Z</time>
      </trkpt>
      <trkpt lat="-35.033123" lon="-58.264965">
        <time>2021-05-01T17:03:48Z</time>
      </trkpt>
      <trkpt lat="-35.033062" lon="-58.264893">
        <time>2021-05-01T17:03:50Z</time>
      </trkpt>
      <trkpt lat="-35.032993" lon="-58.264816">
        <time>2021-05-01T17:03:52Z</time>
      </trkpt>
      <trkpt lat="-35.03296" lon="-58.26478">
        <time>2021-05-01T17:03:53Z</time>
      </trkpt>
      <trkpt lat="-35.032925" lon="-58.26474">
        <time>2021-05-01T17:03:54Z</time>
      </trkpt>
      <trkpt lat="-35.03289" lon="-58.2647">
        <time>2021-05-01T17:03:55Z</time>
      </trkpt>
      <trkpt lat="-35.03283" lon="-58.26463">
        <time>2021-05-01T17:03:57Z</time>
      </trkpt>
      <trkpt lat="-35.032764" lon="-58.264557">
        <time>2021-05-01T17:03:59Z</time>
      </trkpt>
      <trkpt lat="-35.0327" lon="-58.26448">
        <time>2021-05-01T17:04:01Z</time>
      </trkpt>
      <trkpt lat="-35.032665" lon="-58.264442">
        <time>2021-05-01T17:04:02Z</time>
      </trkpt>
      <trkpt lat="-35.03263" lon="-58.264404">
        <time>2021-05-01T17:04:03Z</time>
      </trkpt>
      <trkpt lat="-35.032566" lon="-58.264336">
        <time>2021-05-01T17:04:05Z</time>
      </trkpt>
      <trkpt lat="-35.0325" lon="-58.264267">
        <time>2021-05-01T17:04:07Z</time>
      </trkpt>
      <trkpt lat="-35.03244" lon="-58.2642">
        <time>2021-05-01T17:04:09Z</time>
      </trkpt>
      <trkpt lat="-35.03238" lon="-58.264133">
        <time>2021-05-01T17:04:11Z</time>
      </trkpt>
      <trkpt lat="-35.032314" lon="-58.26406">
        <time>2021-05-01T17:04:13Z</time>
      </trkpt>
      <trkpt lat="-35.032284" lon="-58.264023">
        <time>2021-05-01T17:04:14Z</time>
      </trkpt>
      <trkpt lat="-35.032246" lon="-58.263985">
        <time>2021-05-01T17:04:15Z</time>
      </trkpt>
      <trkpt lat="-35.03221" lon="-58.263943">
        <time>2021-05-01T17:04:16Z</time>
      </trkpt>
      <trkpt lat="-35.032177" lon="-58.263905">
        <time>2021-05-01T17:04:17Z</time>
      </trkpt>
      <trkpt lat="-35.032143" lon="-58.263866">
        <time>2021-05-01T17:04:18Z</time>
      </trkpt>
      <trkpt lat="-35.03211" lon="-58.26383">
        <time>2021-05-01T17:04:19Z</time>
      </trkpt>
      <trkpt lat="-35.032074" lon="-58.26379">
        <time>2021-05-01T17:04:20Z</time>
      </trkpt>
      <trkpt lat="-35.03204" lon="-58.263752">
        <time>2021-05-01T17:04:21Z</time>
      </trkpt>
      <trkpt lat="-35.032005" lon="-58.263714">
        <time>2021-05-01T17:04:22Z</time>
      </trkpt>
      <trkpt lat="-35.03197" lon="-58.263676">
        <time>2021-05-01T17:04:23Z</time>
      </trkpt>
      <trkpt lat="-35.031906" lon="-58.263603">
        <time>2021-05-01T17:04:25Z</time>
      </trkpt>
      <trkpt lat="-35.03184" lon="-58.26353">
        <time>2021-05-01T17:04:27Z</time>
      </trkpt>
      <trkpt lat="-35.031803" lon="-58.263496">
        <time>2021-05-01T17:04:28Z</time>
      </trkpt>
      <trkpt lat="-35.03177" lon="-58.263462">
        <time>2021-05-01T17:04:29Z</time>
      </trkpt>
      <trkpt lat="-35.031708" lon="-58.263386">
        <time>2021-05-01T17:04:31Z</time>
      </trkpt>
      <trkpt lat="-35.031647" lon="-58.263317">
        <time>2021-05-01T17:04:33Z</time>
      </trkpt>
      <trkpt lat="-35.03159" lon="-58.263252">
        <time>2021-05-01T17:04:35Z</time>
      </trkpt>
      <trkpt lat="-35.031532" lon="-58.263187">
        <time>2021-05-01T17:04:37Z</time>
      </trkpt>
      <trkpt lat="-35.03147" lon="-58.26312">
        <time>2021-05-01T17:04:39Z</time>
      </trkpt>
      <trkpt lat="-35.03141" lon="-58.26305">
        <time>2021-05-01T17:04:41Z</time>
      </trkpt>
      <trkpt lat="-35.031345" lon="-58.26298">
        <time>2021-05-01T17:04:43Z</time>
      </trkpt>
      <trkpt lat="-35.03128" lon="-58.262913">
        <time>2021-05-01T17:04:45Z</time>
      </trkpt>
      <trkpt lat="-35.031216" lon="-58.262848">
        <time>2021-05-01T17:04:47Z</time>
      </trkpt>
      <trkpt lat="-35.031155" lon="-58.262775">
        <time>2021-05-01T17:04:49Z</time>
      </trkpt>
      <trkpt lat="-35.031097" lon="-58.26271">
        <time>2021-05-01T17:04:51Z</time>
      </trkpt>
      <trkpt lat="-35.031036" lon="-58.26264">
        <time>2021-05-01T17:04:53Z</time>
      </trkpt>
      <trkpt lat="-35.030975" lon="-58.262573">
        <time>2021-05-01T17:04:55Z</time>
      </trkpt>
      <trkpt lat="-35.03091" lon="-58.26251">
        <time>2021-05-01T17:04:57Z</time>
      </trkpt>
      <trkpt lat="-35.03085" lon="-58.262436">
        <time>2021-05-01T17:04:59Z</time>
      </trkpt>
      <trkpt lat="-35.03079" lon="-58.262367">
        <time>2021-05-01T17:05:01Z</time>
      </trkpt>
      <trkpt lat="-35.030727" lon="-58.262295">
        <time>2021-05-01T17:05:03Z</time>
      </trkpt>
      <trkpt lat="-35.030663" lon="-58.262222">
        <time>2021-05-01T17:05:05Z</time>
      </trkpt>
      <trkpt lat="-35.030598" lon="-58.262146">
        <time>2021-05-01T17:05:07Z</time>
      </trkpt>
      <trkpt lat="-35.030537" lon="-58.262074">
        <time>2021-05-01T17:05:09Z</time>
      </trkpt>
      <trkpt lat="-35.030476" lon="-58.262005">
        <time>2021-05-01T17:05:11Z</time>
      </trkpt>
      <trkpt lat="-35.030415" lon="-58.261932">
        <time>2021-05-01T17:05:13Z</time>
      </trkpt>
      <trkpt lat="-35.03035" lon="-58.261864">
        <time>2021-05-01T17:05:15Z</time>
      </trkpt>
      <trkpt lat="-35.03029" lon="-58.261795">
        <time>2021-05-01T17:05:17Z</time>
      </trkpt>
      <trkpt lat="-35.030228" lon="-58.261723">
        <time>2021-05-01T17:05:19Z</time>
      </trkpt>
      <trkpt lat="-35.03016" lon="-58.261654">
        <time>2021-05-01T17:05:21Z</time>
      </trkpt>
      <trkpt lat="-35.030125" lon="-58.261616">
        <time>2021-05-01T17:05:22Z</time>
      </trkpt>
      <trkpt lat="-35.03009" lon="-58.261578">
        <time>2021-05-01T17:05:23Z</time>
      </trkpt>
      <trkpt lat="-35.030056" lon="-58.261536">
        <time>2021-05-01T17:05:24Z</time>
      </trkpt>
      <trkpt lat="-35.03002" lon="-58.261494">
        <time>2021-05-01T17:05:25Z</time>
      </trkpt>
      <trkpt lat="-35.029984" lon="-58.261456">
        <time>2021-05-01T17:05:26Z</time>
      </trkpt>
      <trkpt lat="-35.02995" lon="-58.261417">
        <time>2021-05-01T17:05:27Z</time>
      </trkpt>
      <trkpt lat="-35.029915" lon="-58.261383">
        <time>2021-05-01T17:05:28Z</time>
      </trkpt>
      <trkpt lat="-35.02985" lon="-58.261303">
        <time>2021-05-01T17:05:30Z</time>
      </trkpt>
      <trkpt lat="-35.029816" lon="-58.26127">
        <time>2021-05-01T17:05:31Z</time>
      </trkpt>
      <trkpt lat="-35.02978" lon="-58.26123">
        <time>2021-05-01T17:05:32Z</time>
      </trkpt>
      <trkpt lat="-35.029747" lon="-58.261192">
        <time>2021-05-01T17:05:33Z</time>
      </trkpt>
      <trkpt lat="-35.02971" lon="-58.261158">
        <time>2021-05-01T17:05:34Z</time>
      </trkpt>
      <trkpt lat="-35.02967" lon="-58.26112">
        <time>2021-05-01T17:05:35Z</time>
      </trkpt>
      <trkpt lat="-35.029633" lon="-58.26108">
        <time>2021-05-01T17:05:36Z</time>
      </trkpt>
      <trkpt lat="-35.029594" lon="-58.26104">
        <time>2021-05-01T17:05:37Z</time>
      </trkpt>
      <trkpt lat="-35.029556" lon="-58.260998">
        <time>2021-05-01T17:05:38Z</time>
      </trkpt>
      <trkpt lat="-35.02952" lon="-58.260956">
        <time>2021-05-01T17:05:39Z</time>
      </trkpt>
      <trkpt lat="-35.02948" lon="-58.260914">
        <time>2021-05-01T17:05:40Z</time>
      </trkpt>
      <trkpt lat="-35.02944" lon="-58.260876">
        <time>2021-05-01T17:05:41Z</time>
      </trkpt>
      <trkpt lat="-35.029404" lon="-58.260834">
        <time>2021-05-01T17:05:42Z</time>
      </trkpt>
      <trkpt lat="-35.029366" lon="-58.26079">
        <time>2021-05-01T17:05:43Z</time>
      </trkpt>
      <trkpt lat="-35.02933" lon="-58.26075">
        <time>2021-05-01T17:05:44Z</time>
      </trkpt>
      <trkpt lat="-35.029293" lon="-58.26071">
        <time>2021-05-01T17:05:45Z</time>
      </trkpt>
      <trkpt lat="-35.02926" lon="-58.260674">
        <time>2021-05-01T17:05:46Z</time>
      </trkpt>
      <trkpt lat="-35.029224" lon="-58.260635">
        <time>2021-05-01T17:05:47Z</time>
      </trkpt>
      <trkpt lat="-35.029186" lon="-58.260597">
        <time>2021-05-01T17:05:48Z</time>
      </trkpt>
      <trkpt lat="-35.02915" lon="-58.26056">
        <time>2021-05-01T17:05:49Z</time>
      </trkpt>
      <trkpt lat="-35.02911" lon="-58.26052">
        <time>2021-05-01T17:05:50Z</time>
      </trkpt>
      <trkpt lat="-35.029068" lon="-58.260483">
        <time>2021-05-01T17:05:51Z</time>
      </trkpt>
      <trkpt lat="-35.029034" lon="-58.260445">
        <time>2021-05-01T17:05:52Z</time>
      </trkpt>
      <trkpt lat="-35.02897" lon="-58.260372">
        <time>2021-05-01T17:05:54Z</time>
      </trkpt>
      <trkpt lat="-35.02891" lon="-58.260303">
        <time>2021-05-01T17:05:56Z</time>
      </trkpt>
      <trkpt lat="-35.02885" lon="-58.260242">
        <time>2021-05-01T17:05:58Z</time>
      </trkpt>
      <trkpt lat="-35.028805" lon="-58.260197">
        <time>2021-05-01T17:06:00Z</time>
      </trkpt>
      <trkpt lat="-35.02875" lon="-58.26016">
        <time>2021-05-01T17:06:02Z</time>
      </trkpt>
      <trkpt lat="-35.0287" lon="-58.260117">
        <time>2021-05-01T17:06:04Z</time>
      </trkpt>
      <trkpt lat="-35.028667" lon="-58.260075">
        <time>2021-05-01T17:06:06Z</time>
      </trkpt>
      <trkpt lat="-35.02863" lon="-58.260025">
        <time>2021-05-01T17:06:13Z</time>
      </trkpt>
      <trkpt lat="-35.02859" lon="-58.259968">
        <time>2021-05-01T17:06:13Z</time>
      </trkpt>
      <trkpt lat="-35.028538" lon="-58.259907">
        <time>2021-05-01T17:07:44Z</time>
      </trkpt>
      <trkpt lat="-35.02848" lon="-58.25983">
        <time>2021-05-01T17:07:46Z</time>
      </trkpt>
      <trkpt lat="-35.028423" lon="-58.25975">
        <time>2021-05-01T17:07:48Z</time>
      </trkpt>
      <trkpt lat="-35.028393" lon="-58.259712">
        <time>2021-05-01T17:07:49Z</time>
      </trkpt>
      <trkpt lat="-35.02833" lon="-58.259632">
        <time>2021-05-01T17:07:51Z</time>
      </trkpt>
      <trkpt lat="-35.028275" lon="-58.259556">
        <time>2021-05-01T17:07:53Z</time>
      </trkpt>
      <trkpt lat="-35.02821" lon="-58.25948">
        <time>2021-05-01T17:07:55Z</time>
      </trkpt>
      <trkpt lat="-35.028175" lon="-58.25944">
        <time>2021-05-01T17:07:56Z</time>
      </trkpt>
      <trkpt lat="-35.02814" lon="-58.259403">
        <time>2021-05-01T17:07:57Z</time>
      </trkpt>
      <trkpt lat="-35.028107" lon="-58.259365">
        <time>2021-05-01T17:07:58Z</time>
      </trkpt>
      <trkpt lat="-35.02807" lon="-58.259327">
        <time>2021-05-01T17:07:59Z</time>
      </trkpt>
      <trkpt lat="-35.02803" lon="-58.25929">
        <time>2021-05-01T17:08:00Z</time>
      </trkpt>
      <trkpt lat="-35.027992" lon="-58.259247">
        <time>2021-05-01T17:08:01Z</time>
      </trkpt>
      <trkpt lat="-35.027958" lon="-58.25921">
        <time>2021-05-01T17:08:02Z</time>
      </trkpt>
      <trkpt lat="-35.027924" lon="-58.25917">
        <time>2021-05-01T17:08:03Z</time>
      </trkpt>
      <trkpt lat="-35.02789" lon="-58.259132">
        <time>2021-05-01T17:08:04Z</time>
      </trkpt>
      <trkpt lat="-35.027855" lon="-58.259094">
        <time>2021-05-01T17:08:05Z</time>
      </trkpt>
      <trkpt lat="-35.02782" lon="-58.259056">
        <time>2021-05-01T17:08:06Z</time>
      </trkpt>
      <trkpt lat="-35.027782" lon="-58.259014">
        <time>2021-05-01T17:08:07Z</time>
      </trkpt>
      <trkpt lat="-35.02775" lon="-58.258976">
        <time>2021-05-01T17:08:08Z</time>
      </trkpt>
      <trkpt lat="-35.02771" lon="-58.258934">
        <time>2021-05-01T17:08:09Z</time>
      </trkpt>
      <trkpt lat="-35.02767" lon="-58.258896">
        <time>2021-05-01T17:08:10Z</time>
      </trkpt>
      <trkpt lat="-35.027637" lon="-58.258854">
        <time>2021-05-01T17:08:11Z</time>
      </trkpt>
      <trkpt lat="-35.0276" lon="-58.258812">
        <time>2021-05-01T17:08:12Z</time>
      </trkpt>
      <trkpt lat="-35.02756" lon="-58.25877">
        <time>2021-05-01T17:08:13Z</time>
      </trkpt>
      <trkpt lat="-35.027523" lon="-58.258728">
        <time>2021-05-01T17:08:14Z</time>
      </trkpt>
      <trkpt lat="-35.027485" lon="-58.258686">
        <time>2021-05-01T17:08:15Z</time>
      </trkpt>
      <trkpt lat="-35.02745" lon="-58.258644">
        <time>2021-05-01T17:08:16Z</time>
      </trkpt>
      <trkpt lat="-35.027416" lon="-58.258602">
        <time>2021-05-01T17:08:17Z</time>
      </trkpt>
      <trkpt lat="-35.02738" lon="-58.258564">
        <time>2021-05-01T17:08:18Z</time>
      </trkpt>
      <trkpt lat="-35.02735" lon="-58.258522">
        <time>2021-05-01T17:08:19Z</time>
      </trkpt>
      <trkpt lat="-35.027317" lon="-58.258484">
        <time>2021-05-01T17:08:20Z</time>
      </trkpt>
      <trkpt lat="-35.02728" lon="-58.258446">
        <time>2021-05-01T17:08:21Z</time>
      </trkpt>
      <trkpt lat="-35.027237" lon="-58.258408">
        <time>2021-05-01T17:08:22Z</time>
      </trkpt>
      <trkpt lat="-35.027203" lon="-58.258366">
        <time>2021-05-01T17:08:23Z</time>
      </trkpt>
      <trkpt lat="-35.027164" lon="-58.258327">
        <time>2021-05-01T17:08:24Z</time>
      </trkpt>
      <trkpt lat="-35.02713" lon="-58.258286">
        <time>2021-05-01T17:08:25Z</time>
      </trkpt>
      <trkpt lat="-35.027096" lon="-58.258247">
        <time>2021-05-01T17:08:26Z</time>
      </trkpt>
      <trkpt lat="-35.02706" lon="-58.25821">
        <time>2021-05-01T17:08:27Z</time>
      </trkpt>
      <trkpt lat="-35.027023" lon="-58.25817">
        <time>2021-05-01T17:08:28Z</time>
      </trkpt>
      <trkpt lat="-35.026985" lon="-58.258133">
        <time>2021-05-01T17:08:29Z</time>
      </trkpt>
      <trkpt lat="-35.026947" lon="-58.2581">
        <time>2021-05-01T17:08:30Z</time>
      </trkpt>
      <trkpt lat="-35.026905" lon="-58.258064">
        <time>2021-05-01T17:08:31Z</time>
      </trkpt>
      <trkpt lat="-35.026863" lon="-58.25803">
        <time>2021-05-01T17:08:32Z</time>
      </trkpt>
      <trkpt lat="-35.026825" lon="-58.25799">
        <time>2021-05-01T17:08:33Z</time>
      </trkpt>
      <trkpt lat="-35.026783" lon="-58.257954">
        <time>2021-05-01T17:08:34Z</time>
      </trkpt>
      <trkpt lat="-35.026745" lon="-58.257915">
        <time>2021-05-01T17:08:35Z</time>
      </trkpt>
      <trkpt lat="-35.02671" lon="-58.257877">
        <time>2021-05-01T17:08:36Z</time>
      </trkpt>
      <trkpt lat="-35.026676" lon="-58.257835">
        <time>2021-05-01T17:08:37Z</time>
      </trkpt>
      <trkpt lat="-35.026638" lon="-58.257797">
        <time>2021-05-01T17:08:38Z</time>
      </trkpt>
      <trkpt lat="-35.026604" lon="-58.25776">
        <time>2021-05-01T17:08:39Z</time>
      </trkpt>
      <trkpt lat="-35.02657" lon="-58.257717">
        <time>2021-05-01T17:08:40Z</time>
      </trkpt>
      <trkpt lat="-35.02653" lon="-58.25768">
        <time>2021-05-01T17:08:41Z</time>
      </trkpt>
      <trkpt lat="-35.026497" lon="-58.25764">
        <time>2021-05-01T17:08:42Z</time>
      </trkpt>
      <trkpt lat="-35.026463" lon="-58.2576">
        <time>2021-05-01T17:08:43Z</time>
      </trkpt>
      <trkpt lat="-35.02643" lon="-58.257565">
        <time>2021-05-01T17:08:44Z</time>
      </trkpt>
      <trkpt lat="-35.026394" lon="-58.257526">
        <time>2021-05-01T17:08:45Z</time>
      </trkpt>
      <trkpt lat="-35.02636" lon="-58.25749">
        <time>2021-05-01T17:08:46Z</time>
      </trkpt>
      <trkpt lat="-35.026325" lon="-58.257454">
        <time>2021-05-01T17:08:47Z</time>
      </trkpt>
      <trkpt lat="-35.02629" lon="-58.257416">
        <time>2021-05-01T17:08:48Z</time>
      </trkpt>
      <trkpt lat="-35.026257" lon="-58.257378">
        <time>2021-05-01T17:08:49Z</time>
      </trkpt>
      <trkpt lat="-35.02622" lon="-58.25734">
        <time>2021-05-01T17:08:50Z</time>
      </trkpt>
      <trkpt lat="-35.026188" lon="-58.257298">
        <time>2021-05-01T17:08:51Z</time>
      </trkpt>
      <trkpt lat="-35.02615" lon="-58.25726">
        <time>2021-05-01T17:08:52Z</time>
      </trkpt>
      <trkpt lat="-35.026115" lon="-58.25722">
        <time>2021-05-01T17:08:53Z</time>
      </trkpt>
      <trkpt lat="-35.026077" lon="-58.257183">
        <time>2021-05-01T17:08:54Z</time>
      </trkpt>
      <trkpt lat="-35.02604" lon="-58.257145">
        <time>2021-05-01T17:08:55Z</time>
      </trkpt>
      <trkpt lat="-35.026005" lon="-58.257103">
        <time>2021-05-01T17:08:56Z</time>
      </trkpt>
      <trkpt lat="-35.02597" lon="-58.257065">
        <time>2021-05-01T17:08:57Z</time>
      </trkpt>
      <trkpt lat="-35.025936" lon="-58.257027">
        <time>2021-05-01T17:08:58Z</time>
      </trkpt>
      <trkpt lat="-35.0259" lon="-58.25699">
        <time>2021-05-01T17:08:59Z</time>
      </trkpt>
      <trkpt lat="-35.025837" lon="-58.256912">
        <time>2021-05-01T17:09:01Z</time>
      </trkpt>
      <trkpt lat="-35.025772" lon="-58.25684">
        <time>2021-05-01T17:09:03Z</time>
      </trkpt>
      <trkpt lat="-35.025738" lon="-58.2568">
        <time>2021-05-01T17:09:04Z</time>
      </trkpt>
      <trkpt lat="-35.0257" lon="-58.256763">
        <time>2021-05-01T17:09:05Z</time>
      </trkpt>
      <trkpt lat="-35.025665" lon="-58.256725">
        <time>2021-05-01T17:09:06Z</time>
      </trkpt>
      <trkpt lat="-35.025635" lon="-58.256687">
        <time>2021-05-01T17:09:07Z</time>
      </trkpt>
      <trkpt lat="-35.02557" lon="-58.25662">
        <time>2021-05-01T17:09:09Z</time>
      </trkpt>
      <trkpt lat="-35.025505" lon="-58.256542">
        <time>2021-05-01T17:09:11Z</time>
      </trkpt>
      <trkpt lat="-35.025436" lon="-58.25647">
        <time>2021-05-01T17:09:13Z</time>
      </trkpt>
      <trkpt lat="-35.025402" lon="-58.25643">
        <time>2021-05-01T17:09:14Z</time>
      </trkpt>
      <trkpt lat="-35.02537" lon="-58.256393">
        <time>2021-05-01T17:09:15Z</time>
      </trkpt>
      <trkpt lat="-35.025333" lon="-58.256355">
        <time>2021-05-01T17:09:16Z</time>
      </trkpt>
      <trkpt lat="-35.025303" lon="-58.256317">
        <time>2021-05-01T17:09:17Z</time>
      </trkpt>
      <trkpt lat="-35.02527" lon="-58.25628">
        <time>2021-05-01T17:09:18Z</time>
      </trkpt>
      <trkpt lat="-35.025234" lon="-58.25624">
        <time>2021-05-01T17:09:19Z</time>
      </trkpt>
      <trkpt lat="-35.0252" lon="-58.256203">
        <time>2021-05-01T17:09:20Z</time>
      </trkpt>
      <trkpt lat="-35.025166" lon="-58.25616">
        <time>2021-05-01T17:09:21Z</time>
      </trkpt>
      <trkpt lat="-35.02513" lon="-58.256123">
        <time>2021-05-01T17:09:22Z</time>
      </trkpt>
      <trkpt lat="-35.025093" lon="-58.256084">
        <time>2021-05-01T17:09:23Z</time>
      </trkpt>
      <trkpt lat="-35.02506" lon="-58.256046">
        <time>2021-05-01T17:09:24Z</time>
      </trkpt>
      <trkpt lat="-35.025024" lon="-58.256012">
        <time>2021-05-01T17:09:25Z</time>
      </trkpt>
      <trkpt lat="-35.02499" lon="-58.255974">
        <time>2021-05-01T17:09:26Z</time>
      </trkpt>
      <trkpt lat="-35.024956" lon="-58.255936">
        <time>2021-05-01T17:09:27Z</time>
      </trkpt>
      <trkpt lat="-35.024925" lon="-58.255894">
        <time>2021-05-01T17:09:28Z</time>
      </trkpt>
      <trkpt lat="-35.02489" lon="-58.25585">
        <time>2021-05-01T17:09:29Z</time>
      </trkpt>
      <trkpt lat="-35.024857" lon="-58.255814">
        <time>2021-05-01T17:09:30Z</time>
      </trkpt>
      <trkpt lat="-35.024822" lon="-58.25577">
        <time>2021-05-01T17:09:31Z</time>
      </trkpt>
      <trkpt lat="-35.024788" lon="-58.255733">
        <time>2021-05-01T17:09:32Z</time>
      </trkpt>
      <trkpt lat="-35.02475" lon="-58.255695">
        <time>2021-05-01T17:09:33Z</time>
      </trkpt>
      <trkpt lat="-35.02472" lon="-58.255653">
        <time>2021-05-01T17:09:34Z</time>
      </trkpt>
      <trkpt lat="-35.024685" lon="-58.25562">
        <time>2021-05-01T17:09:35Z</time>
      </trkpt>
      <trkpt lat="-35.024616" lon="-58.255547">
        <time>2021-05-01T17:09:37Z</time>
      </trkpt>
      <trkpt lat="-35.024586" lon="-58.2555">
        <time>2021-05-01T17:09:38Z</time>
      </trkpt>
      <trkpt lat="-35.02455" lon="-58.255463">
        <time>2021-05-01T17:09:39Z</time>
      </trkpt>
      <trkpt lat="-35.024517" lon="-58.255424">
        <time>2021-05-01T17:09:40Z</time>
      </trkpt>
      <trkpt lat="-35.024483" lon="-58.255383">
        <time>2021-05-01T17:09:41Z</time>
      </trkpt>
      <trkpt lat="-35.024418" lon="-58.255318">
        <time>2021-05-01T17:09:43Z</time>
      </trkpt>
      <trkpt lat="-35.024353" lon="-58.255245">
        <time>2021-05-01T17:09:45Z</time>
      </trkpt>
      <trkpt lat="-35.02429" lon="-58.255173">
        <time>2021-05-01T17:09:47Z</time>
      </trkpt>
      <trkpt lat="-35.024223" lon="-58.255104">
        <time>2021-05-01T17:09:49Z</time>
      </trkpt>
      <trkpt lat="-35.024162" lon="-58.255028">
        <time>2021-05-01T17:09:51Z</time>
      </trkpt>
      <trkpt lat="-35.024094" lon="-58.254955">
        <time>2021-05-01T17:09:53Z</time>
      </trkpt>
      <trkpt lat="-35.02403" lon="-58.254887">
        <time>2021-05-01T17:09:55Z</time>
      </trkpt>
      <trkpt lat="-35.023968" lon="-58.25481">
        <time>2021-05-01T17:09:57Z</time>
      </trkpt>
      <trkpt lat="-35.023933" lon="-58.254776">
        <time>2021-05-01T17:09:58Z</time>
      </trkpt>
      <trkpt lat="-35.0239" lon="-58.254738">
        <time>2021-05-01T17:09:59Z</time>
      </trkpt>
      <trkpt lat="-35.02383" lon="-58.254665">
        <time>2021-05-01T17:10:01Z</time>
      </trkpt>
      <trkpt lat="-35.023796" lon="-58.254627">
        <time>2021-05-01T17:10:02Z</time>
      </trkpt>
      <trkpt lat="-35.02376" lon="-58.25459">
        <time>2021-05-01T17:10:03Z</time>
      </trkpt>
      <trkpt lat="-35.0237" lon="-58.254513">
        <time>2021-05-01T17:10:05Z</time>
      </trkpt>
      <trkpt lat="-35.023666" lon="-58.25448">
        <time>2021-05-01T17:10:06Z</time>
      </trkpt>
      <trkpt lat="-35.023632" lon="-58.254436">
        <time>2021-05-01T17:10:07Z</time>
      </trkpt>
      <trkpt lat="-35.023598" lon="-58.2544">
        <time>2021-05-01T17:10:08Z</time>
      </trkpt>
      <trkpt lat="-35.023563" lon="-58.25436">
        <time>2021-05-01T17:10:09Z</time>
      </trkpt>
      <trkpt lat="-35.023495" lon="-58.254288">
        <time>2021-05-01T17:10:12Z</time>
      </trkpt>
      <trkpt lat="-35.023464" lon="-58.254246">
        <time>2021-05-01T17:10:13Z</time>
      </trkpt>
      <trkpt lat="-35.023434" lon="-58.254208">
        <time>2021-05-01T17:10:14Z</time>
      </trkpt>
      <trkpt lat="-35.023373" lon="-58.25413">
        <time>2021-05-01T17:10:16Z</time>
      </trkpt>
      <trkpt lat="-35.023315" lon="-58.25405">
        <time>2021-05-01T17:10:18Z</time>
      </trkpt>
      <trkpt lat="-35.023254" lon="-58.253975">
        <time>2021-05-01T17:10:20Z</time>
      </trkpt>
      <trkpt lat="-35.0232" lon="-58.253902">
        <time>2021-05-01T17:10:22Z</time>
      </trkpt>
      <trkpt lat="-35.023144" lon="-58.25383">
        <time>2021-05-01T17:10:24Z</time>
      </trkpt>
      <trkpt lat="-35.023083" lon="-58.253757">
        <time>2021-05-01T17:10:26Z</time>
      </trkpt>
      <trkpt lat="-35.023014" lon="-58.253685">
        <time>2021-05-01T17:10:28Z</time>
      </trkpt>
      <trkpt lat="-35.02295" lon="-58.25362">
        <time>2021-05-01T17:10:30Z</time>
      </trkpt>
      <trkpt lat="-35.022877" lon="-58.25355">
        <time>2021-05-01T17:10:32Z</time>
      </trkpt>
      <trkpt lat="-35.02281" lon="-58.25349">
        <time>2021-05-01T17:10:34Z</time>
      </trkpt>
      <trkpt lat="-35.02275" lon="-58.25343">
        <time>2021-05-01T17:10:36Z</time>
      </trkpt>
      <trkpt lat="-35.02269" lon="-58.253365">
        <time>2021-05-01T17:10:38Z</time>
      </trkpt>
      <trkpt lat="-35.022644" lon="-58.25328">
        <time>2021-05-01T17:10:40Z</time>
      </trkpt>
      <trkpt lat="-35.02259" lon="-58.253193">
        <time>2021-05-01T17:10:42Z</time>
      </trkpt>
      <trkpt lat="-35.02256" lon="-58.253155">
        <time>2021-05-01T17:10:43Z</time>
      </trkpt>
      <trkpt lat="-35.022526" lon="-58.253117">
        <time>2021-05-01T17:10:44Z</time>
      </trkpt>
      <trkpt lat="-35.022465" lon="-58.25305">
        <time>2021-05-01T17:10:46Z</time>
      </trkpt>
      <trkpt lat="-35.022423" lon="-58.253002">
        <time>2021-05-01T17:10:48Z</time>
      </trkpt>
      <trkpt lat="-35.022396" lon="-58.252945">
        <time>2021-05-01T17:10:51Z</time>
      </trkpt>
      <trkpt lat="-35.022408" lon="-58.25286">
        <time>2021-05-01T17:10:54Z</time>
      </trkpt>
      <trkpt lat="-35.02242" lon="-58.252785">
        <time>2021-05-01T17:10:56Z</time>
      </trkpt>
      <trkpt lat="-35.022434" lon="-58.252686">
        <time>2021-05-01T17:10:58Z</time>
      </trkpt>
      <trkpt lat="-35.022457" lon="-58.252583">
        <time>2021-05-01T17:11:00Z</time>
      </trkpt>
      <trkpt lat="-35.022465" lon="-58.252525">
        <time>2021-05-01T17:11:01Z</time>
      </trkpt>
      <trkpt lat="-35.022476" lon="-58.252472">
        <time>2021-05-01T17:11:02Z</time>
      </trkpt>
      <trkpt lat="-35.022488" lon="-58.252415">
        <time>2021-05-01T17:11:03Z</time>
      </trkpt>
      <trkpt lat="-35.0225" lon="-58.25236">
        <time>2021-05-01T17:11:04Z</time>
      </trkpt>
      <trkpt lat="-35.02251" lon="-58.252308">
        <time>2021-05-01T17:11:05Z</time>
      </trkpt>
      <trkpt lat="-35.022522" lon="-58.25225">
        <time>2021-05-01T17:11:06Z</time>
      </trkpt>
      <trkpt lat="-35.022533" lon="-58.252193">
        <time>2021-05-01T17:11:07Z</time>
      </trkpt>
      <trkpt lat="-35.022545" lon="-58.25214">
        <time>2021-05-01T17:11:08Z</time>
      </trkpt>
      <trkpt lat="-35.022556" lon="-58.252083">
        <time>2021-05-01T17:11:09Z</time>
      </trkpt>
      <trkpt lat="-35.022568" lon="-58.25202">
        <time>2021-05-01T17:11:10Z</time>
      </trkpt>
      <trkpt lat="-35.022583" lon="-58.251965">
        <time>2021-05-01T17:11:11Z</time>
      </trkpt>
      <trkpt lat="-35.022594" lon="-58.251904">
        <time>2021-05-01T17:11:12Z</time>
      </trkpt>
      <trkpt lat="-35.022606" lon="-58.251842">
        <time>2021-05-01T17:11:13Z</time>
      </trkpt>
      <trkpt lat="-35.022617" lon="-58.251778">
        <time>2021-05-01T17:11:14Z</time>
      </trkpt>
      <trkpt lat="-35.02263" lon="-58.251717">
        <time>2021-05-01T17:11:15Z</time>
      </trkpt>
      <trkpt lat="-35.02264" lon="-58.251656">
        <time>2021-05-01T17:11:16Z</time>
      </trkpt>
      <trkpt lat="-35.022655" lon="-58.25159">
        <time>2021-05-01T17:11:17Z</time>
      </trkpt>
      <trkpt lat="-35.022667" lon="-58.25153">
        <time>2021-05-01T17:11:18Z</time>
      </trkpt>
      <trkpt lat="-35.02268" lon="-58.25147">
        <time>2021-05-01T17:11:19Z</time>
      </trkpt>
      <trkpt lat="-35.02269" lon="-58.251408">
        <time>2021-05-01T17:11:20Z</time>
      </trkpt>
      <trkpt lat="-35.0227" lon="-58.25135">
        <time>2021-05-01T17:11:21Z</time>
      </trkpt>
      <trkpt lat="-35.022713" lon="-58.25129">
        <time>2021-05-01T17:11:22Z</time>
      </trkpt>
      <trkpt lat="-35.022728" lon="-58.25123">
        <time>2021-05-01T17:11:23Z</time>
      </trkpt>
      <trkpt lat="-35.02274" lon="-58.251167">
        <time>2021-05-01T17:11:24Z</time>
      </trkpt>
      <trkpt lat="-35.02275" lon="-58.251102">
        <time>2021-05-01T17:11:25Z</time>
      </trkpt>
      <trkpt lat="-35.022766" lon="-58.25104">
        <time>2021-05-01T17:11:26Z</time>
      </trkpt>
      <trkpt lat="-35.022774" lon="-58.25098">
        <time>2021-05-01T17:11:27Z</time>
      </trkpt>
      <trkpt lat="-35.02279" lon="-58.25092">
        <time>2021-05-01T17:11:28Z</time>
      </trkpt>
      <trkpt lat="-35.0228" lon="-58.250862">
        <time>2021-05-01T17:11:29Z</time>
      </trkpt>
      <trkpt lat="-35.02281" lon="-58.2508">
        <time>2021-05-01T17:11:30Z</time>
      </trkpt>
      <trkpt lat="-35.022823" lon="-58.25074">
        <time>2021-05-01T17:11:31Z</time>
      </trkpt>
      <trkpt lat="-35.02284" lon="-58.250675">
        <time>2021-05-01T17:11:32Z</time>
      </trkpt>
      <trkpt lat="-35.02285" lon="-58.250614">
        <time>2021-05-01T17:11:33Z</time>
      </trkpt>
      <trkpt lat="-35.02286" lon="-58.250553">
        <time>2021-05-01T17:11:34Z</time>
      </trkpt>
      <trkpt lat="-35.022873" lon="-58.250492">
        <time>2021-05-01T17:11:35Z</time>
      </trkpt>
      <trkpt lat="-35.022884" lon="-58.250435">
        <time>2021-05-01T17:11:36Z</time>
      </trkpt>
      <trkpt lat="-35.022896" lon="-58.250374">
        <time>2021-05-01T17:11:37Z</time>
      </trkpt>
      <trkpt lat="-35.02291" lon="-58.250313">
        <time>2021-05-01T17:11:38Z</time>
      </trkpt>
      <trkpt lat="-35.022926" lon="-58.25025">
        <time>2021-05-01T17:11:39Z</time>
      </trkpt>
      <trkpt lat="-35.022938" lon="-58.250187">
        <time>2021-05-01T17:11:40Z</time>
      </trkpt>
      <trkpt lat="-35.022945" lon="-58.250126">
        <time>2021-05-01T17:11:41Z</time>
      </trkpt>
      <trkpt lat="-35.022957" lon="-58.250065">
        <time>2021-05-01T17:11:42Z</time>
      </trkpt>
      <trkpt lat="-35.022972" lon="-58.250004">
        <time>2021-05-01T17:11:43Z</time>
      </trkpt>
      <trkpt lat="-35.022984" lon="-58.24994">
        <time>2021-05-01T17:11:44Z</time>
      </trkpt>
      <trkpt lat="-35.023" lon="-58.249878">
        <time>2021-05-01T17:11:45Z</time>
      </trkpt>
      <trkpt lat="-35.02301" lon="-58.249813">
        <time>2021-05-01T17:11:46Z</time>
      </trkpt>
      <trkpt lat="-35.02302" lon="-58.249752">
        <time>2021-05-01T17:11:47Z</time>
      </trkpt>
      <trkpt lat="-35.023033" lon="-58.249687">
        <time>2021-05-01T17:11:48Z</time>
      </trkpt>
      <trkpt lat="-35.02305" lon="-58.249622">
        <time>2021-05-01T17:11:49Z</time>
      </trkpt>
      <trkpt lat="-35.023064" lon="-58.249557">
        <time>2021-05-01T17:11:50Z</time>
      </trkpt>
      <trkpt lat="-35.023075" lon="-58.249496">
        <time>2021-05-01T17:11:51Z</time>
      </trkpt>
      <trkpt lat="-35.02309" lon="-58.24943">
        <time>2021-05-01T17:11:52Z</time>
      </trkpt>
      <trkpt lat="-35.0231" lon="-58.249367">
        <time>2021-05-01T17:11:53Z</time>
      </trkpt>
      <trkpt lat="-35.023113" lon="-58.249302">
        <time>2021-05-01T17:11:54Z</time>
      </trkpt>
      <trkpt lat="-35.023125" lon="-58.249237">
        <time>2021-05-01T17:11:55Z</time>
      </trkpt>
      <trkpt lat="-35.023136" lon="-58.24918">
        <time>2021-05-01T17:11:56Z</time>
      </trkpt>
      <trkpt lat="-35.02315" lon="-58.24912">
        <time>2021-05-01T17:11:57Z</time>
      </trkpt>
      <trkpt lat="-35.023163" lon="-58.249054">
        <time>2021-05-01T17:11:58Z</time>
      </trkpt>
      <trkpt lat="-35.02318" lon="-58.24899">
        <time>2021-05-01T17:11:59Z</time>
      </trkpt>
      <trkpt lat="-35.02319" lon="-58.248924">
        <time>2021-05-01T17:12:00Z</time>
      </trkpt>
      <trkpt lat="-35.0232" lon="-58.24886">
        <time>2021-05-01T17:12:01Z</time>
      </trkpt>
      <trkpt lat="-35.023212" lon="-58.248795">
        <time>2021-05-01T17:12:02Z</time>
      </trkpt>
      <trkpt lat="-35.023228" lon="-58.24873">
        <time>2021-05-01T17:12:03Z</time>
      </trkpt>
      <trkpt lat="-35.02324" lon="-58.248665">
        <time>2021-05-01T17:12:04Z</time>
      </trkpt>
      <trkpt lat="-35.02325" lon="-58.2486">
        <time>2021-05-01T17:12:05Z</time>
      </trkpt>
      <trkpt lat="-35.023266" lon="-58.24853">
        <time>2021-05-01T17:12:06Z</time>
      </trkpt>
      <trkpt lat="-35.023277" lon="-58.248466">
        <time>2021-05-01T17:12:07Z</time>
      </trkpt>
      <trkpt lat="-35.023293" lon="-58.2484">
        <time>2021-05-01T17:12:08Z</time>
      </trkpt>
      <trkpt lat="-35.023304" lon="-58.248333">
        <time>2021-05-01T17:12:09Z</time>
      </trkpt>
      <trkpt lat="-35.023315" lon="-58.248272">
        <time>2021-05-01T17:12:10Z</time>
      </trkpt>
      <trkpt lat="-35.023327" lon="-58.248207">
        <time>2021-05-01T17:12:11Z</time>
      </trkpt>
      <trkpt lat="-35.02334" lon="-58.248142">
        <time>2021-05-01T17:12:12Z</time>
      </trkpt>
      <trkpt lat="-35.02335" lon="-58.248077">
        <time>2021-05-01T17:12:13Z</time>
      </trkpt>
      <trkpt lat="-35.023365" lon="-58.248013">
        <time>2021-05-01T17:12:14Z</time>
      </trkpt>
      <trkpt lat="-35.02338" lon="-58.247948">
        <time>2021-05-01T17:12:15Z</time>
      </trkpt>
      <trkpt lat="-35.023396" lon="-58.24788">
        <time>2021-05-01T17:12:16Z</time>
      </trkpt>
      <trkpt lat="-35.023407" lon="-58.247814">
        <time>2021-05-01T17:12:17Z</time>
      </trkpt>
      <trkpt lat="-35.02342" lon="-58.247746">
        <time>2021-05-01T17:12:18Z</time>
      </trkpt>
      <trkpt lat="-35.023434" lon="-58.24768">
        <time>2021-05-01T17:12:19Z</time>
      </trkpt>
      <trkpt lat="-35.023445" lon="-58.247616">
        <time>2021-05-01T17:12:20Z</time>
      </trkpt>
      <trkpt lat="-35.023457" lon="-58.24755">
        <time>2021-05-01T17:12:21Z</time>
      </trkpt>
      <trkpt lat="-35.02347" lon="-58.247486">
        <time>2021-05-01T17:12:22Z</time>
      </trkpt>
      <trkpt lat="-35.023483" lon="-58.247417">
        <time>2021-05-01T17:12:23Z</time>
      </trkpt>
      <trkpt lat="-35.0235" lon="-58.247356">
        <time>2021-05-01T17:12:24Z</time>
      </trkpt>
      <trkpt lat="-35.02351" lon="-58.24729">
        <time>2021-05-01T17:12:25Z</time>
      </trkpt>
      <trkpt lat="-35.023525" lon="-58.24723">
        <time>2021-05-01T17:12:26Z</time>
      </trkpt>
      <trkpt lat="-35.023537" lon="-58.247166">
        <time>2021-05-01T17:12:27Z</time>
      </trkpt>
      <trkpt lat="-35.023552" lon="-58.2471">
        <time>2021-05-01T17:12:28Z</time>
      </trkpt>
      <trkpt lat="-35.023563" lon="-58.247036">
        <time>2021-05-01T17:12:29Z</time>
      </trkpt>
      <trkpt lat="-35.023575" lon="-58.24697">
        <time>2021-05-01T17:12:30Z</time>
      </trkpt>
      <trkpt lat="-35.02359" lon="-58.246906">
        <time>2021-05-01T17:12:31Z</time>
      </trkpt>
      <trkpt lat="-35.0236" lon="-58.24684">
        <time>2021-05-01T17:12:32Z</time>
      </trkpt>
      <trkpt lat="-35.023613" lon="-58.246777">
        <time>2021-05-01T17:12:33Z</time>
      </trkpt>
      <trkpt lat="-35.023624" lon="-58.246708">
        <time>2021-05-01T17:12:34Z</time>
      </trkpt>
      <trkpt lat="-35.02364" lon="-58.246643">
        <time>2021-05-01T17:12:35Z</time>
      </trkpt>
      <trkpt lat="-35.02365" lon="-58.24658">
        <time>2021-05-01T17:12:36Z</time>
      </trkpt>
      <trkpt lat="-35.023666" lon="-58.246513">
        <time>2021-05-01T17:12:37Z</time>
      </trkpt>
      <trkpt lat="-35.02368" lon="-58.24645">
        <time>2021-05-01T17:12:38Z</time>
      </trkpt>
      <trkpt lat="-35.023697" lon="-58.246384">
        <time>2021-05-01T17:12:39Z</time>
      </trkpt>
      <trkpt lat="-35.02371" lon="-58.24632">
        <time>2021-05-01T17:12:40Z</time>
      </trkpt>
      <trkpt lat="-35.02372" lon="-58.246254">
        <time>2021-05-01T17:12:41Z</time>
      </trkpt>
      <trkpt lat="-35.02373" lon="-58.24619">
        <time>2021-05-01T17:12:42Z</time>
      </trkpt>
      <trkpt lat="-35.023746" lon="-58.246124">
        <time>2021-05-01T17:12:43Z</time>
      </trkpt>
      <trkpt lat="-35.023758" lon="-58.24606">
        <time>2021-05-01T17:12:44Z</time>
      </trkpt>
      <trkpt lat="-35.023773" lon="-58.245995">
        <time>2021-05-01T17:12:45Z</time>
      </trkpt>
      <trkpt lat="-35.02379" lon="-58.24593">
        <time>2021-05-01T17:12:46Z</time>
      </trkpt>
      <trkpt lat="-35.023796" lon="-58.245865">
        <time>2021-05-01T17:12:47Z</time>
      </trkpt>
      <trkpt lat="-35.023808" lon="-58.2458">
        <time>2021-05-01T17:12:48Z</time>
      </trkpt>
      <trkpt lat="-35.02382" lon="-58.245735">
        <time>2021-05-01T17:12:49Z</time>
      </trkpt>
      <trkpt lat="-35.023834" lon="-58.24567">
        <time>2021-05-01T17:12:50Z</time>
      </trkpt>
      <trkpt lat="-35.02385" lon="-58.245605">
        <time>2021-05-01T17:12:51Z</time>
      </trkpt>
      <trkpt lat="-35.02386" lon="-58.24554">
        <time>2021-05-01T17:12:52Z</time>
      </trkpt>
      <trkpt lat="-35.023876" lon="-58.24548">
        <time>2021-05-01T17:12:53Z</time>
      </trkpt>
      <trkpt lat="-35.023884" lon="-58.245415">
        <time>2021-05-01T17:12:54Z</time>
      </trkpt>
      <trkpt lat="-35.0239" lon="-58.24535">
        <time>2021-05-01T17:12:55Z</time>
      </trkpt>
      <trkpt lat="-35.023914" lon="-58.245285">
        <time>2021-05-01T17:12:56Z</time>
      </trkpt>
      <trkpt lat="-35.023926" lon="-58.24522">
        <time>2021-05-01T17:12:57Z</time>
      </trkpt>
      <trkpt lat="-35.023937" lon="-58.245155">
        <time>2021-05-01T17:12:58Z</time>
      </trkpt>
      <trkpt lat="-35.023952" lon="-58.24509">
        <time>2021-05-01T17:12:59Z</time>
      </trkpt>
      <trkpt lat="-35.023964" lon="-58.245026">
        <time>2021-05-01T17:13:00Z</time>
      </trkpt>
      <trkpt lat="-35.023975" lon="-58.244957">
        <time>2021-05-01T17:13:01Z</time>
      </trkpt>
      <trkpt lat="-35.02399" lon="-58.244892">
        <time>2021-05-01T17:13:02Z</time>
      </trkpt>
      <trkpt lat="-35.024006" lon="-58.244827">
        <time>2021-05-01T17:13:03Z</time>
      </trkpt>
      <trkpt lat="-35.02402" lon="-58.24476">
        <time>2021-05-01T17:13:04Z</time>
      </trkpt>
      <trkpt lat="-35.024033" lon="-58.244694">
        <time>2021-05-01T17:13:05Z</time>
      </trkpt>
      <trkpt lat="-35.024048" lon="-58.244625">
        <time>2021-05-01T17:13:06Z</time>
      </trkpt>
      <trkpt lat="-35.02406" lon="-58.244556">
        <time>2021-05-01T17:13:07Z</time>
      </trkpt>
      <trkpt lat="-35.02407" lon="-58.244488">
        <time>2021-05-01T17:13:08Z</time>
      </trkpt>
      <trkpt lat="-35.02409" lon="-58.244423">
        <time>2021-05-01T17:13:09Z</time>
      </trkpt>
      <trkpt lat="-35.0241" lon="-58.244354">
        <time>2021-05-01T17:13:10Z</time>
      </trkpt>
      <trkpt lat="-35.024117" lon="-58.244286">
        <time>2021-05-01T17:13:11Z</time>
      </trkpt>
      <trkpt lat="-35.024128" lon="-58.244217">
        <time>2021-05-01T17:13:12Z</time>
      </trkpt>
      <trkpt lat="-35.02414" lon="-58.24415">
        <time>2021-05-01T17:13:13Z</time>
      </trkpt>
      <trkpt lat="-35.024155" lon="-58.244076">
        <time>2021-05-01T17:13:14Z</time>
      </trkpt>
      <trkpt lat="-35.02417" lon="-58.244007">
        <time>2021-05-01T17:13:15Z</time>
      </trkpt>
      <trkpt lat="-35.02418" lon="-58.24394">
        <time>2021-05-01T17:13:16Z</time>
      </trkpt>
      <trkpt lat="-35.0242" lon="-58.24387">
        <time>2021-05-01T17:13:17Z</time>
      </trkpt>
      <trkpt lat="-35.024216" lon="-58.2438">
        <time>2021-05-01T17:13:18Z</time>
      </trkpt>
      <trkpt lat="-35.024227" lon="-58.24373">
        <time>2021-05-01T17:13:19Z</time>
      </trkpt>
      <trkpt lat="-35.02424" lon="-58.24366">
        <time>2021-05-01T17:13:20Z</time>
      </trkpt>
      <trkpt lat="-35.024254" lon="-58.24359">
        <time>2021-05-01T17:13:21Z</time>
      </trkpt>
      <trkpt lat="-35.02427" lon="-58.243523">
        <time>2021-05-01T17:13:22Z</time>
      </trkpt>
      <trkpt lat="-35.024284" lon="-58.24345">
        <time>2021-05-01T17:13:23Z</time>
      </trkpt>
      <trkpt lat="-35.0243" lon="-58.24338">
        <time>2021-05-01T17:13:24Z</time>
      </trkpt>
      <trkpt lat="-35.02431" lon="-58.243313">
        <time>2021-05-01T17:13:25Z</time>
      </trkpt>
      <trkpt lat="-35.024326" lon="-58.24324">
        <time>2021-05-01T17:13:26Z</time>
      </trkpt>
      <trkpt lat="-35.02434" lon="-58.24317">
        <time>2021-05-01T17:13:27Z</time>
      </trkpt>
      <trkpt lat="-35.024357" lon="-58.243103">
        <time>2021-05-01T17:13:28Z</time>
      </trkpt>
      <trkpt lat="-35.024372" lon="-58.243034">
        <time>2021-05-01T17:13:29Z</time>
      </trkpt>
      <trkpt lat="-35.024384" lon="-58.242966">
        <time>2021-05-01T17:13:30Z</time>
      </trkpt>
      <trkpt lat="-35.0244" lon="-58.242897">
        <time>2021-05-01T17:13:31Z</time>
      </trkpt>
      <trkpt lat="-35.02441" lon="-58.242825">
        <time>2021-05-01T17:13:32Z</time>
      </trkpt>
      <trkpt lat="-35.024426" lon="-58.242756">
        <time>2021-05-01T17:13:33Z</time>
      </trkpt>
      <trkpt lat="-35.02444" lon="-58.242687">
        <time>2021-05-01T17:13:34Z</time>
      </trkpt>
      <trkpt lat="-35.024452" lon="-58.24262">
        <time>2021-05-01T17:13:35Z</time>
      </trkpt>
      <trkpt lat="-35.024467" lon="-58.24255">
        <time>2021-05-01T17:13:36Z</time>
      </trkpt>
      <trkpt lat="-35.024483" lon="-58.24248">
        <time>2021-05-01T17:13:37Z</time>
      </trkpt>
      <trkpt lat="-35.024494" lon="-58.24241">
        <time>2021-05-01T17:13:38Z</time>
      </trkpt>
      <trkpt lat="-35.02451" lon="-58.24234">
        <time>2021-05-01T17:13:39Z</time>
      </trkpt>
      <trkpt lat="-35.024525" lon="-58.24227">
        <time>2021-05-01T17:13:40Z</time>
      </trkpt>
      <trkpt lat="-35.02454" lon="-58.242203">
        <time>2021-05-01T17:13:41Z</time>
      </trkpt>
      <trkpt lat="-35.024555" lon="-58.242134">
        <time>2021-05-01T17:13:42Z</time>
      </trkpt>
      <trkpt lat="-35.024567" lon="-58.242065">
        <time>2021-05-01T17:13:43Z</time>
      </trkpt>
      <trkpt lat="-35.024582" lon="-58.241997">
        <time>2021-05-01T17:13:44Z</time>
      </trkpt>
      <trkpt lat="-35.024593" lon="-58.24193">
        <time>2021-05-01T17:13:45Z</time>
      </trkpt>
      <trkpt lat="-35.02461" lon="-58.24186">
        <time>2021-05-01T17:13:46Z</time>
      </trkpt>
      <trkpt lat="-35.024624" lon="-58.24179">
        <time>2021-05-01T17:13:47Z</time>
      </trkpt>
      <trkpt lat="-35.02464" lon="-58.241722">
        <time>2021-05-01T17:13:48Z</time>
      </trkpt>
      <trkpt lat="-35.02465" lon="-58.241653">
        <time>2021-05-01T17:13:49Z</time>
      </trkpt>
      <trkpt lat="-35.024666" lon="-58.24158">
        <time>2021-05-01T17:13:50Z</time>
      </trkpt>
      <trkpt lat="-35.024677" lon="-58.241512">
        <time>2021-05-01T17:13:51Z</time>
      </trkpt>
      <trkpt lat="-35.024693" lon="-58.241444">
        <time>2021-05-01T17:13:52Z</time>
      </trkpt>
      <trkpt lat="-35.024708" lon="-58.241375">
        <time>2021-05-01T17:13:53Z</time>
      </trkpt>
      <trkpt lat="-35.024723" lon="-58.241306">
        <time>2021-05-01T17:13:54Z</time>
      </trkpt>
      <trkpt lat="-35.02474" lon="-58.241234">
        <time>2021-05-01T17:13:55Z</time>
      </trkpt>
      <trkpt lat="-35.02475" lon="-58.241165">
        <time>2021-05-01T17:13:56Z</time>
      </trkpt>
      <trkpt lat="-35.02476" lon="-58.241096">
        <time>2021-05-01T17:13:57Z</time>
      </trkpt>
      <trkpt lat="-35.024776" lon="-58.241028">
        <time>2021-05-01T17:13:58Z</time>
      </trkpt>
      <trkpt lat="-35.02479" lon="-58.24096">
        <time>2021-05-01T17:13:59Z</time>
      </trkpt>
      <trkpt lat="-35.024803" lon="-58.240894">
        <time>2021-05-01T17:14:00Z</time>
      </trkpt>
      <trkpt lat="-35.02482" lon="-58.240826">
        <time>2021-05-01T17:14:01Z</time>
      </trkpt>
      <trkpt lat="-35.02483" lon="-58.24076">
        <time>2021-05-01T17:14:02Z</time>
      </trkpt>
      <trkpt lat="-35.02484" lon="-58.240696">
        <time>2021-05-01T17:14:03Z</time>
      </trkpt>
      <trkpt lat="-35.024853" lon="-58.24063">
        <time>2021-05-01T17:14:04Z</time>
      </trkpt>
      <trkpt lat="-35.024868" lon="-58.24057">
        <time>2021-05-01T17:14:05Z</time>
      </trkpt>
      <trkpt lat="-35.024883" lon="-58.24051">
        <time>2021-05-01T17:14:06Z</time>
      </trkpt>
      <trkpt lat="-35.0249" lon="-58.240448">
        <time>2021-05-01T17:14:07Z</time>
      </trkpt>
      <trkpt lat="-35.02491" lon="-58.240383">
        <time>2021-05-01T17:14:08Z</time>
      </trkpt>
      <trkpt lat="-35.02492" lon="-58.24032">
        <time>2021-05-01T17:14:09Z</time>
      </trkpt>
      <trkpt lat="-35.024933" lon="-58.24025">
        <time>2021-05-01T17:14:10Z</time>
      </trkpt>
      <trkpt lat="-35.02495" lon="-58.240185">
        <time>2021-05-01T17:14:11Z</time>
      </trkpt>
      <trkpt lat="-35.024963" lon="-58.240116">
        <time>2021-05-01T17:14:12Z</time>
      </trkpt>
      <trkpt lat="-35.02498" lon="-58.240047">
        <time>2021-05-01T17:14:13Z</time>
      </trkpt>
      <trkpt lat="-35.02499" lon="-58.23998">
        <time>2021-05-01T17:14:14Z</time>
      </trkpt>
      <trkpt lat="-35.025005" lon="-58.23991">
        <time>2021-05-01T17:14:15Z</time>
      </trkpt>
      <trkpt lat="-35.025017" lon="-58.239845">
        <time>2021-05-01T17:14:16Z</time>
      </trkpt>
      <trkpt lat="-35.02503" lon="-58.23978">
        <time>2021-05-01T17:14:17Z</time>
      </trkpt>
      <trkpt lat="-35.02504" lon="-58.239716">
        <time>2021-05-01T17:14:18Z</time>
      </trkpt>
      <trkpt lat="-35.025055" lon="-58.23965">
        <time>2021-05-01T17:14:19Z</time>
      </trkpt>
      <trkpt lat="-35.025066" lon="-58.239586">
        <time>2021-05-01T17:14:20Z</time>
      </trkpt>
      <trkpt lat="-35.025078" lon="-58.23952">
        <time>2021-05-01T17:14:21Z</time>
      </trkpt>
      <trkpt lat="-35.025093" lon="-58.239456">
        <time>2021-05-01T17:14:22Z</time>
      </trkpt>
      <trkpt lat="-35.025105" lon="-58.239388">
        <time>2021-05-01T17:14:23Z</time>
      </trkpt>
      <trkpt lat="-35.02512" lon="-58.239323">
        <time>2021-05-01T17:14:24Z</time>
      </trkpt>
      <trkpt lat="-35.025135" lon="-58.239254">
        <time>2021-05-01T17:14:25Z</time>
      </trkpt>
      <trkpt lat="-35.02515" lon="-58.23919">
        <time>2021-05-01T17:14:26Z</time>
      </trkpt>
      <trkpt lat="-35.02516" lon="-58.23912">
        <time>2021-05-01T17:14:27Z</time>
      </trkpt>
      <trkpt lat="-35.025173" lon="-58.239056">
        <time>2021-05-01T17:14:28Z</time>
      </trkpt>
      <trkpt lat="-35.02519" lon="-58.238987">
        <time>2021-05-01T17:14:29Z</time>
      </trkpt>
      <trkpt lat="-35.0252" lon="-58.23892">
        <time>2021-05-01T17:14:30Z</time>
      </trkpt>
      <trkpt lat="-35.025215" lon="-58.23885">
        <time>2021-05-01T17:14:31Z</time>
      </trkpt>
      <trkpt lat="-35.02523" lon="-58.23878">
        <time>2021-05-01T17:14:32Z</time>
      </trkpt>
      <trkpt lat="-35.02524" lon="-58.238712">
        <time>2021-05-01T17:14:33Z</time>
      </trkpt>
      <trkpt lat="-35.025257" lon="-58.238644">
        <time>2021-05-01T17:14:34Z</time>
      </trkpt>
      <trkpt lat="-35.02527" lon="-58.238575">
        <time>2021-05-01T17:14:35Z</time>
      </trkpt>
      <trkpt lat="-35.02528" lon="-58.238506">
        <time>2021-05-01T17:14:36Z</time>
      </trkpt>
      <trkpt lat="-35.025295" lon="-58.238438">
        <time>2021-05-01T17:14:37Z</time>
      </trkpt>
      <trkpt lat="-35.025307" lon="-58.238373">
        <time>2021-05-01T17:14:38Z</time>
      </trkpt>
      <trkpt lat="-35.025322" lon="-58.238304">
        <time>2021-05-01T17:14:39Z</time>
      </trkpt>
      <trkpt lat="-35.025337" lon="-58.23824">
        <time>2021-05-01T17:14:40Z</time>
      </trkpt>
      <trkpt lat="-35.02535" lon="-58.23817">
        <time>2021-05-01T17:14:41Z</time>
      </trkpt>
      <trkpt lat="-35.02536" lon="-58.238106">
        <time>2021-05-01T17:14:42Z</time>
      </trkpt>
      <trkpt lat="-35.025375" lon="-58.238037">
        <time>2021-05-01T17:14:43Z</time>
      </trkpt>
      <trkpt lat="-35.02539" lon="-58.237972">
        <time>2021-05-01T17:14:44Z</time>
      </trkpt>
      <trkpt lat="-35.025402" lon="-58.237907">
        <time>2021-05-01T17:14:45Z</time>
      </trkpt>
      <trkpt lat="-35.025417" lon="-58.237843">
        <time>2021-05-01T17:14:46Z</time>
      </trkpt>
      <trkpt lat="-35.02543" lon="-58.237778">
        <time>2021-05-01T17:14:47Z</time>
      </trkpt>
      <trkpt lat="-35.02544" lon="-58.237713">
        <time>2021-05-01T17:14:48Z</time>
      </trkpt>
      <trkpt lat="-35.02545" lon="-58.237644">
        <time>2021-05-01T17:14:49Z</time>
      </trkpt>
      <trkpt lat="-35.025467" lon="-58.23758">
        <time>2021-05-01T17:14:50Z</time>
      </trkpt>
      <trkpt lat="-35.025482" lon="-58.237514">
        <time>2021-05-01T17:14:51Z</time>
      </trkpt>
      <trkpt lat="-35.025494" lon="-58.237446">
        <time>2021-05-01T17:14:52Z</time>
      </trkpt>
      <trkpt lat="-35.02551" lon="-58.237377">
        <time>2021-05-01T17:14:53Z</time>
      </trkpt>
      <trkpt lat="-35.02552" lon="-58.237312">
        <time>2021-05-01T17:14:54Z</time>
      </trkpt>
      <trkpt lat="-35.02553" lon="-58.237247">
        <time>2021-05-01T17:14:55Z</time>
      </trkpt>
      <trkpt lat="-35.025543" lon="-58.23718">
        <time>2021-05-01T17:14:56Z</time>
      </trkpt>
      <trkpt lat="-35.025555" lon="-58.237114">
        <time>2021-05-01T17:14:57Z</time>
      </trkpt>
      <trkpt lat="-35.025566" lon="-58.23705">
        <time>2021-05-01T17:14:58Z</time>
      </trkpt>
      <trkpt lat="-35.025574" lon="-58.236984">
        <time>2021-05-01T17:14:59Z</time>
      </trkpt>
      <trkpt lat="-35.025585" lon="-58.236923">
        <time>2021-05-01T17:15:00Z</time>
      </trkpt>
      <trkpt lat="-35.025597" lon="-58.236855">
        <time>2021-05-01T17:15:01Z</time>
      </trkpt>
      <trkpt lat="-35.025608" lon="-58.23679">
        <time>2021-05-01T17:15:02Z</time>
      </trkpt>
      <trkpt lat="-35.02562" lon="-58.236717">
        <time>2021-05-01T17:15:03Z</time>
      </trkpt>
      <trkpt lat="-35.02563" lon="-58.23665">
        <time>2021-05-01T17:15:04Z</time>
      </trkpt>
      <trkpt lat="-35.025642" lon="-58.236576">
        <time>2021-05-01T17:15:05Z</time>
      </trkpt>
      <trkpt lat="-35.02565" lon="-58.236507">
        <time>2021-05-01T17:15:06Z</time>
      </trkpt>
      <trkpt lat="-35.02566" lon="-58.236435">
        <time>2021-05-01T17:15:07Z</time>
      </trkpt>
      <trkpt lat="-35.02567" lon="-58.23636">
        <time>2021-05-01T17:15:08Z</time>
      </trkpt>
      <trkpt lat="-35.025677" lon="-58.23629">
        <time>2021-05-01T17:15:09Z</time>
      </trkpt>
      <trkpt lat="-35.025684" lon="-58.236217">
        <time>2021-05-01T17:15:10Z</time>
      </trkpt>
      <trkpt lat="-35.025696" lon="-58.23615">
        <time>2021-05-01T17:15:11Z</time>
      </trkpt>
      <trkpt lat="-35.025703" lon="-58.23608">
        <time>2021-05-01T17:15:12Z</time>
      </trkpt>
      <trkpt lat="-35.02571" lon="-58.236008">
        <time>2021-05-01T17:15:13Z</time>
      </trkpt>
      <trkpt lat="-35.025715" lon="-58.235935">
        <time>2021-05-01T17:15:14Z</time>
      </trkpt>
      <trkpt lat="-35.025723" lon="-58.235863">
        <time>2021-05-01T17:15:15Z</time>
      </trkpt>
      <trkpt lat="-35.025726" lon="-58.23579">
        <time>2021-05-01T17:15:16Z</time>
      </trkpt>
      <trkpt lat="-35.025734" lon="-58.235718">
        <time>2021-05-01T17:15:17Z</time>
      </trkpt>
      <trkpt lat="-35.02574" lon="-58.235645">
        <time>2021-05-01T17:15:18Z</time>
      </trkpt>
      <trkpt lat="-35.025745" lon="-58.235577">
        <time>2021-05-01T17:15:19Z</time>
      </trkpt>
      <trkpt lat="-35.02575" lon="-58.235508">
        <time>2021-05-01T17:15:20Z</time>
      </trkpt>
      <trkpt lat="-35.025753" lon="-58.235435">
        <time>2021-05-01T17:15:21Z</time>
      </trkpt>
      <trkpt lat="-35.025757" lon="-58.235367">
        <time>2021-05-01T17:15:22Z</time>
      </trkpt>
      <trkpt lat="-35.02576" lon="-58.235294">
        <time>2021-05-01T17:15:23Z</time>
      </trkpt>
      <trkpt lat="-35.025764" lon="-58.23522">
        <time>2021-05-01T17:15:24Z</time>
      </trkpt>
      <trkpt lat="-35.025764" lon="-58.23515">
        <time>2021-05-01T17:15:25Z</time>
      </trkpt>
      <trkpt lat="-35.025764" lon="-58.23508">
        <time>2021-05-01T17:15:26Z</time>
      </trkpt>
      <trkpt lat="-35.02577" lon="-58.23501">
        <time>2021-05-01T17:15:27Z</time>
      </trkpt>
      <trkpt lat="-35.025772" lon="-58.234936">
        <time>2021-05-01T17:15:28Z</time>
      </trkpt>
      <trkpt lat="-35.025772" lon="-58.234863">
        <time>2021-05-01T17:15:29Z</time>
      </trkpt>
      <trkpt lat="-35.025772" lon="-58.234795">
        <time>2021-05-01T17:15:30Z</time>
      </trkpt>
      <trkpt lat="-35.025772" lon="-58.234726">
        <time>2021-05-01T17:15:31Z</time>
      </trkpt>
      <trkpt lat="-35.025772" lon="-58.234657">
        <time>2021-05-01T17:15:32Z</time>
      </trkpt>
      <trkpt lat="-35.025772" lon="-58.23459">
        <time>2021-05-01T17:15:33Z</time>
      </trkpt>
      <trkpt lat="-35.025772" lon="-58.234516">
        <time>2021-05-01T17:15:34Z</time>
      </trkpt>
      <trkpt lat="-35.025772" lon="-58.234444">
        <time>2021-05-01T17:15:35Z</time>
      </trkpt>
      <trkpt lat="-35.025776" lon="-58.23437">
        <time>2021-05-01T17:15:36Z</time>
      </trkpt>
      <trkpt lat="-35.025776" lon="-58.2343">
        <time>2021-05-01T17:15:37Z</time>
      </trkpt>
      <trkpt lat="-35.025776" lon="-58.234226">
        <time>2021-05-01T17:15:38Z</time>
      </trkpt>
      <trkpt lat="-35.025772" lon="-58.23415">
        <time>2021-05-01T17:15:39Z</time>
      </trkpt>
      <trkpt lat="-35.025772" lon="-58.234077">
        <time>2021-05-01T17:15:40Z</time>
      </trkpt>
      <trkpt lat="-35.025772" lon="-58.234005">
        <time>2021-05-01T17:15:41Z</time>
      </trkpt>
      <trkpt lat="-35.025776" lon="-58.233932">
        <time>2021-05-01T17:15:42Z</time>
      </trkpt>
      <trkpt lat="-35.025776" lon="-58.23386">
        <time>2021-05-01T17:15:43Z</time>
      </trkpt>
      <trkpt lat="-35.025776" lon="-58.233788">
        <time>2021-05-01T17:15:44Z</time>
      </trkpt>
      <trkpt lat="-35.025776" lon="-58.233715">
        <time>2021-05-01T17:15:45Z</time>
      </trkpt>
      <trkpt lat="-35.025776" lon="-58.233646">
        <time>2021-05-01T17:15:46Z</time>
      </trkpt>
      <trkpt lat="-35.025776" lon="-58.233574">
        <time>2021-05-01T17:15:47Z</time>
      </trkpt>
      <trkpt lat="-35.025776" lon="-58.2335">
        <time>2021-05-01T17:15:48Z</time>
      </trkpt>
      <trkpt lat="-35.025776" lon="-58.23343">
        <time>2021-05-01T17:15:49Z</time>
      </trkpt>
      <trkpt lat="-35.025776" lon="-58.23336">
        <time>2021-05-01T17:15:50Z</time>
      </trkpt>
      <trkpt lat="-35.025776" lon="-58.23329">
        <time>2021-05-01T17:15:51Z</time>
      </trkpt>
      <trkpt lat="-35.025776" lon="-58.233227">
        <time>2021-05-01T17:15:52Z</time>
      </trkpt>
      <trkpt lat="-35.025776" lon="-58.23316">
        <time>2021-05-01T17:15:53Z</time>
      </trkpt>
      <trkpt lat="-35.02578" lon="-58.23309">
        <time>2021-05-01T17:15:54Z</time>
      </trkpt>
      <trkpt lat="-35.02578" lon="-58.23302">
        <time>2021-05-01T17:15:55Z</time>
      </trkpt>
      <trkpt lat="-35.025776" lon="-58.23295">
        <time>2021-05-01T17:15:56Z</time>
      </trkpt>
      <trkpt lat="-35.025776" lon="-58.23288">
        <time>2021-05-01T17:15:57Z</time>
      </trkpt>
      <trkpt lat="-35.025776" lon="-58.23281">
        <time>2021-05-01T17:15:58Z</time>
      </trkpt>
      <trkpt lat="-35.02578" lon="-58.232746">
        <time>2021-05-01T17:15:59Z</time>
      </trkpt>
      <trkpt lat="-35.02578" lon="-58.232677">
        <time>2021-05-01T17:16:00Z</time>
      </trkpt>
      <trkpt lat="-35.02578" lon="-58.23261">
        <time>2021-05-01T17:16:01Z</time>
      </trkpt>
      <trkpt lat="-35.02578" lon="-58.23254">
        <time>2021-05-01T17:16:02Z</time>
      </trkpt>
      <trkpt lat="-35.025776" lon="-58.23247">
        <time>2021-05-01T17:16:03Z</time>
      </trkpt>
      <trkpt lat="-35.025776" lon="-58.232403">
        <time>2021-05-01T17:16:04Z</time>
      </trkpt>
      <trkpt lat="-35.025776" lon="-58.232338">
        <time>2021-05-01T17:16:05Z</time>
      </trkpt>
      <trkpt lat="-35.025776" lon="-58.232273">
        <time>2021-05-01T17:16:06Z</time>
      </trkpt>
      <trkpt lat="-35.025776" lon="-58.23221">
        <time>2021-05-01T17:16:07Z</time>
      </trkpt>
      <trkpt lat="-35.025776" lon="-58.232147">
        <time>2021-05-01T17:16:08Z</time>
      </trkpt>
      <trkpt lat="-35.025776" lon="-58.232086">
        <time>2021-05-01T17:16:09Z</time>
      </trkpt>
      <trkpt lat="-35.025776" lon="-58.23202">
        <time>2021-05-01T17:16:10Z</time>
      </trkpt>
      <trkpt lat="-35.02578" lon="-58.231964">
        <time>2021-05-01T17:16:11Z</time>
      </trkpt>
      <trkpt lat="-35.02578" lon="-58.231907">
        <time>2021-05-01T17:16:12Z</time>
      </trkpt>
      <trkpt lat="-35.02578" lon="-58.23185">
        <time>2021-05-01T17:16:13Z</time>
      </trkpt>
      <trkpt lat="-35.025784" lon="-58.23179">
        <time>2021-05-01T17:16:14Z</time>
      </trkpt>
      <trkpt lat="-35.025784" lon="-58.231728">
        <time>2021-05-01T17:16:15Z</time>
      </trkpt>
      <trkpt lat="-35.025787" lon="-58.231663">
        <time>2021-05-01T17:16:16Z</time>
      </trkpt>
      <trkpt lat="-35.025795" lon="-58.231598">
        <time>2021-05-01T17:16:17Z</time>
      </trkpt>
      <trkpt lat="-35.0258" lon="-58.231533">
        <time>2021-05-01T17:16:18Z</time>
      </trkpt>
      <trkpt lat="-35.025806" lon="-58.23147">
        <time>2021-05-01T17:16:19Z</time>
      </trkpt>
      <trkpt lat="-35.02581" lon="-58.231403">
        <time>2021-05-01T17:16:20Z</time>
      </trkpt>
      <trkpt lat="-35.025818" lon="-58.23134">
        <time>2021-05-01T17:16:21Z</time>
      </trkpt>
      <trkpt lat="-35.02582" lon="-58.231274">
        <time>2021-05-01T17:16:22Z</time>
      </trkpt>
      <trkpt lat="-35.02583" lon="-58.23121">
        <time>2021-05-01T17:16:23Z</time>
      </trkpt>
      <trkpt lat="-35.025837" lon="-58.231148">
        <time>2021-05-01T17:16:24Z</time>
      </trkpt>
      <trkpt lat="-35.025845" lon="-58.231087">
        <time>2021-05-01T17:16:25Z</time>
      </trkpt>
      <trkpt lat="-35.025856" lon="-58.231026">
        <time>2021-05-01T17:16:26Z</time>
      </trkpt>
      <trkpt lat="-35.025867" lon="-58.23096">
        <time>2021-05-01T17:16:27Z</time>
      </trkpt>
      <trkpt lat="-35.025883" lon="-58.230896">
        <time>2021-05-01T17:16:28Z</time>
      </trkpt>
      <trkpt lat="-35.025898" lon="-58.23083">
        <time>2021-05-01T17:16:29Z</time>
      </trkpt>
      <trkpt lat="-35.025913" lon="-58.230766">
        <time>2021-05-01T17:16:30Z</time>
      </trkpt>
      <trkpt lat="-35.025932" lon="-58.2307">
        <time>2021-05-01T17:16:31Z</time>
      </trkpt>
      <trkpt lat="-35.02595" lon="-58.230637">
        <time>2021-05-01T17:16:32Z</time>
      </trkpt>
      <trkpt lat="-35.025974" lon="-58.23057">
        <time>2021-05-01T17:16:33Z</time>
      </trkpt>
      <trkpt lat="-35.025993" lon="-58.230507">
        <time>2021-05-01T17:16:34Z</time>
      </trkpt>
      <trkpt lat="-35.026012" lon="-58.230442">
        <time>2021-05-01T17:16:35Z</time>
      </trkpt>
      <trkpt lat="-35.026028" lon="-58.23038">
        <time>2021-05-01T17:16:36Z</time>
      </trkpt>
      <trkpt lat="-35.026043" lon="-58.230316">
        <time>2021-05-01T17:16:37Z</time>
      </trkpt>
      <trkpt lat="-35.02606" lon="-58.23025">
        <time>2021-05-01T17:16:38Z</time>
      </trkpt>
      <trkpt lat="-35.02607" lon="-58.230183">
        <time>2021-05-01T17:16:39Z</time>
      </trkpt>
      <trkpt lat="-35.026077" lon="-58.230114">
        <time>2021-05-01T17:16:40Z</time>
      </trkpt>
      <trkpt lat="-35.026085" lon="-58.230045">
        <time>2021-05-01T17:16:41Z</time>
      </trkpt>
      <trkpt lat="-35.02609" lon="-58.229973">
        <time>2021-05-01T17:16:42Z</time>
      </trkpt>
      <trkpt lat="-35.02609" lon="-58.229904">
        <time>2021-05-01T17:16:43Z</time>
      </trkpt>
      <trkpt lat="-35.026085" lon="-58.229836">
        <time>2021-05-01T17:16:44Z</time>
      </trkpt>
      <trkpt lat="-35.026077" lon="-58.229767">
        <time>2021-05-01T17:16:45Z</time>
      </trkpt>
      <trkpt lat="-35.026066" lon="-58.229702">
        <time>2021-05-01T17:16:46Z</time>
      </trkpt>
      <trkpt lat="-35.026054" lon="-58.229633">
        <time>2021-05-01T17:16:47Z</time>
      </trkpt>
      <trkpt lat="-35.026035" lon="-58.229572">
        <time>2021-05-01T17:16:48Z</time>
      </trkpt>
      <trkpt lat="-35.026016" lon="-58.22951">
        <time>2021-05-01T17:16:49Z</time>
      </trkpt>
      <trkpt lat="-35.025997" lon="-58.229454">
        <time>2021-05-01T17:16:50Z</time>
      </trkpt>
      <trkpt lat="-35.025978" lon="-58.229397">
        <time>2021-05-01T17:16:51Z</time>
      </trkpt>
      <trkpt lat="-35.025955" lon="-58.229347">
        <time>2021-05-01T17:16:52Z</time>
      </trkpt>
      <trkpt lat="-35.025932" lon="-58.229298">
        <time>2021-05-01T17:16:53Z</time>
      </trkpt>
      <trkpt lat="-35.02591" lon="-58.229244">
        <time>2021-05-01T17:16:54Z</time>
      </trkpt>
      <trkpt lat="-35.025894" lon="-58.22919">
        <time>2021-05-01T17:16:55Z</time>
      </trkpt>
      <trkpt lat="-35.02588" lon="-58.229134">
        <time>2021-05-01T17:16:56Z</time>
      </trkpt>
      <trkpt lat="-35.025864" lon="-58.22908">
        <time>2021-05-01T17:16:57Z</time>
      </trkpt>
      <trkpt lat="-35.025852" lon="-58.229027">
        <time>2021-05-01T17:16:58Z</time>
      </trkpt>
      <trkpt lat="-35.025845" lon="-58.22897">
        <time>2021-05-01T17:16:59Z</time>
      </trkpt>
      <trkpt lat="-35.025837" lon="-58.228912">
        <time>2021-05-01T17:17:00Z</time>
      </trkpt>
      <trkpt lat="-35.025818" lon="-58.22881">
        <time>2021-05-01T17:17:02Z</time>
      </trkpt>
      <trkpt lat="-35.025803" lon="-58.228706">
        <time>2021-05-01T17:17:04Z</time>
      </trkpt>
      <trkpt lat="-35.02579" lon="-58.2286">
        <time>2021-05-01T17:17:06Z</time>
      </trkpt>
      <trkpt lat="-35.025787" lon="-58.228542">
        <time>2021-05-01T17:17:07Z</time>
      </trkpt>
      <trkpt lat="-35.025787" lon="-58.228485">
        <time>2021-05-01T17:17:08Z</time>
      </trkpt>
      <trkpt lat="-35.02579" lon="-58.228424">
        <time>2021-05-01T17:17:09Z</time>
      </trkpt>
      <trkpt lat="-35.02579" lon="-58.22837">
        <time>2021-05-01T17:17:10Z</time>
      </trkpt>
      <trkpt lat="-35.02579" lon="-58.228306">
        <time>2021-05-01T17:17:11Z</time>
      </trkpt>
      <trkpt lat="-35.025787" lon="-58.228245">
        <time>2021-05-01T17:17:12Z</time>
      </trkpt>
      <trkpt lat="-35.02579" lon="-58.228184">
        <time>2021-05-01T17:17:13Z</time>
      </trkpt>
      <trkpt lat="-35.02579" lon="-58.228123">
        <time>2021-05-01T17:17:14Z</time>
      </trkpt>
      <trkpt lat="-35.02579" lon="-58.22806">
        <time>2021-05-01T17:17:15Z</time>
      </trkpt>
      <trkpt lat="-35.02579" lon="-58.228">
        <time>2021-05-01T17:17:16Z</time>
      </trkpt>
      <trkpt lat="-35.025795" lon="-58.227936">
        <time>2021-05-01T17:17:17Z</time>
      </trkpt>
      <trkpt lat="-35.02579" lon="-58.22787">
        <time>2021-05-01T17:17:18Z</time>
      </trkpt>
      <trkpt lat="-35.02579" lon="-58.22781">
        <time>2021-05-01T17:17:19Z</time>
      </trkpt>
      <trkpt lat="-35.02579" lon="-58.227745">
        <time>2021-05-01T17:17:20Z</time>
      </trkpt>
      <trkpt lat="-35.025795" lon="-58.22768">
        <time>2021-05-01T17:17:21Z</time>
      </trkpt>
      <trkpt lat="-35.0258" lon="-58.227615">
        <time>2021-05-01T17:17:22Z</time>
      </trkpt>
      <trkpt lat="-35.0258" lon="-58.22755">
        <time>2021-05-01T17:17:23Z</time>
      </trkpt>
      <trkpt lat="-35.025803" lon="-58.227486">
        <time>2021-05-01T17:17:24Z</time>
      </trkpt>
      <trkpt lat="-35.025803" lon="-58.22742">
        <time>2021-05-01T17:17:25Z</time>
      </trkpt>
      <trkpt lat="-35.025806" lon="-58.227356">
        <time>2021-05-01T17:17:26Z</time>
      </trkpt>
      <trkpt lat="-35.025806" lon="-58.227287">
        <time>2021-05-01T17:17:27Z</time>
      </trkpt>
      <trkpt lat="-35.025806" lon="-58.22722">
        <time>2021-05-01T17:17:28Z</time>
      </trkpt>
      <trkpt lat="-35.025806" lon="-58.227154">
        <time>2021-05-01T17:17:29Z</time>
      </trkpt>
      <trkpt lat="-35.025803" lon="-58.22709">
        <time>2021-05-01T17:17:30Z</time>
      </trkpt>
      <trkpt lat="-35.0258" lon="-58.227024">
        <time>2021-05-01T17:17:31Z</time>
      </trkpt>
      <trkpt lat="-35.0258" lon="-58.22696">
        <time>2021-05-01T17:17:32Z</time>
      </trkpt>
      <trkpt lat="-35.0258" lon="-58.2269">
        <time>2021-05-01T17:17:33Z</time>
      </trkpt>
      <trkpt lat="-35.025795" lon="-58.22683">
        <time>2021-05-01T17:17:34Z</time>
      </trkpt>
      <trkpt lat="-35.02579" lon="-58.22676">
        <time>2021-05-01T17:17:35Z</time>
      </trkpt>
      <trkpt lat="-35.02579" lon="-58.226692">
        <time>2021-05-01T17:17:36Z</time>
      </trkpt>
      <trkpt lat="-35.02579" lon="-58.226624">
        <time>2021-05-01T17:17:37Z</time>
      </trkpt>
      <trkpt lat="-35.02579" lon="-58.226555">
        <time>2021-05-01T17:17:38Z</time>
      </trkpt>
      <trkpt lat="-35.02579" lon="-58.226486">
        <time>2021-05-01T17:17:39Z</time>
      </trkpt>
      <trkpt lat="-35.02579" lon="-58.22642">
        <time>2021-05-01T17:17:40Z</time>
      </trkpt>
      <trkpt lat="-35.02579" lon="-58.22635">
        <time>2021-05-01T17:17:41Z</time>
      </trkpt>
      <trkpt lat="-35.02579" lon="-58.22628">
        <time>2021-05-01T17:17:42Z</time>
      </trkpt>
      <trkpt lat="-35.025795" lon="-58.22621">
        <time>2021-05-01T17:17:43Z</time>
      </trkpt>
      <trkpt lat="-35.025795" lon="-58.226143">
        <time>2021-05-01T17:17:44Z</time>
      </trkpt>
      <trkpt lat="-35.0258" lon="-58.22607">
        <time>2021-05-01T17:17:45Z</time>
      </trkpt>
      <trkpt lat="-35.025795" lon="-58.225998">
        <time>2021-05-01T17:17:46Z</time>
      </trkpt>
      <trkpt lat="-35.02579" lon="-58.22592">
        <time>2021-05-01T17:17:47Z</time>
      </trkpt>
      <trkpt lat="-35.025784" lon="-58.225845">
        <time>2021-05-01T17:17:48Z</time>
      </trkpt>
      <trkpt lat="-35.025787" lon="-58.22577">
        <time>2021-05-01T17:17:49Z</time>
      </trkpt>
      <trkpt lat="-35.025787" lon="-58.225697">
        <time>2021-05-01T17:17:50Z</time>
      </trkpt>
      <trkpt lat="-35.025787" lon="-58.22562">
        <time>2021-05-01T17:17:51Z</time>
      </trkpt>
      <trkpt lat="-35.025787" lon="-58.225548">
        <time>2021-05-01T17:17:52Z</time>
      </trkpt>
      <trkpt lat="-35.025787" lon="-58.22548">
        <time>2021-05-01T17:17:53Z</time>
      </trkpt>
      <trkpt lat="-35.025787" lon="-58.225414">
        <time>2021-05-01T17:17:54Z</time>
      </trkpt>
      <trkpt lat="-35.025787" lon="-58.22535">
        <time>2021-05-01T17:17:55Z</time>
      </trkpt>
      <trkpt lat="-35.025787" lon="-58.225285">
        <time>2021-05-01T17:17:56Z</time>
      </trkpt>
      <trkpt lat="-35.025787" lon="-58.22522">
        <time>2021-05-01T17:17:57Z</time>
      </trkpt>
      <trkpt lat="-35.025787" lon="-58.225155">
        <time>2021-05-01T17:17:58Z</time>
      </trkpt>
      <trkpt lat="-35.025787" lon="-58.22509">
        <time>2021-05-01T17:17:59Z</time>
      </trkpt>
      <trkpt lat="-35.025787" lon="-58.22502">
        <time>2021-05-01T17:18:00Z</time>
      </trkpt>
      <trkpt lat="-35.025784" lon="-58.224953">
        <time>2021-05-01T17:18:01Z</time>
      </trkpt>
      <trkpt lat="-35.025787" lon="-58.224888">
        <time>2021-05-01T17:18:02Z</time>
      </trkpt>
      <trkpt lat="-35.025787" lon="-58.22482">
        <time>2021-05-01T17:18:03Z</time>
      </trkpt>
      <trkpt lat="-35.025787" lon="-58.224754">
        <time>2021-05-01T17:18:04Z</time>
      </trkpt>
      <trkpt lat="-35.025787" lon="-58.224693">
        <time>2021-05-01T17:18:05Z</time>
      </trkpt>
      <trkpt lat="-35.025787" lon="-58.22463">
        <time>2021-05-01T17:18:06Z</time>
      </trkpt>
      <trkpt lat="-35.025784" lon="-58.22457">
        <time>2021-05-01T17:18:07Z</time>
      </trkpt>
      <trkpt lat="-35.025784" lon="-58.22451">
        <time>2021-05-01T17:18:08Z</time>
      </trkpt>
      <trkpt lat="-35.025787" lon="-58.22445">
        <time>2021-05-01T17:18:09Z</time>
      </trkpt>
      <trkpt lat="-35.025787" lon="-58.224384">
        <time>2021-05-01T17:18:10Z</time>
      </trkpt>
      <trkpt lat="-35.02579" lon="-58.22432">
        <time>2021-05-01T17:18:11Z</time>
      </trkpt>
      <trkpt lat="-35.02579" lon="-58.22426">
        <time>2021-05-01T17:18:12Z</time>
      </trkpt>
      <trkpt lat="-35.02579" lon="-58.224194">
        <time>2021-05-01T17:18:13Z</time>
      </trkpt>
      <trkpt lat="-35.02579" lon="-58.22413">
        <time>2021-05-01T17:18:14Z</time>
      </trkpt>
      <trkpt lat="-35.02579" lon="-58.22406">
        <time>2021-05-01T17:18:15Z</time>
      </trkpt>
      <trkpt lat="-35.025787" lon="-58.223995">
        <time>2021-05-01T17:18:16Z</time>
      </trkpt>
      <trkpt lat="-35.02579" lon="-58.22393">
        <time>2021-05-01T17:18:17Z</time>
      </trkpt>
      <trkpt lat="-35.02579" lon="-58.223866">
        <time>2021-05-01T17:18:18Z</time>
      </trkpt>
      <trkpt lat="-35.025795" lon="-58.223797">
        <time>2021-05-01T17:18:19Z</time>
      </trkpt>
      <trkpt lat="-35.025795" lon="-58.223732">
        <time>2021-05-01T17:18:20Z</time>
      </trkpt>
      <trkpt lat="-35.025795" lon="-58.223663">
        <time>2021-05-01T17:18:21Z</time>
      </trkpt>
      <trkpt lat="-35.02579" lon="-58.223595">
        <time>2021-05-01T17:18:22Z</time>
      </trkpt>
      <trkpt lat="-35.02579" lon="-58.22353">
        <time>2021-05-01T17:18:23Z</time>
      </trkpt>
      <trkpt lat="-35.02579" lon="-58.223457">
        <time>2021-05-01T17:18:24Z</time>
      </trkpt>
      <trkpt lat="-35.02579" lon="-58.22339">
        <time>2021-05-01T17:18:25Z</time>
      </trkpt>
      <trkpt lat="-35.025795" lon="-58.22332">
        <time>2021-05-01T17:18:26Z</time>
      </trkpt>
      <trkpt lat="-35.025795" lon="-58.22325">
        <time>2021-05-01T17:18:27Z</time>
      </trkpt>
      <trkpt lat="-35.025795" lon="-58.22318">
        <time>2021-05-01T17:18:28Z</time>
      </trkpt>
      <trkpt lat="-35.025795" lon="-58.22311">
        <time>2021-05-01T17:18:29Z</time>
      </trkpt>
      <trkpt lat="-35.025795" lon="-58.22304">
        <time>2021-05-01T17:18:30Z</time>
      </trkpt>
      <trkpt lat="-35.025795" lon="-58.22297">
        <time>2021-05-01T17:18:31Z</time>
      </trkpt>
      <trkpt lat="-35.025795" lon="-58.2229">
        <time>2021-05-01T17:18:32Z</time>
      </trkpt>
      <trkpt lat="-35.025795" lon="-58.22283">
        <time>2021-05-01T17:18:33Z</time>
      </trkpt>
      <trkpt lat="-35.025795" lon="-58.222763">
        <time>2021-05-01T17:18:34Z</time>
      </trkpt>
      <trkpt lat="-35.025795" lon="-58.22269">
        <time>2021-05-01T17:18:35Z</time>
      </trkpt>
      <trkpt lat="-35.025795" lon="-58.222622">
        <time>2021-05-01T17:18:36Z</time>
      </trkpt>
      <trkpt lat="-35.0258" lon="-58.222553">
        <time>2021-05-01T17:18:37Z</time>
      </trkpt>
      <trkpt lat="-35.0258" lon="-58.222485">
        <time>2021-05-01T17:18:38Z</time>
      </trkpt>
      <trkpt lat="-35.025795" lon="-58.222416">
        <time>2021-05-01T17:18:39Z</time>
      </trkpt>
      <trkpt lat="-35.0258" lon="-58.22235">
        <time>2021-05-01T17:18:40Z</time>
      </trkpt>
      <trkpt lat="-35.0258" lon="-58.222282">
        <time>2021-05-01T17:18:41Z</time>
      </trkpt>
      <trkpt lat="-35.025795" lon="-58.222214">
        <time>2021-05-01T17:18:42Z</time>
      </trkpt>
      <trkpt lat="-35.025795" lon="-58.222145">
        <time>2021-05-01T17:18:43Z</time>
      </trkpt>
      <trkpt lat="-35.0258" lon="-58.222076">
        <time>2021-05-01T17:18:44Z</time>
      </trkpt>
      <trkpt lat="-35.0258" lon="-58.222008">
        <time>2021-05-01T17:18:45Z</time>
      </trkpt>
      <trkpt lat="-35.0258" lon="-58.22194">
        <time>2021-05-01T17:18:46Z</time>
      </trkpt>
      <trkpt lat="-35.0258" lon="-58.22187">
        <time>2021-05-01T17:18:47Z</time>
      </trkpt>
      <trkpt lat="-35.0258" lon="-58.2218">
        <time>2021-05-01T17:18:48Z</time>
      </trkpt>
      <trkpt lat="-35.0258" lon="-58.22173">
        <time>2021-05-01T17:18:49Z</time>
      </trkpt>
      <trkpt lat="-35.025803" lon="-58.22166">
        <time>2021-05-01T17:18:50Z</time>
      </trkpt>
      <trkpt lat="-35.025803" lon="-58.22159">
        <time>2021-05-01T17:18:51Z</time>
      </trkpt>
      <trkpt lat="-35.0258" lon="-58.22152">
        <time>2021-05-01T17:18:52Z</time>
      </trkpt>
      <trkpt lat="-35.025803" lon="-58.221455">
        <time>2021-05-01T17:18:53Z</time>
      </trkpt>
      <trkpt lat="-35.025803" lon="-58.22139">
        <time>2021-05-01T17:18:54Z</time>
      </trkpt>
      <trkpt lat="-35.025803" lon="-58.221325">
        <time>2021-05-01T17:18:55Z</time>
      </trkpt>
      <trkpt lat="-35.025803" lon="-58.221256">
        <time>2021-05-01T17:18:56Z</time>
      </trkpt>
      <trkpt lat="-35.025803" lon="-58.22119">
        <time>2021-05-01T17:18:57Z</time>
      </trkpt>
      <trkpt lat="-35.025803" lon="-58.22112">
        <time>2021-05-01T17:18:58Z</time>
      </trkpt>
      <trkpt lat="-35.025803" lon="-58.22105">
        <time>2021-05-01T17:18:59Z</time>
      </trkpt>
      <trkpt lat="-35.0258" lon="-58.220985">
        <time>2021-05-01T17:19:00Z</time>
      </trkpt>
      <trkpt lat="-35.0258" lon="-58.22092">
        <time>2021-05-01T17:19:01Z</time>
      </trkpt>
      <trkpt lat="-35.0258" lon="-58.22086">
        <time>2021-05-01T17:19:02Z</time>
      </trkpt>
      <trkpt lat="-35.025795" lon="-58.220795">
        <time>2021-05-01T17:19:03Z</time>
      </trkpt>
      <trkpt lat="-35.0258" lon="-58.22073">
        <time>2021-05-01T17:19:04Z</time>
      </trkpt>
      <trkpt lat="-35.0258" lon="-58.220665">
        <time>2021-05-01T17:19:05Z</time>
      </trkpt>
      <trkpt lat="-35.025795" lon="-58.220592">
        <time>2021-05-01T17:19:06Z</time>
      </trkpt>
      <trkpt lat="-35.0258" lon="-58.220524">
        <time>2021-05-01T17:19:07Z</time>
      </trkpt>
      <trkpt lat="-35.025803" lon="-58.22045">
        <time>2021-05-01T17:19:08Z</time>
      </trkpt>
      <trkpt lat="-35.025803" lon="-58.22038">
        <time>2021-05-01T17:19:09Z</time>
      </trkpt>
      <trkpt lat="-35.025803" lon="-58.220306">
        <time>2021-05-01T17:19:10Z</time>
      </trkpt>
      <trkpt lat="-35.025803" lon="-58.220238">
        <time>2021-05-01T17:19:11Z</time>
      </trkpt>
      <trkpt lat="-35.025803" lon="-58.22017">
        <time>2021-05-01T17:19:12Z</time>
      </trkpt>
      <trkpt lat="-35.025803" lon="-58.2201">
        <time>2021-05-01T17:19:13Z</time>
      </trkpt>
      <trkpt lat="-35.025803" lon="-58.220036">
        <time>2021-05-01T17:19:14Z</time>
      </trkpt>
      <trkpt lat="-35.0258" lon="-58.21997">
        <time>2021-05-01T17:19:15Z</time>
      </trkpt>
      <trkpt lat="-35.0258" lon="-58.219902">
        <time>2021-05-01T17:19:16Z</time>
      </trkpt>
      <trkpt lat="-35.0258" lon="-58.219833">
        <time>2021-05-01T17:19:17Z</time>
      </trkpt>
      <trkpt lat="-35.0258" lon="-58.21977">
        <time>2021-05-01T17:19:18Z</time>
      </trkpt>
      <trkpt lat="-35.0258" lon="-58.2197">
        <time>2021-05-01T17:19:19Z</time>
      </trkpt>
      <trkpt lat="-35.0258" lon="-58.219627">
        <time>2021-05-01T17:19:20Z</time>
      </trkpt>
      <trkpt lat="-35.025803" lon="-58.219563">
        <time>2021-05-01T17:19:21Z</time>
      </trkpt>
      <trkpt lat="-35.025803" lon="-58.219498">
        <time>2021-05-01T17:19:22Z</time>
      </trkpt>
      <trkpt lat="-35.025806" lon="-58.219433">
        <time>2021-05-01T17:19:23Z</time>
      </trkpt>
      <trkpt lat="-35.025806" lon="-58.219364">
        <time>2021-05-01T17:19:24Z</time>
      </trkpt>
      <trkpt lat="-35.02581" lon="-58.219296">
        <time>2021-05-01T17:19:25Z</time>
      </trkpt>
      <trkpt lat="-35.025814" lon="-58.219223">
        <time>2021-05-01T17:19:26Z</time>
      </trkpt>
      <trkpt lat="-35.025814" lon="-58.21915">
        <time>2021-05-01T17:19:27Z</time>
      </trkpt>
      <trkpt lat="-35.025814" lon="-58.21908">
        <time>2021-05-01T17:19:28Z</time>
      </trkpt>
      <trkpt lat="-35.02582" lon="-58.21901">
        <time>2021-05-01T17:19:29Z</time>
      </trkpt>
      <trkpt lat="-35.025826" lon="-58.218937">
        <time>2021-05-01T17:19:30Z</time>
      </trkpt>
      <trkpt lat="-35.02583" lon="-58.218864">
        <time>2021-05-01T17:19:31Z</time>
      </trkpt>
      <trkpt lat="-35.025833" lon="-58.218796">
        <time>2021-05-01T17:19:32Z</time>
      </trkpt>
      <trkpt lat="-35.025837" lon="-58.218723">
        <time>2021-05-01T17:19:33Z</time>
      </trkpt>
      <trkpt lat="-35.025845" lon="-58.21865">
        <time>2021-05-01T17:19:34Z</time>
      </trkpt>
      <trkpt lat="-35.025852" lon="-58.218582">
        <time>2021-05-01T17:19:35Z</time>
      </trkpt>
      <trkpt lat="-35.025856" lon="-58.218513">
        <time>2021-05-01T17:19:36Z</time>
      </trkpt>
      <trkpt lat="-35.025864" lon="-58.218445">
        <time>2021-05-01T17:19:37Z</time>
      </trkpt>
      <trkpt lat="-35.02587" lon="-58.21838">
        <time>2021-05-01T17:19:38Z</time>
      </trkpt>
      <trkpt lat="-35.02588" lon="-58.21831">
        <time>2021-05-01T17:19:39Z</time>
      </trkpt>
      <trkpt lat="-35.025887" lon="-58.21824">
        <time>2021-05-01T17:19:40Z</time>
      </trkpt>
      <trkpt lat="-35.025894" lon="-58.218166">
        <time>2021-05-01T17:19:41Z</time>
      </trkpt>
      <trkpt lat="-35.025906" lon="-58.218094">
        <time>2021-05-01T17:19:42Z</time>
      </trkpt>
      <trkpt lat="-35.025913" lon="-58.21802">
        <time>2021-05-01T17:19:43Z</time>
      </trkpt>
      <trkpt lat="-35.025925" lon="-58.217945">
        <time>2021-05-01T17:19:44Z</time>
      </trkpt>
      <trkpt lat="-35.025936" lon="-58.217876">
        <time>2021-05-01T17:19:45Z</time>
      </trkpt>
      <trkpt lat="-35.025948" lon="-58.2178">
        <time>2021-05-01T17:19:46Z</time>
      </trkpt>
      <trkpt lat="-35.02596" lon="-58.217728">
        <time>2021-05-01T17:19:47Z</time>
      </trkpt>
      <trkpt lat="-35.02597" lon="-58.217655">
        <time>2021-05-01T17:19:48Z</time>
      </trkpt>
      <trkpt lat="-35.02598" lon="-58.217587">
        <time>2021-05-01T17:19:49Z</time>
      </trkpt>
      <trkpt lat="-35.025993" lon="-58.217514">
        <time>2021-05-01T17:19:50Z</time>
      </trkpt>
      <trkpt lat="-35.026005" lon="-58.217445">
        <time>2021-05-01T17:19:51Z</time>
      </trkpt>
      <trkpt lat="-35.026016" lon="-58.217373">
        <time>2021-05-01T17:19:52Z</time>
      </trkpt>
      <trkpt lat="-35.02603" lon="-58.217304">
        <time>2021-05-01T17:19:53Z</time>
      </trkpt>
      <trkpt lat="-35.026043" lon="-58.217236">
        <time>2021-05-01T17:19:54Z</time>
      </trkpt>
      <trkpt lat="-35.02606" lon="-58.217167">
        <time>2021-05-01T17:19:55Z</time>
      </trkpt>
      <trkpt lat="-35.026073" lon="-58.2171">
        <time>2021-05-01T17:19:56Z</time>
      </trkpt>
      <trkpt lat="-35.026085" lon="-58.217026">
        <time>2021-05-01T17:19:57Z</time>
      </trkpt>
      <trkpt lat="-35.0261" lon="-58.216957">
        <time>2021-05-01T17:19:58Z</time>
      </trkpt>
      <trkpt lat="-35.026115" lon="-58.21689">
        <time>2021-05-01T17:19:59Z</time>
      </trkpt>
      <trkpt lat="-35.026134" lon="-58.21682">
        <time>2021-05-01T17:20:00Z</time>
      </trkpt>
      <trkpt lat="-35.02615" lon="-58.21675">
        <time>2021-05-01T17:20:01Z</time>
      </trkpt>
      <trkpt lat="-35.026165" lon="-58.216686">
        <time>2021-05-01T17:20:02Z</time>
      </trkpt>
      <trkpt lat="-35.02618" lon="-58.21662">
        <time>2021-05-01T17:20:03Z</time>
      </trkpt>
      <trkpt lat="-35.0262" lon="-58.216557">
        <time>2021-05-01T17:20:04Z</time>
      </trkpt>
      <trkpt lat="-35.026215" lon="-58.216488">
        <time>2021-05-01T17:20:05Z</time>
      </trkpt>
      <trkpt lat="-35.026234" lon="-58.21642">
        <time>2021-05-01T17:20:06Z</time>
      </trkpt>
      <trkpt lat="-35.026253" lon="-58.216347">
        <time>2021-05-01T17:20:07Z</time>
      </trkpt>
      <trkpt lat="-35.02627" lon="-58.216278">
        <time>2021-05-01T17:20:08Z</time>
      </trkpt>
      <trkpt lat="-35.02629" lon="-58.21621">
        <time>2021-05-01T17:20:09Z</time>
      </trkpt>
      <trkpt lat="-35.02631" lon="-58.216145">
        <time>2021-05-01T17:20:10Z</time>
      </trkpt>
      <trkpt lat="-35.02633" lon="-58.216076">
        <time>2021-05-01T17:20:11Z</time>
      </trkpt>
      <trkpt lat="-35.02635" lon="-58.21601">
        <time>2021-05-01T17:20:12Z</time>
      </trkpt>
      <trkpt lat="-35.02637" lon="-58.21595">
        <time>2021-05-01T17:20:13Z</time>
      </trkpt>
      <trkpt lat="-35.02639" lon="-58.215885">
        <time>2021-05-01T17:20:14Z</time>
      </trkpt>
      <trkpt lat="-35.026413" lon="-58.215816">
        <time>2021-05-01T17:20:15Z</time>
      </trkpt>
      <trkpt lat="-35.026432" lon="-58.215748">
        <time>2021-05-01T17:20:16Z</time>
      </trkpt>
      <trkpt lat="-35.026455" lon="-58.21568">
        <time>2021-05-01T17:20:17Z</time>
      </trkpt>
      <trkpt lat="-35.026478" lon="-58.21561">
        <time>2021-05-01T17:20:18Z</time>
      </trkpt>
      <trkpt lat="-35.026505" lon="-58.215546">
        <time>2021-05-01T17:20:19Z</time>
      </trkpt>
      <trkpt lat="-35.026527" lon="-58.215477">
        <time>2021-05-01T17:20:20Z</time>
      </trkpt>
      <trkpt lat="-35.02655" lon="-58.21541">
        <time>2021-05-01T17:20:21Z</time>
      </trkpt>
      <trkpt lat="-35.02657" lon="-58.21534">
        <time>2021-05-01T17:20:22Z</time>
      </trkpt>
      <trkpt lat="-35.026596" lon="-58.21527">
        <time>2021-05-01T17:20:23Z</time>
      </trkpt>
      <trkpt lat="-35.026623" lon="-58.215206">
        <time>2021-05-01T17:20:24Z</time>
      </trkpt>
      <trkpt lat="-35.02665" lon="-58.21514">
        <time>2021-05-01T17:20:25Z</time>
      </trkpt>
      <trkpt lat="-35.026676" lon="-58.215073">
        <time>2021-05-01T17:20:26Z</time>
      </trkpt>
      <trkpt lat="-35.0267" lon="-58.215008">
        <time>2021-05-01T17:20:27Z</time>
      </trkpt>
      <trkpt lat="-35.026726" lon="-58.21494">
        <time>2021-05-01T17:20:28Z</time>
      </trkpt>
      <trkpt lat="-35.02675" lon="-58.21487">
        <time>2021-05-01T17:20:29Z</time>
      </trkpt>
      <trkpt lat="-35.02677" lon="-58.2148">
        <time>2021-05-01T17:20:30Z</time>
      </trkpt>
      <trkpt lat="-35.0268" lon="-58.214733">
        <time>2021-05-01T17:20:31Z</time>
      </trkpt>
      <trkpt lat="-35.026825" lon="-58.21466">
        <time>2021-05-01T17:20:32Z</time>
      </trkpt>
      <trkpt lat="-35.02685" lon="-58.214592">
        <time>2021-05-01T17:20:33Z</time>
      </trkpt>
      <trkpt lat="-35.02688" lon="-58.214523">
        <time>2021-05-01T17:20:34Z</time>
      </trkpt>
      <trkpt lat="-35.0269" lon="-58.214455">
        <time>2021-05-01T17:20:35Z</time>
      </trkpt>
      <trkpt lat="-35.026928" lon="-58.214382">
        <time>2021-05-01T17:20:36Z</time>
      </trkpt>
      <trkpt lat="-35.02696" lon="-58.214314">
        <time>2021-05-01T17:20:37Z</time>
      </trkpt>
      <trkpt lat="-35.02699" lon="-58.21424">
        <time>2021-05-01T17:20:38Z</time>
      </trkpt>
      <trkpt lat="-35.027016" lon="-58.21417">
        <time>2021-05-01T17:20:39Z</time>
      </trkpt>
      <trkpt lat="-35.027042" lon="-58.2141">
        <time>2021-05-01T17:20:40Z</time>
      </trkpt>
      <trkpt lat="-35.02707" lon="-58.214027">
        <time>2021-05-01T17:20:41Z</time>
      </trkpt>
      <trkpt lat="-35.027092" lon="-58.21396">
        <time>2021-05-01T17:20:42Z</time>
      </trkpt>
      <trkpt lat="-35.027115" lon="-58.213894">
        <time>2021-05-01T17:20:43Z</time>
      </trkpt>
      <trkpt lat="-35.02714" lon="-58.21383">
        <time>2021-05-01T17:20:44Z</time>
      </trkpt>
      <trkpt lat="-35.027164" lon="-58.213764">
        <time>2021-05-01T17:20:45Z</time>
      </trkpt>
      <trkpt lat="-35.02719" lon="-58.213696">
        <time>2021-05-01T17:20:46Z</time>
      </trkpt>
      <trkpt lat="-35.027218" lon="-58.21363">
        <time>2021-05-01T17:20:47Z</time>
      </trkpt>
      <trkpt lat="-35.027245" lon="-58.213562">
        <time>2021-05-01T17:20:48Z</time>
      </trkpt>
      <trkpt lat="-35.027264" lon="-58.213497">
        <time>2021-05-01T17:20:49Z</time>
      </trkpt>
      <trkpt lat="-35.027294" lon="-58.213436">
        <time>2021-05-01T17:20:50Z</time>
      </trkpt>
      <trkpt lat="-35.027317" lon="-58.21337">
        <time>2021-05-01T17:20:51Z</time>
      </trkpt>
      <trkpt lat="-35.027344" lon="-58.213303">
        <time>2021-05-01T17:20:52Z</time>
      </trkpt>
      <trkpt lat="-35.02737" lon="-58.213238">
        <time>2021-05-01T17:20:53Z</time>
      </trkpt>
      <trkpt lat="-35.027393" lon="-58.21317">
        <time>2021-05-01T17:20:54Z</time>
      </trkpt>
      <trkpt lat="-35.027416" lon="-58.213108">
        <time>2021-05-01T17:20:55Z</time>
      </trkpt>
      <trkpt lat="-35.02744" lon="-58.213043">
        <time>2021-05-01T17:20:56Z</time>
      </trkpt>
      <trkpt lat="-35.027462" lon="-58.212982">
        <time>2021-05-01T17:20:57Z</time>
      </trkpt>
      <trkpt lat="-35.027485" lon="-58.21292">
        <time>2021-05-01T17:20:58Z</time>
      </trkpt>
      <trkpt lat="-35.02751" lon="-58.212856">
        <time>2021-05-01T17:20:59Z</time>
      </trkpt>
      <trkpt lat="-35.02754" lon="-58.21279">
        <time>2021-05-01T17:21:00Z</time>
      </trkpt>
      <trkpt lat="-35.027565" lon="-58.21273">
        <time>2021-05-01T17:21:01Z</time>
      </trkpt>
      <trkpt lat="-35.027588" lon="-58.212666">
        <time>2021-05-01T17:21:02Z</time>
      </trkpt>
      <trkpt lat="-35.027607" lon="-58.2126">
        <time>2021-05-01T17:21:03Z</time>
      </trkpt>
      <trkpt lat="-35.027637" lon="-58.21254">
        <time>2021-05-01T17:21:04Z</time>
      </trkpt>
      <trkpt lat="-35.02766" lon="-58.212475">
        <time>2021-05-01T17:21:05Z</time>
      </trkpt>
      <trkpt lat="-35.027683" lon="-58.21241">
        <time>2021-05-01T17:21:06Z</time>
      </trkpt>
      <trkpt lat="-35.02771" lon="-58.212345">
        <time>2021-05-01T17:21:07Z</time>
      </trkpt>
      <trkpt lat="-35.027733" lon="-58.21228">
        <time>2021-05-01T17:21:08Z</time>
      </trkpt>
      <trkpt lat="-35.02776" lon="-58.21222">
        <time>2021-05-01T17:21:09Z</time>
      </trkpt>
      <trkpt lat="-35.027782" lon="-58.212154">
        <time>2021-05-01T17:21:10Z</time>
      </trkpt>
      <trkpt lat="-35.027805" lon="-58.212086">
        <time>2021-05-01T17:21:11Z</time>
      </trkpt>
      <trkpt lat="-35.02783" lon="-58.212025">
        <time>2021-05-01T17:21:12Z</time>
      </trkpt>
      <trkpt lat="-35.02785" lon="-58.21196">
        <time>2021-05-01T17:21:13Z</time>
      </trkpt>
      <trkpt lat="-35.027878" lon="-58.2119">
        <time>2021-05-01T17:21:14Z</time>
      </trkpt>
      <trkpt lat="-35.027905" lon="-58.211834">
        <time>2021-05-01T17:21:15Z</time>
      </trkpt>
      <trkpt lat="-35.027927" lon="-58.21177">
        <time>2021-05-01T17:21:16Z</time>
      </trkpt>
      <trkpt lat="-35.027954" lon="-58.2117">
        <time>2021-05-01T17:21:17Z</time>
      </trkpt>
      <trkpt lat="-35.027977" lon="-58.21163">
        <time>2021-05-01T17:21:18Z</time>
      </trkpt>
      <trkpt lat="-35.028004" lon="-58.211563">
        <time>2021-05-01T17:21:19Z</time>
      </trkpt>
      <trkpt lat="-35.028027" lon="-58.2115">
        <time>2021-05-01T17:21:20Z</time>
      </trkpt>
      <trkpt lat="-35.028053" lon="-58.211433">
        <time>2021-05-01T17:21:21Z</time>
      </trkpt>
      <trkpt lat="-35.028076" lon="-58.211372">
        <time>2021-05-01T17:21:22Z</time>
      </trkpt>
      <trkpt lat="-35.0281" lon="-58.211308">
        <time>2021-05-01T17:21:23Z</time>
      </trkpt>
      <trkpt lat="-35.028122" lon="-58.211243">
        <time>2021-05-01T17:21:24Z</time>
      </trkpt>
      <trkpt lat="-35.02815" lon="-58.211178">
        <time>2021-05-01T17:21:25Z</time>
      </trkpt>
      <trkpt lat="-35.028175" lon="-58.211113">
        <time>2021-05-01T17:21:26Z</time>
      </trkpt>
      <trkpt lat="-35.028202" lon="-58.211044">
        <time>2021-05-01T17:21:27Z</time>
      </trkpt>
      <trkpt lat="-35.028225" lon="-58.21098">
        <time>2021-05-01T17:21:28Z</time>
      </trkpt>
      <trkpt lat="-35.028248" lon="-58.210915">
        <time>2021-05-01T17:21:29Z</time>
      </trkpt>
      <trkpt lat="-35.02827" lon="-58.21085">
        <time>2021-05-01T17:21:30Z</time>
      </trkpt>
      <trkpt lat="-35.028294" lon="-58.210785">
        <time>2021-05-01T17:21:31Z</time>
      </trkpt>
      <trkpt lat="-35.02832" lon="-58.210728">
        <time>2021-05-01T17:21:32Z</time>
      </trkpt>
      <trkpt lat="-35.028343" lon="-58.210663">
        <time>2021-05-01T17:21:33Z</time>
      </trkpt>
      <trkpt lat="-35.02837" lon="-58.2106">
        <time>2021-05-01T17:21:34Z</time>
      </trkpt>
      <trkpt lat="-35.028393" lon="-58.210537">
        <time>2021-05-01T17:21:35Z</time>
      </trkpt>
      <trkpt lat="-35.028416" lon="-58.210476">
        <time>2021-05-01T17:21:36Z</time>
      </trkpt>
      <trkpt lat="-35.02844" lon="-58.21041">
        <time>2021-05-01T17:21:37Z</time>
      </trkpt>
      <trkpt lat="-35.028465" lon="-58.210346">
        <time>2021-05-01T17:21:38Z</time>
      </trkpt>
      <trkpt lat="-35.02851" lon="-58.210224">
        <time>2021-05-01T17:21:39Z</time>
      </trkpt>
      <trkpt lat="-35.028538" lon="-58.21016">
        <time>2021-05-01T17:21:40Z</time>
      </trkpt>
      <trkpt lat="-35.02856" lon="-58.2101">
        <time>2021-05-01T17:21:41Z</time>
      </trkpt>
      <trkpt lat="-35.028584" lon="-58.210033">
        <time>2021-05-01T17:21:42Z</time>
      </trkpt>
      <trkpt lat="-35.028606" lon="-58.20997">
        <time>2021-05-01T17:21:43Z</time>
      </trkpt>
      <trkpt lat="-35.028633" lon="-58.209904">
        <time>2021-05-01T17:21:44Z</time>
      </trkpt>
      <trkpt lat="-35.028656" lon="-58.20984">
        <time>2021-05-01T17:21:45Z</time>
      </trkpt>
      <trkpt lat="-35.028683" lon="-58.209778">
        <time>2021-05-01T17:21:46Z</time>
      </trkpt>
      <trkpt lat="-35.028706" lon="-58.209713">
        <time>2021-05-01T17:21:47Z</time>
      </trkpt>
      <trkpt lat="-35.02873" lon="-58.20965">
        <time>2021-05-01T17:21:48Z</time>
      </trkpt>
      <trkpt lat="-35.02875" lon="-58.209583">
        <time>2021-05-01T17:21:49Z</time>
      </trkpt>
      <trkpt lat="-35.028778" lon="-58.20952">
        <time>2021-05-01T17:21:50Z</time>
      </trkpt>
      <trkpt lat="-35.028805" lon="-58.209454">
        <time>2021-05-01T17:21:51Z</time>
      </trkpt>
      <trkpt lat="-35.028828" lon="-58.20939">
        <time>2021-05-01T17:21:52Z</time>
      </trkpt>
      <trkpt lat="-35.028854" lon="-58.209324">
        <time>2021-05-01T17:21:53Z</time>
      </trkpt>
      <trkpt lat="-35.02888" lon="-58.209255">
        <time>2021-05-01T17:21:54Z</time>
      </trkpt>
      <trkpt lat="-35.0289" lon="-58.209187">
        <time>2021-05-01T17:21:55Z</time>
      </trkpt>
      <trkpt lat="-35.028927" lon="-58.209118">
        <time>2021-05-01T17:21:56Z</time>
      </trkpt>
      <trkpt lat="-35.028954" lon="-58.209053">
        <time>2021-05-01T17:21:57Z</time>
      </trkpt>
      <trkpt lat="-35.02898" lon="-58.208984">
        <time>2021-05-01T17:21:58Z</time>
      </trkpt>
      <trkpt lat="-35.029007" lon="-58.208916">
        <time>2021-05-01T17:21:59Z</time>
      </trkpt>
      <trkpt lat="-35.02903" lon="-58.208847">
        <time>2021-05-01T17:22:00Z</time>
      </trkpt>
      <trkpt lat="-35.029057" lon="-58.20878">
        <time>2021-05-01T17:22:01Z</time>
      </trkpt>
      <trkpt lat="-35.029083" lon="-58.20871">
        <time>2021-05-01T17:22:02Z</time>
      </trkpt>
      <trkpt lat="-35.02911" lon="-58.20864">
        <time>2021-05-01T17:22:03Z</time>
      </trkpt>
      <trkpt lat="-35.029137" lon="-58.208576">
        <time>2021-05-01T17:22:04Z</time>
      </trkpt>
      <trkpt lat="-35.029163" lon="-58.208508">
        <time>2021-05-01T17:22:05Z</time>
      </trkpt>
      <trkpt lat="-35.02919" lon="-58.20844">
        <time>2021-05-01T17:22:06Z</time>
      </trkpt>
      <trkpt lat="-35.029213" lon="-58.208374">
        <time>2021-05-01T17:22:07Z</time>
      </trkpt>
      <trkpt lat="-35.029236" lon="-58.208317">
        <time>2021-05-01T17:22:08Z</time>
      </trkpt>
      <trkpt lat="-35.02926" lon="-58.208256">
        <time>2021-05-01T17:22:09Z</time>
      </trkpt>
      <trkpt lat="-35.029285" lon="-58.20819">
        <time>2021-05-01T17:22:10Z</time>
      </trkpt>
      <trkpt lat="-35.02931" lon="-58.208126">
        <time>2021-05-01T17:22:11Z</time>
      </trkpt>
      <trkpt lat="-35.029327" lon="-58.208057">
        <time>2021-05-01T17:22:12Z</time>
      </trkpt>
      <trkpt lat="-35.029354" lon="-58.207993">
        <time>2021-05-01T17:22:13Z</time>
      </trkpt>
      <trkpt lat="-35.02938" lon="-58.207924">
        <time>2021-05-01T17:22:14Z</time>
      </trkpt>
      <trkpt lat="-35.029404" lon="-58.20786">
        <time>2021-05-01T17:22:15Z</time>
      </trkpt>
      <trkpt lat="-35.02943" lon="-58.207794">
        <time>2021-05-01T17:22:16Z</time>
      </trkpt>
      <trkpt lat="-35.029453" lon="-58.207733">
        <time>2021-05-01T17:22:17Z</time>
      </trkpt>
      <trkpt lat="-35.029476" lon="-58.207672">
        <time>2021-05-01T17:22:18Z</time>
      </trkpt>
      <trkpt lat="-35.029503" lon="-58.20761">
        <time>2021-05-01T17:22:19Z</time>
      </trkpt>
      <trkpt lat="-35.029526" lon="-58.207546">
        <time>2021-05-01T17:22:20Z</time>
      </trkpt>
      <trkpt lat="-35.02955" lon="-58.20748">
        <time>2021-05-01T17:22:21Z</time>
      </trkpt>
      <trkpt lat="-35.029575" lon="-58.207417">
        <time>2021-05-01T17:22:22Z</time>
      </trkpt>
      <trkpt lat="-35.029602" lon="-58.20735">
        <time>2021-05-01T17:22:23Z</time>
      </trkpt>
      <trkpt lat="-35.029625" lon="-58.207287">
        <time>2021-05-01T17:22:24Z</time>
      </trkpt>
      <trkpt lat="-35.02965" lon="-58.207222">
        <time>2021-05-01T17:22:25Z</time>
      </trkpt>
      <trkpt lat="-35.029675" lon="-58.207153">
        <time>2021-05-01T17:22:26Z</time>
      </trkpt>
      <trkpt lat="-35.029697" lon="-58.20709">
        <time>2021-05-01T17:22:27Z</time>
      </trkpt>
      <trkpt lat="-35.029724" lon="-58.207027">
        <time>2021-05-01T17:22:28Z</time>
      </trkpt>
      <trkpt lat="-35.029747" lon="-58.206963">
        <time>2021-05-01T17:22:29Z</time>
      </trkpt>
      <trkpt lat="-35.029774" lon="-58.206898">
        <time>2021-05-01T17:22:30Z</time>
      </trkpt>
      <trkpt lat="-35.029797" lon="-58.206833">
        <time>2021-05-01T17:22:31Z</time>
      </trkpt>
      <trkpt lat="-35.02982" lon="-58.206768">
        <time>2021-05-01T17:22:32Z</time>
      </trkpt>
      <trkpt lat="-35.029846" lon="-58.2067">
        <time>2021-05-01T17:22:33Z</time>
      </trkpt>
      <trkpt lat="-35.02987" lon="-58.20664">
        <time>2021-05-01T17:22:34Z</time>
      </trkpt>
      <trkpt lat="-35.029896" lon="-58.206573">
        <time>2021-05-01T17:22:35Z</time>
      </trkpt>
      <trkpt lat="-35.02992" lon="-58.20651">
        <time>2021-05-01T17:22:36Z</time>
      </trkpt>
      <trkpt lat="-35.029945" lon="-58.206444">
        <time>2021-05-01T17:22:37Z</time>
      </trkpt>
      <trkpt lat="-35.02997" lon="-58.20638">
        <time>2021-05-01T17:22:38Z</time>
      </trkpt>
      <trkpt lat="-35.02999" lon="-58.206314">
        <time>2021-05-01T17:22:39Z</time>
      </trkpt>
      <trkpt lat="-35.030018" lon="-58.206253">
        <time>2021-05-01T17:22:40Z</time>
      </trkpt>
      <trkpt lat="-35.03004" lon="-58.20619">
        <time>2021-05-01T17:22:41Z</time>
      </trkpt>
      <trkpt lat="-35.030064" lon="-58.206127">
        <time>2021-05-01T17:22:42Z</time>
      </trkpt>
      <trkpt lat="-35.03009" lon="-58.20606">
        <time>2021-05-01T17:22:43Z</time>
      </trkpt>
      <trkpt lat="-35.030113" lon="-58.205994">
        <time>2021-05-01T17:22:44Z</time>
      </trkpt>
      <trkpt lat="-35.030136" lon="-58.20593">
        <time>2021-05-01T17:22:45Z</time>
      </trkpt>
      <trkpt lat="-35.030163" lon="-58.205864">
        <time>2021-05-01T17:22:46Z</time>
      </trkpt>
      <trkpt lat="-35.03019" lon="-58.2058">
        <time>2021-05-01T17:22:47Z</time>
      </trkpt>
      <trkpt lat="-35.030216" lon="-58.205734">
        <time>2021-05-01T17:22:48Z</time>
      </trkpt>
      <trkpt lat="-35.03024" lon="-58.20567">
        <time>2021-05-01T17:22:49Z</time>
      </trkpt>
      <trkpt lat="-35.030266" lon="-58.205605">
        <time>2021-05-01T17:22:50Z</time>
      </trkpt>
      <trkpt lat="-35.030285" lon="-58.20554">
        <time>2021-05-01T17:22:51Z</time>
      </trkpt>
      <trkpt lat="-35.03031" lon="-58.205475">
        <time>2021-05-01T17:22:52Z</time>
      </trkpt>
      <trkpt lat="-35.03034" lon="-58.205414">
        <time>2021-05-01T17:22:53Z</time>
      </trkpt>
      <trkpt lat="-35.03036" lon="-58.205353">
        <time>2021-05-01T17:22:54Z</time>
      </trkpt>
      <trkpt lat="-35.030388" lon="-58.205288">
        <time>2021-05-01T17:22:55Z</time>
      </trkpt>
      <trkpt lat="-35.03041" lon="-58.205227">
        <time>2021-05-01T17:22:56Z</time>
      </trkpt>
      <trkpt lat="-35.030434" lon="-58.205162">
        <time>2021-05-01T17:22:57Z</time>
      </trkpt>
      <trkpt lat="-35.030457" lon="-58.205097">
        <time>2021-05-01T17:22:58Z</time>
      </trkpt>
      <trkpt lat="-35.030483" lon="-58.205032">
        <time>2021-05-01T17:22:59Z</time>
      </trkpt>
      <trkpt lat="-35.03051" lon="-58.204967">
        <time>2021-05-01T17:23:00Z</time>
      </trkpt>
      <trkpt lat="-35.030537" lon="-58.204903">
        <time>2021-05-01T17:23:01Z</time>
      </trkpt>
      <trkpt lat="-35.030563" lon="-58.204838">
        <time>2021-05-01T17:23:02Z</time>
      </trkpt>
      <trkpt lat="-35.030586" lon="-58.204773">
        <time>2021-05-01T17:23:03Z</time>
      </trkpt>
      <trkpt lat="-35.03061" lon="-58.20471">
        <time>2021-05-01T17:23:04Z</time>
      </trkpt>
      <trkpt lat="-35.030632" lon="-58.204643">
        <time>2021-05-01T17:23:05Z</time>
      </trkpt>
      <trkpt lat="-35.030655" lon="-58.20458">
        <time>2021-05-01T17:23:06Z</time>
      </trkpt>
      <trkpt lat="-35.030678" lon="-58.204514">
        <time>2021-05-01T17:23:07Z</time>
      </trkpt>
      <trkpt lat="-35.030704" lon="-58.204453">
        <time>2021-05-01T17:23:08Z</time>
      </trkpt>
      <trkpt lat="-35.03073" lon="-58.204388">
        <time>2021-05-01T17:23:09Z</time>
      </trkpt>
      <trkpt lat="-35.030754" lon="-58.204323">
        <time>2021-05-01T17:23:10Z</time>
      </trkpt>
      <trkpt lat="-35.03078" lon="-58.204258">
        <time>2021-05-01T17:23:11Z</time>
      </trkpt>
      <trkpt lat="-35.030807" lon="-58.204193">
        <time>2021-05-01T17:23:12Z</time>
      </trkpt>
      <trkpt lat="-35.030834" lon="-58.204124">
        <time>2021-05-01T17:23:13Z</time>
      </trkpt>
      <trkpt lat="-35.030857" lon="-58.20406">
        <time>2021-05-01T17:23:14Z</time>
      </trkpt>
      <trkpt lat="-35.03088" lon="-58.203995">
        <time>2021-05-01T17:23:15Z</time>
      </trkpt>
      <trkpt lat="-35.030903" lon="-58.20393">
        <time>2021-05-01T17:23:16Z</time>
      </trkpt>
      <trkpt lat="-35.030933" lon="-58.203865">
        <time>2021-05-01T17:23:17Z</time>
      </trkpt>
      <trkpt lat="-35.03096" lon="-58.203804">
        <time>2021-05-01T17:23:18Z</time>
      </trkpt>
      <trkpt lat="-35.030983" lon="-58.203735">
        <time>2021-05-01T17:23:19Z</time>
      </trkpt>
      <trkpt lat="-35.03101" lon="-58.20367">
        <time>2021-05-01T17:23:20Z</time>
      </trkpt>
      <trkpt lat="-35.031033" lon="-58.2036">
        <time>2021-05-01T17:23:21Z</time>
      </trkpt>
      <trkpt lat="-35.031055" lon="-58.203533">
        <time>2021-05-01T17:23:22Z</time>
      </trkpt>
      <trkpt lat="-35.03108" lon="-58.20347">
        <time>2021-05-01T17:23:23Z</time>
      </trkpt>
      <trkpt lat="-35.03111" lon="-58.203403">
        <time>2021-05-01T17:23:24Z</time>
      </trkpt>
      <trkpt lat="-35.031136" lon="-58.20334">
        <time>2021-05-01T17:23:25Z</time>
      </trkpt>
      <trkpt lat="-35.03116" lon="-58.203274">
        <time>2021-05-01T17:23:26Z</time>
      </trkpt>
      <trkpt lat="-35.031185" lon="-58.20321">
        <time>2021-05-01T17:23:27Z</time>
      </trkpt>
      <trkpt lat="-35.031204" lon="-58.203144">
        <time>2021-05-01T17:23:28Z</time>
      </trkpt>
      <trkpt lat="-35.03123" lon="-58.203075">
        <time>2021-05-01T17:23:29Z</time>
      </trkpt>
      <trkpt lat="-35.03126" lon="-58.20301">
        <time>2021-05-01T17:23:30Z</time>
      </trkpt>
      <trkpt lat="-35.03129" lon="-58.202946">
        <time>2021-05-01T17:23:31Z</time>
      </trkpt>
      <trkpt lat="-35.03131" lon="-58.202877">
        <time>2021-05-01T17:23:32Z</time>
      </trkpt>
      <trkpt lat="-35.031338" lon="-58.20281">
        <time>2021-05-01T17:23:33Z</time>
      </trkpt>
      <trkpt lat="-35.03136" lon="-58.20274">
        <time>2021-05-01T17:23:34Z</time>
      </trkpt>
      <trkpt lat="-35.031387" lon="-58.20267">
        <time>2021-05-01T17:23:35Z</time>
      </trkpt>
      <trkpt lat="-35.031418" lon="-58.202602">
        <time>2021-05-01T17:23:36Z</time>
      </trkpt>
      <trkpt lat="-35.031445" lon="-58.202534">
        <time>2021-05-01T17:23:37Z</time>
      </trkpt>
      <trkpt lat="-35.03147" lon="-58.20246">
        <time>2021-05-01T17:23:38Z</time>
      </trkpt>
      <trkpt lat="-35.031494" lon="-58.202393">
        <time>2021-05-01T17:23:39Z</time>
      </trkpt>
      <trkpt lat="-35.03152" lon="-58.202324">
        <time>2021-05-01T17:23:40Z</time>
      </trkpt>
      <trkpt lat="-35.031548" lon="-58.202255">
        <time>2021-05-01T17:23:41Z</time>
      </trkpt>
      <trkpt lat="-35.031574" lon="-58.202187">
        <time>2021-05-01T17:23:42Z</time>
      </trkpt>
      <trkpt lat="-35.0316" lon="-58.20212">
        <time>2021-05-01T17:23:43Z</time>
      </trkpt>
      <trkpt lat="-35.031628" lon="-58.202053">
        <time>2021-05-01T17:23:44Z</time>
      </trkpt>
      <trkpt lat="-35.031654" lon="-58.201984">
        <time>2021-05-01T17:23:45Z</time>
      </trkpt>
      <trkpt lat="-35.031677" lon="-58.201916">
        <time>2021-05-01T17:23:46Z</time>
      </trkpt>
      <trkpt lat="-35.031708" lon="-58.201847">
        <time>2021-05-01T17:23:47Z</time>
      </trkpt>
      <trkpt lat="-35.031734" lon="-58.20178">
        <time>2021-05-01T17:23:48Z</time>
      </trkpt>
      <trkpt lat="-35.03176" lon="-58.201714">
        <time>2021-05-01T17:23:49Z</time>
      </trkpt>
      <trkpt lat="-35.031788" lon="-58.201645">
        <time>2021-05-01T17:23:50Z</time>
      </trkpt>
      <trkpt lat="-35.03181" lon="-58.201576">
        <time>2021-05-01T17:23:51Z</time>
      </trkpt>
      <trkpt lat="-35.031834" lon="-58.20151">
        <time>2021-05-01T17:23:52Z</time>
      </trkpt>
      <trkpt lat="-35.03186" lon="-58.20145">
        <time>2021-05-01T17:23:53Z</time>
      </trkpt>
      <trkpt lat="-35.031883" lon="-58.201385">
        <time>2021-05-01T17:23:54Z</time>
      </trkpt>
      <trkpt lat="-35.03191" lon="-58.20132">
        <time>2021-05-01T17:23:55Z</time>
      </trkpt>
      <trkpt lat="-35.031937" lon="-58.201252">
        <time>2021-05-01T17:23:56Z</time>
      </trkpt>
      <trkpt lat="-35.031963" lon="-58.201183">
        <time>2021-05-01T17:23:57Z</time>
      </trkpt>
      <trkpt lat="-35.03199" lon="-58.20111">
        <time>2021-05-01T17:23:58Z</time>
      </trkpt>
      <trkpt lat="-35.032017" lon="-58.201042">
        <time>2021-05-01T17:23:59Z</time>
      </trkpt>
      <trkpt lat="-35.032043" lon="-58.200974">
        <time>2021-05-01T17:24:00Z</time>
      </trkpt>
      <trkpt lat="-35.03207" lon="-58.200905">
        <time>2021-05-01T17:24:01Z</time>
      </trkpt>
      <trkpt lat="-35.032093" lon="-58.200836">
        <time>2021-05-01T17:24:02Z</time>
      </trkpt>
      <trkpt lat="-35.03212" lon="-58.200768">
        <time>2021-05-01T17:24:03Z</time>
      </trkpt>
      <trkpt lat="-35.032146" lon="-58.2007">
        <time>2021-05-01T17:24:04Z</time>
      </trkpt>
      <trkpt lat="-35.032173" lon="-58.200634">
        <time>2021-05-01T17:24:05Z</time>
      </trkpt>
      <trkpt lat="-35.0322" lon="-58.200565">
        <time>2021-05-01T17:24:06Z</time>
      </trkpt>
      <trkpt lat="-35.032227" lon="-58.2005">
        <time>2021-05-01T17:24:07Z</time>
      </trkpt>
      <trkpt lat="-35.032253" lon="-58.20043">
        <time>2021-05-01T17:24:08Z</time>
      </trkpt>
      <trkpt lat="-35.03228" lon="-58.200363">
        <time>2021-05-01T17:24:09Z</time>
      </trkpt>
      <trkpt lat="-35.032307" lon="-58.200294">
        <time>2021-05-01T17:24:10Z</time>
      </trkpt>
      <trkpt lat="-35.032333" lon="-58.200226">
        <time>2021-05-01T17:24:11Z</time>
      </trkpt>
      <trkpt lat="-35.032364" lon="-58.200157">
        <time>2021-05-01T17:24:12Z</time>
      </trkpt>
      <trkpt lat="-35.032387" lon="-58.20009">
        <time>2021-05-01T17:24:13Z</time>
      </trkpt>
      <trkpt lat="-35.032413" lon="-58.20002">
        <time>2021-05-01T17:24:14Z</time>
      </trkpt>
      <trkpt lat="-35.032436" lon="-58.19995">
        <time>2021-05-01T17:24:15Z</time>
      </trkpt>
      <trkpt lat="-35.032463" lon="-58.199883">
        <time>2021-05-01T17:24:16Z</time>
      </trkpt>
      <trkpt lat="-35.032494" lon="-58.199814">
        <time>2021-05-01T17:24:17Z</time>
      </trkpt>
      <trkpt lat="-35.03252" lon="-58.199745">
        <time>2021-05-01T17:24:18Z</time>
      </trkpt>
      <trkpt lat="-35.032547" lon="-58.199673">
        <time>2021-05-01T17:24:19Z</time>
      </trkpt>
      <trkpt lat="-35.032574" lon="-58.199604">
        <time>2021-05-01T17:24:20Z</time>
      </trkpt>
      <trkpt lat="-35.0326" lon="-58.19953">
        <time>2021-05-01T17:24:21Z</time>
      </trkpt>
      <trkpt lat="-35.032627" lon="-58.19946">
        <time>2021-05-01T17:24:22Z</time>
      </trkpt>
      <trkpt lat="-35.032658" lon="-58.19939">
        <time>2021-05-01T17:24:23Z</time>
      </trkpt>
      <trkpt lat="-35.032684" lon="-58.199318">
        <time>2021-05-01T17:24:24Z</time>
      </trkpt>
      <trkpt lat="-35.03272" lon="-58.19924">
        <time>2021-05-01T17:24:25Z</time>
      </trkpt>
      <trkpt lat="-35.032753" lon="-58.199173">
        <time>2021-05-01T17:24:26Z</time>
      </trkpt>
      <trkpt lat="-35.032784" lon="-58.199093">
        <time>2021-05-01T17:24:27Z</time>
      </trkpt>
      <trkpt lat="-35.03281" lon="-58.199013">
        <time>2021-05-01T17:24:28Z</time>
      </trkpt>
      <trkpt lat="-35.03284" lon="-58.198936">
        <time>2021-05-01T17:24:29Z</time>
      </trkpt>
      <trkpt lat="-35.03287" lon="-58.19886">
        <time>2021-05-01T17:24:30Z</time>
      </trkpt>
      <trkpt lat="-35.0329" lon="-58.19878">
        <time>2021-05-01T17:24:31Z</time>
      </trkpt>
      <trkpt lat="-35.032932" lon="-58.198704">
        <time>2021-05-01T17:24:32Z</time>
      </trkpt>
      <trkpt lat="-35.032963" lon="-58.19862">
        <time>2021-05-01T17:24:33Z</time>
      </trkpt>
      <trkpt lat="-35.032993" lon="-58.19854">
        <time>2021-05-01T17:24:34Z</time>
      </trkpt>
      <trkpt lat="-35.033024" lon="-58.19846">
        <time>2021-05-01T17:24:35Z</time>
      </trkpt>
      <trkpt lat="-35.03306" lon="-58.19838">
        <time>2021-05-01T17:24:36Z</time>
      </trkpt>
      <trkpt lat="-35.03309" lon="-58.1983">
        <time>2021-05-01T17:24:37Z</time>
      </trkpt>
      <trkpt lat="-35.03312" lon="-58.19822">
        <time>2021-05-01T17:24:38Z</time>
      </trkpt>
      <trkpt lat="-35.03315" lon="-58.198135">
        <time>2021-05-01T17:24:39Z</time>
      </trkpt>
      <trkpt lat="-35.03318" lon="-58.198055">
        <time>2021-05-01T17:24:40Z</time>
      </trkpt>
      <trkpt lat="-35.033215" lon="-58.197975">
        <time>2021-05-01T17:24:41Z</time>
      </trkpt>
      <trkpt lat="-35.033245" lon="-58.197895">
        <time>2021-05-01T17:24:42Z</time>
      </trkpt>
      <trkpt lat="-35.033276" lon="-58.197815">
        <time>2021-05-01T17:24:43Z</time>
      </trkpt>
      <trkpt lat="-35.033306" lon="-58.19773">
        <time>2021-05-01T17:24:44Z</time>
      </trkpt>
      <trkpt lat="-35.033337" lon="-58.197655">
        <time>2021-05-01T17:24:45Z</time>
      </trkpt>
      <trkpt lat="-35.033367" lon="-58.197575">
        <time>2021-05-01T17:24:46Z</time>
      </trkpt>
      <trkpt lat="-35.033398" lon="-58.197495">
        <time>2021-05-01T17:24:47Z</time>
      </trkpt>
      <trkpt lat="-35.03343" lon="-58.197414">
        <time>2021-05-01T17:24:48Z</time>
      </trkpt>
      <trkpt lat="-35.03346" lon="-58.197334">
        <time>2021-05-01T17:24:49Z</time>
      </trkpt>
      <trkpt lat="-35.03349" lon="-58.197258">
        <time>2021-05-01T17:24:50Z</time>
      </trkpt>
      <trkpt lat="-35.03352" lon="-58.197178">
        <time>2021-05-01T17:24:51Z</time>
      </trkpt>
      <trkpt lat="-35.033554" lon="-58.1971">
        <time>2021-05-01T17:24:52Z</time>
      </trkpt>
      <trkpt lat="-35.033585" lon="-58.197018">
        <time>2021-05-01T17:24:53Z</time>
      </trkpt>
      <trkpt lat="-35.033615" lon="-58.196934">
        <time>2021-05-01T17:24:54Z</time>
      </trkpt>
      <trkpt lat="-35.033646" lon="-58.19685">
        <time>2021-05-01T17:24:55Z</time>
      </trkpt>
      <trkpt lat="-35.03367" lon="-58.196766">
        <time>2021-05-01T17:24:56Z</time>
      </trkpt>
      <trkpt lat="-35.033695" lon="-58.19668">
        <time>2021-05-01T17:24:57Z</time>
      </trkpt>
      <trkpt lat="-35.033733" lon="-58.196594">
        <time>2021-05-01T17:24:58Z</time>
      </trkpt>
      <trkpt lat="-35.033768" lon="-58.19651">
        <time>2021-05-01T17:24:59Z</time>
      </trkpt>
      <trkpt lat="-35.033806" lon="-58.196426">
        <time>2021-05-01T17:25:00Z</time>
      </trkpt>
      <trkpt lat="-35.033844" lon="-58.196342">
        <time>2021-05-01T17:25:01Z</time>
      </trkpt>
      <trkpt lat="-35.033875" lon="-58.196255">
        <time>2021-05-01T17:25:02Z</time>
      </trkpt>
      <trkpt lat="-35.033905" lon="-58.196167">
        <time>2021-05-01T17:25:03Z</time>
      </trkpt>
      <trkpt lat="-35.033936" lon="-58.19608">
        <time>2021-05-01T17:25:04Z</time>
      </trkpt>
      <trkpt lat="-35.033966" lon="-58.19599">
        <time>2021-05-01T17:25:05Z</time>
      </trkpt>
      <trkpt lat="-35.033997" lon="-58.1959">
        <time>2021-05-01T17:25:06Z</time>
      </trkpt>
      <trkpt lat="-35.034027" lon="-58.195816">
        <time>2021-05-01T17:25:07Z</time>
      </trkpt>
      <trkpt lat="-35.03406" lon="-58.195732">
        <time>2021-05-01T17:25:08Z</time>
      </trkpt>
      <trkpt lat="-35.034096" lon="-58.195644">
        <time>2021-05-01T17:25:09Z</time>
      </trkpt>
      <trkpt lat="-35.034126" lon="-58.195557">
        <time>2021-05-01T17:25:10Z</time>
      </trkpt>
      <trkpt lat="-35.03416" lon="-58.195473">
        <time>2021-05-01T17:25:11Z</time>
      </trkpt>
      <trkpt lat="-35.034195" lon="-58.19539">
        <time>2021-05-01T17:25:12Z</time>
      </trkpt>
      <trkpt lat="-35.03423" lon="-58.195305">
        <time>2021-05-01T17:25:13Z</time>
      </trkpt>
      <trkpt lat="-35.03426" lon="-58.19522">
        <time>2021-05-01T17:25:14Z</time>
      </trkpt>
      <trkpt lat="-35.03429" lon="-58.195137">
        <time>2021-05-01T17:25:15Z</time>
      </trkpt>
      <trkpt lat="-35.03432" lon="-58.195053">
        <time>2021-05-01T17:25:16Z</time>
      </trkpt>
      <trkpt lat="-35.034355" lon="-58.19497">
        <time>2021-05-01T17:25:17Z</time>
      </trkpt>
      <trkpt lat="-35.03439" lon="-58.194885">
        <time>2021-05-01T17:25:18Z</time>
      </trkpt>
      <trkpt lat="-35.034416" lon="-58.194798">
        <time>2021-05-01T17:25:19Z</time>
      </trkpt>
      <trkpt lat="-35.034443" lon="-58.19471">
        <time>2021-05-01T17:25:20Z</time>
      </trkpt>
      <trkpt lat="-35.034477" lon="-58.194622">
        <time>2021-05-01T17:25:21Z</time>
      </trkpt>
      <trkpt lat="-35.034515" lon="-58.19454">
        <time>2021-05-01T17:25:22Z</time>
      </trkpt>
      <trkpt lat="-35.034554" lon="-58.19445">
        <time>2021-05-01T17:25:23Z</time>
      </trkpt>
      <trkpt lat="-35.034588" lon="-58.194363">
        <time>2021-05-01T17:25:24Z</time>
      </trkpt>
      <trkpt lat="-35.03462" lon="-58.194275">
        <time>2021-05-01T17:25:25Z</time>
      </trkpt>
      <trkpt lat="-35.034653" lon="-58.19419">
        <time>2021-05-01T17:25:26Z</time>
      </trkpt>
      <trkpt lat="-35.034687" lon="-58.194103">
        <time>2021-05-01T17:25:27Z</time>
      </trkpt>
      <trkpt lat="-35.03472" lon="-58.19402">
        <time>2021-05-01T17:25:28Z</time>
      </trkpt>
      <trkpt lat="-35.03475" lon="-58.193935">
        <time>2021-05-01T17:25:29Z</time>
      </trkpt>
      <trkpt lat="-35.034782" lon="-58.19385">
        <time>2021-05-01T17:25:30Z</time>
      </trkpt>
      <trkpt lat="-35.034817" lon="-58.193768">
        <time>2021-05-01T17:25:31Z</time>
      </trkpt>
      <trkpt lat="-35.03485" lon="-58.193687">
        <time>2021-05-01T17:25:32Z</time>
      </trkpt>
      <trkpt lat="-35.03488" lon="-58.193604">
        <time>2021-05-01T17:25:33Z</time>
      </trkpt>
      <trkpt lat="-35.034912" lon="-58.19352">
        <time>2021-05-01T17:25:34Z</time>
      </trkpt>
      <trkpt lat="-35.034946" lon="-58.19344">
        <time>2021-05-01T17:25:35Z</time>
      </trkpt>
      <trkpt lat="-35.034977" lon="-58.193356">
        <time>2021-05-01T17:25:36Z</time>
      </trkpt>
      <trkpt lat="-35.035007" lon="-58.19327">
        <time>2021-05-01T17:25:37Z</time>
      </trkpt>
      <trkpt lat="-35.035038" lon="-58.193188">
        <time>2021-05-01T17:25:38Z</time>
      </trkpt>
      <trkpt lat="-35.035072" lon="-58.193108">
        <time>2021-05-01T17:25:39Z</time>
      </trkpt>
      <trkpt lat="-35.035103" lon="-58.193027">
        <time>2021-05-01T17:25:40Z</time>
      </trkpt>
      <trkpt lat="-35.035133" lon="-58.192947">
        <time>2021-05-01T17:25:41Z</time>
      </trkpt>
      <trkpt lat="-35.035164" lon="-58.19287">
        <time>2021-05-01T17:25:42Z</time>
      </trkpt>
      <trkpt lat="-35.03519" lon="-58.192795">
        <time>2021-05-01T17:25:43Z</time>
      </trkpt>
      <trkpt lat="-35.03522" lon="-58.192722">
        <time>2021-05-01T17:25:44Z</time>
      </trkpt>
      <trkpt lat="-35.03525" lon="-58.192646">
        <time>2021-05-01T17:25:45Z</time>
      </trkpt>
      <trkpt lat="-35.035282" lon="-58.19257">
        <time>2021-05-01T17:25:46Z</time>
      </trkpt>
      <trkpt lat="-35.035313" lon="-58.192497">
        <time>2021-05-01T17:25:47Z</time>
      </trkpt>
      <trkpt lat="-35.03534" lon="-58.19242">
        <time>2021-05-01T17:25:48Z</time>
      </trkpt>
      <trkpt lat="-35.03537" lon="-58.192345">
        <time>2021-05-01T17:25:49Z</time>
      </trkpt>
      <trkpt lat="-35.035397" lon="-58.192272">
        <time>2021-05-01T17:25:50Z</time>
      </trkpt>
      <trkpt lat="-35.035427" lon="-58.192196">
        <time>2021-05-01T17:25:51Z</time>
      </trkpt>
      <trkpt lat="-35.035458" lon="-58.192123">
        <time>2021-05-01T17:25:52Z</time>
      </trkpt>
      <trkpt lat="-35.035484" lon="-58.192047">
        <time>2021-05-01T17:25:53Z</time>
      </trkpt>
      <trkpt lat="-35.03551" lon="-58.191975">
        <time>2021-05-01T17:25:54Z</time>
      </trkpt>
      <trkpt lat="-35.03554" lon="-58.191902">
        <time>2021-05-01T17:25:55Z</time>
      </trkpt>
      <trkpt lat="-35.035572" lon="-58.191826">
        <time>2021-05-01T17:25:56Z</time>
      </trkpt>
      <trkpt lat="-35.0356" lon="-58.191753">
        <time>2021-05-01T17:25:57Z</time>
      </trkpt>
      <trkpt lat="-35.03563" lon="-58.191677">
        <time>2021-05-01T17:25:58Z</time>
      </trkpt>
      <trkpt lat="-35.035656" lon="-58.191605">
        <time>2021-05-01T17:25:59Z</time>
      </trkpt>
      <trkpt lat="-35.035686" lon="-58.191536">
        <time>2021-05-01T17:26:00Z</time>
      </trkpt>
      <trkpt lat="-35.035717" lon="-58.191463">
        <time>2021-05-01T17:26:01Z</time>
      </trkpt>
      <trkpt lat="-35.035744" lon="-58.191395">
        <time>2021-05-01T17:26:02Z</time>
      </trkpt>
      <trkpt lat="-35.035774" lon="-58.19133">
        <time>2021-05-01T17:26:03Z</time>
      </trkpt>
      <trkpt lat="-35.0358" lon="-58.191257">
        <time>2021-05-01T17:26:04Z</time>
      </trkpt>
      <trkpt lat="-35.035828" lon="-58.191185">
        <time>2021-05-01T17:26:05Z</time>
      </trkpt>
      <trkpt lat="-35.03585" lon="-58.191116">
        <time>2021-05-01T17:26:06Z</time>
      </trkpt>
      <trkpt lat="-35.035877" lon="-58.191044">
        <time>2021-05-01T17:26:07Z</time>
      </trkpt>
      <trkpt lat="-35.035904" lon="-58.190975">
        <time>2021-05-01T17:26:08Z</time>
      </trkpt>
      <trkpt lat="-35.035934" lon="-58.190907">
        <time>2021-05-01T17:26:09Z</time>
      </trkpt>
      <trkpt lat="-35.03596" lon="-58.190838">
        <time>2021-05-01T17:26:10Z</time>
      </trkpt>
      <trkpt lat="-35.03599" lon="-58.190765">
        <time>2021-05-01T17:26:11Z</time>
      </trkpt>
      <trkpt lat="-35.03602" lon="-58.190697">
        <time>2021-05-01T17:26:12Z</time>
      </trkpt>
      <trkpt lat="-35.036045" lon="-58.190624">
        <time>2021-05-01T17:26:13Z</time>
      </trkpt>
      <trkpt lat="-35.03607" lon="-58.190556">
        <time>2021-05-01T17:26:14Z</time>
      </trkpt>
      <trkpt lat="-35.036102" lon="-58.190483">
        <time>2021-05-01T17:26:15Z</time>
      </trkpt>
      <trkpt lat="-35.036125" lon="-58.19041">
        <time>2021-05-01T17:26:16Z</time>
      </trkpt>
      <trkpt lat="-35.03615" lon="-58.190342">
        <time>2021-05-01T17:26:17Z</time>
      </trkpt>
      <trkpt lat="-35.03618" lon="-58.19027">
        <time>2021-05-01T17:26:18Z</time>
      </trkpt>
      <trkpt lat="-35.03621" lon="-58.1902">
        <time>2021-05-01T17:26:19Z</time>
      </trkpt>
      <trkpt lat="-35.036236" lon="-58.190132">
        <time>2021-05-01T17:26:20Z</time>
      </trkpt>
      <trkpt lat="-35.036263" lon="-58.19006">
        <time>2021-05-01T17:26:21Z</time>
      </trkpt>
      <trkpt lat="-35.03629" lon="-58.189987">
        <time>2021-05-01T17:26:22Z</time>
      </trkpt>
      <trkpt lat="-35.036316" lon="-58.18992">
        <time>2021-05-01T17:26:23Z</time>
      </trkpt>
      <trkpt lat="-35.036343" lon="-58.189846">
        <time>2021-05-01T17:26:24Z</time>
      </trkpt>
      <trkpt lat="-35.03637" lon="-58.18978">
        <time>2021-05-01T17:26:25Z</time>
      </trkpt>
      <trkpt lat="-35.036392" lon="-58.189713">
        <time>2021-05-01T17:26:26Z</time>
      </trkpt>
      <trkpt lat="-35.03642" lon="-58.189644">
        <time>2021-05-01T17:26:27Z</time>
      </trkpt>
      <trkpt lat="-35.036446" lon="-58.18958">
        <time>2021-05-01T17:26:28Z</time>
      </trkpt>
      <trkpt lat="-35.036472" lon="-58.18951">
        <time>2021-05-01T17:26:29Z</time>
      </trkpt>
      <trkpt lat="-35.0365" lon="-58.18944">
        <time>2021-05-01T17:26:30Z</time>
      </trkpt>
      <trkpt lat="-35.036526" lon="-58.189373">
        <time>2021-05-01T17:26:31Z</time>
      </trkpt>
      <trkpt lat="-35.036552" lon="-58.189304">
        <time>2021-05-01T17:26:32Z</time>
      </trkpt>
      <trkpt lat="-35.03658" lon="-58.189236">
        <time>2021-05-01T17:26:33Z</time>
      </trkpt>
      <trkpt lat="-35.036602" lon="-58.18917">
        <time>2021-05-01T17:26:34Z</time>
      </trkpt>
      <trkpt lat="-35.03663" lon="-58.189102">
        <time>2021-05-01T17:26:35Z</time>
      </trkpt>
      <trkpt lat="-35.03666" lon="-58.189037">
        <time>2021-05-01T17:26:36Z</time>
      </trkpt>
      <trkpt lat="-35.036682" lon="-58.18897">
        <time>2021-05-01T17:26:37Z</time>
      </trkpt>
      <trkpt lat="-35.03671" lon="-58.188896">
        <time>2021-05-01T17:26:38Z</time>
      </trkpt>
      <trkpt lat="-35.036736" lon="-58.188828">
        <time>2021-05-01T17:26:39Z</time>
      </trkpt>
      <trkpt lat="-35.036762" lon="-58.18876">
        <time>2021-05-01T17:26:40Z</time>
      </trkpt>
      <trkpt lat="-35.03679" lon="-58.18869">
        <time>2021-05-01T17:26:41Z</time>
      </trkpt>
      <trkpt lat="-35.03682" lon="-58.188618">
        <time>2021-05-01T17:26:42Z</time>
      </trkpt>
      <trkpt lat="-35.036846" lon="-58.18855">
        <time>2021-05-01T17:26:43Z</time>
      </trkpt>
      <trkpt lat="-35.036873" lon="-58.188477">
        <time>2021-05-01T17:26:44Z</time>
      </trkpt>
      <trkpt lat="-35.0369" lon="-58.188404">
        <time>2021-05-01T17:26:45Z</time>
      </trkpt>
      <trkpt lat="-35.03693" lon="-58.188335">
        <time>2021-05-01T17:26:46Z</time>
      </trkpt>
      <trkpt lat="-35.036957" lon="-58.188267">
        <time>2021-05-01T17:26:47Z</time>
      </trkpt>
      <trkpt lat="-35.036983" lon="-58.188194">
        <time>2021-05-01T17:26:48Z</time>
      </trkpt>
      <trkpt lat="-35.037014" lon="-58.188126">
        <time>2021-05-01T17:26:49Z</time>
      </trkpt>
      <trkpt lat="-35.03704" lon="-58.188053">
        <time>2021-05-01T17:26:50Z</time>
      </trkpt>
      <trkpt lat="-35.037067" lon="-58.18798">
        <time>2021-05-01T17:26:51Z</time>
      </trkpt>
      <trkpt lat="-35.037094" lon="-58.18791">
        <time>2021-05-01T17:26:52Z</time>
      </trkpt>
      <trkpt lat="-35.037125" lon="-58.187836">
        <time>2021-05-01T17:26:53Z</time>
      </trkpt>
      <trkpt lat="-35.03715" lon="-58.187763">
        <time>2021-05-01T17:26:54Z</time>
      </trkpt>
      <trkpt lat="-35.037178" lon="-58.1877">
        <time>2021-05-01T17:26:55Z</time>
      </trkpt>
      <trkpt lat="-35.037205" lon="-58.187626">
        <time>2021-05-01T17:26:56Z</time>
      </trkpt>
      <trkpt lat="-35.037228" lon="-58.187557">
        <time>2021-05-01T17:26:57Z</time>
      </trkpt>
      <trkpt lat="-35.037254" lon="-58.187485">
        <time>2021-05-01T17:26:58Z</time>
      </trkpt>
      <trkpt lat="-35.03728" lon="-58.187416">
        <time>2021-05-01T17:26:59Z</time>
      </trkpt>
      <trkpt lat="-35.037308" lon="-58.187347">
        <time>2021-05-01T17:27:00Z</time>
      </trkpt>
      <trkpt lat="-35.037334" lon="-58.18728">
        <time>2021-05-01T17:27:01Z</time>
      </trkpt>
      <trkpt lat="-35.03736" lon="-58.187206">
        <time>2021-05-01T17:27:02Z</time>
      </trkpt>
      <trkpt lat="-35.037388" lon="-58.187134">
        <time>2021-05-01T17:27:03Z</time>
      </trkpt>
      <trkpt lat="-35.03741" lon="-58.187057">
        <time>2021-05-01T17:27:04Z</time>
      </trkpt>
      <trkpt lat="-35.037437" lon="-58.18698">
        <time>2021-05-01T17:27:05Z</time>
      </trkpt>
      <trkpt lat="-35.037468" lon="-58.18691">
        <time>2021-05-01T17:27:06Z</time>
      </trkpt>
      <trkpt lat="-35.037502" lon="-58.186832">
        <time>2021-05-01T17:27:07Z</time>
      </trkpt>
      <trkpt lat="-35.037533" lon="-58.18676">
        <time>2021-05-01T17:27:08Z</time>
      </trkpt>
      <trkpt lat="-35.03756" lon="-58.18668">
        <time>2021-05-01T17:27:09Z</time>
      </trkpt>
      <trkpt lat="-35.037582" lon="-58.1866">
        <time>2021-05-01T17:27:10Z</time>
      </trkpt>
      <trkpt lat="-35.03761" lon="-58.186523">
        <time>2021-05-01T17:27:11Z</time>
      </trkpt>
      <trkpt lat="-35.037647" lon="-58.18645">
        <time>2021-05-01T17:27:12Z</time>
      </trkpt>
      <trkpt lat="-35.037674" lon="-58.186375">
        <time>2021-05-01T17:27:13Z</time>
      </trkpt>
      <trkpt lat="-35.037704" lon="-58.186295">
        <time>2021-05-01T17:27:14Z</time>
      </trkpt>
      <trkpt lat="-35.037727" lon="-58.186214">
        <time>2021-05-01T17:27:15Z</time>
      </trkpt>
      <trkpt lat="-35.037758" lon="-58.18614">
        <time>2021-05-01T17:27:16Z</time>
      </trkpt>
      <trkpt lat="-35.037792" lon="-58.186066">
        <time>2021-05-01T17:27:17Z</time>
      </trkpt>
      <trkpt lat="-35.037823" lon="-58.18599">
        <time>2021-05-01T17:27:18Z</time>
      </trkpt>
      <trkpt lat="-35.037853" lon="-58.185913">
        <time>2021-05-01T17:27:19Z</time>
      </trkpt>
      <trkpt lat="-35.037884" lon="-58.185833">
        <time>2021-05-01T17:27:20Z</time>
      </trkpt>
      <trkpt lat="-35.037914" lon="-58.185757">
        <time>2021-05-01T17:27:21Z</time>
      </trkpt>
      <trkpt lat="-35.037945" lon="-58.18568">
        <time>2021-05-01T17:27:22Z</time>
      </trkpt>
      <trkpt lat="-35.03797" lon="-58.185604">
        <time>2021-05-01T17:27:23Z</time>
      </trkpt>
      <trkpt lat="-35.038" lon="-58.185528">
        <time>2021-05-01T17:27:24Z</time>
      </trkpt>
      <trkpt lat="-35.03802" lon="-58.185455">
        <time>2021-05-01T17:27:25Z</time>
      </trkpt>
      <trkpt lat="-35.038048" lon="-58.185383">
        <time>2021-05-01T17:27:26Z</time>
      </trkpt>
      <trkpt lat="-35.03808" lon="-58.185314">
        <time>2021-05-01T17:27:27Z</time>
      </trkpt>
      <trkpt lat="-35.038105" lon="-58.18524">
        <time>2021-05-01T17:27:28Z</time>
      </trkpt>
      <trkpt lat="-35.038136" lon="-58.185173">
        <time>2021-05-01T17:27:29Z</time>
      </trkpt>
      <trkpt lat="-35.038162" lon="-58.1851">
        <time>2021-05-01T17:27:30Z</time>
      </trkpt>
      <trkpt lat="-35.03819" lon="-58.185024">
        <time>2021-05-01T17:27:31Z</time>
      </trkpt>
      <trkpt lat="-35.038216" lon="-58.18495">
        <time>2021-05-01T17:27:32Z</time>
      </trkpt>
      <trkpt lat="-35.03825" lon="-58.184883">
        <time>2021-05-01T17:27:33Z</time>
      </trkpt>
      <trkpt lat="-35.038277" lon="-58.18481">
        <time>2021-05-01T17:27:34Z</time>
      </trkpt>
      <trkpt lat="-35.038303" lon="-58.18474">
        <time>2021-05-01T17:27:35Z</time>
      </trkpt>
      <trkpt lat="-35.03833" lon="-58.18466">
        <time>2021-05-01T17:27:36Z</time>
      </trkpt>
      <trkpt lat="-35.038357" lon="-58.184586">
        <time>2021-05-01T17:27:37Z</time>
      </trkpt>
      <trkpt lat="-35.038387" lon="-58.184517">
        <time>2021-05-01T17:27:38Z</time>
      </trkpt>
      <trkpt lat="-35.038418" lon="-58.184444">
        <time>2021-05-01T17:27:39Z</time>
      </trkpt>
      <trkpt lat="-35.03845" lon="-58.184376">
        <time>2021-05-01T17:27:40Z</time>
      </trkpt>
      <trkpt lat="-35.038475" lon="-58.184303">
        <time>2021-05-01T17:27:41Z</time>
      </trkpt>
      <trkpt lat="-35.038506" lon="-58.18424">
        <time>2021-05-01T17:27:42Z</time>
      </trkpt>
      <trkpt lat="-35.038532" lon="-58.184174">
        <time>2021-05-01T17:27:43Z</time>
      </trkpt>
      <trkpt lat="-35.03856" lon="-58.1841">
        <time>2021-05-01T17:27:44Z</time>
      </trkpt>
      <trkpt lat="-35.03858" lon="-58.184032">
        <time>2021-05-01T17:27:45Z</time>
      </trkpt>
      <trkpt lat="-35.038605" lon="-58.18396">
        <time>2021-05-01T17:27:46Z</time>
      </trkpt>
      <trkpt lat="-35.03863" lon="-58.18389">
        <time>2021-05-01T17:27:47Z</time>
      </trkpt>
      <trkpt lat="-35.038654" lon="-58.18382">
        <time>2021-05-01T17:27:48Z</time>
      </trkpt>
      <trkpt lat="-35.03868" lon="-58.18375">
        <time>2021-05-01T17:27:49Z</time>
      </trkpt>
      <trkpt lat="-35.03871" lon="-58.18368">
        <time>2021-05-01T17:27:50Z</time>
      </trkpt>
      <trkpt lat="-35.03874" lon="-58.183613">
        <time>2021-05-01T17:27:51Z</time>
      </trkpt>
      <trkpt lat="-35.038765" lon="-58.183544">
        <time>2021-05-01T17:27:52Z</time>
      </trkpt>
      <trkpt lat="-35.03879" lon="-58.18347">
        <time>2021-05-01T17:27:53Z</time>
      </trkpt>
      <trkpt lat="-35.03881" lon="-58.183403">
        <time>2021-05-01T17:27:54Z</time>
      </trkpt>
      <trkpt lat="-35.03884" lon="-58.183334">
        <time>2021-05-01T17:27:55Z</time>
      </trkpt>
      <trkpt lat="-35.03887" lon="-58.18327">
        <time>2021-05-01T17:27:56Z</time>
      </trkpt>
      <trkpt lat="-35.038895" lon="-58.1832">
        <time>2021-05-01T17:27:57Z</time>
      </trkpt>
      <trkpt lat="-35.038925" lon="-58.18313">
        <time>2021-05-01T17:27:58Z</time>
      </trkpt>
      <trkpt lat="-35.038948" lon="-58.183056">
        <time>2021-05-01T17:27:59Z</time>
      </trkpt>
      <trkpt lat="-35.03897" lon="-58.182983">
        <time>2021-05-01T17:28:00Z</time>
      </trkpt>
      <trkpt lat="-35.039" lon="-58.182915">
        <time>2021-05-01T17:28:01Z</time>
      </trkpt>
      <trkpt lat="-35.039032" lon="-58.182846">
        <time>2021-05-01T17:28:02Z</time>
      </trkpt>
      <trkpt lat="-35.03906" lon="-58.182777">
        <time>2021-05-01T17:28:03Z</time>
      </trkpt>
      <trkpt lat="-35.039085" lon="-58.182705">
        <time>2021-05-01T17:28:04Z</time>
      </trkpt>
      <trkpt lat="-35.03911" lon="-58.182632">
        <time>2021-05-01T17:28:05Z</time>
      </trkpt>
      <trkpt lat="-35.03913" lon="-58.18256">
        <time>2021-05-01T17:28:06Z</time>
      </trkpt>
      <trkpt lat="-35.03916" lon="-58.18249">
        <time>2021-05-01T17:28:07Z</time>
      </trkpt>
      <trkpt lat="-35.039192" lon="-58.182423">
        <time>2021-05-01T17:28:08Z</time>
      </trkpt>
      <trkpt lat="-35.03922" lon="-58.18235">
        <time>2021-05-01T17:28:09Z</time>
      </trkpt>
      <trkpt lat="-35.039246" lon="-58.18228">
        <time>2021-05-01T17:28:10Z</time>
      </trkpt>
      <trkpt lat="-35.03927" lon="-58.182205">
        <time>2021-05-01T17:28:11Z</time>
      </trkpt>
      <trkpt lat="-35.0393" lon="-58.18214">
        <time>2021-05-01T17:28:12Z</time>
      </trkpt>
      <trkpt lat="-35.039333" lon="-58.182076">
        <time>2021-05-01T17:28:13Z</time>
      </trkpt>
      <trkpt lat="-35.039356" lon="-58.182007">
        <time>2021-05-01T17:28:14Z</time>
      </trkpt>
      <trkpt lat="-35.039383" lon="-58.181942">
        <time>2021-05-01T17:28:15Z</time>
      </trkpt>
      <trkpt lat="-35.03941" lon="-58.18188">
        <time>2021-05-01T17:28:16Z</time>
      </trkpt>
      <trkpt lat="-35.039436" lon="-58.18182">
        <time>2021-05-01T17:28:17Z</time>
      </trkpt>
      <trkpt lat="-35.03946" lon="-58.18176">
        <time>2021-05-01T17:28:18Z</time>
      </trkpt>
      <trkpt lat="-35.03948" lon="-58.181694">
        <time>2021-05-01T17:28:19Z</time>
      </trkpt>
      <trkpt lat="-35.0395" lon="-58.181633">
        <time>2021-05-01T17:28:20Z</time>
      </trkpt>
      <trkpt lat="-35.039528" lon="-58.18157">
        <time>2021-05-01T17:28:21Z</time>
      </trkpt>
      <trkpt lat="-35.039555" lon="-58.1815">
        <time>2021-05-01T17:28:22Z</time>
      </trkpt>
      <trkpt lat="-35.03958" lon="-58.181435">
        <time>2021-05-01T17:28:23Z</time>
      </trkpt>
      <trkpt lat="-35.039608" lon="-58.181366">
        <time>2021-05-01T17:28:24Z</time>
      </trkpt>
      <trkpt lat="-35.03963" lon="-58.181297">
        <time>2021-05-01T17:28:25Z</time>
      </trkpt>
      <trkpt lat="-35.039658" lon="-58.18123">
        <time>2021-05-01T17:28:26Z</time>
      </trkpt>
      <trkpt lat="-35.039684" lon="-58.181156">
        <time>2021-05-01T17:28:27Z</time>
      </trkpt>
      <trkpt lat="-35.03971" lon="-58.181087">
        <time>2021-05-01T17:28:28Z</time>
      </trkpt>
      <trkpt lat="-35.03974" lon="-58.18102">
        <time>2021-05-01T17:28:29Z</time>
      </trkpt>
      <trkpt lat="-35.03977" lon="-58.180946">
        <time>2021-05-01T17:28:30Z</time>
      </trkpt>
      <trkpt lat="-35.0398" lon="-58.180874">
        <time>2021-05-01T17:28:31Z</time>
      </trkpt>
      <trkpt lat="-35.039825" lon="-58.180798">
        <time>2021-05-01T17:28:32Z</time>
      </trkpt>
      <trkpt lat="-35.039856" lon="-58.180725">
        <time>2021-05-01T17:28:33Z</time>
      </trkpt>
      <trkpt lat="-35.039886" lon="-58.18065">
        <time>2021-05-01T17:28:34Z</time>
      </trkpt>
      <trkpt lat="-35.039917" lon="-58.180573">
        <time>2021-05-01T17:28:35Z</time>
      </trkpt>
      <trkpt lat="-35.039944" lon="-58.180496">
        <time>2021-05-01T17:28:36Z</time>
      </trkpt>
      <trkpt lat="-35.03997" lon="-58.18042">
        <time>2021-05-01T17:28:37Z</time>
      </trkpt>
      <trkpt lat="-35.04" lon="-58.180344">
        <time>2021-05-01T17:28:38Z</time>
      </trkpt>
      <trkpt lat="-35.04003" lon="-58.180267">
        <time>2021-05-01T17:28:39Z</time>
      </trkpt>
      <trkpt lat="-35.040062" lon="-58.180195">
        <time>2021-05-01T17:28:40Z</time>
      </trkpt>
      <trkpt lat="-35.04009" lon="-58.180115">
        <time>2021-05-01T17:28:41Z</time>
      </trkpt>
      <trkpt lat="-35.04012" lon="-58.18004">
        <time>2021-05-01T17:28:42Z</time>
      </trkpt>
      <trkpt lat="-35.040146" lon="-58.179962">
        <time>2021-05-01T17:28:43Z</time>
      </trkpt>
      <trkpt lat="-35.040176" lon="-58.17989">
        <time>2021-05-01T17:28:44Z</time>
      </trkpt>
      <trkpt lat="-35.040207" lon="-58.17981">
        <time>2021-05-01T17:28:45Z</time>
      </trkpt>
      <trkpt lat="-35.040234" lon="-58.179733">
        <time>2021-05-01T17:28:46Z</time>
      </trkpt>
      <trkpt lat="-35.040264" lon="-58.179653">
        <time>2021-05-01T17:28:47Z</time>
      </trkpt>
      <trkpt lat="-35.04029" lon="-58.179577">
        <time>2021-05-01T17:28:48Z</time>
      </trkpt>
      <trkpt lat="-35.040318" lon="-58.179497">
        <time>2021-05-01T17:28:49Z</time>
      </trkpt>
      <trkpt lat="-35.04034" lon="-58.179417">
        <time>2021-05-01T17:28:50Z</time>
      </trkpt>
      <trkpt lat="-35.04037" lon="-58.179337">
        <time>2021-05-01T17:28:51Z</time>
      </trkpt>
      <trkpt lat="-35.040405" lon="-58.17926">
        <time>2021-05-01T17:28:52Z</time>
      </trkpt>
      <trkpt lat="-35.040436" lon="-58.179184">
        <time>2021-05-01T17:28:53Z</time>
      </trkpt>
      <trkpt lat="-35.040466" lon="-58.179108">
        <time>2021-05-01T17:28:54Z</time>
      </trkpt>
      <trkpt lat="-35.040493" lon="-58.179028">
        <time>2021-05-01T17:28:55Z</time>
      </trkpt>
      <trkpt lat="-35.040524" lon="-58.178947">
        <time>2021-05-01T17:28:56Z</time>
      </trkpt>
      <trkpt lat="-35.040558" lon="-58.17887">
        <time>2021-05-01T17:28:57Z</time>
      </trkpt>
      <trkpt lat="-35.04059" lon="-58.178795">
        <time>2021-05-01T17:28:58Z</time>
      </trkpt>
      <trkpt lat="-35.04062" lon="-58.178715">
        <time>2021-05-01T17:28:59Z</time>
      </trkpt>
      <trkpt lat="-35.04064" lon="-58.178635">
        <time>2021-05-01T17:29:00Z</time>
      </trkpt>
      <trkpt lat="-35.040672" lon="-58.17856">
        <time>2021-05-01T17:29:01Z</time>
      </trkpt>
      <trkpt lat="-35.040703" lon="-58.178482">
        <time>2021-05-01T17:29:02Z</time>
      </trkpt>
      <trkpt lat="-35.040733" lon="-58.178406">
        <time>2021-05-01T17:29:03Z</time>
      </trkpt>
      <trkpt lat="-35.040764" lon="-58.178326">
        <time>2021-05-01T17:29:04Z</time>
      </trkpt>
      <trkpt lat="-35.040794" lon="-58.17825">
        <time>2021-05-01T17:29:05Z</time>
      </trkpt>
      <trkpt lat="-35.04082" lon="-58.17817">
        <time>2021-05-01T17:29:06Z</time>
      </trkpt>
      <trkpt lat="-35.040855" lon="-58.178093">
        <time>2021-05-01T17:29:07Z</time>
      </trkpt>
      <trkpt lat="-35.040886" lon="-58.178017">
        <time>2021-05-01T17:29:08Z</time>
      </trkpt>
      <trkpt lat="-35.040916" lon="-58.177937">
        <time>2021-05-01T17:29:09Z</time>
      </trkpt>
      <trkpt lat="-35.040943" lon="-58.177853">
        <time>2021-05-01T17:29:10Z</time>
      </trkpt>
      <trkpt lat="-35.040974" lon="-58.177773">
        <time>2021-05-01T17:29:11Z</time>
      </trkpt>
      <trkpt lat="-35.041008" lon="-58.177692">
        <time>2021-05-01T17:29:12Z</time>
      </trkpt>
      <trkpt lat="-35.04104" lon="-58.177612">
        <time>2021-05-01T17:29:13Z</time>
      </trkpt>
      <trkpt lat="-35.04107" lon="-58.177532">
        <time>2021-05-01T17:29:14Z</time>
      </trkpt>
      <trkpt lat="-35.0411" lon="-58.17745">
        <time>2021-05-01T17:29:15Z</time>
      </trkpt>
      <trkpt lat="-35.04113" lon="-58.177364">
        <time>2021-05-01T17:29:16Z</time>
      </trkpt>
      <trkpt lat="-35.04116" lon="-58.177288">
        <time>2021-05-01T17:29:17Z</time>
      </trkpt>
      <trkpt lat="-35.041195" lon="-58.177204">
        <time>2021-05-01T17:29:18Z</time>
      </trkpt>
      <trkpt lat="-35.041225" lon="-58.17712">
        <time>2021-05-01T17:29:19Z</time>
      </trkpt>
      <trkpt lat="-35.041252" lon="-58.177036">
        <time>2021-05-01T17:29:20Z</time>
      </trkpt>
      <trkpt lat="-35.041286" lon="-58.176956">
        <time>2021-05-01T17:29:21Z</time>
      </trkpt>
      <trkpt lat="-35.04132" lon="-58.176872">
        <time>2021-05-01T17:29:22Z</time>
      </trkpt>
      <trkpt lat="-35.041348" lon="-58.176792">
        <time>2021-05-01T17:29:23Z</time>
      </trkpt>
      <trkpt lat="-35.041378" lon="-58.17671">
        <time>2021-05-01T17:29:24Z</time>
      </trkpt>
      <trkpt lat="-35.04141" lon="-58.176624">
        <time>2021-05-01T17:29:25Z</time>
      </trkpt>
      <trkpt lat="-35.041443" lon="-58.176544">
        <time>2021-05-01T17:29:26Z</time>
      </trkpt>
      <trkpt lat="-35.041477" lon="-58.17646">
        <time>2021-05-01T17:29:27Z</time>
      </trkpt>
      <trkpt lat="-35.04151" lon="-58.17638">
        <time>2021-05-01T17:29:28Z</time>
      </trkpt>
      <trkpt lat="-35.04154" lon="-58.176296">
        <time>2021-05-01T17:29:29Z</time>
      </trkpt>
      <trkpt lat="-35.04157" lon="-58.176212">
        <time>2021-05-01T17:29:30Z</time>
      </trkpt>
      <trkpt lat="-35.0416" lon="-58.176132">
        <time>2021-05-01T17:29:31Z</time>
      </trkpt>
      <trkpt lat="-35.041634" lon="-58.176052">
        <time>2021-05-01T17:29:32Z</time>
      </trkpt>
      <trkpt lat="-35.041664" lon="-58.17597">
        <time>2021-05-01T17:29:33Z</time>
      </trkpt>
      <trkpt lat="-35.041695" lon="-58.175888">
        <time>2021-05-01T17:29:34Z</time>
      </trkpt>
      <trkpt lat="-35.041725" lon="-58.175804">
        <time>2021-05-01T17:29:35Z</time>
      </trkpt>
      <trkpt lat="-35.041756" lon="-58.175724">
        <time>2021-05-01T17:29:36Z</time>
      </trkpt>
      <trkpt lat="-35.041786" lon="-58.175644">
        <time>2021-05-01T17:29:37Z</time>
      </trkpt>
      <trkpt lat="-35.04182" lon="-58.175564">
        <time>2021-05-01T17:29:38Z</time>
      </trkpt>
      <trkpt lat="-35.04185" lon="-58.17548">
        <time>2021-05-01T17:29:39Z</time>
      </trkpt>
      <trkpt lat="-35.04188" lon="-58.175396">
        <time>2021-05-01T17:29:40Z</time>
      </trkpt>
      <trkpt lat="-35.041916" lon="-58.175316">
        <time>2021-05-01T17:29:41Z</time>
      </trkpt>
      <trkpt lat="-35.04195" lon="-58.17524">
        <time>2021-05-01T17:29:42Z</time>
      </trkpt>
      <trkpt lat="-35.04207" lon="-58.174934">
        <time>2021-05-01T17:29:46Z</time>
      </trkpt>
      <trkpt lat="-35.042103" lon="-58.174862">
        <time>2021-05-01T17:29:47Z</time>
      </trkpt>
      <trkpt lat="-35.042137" lon="-58.174793">
        <time>2021-05-01T17:29:48Z</time>
      </trkpt>
      <trkpt lat="-35.04217" lon="-58.17472">
        <time>2021-05-01T17:29:49Z</time>
      </trkpt>
      <trkpt lat="-35.042206" lon="-58.174644">
        <time>2021-05-01T17:29:50Z</time>
      </trkpt>
      <trkpt lat="-35.042236" lon="-58.17457">
        <time>2021-05-01T17:29:51Z</time>
      </trkpt>
      <trkpt lat="-35.042267" lon="-58.17449">
        <time>2021-05-01T17:29:52Z</time>
      </trkpt>
      <trkpt lat="-35.042297" lon="-58.174416">
        <time>2021-05-01T17:29:53Z</time>
      </trkpt>
      <trkpt lat="-35.042328" lon="-58.174335">
        <time>2021-05-01T17:29:54Z</time>
      </trkpt>
      <trkpt lat="-35.04236" lon="-58.17426">
        <time>2021-05-01T17:29:55Z</time>
      </trkpt>
      <trkpt lat="-35.04239" lon="-58.174183">
        <time>2021-05-01T17:29:56Z</time>
      </trkpt>
      <trkpt lat="-35.04242" lon="-58.174107">
        <time>2021-05-01T17:29:57Z</time>
      </trkpt>
      <trkpt lat="-35.04245" lon="-58.17403">
        <time>2021-05-01T17:29:58Z</time>
      </trkpt>
      <trkpt lat="-35.04248" lon="-58.173954">
        <time>2021-05-01T17:29:59Z</time>
      </trkpt>
      <trkpt lat="-35.04251" lon="-58.173878">
        <time>2021-05-01T17:30:00Z</time>
      </trkpt>
      <trkpt lat="-35.04254" lon="-58.173805">
        <time>2021-05-01T17:30:01Z</time>
      </trkpt>
      <trkpt lat="-35.042572" lon="-58.17373">
        <time>2021-05-01T17:30:02Z</time>
      </trkpt>
      <trkpt lat="-35.042603" lon="-58.173656">
        <time>2021-05-01T17:30:03Z</time>
      </trkpt>
      <trkpt lat="-35.042633" lon="-58.17358">
        <time>2021-05-01T17:30:04Z</time>
      </trkpt>
      <trkpt lat="-35.04266" lon="-58.1735">
        <time>2021-05-01T17:30:05Z</time>
      </trkpt>
      <trkpt lat="-35.042686" lon="-58.173424">
        <time>2021-05-01T17:30:06Z</time>
      </trkpt>
      <trkpt lat="-35.042717" lon="-58.17335">
        <time>2021-05-01T17:30:07Z</time>
      </trkpt>
      <trkpt lat="-35.042747" lon="-58.17328">
        <time>2021-05-01T17:30:08Z</time>
      </trkpt>
      <trkpt lat="-35.042778" lon="-58.17321">
        <time>2021-05-01T17:30:09Z</time>
      </trkpt>
      <trkpt lat="-35.042805" lon="-58.173138">
        <time>2021-05-01T17:30:10Z</time>
      </trkpt>
      <trkpt lat="-35.042828" lon="-58.17307">
        <time>2021-05-01T17:30:11Z</time>
      </trkpt>
      <trkpt lat="-35.04285" lon="-58.172997">
        <time>2021-05-01T17:30:12Z</time>
      </trkpt>
      <trkpt lat="-35.04288" lon="-58.172928">
        <time>2021-05-01T17:30:13Z</time>
      </trkpt>
      <trkpt lat="-35.042908" lon="-58.172855">
        <time>2021-05-01T17:30:14Z</time>
      </trkpt>
      <trkpt lat="-35.042934" lon="-58.172783">
        <time>2021-05-01T17:30:15Z</time>
      </trkpt>
      <trkpt lat="-35.042957" lon="-58.172707">
        <time>2021-05-01T17:30:16Z</time>
      </trkpt>
      <trkpt lat="-35.042984" lon="-58.172634">
        <time>2021-05-01T17:30:17Z</time>
      </trkpt>
      <trkpt lat="-35.04301" lon="-58.172558">
        <time>2021-05-01T17:30:18Z</time>
      </trkpt>
      <trkpt lat="-35.043037" lon="-58.172485">
        <time>2021-05-01T17:30:19Z</time>
      </trkpt>
      <trkpt lat="-35.04306" lon="-58.172405">
        <time>2021-05-01T17:30:20Z</time>
      </trkpt>
      <trkpt lat="-35.043083" lon="-58.17233">
        <time>2021-05-01T17:30:21Z</time>
      </trkpt>
      <trkpt lat="-35.043102" lon="-58.172253">
        <time>2021-05-01T17:30:22Z</time>
      </trkpt>
      <trkpt lat="-35.04313" lon="-58.172173">
        <time>2021-05-01T17:30:23Z</time>
      </trkpt>
      <trkpt lat="-35.04315" lon="-58.172096">
        <time>2021-05-01T17:30:24Z</time>
      </trkpt>
      <trkpt lat="-35.043175" lon="-58.17202">
        <time>2021-05-01T17:30:25Z</time>
      </trkpt>
      <trkpt lat="-35.043194" lon="-58.17194">
        <time>2021-05-01T17:30:26Z</time>
      </trkpt>
      <trkpt lat="-35.043213" lon="-58.171864">
        <time>2021-05-01T17:30:27Z</time>
      </trkpt>
      <trkpt lat="-35.043236" lon="-58.171783">
        <time>2021-05-01T17:30:28Z</time>
      </trkpt>
      <trkpt lat="-35.04326" lon="-58.171707">
        <time>2021-05-01T17:30:29Z</time>
      </trkpt>
      <trkpt lat="-35.043278" lon="-58.171627">
        <time>2021-05-01T17:30:30Z</time>
      </trkpt>
      <trkpt lat="-35.043297" lon="-58.171547">
        <time>2021-05-01T17:30:31Z</time>
      </trkpt>
      <trkpt lat="-35.043316" lon="-58.171467">
        <time>2021-05-01T17:30:32Z</time>
      </trkpt>
      <trkpt lat="-35.04333" lon="-58.171383">
        <time>2021-05-01T17:30:33Z</time>
      </trkpt>
      <trkpt lat="-35.04335" lon="-58.171303">
        <time>2021-05-01T17:30:34Z</time>
      </trkpt>
      <trkpt lat="-35.04337" lon="-58.171223">
        <time>2021-05-01T17:30:35Z</time>
      </trkpt>
      <trkpt lat="-35.043385" lon="-58.171143">
        <time>2021-05-01T17:30:36Z</time>
      </trkpt>
      <trkpt lat="-35.043404" lon="-58.171062">
        <time>2021-05-01T17:30:37Z</time>
      </trkpt>
      <trkpt lat="-35.043423" lon="-58.170982">
        <time>2021-05-01T17:30:38Z</time>
      </trkpt>
      <trkpt lat="-35.043438" lon="-58.170902">
        <time>2021-05-01T17:30:39Z</time>
      </trkpt>
      <trkpt lat="-35.043453" lon="-58.170822">
        <time>2021-05-01T17:30:40Z</time>
      </trkpt>
      <trkpt lat="-35.043465" lon="-58.170746">
        <time>2021-05-01T17:30:41Z</time>
      </trkpt>
      <trkpt lat="-35.04348" lon="-58.17067">
        <time>2021-05-01T17:30:42Z</time>
      </trkpt>
      <trkpt lat="-35.043484" lon="-58.170593">
        <time>2021-05-01T17:30:43Z</time>
      </trkpt>
      <trkpt lat="-35.0435" lon="-58.17052">
        <time>2021-05-01T17:30:44Z</time>
      </trkpt>
      <trkpt lat="-35.04351" lon="-58.17045">
        <time>2021-05-01T17:30:45Z</time>
      </trkpt>
      <trkpt lat="-35.04352" lon="-58.17038">
        <time>2021-05-01T17:30:46Z</time>
      </trkpt>
      <trkpt lat="-35.043533" lon="-58.170307">
        <time>2021-05-01T17:30:47Z</time>
      </trkpt>
      <trkpt lat="-35.043537" lon="-58.17023">
        <time>2021-05-01T17:30:48Z</time>
      </trkpt>
      <trkpt lat="-35.043552" lon="-58.170155">
        <time>2021-05-01T17:30:49Z</time>
      </trkpt>
      <trkpt lat="-35.043564" lon="-58.17008">
        <time>2021-05-01T17:30:50Z</time>
      </trkpt>
      <trkpt lat="-35.043575" lon="-58.17">
        <time>2021-05-01T17:30:51Z</time>
      </trkpt>
      <trkpt lat="-35.043583" lon="-58.169926">
        <time>2021-05-01T17:30:52Z</time>
      </trkpt>
      <trkpt lat="-35.043594" lon="-58.169846">
        <time>2021-05-01T17:30:53Z</time>
      </trkpt>
      <trkpt lat="-35.043602" lon="-58.16977">
        <time>2021-05-01T17:30:54Z</time>
      </trkpt>
      <trkpt lat="-35.04361" lon="-58.169693">
        <time>2021-05-01T17:30:55Z</time>
      </trkpt>
      <trkpt lat="-35.043617" lon="-58.169617">
        <time>2021-05-01T17:30:56Z</time>
      </trkpt>
      <trkpt lat="-35.043633" lon="-58.169544">
        <time>2021-05-01T17:30:57Z</time>
      </trkpt>
      <trkpt lat="-35.04364" lon="-58.169468">
        <time>2021-05-01T17:30:58Z</time>
      </trkpt>
      <trkpt lat="-35.043648" lon="-58.169388">
        <time>2021-05-01T17:30:59Z</time>
      </trkpt>
      <trkpt lat="-35.043655" lon="-58.169315">
        <time>2021-05-01T17:31:00Z</time>
      </trkpt>
      <trkpt lat="-35.043667" lon="-58.169247">
        <time>2021-05-01T17:31:01Z</time>
      </trkpt>
      <trkpt lat="-35.043682" lon="-58.169174">
        <time>2021-05-01T17:31:02Z</time>
      </trkpt>
      <trkpt lat="-35.043694" lon="-58.169098">
        <time>2021-05-01T17:31:03Z</time>
      </trkpt>
      <trkpt lat="-35.043705" lon="-58.16902">
        <time>2021-05-01T17:31:04Z</time>
      </trkpt>
      <trkpt lat="-35.043713" lon="-58.168945">
        <time>2021-05-01T17:31:05Z</time>
      </trkpt>
      <trkpt lat="-35.043713" lon="-58.16887">
        <time>2021-05-01T17:31:06Z</time>
      </trkpt>
      <trkpt lat="-35.043716" lon="-58.168793">
        <time>2021-05-01T17:31:07Z</time>
      </trkpt>
      <trkpt lat="-35.043728" lon="-58.168716">
        <time>2021-05-01T17:31:08Z</time>
      </trkpt>
      <trkpt lat="-35.04374" lon="-58.16864">
        <time>2021-05-01T17:31:09Z</time>
      </trkpt>
      <trkpt lat="-35.04375" lon="-58.168564">
        <time>2021-05-01T17:31:10Z</time>
      </trkpt>
      <trkpt lat="-35.04376" lon="-58.168488">
        <time>2021-05-01T17:31:11Z</time>
      </trkpt>
      <trkpt lat="-35.04377" lon="-58.16841">
        <time>2021-05-01T17:31:12Z</time>
      </trkpt>
      <trkpt lat="-35.04378" lon="-58.16833">
        <time>2021-05-01T17:31:13Z</time>
      </trkpt>
      <trkpt lat="-35.043793" lon="-58.16826">
        <time>2021-05-01T17:31:14Z</time>
      </trkpt>
      <trkpt lat="-35.0438" lon="-58.16818">
        <time>2021-05-01T17:31:15Z</time>
      </trkpt>
      <trkpt lat="-35.043808" lon="-58.168106">
        <time>2021-05-01T17:31:16Z</time>
      </trkpt>
      <trkpt lat="-35.043816" lon="-58.16803">
        <time>2021-05-01T17:31:17Z</time>
      </trkpt>
      <trkpt lat="-35.043823" lon="-58.167957">
        <time>2021-05-01T17:31:18Z</time>
      </trkpt>
      <trkpt lat="-35.043835" lon="-58.16788">
        <time>2021-05-01T17:31:19Z</time>
      </trkpt>
      <trkpt lat="-35.043846" lon="-58.167805">
        <time>2021-05-01T17:31:20Z</time>
      </trkpt>
      <trkpt lat="-35.043854" lon="-58.167732">
        <time>2021-05-01T17:31:21Z</time>
      </trkpt>
      <trkpt lat="-35.043865" lon="-58.16766">
        <time>2021-05-01T17:31:22Z</time>
      </trkpt>
      <trkpt lat="-35.04387" lon="-58.167587">
        <time>2021-05-01T17:31:23Z</time>
      </trkpt>
      <trkpt lat="-35.04388" lon="-58.16752">
        <time>2021-05-01T17:31:24Z</time>
      </trkpt>
      <trkpt lat="-35.04389" lon="-58.167446">
        <time>2021-05-01T17:31:25Z</time>
      </trkpt>
      <trkpt lat="-35.043903" lon="-58.167374">
        <time>2021-05-01T17:31:26Z</time>
      </trkpt>
      <trkpt lat="-35.043915" lon="-58.1673">
        <time>2021-05-01T17:31:27Z</time>
      </trkpt>
      <trkpt lat="-35.043926" lon="-58.16723">
        <time>2021-05-01T17:31:28Z</time>
      </trkpt>
      <trkpt lat="-35.043934" lon="-58.167152">
        <time>2021-05-01T17:31:29Z</time>
      </trkpt>
      <trkpt lat="-35.04394" lon="-58.16708">
        <time>2021-05-01T17:31:30Z</time>
      </trkpt>
      <trkpt lat="-35.043953" lon="-58.167007">
        <time>2021-05-01T17:31:31Z</time>
      </trkpt>
      <trkpt lat="-35.043964" lon="-58.16693">
        <time>2021-05-01T17:31:32Z</time>
      </trkpt>
      <trkpt lat="-35.043972" lon="-58.16686">
        <time>2021-05-01T17:31:33Z</time>
      </trkpt>
      <trkpt lat="-35.043983" lon="-58.166786">
        <time>2021-05-01T17:31:34Z</time>
      </trkpt>
      <trkpt lat="-35.04399" lon="-58.166718">
        <time>2021-05-01T17:31:35Z</time>
      </trkpt>
      <trkpt lat="-35.044" lon="-58.16665">
        <time>2021-05-01T17:31:36Z</time>
      </trkpt>
      <trkpt lat="-35.04401" lon="-58.166576">
        <time>2021-05-01T17:31:37Z</time>
      </trkpt>
      <trkpt lat="-35.04402" lon="-58.166504">
        <time>2021-05-01T17:31:38Z</time>
      </trkpt>
      <trkpt lat="-35.04403" lon="-58.16643">
        <time>2021-05-01T17:31:39Z</time>
      </trkpt>
      <trkpt lat="-35.044033" lon="-58.166355">
        <time>2021-05-01T17:31:40Z</time>
      </trkpt>
      <trkpt lat="-35.044044" lon="-58.166283">
        <time>2021-05-01T17:31:41Z</time>
      </trkpt>
      <trkpt lat="-35.044056" lon="-58.166206">
        <time>2021-05-01T17:31:42Z</time>
      </trkpt>
      <trkpt lat="-35.044064" lon="-58.166134">
        <time>2021-05-01T17:31:43Z</time>
      </trkpt>
      <trkpt lat="-35.04407" lon="-58.16606">
        <time>2021-05-01T17:31:44Z</time>
      </trkpt>
      <trkpt lat="-35.044083" lon="-58.16599">
        <time>2021-05-01T17:31:45Z</time>
      </trkpt>
      <trkpt lat="-35.04409" lon="-58.16592">
        <time>2021-05-01T17:31:46Z</time>
      </trkpt>
      <trkpt lat="-35.044094" lon="-58.165855">
        <time>2021-05-01T17:31:47Z</time>
      </trkpt>
      <trkpt lat="-35.044098" lon="-58.16579">
        <time>2021-05-01T17:31:48Z</time>
      </trkpt>
      <trkpt lat="-35.044106" lon="-58.165726">
        <time>2021-05-01T17:31:49Z</time>
      </trkpt>
      <trkpt lat="-35.044113" lon="-58.165665">
        <time>2021-05-01T17:31:50Z</time>
      </trkpt>
      <trkpt lat="-35.044113" lon="-58.165604">
        <time>2021-05-01T17:31:51Z</time>
      </trkpt>
      <trkpt lat="-35.04411" lon="-58.165546">
        <time>2021-05-01T17:31:52Z</time>
      </trkpt>
      <trkpt lat="-35.044106" lon="-58.16549">
        <time>2021-05-01T17:31:53Z</time>
      </trkpt>
      <trkpt lat="-35.0441" lon="-58.165432">
        <time>2021-05-01T17:31:54Z</time>
      </trkpt>
      <trkpt lat="-35.044094" lon="-58.16533">
        <time>2021-05-01T17:31:56Z</time>
      </trkpt>
      <trkpt lat="-35.044086" lon="-58.16523">
        <time>2021-05-01T17:31:58Z</time>
      </trkpt>
      <trkpt lat="-35.044086" lon="-58.165127">
        <time>2021-05-01T17:32:00Z</time>
      </trkpt>
      <trkpt lat="-35.044106" lon="-58.165024">
        <time>2021-05-01T17:32:02Z</time>
      </trkpt>
      <trkpt lat="-35.04411" lon="-58.164925">
        <time>2021-05-01T17:32:04Z</time>
      </trkpt>
      <trkpt lat="-35.04412" lon="-58.164833">
        <time>2021-05-01T17:32:06Z</time>
      </trkpt>
      <trkpt lat="-35.04412" lon="-58.164745">
        <time>2021-05-01T17:32:08Z</time>
      </trkpt>
      <trkpt lat="-35.04411" lon="-58.164658">
        <time>2021-05-01T17:32:10Z</time>
      </trkpt>
      <trkpt lat="-35.044083" lon="-58.164574">
        <time>2021-05-01T17:32:12Z</time>
      </trkpt>
      <trkpt lat="-35.04406" lon="-58.1645">
        <time>2021-05-01T17:32:14Z</time>
      </trkpt>
      <trkpt lat="-35.044037" lon="-58.164436">
        <time>2021-05-01T17:32:16Z</time>
      </trkpt>
      <trkpt lat="-35.044014" lon="-58.16437">
        <time>2021-05-01T17:32:18Z</time>
      </trkpt>
      <trkpt lat="-35.04398" lon="-58.164318">
        <time>2021-05-01T17:32:20Z</time>
      </trkpt>
      <trkpt lat="-35.04393" lon="-58.164276">
        <time>2021-05-01T17:32:22Z</time>
      </trkpt>
      <trkpt lat="-35.04387" lon="-58.16425">
        <time>2021-05-01T17:32:24Z</time>
      </trkpt>
      <trkpt lat="-35.043808" lon="-58.164234">
        <time>2021-05-01T17:32:26Z</time>
      </trkpt>
      <trkpt lat="-35.043777" lon="-58.164223">
        <time>2021-05-01T17:32:36Z</time>
      </trkpt>
      <trkpt lat="-35.043777" lon="-58.164223">
        <time>2021-05-01T17:32:46Z</time>
      </trkpt>
      <trkpt lat="-35.043777" lon="-58.164223">
        <time>2021-05-01T17:32:56Z</time>
      </trkpt>
      <trkpt lat="-35.043777" lon="-58.164223">
        <time>2021-05-01T17:33:06Z</time>
      </trkpt>
      <trkpt lat="-35.043777" lon="-58.164223">
        <time>2021-05-01T17:33:16Z</time>
      </trkpt>
      <trkpt lat="-35.043724" lon="-58.16421">
        <time>2021-05-01T17:33:20Z</time>
      </trkpt>
      <trkpt lat="-35.043682" lon="-58.16415">
        <time>2021-05-01T17:33:20Z</time>
      </trkpt>
      <trkpt lat="-35.043625" lon="-58.164093">
        <time>2021-05-01T17:35:41Z</time>
      </trkpt>
      <trkpt lat="-35.043564" lon="-58.16403">
        <time>2021-05-01T17:35:43Z</time>
      </trkpt>
      <trkpt lat="-35.04351" lon="-58.16396">
        <time>2021-05-01T17:35:45Z</time>
      </trkpt>
      <trkpt lat="-35.043453" lon="-58.163895">
        <time>2021-05-01T17:35:47Z</time>
      </trkpt>
      <trkpt lat="-35.043392" lon="-58.16382">
        <time>2021-05-01T17:35:49Z</time>
      </trkpt>
      <trkpt lat="-35.04334" lon="-58.163734">
        <time>2021-05-01T17:35:51Z</time>
      </trkpt>
      <trkpt lat="-35.043285" lon="-58.163662">
        <time>2021-05-01T17:35:53Z</time>
      </trkpt>
      <trkpt lat="-35.043224" lon="-58.16359">
        <time>2021-05-01T17:35:55Z</time>
      </trkpt>
      <trkpt lat="-35.04316" lon="-58.16352">
        <time>2021-05-01T17:35:57Z</time>
      </trkpt>
      <trkpt lat="-35.04312" lon="-58.163486">
        <time>2021-05-01T17:35:58Z</time>
      </trkpt>
      <trkpt lat="-35.043087" lon="-58.16345">
        <time>2021-05-01T17:35:59Z</time>
      </trkpt>
      <trkpt lat="-35.043022" lon="-58.163383">
        <time>2021-05-01T17:36:01Z</time>
      </trkpt>
      <trkpt lat="-35.042957" lon="-58.16331">
        <time>2021-05-01T17:36:03Z</time>
      </trkpt>
      <trkpt lat="-35.042896" lon="-58.16324">
        <time>2021-05-01T17:36:05Z</time>
      </trkpt>
      <trkpt lat="-35.042828" lon="-58.163166">
        <time>2021-05-01T17:36:07Z</time>
      </trkpt>
      <trkpt lat="-35.042763" lon="-58.163097">
        <time>2021-05-01T17:36:09Z</time>
      </trkpt>
      <trkpt lat="-35.042698" lon="-58.16302">
        <time>2021-05-01T17:36:11Z</time>
      </trkpt>
      <trkpt lat="-35.042664" lon="-58.162983">
        <time>2021-05-01T17:36:12Z</time>
      </trkpt>
      <trkpt lat="-35.04263" lon="-58.162945">
        <time>2021-05-01T17:36:13Z</time>
      </trkpt>
      <trkpt lat="-35.0426" lon="-58.162907">
        <time>2021-05-01T17:36:14Z</time>
      </trkpt>
      <trkpt lat="-35.042564" lon="-58.16287">
        <time>2021-05-01T17:36:15Z</time>
      </trkpt>
      <trkpt lat="-35.04253" lon="-58.16283">
        <time>2021-05-01T17:36:16Z</time>
      </trkpt>
      <trkpt lat="-35.042465" lon="-58.162758">
        <time>2021-05-01T17:36:18Z</time>
      </trkpt>
      <trkpt lat="-35.042404" lon="-58.16269">
        <time>2021-05-01T17:36:20Z</time>
      </trkpt>
      <trkpt lat="-35.042347" lon="-58.162617">
        <time>2021-05-01T17:36:22Z</time>
      </trkpt>
      <trkpt lat="-35.042313" lon="-58.162582">
        <time>2021-05-01T17:36:23Z</time>
      </trkpt>
      <trkpt lat="-35.04225" lon="-58.16251">
        <time>2021-05-01T17:36:25Z</time>
      </trkpt>
      <trkpt lat="-35.042187" lon="-58.162434">
        <time>2021-05-01T17:36:27Z</time>
      </trkpt>
      <trkpt lat="-35.042152" lon="-58.16239">
        <time>2021-05-01T17:36:28Z</time>
      </trkpt>
      <trkpt lat="-35.042118" lon="-58.162354">
        <time>2021-05-01T17:36:29Z</time>
      </trkpt>
      <trkpt lat="-35.042084" lon="-58.16231">
        <time>2021-05-01T17:36:30Z</time>
      </trkpt>
      <trkpt lat="-35.04205" lon="-58.162273">
        <time>2021-05-01T17:36:31Z</time>
      </trkpt>
      <trkpt lat="-35.042015" lon="-58.162235">
        <time>2021-05-01T17:36:32Z</time>
      </trkpt>
      <trkpt lat="-35.04198" lon="-58.162197">
        <time>2021-05-01T17:36:33Z</time>
      </trkpt>
      <trkpt lat="-35.04192" lon="-58.16212">
        <time>2021-05-01T17:36:35Z</time>
      </trkpt>
      <trkpt lat="-35.041866" lon="-58.162052">
        <time>2021-05-01T17:36:37Z</time>
      </trkpt>
      <trkpt lat="-35.0418" lon="-58.161972">
        <time>2021-05-01T17:36:39Z</time>
      </trkpt>
      <trkpt lat="-35.04177" lon="-58.161934">
        <time>2021-05-01T17:36:40Z</time>
      </trkpt>
      <trkpt lat="-35.04171" lon="-58.161865">
        <time>2021-05-01T17:36:42Z</time>
      </trkpt>
      <trkpt lat="-35.04165" lon="-58.161797">
        <time>2021-05-01T17:36:44Z</time>
      </trkpt>
      <trkpt lat="-35.041584" lon="-58.16173">
        <time>2021-05-01T17:36:46Z</time>
      </trkpt>
      <trkpt lat="-35.04152" lon="-58.161655">
        <time>2021-05-01T17:36:48Z</time>
      </trkpt>
      <trkpt lat="-35.041454" lon="-58.161587">
        <time>2021-05-01T17:36:50Z</time>
      </trkpt>
      <trkpt lat="-35.041393" lon="-58.161522">
        <time>2021-05-01T17:36:52Z</time>
      </trkpt>
      <trkpt lat="-35.041332" lon="-58.161453">
        <time>2021-05-01T17:36:54Z</time>
      </trkpt>
      <trkpt lat="-35.04127" lon="-58.161377">
        <time>2021-05-01T17:36:56Z</time>
      </trkpt>
      <trkpt lat="-35.041206" lon="-58.161312">
        <time>2021-05-01T17:36:58Z</time>
      </trkpt>
      <trkpt lat="-35.041145" lon="-58.161243">
        <time>2021-05-01T17:37:00Z</time>
      </trkpt>
      <trkpt lat="-35.04108" lon="-58.16117">
        <time>2021-05-01T17:37:02Z</time>
      </trkpt>
      <trkpt lat="-35.04102" lon="-58.1611">
        <time>2021-05-01T17:37:04Z</time>
      </trkpt>
      <trkpt lat="-35.04096" lon="-58.16103">
        <time>2021-05-01T17:37:06Z</time>
      </trkpt>
      <trkpt lat="-35.040897" lon="-58.160957">
        <time>2021-05-01T17:37:08Z</time>
      </trkpt>
      <trkpt lat="-35.04083" lon="-58.16089">
        <time>2021-05-01T17:37:10Z</time>
      </trkpt>
      <trkpt lat="-35.040764" lon="-58.160812">
        <time>2021-05-01T17:37:12Z</time>
      </trkpt>
      <trkpt lat="-35.040703" lon="-58.16074">
        <time>2021-05-01T17:37:14Z</time>
      </trkpt>
      <trkpt lat="-35.040638" lon="-58.160667">
        <time>2021-05-01T17:37:16Z</time>
      </trkpt>
      <trkpt lat="-35.040573" lon="-58.160603">
        <time>2021-05-01T17:37:18Z</time>
      </trkpt>
      <trkpt lat="-35.04051" lon="-58.160538">
        <time>2021-05-01T17:37:20Z</time>
      </trkpt>
      <trkpt lat="-35.040443" lon="-58.16047">
        <time>2021-05-01T17:37:22Z</time>
      </trkpt>
      <trkpt lat="-35.040382" lon="-58.160397">
        <time>2021-05-01T17:37:24Z</time>
      </trkpt>
      <trkpt lat="-35.040314" lon="-58.16033">
        <time>2021-05-01T17:37:26Z</time>
      </trkpt>
      <trkpt lat="-35.04025" lon="-58.160263">
        <time>2021-05-01T17:37:28Z</time>
      </trkpt>
      <trkpt lat="-35.04019" lon="-58.160187">
        <time>2021-05-01T17:37:30Z</time>
      </trkpt>
      <trkpt lat="-35.04013" lon="-58.16012">
        <time>2021-05-01T17:37:32Z</time>
      </trkpt>
      <trkpt lat="-35.040073" lon="-58.160046">
        <time>2021-05-01T17:37:34Z</time>
      </trkpt>
      <trkpt lat="-35.04001" lon="-58.159973">
        <time>2021-05-01T17:37:36Z</time>
      </trkpt>
      <trkpt lat="-35.039974" lon="-58.159935">
        <time>2021-05-01T17:37:37Z</time>
      </trkpt>
      <trkpt lat="-35.03994" lon="-58.159897">
        <time>2021-05-01T17:37:38Z</time>
      </trkpt>
      <trkpt lat="-35.039875" lon="-58.159824">
        <time>2021-05-01T17:37:40Z</time>
      </trkpt>
      <trkpt lat="-35.03984" lon="-58.159786">
        <time>2021-05-01T17:37:41Z</time>
      </trkpt>
      <trkpt lat="-35.039776" lon="-58.15971">
        <time>2021-05-01T17:37:43Z</time>
      </trkpt>
      <trkpt lat="-35.039715" lon="-58.15964">
        <time>2021-05-01T17:37:45Z</time>
      </trkpt>
      <trkpt lat="-35.039684" lon="-58.1596">
        <time>2021-05-01T17:37:46Z</time>
      </trkpt>
      <trkpt lat="-35.039654" lon="-58.15956">
        <time>2021-05-01T17:37:47Z</time>
      </trkpt>
      <trkpt lat="-35.03962" lon="-58.159527">
        <time>2021-05-01T17:37:48Z</time>
      </trkpt>
      <trkpt lat="-35.039555" lon="-58.15945">
        <time>2021-05-01T17:37:50Z</time>
      </trkpt>
      <trkpt lat="-35.039524" lon="-58.15941">
        <time>2021-05-01T17:37:51Z</time>
      </trkpt>
      <trkpt lat="-35.039463" lon="-58.159336">
        <time>2021-05-01T17:37:53Z</time>
      </trkpt>
      <trkpt lat="-35.039425" lon="-58.159306">
        <time>2021-05-01T17:37:54Z</time>
      </trkpt>
      <trkpt lat="-35.039356" lon="-58.159233">
        <time>2021-05-01T17:37:56Z</time>
      </trkpt>
      <trkpt lat="-35.03932" lon="-58.1592">
        <time>2021-05-01T17:37:57Z</time>
      </trkpt>
      <trkpt lat="-35.039288" lon="-58.159164">
        <time>2021-05-01T17:37:58Z</time>
      </trkpt>
      <trkpt lat="-35.03922" lon="-58.159096">
        <time>2021-05-01T17:38:00Z</time>
      </trkpt>
      <trkpt lat="-35.039185" lon="-58.159058">
        <time>2021-05-01T17:38:01Z</time>
      </trkpt>
      <trkpt lat="-35.03912" lon="-58.15899">
        <time>2021-05-01T17:38:03Z</time>
      </trkpt>
      <trkpt lat="-35.039055" lon="-58.158913">
        <time>2021-05-01T17:38:05Z</time>
      </trkpt>
      <trkpt lat="-35.039024" lon="-58.15888">
        <time>2021-05-01T17:38:06Z</time>
      </trkpt>
      <trkpt lat="-35.038986" lon="-58.15884">
        <time>2021-05-01T17:38:07Z</time>
      </trkpt>
      <trkpt lat="-35.038956" lon="-58.158802">
        <time>2021-05-01T17:38:08Z</time>
      </trkpt>
      <trkpt lat="-35.03892" lon="-58.158764">
        <time>2021-05-01T17:38:09Z</time>
      </trkpt>
      <trkpt lat="-35.038887" lon="-58.15873">
        <time>2021-05-01T17:38:10Z</time>
      </trkpt>
      <trkpt lat="-35.038822" lon="-58.158657">
        <time>2021-05-01T17:38:12Z</time>
      </trkpt>
      <trkpt lat="-35.038757" lon="-58.15858">
        <time>2021-05-01T17:38:14Z</time>
      </trkpt>
      <trkpt lat="-35.038723" lon="-58.158546">
        <time>2021-05-01T17:38:15Z</time>
      </trkpt>
      <trkpt lat="-35.03869" lon="-58.15851">
        <time>2021-05-01T17:38:16Z</time>
      </trkpt>
      <trkpt lat="-35.038654" lon="-58.158474">
        <time>2021-05-01T17:38:17Z</time>
      </trkpt>
      <trkpt lat="-35.038624" lon="-58.158436">
        <time>2021-05-01T17:38:18Z</time>
      </trkpt>
      <trkpt lat="-35.03856" lon="-58.158363">
        <time>2021-05-01T17:38:20Z</time>
      </trkpt>
      <trkpt lat="-35.038498" lon="-58.158295">
        <time>2021-05-01T17:38:22Z</time>
      </trkpt>
      <trkpt lat="-35.03843" lon="-58.158226">
        <time>2021-05-01T17:38:24Z</time>
      </trkpt>
      <trkpt lat="-35.03837" lon="-58.158157">
        <time>2021-05-01T17:38:26Z</time>
      </trkpt>
      <trkpt lat="-35.038307" lon="-58.158096">
        <time>2021-05-01T17:38:28Z</time>
      </trkpt>
      <trkpt lat="-35.03825" lon="-58.158035">
        <time>2021-05-01T17:38:30Z</time>
      </trkpt>
      <trkpt lat="-35.03819" lon="-58.15796">
        <time>2021-05-01T17:38:32Z</time>
      </trkpt>
      <trkpt lat="-35.038128" lon="-58.157887">
        <time>2021-05-01T17:38:34Z</time>
      </trkpt>
      <trkpt lat="-35.03806" lon="-58.157814">
        <time>2021-05-01T17:38:36Z</time>
      </trkpt>
      <trkpt lat="-35.038025" lon="-58.157776">
        <time>2021-05-01T17:38:37Z</time>
      </trkpt>
      <trkpt lat="-35.03799" lon="-58.157738">
        <time>2021-05-01T17:38:38Z</time>
      </trkpt>
      <trkpt lat="-35.037956" lon="-58.157703">
        <time>2021-05-01T17:38:39Z</time>
      </trkpt>
      <trkpt lat="-35.037895" lon="-58.15763">
        <time>2021-05-01T17:38:41Z</time>
      </trkpt>
      <trkpt lat="-35.037834" lon="-58.157555">
        <time>2021-05-01T17:38:43Z</time>
      </trkpt>
      <trkpt lat="-35.0378" lon="-58.15752">
        <time>2021-05-01T17:38:44Z</time>
      </trkpt>
      <trkpt lat="-35.037766" lon="-58.15748">
        <time>2021-05-01T17:38:45Z</time>
      </trkpt>
      <trkpt lat="-35.03773" lon="-58.15744">
        <time>2021-05-01T17:38:46Z</time>
      </trkpt>
      <trkpt lat="-35.037697" lon="-58.157402">
        <time>2021-05-01T17:38:47Z</time>
      </trkpt>
      <trkpt lat="-35.037663" lon="-58.157364">
        <time>2021-05-01T17:38:48Z</time>
      </trkpt>
      <trkpt lat="-35.037632" lon="-58.157326">
        <time>2021-05-01T17:38:49Z</time>
      </trkpt>
      <trkpt lat="-35.037598" lon="-58.157288">
        <time>2021-05-01T17:38:50Z</time>
      </trkpt>
      <trkpt lat="-35.037563" lon="-58.15725">
        <time>2021-05-01T17:38:51Z</time>
      </trkpt>
      <trkpt lat="-35.03753" lon="-58.15721">
        <time>2021-05-01T17:38:52Z</time>
      </trkpt>
      <trkpt lat="-35.037495" lon="-58.157177">
        <time>2021-05-01T17:38:53Z</time>
      </trkpt>
      <trkpt lat="-35.037434" lon="-58.15711">
        <time>2021-05-01T17:38:55Z</time>
      </trkpt>
      <trkpt lat="-35.037365" lon="-58.157036">
        <time>2021-05-01T17:38:57Z</time>
      </trkpt>
      <trkpt lat="-35.037334" lon="-58.156998">
        <time>2021-05-01T17:38:58Z</time>
      </trkpt>
      <trkpt lat="-35.037296" lon="-58.15696">
        <time>2021-05-01T17:38:59Z</time>
      </trkpt>
      <trkpt lat="-35.037266" lon="-58.15692">
        <time>2021-05-01T17:39:00Z</time>
      </trkpt>
      <trkpt lat="-35.037228" lon="-58.15688">
        <time>2021-05-01T17:39:01Z</time>
      </trkpt>
      <trkpt lat="-35.037193" lon="-58.15684">
        <time>2021-05-01T17:39:02Z</time>
      </trkpt>
      <trkpt lat="-35.03716" lon="-58.1568">
        <time>2021-05-01T17:39:03Z</time>
      </trkpt>
      <trkpt lat="-35.037125" lon="-58.15676">
        <time>2021-05-01T17:39:04Z</time>
      </trkpt>
      <trkpt lat="-35.037094" lon="-58.156723">
        <time>2021-05-01T17:39:05Z</time>
      </trkpt>
      <trkpt lat="-35.037025" lon="-58.156647">
        <time>2021-05-01T17:39:07Z</time>
      </trkpt>
      <trkpt lat="-35.03699" lon="-58.15661">
        <time>2021-05-01T17:39:08Z</time>
      </trkpt>
      <trkpt lat="-35.036957" lon="-58.15657">
        <time>2021-05-01T17:39:09Z</time>
      </trkpt>
      <trkpt lat="-35.036922" lon="-58.156532">
        <time>2021-05-01T17:39:10Z</time>
      </trkpt>
      <trkpt lat="-35.036884" lon="-58.156494">
        <time>2021-05-01T17:39:11Z</time>
      </trkpt>
      <trkpt lat="-35.03685" lon="-58.156456">
        <time>2021-05-01T17:39:12Z</time>
      </trkpt>
      <trkpt lat="-35.036816" lon="-58.156414">
        <time>2021-05-01T17:39:13Z</time>
      </trkpt>
      <trkpt lat="-35.036777" lon="-58.156376">
        <time>2021-05-01T17:39:14Z</time>
      </trkpt>
      <trkpt lat="-35.036743" lon="-58.156334">
        <time>2021-05-01T17:39:15Z</time>
      </trkpt>
      <trkpt lat="-35.036705" lon="-58.156292">
        <time>2021-05-01T17:39:16Z</time>
      </trkpt>
      <trkpt lat="-35.03667" lon="-58.15625">
        <time>2021-05-01T17:39:17Z</time>
      </trkpt>
      <trkpt lat="-35.036636" lon="-58.15621">
        <time>2021-05-01T17:39:18Z</time>
      </trkpt>
      <trkpt lat="-35.0366" lon="-58.15617">
        <time>2021-05-01T17:39:19Z</time>
      </trkpt>
      <trkpt lat="-35.036564" lon="-58.15613">
        <time>2021-05-01T17:39:20Z</time>
      </trkpt>
      <trkpt lat="-35.03653" lon="-58.156094">
        <time>2021-05-01T17:39:21Z</time>
      </trkpt>
      <trkpt lat="-35.03649" lon="-58.156055">
        <time>2021-05-01T17:39:22Z</time>
      </trkpt>
      <trkpt lat="-35.036457" lon="-58.156013">
        <time>2021-05-01T17:39:23Z</time>
      </trkpt>
      <trkpt lat="-35.036423" lon="-58.155975">
        <time>2021-05-01T17:39:24Z</time>
      </trkpt>
      <trkpt lat="-35.036385" lon="-58.155937">
        <time>2021-05-01T17:39:25Z</time>
      </trkpt>
      <trkpt lat="-35.03635" lon="-58.1559">
        <time>2021-05-01T17:39:26Z</time>
      </trkpt>
      <trkpt lat="-35.036316" lon="-58.155857">
        <time>2021-05-01T17:39:27Z</time>
      </trkpt>
      <trkpt lat="-35.03628" lon="-58.155815">
        <time>2021-05-01T17:39:28Z</time>
      </trkpt>
      <trkpt lat="-35.036243" lon="-58.155777">
        <time>2021-05-01T17:39:29Z</time>
      </trkpt>
      <trkpt lat="-35.036205" lon="-58.15574">
        <time>2021-05-01T17:39:30Z</time>
      </trkpt>
      <trkpt lat="-35.036167" lon="-58.155704">
        <time>2021-05-01T17:39:31Z</time>
      </trkpt>
      <trkpt lat="-35.03613" lon="-58.155666">
        <time>2021-05-01T17:39:32Z</time>
      </trkpt>
      <trkpt lat="-35.036095" lon="-58.15563">
        <time>2021-05-01T17:39:33Z</time>
      </trkpt>
      <trkpt lat="-35.036057" lon="-58.15559">
        <time>2021-05-01T17:39:34Z</time>
      </trkpt>
      <trkpt lat="-35.03602" lon="-58.155552">
        <time>2021-05-01T17:39:35Z</time>
      </trkpt>
      <trkpt lat="-35.035984" lon="-58.155514">
        <time>2021-05-01T17:39:36Z</time>
      </trkpt>
      <trkpt lat="-35.03595" lon="-58.15548">
        <time>2021-05-01T17:39:37Z</time>
      </trkpt>
      <trkpt lat="-35.03591" lon="-58.155445">
        <time>2021-05-01T17:39:38Z</time>
      </trkpt>
      <trkpt lat="-35.035877" lon="-58.155407">
        <time>2021-05-01T17:39:39Z</time>
      </trkpt>
      <trkpt lat="-35.03584" lon="-58.15537">
        <time>2021-05-01T17:39:40Z</time>
      </trkpt>
      <trkpt lat="-35.0358" lon="-58.155327">
        <time>2021-05-01T17:39:41Z</time>
      </trkpt>
      <trkpt lat="-35.035763" lon="-58.155285">
        <time>2021-05-01T17:39:42Z</time>
      </trkpt>
      <trkpt lat="-35.03572" lon="-58.155247">
        <time>2021-05-01T17:39:43Z</time>
      </trkpt>
      <trkpt lat="-35.03568" lon="-58.155205">
        <time>2021-05-01T17:39:44Z</time>
      </trkpt>
      <trkpt lat="-35.03564" lon="-58.15516">
        <time>2021-05-01T17:39:45Z</time>
      </trkpt>
      <trkpt lat="-35.035603" lon="-58.15512">
        <time>2021-05-01T17:39:46Z</time>
      </trkpt>
      <trkpt lat="-35.03557" lon="-58.15508">
        <time>2021-05-01T17:39:47Z</time>
      </trkpt>
      <trkpt lat="-35.03553" lon="-58.15504">
        <time>2021-05-01T17:39:48Z</time>
      </trkpt>
      <trkpt lat="-35.035496" lon="-58.155003">
        <time>2021-05-01T17:39:49Z</time>
      </trkpt>
      <trkpt lat="-35.035458" lon="-58.15496">
        <time>2021-05-01T17:39:50Z</time>
      </trkpt>
      <trkpt lat="-35.035423" lon="-58.154922">
        <time>2021-05-01T17:39:51Z</time>
      </trkpt>
      <trkpt lat="-35.03539" lon="-58.154877">
        <time>2021-05-01T17:39:52Z</time>
      </trkpt>
      <trkpt lat="-35.03536" lon="-58.154835">
        <time>2021-05-01T17:39:53Z</time>
      </trkpt>
      <trkpt lat="-35.035324" lon="-58.154797">
        <time>2021-05-01T17:39:54Z</time>
      </trkpt>
      <trkpt lat="-35.035294" lon="-58.154755">
        <time>2021-05-01T17:39:55Z</time>
      </trkpt>
      <trkpt lat="-35.03526" lon="-58.154713">
        <time>2021-05-01T17:39:56Z</time>
      </trkpt>
      <trkpt lat="-35.035202" lon="-58.15464">
        <time>2021-05-01T17:39:58Z</time>
      </trkpt>
      <trkpt lat="-35.03514" lon="-58.154568">
        <time>2021-05-01T17:40:00Z</time>
      </trkpt>
      <trkpt lat="-35.035076" lon="-58.154495">
        <time>2021-05-01T17:40:02Z</time>
      </trkpt>
      <trkpt lat="-35.03501" lon="-58.154427">
        <time>2021-05-01T17:40:04Z</time>
      </trkpt>
      <trkpt lat="-35.034946" lon="-58.154354">
        <time>2021-05-01T17:40:06Z</time>
      </trkpt>
      <trkpt lat="-35.034878" lon="-58.15428">
        <time>2021-05-01T17:40:08Z</time>
      </trkpt>
      <trkpt lat="-35.034813" lon="-58.15421">
        <time>2021-05-01T17:40:10Z</time>
      </trkpt>
      <trkpt lat="-35.034748" lon="-58.154137">
        <time>2021-05-01T17:40:12Z</time>
      </trkpt>
      <trkpt lat="-35.03468" lon="-58.154068">
        <time>2021-05-01T17:40:14Z</time>
      </trkpt>
      <trkpt lat="-35.034645" lon="-58.15403">
        <time>2021-05-01T17:40:15Z</time>
      </trkpt>
      <trkpt lat="-35.03461" lon="-58.15399">
        <time>2021-05-01T17:40:16Z</time>
      </trkpt>
      <trkpt lat="-35.034576" lon="-58.153954">
        <time>2021-05-01T17:40:17Z</time>
      </trkpt>
      <trkpt lat="-35.034546" lon="-58.153915">
        <time>2021-05-01T17:40:18Z</time>
      </trkpt>
      <trkpt lat="-35.03451" lon="-58.153877">
        <time>2021-05-01T17:40:19Z</time>
      </trkpt>
      <trkpt lat="-35.03445" lon="-58.15381">
        <time>2021-05-01T17:40:21Z</time>
      </trkpt>
      <trkpt lat="-35.034393" lon="-58.153748">
        <time>2021-05-01T17:40:23Z</time>
      </trkpt>
      <trkpt lat="-35.034336" lon="-58.15368">
        <time>2021-05-01T17:40:25Z</time>
      </trkpt>
      <trkpt lat="-35.034283" lon="-58.153606">
        <time>2021-05-01T17:40:27Z</time>
      </trkpt>
      <trkpt lat="-35.03422" lon="-58.153534">
        <time>2021-05-01T17:40:29Z</time>
      </trkpt>
      <trkpt lat="-35.03416" lon="-58.15346">
        <time>2021-05-01T17:40:31Z</time>
      </trkpt>
      <trkpt lat="-35.034096" lon="-58.153393">
        <time>2021-05-01T17:40:33Z</time>
      </trkpt>
      <trkpt lat="-35.03403" lon="-58.15332">
        <time>2021-05-01T17:40:35Z</time>
      </trkpt>
      <trkpt lat="-35.03397" lon="-58.15325">
        <time>2021-05-01T17:40:37Z</time>
      </trkpt>
      <trkpt lat="-35.033905" lon="-58.15318">
        <time>2021-05-01T17:40:39Z</time>
      </trkpt>
      <trkpt lat="-35.03384" lon="-58.15311">
        <time>2021-05-01T17:40:41Z</time>
      </trkpt>
      <trkpt lat="-35.033775" lon="-58.153038">
        <time>2021-05-01T17:40:43Z</time>
      </trkpt>
      <trkpt lat="-35.033714" lon="-58.152966">
        <time>2021-05-01T17:40:45Z</time>
      </trkpt>
      <trkpt lat="-35.033653" lon="-58.152905">
        <time>2021-05-01T17:40:47Z</time>
      </trkpt>
      <trkpt lat="-35.0336" lon="-58.152843">
        <time>2021-05-01T17:40:49Z</time>
      </trkpt>
      <trkpt lat="-35.033546" lon="-58.152782">
        <time>2021-05-01T17:40:51Z</time>
      </trkpt>
      <trkpt lat="-35.03349" lon="-58.152718">
        <time>2021-05-01T17:40:53Z</time>
      </trkpt>
      <trkpt lat="-35.033432" lon="-58.152657">
        <time>2021-05-01T17:40:55Z</time>
      </trkpt>
      <trkpt lat="-35.033375" lon="-58.152588">
        <time>2021-05-01T17:40:57Z</time>
      </trkpt>
      <trkpt lat="-35.03331" lon="-58.15251">
        <time>2021-05-01T17:40:59Z</time>
      </trkpt>
      <trkpt lat="-35.033276" lon="-58.152473">
        <time>2021-05-01T17:41:00Z</time>
      </trkpt>
      <trkpt lat="-35.03324" lon="-58.15244">
        <time>2021-05-01T17:41:01Z</time>
      </trkpt>
      <trkpt lat="-35.033176" lon="-58.152363">
        <time>2021-05-01T17:41:03Z</time>
      </trkpt>
      <trkpt lat="-35.033115" lon="-58.15229">
        <time>2021-05-01T17:41:05Z</time>
      </trkpt>
      <trkpt lat="-35.03306" lon="-58.152214">
        <time>2021-05-01T17:41:07Z</time>
      </trkpt>
      <trkpt lat="-35.033" lon="-58.152153">
        <time>2021-05-01T17:41:09Z</time>
      </trkpt>
      <trkpt lat="-35.032936" lon="-58.152084">
        <time>2021-05-01T17:41:11Z</time>
      </trkpt>
      <trkpt lat="-35.032875" lon="-58.15201">
        <time>2021-05-01T17:41:13Z</time>
      </trkpt>
      <trkpt lat="-35.03281" lon="-58.151947">
        <time>2021-05-01T17:41:15Z</time>
      </trkpt>
      <trkpt lat="-35.03275" lon="-58.151882">
        <time>2021-05-01T17:41:17Z</time>
      </trkpt>
      <trkpt lat="-35.032684" lon="-58.151814">
        <time>2021-05-01T17:41:19Z</time>
      </trkpt>
      <trkpt lat="-35.032646" lon="-58.15178">
        <time>2021-05-01T17:41:20Z</time>
      </trkpt>
      <trkpt lat="-35.03261" lon="-58.15174">
        <time>2021-05-01T17:41:21Z</time>
      </trkpt>
      <trkpt lat="-35.032547" lon="-58.151672">
        <time>2021-05-01T17:41:23Z</time>
      </trkpt>
      <trkpt lat="-35.032486" lon="-58.1516">
        <time>2021-05-01T17:41:25Z</time>
      </trkpt>
      <trkpt lat="-35.032433" lon="-58.151543">
        <time>2021-05-01T17:41:27Z</time>
      </trkpt>
      <trkpt lat="-35.03237" lon="-58.15148">
        <time>2021-05-01T17:41:29Z</time>
      </trkpt>
      <trkpt lat="-35.03231" lon="-58.1514">
        <time>2021-05-01T17:41:31Z</time>
      </trkpt>
      <trkpt lat="-35.032246" lon="-58.15133">
        <time>2021-05-01T17:41:33Z</time>
      </trkpt>
      <trkpt lat="-35.03221" lon="-58.15129">
        <time>2021-05-01T17:41:34Z</time>
      </trkpt>
      <trkpt lat="-35.03218" lon="-58.15125">
        <time>2021-05-01T17:41:35Z</time>
      </trkpt>
      <trkpt lat="-35.032146" lon="-58.15121">
        <time>2021-05-01T17:41:36Z</time>
      </trkpt>
      <trkpt lat="-35.032112" lon="-58.151165">
        <time>2021-05-01T17:41:37Z</time>
      </trkpt>
      <trkpt lat="-35.03208" lon="-58.151115">
        <time>2021-05-01T17:41:38Z</time>
      </trkpt>
      <trkpt lat="-35.032047" lon="-58.15107">
        <time>2021-05-01T17:41:39Z</time>
      </trkpt>
      <trkpt lat="-35.032017" lon="-58.151024">
        <time>2021-05-01T17:41:40Z</time>
      </trkpt>
      <trkpt lat="-35.031982" lon="-58.150978">
        <time>2021-05-01T17:41:41Z</time>
      </trkpt>
      <trkpt lat="-35.03195" lon="-58.150936">
        <time>2021-05-01T17:41:42Z</time>
      </trkpt>
      <trkpt lat="-35.031918" lon="-58.150894">
        <time>2021-05-01T17:41:43Z</time>
      </trkpt>
      <trkpt lat="-35.03188" lon="-58.150856">
        <time>2021-05-01T17:41:44Z</time>
      </trkpt>
      <trkpt lat="-35.03184" lon="-58.150814">
        <time>2021-05-01T17:41:45Z</time>
      </trkpt>
      <trkpt lat="-35.031803" lon="-58.150776">
        <time>2021-05-01T17:41:46Z</time>
      </trkpt>
      <trkpt lat="-35.03177" lon="-58.150734">
        <time>2021-05-01T17:41:47Z</time>
      </trkpt>
      <trkpt lat="-35.031734" lon="-58.150696">
        <time>2021-05-01T17:41:48Z</time>
      </trkpt>
      <trkpt lat="-35.0317" lon="-58.150658">
        <time>2021-05-01T17:41:49Z</time>
      </trkpt>
      <trkpt lat="-35.031666" lon="-58.15062">
        <time>2021-05-01T17:41:50Z</time>
      </trkpt>
      <trkpt lat="-35.03163" lon="-58.15058">
        <time>2021-05-01T17:41:51Z</time>
      </trkpt>
      <trkpt lat="-35.031593" lon="-58.150543">
        <time>2021-05-01T17:41:52Z</time>
      </trkpt>
      <trkpt lat="-35.03156" lon="-58.1505">
        <time>2021-05-01T17:41:53Z</time>
      </trkpt>
      <trkpt lat="-35.031525" lon="-58.150463">
        <time>2021-05-01T17:41:54Z</time>
      </trkpt>
      <trkpt lat="-35.03149" lon="-58.150425">
        <time>2021-05-01T17:41:55Z</time>
      </trkpt>
      <trkpt lat="-35.031456" lon="-58.150387">
        <time>2021-05-01T17:41:56Z</time>
      </trkpt>
      <trkpt lat="-35.03142" lon="-58.150345">
        <time>2021-05-01T17:41:57Z</time>
      </trkpt>
      <trkpt lat="-35.031384" lon="-58.15031">
        <time>2021-05-01T17:41:58Z</time>
      </trkpt>
      <trkpt lat="-35.03135" lon="-58.150272">
        <time>2021-05-01T17:41:59Z</time>
      </trkpt>
      <trkpt lat="-35.031284" lon="-58.150208">
        <time>2021-05-01T17:42:01Z</time>
      </trkpt>
      <trkpt lat="-35.031223" lon="-58.150146">
        <time>2021-05-01T17:42:03Z</time>
      </trkpt>
      <trkpt lat="-35.03116" lon="-58.15008">
        <time>2021-05-01T17:42:05Z</time>
      </trkpt>
      <trkpt lat="-35.03109" lon="-58.150017">
        <time>2021-05-01T17:42:07Z</time>
      </trkpt>
      <trkpt lat="-35.031055" lon="-58.149986">
        <time>2021-05-01T17:42:08Z</time>
      </trkpt>
      <trkpt lat="-35.031017" lon="-58.149952">
        <time>2021-05-01T17:42:09Z</time>
      </trkpt>
      <trkpt lat="-35.03098" lon="-58.149914">
        <time>2021-05-01T17:42:10Z</time>
      </trkpt>
      <trkpt lat="-35.030945" lon="-58.149876">
        <time>2021-05-01T17:42:11Z</time>
      </trkpt>
      <trkpt lat="-35.030914" lon="-58.149834">
        <time>2021-05-01T17:42:12Z</time>
      </trkpt>
      <trkpt lat="-35.03088" lon="-58.149796">
        <time>2021-05-01T17:42:13Z</time>
      </trkpt>
      <trkpt lat="-35.030823" lon="-58.14971">
        <time>2021-05-01T17:42:15Z</time>
      </trkpt>
      <trkpt lat="-35.030792" lon="-58.149673">
        <time>2021-05-01T17:42:16Z</time>
      </trkpt>
      <trkpt lat="-35.030758" lon="-58.14963">
        <time>2021-05-01T17:42:17Z</time>
      </trkpt>
      <trkpt lat="-35.030724" lon="-58.149593">
        <time>2021-05-01T17:42:18Z</time>
      </trkpt>
      <trkpt lat="-35.03069" lon="-58.14955">
        <time>2021-05-01T17:42:19Z</time>
      </trkpt>
      <trkpt lat="-35.03065" lon="-58.149513">
        <time>2021-05-01T17:42:20Z</time>
      </trkpt>
      <trkpt lat="-35.030617" lon="-58.14947">
        <time>2021-05-01T17:42:21Z</time>
      </trkpt>
      <trkpt lat="-35.03058" lon="-58.14943">
        <time>2021-05-01T17:42:22Z</time>
      </trkpt>
      <trkpt lat="-35.030544" lon="-58.149387">
        <time>2021-05-01T17:42:23Z</time>
      </trkpt>
      <trkpt lat="-35.030506" lon="-58.149345">
        <time>2021-05-01T17:42:24Z</time>
      </trkpt>
      <trkpt lat="-35.03047" lon="-58.149307">
        <time>2021-05-01T17:42:25Z</time>
      </trkpt>
      <trkpt lat="-35.030434" lon="-58.14927">
        <time>2021-05-01T17:42:26Z</time>
      </trkpt>
      <trkpt lat="-35.0304" lon="-58.149227">
        <time>2021-05-01T17:42:27Z</time>
      </trkpt>
      <trkpt lat="-35.030334" lon="-58.149155">
        <time>2021-05-01T17:42:29Z</time>
      </trkpt>
      <trkpt lat="-35.03027" lon="-58.149082">
        <time>2021-05-01T17:42:31Z</time>
      </trkpt>
      <trkpt lat="-35.03024" lon="-58.14904">
        <time>2021-05-01T17:42:32Z</time>
      </trkpt>
      <trkpt lat="-35.03021" lon="-58.149002">
        <time>2021-05-01T17:42:33Z</time>
      </trkpt>
      <trkpt lat="-35.030174" lon="-58.148964">
        <time>2021-05-01T17:42:34Z</time>
      </trkpt>
      <trkpt lat="-35.03014" lon="-58.148922">
        <time>2021-05-01T17:42:35Z</time>
      </trkpt>
      <trkpt lat="-35.0301" lon="-58.14888">
        <time>2021-05-01T17:42:36Z</time>
      </trkpt>
      <trkpt lat="-35.030064" lon="-58.14884">
        <time>2021-05-01T17:42:37Z</time>
      </trkpt>
      <trkpt lat="-35.03003" lon="-58.148804">
        <time>2021-05-01T17:42:38Z</time>
      </trkpt>
      <trkpt lat="-35.02999" lon="-58.14876">
        <time>2021-05-01T17:42:39Z</time>
      </trkpt>
      <trkpt lat="-35.029957" lon="-58.14872">
        <time>2021-05-01T17:42:40Z</time>
      </trkpt>
      <trkpt lat="-35.02992" lon="-58.14868">
        <time>2021-05-01T17:42:41Z</time>
      </trkpt>
      <trkpt lat="-35.02988" lon="-58.14864">
        <time>2021-05-01T17:42:42Z</time>
      </trkpt>
      <trkpt lat="-35.029846" lon="-58.1486">
        <time>2021-05-01T17:42:43Z</time>
      </trkpt>
      <trkpt lat="-35.029808" lon="-58.148563">
        <time>2021-05-01T17:42:44Z</time>
      </trkpt>
      <trkpt lat="-35.029774" lon="-58.148525">
        <time>2021-05-01T17:42:45Z</time>
      </trkpt>
      <trkpt lat="-35.02971" lon="-58.14845">
        <time>2021-05-01T17:42:47Z</time>
      </trkpt>
      <trkpt lat="-35.029675" lon="-58.14841">
        <time>2021-05-01T17:42:48Z</time>
      </trkpt>
      <trkpt lat="-35.029636" lon="-58.148373">
        <time>2021-05-01T17:42:49Z</time>
      </trkpt>
      <trkpt lat="-35.029602" lon="-58.14834">
        <time>2021-05-01T17:42:50Z</time>
      </trkpt>
      <trkpt lat="-35.029568" lon="-58.1483">
        <time>2021-05-01T17:42:51Z</time>
      </trkpt>
      <trkpt lat="-35.029533" lon="-58.148262">
        <time>2021-05-01T17:42:52Z</time>
      </trkpt>
      <trkpt lat="-35.029472" lon="-58.148193">
        <time>2021-05-01T17:42:54Z</time>
      </trkpt>
      <trkpt lat="-35.029404" lon="-58.148125">
        <time>2021-05-01T17:42:56Z</time>
      </trkpt>
      <trkpt lat="-35.02934" lon="-58.14805">
        <time>2021-05-01T17:42:58Z</time>
      </trkpt>
      <trkpt lat="-35.02931" lon="-58.14801">
        <time>2021-05-01T17:42:59Z</time>
      </trkpt>
      <trkpt lat="-35.02924" lon="-58.147934">
        <time>2021-05-01T17:43:01Z</time>
      </trkpt>
      <trkpt lat="-35.029205" lon="-58.147896">
        <time>2021-05-01T17:43:02Z</time>
      </trkpt>
      <trkpt lat="-35.029175" lon="-58.147854">
        <time>2021-05-01T17:43:03Z</time>
      </trkpt>
      <trkpt lat="-35.029114" lon="-58.14778">
        <time>2021-05-01T17:43:05Z</time>
      </trkpt>
      <trkpt lat="-35.029053" lon="-58.147705">
        <time>2021-05-01T17:43:07Z</time>
      </trkpt>
      <trkpt lat="-35.02899" lon="-58.147633">
        <time>2021-05-01T17:43:09Z</time>
      </trkpt>
      <trkpt lat="-35.028957" lon="-58.147594">
        <time>2021-05-01T17:43:10Z</time>
      </trkpt>
      <trkpt lat="-35.02892" lon="-58.147556">
        <time>2021-05-01T17:43:11Z</time>
      </trkpt>
      <trkpt lat="-35.028885" lon="-58.14752">
        <time>2021-05-01T17:43:12Z</time>
      </trkpt>
      <trkpt lat="-35.02885" lon="-58.14748">
        <time>2021-05-01T17:43:13Z</time>
      </trkpt>
      <trkpt lat="-35.028816" lon="-58.147438">
        <time>2021-05-01T17:43:14Z</time>
      </trkpt>
      <trkpt lat="-35.02878" lon="-58.147396">
        <time>2021-05-01T17:43:15Z</time>
      </trkpt>
      <trkpt lat="-35.028748" lon="-58.147358">
        <time>2021-05-01T17:43:16Z</time>
      </trkpt>
      <trkpt lat="-35.02871" lon="-58.14732">
        <time>2021-05-01T17:43:17Z</time>
      </trkpt>
      <trkpt lat="-35.028675" lon="-58.14728">
        <time>2021-05-01T17:43:18Z</time>
      </trkpt>
      <trkpt lat="-35.028637" lon="-58.147243">
        <time>2021-05-01T17:43:19Z</time>
      </trkpt>
      <trkpt lat="-35.0286" lon="-58.1472">
        <time>2021-05-01T17:43:20Z</time>
      </trkpt>
      <trkpt lat="-35.028564" lon="-58.147163">
        <time>2021-05-01T17:43:21Z</time>
      </trkpt>
      <trkpt lat="-35.028526" lon="-58.147125">
        <time>2021-05-01T17:43:22Z</time>
      </trkpt>
      <trkpt lat="-35.02849" lon="-58.147083">
        <time>2021-05-01T17:43:23Z</time>
      </trkpt>
      <trkpt lat="-35.028454" lon="-58.147045">
        <time>2021-05-01T17:43:24Z</time>
      </trkpt>
      <trkpt lat="-35.02842" lon="-58.14701">
        <time>2021-05-01T17:43:25Z</time>
      </trkpt>
      <trkpt lat="-35.028355" lon="-58.146935">
        <time>2021-05-01T17:43:27Z</time>
      </trkpt>
      <trkpt lat="-35.02832" lon="-58.146896">
        <time>2021-05-01T17:43:28Z</time>
      </trkpt>
      <trkpt lat="-35.028286" lon="-58.14686">
        <time>2021-05-01T17:43:29Z</time>
      </trkpt>
      <trkpt lat="-35.02825" lon="-58.146816">
        <time>2021-05-01T17:43:30Z</time>
      </trkpt>
      <trkpt lat="-35.028217" lon="-58.146774">
        <time>2021-05-01T17:43:31Z</time>
      </trkpt>
      <trkpt lat="-35.028187" lon="-58.146732">
        <time>2021-05-01T17:43:32Z</time>
      </trkpt>
      <trkpt lat="-35.028126" lon="-58.146664">
        <time>2021-05-01T17:43:34Z</time>
      </trkpt>
      <trkpt lat="-35.028065" lon="-58.146595">
        <time>2021-05-01T17:43:36Z</time>
      </trkpt>
      <trkpt lat="-35.028004" lon="-58.14652">
        <time>2021-05-01T17:43:38Z</time>
      </trkpt>
      <trkpt lat="-35.02794" lon="-58.146446">
        <time>2021-05-01T17:43:40Z</time>
      </trkpt>
      <trkpt lat="-35.027874" lon="-58.14637">
        <time>2021-05-01T17:43:42Z</time>
      </trkpt>
      <trkpt lat="-35.02781" lon="-58.1463">
        <time>2021-05-01T17:43:44Z</time>
      </trkpt>
      <trkpt lat="-35.027775" lon="-58.146267">
        <time>2021-05-01T17:43:45Z</time>
      </trkpt>
      <trkpt lat="-35.02771" lon="-58.146194">
        <time>2021-05-01T17:43:47Z</time>
      </trkpt>
      <trkpt lat="-35.02765" lon="-58.146126">
        <time>2021-05-01T17:43:49Z</time>
      </trkpt>
      <trkpt lat="-35.027588" lon="-58.146053">
        <time>2021-05-01T17:43:51Z</time>
      </trkpt>
      <trkpt lat="-35.02752" lon="-58.14598">
        <time>2021-05-01T17:43:53Z</time>
      </trkpt>
      <trkpt lat="-35.027485" lon="-58.145943">
        <time>2021-05-01T17:43:54Z</time>
      </trkpt>
      <trkpt lat="-35.02745" lon="-58.1459">
        <time>2021-05-01T17:43:55Z</time>
      </trkpt>
      <trkpt lat="-35.027416" lon="-58.145863">
        <time>2021-05-01T17:43:56Z</time>
      </trkpt>
      <trkpt lat="-35.027386" lon="-58.14583">
        <time>2021-05-01T17:43:57Z</time>
      </trkpt>
      <trkpt lat="-35.02735" lon="-58.14579">
        <time>2021-05-01T17:43:58Z</time>
      </trkpt>
      <trkpt lat="-35.027317" lon="-58.145752">
        <time>2021-05-01T17:43:59Z</time>
      </trkpt>
      <trkpt lat="-35.02728" lon="-58.145714">
        <time>2021-05-01T17:44:00Z</time>
      </trkpt>
      <trkpt lat="-35.027245" lon="-58.145676">
        <time>2021-05-01T17:44:01Z</time>
      </trkpt>
      <trkpt lat="-35.027214" lon="-58.145634">
        <time>2021-05-01T17:44:02Z</time>
      </trkpt>
      <trkpt lat="-35.02718" lon="-58.145596">
        <time>2021-05-01T17:44:03Z</time>
      </trkpt>
      <trkpt lat="-35.027145" lon="-58.145557">
        <time>2021-05-01T17:44:04Z</time>
      </trkpt>
      <trkpt lat="-35.027077" lon="-58.145485">
        <time>2021-05-01T17:44:06Z</time>
      </trkpt>
      <trkpt lat="-35.027042" lon="-58.145447">
        <time>2021-05-01T17:44:07Z</time>
      </trkpt>
      <trkpt lat="-35.027008" lon="-58.14541">
        <time>2021-05-01T17:44:08Z</time>
      </trkpt>
      <trkpt lat="-35.026974" lon="-58.145374">
        <time>2021-05-01T17:44:09Z</time>
      </trkpt>
      <trkpt lat="-35.02694" lon="-58.145336">
        <time>2021-05-01T17:44:10Z</time>
      </trkpt>
      <trkpt lat="-35.0269" lon="-58.1453">
        <time>2021-05-01T17:44:11Z</time>
      </trkpt>
      <trkpt lat="-35.026863" lon="-58.145264">
        <time>2021-05-01T17:44:12Z</time>
      </trkpt>
      <trkpt lat="-35.02683" lon="-58.145226">
        <time>2021-05-01T17:44:13Z</time>
      </trkpt>
      <trkpt lat="-35.026794" lon="-58.145184">
        <time>2021-05-01T17:44:14Z</time>
      </trkpt>
      <trkpt lat="-35.026756" lon="-58.14514">
        <time>2021-05-01T17:44:15Z</time>
      </trkpt>
      <trkpt lat="-35.026722" lon="-58.1451">
        <time>2021-05-01T17:44:16Z</time>
      </trkpt>
      <trkpt lat="-35.026688" lon="-58.14506">
        <time>2021-05-01T17:44:17Z</time>
      </trkpt>
      <trkpt lat="-35.026623" lon="-58.14499">
        <time>2021-05-01T17:44:19Z</time>
      </trkpt>
      <trkpt lat="-35.02659" lon="-58.144955">
        <time>2021-05-01T17:44:20Z</time>
      </trkpt>
      <trkpt lat="-35.026554" lon="-58.144913">
        <time>2021-05-01T17:44:21Z</time>
      </trkpt>
      <trkpt lat="-35.02652" lon="-58.144875">
        <time>2021-05-01T17:44:22Z</time>
      </trkpt>
      <trkpt lat="-35.026485" lon="-58.14484">
        <time>2021-05-01T17:44:23Z</time>
      </trkpt>
      <trkpt lat="-35.026447" lon="-58.144802">
        <time>2021-05-01T17:44:24Z</time>
      </trkpt>
      <trkpt lat="-35.026413" lon="-58.144764">
        <time>2021-05-01T17:44:25Z</time>
      </trkpt>
      <trkpt lat="-35.026375" lon="-58.144726">
        <time>2021-05-01T17:44:26Z</time>
      </trkpt>
      <trkpt lat="-35.02634" lon="-58.144688">
        <time>2021-05-01T17:44:27Z</time>
      </trkpt>
      <trkpt lat="-35.026306" lon="-58.14465">
        <time>2021-05-01T17:44:28Z</time>
      </trkpt>
      <trkpt lat="-35.02627" lon="-58.144608">
        <time>2021-05-01T17:44:29Z</time>
      </trkpt>
      <trkpt lat="-35.02624" lon="-58.144566">
        <time>2021-05-01T17:44:30Z</time>
      </trkpt>
      <trkpt lat="-35.026207" lon="-58.144527">
        <time>2021-05-01T17:44:31Z</time>
      </trkpt>
      <trkpt lat="-35.026134" lon="-58.14445">
        <time>2021-05-01T17:44:32Z</time>
      </trkpt>
      <trkpt lat="-35.026096" lon="-58.14441">
        <time>2021-05-01T17:44:33Z</time>
      </trkpt>
      <trkpt lat="-35.02606" lon="-58.14437">
        <time>2021-05-01T17:44:34Z</time>
      </trkpt>
      <trkpt lat="-35.026024" lon="-58.144333">
        <time>2021-05-01T17:44:35Z</time>
      </trkpt>
      <trkpt lat="-35.025955" lon="-58.144257">
        <time>2021-05-01T17:44:37Z</time>
      </trkpt>
      <trkpt lat="-35.02592" lon="-58.14422">
        <time>2021-05-01T17:44:38Z</time>
      </trkpt>
      <trkpt lat="-35.025887" lon="-58.144184">
        <time>2021-05-01T17:44:39Z</time>
      </trkpt>
      <trkpt lat="-35.02585" lon="-58.144146">
        <time>2021-05-01T17:44:40Z</time>
      </trkpt>
      <trkpt lat="-35.025814" lon="-58.144108">
        <time>2021-05-01T17:44:41Z</time>
      </trkpt>
      <trkpt lat="-35.02578" lon="-58.14407">
        <time>2021-05-01T17:44:42Z</time>
      </trkpt>
      <trkpt lat="-35.025745" lon="-58.144028">
        <time>2021-05-01T17:44:43Z</time>
      </trkpt>
      <trkpt lat="-35.02571" lon="-58.143986">
        <time>2021-05-01T17:44:44Z</time>
      </trkpt>
      <trkpt lat="-35.025673" lon="-58.143944">
        <time>2021-05-01T17:44:45Z</time>
      </trkpt>
      <trkpt lat="-35.02564" lon="-58.143906">
        <time>2021-05-01T17:44:46Z</time>
      </trkpt>
      <trkpt lat="-35.025604" lon="-58.143867">
        <time>2021-05-01T17:44:47Z</time>
      </trkpt>
      <trkpt lat="-35.02557" lon="-58.14383">
        <time>2021-05-01T17:44:48Z</time>
      </trkpt>
      <trkpt lat="-35.025536" lon="-58.143787">
        <time>2021-05-01T17:44:49Z</time>
      </trkpt>
      <trkpt lat="-35.0255" lon="-58.14375">
        <time>2021-05-01T17:44:50Z</time>
      </trkpt>
      <trkpt lat="-35.025467" lon="-58.14371">
        <time>2021-05-01T17:44:51Z</time>
      </trkpt>
      <trkpt lat="-35.025433" lon="-58.143673">
        <time>2021-05-01T17:44:52Z</time>
      </trkpt>
      <trkpt lat="-35.025394" lon="-58.143635">
        <time>2021-05-01T17:44:53Z</time>
      </trkpt>
      <trkpt lat="-35.02536" lon="-58.143597">
        <time>2021-05-01T17:44:54Z</time>
      </trkpt>
      <trkpt lat="-35.025322" lon="-58.14356">
        <time>2021-05-01T17:44:55Z</time>
      </trkpt>
      <trkpt lat="-35.02526" lon="-58.143486">
        <time>2021-05-01T17:44:57Z</time>
      </trkpt>
      <trkpt lat="-35.025192" lon="-58.143414">
        <time>2021-05-01T17:44:59Z</time>
      </trkpt>
      <trkpt lat="-35.025127" lon="-58.14334">
        <time>2021-05-01T17:45:01Z</time>
      </trkpt>
      <trkpt lat="-35.025093" lon="-58.143303">
        <time>2021-05-01T17:45:02Z</time>
      </trkpt>
      <trkpt lat="-35.02503" lon="-58.14323">
        <time>2021-05-01T17:45:04Z</time>
      </trkpt>
      <trkpt lat="-35.024963" lon="-58.143158">
        <time>2021-05-01T17:45:06Z</time>
      </trkpt>
      <trkpt lat="-35.0249" lon="-58.143085">
        <time>2021-05-01T17:45:08Z</time>
      </trkpt>
      <trkpt lat="-35.02486" lon="-58.143047">
        <time>2021-05-01T17:45:09Z</time>
      </trkpt>
      <trkpt lat="-35.024826" lon="-58.14301">
        <time>2021-05-01T17:45:10Z</time>
      </trkpt>
      <trkpt lat="-35.024788" lon="-58.14297">
        <time>2021-05-01T17:45:11Z</time>
      </trkpt>
      <trkpt lat="-35.024754" lon="-58.142933">
        <time>2021-05-01T17:45:12Z</time>
      </trkpt>
      <trkpt lat="-35.02472" lon="-58.142895">
        <time>2021-05-01T17:45:13Z</time>
      </trkpt>
      <trkpt lat="-35.024654" lon="-58.142822">
        <time>2021-05-01T17:45:15Z</time>
      </trkpt>
      <trkpt lat="-35.02462" lon="-58.14278">
        <time>2021-05-01T17:45:16Z</time>
      </trkpt>
      <trkpt lat="-35.024586" lon="-58.142742">
        <time>2021-05-01T17:45:17Z</time>
      </trkpt>
      <trkpt lat="-35.02455" lon="-58.1427">
        <time>2021-05-01T17:45:18Z</time>
      </trkpt>
      <trkpt lat="-35.02452" lon="-58.14266">
        <time>2021-05-01T17:45:19Z</time>
      </trkpt>
      <trkpt lat="-35.024483" lon="-58.142612">
        <time>2021-05-01T17:45:20Z</time>
      </trkpt>
      <trkpt lat="-35.02445" lon="-58.142574">
        <time>2021-05-01T17:45:21Z</time>
      </trkpt>
      <trkpt lat="-35.024414" lon="-58.142536">
        <time>2021-05-01T17:45:22Z</time>
      </trkpt>
      <trkpt lat="-35.02438" lon="-58.142498">
        <time>2021-05-01T17:45:23Z</time>
      </trkpt>
      <trkpt lat="-35.024345" lon="-58.142456">
        <time>2021-05-01T17:45:24Z</time>
      </trkpt>
      <trkpt lat="-35.02431" lon="-58.142418">
        <time>2021-05-01T17:45:25Z</time>
      </trkpt>
      <trkpt lat="-35.024273" lon="-58.14238">
        <time>2021-05-01T17:45:26Z</time>
      </trkpt>
      <trkpt lat="-35.02424" lon="-58.14234">
        <time>2021-05-01T17:45:27Z</time>
      </trkpt>
      <trkpt lat="-35.024174" lon="-58.142277">
        <time>2021-05-01T17:45:29Z</time>
      </trkpt>
      <trkpt lat="-35.024113" lon="-58.142204">
        <time>2021-05-01T17:45:31Z</time>
      </trkpt>
      <trkpt lat="-35.02408" lon="-58.14217">
        <time>2021-05-01T17:45:32Z</time>
      </trkpt>
      <trkpt lat="-35.02404" lon="-58.14213">
        <time>2021-05-01T17:45:33Z</time>
      </trkpt>
      <trkpt lat="-35.02401" lon="-58.14209">
        <time>2021-05-01T17:45:34Z</time>
      </trkpt>
      <trkpt lat="-35.023975" lon="-58.14205">
        <time>2021-05-01T17:45:35Z</time>
      </trkpt>
      <trkpt lat="-35.02394" lon="-58.142014">
        <time>2021-05-01T17:45:36Z</time>
      </trkpt>
      <trkpt lat="-35.023903" lon="-58.14197">
        <time>2021-05-01T17:45:37Z</time>
      </trkpt>
      <trkpt lat="-35.02387" lon="-58.141933">
        <time>2021-05-01T17:45:38Z</time>
      </trkpt>
      <trkpt lat="-35.023834" lon="-58.1419">
        <time>2021-05-01T17:45:39Z</time>
      </trkpt>
      <trkpt lat="-35.023766" lon="-58.141827">
        <time>2021-05-01T17:45:41Z</time>
      </trkpt>
      <trkpt lat="-35.02373" lon="-58.14179">
        <time>2021-05-01T17:45:42Z</time>
      </trkpt>
      <trkpt lat="-35.023697" lon="-58.141747">
        <time>2021-05-01T17:45:43Z</time>
      </trkpt>
      <trkpt lat="-35.023663" lon="-58.14171">
        <time>2021-05-01T17:45:44Z</time>
      </trkpt>
      <trkpt lat="-35.0236" lon="-58.14164">
        <time>2021-05-01T17:45:46Z</time>
      </trkpt>
      <trkpt lat="-35.023533" lon="-58.141563">
        <time>2021-05-01T17:45:48Z</time>
      </trkpt>
      <trkpt lat="-35.0235" lon="-58.14152">
        <time>2021-05-01T17:45:49Z</time>
      </trkpt>
      <trkpt lat="-35.023464" lon="-58.14148">
        <time>2021-05-01T17:45:50Z</time>
      </trkpt>
      <trkpt lat="-35.02343" lon="-58.141438">
        <time>2021-05-01T17:45:51Z</time>
      </trkpt>
      <trkpt lat="-35.02339" lon="-58.141396">
        <time>2021-05-01T17:45:52Z</time>
      </trkpt>
      <trkpt lat="-35.023357" lon="-58.141357">
        <time>2021-05-01T17:45:53Z</time>
      </trkpt>
      <trkpt lat="-35.02332" lon="-58.141315">
        <time>2021-05-01T17:45:54Z</time>
      </trkpt>
      <trkpt lat="-35.02328" lon="-58.141277">
        <time>2021-05-01T17:45:55Z</time>
      </trkpt>
      <trkpt lat="-35.023247" lon="-58.141235">
        <time>2021-05-01T17:45:56Z</time>
      </trkpt>
      <trkpt lat="-35.02321" lon="-58.141197">
        <time>2021-05-01T17:45:57Z</time>
      </trkpt>
      <trkpt lat="-35.023174" lon="-58.141155">
        <time>2021-05-01T17:45:58Z</time>
      </trkpt>
      <trkpt lat="-35.02314" lon="-58.141117">
        <time>2021-05-01T17:45:59Z</time>
      </trkpt>
      <trkpt lat="-35.0231" lon="-58.14108">
        <time>2021-05-01T17:46:00Z</time>
      </trkpt>
      <trkpt lat="-35.023067" lon="-58.14104">
        <time>2021-05-01T17:46:01Z</time>
      </trkpt>
      <trkpt lat="-35.023033" lon="-58.141003">
        <time>2021-05-01T17:46:02Z</time>
      </trkpt>
      <trkpt lat="-35.023" lon="-58.14096">
        <time>2021-05-01T17:46:03Z</time>
      </trkpt>
      <trkpt lat="-35.022964" lon="-58.140923">
        <time>2021-05-01T17:46:04Z</time>
      </trkpt>
      <trkpt lat="-35.022926" lon="-58.140884">
        <time>2021-05-01T17:46:05Z</time>
      </trkpt>
      <trkpt lat="-35.022892" lon="-58.140842">
        <time>2021-05-01T17:46:06Z</time>
      </trkpt>
      <trkpt lat="-35.022858" lon="-58.1408">
        <time>2021-05-01T17:46:07Z</time>
      </trkpt>
      <trkpt lat="-35.022823" lon="-58.14076">
        <time>2021-05-01T17:46:08Z</time>
      </trkpt>
      <trkpt lat="-35.02279" lon="-58.140724">
        <time>2021-05-01T17:46:09Z</time>
      </trkpt>
      <trkpt lat="-35.022755" lon="-58.140686">
        <time>2021-05-01T17:46:10Z</time>
      </trkpt>
      <trkpt lat="-35.02272" lon="-58.140648">
        <time>2021-05-01T17:46:11Z</time>
      </trkpt>
      <trkpt lat="-35.022686" lon="-58.14061">
        <time>2021-05-01T17:46:12Z</time>
      </trkpt>
      <trkpt lat="-35.022648" lon="-58.140575">
        <time>2021-05-01T17:46:13Z</time>
      </trkpt>
      <trkpt lat="-35.02261" lon="-58.140537">
        <time>2021-05-01T17:46:14Z</time>
      </trkpt>
      <trkpt lat="-35.022575" lon="-58.140503">
        <time>2021-05-01T17:46:15Z</time>
      </trkpt>
      <trkpt lat="-35.02254" lon="-58.140465">
        <time>2021-05-01T17:46:16Z</time>
      </trkpt>
      <trkpt lat="-35.022507" lon="-58.140427">
        <time>2021-05-01T17:46:17Z</time>
      </trkpt>
      <trkpt lat="-35.022472" lon="-58.14039">
        <time>2021-05-01T17:46:18Z</time>
      </trkpt>
      <trkpt lat="-35.022438" lon="-58.140347">
        <time>2021-05-01T17:46:19Z</time>
      </trkpt>
      <trkpt lat="-35.022404" lon="-58.14031">
        <time>2021-05-01T17:46:20Z</time>
      </trkpt>
      <trkpt lat="-35.02237" lon="-58.14027">
        <time>2021-05-01T17:46:21Z</time>
      </trkpt>
      <trkpt lat="-35.02234" lon="-58.140232">
        <time>2021-05-01T17:46:22Z</time>
      </trkpt>
      <trkpt lat="-35.022305" lon="-58.140194">
        <time>2021-05-01T17:46:23Z</time>
      </trkpt>
      <trkpt lat="-35.02227" lon="-58.14016">
        <time>2021-05-01T17:46:24Z</time>
      </trkpt>
      <trkpt lat="-35.022236" lon="-58.14012">
        <time>2021-05-01T17:46:25Z</time>
      </trkpt>
      <trkpt lat="-35.0222" lon="-58.140083">
        <time>2021-05-01T17:46:26Z</time>
      </trkpt>
      <trkpt lat="-35.022137" lon="-58.14001">
        <time>2021-05-01T17:46:28Z</time>
      </trkpt>
      <trkpt lat="-35.02207" lon="-58.13994">
        <time>2021-05-01T17:46:30Z</time>
      </trkpt>
      <trkpt lat="-35.022038" lon="-58.1399">
        <time>2021-05-01T17:46:31Z</time>
      </trkpt>
      <trkpt lat="-35.022" lon="-58.139862">
        <time>2021-05-01T17:46:32Z</time>
      </trkpt>
      <trkpt lat="-35.021965" lon="-58.13982">
        <time>2021-05-01T17:46:33Z</time>
      </trkpt>
      <trkpt lat="-35.02193" lon="-58.13978">
        <time>2021-05-01T17:46:34Z</time>
      </trkpt>
      <trkpt lat="-35.021896" lon="-58.13974">
        <time>2021-05-01T17:46:35Z</time>
      </trkpt>
      <trkpt lat="-35.021862" lon="-58.1397">
        <time>2021-05-01T17:46:36Z</time>
      </trkpt>
      <trkpt lat="-35.021824" lon="-58.139668">
        <time>2021-05-01T17:46:37Z</time>
      </trkpt>
      <trkpt lat="-35.02179" lon="-58.13963">
        <time>2021-05-01T17:46:38Z</time>
      </trkpt>
      <trkpt lat="-35.02176" lon="-58.13959">
        <time>2021-05-01T17:46:39Z</time>
      </trkpt>
      <trkpt lat="-35.021725" lon="-58.139553">
        <time>2021-05-01T17:46:40Z</time>
      </trkpt>
      <trkpt lat="-35.021687" lon="-58.139515">
        <time>2021-05-01T17:46:41Z</time>
      </trkpt>
      <trkpt lat="-35.021652" lon="-58.139477">
        <time>2021-05-01T17:46:42Z</time>
      </trkpt>
      <trkpt lat="-35.021618" lon="-58.13944">
        <time>2021-05-01T17:46:43Z</time>
      </trkpt>
      <trkpt lat="-35.02158" lon="-58.139397">
        <time>2021-05-01T17:46:44Z</time>
      </trkpt>
      <trkpt lat="-35.021545" lon="-58.139355">
        <time>2021-05-01T17:46:45Z</time>
      </trkpt>
      <trkpt lat="-35.02151" lon="-58.139317">
        <time>2021-05-01T17:46:46Z</time>
      </trkpt>
      <trkpt lat="-35.021477" lon="-58.139275">
        <time>2021-05-01T17:46:47Z</time>
      </trkpt>
      <trkpt lat="-35.021442" lon="-58.139233">
        <time>2021-05-01T17:46:48Z</time>
      </trkpt>
      <trkpt lat="-35.021408" lon="-58.139194">
        <time>2021-05-01T17:46:49Z</time>
      </trkpt>
      <trkpt lat="-35.021374" lon="-58.139153">
        <time>2021-05-01T17:46:50Z</time>
      </trkpt>
      <trkpt lat="-35.02134" lon="-58.139114">
        <time>2021-05-01T17:46:51Z</time>
      </trkpt>
      <trkpt lat="-35.021305" lon="-58.139076">
        <time>2021-05-01T17:46:52Z</time>
      </trkpt>
      <trkpt lat="-35.02127" lon="-58.139038">
        <time>2021-05-01T17:46:53Z</time>
      </trkpt>
      <trkpt lat="-35.021236" lon="-58.138996">
        <time>2021-05-01T17:46:54Z</time>
      </trkpt>
      <trkpt lat="-35.021202" lon="-58.138958">
        <time>2021-05-01T17:46:55Z</time>
      </trkpt>
      <trkpt lat="-35.021168" lon="-58.138916">
        <time>2021-05-01T17:46:56Z</time>
      </trkpt>
      <trkpt lat="-35.02113" lon="-58.138878">
        <time>2021-05-01T17:46:57Z</time>
      </trkpt>
      <trkpt lat="-35.02106" lon="-58.138805">
        <time>2021-05-01T17:46:59Z</time>
      </trkpt>
      <trkpt lat="-35.021023" lon="-58.138767">
        <time>2021-05-01T17:47:00Z</time>
      </trkpt>
      <trkpt lat="-35.020985" lon="-58.13873">
        <time>2021-05-01T17:47:01Z</time>
      </trkpt>
      <trkpt lat="-35.02095" lon="-58.138687">
        <time>2021-05-01T17:47:02Z</time>
      </trkpt>
      <trkpt lat="-35.020916" lon="-58.138645">
        <time>2021-05-01T17:47:03Z</time>
      </trkpt>
      <trkpt lat="-35.020878" lon="-58.138603">
        <time>2021-05-01T17:47:04Z</time>
      </trkpt>
      <trkpt lat="-35.020844" lon="-58.138565">
        <time>2021-05-01T17:47:05Z</time>
      </trkpt>
      <trkpt lat="-35.020805" lon="-58.13853">
        <time>2021-05-01T17:47:06Z</time>
      </trkpt>
      <trkpt lat="-35.020767" lon="-58.138496">
        <time>2021-05-01T17:47:07Z</time>
      </trkpt>
      <trkpt lat="-35.020725" lon="-58.138462">
        <time>2021-05-01T17:47:08Z</time>
      </trkpt>
      <trkpt lat="-35.020687" lon="-58.138424">
        <time>2021-05-01T17:47:09Z</time>
      </trkpt>
      <trkpt lat="-35.02065" lon="-58.138386">
        <time>2021-05-01T17:47:10Z</time>
      </trkpt>
      <trkpt lat="-35.02061" lon="-58.138344">
        <time>2021-05-01T17:47:11Z</time>
      </trkpt>
      <trkpt lat="-35.020576" lon="-58.1383">
        <time>2021-05-01T17:47:12Z</time>
      </trkpt>
      <trkpt lat="-35.02054" lon="-58.13826">
        <time>2021-05-01T17:47:13Z</time>
      </trkpt>
      <trkpt lat="-35.0205" lon="-58.138214">
        <time>2021-05-01T17:47:14Z</time>
      </trkpt>
      <trkpt lat="-35.020462" lon="-58.138172">
        <time>2021-05-01T17:47:15Z</time>
      </trkpt>
      <trkpt lat="-35.020424" lon="-58.13813">
        <time>2021-05-01T17:47:16Z</time>
      </trkpt>
      <trkpt lat="-35.020393" lon="-58.13809">
        <time>2021-05-01T17:47:17Z</time>
      </trkpt>
      <trkpt lat="-35.02036" lon="-58.138046">
        <time>2021-05-01T17:47:18Z</time>
      </trkpt>
      <trkpt lat="-35.020325" lon="-58.13801">
        <time>2021-05-01T17:47:19Z</time>
      </trkpt>
      <trkpt lat="-35.02029" lon="-58.13797">
        <time>2021-05-01T17:47:20Z</time>
      </trkpt>
      <trkpt lat="-35.020256" lon="-58.13793">
        <time>2021-05-01T17:47:21Z</time>
      </trkpt>
      <trkpt lat="-35.02022" lon="-58.137894">
        <time>2021-05-01T17:47:22Z</time>
      </trkpt>
      <trkpt lat="-35.020184" lon="-58.13786">
        <time>2021-05-01T17:47:23Z</time>
      </trkpt>
      <trkpt lat="-35.020145" lon="-58.137825">
        <time>2021-05-01T17:47:24Z</time>
      </trkpt>
      <trkpt lat="-35.02011" lon="-58.13779">
        <time>2021-05-01T17:47:25Z</time>
      </trkpt>
      <trkpt lat="-35.020046" lon="-58.13772">
        <time>2021-05-01T17:47:27Z</time>
      </trkpt>
      <trkpt lat="-35.019978" lon="-58.13765">
        <time>2021-05-01T17:47:29Z</time>
      </trkpt>
      <trkpt lat="-35.019943" lon="-58.137608">
        <time>2021-05-01T17:47:30Z</time>
      </trkpt>
      <trkpt lat="-35.01991" lon="-58.13757">
        <time>2021-05-01T17:47:31Z</time>
      </trkpt>
      <trkpt lat="-35.019875" lon="-58.13753">
        <time>2021-05-01T17:47:32Z</time>
      </trkpt>
      <trkpt lat="-35.01984" lon="-58.137493">
        <time>2021-05-01T17:47:33Z</time>
      </trkpt>
      <trkpt lat="-35.019806" lon="-58.137455">
        <time>2021-05-01T17:47:34Z</time>
      </trkpt>
      <trkpt lat="-35.01977" lon="-58.13742">
        <time>2021-05-01T17:47:35Z</time>
      </trkpt>
      <trkpt lat="-35.019737" lon="-58.137383">
        <time>2021-05-01T17:47:36Z</time>
      </trkpt>
      <trkpt lat="-35.019707" lon="-58.13734">
        <time>2021-05-01T17:47:37Z</time>
      </trkpt>
      <trkpt lat="-35.019676" lon="-58.1373">
        <time>2021-05-01T17:47:38Z</time>
      </trkpt>
      <trkpt lat="-35.01964" lon="-58.137257">
        <time>2021-05-01T17:47:39Z</time>
      </trkpt>
      <trkpt lat="-35.01961" lon="-58.137215">
        <time>2021-05-01T17:47:40Z</time>
      </trkpt>
      <trkpt lat="-35.019577" lon="-58.137173">
        <time>2021-05-01T17:47:41Z</time>
      </trkpt>
      <trkpt lat="-35.019524" lon="-58.137093">
        <time>2021-05-01T17:47:43Z</time>
      </trkpt>
      <trkpt lat="-35.019493" lon="-58.13705">
        <time>2021-05-01T17:47:44Z</time>
      </trkpt>
      <trkpt lat="-35.01943" lon="-58.136974">
        <time>2021-05-01T17:47:46Z</time>
      </trkpt>
      <trkpt lat="-35.019394" lon="-58.136932">
        <time>2021-05-01T17:47:47Z</time>
      </trkpt>
      <trkpt lat="-35.01936" lon="-58.13689">
        <time>2021-05-01T17:47:48Z</time>
      </trkpt>
      <trkpt lat="-35.01932" lon="-58.136852">
        <time>2021-05-01T17:47:49Z</time>
      </trkpt>
      <trkpt lat="-35.019287" lon="-58.136818">
        <time>2021-05-01T17:47:50Z</time>
      </trkpt>
      <trkpt lat="-35.01922" lon="-58.136745">
        <time>2021-05-01T17:47:52Z</time>
      </trkpt>
      <trkpt lat="-35.019154" lon="-58.136673">
        <time>2021-05-01T17:47:54Z</time>
      </trkpt>
      <trkpt lat="-35.019085" lon="-58.1366">
        <time>2021-05-01T17:47:56Z</time>
      </trkpt>
      <trkpt lat="-35.01905" lon="-58.13656">
        <time>2021-05-01T17:47:57Z</time>
      </trkpt>
      <trkpt lat="-35.019016" lon="-58.136517">
        <time>2021-05-01T17:47:58Z</time>
      </trkpt>
      <trkpt lat="-35.018982" lon="-58.136475">
        <time>2021-05-01T17:47:59Z</time>
      </trkpt>
      <trkpt lat="-35.018948" lon="-58.136433">
        <time>2021-05-01T17:48:00Z</time>
      </trkpt>
      <trkpt lat="-35.018913" lon="-58.1364">
        <time>2021-05-01T17:48:01Z</time>
      </trkpt>
      <trkpt lat="-35.01888" lon="-58.13636">
        <time>2021-05-01T17:48:02Z</time>
      </trkpt>
      <trkpt lat="-35.018845" lon="-58.13632">
        <time>2021-05-01T17:48:03Z</time>
      </trkpt>
      <trkpt lat="-35.018806" lon="-58.136276">
        <time>2021-05-01T17:48:04Z</time>
      </trkpt>
      <trkpt lat="-35.018772" lon="-58.136234">
        <time>2021-05-01T17:48:05Z</time>
      </trkpt>
      <trkpt lat="-35.018738" lon="-58.136192">
        <time>2021-05-01T17:48:06Z</time>
      </trkpt>
      <trkpt lat="-35.0187" lon="-58.13615">
        <time>2021-05-01T17:48:07Z</time>
      </trkpt>
      <trkpt lat="-35.018665" lon="-58.13611">
        <time>2021-05-01T17:48:08Z</time>
      </trkpt>
      <trkpt lat="-35.018627" lon="-58.13607">
        <time>2021-05-01T17:48:09Z</time>
      </trkpt>
      <trkpt lat="-35.018593" lon="-58.136032">
        <time>2021-05-01T17:48:10Z</time>
      </trkpt>
      <trkpt lat="-35.018555" lon="-58.135994">
        <time>2021-05-01T17:48:11Z</time>
      </trkpt>
      <trkpt lat="-35.01852" lon="-58.135956">
        <time>2021-05-01T17:48:12Z</time>
      </trkpt>
      <trkpt lat="-35.01845" lon="-58.135887">
        <time>2021-05-01T17:48:14Z</time>
      </trkpt>
      <trkpt lat="-35.018383" lon="-58.135826">
        <time>2021-05-01T17:48:16Z</time>
      </trkpt>
      <trkpt lat="-35.01832" lon="-58.135757">
        <time>2021-05-01T17:48:18Z</time>
      </trkpt>
      <trkpt lat="-35.018284" lon="-58.135723">
        <time>2021-05-01T17:48:19Z</time>
      </trkpt>
      <trkpt lat="-35.018246" lon="-58.135685">
        <time>2021-05-01T17:48:20Z</time>
      </trkpt>
      <trkpt lat="-35.01821" lon="-58.135647">
        <time>2021-05-01T17:48:21Z</time>
      </trkpt>
      <trkpt lat="-35.01817" lon="-58.135612">
        <time>2021-05-01T17:48:22Z</time>
      </trkpt>
      <trkpt lat="-35.018135" lon="-58.135574">
        <time>2021-05-01T17:48:23Z</time>
      </trkpt>
      <trkpt lat="-35.018097" lon="-58.135532">
        <time>2021-05-01T17:48:24Z</time>
      </trkpt>
      <trkpt lat="-35.01806" lon="-58.135494">
        <time>2021-05-01T17:48:25Z</time>
      </trkpt>
      <trkpt lat="-35.01802" lon="-58.135452">
        <time>2021-05-01T17:48:26Z</time>
      </trkpt>
      <trkpt lat="-35.017986" lon="-58.13541">
        <time>2021-05-01T17:48:27Z</time>
      </trkpt>
      <trkpt lat="-35.017944" lon="-58.13537">
        <time>2021-05-01T17:48:28Z</time>
      </trkpt>
      <trkpt lat="-35.01791" lon="-58.135323">
        <time>2021-05-01T17:48:29Z</time>
      </trkpt>
      <trkpt lat="-35.017876" lon="-58.135284">
        <time>2021-05-01T17:48:30Z</time>
      </trkpt>
      <trkpt lat="-35.01784" lon="-58.135242">
        <time>2021-05-01T17:48:31Z</time>
      </trkpt>
      <trkpt lat="-35.017807" lon="-58.135204">
        <time>2021-05-01T17:48:32Z</time>
      </trkpt>
      <trkpt lat="-35.017776" lon="-58.135166">
        <time>2021-05-01T17:48:33Z</time>
      </trkpt>
      <trkpt lat="-35.017742" lon="-58.135124">
        <time>2021-05-01T17:48:34Z</time>
      </trkpt>
      <trkpt lat="-35.01771" lon="-58.135086">
        <time>2021-05-01T17:48:35Z</time>
      </trkpt>
      <trkpt lat="-35.017673" lon="-58.13505">
        <time>2021-05-01T17:48:36Z</time>
      </trkpt>
      <trkpt lat="-35.017605" lon="-58.13498">
        <time>2021-05-01T17:48:38Z</time>
      </trkpt>
      <trkpt lat="-35.01757" lon="-58.134945">
        <time>2021-05-01T17:48:39Z</time>
      </trkpt>
      <trkpt lat="-35.017536" lon="-58.134903">
        <time>2021-05-01T17:48:40Z</time>
      </trkpt>
      <trkpt lat="-35.0175" lon="-58.134865">
        <time>2021-05-01T17:48:41Z</time>
      </trkpt>
      <trkpt lat="-35.017464" lon="-58.134823">
        <time>2021-05-01T17:48:42Z</time>
      </trkpt>
      <trkpt lat="-35.017426" lon="-58.13478">
        <time>2021-05-01T17:48:43Z</time>
      </trkpt>
      <trkpt lat="-35.017387" lon="-58.13474">
        <time>2021-05-01T17:48:44Z</time>
      </trkpt>
      <trkpt lat="-35.01735" lon="-58.134697">
        <time>2021-05-01T17:48:45Z</time>
      </trkpt>
      <trkpt lat="-35.01731" lon="-58.134655">
        <time>2021-05-01T17:48:46Z</time>
      </trkpt>
      <trkpt lat="-35.017277" lon="-58.134613">
        <time>2021-05-01T17:48:47Z</time>
      </trkpt>
      <trkpt lat="-35.017235" lon="-58.13457">
        <time>2021-05-01T17:48:48Z</time>
      </trkpt>
      <trkpt lat="-35.0172" lon="-58.13453">
        <time>2021-05-01T17:48:49Z</time>
      </trkpt>
      <trkpt lat="-35.017162" lon="-58.13449">
        <time>2021-05-01T17:48:50Z</time>
      </trkpt>
      <trkpt lat="-35.017097" lon="-58.13442">
        <time>2021-05-01T17:48:52Z</time>
      </trkpt>
      <trkpt lat="-35.017033" lon="-58.134346">
        <time>2021-05-01T17:48:54Z</time>
      </trkpt>
      <trkpt lat="-35.017" lon="-58.134308">
        <time>2021-05-01T17:48:55Z</time>
      </trkpt>
      <trkpt lat="-35.016964" lon="-58.13427">
        <time>2021-05-01T17:48:56Z</time>
      </trkpt>
      <trkpt lat="-35.016922" lon="-58.134228">
        <time>2021-05-01T17:48:57Z</time>
      </trkpt>
      <trkpt lat="-35.01688" lon="-58.13418">
        <time>2021-05-01T17:48:58Z</time>
      </trkpt>
      <trkpt lat="-35.016838" lon="-58.134132">
        <time>2021-05-01T17:48:59Z</time>
      </trkpt>
      <trkpt lat="-35.016796" lon="-58.134087">
        <time>2021-05-01T17:49:00Z</time>
      </trkpt>
      <trkpt lat="-35.016754" lon="-58.13404">
        <time>2021-05-01T17:49:01Z</time>
      </trkpt>
      <trkpt lat="-35.016712" lon="-58.134">
        <time>2021-05-01T17:49:02Z</time>
      </trkpt>
      <trkpt lat="-35.01667" lon="-58.133953">
        <time>2021-05-01T17:49:03Z</time>
      </trkpt>
      <trkpt lat="-35.016632" lon="-58.13391">
        <time>2021-05-01T17:49:04Z</time>
      </trkpt>
      <trkpt lat="-35.016594" lon="-58.13387">
        <time>2021-05-01T17:49:05Z</time>
      </trkpt>
      <trkpt lat="-35.016556" lon="-58.133823">
        <time>2021-05-01T17:49:06Z</time>
      </trkpt>
      <trkpt lat="-35.016514" lon="-58.133785">
        <time>2021-05-01T17:49:07Z</time>
      </trkpt>
      <trkpt lat="-35.016476" lon="-58.133743">
        <time>2021-05-01T17:49:08Z</time>
      </trkpt>
      <trkpt lat="-35.01644" lon="-58.1337">
        <time>2021-05-01T17:49:09Z</time>
      </trkpt>
      <trkpt lat="-35.016407" lon="-58.133663">
        <time>2021-05-01T17:49:10Z</time>
      </trkpt>
      <trkpt lat="-35.016346" lon="-58.133587">
        <time>2021-05-01T17:49:12Z</time>
      </trkpt>
      <trkpt lat="-35.016315" lon="-58.133545">
        <time>2021-05-01T17:49:13Z</time>
      </trkpt>
      <trkpt lat="-35.01628" lon="-58.133507">
        <time>2021-05-01T17:49:14Z</time>
      </trkpt>
      <trkpt lat="-35.016247" lon="-58.133465">
        <time>2021-05-01T17:49:15Z</time>
      </trkpt>
      <trkpt lat="-35.016212" lon="-58.133427">
        <time>2021-05-01T17:49:16Z</time>
      </trkpt>
      <trkpt lat="-35.01618" lon="-58.133385">
        <time>2021-05-01T17:49:17Z</time>
      </trkpt>
      <trkpt lat="-35.01614" lon="-58.133347">
        <time>2021-05-01T17:49:18Z</time>
      </trkpt>
      <trkpt lat="-35.016106" lon="-58.133305">
        <time>2021-05-01T17:49:19Z</time>
      </trkpt>
      <trkpt lat="-35.01607" lon="-58.133263">
        <time>2021-05-01T17:49:20Z</time>
      </trkpt>
      <trkpt lat="-35.016033" lon="-58.133224">
        <time>2021-05-01T17:49:21Z</time>
      </trkpt>
      <trkpt lat="-35.016" lon="-58.133183">
        <time>2021-05-01T17:49:22Z</time>
      </trkpt>
      <trkpt lat="-35.015965" lon="-58.133144">
        <time>2021-05-01T17:49:23Z</time>
      </trkpt>
      <trkpt lat="-35.015926" lon="-58.133102">
        <time>2021-05-01T17:49:24Z</time>
      </trkpt>
      <trkpt lat="-35.015892" lon="-58.133064">
        <time>2021-05-01T17:49:25Z</time>
      </trkpt>
      <trkpt lat="-35.015854" lon="-58.133022">
        <time>2021-05-01T17:49:26Z</time>
      </trkpt>
      <trkpt lat="-35.015816" lon="-58.132984">
        <time>2021-05-01T17:49:27Z</time>
      </trkpt>
      <trkpt lat="-35.01578" lon="-58.132942">
        <time>2021-05-01T17:49:28Z</time>
      </trkpt>
      <trkpt lat="-35.015743" lon="-58.1329">
        <time>2021-05-01T17:49:29Z</time>
      </trkpt>
      <trkpt lat="-35.015705" lon="-58.132862">
        <time>2021-05-01T17:49:30Z</time>
      </trkpt>
      <trkpt lat="-35.015667" lon="-58.13282">
        <time>2021-05-01T17:49:31Z</time>
      </trkpt>
      <trkpt lat="-35.01563" lon="-58.132782">
        <time>2021-05-01T17:49:32Z</time>
      </trkpt>
      <trkpt lat="-35.01559" lon="-58.13274">
        <time>2021-05-01T17:49:33Z</time>
      </trkpt>
      <trkpt lat="-35.015553" lon="-58.132698">
        <time>2021-05-01T17:49:34Z</time>
      </trkpt>
      <trkpt lat="-35.01551" lon="-58.132656">
        <time>2021-05-01T17:49:35Z</time>
      </trkpt>
      <trkpt lat="-35.015472" lon="-58.132614">
        <time>2021-05-01T17:49:36Z</time>
      </trkpt>
      <trkpt lat="-35.015434" lon="-58.132572">
        <time>2021-05-01T17:49:37Z</time>
      </trkpt>
      <trkpt lat="-35.015392" lon="-58.13253">
        <time>2021-05-01T17:49:38Z</time>
      </trkpt>
      <trkpt lat="-35.015354" lon="-58.13249">
        <time>2021-05-01T17:49:39Z</time>
      </trkpt>
      <trkpt lat="-35.015312" lon="-58.132446">
        <time>2021-05-01T17:49:40Z</time>
      </trkpt>
      <trkpt lat="-35.015274" lon="-58.1324">
        <time>2021-05-01T17:49:41Z</time>
      </trkpt>
      <trkpt lat="-35.015236" lon="-58.13236">
        <time>2021-05-01T17:49:42Z</time>
      </trkpt>
      <trkpt lat="-35.015198" lon="-58.132317">
        <time>2021-05-01T17:49:43Z</time>
      </trkpt>
      <trkpt lat="-35.01516" lon="-58.132275">
        <time>2021-05-01T17:49:44Z</time>
      </trkpt>
      <trkpt lat="-35.01512" lon="-58.13223">
        <time>2021-05-01T17:49:45Z</time>
      </trkpt>
      <trkpt lat="-35.015087" lon="-58.132187">
        <time>2021-05-01T17:49:46Z</time>
      </trkpt>
      <trkpt lat="-35.01505" lon="-58.132145">
        <time>2021-05-01T17:49:47Z</time>
      </trkpt>
      <trkpt lat="-35.01501" lon="-58.132103">
        <time>2021-05-01T17:49:48Z</time>
      </trkpt>
      <trkpt lat="-35.014977" lon="-58.13206">
        <time>2021-05-01T17:49:49Z</time>
      </trkpt>
      <trkpt lat="-35.01494" lon="-58.132023">
        <time>2021-05-01T17:49:50Z</time>
      </trkpt>
      <trkpt lat="-35.0149" lon="-58.13198">
        <time>2021-05-01T17:49:51Z</time>
      </trkpt>
      <trkpt lat="-35.014862" lon="-58.13194">
        <time>2021-05-01T17:49:52Z</time>
      </trkpt>
      <trkpt lat="-35.014824" lon="-58.1319">
        <time>2021-05-01T17:49:53Z</time>
      </trkpt>
      <trkpt lat="-35.014786" lon="-58.13186">
        <time>2021-05-01T17:49:54Z</time>
      </trkpt>
      <trkpt lat="-35.014748" lon="-58.131817">
        <time>2021-05-01T17:49:55Z</time>
      </trkpt>
      <trkpt lat="-35.01471" lon="-58.131775">
        <time>2021-05-01T17:49:56Z</time>
      </trkpt>
      <trkpt lat="-35.01467" lon="-58.131733">
        <time>2021-05-01T17:49:57Z</time>
      </trkpt>
      <trkpt lat="-35.014633" lon="-58.13169">
        <time>2021-05-01T17:49:58Z</time>
      </trkpt>
      <trkpt lat="-35.01459" lon="-58.131653">
        <time>2021-05-01T17:49:59Z</time>
      </trkpt>
      <trkpt lat="-35.014553" lon="-58.13161">
        <time>2021-05-01T17:50:00Z</time>
      </trkpt>
      <trkpt lat="-35.014515" lon="-58.131565">
        <time>2021-05-01T17:50:01Z</time>
      </trkpt>
      <trkpt lat="-35.01448" lon="-58.131527">
        <time>2021-05-01T17:50:02Z</time>
      </trkpt>
      <trkpt lat="-35.01444" lon="-58.131485">
        <time>2021-05-01T17:50:03Z</time>
      </trkpt>
      <trkpt lat="-35.0144" lon="-58.131443">
        <time>2021-05-01T17:50:04Z</time>
      </trkpt>
      <trkpt lat="-35.014362" lon="-58.131405">
        <time>2021-05-01T17:50:05Z</time>
      </trkpt>
      <trkpt lat="-35.014324" lon="-58.13136">
        <time>2021-05-01T17:50:06Z</time>
      </trkpt>
      <trkpt lat="-35.014286" lon="-58.131317">
        <time>2021-05-01T17:50:07Z</time>
      </trkpt>
      <trkpt lat="-35.014248" lon="-58.13127">
        <time>2021-05-01T17:50:08Z</time>
      </trkpt>
      <trkpt lat="-35.014206" lon="-58.13123">
        <time>2021-05-01T17:50:09Z</time>
      </trkpt>
      <trkpt lat="-35.014168" lon="-58.131187">
        <time>2021-05-01T17:50:10Z</time>
      </trkpt>
      <trkpt lat="-35.014126" lon="-58.131145">
        <time>2021-05-01T17:50:11Z</time>
      </trkpt>
      <trkpt lat="-35.014088" lon="-58.131104">
        <time>2021-05-01T17:50:12Z</time>
      </trkpt>
      <trkpt lat="-35.01405" lon="-58.131058">
        <time>2021-05-01T17:50:13Z</time>
      </trkpt>
      <trkpt lat="-35.014015" lon="-58.131012">
        <time>2021-05-01T17:50:14Z</time>
      </trkpt>
      <trkpt lat="-35.013977" lon="-58.13097">
        <time>2021-05-01T17:50:15Z</time>
      </trkpt>
      <trkpt lat="-35.01394" lon="-58.130928">
        <time>2021-05-01T17:50:16Z</time>
      </trkpt>
      <trkpt lat="-35.0139" lon="-58.130886">
        <time>2021-05-01T17:50:17Z</time>
      </trkpt>
      <trkpt lat="-35.013863" lon="-58.130844">
        <time>2021-05-01T17:50:18Z</time>
      </trkpt>
      <trkpt lat="-35.01383" lon="-58.130806">
        <time>2021-05-01T17:50:19Z</time>
      </trkpt>
      <trkpt lat="-35.01379" lon="-58.130768">
        <time>2021-05-01T17:50:20Z</time>
      </trkpt>
      <trkpt lat="-35.013756" lon="-58.130726">
        <time>2021-05-01T17:50:21Z</time>
      </trkpt>
      <trkpt lat="-35.01372" lon="-58.130688">
        <time>2021-05-01T17:50:22Z</time>
      </trkpt>
      <trkpt lat="-35.013683" lon="-58.13065">
        <time>2021-05-01T17:50:23Z</time>
      </trkpt>
      <trkpt lat="-35.013622" lon="-58.13058">
        <time>2021-05-01T17:50:25Z</time>
      </trkpt>
      <trkpt lat="-35.01356" lon="-58.130516">
        <time>2021-05-01T17:50:27Z</time>
      </trkpt>
      <trkpt lat="-35.013496" lon="-58.130447">
        <time>2021-05-01T17:50:29Z</time>
      </trkpt>
      <trkpt lat="-35.01343" lon="-58.13038">
        <time>2021-05-01T17:50:31Z</time>
      </trkpt>
      <trkpt lat="-35.013367" lon="-58.13031">
        <time>2021-05-01T17:50:33Z</time>
      </trkpt>
      <trkpt lat="-35.013306" lon="-58.130238">
        <time>2021-05-01T17:50:35Z</time>
      </trkpt>
      <trkpt lat="-35.01324" lon="-58.130173">
        <time>2021-05-01T17:50:37Z</time>
      </trkpt>
      <trkpt lat="-35.013184" lon="-58.13011">
        <time>2021-05-01T17:50:39Z</time>
      </trkpt>
      <trkpt lat="-35.013134" lon="-58.130062">
        <time>2021-05-01T17:50:41Z</time>
      </trkpt>
      <trkpt lat="-35.013084" lon="-58.13">
        <time>2021-05-01T17:50:43Z</time>
      </trkpt>
      <trkpt lat="-35.01305" lon="-58.129963">
        <time>2021-05-01T17:50:44Z</time>
      </trkpt>
      <trkpt lat="-35.013016" lon="-58.12992">
        <time>2021-05-01T17:50:45Z</time>
      </trkpt>
      <trkpt lat="-35.01298" lon="-58.12988">
        <time>2021-05-01T17:50:46Z</time>
      </trkpt>
      <trkpt lat="-35.01294" lon="-58.129833">
        <time>2021-05-01T17:50:47Z</time>
      </trkpt>
      <trkpt lat="-35.0129" lon="-58.12979">
        <time>2021-05-01T17:50:48Z</time>
      </trkpt>
      <trkpt lat="-35.012863" lon="-58.129745">
        <time>2021-05-01T17:50:49Z</time>
      </trkpt>
      <trkpt lat="-35.012833" lon="-58.129696">
        <time>2021-05-01T17:50:50Z</time>
      </trkpt>
      <trkpt lat="-35.012794" lon="-58.129646">
        <time>2021-05-01T17:50:51Z</time>
      </trkpt>
      <trkpt lat="-35.012753" lon="-58.129604">
        <time>2021-05-01T17:50:52Z</time>
      </trkpt>
      <trkpt lat="-35.012714" lon="-58.129562">
        <time>2021-05-01T17:50:53Z</time>
      </trkpt>
      <trkpt lat="-35.012676" lon="-58.129517">
        <time>2021-05-01T17:50:54Z</time>
      </trkpt>
      <trkpt lat="-35.012634" lon="-58.12947">
        <time>2021-05-01T17:50:55Z</time>
      </trkpt>
      <trkpt lat="-35.012592" lon="-58.129425">
        <time>2021-05-01T17:50:56Z</time>
      </trkpt>
      <trkpt lat="-35.012554" lon="-58.12938">
        <time>2021-05-01T17:50:57Z</time>
      </trkpt>
      <trkpt lat="-35.012512" lon="-58.129333">
        <time>2021-05-01T17:50:58Z</time>
      </trkpt>
      <trkpt lat="-35.012474" lon="-58.12929">
        <time>2021-05-01T17:50:59Z</time>
      </trkpt>
      <trkpt lat="-35.012432" lon="-58.12925">
        <time>2021-05-01T17:51:00Z</time>
      </trkpt>
      <trkpt lat="-35.012394" lon="-58.12921">
        <time>2021-05-01T17:51:01Z</time>
      </trkpt>
      <trkpt lat="-35.012356" lon="-58.12917">
        <time>2021-05-01T17:51:02Z</time>
      </trkpt>
      <trkpt lat="-35.01232" lon="-58.12913">
        <time>2021-05-01T17:51:03Z</time>
      </trkpt>
      <trkpt lat="-35.01229" lon="-58.12909">
        <time>2021-05-01T17:51:04Z</time>
      </trkpt>
      <trkpt lat="-35.01223" lon="-58.129017">
        <time>2021-05-01T17:51:06Z</time>
      </trkpt>
      <trkpt lat="-35.012173" lon="-58.128944">
        <time>2021-05-01T17:51:08Z</time>
      </trkpt>
      <trkpt lat="-35.012115" lon="-58.12888">
        <time>2021-05-01T17:51:10Z</time>
      </trkpt>
      <trkpt lat="-35.012047" lon="-58.12881">
        <time>2021-05-01T17:51:12Z</time>
      </trkpt>
      <trkpt lat="-35.012012" lon="-58.128773">
        <time>2021-05-01T17:51:13Z</time>
      </trkpt>
      <trkpt lat="-35.01198" lon="-58.128735">
        <time>2021-05-01T17:51:14Z</time>
      </trkpt>
      <trkpt lat="-35.01194" lon="-58.1287">
        <time>2021-05-01T17:51:15Z</time>
      </trkpt>
      <trkpt lat="-35.0119" lon="-58.128662">
        <time>2021-05-01T17:51:16Z</time>
      </trkpt>
      <trkpt lat="-35.01186" lon="-58.128624">
        <time>2021-05-01T17:51:17Z</time>
      </trkpt>
      <trkpt lat="-35.01182" lon="-58.128586">
        <time>2021-05-01T17:51:18Z</time>
      </trkpt>
      <trkpt lat="-35.011787" lon="-58.128544">
        <time>2021-05-01T17:51:19Z</time>
      </trkpt>
      <trkpt lat="-35.01175" lon="-58.1285">
        <time>2021-05-01T17:51:20Z</time>
      </trkpt>
      <trkpt lat="-35.01171" lon="-58.12846">
        <time>2021-05-01T17:51:21Z</time>
      </trkpt>
      <trkpt lat="-35.011677" lon="-58.128418">
        <time>2021-05-01T17:51:22Z</time>
      </trkpt>
      <trkpt lat="-35.011642" lon="-58.12838">
        <time>2021-05-01T17:51:23Z</time>
      </trkpt>
      <trkpt lat="-35.01158" lon="-58.12831">
        <time>2021-05-01T17:51:25Z</time>
      </trkpt>
      <trkpt lat="-35.011513" lon="-58.128235">
        <time>2021-05-01T17:51:27Z</time>
      </trkpt>
      <trkpt lat="-35.011482" lon="-58.1282">
        <time>2021-05-01T17:51:28Z</time>
      </trkpt>
      <trkpt lat="-35.011448" lon="-58.12816">
        <time>2021-05-01T17:51:29Z</time>
      </trkpt>
      <trkpt lat="-35.011414" lon="-58.128117">
        <time>2021-05-01T17:51:30Z</time>
      </trkpt>
      <trkpt lat="-35.01138" lon="-58.12808">
        <time>2021-05-01T17:51:31Z</time>
      </trkpt>
      <trkpt lat="-35.01134" lon="-58.128036">
        <time>2021-05-01T17:51:32Z</time>
      </trkpt>
      <trkpt lat="-35.011307" lon="-58.127995">
        <time>2021-05-01T17:51:33Z</time>
      </trkpt>
      <trkpt lat="-35.01127" lon="-58.127953">
        <time>2021-05-01T17:51:34Z</time>
      </trkpt>
      <trkpt lat="-35.01124" lon="-58.127914">
        <time>2021-05-01T17:51:35Z</time>
      </trkpt>
      <trkpt lat="-35.011204" lon="-58.127876">
        <time>2021-05-01T17:51:36Z</time>
      </trkpt>
      <trkpt lat="-35.011166" lon="-58.127842">
        <time>2021-05-01T17:51:37Z</time>
      </trkpt>
      <trkpt lat="-35.01113" lon="-58.127804">
        <time>2021-05-01T17:51:38Z</time>
      </trkpt>
      <trkpt lat="-35.011097" lon="-58.127766">
        <time>2021-05-01T17:51:39Z</time>
      </trkpt>
      <trkpt lat="-35.01103" lon="-58.127697">
        <time>2021-05-01T17:51:41Z</time>
      </trkpt>
      <trkpt lat="-35.010998" lon="-58.12766">
        <time>2021-05-01T17:51:42Z</time>
      </trkpt>
      <trkpt lat="-35.010963" lon="-58.127617">
        <time>2021-05-01T17:51:43Z</time>
      </trkpt>
      <trkpt lat="-35.01093" lon="-58.12758">
        <time>2021-05-01T17:51:44Z</time>
      </trkpt>
      <trkpt lat="-35.01089" lon="-58.127537">
        <time>2021-05-01T17:51:45Z</time>
      </trkpt>
      <trkpt lat="-35.010857" lon="-58.127495">
        <time>2021-05-01T17:51:46Z</time>
      </trkpt>
      <trkpt lat="-35.01082" lon="-58.127457">
        <time>2021-05-01T17:51:47Z</time>
      </trkpt>
      <trkpt lat="-35.010784" lon="-58.12742">
        <time>2021-05-01T17:51:48Z</time>
      </trkpt>
      <trkpt lat="-35.010754" lon="-58.12738">
        <time>2021-05-01T17:51:49Z</time>
      </trkpt>
      <trkpt lat="-35.01072" lon="-58.127342">
        <time>2021-05-01T17:51:50Z</time>
      </trkpt>
      <trkpt lat="-35.010685" lon="-58.127304">
        <time>2021-05-01T17:51:51Z</time>
      </trkpt>
      <trkpt lat="-35.01065" lon="-58.127266">
        <time>2021-05-01T17:51:52Z</time>
      </trkpt>
      <trkpt lat="-35.010616" lon="-58.12723">
        <time>2021-05-01T17:51:53Z</time>
      </trkpt>
      <trkpt lat="-35.010582" lon="-58.12719">
        <time>2021-05-01T17:51:54Z</time>
      </trkpt>
      <trkpt lat="-35.010548" lon="-58.12715">
        <time>2021-05-01T17:51:55Z</time>
      </trkpt>
      <trkpt lat="-35.010513" lon="-58.127113">
        <time>2021-05-01T17:51:56Z</time>
      </trkpt>
      <trkpt lat="-35.01048" lon="-58.12708">
        <time>2021-05-01T17:51:57Z</time>
      </trkpt>
      <trkpt lat="-35.010414" lon="-58.12701">
        <time>2021-05-01T17:51:59Z</time>
      </trkpt>
      <trkpt lat="-35.010353" lon="-58.126938">
        <time>2021-05-01T17:52:01Z</time>
      </trkpt>
      <trkpt lat="-35.01029" lon="-58.12687">
        <time>2021-05-01T17:52:03Z</time>
      </trkpt>
      <trkpt lat="-35.010235" lon="-58.126812">
        <time>2021-05-01T17:52:05Z</time>
      </trkpt>
      <trkpt lat="-35.010178" lon="-58.12676">
        <time>2021-05-01T17:52:07Z</time>
      </trkpt>
      <trkpt lat="-35.010124" lon="-58.126698">
        <time>2021-05-01T17:52:09Z</time>
      </trkpt>
      <trkpt lat="-35.01008" lon="-58.126648">
        <time>2021-05-01T17:52:11Z</time>
      </trkpt>
      <trkpt lat="-35.010033" lon="-58.126606">
        <time>2021-05-01T17:52:13Z</time>
      </trkpt>
      <trkpt lat="-35.009995" lon="-58.126564">
        <time>2021-05-01T17:52:15Z</time>
      </trkpt>
      <trkpt lat="-35.009956" lon="-58.126514">
        <time>2021-05-01T17:52:28Z</time>
      </trkpt>
      <trkpt lat="-35.009956" lon="-58.126514">
        <time>2021-05-01T17:52:38Z</time>
      </trkpt>
      <trkpt lat="-35.009956" lon="-58.126514">
        <time>2021-05-01T17:52:48Z</time>
      </trkpt>
      <trkpt lat="-35.009922" lon="-58.126503">
        <time>2021-05-01T17:52:58Z</time>
      </trkpt>
      <trkpt lat="-35.009876" lon="-58.12647">
        <time>2021-05-01T17:53:01Z</time>
      </trkpt>
      <trkpt lat="-35.00983" lon="-58.12641">
        <time>2021-05-01T17:53:03Z</time>
      </trkpt>
      <trkpt lat="-35.009777" lon="-58.126343">
        <time>2021-05-01T17:53:05Z</time>
      </trkpt>
      <trkpt lat="-35.009724" lon="-58.126263">
        <time>2021-05-01T17:53:07Z</time>
      </trkpt>
      <trkpt lat="-35.009666" lon="-58.12619">
        <time>2021-05-01T17:53:09Z</time>
      </trkpt>
      <trkpt lat="-35.0096" lon="-58.126118">
        <time>2021-05-01T17:53:11Z</time>
      </trkpt>
      <trkpt lat="-35.009567" lon="-58.12608">
        <time>2021-05-01T17:53:12Z</time>
      </trkpt>
      <trkpt lat="-35.009533" lon="-58.12604">
        <time>2021-05-01T17:53:13Z</time>
      </trkpt>
      <trkpt lat="-35.0095" lon="-58.126003">
        <time>2021-05-01T17:53:14Z</time>
      </trkpt>
      <trkpt lat="-35.009464" lon="-58.125965">
        <time>2021-05-01T17:53:15Z</time>
      </trkpt>
      <trkpt lat="-35.00943" lon="-58.125923">
        <time>2021-05-01T17:53:16Z</time>
      </trkpt>
      <trkpt lat="-35.009396" lon="-58.12588">
        <time>2021-05-01T17:53:17Z</time>
      </trkpt>
      <trkpt lat="-35.009357" lon="-58.12584">
        <time>2021-05-01T17:53:18Z</time>
      </trkpt>
      <trkpt lat="-35.009323" lon="-58.125797">
        <time>2021-05-01T17:53:19Z</time>
      </trkpt>
      <trkpt lat="-35.009285" lon="-58.125755">
        <time>2021-05-01T17:53:20Z</time>
      </trkpt>
      <trkpt lat="-35.009247" lon="-58.125717">
        <time>2021-05-01T17:53:21Z</time>
      </trkpt>
      <trkpt lat="-35.00921" lon="-58.12567">
        <time>2021-05-01T17:53:22Z</time>
      </trkpt>
      <trkpt lat="-35.00917" lon="-58.12563">
        <time>2021-05-01T17:53:23Z</time>
      </trkpt>
      <trkpt lat="-35.009132" lon="-58.125584">
        <time>2021-05-01T17:53:24Z</time>
      </trkpt>
      <trkpt lat="-35.009098" lon="-58.12554">
        <time>2021-05-01T17:53:25Z</time>
      </trkpt>
      <trkpt lat="-35.00906" lon="-58.1255">
        <time>2021-05-01T17:53:26Z</time>
      </trkpt>
      <trkpt lat="-35.00902" lon="-58.125454">
        <time>2021-05-01T17:53:27Z</time>
      </trkpt>
      <trkpt lat="-35.008984" lon="-58.125412">
        <time>2021-05-01T17:53:28Z</time>
      </trkpt>
      <trkpt lat="-35.008945" lon="-58.12537">
        <time>2021-05-01T17:53:29Z</time>
      </trkpt>
      <trkpt lat="-35.00891" lon="-58.125328">
        <time>2021-05-01T17:53:30Z</time>
      </trkpt>
      <trkpt lat="-35.008873" lon="-58.125286">
        <time>2021-05-01T17:53:31Z</time>
      </trkpt>
      <trkpt lat="-35.00884" lon="-58.125248">
        <time>2021-05-01T17:53:32Z</time>
      </trkpt>
      <trkpt lat="-35.008804" lon="-58.125206">
        <time>2021-05-01T17:53:33Z</time>
      </trkpt>
      <trkpt lat="-35.008766" lon="-58.125164">
        <time>2021-05-01T17:53:34Z</time>
      </trkpt>
      <trkpt lat="-35.00873" lon="-58.12513">
        <time>2021-05-01T17:53:35Z</time>
      </trkpt>
      <trkpt lat="-35.008694" lon="-58.12509">
        <time>2021-05-01T17:53:36Z</time>
      </trkpt>
      <trkpt lat="-35.00866" lon="-58.125053">
        <time>2021-05-01T17:53:37Z</time>
      </trkpt>
      <trkpt lat="-35.00863" lon="-58.12501">
        <time>2021-05-01T17:53:38Z</time>
      </trkpt>
      <trkpt lat="-35.00859" lon="-58.124973">
        <time>2021-05-01T17:53:39Z</time>
      </trkpt>
      <trkpt lat="-35.008556" lon="-58.12493">
        <time>2021-05-01T17:53:40Z</time>
      </trkpt>
      <trkpt lat="-35.00852" lon="-58.124893">
        <time>2021-05-01T17:53:41Z</time>
      </trkpt>
      <trkpt lat="-35.00848" lon="-58.12485">
        <time>2021-05-01T17:53:42Z</time>
      </trkpt>
      <trkpt lat="-35.008442" lon="-58.124813">
        <time>2021-05-01T17:53:43Z</time>
      </trkpt>
      <trkpt lat="-35.008408" lon="-58.12477">
        <time>2021-05-01T17:53:44Z</time>
      </trkpt>
      <trkpt lat="-35.00837" lon="-58.12473">
        <time>2021-05-01T17:53:45Z</time>
      </trkpt>
      <trkpt lat="-35.00833" lon="-58.12469">
        <time>2021-05-01T17:53:46Z</time>
      </trkpt>
      <trkpt lat="-35.008293" lon="-58.124653">
        <time>2021-05-01T17:53:47Z</time>
      </trkpt>
      <trkpt lat="-35.008255" lon="-58.12461">
        <time>2021-05-01T17:53:48Z</time>
      </trkpt>
      <trkpt lat="-35.00822" lon="-58.12457">
        <time>2021-05-01T17:53:49Z</time>
      </trkpt>
      <trkpt lat="-35.008183" lon="-58.124527">
        <time>2021-05-01T17:53:50Z</time>
      </trkpt>
      <trkpt lat="-35.00815" lon="-58.124485">
        <time>2021-05-01T17:53:51Z</time>
      </trkpt>
      <trkpt lat="-35.00811" lon="-58.124443">
        <time>2021-05-01T17:53:52Z</time>
      </trkpt>
      <trkpt lat="-35.00807" lon="-58.124397">
        <time>2021-05-01T17:53:53Z</time>
      </trkpt>
      <trkpt lat="-35.008034" lon="-58.12436">
        <time>2021-05-01T17:53:54Z</time>
      </trkpt>
      <trkpt lat="-35.007996" lon="-58.124317">
        <time>2021-05-01T17:53:55Z</time>
      </trkpt>
      <trkpt lat="-35.007957" lon="-58.124275">
        <time>2021-05-01T17:53:56Z</time>
      </trkpt>
      <trkpt lat="-35.00792" lon="-58.12423">
        <time>2021-05-01T17:53:57Z</time>
      </trkpt>
      <trkpt lat="-35.007885" lon="-58.124187">
        <time>2021-05-01T17:53:58Z</time>
      </trkpt>
      <trkpt lat="-35.007847" lon="-58.12414">
        <time>2021-05-01T17:53:59Z</time>
      </trkpt>
      <trkpt lat="-35.00781" lon="-58.1241">
        <time>2021-05-01T17:54:00Z</time>
      </trkpt>
      <trkpt lat="-35.00777" lon="-58.124058">
        <time>2021-05-01T17:54:01Z</time>
      </trkpt>
      <trkpt lat="-35.007732" lon="-58.124016">
        <time>2021-05-01T17:54:02Z</time>
      </trkpt>
      <trkpt lat="-35.007694" lon="-58.123978">
        <time>2021-05-01T17:54:03Z</time>
      </trkpt>
      <trkpt lat="-35.007656" lon="-58.123936">
        <time>2021-05-01T17:54:04Z</time>
      </trkpt>
      <trkpt lat="-35.007618" lon="-58.123894">
        <time>2021-05-01T17:54:05Z</time>
      </trkpt>
      <trkpt lat="-35.00758" lon="-58.123856">
        <time>2021-05-01T17:54:06Z</time>
      </trkpt>
      <trkpt lat="-35.00754" lon="-58.123814">
        <time>2021-05-01T17:54:07Z</time>
      </trkpt>
      <trkpt lat="-35.007507" lon="-58.123775">
        <time>2021-05-01T17:54:08Z</time>
      </trkpt>
      <trkpt lat="-35.007442" lon="-58.123707">
        <time>2021-05-01T17:54:10Z</time>
      </trkpt>
      <trkpt lat="-35.007374" lon="-58.123634">
        <time>2021-05-01T17:54:12Z</time>
      </trkpt>
      <trkpt lat="-35.007343" lon="-58.123596">
        <time>2021-05-01T17:54:13Z</time>
      </trkpt>
      <trkpt lat="-35.00731" lon="-58.123554">
        <time>2021-05-01T17:54:14Z</time>
      </trkpt>
      <trkpt lat="-35.007275" lon="-58.12352">
        <time>2021-05-01T17:54:15Z</time>
      </trkpt>
      <trkpt lat="-35.00724" lon="-58.12348">
        <time>2021-05-01T17:54:16Z</time>
      </trkpt>
      <trkpt lat="-35.007206" lon="-58.123444">
        <time>2021-05-01T17:54:17Z</time>
      </trkpt>
      <trkpt lat="-35.007168" lon="-58.123405">
        <time>2021-05-01T17:54:18Z</time>
      </trkpt>
      <trkpt lat="-35.007133" lon="-58.123363">
        <time>2021-05-01T17:54:19Z</time>
      </trkpt>
      <trkpt lat="-35.0071" lon="-58.123325">
        <time>2021-05-01T17:54:20Z</time>
      </trkpt>
      <trkpt lat="-35.00706" lon="-58.12329">
        <time>2021-05-01T17:54:21Z</time>
      </trkpt>
      <trkpt lat="-35.007027" lon="-58.12325">
        <time>2021-05-01T17:54:22Z</time>
      </trkpt>
      <trkpt lat="-35.006992" lon="-58.123207">
        <time>2021-05-01T17:54:23Z</time>
      </trkpt>
      <trkpt lat="-35.006958" lon="-58.12317">
        <time>2021-05-01T17:54:24Z</time>
      </trkpt>
      <trkpt lat="-35.006924" lon="-58.123127">
        <time>2021-05-01T17:54:25Z</time>
      </trkpt>
      <trkpt lat="-35.00689" lon="-58.123085">
        <time>2021-05-01T17:54:26Z</time>
      </trkpt>
      <trkpt lat="-35.006855" lon="-58.123043">
        <time>2021-05-01T17:54:27Z</time>
      </trkpt>
      <trkpt lat="-35.00682" lon="-58.123">
        <time>2021-05-01T17:54:28Z</time>
      </trkpt>
      <trkpt lat="-35.006783" lon="-58.12296">
        <time>2021-05-01T17:54:29Z</time>
      </trkpt>
      <trkpt lat="-35.00674" lon="-58.12292">
        <time>2021-05-01T17:54:30Z</time>
      </trkpt>
      <trkpt lat="-35.0067" lon="-58.122883">
        <time>2021-05-01T17:54:31Z</time>
      </trkpt>
      <trkpt lat="-35.00666" lon="-58.12284">
        <time>2021-05-01T17:54:32Z</time>
      </trkpt>
      <trkpt lat="-35.006622" lon="-58.1228">
        <time>2021-05-01T17:54:33Z</time>
      </trkpt>
      <trkpt lat="-35.006584" lon="-58.122757">
        <time>2021-05-01T17:54:34Z</time>
      </trkpt>
      <trkpt lat="-35.006542" lon="-58.122715">
        <time>2021-05-01T17:54:35Z</time>
      </trkpt>
      <trkpt lat="-35.006504" lon="-58.12267">
        <time>2021-05-01T17:54:36Z</time>
      </trkpt>
      <trkpt lat="-35.006466" lon="-58.12263">
        <time>2021-05-01T17:54:37Z</time>
      </trkpt>
      <trkpt lat="-35.006424" lon="-58.12259">
        <time>2021-05-01T17:54:38Z</time>
      </trkpt>
      <trkpt lat="-35.006382" lon="-58.122547">
        <time>2021-05-01T17:54:39Z</time>
      </trkpt>
      <trkpt lat="-35.00634" lon="-58.1225">
        <time>2021-05-01T17:54:40Z</time>
      </trkpt>
      <trkpt lat="-35.0063" lon="-58.12246">
        <time>2021-05-01T17:54:41Z</time>
      </trkpt>
      <trkpt lat="-35.006264" lon="-58.122414">
        <time>2021-05-01T17:54:42Z</time>
      </trkpt>
      <trkpt lat="-35.006226" lon="-58.122368">
        <time>2021-05-01T17:54:43Z</time>
      </trkpt>
      <trkpt lat="-35.006184" lon="-58.12233">
        <time>2021-05-01T17:54:44Z</time>
      </trkpt>
      <trkpt lat="-35.00615" lon="-58.12229">
        <time>2021-05-01T17:54:45Z</time>
      </trkpt>
      <trkpt lat="-35.006115" lon="-58.122253">
        <time>2021-05-01T17:54:46Z</time>
      </trkpt>
      <trkpt lat="-35.006077" lon="-58.12222">
        <time>2021-05-01T17:54:47Z</time>
      </trkpt>
      <trkpt lat="-35.006042" lon="-58.12218">
        <time>2021-05-01T17:54:48Z</time>
      </trkpt>
      <trkpt lat="-35.006004" lon="-58.122143">
        <time>2021-05-01T17:54:49Z</time>
      </trkpt>
      <trkpt lat="-35.005966" lon="-58.1221">
        <time>2021-05-01T17:54:50Z</time>
      </trkpt>
      <trkpt lat="-35.00593" lon="-58.122063">
        <time>2021-05-01T17:54:51Z</time>
      </trkpt>
      <trkpt lat="-35.0059" lon="-58.12202">
        <time>2021-05-01T17:54:52Z</time>
      </trkpt>
      <trkpt lat="-35.005867" lon="-58.121986">
        <time>2021-05-01T17:54:53Z</time>
      </trkpt>
      <trkpt lat="-35.00583" lon="-58.12195">
        <time>2021-05-01T17:54:54Z</time>
      </trkpt>
      <trkpt lat="-35.0058" lon="-58.12191">
        <time>2021-05-01T17:54:55Z</time>
      </trkpt>
      <trkpt lat="-35.00576" lon="-58.12187">
        <time>2021-05-01T17:54:56Z</time>
      </trkpt>
      <trkpt lat="-35.005726" lon="-58.12183">
        <time>2021-05-01T17:54:57Z</time>
      </trkpt>
      <trkpt lat="-35.005688" lon="-58.1218">
        <time>2021-05-01T17:54:58Z</time>
      </trkpt>
      <trkpt lat="-35.00565" lon="-58.12176">
        <time>2021-05-01T17:54:59Z</time>
      </trkpt>
      <trkpt lat="-35.00561" lon="-58.121727">
        <time>2021-05-01T17:55:00Z</time>
      </trkpt>
      <trkpt lat="-35.005573" lon="-58.12168">
        <time>2021-05-01T17:55:01Z</time>
      </trkpt>
      <trkpt lat="-35.005535" lon="-58.12164">
        <time>2021-05-01T17:55:02Z</time>
      </trkpt>
      <trkpt lat="-35.0055" lon="-58.121597">
        <time>2021-05-01T17:55:03Z</time>
      </trkpt>
      <trkpt lat="-35.00547" lon="-58.121555">
        <time>2021-05-01T17:55:04Z</time>
      </trkpt>
      <trkpt lat="-35.00544" lon="-58.121517">
        <time>2021-05-01T17:55:05Z</time>
      </trkpt>
      <trkpt lat="-35.005405" lon="-58.121475">
        <time>2021-05-01T17:55:06Z</time>
      </trkpt>
      <trkpt lat="-35.005375" lon="-58.121437">
        <time>2021-05-01T17:55:07Z</time>
      </trkpt>
      <trkpt lat="-35.00534" lon="-58.1214">
        <time>2021-05-01T17:55:08Z</time>
      </trkpt>
      <trkpt lat="-35.005306" lon="-58.121357">
        <time>2021-05-01T17:55:09Z</time>
      </trkpt>
      <trkpt lat="-35.00527" lon="-58.12131">
        <time>2021-05-01T17:55:10Z</time>
      </trkpt>
      <trkpt lat="-35.00523" lon="-58.121273">
        <time>2021-05-01T17:55:11Z</time>
      </trkpt>
      <trkpt lat="-35.00519" lon="-58.121235">
        <time>2021-05-01T17:55:12Z</time>
      </trkpt>
      <trkpt lat="-35.005154" lon="-58.121193">
        <time>2021-05-01T17:55:13Z</time>
      </trkpt>
      <trkpt lat="-35.00512" lon="-58.121155">
        <time>2021-05-01T17:55:14Z</time>
      </trkpt>
      <trkpt lat="-35.00508" lon="-58.121117">
        <time>2021-05-01T17:55:15Z</time>
      </trkpt>
      <trkpt lat="-35.005016" lon="-58.121044">
        <time>2021-05-01T17:55:17Z</time>
      </trkpt>
      <trkpt lat="-35.00498" lon="-58.121006">
        <time>2021-05-01T17:55:18Z</time>
      </trkpt>
      <trkpt lat="-35.004948" lon="-58.120964">
        <time>2021-05-01T17:55:19Z</time>
      </trkpt>
      <trkpt lat="-35.004913" lon="-58.120926">
        <time>2021-05-01T17:55:20Z</time>
      </trkpt>
      <trkpt lat="-35.004883" lon="-58.120888">
        <time>2021-05-01T17:55:21Z</time>
      </trkpt>
      <trkpt lat="-35.004818" lon="-58.12082">
        <time>2021-05-01T17:55:23Z</time>
      </trkpt>
      <trkpt lat="-35.004757" lon="-58.12076">
        <time>2021-05-01T17:55:25Z</time>
      </trkpt>
      <trkpt lat="-35.004707" lon="-58.120712">
        <time>2021-05-01T17:55:27Z</time>
      </trkpt>
      <trkpt lat="-35.00466" lon="-58.12066">
        <time>2021-05-01T17:55:29Z</time>
      </trkpt>
      <trkpt lat="-35.004616" lon="-58.120613">
        <time>2021-05-01T17:55:31Z</time>
      </trkpt>
      <trkpt lat="-35.00457" lon="-58.12058">
        <time>2021-05-01T17:55:34Z</time>
      </trkpt>
      <trkpt lat="-35.004528" lon="-58.120556">
        <time>2021-05-01T17:55:38Z</time>
      </trkpt>
      <trkpt lat="-35.004486" lon="-58.120502">
        <time>2021-05-01T17:55:39Z</time>
      </trkpt>
      <trkpt lat="-35.00446" lon="-58.120457">
        <time>2021-05-01T17:55:46Z</time>
      </trkpt>
      <trkpt lat="-35.004417" lon="-58.120415">
        <time>2021-05-01T17:55:50Z</time>
      </trkpt>
      <trkpt lat="-35.004406" lon="-58.120407">
        <time>2021-05-01T17:56:00Z</time>
      </trkpt>
      <trkpt lat="-35.004368" lon="-58.120373">
        <time>2021-05-01T17:56:02Z</time>
      </trkpt>
      <trkpt lat="-35.00433" lon="-58.120335">
        <time>2021-05-01T17:56:26Z</time>
      </trkpt>
      <trkpt lat="-35.0043" lon="-58.120293">
        <time>2021-05-01T17:56:30Z</time>
      </trkpt>
      <trkpt lat="-35.004246" lon="-58.120243">
        <time>2021-05-01T17:56:39Z</time>
      </trkpt>
      <trkpt lat="-35.004208" lon="-58.120186">
        <time>2021-05-01T17:56:49Z</time>
      </trkpt>
      <trkpt lat="-35.00415" lon="-58.12012">
        <time>2021-05-01T17:56:51Z</time>
      </trkpt>
      <trkpt lat="-35.004086" lon="-58.120045">
        <time>2021-05-01T17:56:53Z</time>
      </trkpt>
      <trkpt lat="-35.004025" lon="-58.119965">
        <time>2021-05-01T17:56:55Z</time>
      </trkpt>
      <trkpt lat="-35.00399" lon="-58.119926">
        <time>2021-05-01T17:56:56Z</time>
      </trkpt>
      <trkpt lat="-35.003956" lon="-58.11989">
        <time>2021-05-01T17:56:57Z</time>
      </trkpt>
      <trkpt lat="-35.00392" lon="-58.11985">
        <time>2021-05-01T17:56:58Z</time>
      </trkpt>
      <trkpt lat="-35.003887" lon="-58.119812">
        <time>2021-05-01T17:56:59Z</time>
      </trkpt>
      <trkpt lat="-35.00385" lon="-58.11977">
        <time>2021-05-01T17:57:00Z</time>
      </trkpt>
      <trkpt lat="-35.003815" lon="-58.11973">
        <time>2021-05-01T17:57:01Z</time>
      </trkpt>
      <trkpt lat="-35.003784" lon="-58.11969">
        <time>2021-05-01T17:57:02Z</time>
      </trkpt>
      <trkpt lat="-35.00372" lon="-58.119617">
        <time>2021-05-01T17:57:04Z</time>
      </trkpt>
      <trkpt lat="-35.003662" lon="-58.11955">
        <time>2021-05-01T17:57:06Z</time>
      </trkpt>
      <trkpt lat="-35.0036" lon="-58.11948">
        <time>2021-05-01T17:57:08Z</time>
      </trkpt>
      <trkpt lat="-35.003544" lon="-58.11941">
        <time>2021-05-01T17:57:10Z</time>
      </trkpt>
      <trkpt lat="-35.003483" lon="-58.11935">
        <time>2021-05-01T17:57:12Z</time>
      </trkpt>
      <trkpt lat="-35.00343" lon="-58.11929">
        <time>2021-05-01T17:57:14Z</time>
      </trkpt>
      <trkpt lat="-35.00338" lon="-58.119236">
        <time>2021-05-01T17:57:16Z</time>
      </trkpt>
      <trkpt lat="-35.003334" lon="-58.11918">
        <time>2021-05-01T17:57:18Z</time>
      </trkpt>
      <trkpt lat="-35.003292" lon="-58.119125">
        <time>2021-05-01T17:57:20Z</time>
      </trkpt>
      <trkpt lat="-35.003242" lon="-58.119083">
        <time>2021-05-01T17:57:22Z</time>
      </trkpt>
      <trkpt lat="-35.003204" lon="-58.119034">
        <time>2021-05-01T17:57:24Z</time>
      </trkpt>
      <trkpt lat="-35.003162" lon="-58.118973">
        <time>2021-05-01T17:57:26Z</time>
      </trkpt>
      <trkpt lat="-35.003113" lon="-58.118923">
        <time>2021-05-01T17:57:28Z</time>
      </trkpt>
      <trkpt lat="-35.003067" lon="-58.118874">
        <time>2021-05-01T17:57:30Z</time>
      </trkpt>
      <trkpt lat="-35.003025" lon="-58.11883">
        <time>2021-05-01T17:57:32Z</time>
      </trkpt>
      <trkpt lat="-35.00299" lon="-58.11878">
        <time>2021-05-01T17:57:34Z</time>
      </trkpt>
      <trkpt lat="-35.002953" lon="-58.11874">
        <time>2021-05-01T17:57:36Z</time>
      </trkpt>
      <trkpt lat="-35.00291" lon="-58.118713">
        <time>2021-05-01T17:57:38Z</time>
      </trkpt>
      <trkpt lat="-35.00286" lon="-58.118656">
        <time>2021-05-01T17:57:41Z</time>
      </trkpt>
      <trkpt lat="-35.002815" lon="-58.118607">
        <time>2021-05-01T17:57:44Z</time>
      </trkpt>
      <trkpt lat="-35.002785" lon="-58.11857">
        <time>2021-05-01T17:57:46Z</time>
      </trkpt>
      <trkpt lat="-35.002743" lon="-58.118523">
        <time>2021-05-01T17:57:48Z</time>
      </trkpt>
      <trkpt lat="-35.0027" lon="-58.11848">
        <time>2021-05-01T17:57:50Z</time>
      </trkpt>
      <trkpt lat="-35.002663" lon="-58.118435">
        <time>2021-05-01T17:57:52Z</time>
      </trkpt>
      <trkpt lat="-35.00262" lon="-58.11838">
        <time>2021-05-01T17:57:54Z</time>
      </trkpt>
      <trkpt lat="-35.002575" lon="-58.11832">
        <time>2021-05-01T17:57:56Z</time>
      </trkpt>
      <trkpt lat="-35.00253" lon="-58.118263">
        <time>2021-05-01T17:57:58Z</time>
      </trkpt>
      <trkpt lat="-35.002487" lon="-58.118206">
        <time>2021-05-01T17:58:00Z</time>
      </trkpt>
      <trkpt lat="-35.002438" lon="-58.118168">
        <time>2021-05-01T17:58:02Z</time>
      </trkpt>
      <trkpt lat="-35.002388" lon="-58.11813">
        <time>2021-05-01T17:58:04Z</time>
      </trkpt>
      <trkpt lat="-35.00235" lon="-58.118084">
        <time>2021-05-01T17:58:06Z</time>
      </trkpt>
      <trkpt lat="-35.002323" lon="-58.118034">
        <time>2021-05-01T17:58:08Z</time>
      </trkpt>
      <trkpt lat="-35.00228" lon="-58.117977">
        <time>2021-05-01T17:58:11Z</time>
      </trkpt>
      <trkpt lat="-35.002228" lon="-58.11793">
        <time>2021-05-01T17:58:14Z</time>
      </trkpt>
      <trkpt lat="-35.00219" lon="-58.117893">
        <time>2021-05-01T17:58:16Z</time>
      </trkpt>
      <trkpt lat="-35.00215" lon="-58.11784">
        <time>2021-05-01T17:58:18Z</time>
      </trkpt>
      <trkpt lat="-35.002113" lon="-58.117794">
        <time>2021-05-01T17:58:20Z</time>
      </trkpt>
      <trkpt lat="-35.002087" lon="-58.117737">
        <time>2021-05-01T17:58:22Z</time>
      </trkpt>
      <trkpt lat="-35.002052" lon="-58.11769">
        <time>2021-05-01T17:58:24Z</time>
      </trkpt>
      <trkpt lat="-35.002014" lon="-58.117645">
        <time>2021-05-01T17:58:26Z</time>
      </trkpt>
      <trkpt lat="-35.001965" lon="-58.117596">
        <time>2021-05-01T17:58:28Z</time>
      </trkpt>
      <trkpt lat="-35.001907" lon="-58.11754">
        <time>2021-05-01T17:58:30Z</time>
      </trkpt>
      <trkpt lat="-35.001854" lon="-58.117485">
        <time>2021-05-01T17:58:32Z</time>
      </trkpt>
      <trkpt lat="-35.001804" lon="-58.117416">
        <time>2021-05-01T17:58:34Z</time>
      </trkpt>
      <trkpt lat="-35.001762" lon="-58.117355">
        <time>2021-05-01T17:58:36Z</time>
      </trkpt>
      <trkpt lat="-35.00172" lon="-58.117306">
        <time>2021-05-01T17:58:38Z</time>
      </trkpt>
      <trkpt lat="-35.001682" lon="-58.11726">
        <time>2021-05-01T17:58:40Z</time>
      </trkpt>
      <trkpt lat="-35.001644" lon="-58.117214">
        <time>2021-05-01T17:58:42Z</time>
      </trkpt>
      <trkpt lat="-35.001602" lon="-58.11716">
        <time>2021-05-01T17:58:44Z</time>
      </trkpt>
      <trkpt lat="-35.001556" lon="-58.11711">
        <time>2021-05-01T17:58:46Z</time>
      </trkpt>
      <trkpt lat="-35.001514" lon="-58.11706">
        <time>2021-05-01T17:58:48Z</time>
      </trkpt>
      <trkpt lat="-35.00146" lon="-58.117004">
        <time>2021-05-01T17:58:50Z</time>
      </trkpt>
      <trkpt lat="-35.001404" lon="-58.11694">
        <time>2021-05-01T17:58:52Z</time>
      </trkpt>
      <trkpt lat="-35.001347" lon="-58.116875">
        <time>2021-05-01T17:58:54Z</time>
      </trkpt>
      <trkpt lat="-35.001278" lon="-58.11682">
        <time>2021-05-01T17:58:56Z</time>
      </trkpt>
      <trkpt lat="-35.001236" lon="-58.116745">
        <time>2021-05-01T17:58:58Z</time>
      </trkpt>
      <trkpt lat="-35.001186" lon="-58.11668">
        <time>2021-05-01T17:59:00Z</time>
      </trkpt>
      <trkpt lat="-35.001125" lon="-58.11662">
        <time>2021-05-01T17:59:02Z</time>
      </trkpt>
      <trkpt lat="-35.001064" lon="-58.116558">
        <time>2021-05-01T17:59:04Z</time>
      </trkpt>
      <trkpt lat="-35.001015" lon="-58.116493">
        <time>2021-05-01T17:59:06Z</time>
      </trkpt>
      <trkpt lat="-35.00097" lon="-58.11644">
        <time>2021-05-01T17:59:08Z</time>
      </trkpt>
      <trkpt lat="-35.00092" lon="-58.11639">
        <time>2021-05-01T17:59:10Z</time>
      </trkpt>
      <trkpt lat="-35.00087" lon="-58.11633">
        <time>2021-05-01T17:59:12Z</time>
      </trkpt>
      <trkpt lat="-35.000816" lon="-58.116264">
        <time>2021-05-01T17:59:14Z</time>
      </trkpt>
      <trkpt lat="-35.000763" lon="-58.116203">
        <time>2021-05-01T17:59:16Z</time>
      </trkpt>
      <trkpt lat="-35.00071" lon="-58.11615">
        <time>2021-05-01T17:59:18Z</time>
      </trkpt>
      <trkpt lat="-35.00066" lon="-58.11609">
        <time>2021-05-01T17:59:20Z</time>
      </trkpt>
      <trkpt lat="-35.00061" lon="-58.116016">
        <time>2021-05-01T17:59:22Z</time>
      </trkpt>
      <trkpt lat="-35.000553" lon="-58.115944">
        <time>2021-05-01T17:59:24Z</time>
      </trkpt>
      <trkpt lat="-35.00049" lon="-58.115875">
        <time>2021-05-01T17:59:26Z</time>
      </trkpt>
      <trkpt lat="-35.000427" lon="-58.115803">
        <time>2021-05-01T17:59:28Z</time>
      </trkpt>
      <trkpt lat="-35.000362" lon="-58.115734">
        <time>2021-05-01T17:59:30Z</time>
      </trkpt>
      <trkpt lat="-35.0003" lon="-58.11566">
        <time>2021-05-01T17:59:32Z</time>
      </trkpt>
      <trkpt lat="-35.00024" lon="-58.115597">
        <time>2021-05-01T17:59:34Z</time>
      </trkpt>
      <trkpt lat="-35.000175" lon="-58.11553">
        <time>2021-05-01T17:59:36Z</time>
      </trkpt>
      <trkpt lat="-35.00011" lon="-58.11545">
        <time>2021-05-01T17:59:38Z</time>
      </trkpt>
      <trkpt lat="-35.00005" lon="-58.115383">
        <time>2021-05-01T17:59:40Z</time>
      </trkpt>
      <trkpt lat="-34.99999" lon="-58.115314">
        <time>2021-05-01T17:59:42Z</time>
      </trkpt>
      <trkpt lat="-34.99993" lon="-58.115246">
        <time>2021-05-01T17:59:44Z</time>
      </trkpt>
      <trkpt lat="-34.99987" lon="-58.115177">
        <time>2021-05-01T17:59:46Z</time>
      </trkpt>
      <trkpt lat="-34.999813" lon="-58.11511">
        <time>2021-05-01T17:59:48Z</time>
      </trkpt>
      <trkpt lat="-34.999752" lon="-58.115036">
        <time>2021-05-01T17:59:50Z</time>
      </trkpt>
      <trkpt lat="-34.999695" lon="-58.114967">
        <time>2021-05-01T17:59:52Z</time>
      </trkpt>
      <trkpt lat="-34.99963" lon="-58.114902">
        <time>2021-05-01T17:59:54Z</time>
      </trkpt>
      <trkpt lat="-34.999565" lon="-58.114834">
        <time>2021-05-01T17:59:56Z</time>
      </trkpt>
      <trkpt lat="-34.999504" lon="-58.11476">
        <time>2021-05-01T17:59:58Z</time>
      </trkpt>
      <trkpt lat="-34.999447" lon="-58.114685">
        <time>2021-05-01T18:00:00Z</time>
      </trkpt>
      <trkpt lat="-34.99939" lon="-58.11462">
        <time>2021-05-01T18:00:02Z</time>
      </trkpt>
      <trkpt lat="-34.999336" lon="-58.11456">
        <time>2021-05-01T18:00:04Z</time>
      </trkpt>
      <trkpt lat="-34.99928" lon="-58.114494">
        <time>2021-05-01T18:00:06Z</time>
      </trkpt>
      <trkpt lat="-34.99922" lon="-58.11442">
        <time>2021-05-01T18:00:08Z</time>
      </trkpt>
      <trkpt lat="-34.99916" lon="-58.114353">
        <time>2021-05-01T18:00:10Z</time>
      </trkpt>
      <trkpt lat="-34.999096" lon="-58.11428">
        <time>2021-05-01T18:00:12Z</time>
      </trkpt>
      <trkpt lat="-34.999035" lon="-58.114212">
        <time>2021-05-01T18:00:14Z</time>
      </trkpt>
      <trkpt lat="-34.998974" lon="-58.11414">
        <time>2021-05-01T18:00:16Z</time>
      </trkpt>
      <trkpt lat="-34.99891" lon="-58.114063">
        <time>2021-05-01T18:00:18Z</time>
      </trkpt>
      <trkpt lat="-34.998848" lon="-58.113983">
        <time>2021-05-01T18:00:20Z</time>
      </trkpt>
      <trkpt lat="-34.998787" lon="-58.113907">
        <time>2021-05-01T18:00:22Z</time>
      </trkpt>
      <trkpt lat="-34.998753" lon="-58.113873">
        <time>2021-05-01T18:00:23Z</time>
      </trkpt>
      <trkpt lat="-34.998688" lon="-58.113796">
        <time>2021-05-01T18:00:25Z</time>
      </trkpt>
      <trkpt lat="-34.998623" lon="-58.11372">
        <time>2021-05-01T18:00:27Z</time>
      </trkpt>
      <trkpt lat="-34.998592" lon="-58.11368">
        <time>2021-05-01T18:00:28Z</time>
      </trkpt>
      <trkpt lat="-34.99856" lon="-58.11364">
        <time>2021-05-01T18:00:29Z</time>
      </trkpt>
      <trkpt lat="-34.998528" lon="-58.1136">
        <time>2021-05-01T18:00:30Z</time>
      </trkpt>
      <trkpt lat="-34.998493" lon="-58.113564">
        <time>2021-05-01T18:00:31Z</time>
      </trkpt>
      <trkpt lat="-34.998463" lon="-58.113518">
        <time>2021-05-01T18:00:32Z</time>
      </trkpt>
      <trkpt lat="-34.99843" lon="-58.11348">
        <time>2021-05-01T18:00:33Z</time>
      </trkpt>
      <trkpt lat="-34.998394" lon="-58.11344">
        <time>2021-05-01T18:00:34Z</time>
      </trkpt>
      <trkpt lat="-34.99836" lon="-58.1134">
        <time>2021-05-01T18:00:35Z</time>
      </trkpt>
      <trkpt lat="-34.998325" lon="-58.11336">
        <time>2021-05-01T18:00:36Z</time>
      </trkpt>
      <trkpt lat="-34.99829" lon="-58.113323">
        <time>2021-05-01T18:00:37Z</time>
      </trkpt>
      <trkpt lat="-34.998257" lon="-58.113285">
        <time>2021-05-01T18:00:38Z</time>
      </trkpt>
      <trkpt lat="-34.998226" lon="-58.113243">
        <time>2021-05-01T18:00:39Z</time>
      </trkpt>
      <trkpt lat="-34.998188" lon="-58.113205">
        <time>2021-05-01T18:00:40Z</time>
      </trkpt>
      <trkpt lat="-34.998154" lon="-58.113167">
        <time>2021-05-01T18:00:41Z</time>
      </trkpt>
      <trkpt lat="-34.99812" lon="-58.113125">
        <time>2021-05-01T18:00:42Z</time>
      </trkpt>
      <trkpt lat="-34.998085" lon="-58.11308">
        <time>2021-05-01T18:00:43Z</time>
      </trkpt>
      <trkpt lat="-34.99805" lon="-58.113033">
        <time>2021-05-01T18:00:44Z</time>
      </trkpt>
      <trkpt lat="-34.998016" lon="-58.11299">
        <time>2021-05-01T18:00:45Z</time>
      </trkpt>
      <trkpt lat="-34.997982" lon="-58.11295">
        <time>2021-05-01T18:00:46Z</time>
      </trkpt>
      <trkpt lat="-34.997944" lon="-58.112907">
        <time>2021-05-01T18:00:47Z</time>
      </trkpt>
      <trkpt lat="-34.99791" lon="-58.112865">
        <time>2021-05-01T18:00:48Z</time>
      </trkpt>
      <trkpt lat="-34.99787" lon="-58.112827">
        <time>2021-05-01T18:00:49Z</time>
      </trkpt>
      <trkpt lat="-34.997837" lon="-58.112785">
        <time>2021-05-01T18:00:50Z</time>
      </trkpt>
      <trkpt lat="-34.9978" lon="-58.112747">
        <time>2021-05-01T18:00:51Z</time>
      </trkpt>
      <trkpt lat="-34.99776" lon="-58.11271">
        <time>2021-05-01T18:00:52Z</time>
      </trkpt>
      <trkpt lat="-34.997726" lon="-58.112667">
        <time>2021-05-01T18:00:53Z</time>
      </trkpt>
      <trkpt lat="-34.99769" lon="-58.112625">
        <time>2021-05-01T18:00:54Z</time>
      </trkpt>
      <trkpt lat="-34.997654" lon="-58.112583">
        <time>2021-05-01T18:00:55Z</time>
      </trkpt>
      <trkpt lat="-34.99762" lon="-58.11254">
        <time>2021-05-01T18:00:56Z</time>
      </trkpt>
      <trkpt lat="-34.997585" lon="-58.1125">
        <time>2021-05-01T18:00:57Z</time>
      </trkpt>
      <trkpt lat="-34.997547" lon="-58.112457">
        <time>2021-05-01T18:00:58Z</time>
      </trkpt>
      <trkpt lat="-34.997513" lon="-58.112415">
        <time>2021-05-01T18:00:59Z</time>
      </trkpt>
      <trkpt lat="-34.997475" lon="-58.112373">
        <time>2021-05-01T18:01:00Z</time>
      </trkpt>
      <trkpt lat="-34.99744" lon="-58.11233">
        <time>2021-05-01T18:01:01Z</time>
      </trkpt>
      <trkpt lat="-34.997402" lon="-58.11229">
        <time>2021-05-01T18:01:02Z</time>
      </trkpt>
      <trkpt lat="-34.997364" lon="-58.112247">
        <time>2021-05-01T18:01:03Z</time>
      </trkpt>
      <trkpt lat="-34.99733" lon="-58.1122">
        <time>2021-05-01T18:01:04Z</time>
      </trkpt>
      <trkpt lat="-34.99729" lon="-58.11216">
        <time>2021-05-01T18:01:05Z</time>
      </trkpt>
      <trkpt lat="-34.997253" lon="-58.112114">
        <time>2021-05-01T18:01:06Z</time>
      </trkpt>
      <trkpt lat="-34.997215" lon="-58.112072">
        <time>2021-05-01T18:01:07Z</time>
      </trkpt>
      <trkpt lat="-34.997177" lon="-58.112034">
        <time>2021-05-01T18:01:08Z</time>
      </trkpt>
      <trkpt lat="-34.997143" lon="-58.11199">
        <time>2021-05-01T18:01:09Z</time>
      </trkpt>
      <trkpt lat="-34.99711" lon="-58.111954">
        <time>2021-05-01T18:01:10Z</time>
      </trkpt>
      <trkpt lat="-34.997074" lon="-58.11191">
        <time>2021-05-01T18:01:11Z</time>
      </trkpt>
      <trkpt lat="-34.997036" lon="-58.11187">
        <time>2021-05-01T18:01:12Z</time>
      </trkpt>
      <trkpt lat="-34.997" lon="-58.111828">
        <time>2021-05-01T18:01:13Z</time>
      </trkpt>
      <trkpt lat="-34.996964" lon="-58.111786">
        <time>2021-05-01T18:01:14Z</time>
      </trkpt>
      <trkpt lat="-34.996925" lon="-58.11174">
        <time>2021-05-01T18:01:15Z</time>
      </trkpt>
      <trkpt lat="-34.996887" lon="-58.111694">
        <time>2021-05-01T18:01:16Z</time>
      </trkpt>
      <trkpt lat="-34.99685" lon="-58.11165">
        <time>2021-05-01T18:01:17Z</time>
      </trkpt>
      <trkpt lat="-34.99681" lon="-58.111603">
        <time>2021-05-01T18:01:18Z</time>
      </trkpt>
      <trkpt lat="-34.996773" lon="-58.111557">
        <time>2021-05-01T18:01:19Z</time>
      </trkpt>
      <trkpt lat="-34.99673" lon="-58.111515">
        <time>2021-05-01T18:01:20Z</time>
      </trkpt>
      <trkpt lat="-34.996696" lon="-58.11147">
        <time>2021-05-01T18:01:21Z</time>
      </trkpt>
      <trkpt lat="-34.99666" lon="-58.111423">
        <time>2021-05-01T18:01:22Z</time>
      </trkpt>
      <trkpt lat="-34.99662" lon="-58.11138">
        <time>2021-05-01T18:01:23Z</time>
      </trkpt>
      <trkpt lat="-34.996582" lon="-58.111336">
        <time>2021-05-01T18:01:24Z</time>
      </trkpt>
      <trkpt lat="-34.996544" lon="-58.111294">
        <time>2021-05-01T18:01:25Z</time>
      </trkpt>
      <trkpt lat="-34.99651" lon="-58.111248">
        <time>2021-05-01T18:01:26Z</time>
      </trkpt>
      <trkpt lat="-34.99647" lon="-58.111206">
        <time>2021-05-01T18:01:27Z</time>
      </trkpt>
      <trkpt lat="-34.996433" lon="-58.11116">
        <time>2021-05-01T18:01:28Z</time>
      </trkpt>
      <trkpt lat="-34.996395" lon="-58.11112">
        <time>2021-05-01T18:01:29Z</time>
      </trkpt>
      <trkpt lat="-34.99636" lon="-58.111073">
        <time>2021-05-01T18:01:30Z</time>
      </trkpt>
      <trkpt lat="-34.996323" lon="-58.11103">
        <time>2021-05-01T18:01:31Z</time>
      </trkpt>
      <trkpt lat="-34.996284" lon="-58.110985">
        <time>2021-05-01T18:01:32Z</time>
      </trkpt>
      <trkpt lat="-34.996246" lon="-58.11094">
        <time>2021-05-01T18:01:33Z</time>
      </trkpt>
      <trkpt lat="-34.996212" lon="-58.110897">
        <time>2021-05-01T18:01:34Z</time>
      </trkpt>
      <trkpt lat="-34.996174" lon="-58.11085">
        <time>2021-05-01T18:01:35Z</time>
      </trkpt>
      <trkpt lat="-34.996136" lon="-58.110806">
        <time>2021-05-01T18:01:36Z</time>
      </trkpt>
      <trkpt lat="-34.996098" lon="-58.110764">
        <time>2021-05-01T18:01:37Z</time>
      </trkpt>
      <trkpt lat="-34.99606" lon="-58.11072">
        <time>2021-05-01T18:01:38Z</time>
      </trkpt>
      <trkpt lat="-34.996025" lon="-58.110676">
        <time>2021-05-01T18:01:39Z</time>
      </trkpt>
      <trkpt lat="-34.99599" lon="-58.110638">
        <time>2021-05-01T18:01:40Z</time>
      </trkpt>
      <trkpt lat="-34.995956" lon="-58.110596">
        <time>2021-05-01T18:01:41Z</time>
      </trkpt>
      <trkpt lat="-34.995926" lon="-58.110558">
        <time>2021-05-01T18:01:42Z</time>
      </trkpt>
      <trkpt lat="-34.99589" lon="-58.11052">
        <time>2021-05-01T18:01:43Z</time>
      </trkpt>
      <trkpt lat="-34.995857" lon="-58.11048">
        <time>2021-05-01T18:01:44Z</time>
      </trkpt>
      <trkpt lat="-34.995823" lon="-58.110443">
        <time>2021-05-01T18:01:45Z</time>
      </trkpt>
      <trkpt lat="-34.99579" lon="-58.1104">
        <time>2021-05-01T18:01:46Z</time>
      </trkpt>
      <trkpt lat="-34.995754" lon="-58.110363">
        <time>2021-05-01T18:01:47Z</time>
      </trkpt>
      <trkpt lat="-34.99572" lon="-58.11032">
        <time>2021-05-01T18:01:48Z</time>
      </trkpt>
      <trkpt lat="-34.99569" lon="-58.110283">
        <time>2021-05-01T18:01:49Z</time>
      </trkpt>
      <trkpt lat="-34.995625" lon="-58.11021">
        <time>2021-05-01T18:01:51Z</time>
      </trkpt>
      <trkpt lat="-34.99556" lon="-58.110134">
        <time>2021-05-01T18:01:53Z</time>
      </trkpt>
      <trkpt lat="-34.995525" lon="-58.1101">
        <time>2021-05-01T18:01:54Z</time>
      </trkpt>
      <trkpt lat="-34.995495" lon="-58.11006">
        <time>2021-05-01T18:01:55Z</time>
      </trkpt>
      <trkpt lat="-34.995434" lon="-58.109993">
        <time>2021-05-01T18:01:57Z</time>
      </trkpt>
      <trkpt lat="-34.99538" lon="-58.109924">
        <time>2021-05-01T18:01:59Z</time>
      </trkpt>
      <trkpt lat="-34.995323" lon="-58.109856">
        <time>2021-05-01T18:02:01Z</time>
      </trkpt>
      <trkpt lat="-34.995262" lon="-58.109783">
        <time>2021-05-01T18:02:03Z</time>
      </trkpt>
      <trkpt lat="-34.995197" lon="-58.10971">
        <time>2021-05-01T18:02:05Z</time>
      </trkpt>
      <trkpt lat="-34.995132" lon="-58.109634">
        <time>2021-05-01T18:02:07Z</time>
      </trkpt>
      <trkpt lat="-34.995068" lon="-58.109562">
        <time>2021-05-01T18:02:09Z</time>
      </trkpt>
      <trkpt lat="-34.995033" lon="-58.109524">
        <time>2021-05-01T18:02:10Z</time>
      </trkpt>
      <trkpt lat="-34.995" lon="-58.109486">
        <time>2021-05-01T18:02:11Z</time>
      </trkpt>
      <trkpt lat="-34.99496" lon="-58.10945">
        <time>2021-05-01T18:02:12Z</time>
      </trkpt>
      <trkpt lat="-34.9949" lon="-58.10937">
        <time>2021-05-01T18:02:14Z</time>
      </trkpt>
      <trkpt lat="-34.994865" lon="-58.10933">
        <time>2021-05-01T18:02:15Z</time>
      </trkpt>
      <trkpt lat="-34.99483" lon="-58.109287">
        <time>2021-05-01T18:02:16Z</time>
      </trkpt>
      <trkpt lat="-34.994797" lon="-58.10925">
        <time>2021-05-01T18:02:17Z</time>
      </trkpt>
      <trkpt lat="-34.994762" lon="-58.109207">
        <time>2021-05-01T18:02:18Z</time>
      </trkpt>
      <trkpt lat="-34.994728" lon="-58.109165">
        <time>2021-05-01T18:02:19Z</time>
      </trkpt>
      <trkpt lat="-34.99469" lon="-58.109123">
        <time>2021-05-01T18:02:20Z</time>
      </trkpt>
      <trkpt lat="-34.994656" lon="-58.10908">
        <time>2021-05-01T18:02:21Z</time>
      </trkpt>
      <trkpt lat="-34.994617" lon="-58.10904">
        <time>2021-05-01T18:02:22Z</time>
      </trkpt>
      <trkpt lat="-34.994583" lon="-58.109">
        <time>2021-05-01T18:02:23Z</time>
      </trkpt>
      <trkpt lat="-34.99455" lon="-58.10896">
        <time>2021-05-01T18:02:24Z</time>
      </trkpt>
      <trkpt lat="-34.99451" lon="-58.108917">
        <time>2021-05-01T18:02:25Z</time>
      </trkpt>
      <trkpt lat="-34.994476" lon="-58.108875">
        <time>2021-05-01T18:02:26Z</time>
      </trkpt>
      <trkpt lat="-34.99444" lon="-58.108833">
        <time>2021-05-01T18:02:27Z</time>
      </trkpt>
      <trkpt lat="-34.994404" lon="-58.10879">
        <time>2021-05-01T18:02:28Z</time>
      </trkpt>
      <trkpt lat="-34.994366" lon="-58.108753">
        <time>2021-05-01T18:02:29Z</time>
      </trkpt>
      <trkpt lat="-34.99433" lon="-58.10871">
        <time>2021-05-01T18:02:30Z</time>
      </trkpt>
      <trkpt lat="-34.994297" lon="-58.10867">
        <time>2021-05-01T18:02:31Z</time>
      </trkpt>
      <trkpt lat="-34.99426" lon="-58.108627">
        <time>2021-05-01T18:02:32Z</time>
      </trkpt>
      <trkpt lat="-34.99422" lon="-58.108585">
        <time>2021-05-01T18:02:33Z</time>
      </trkpt>
      <trkpt lat="-34.994183" lon="-58.108543">
        <time>2021-05-01T18:02:34Z</time>
      </trkpt>
      <trkpt lat="-34.99415" lon="-58.108498">
        <time>2021-05-01T18:02:35Z</time>
      </trkpt>
      <trkpt lat="-34.99411" lon="-58.108456">
        <time>2021-05-01T18:02:36Z</time>
      </trkpt>
      <trkpt lat="-34.994076" lon="-58.108414">
        <time>2021-05-01T18:02:37Z</time>
      </trkpt>
      <trkpt lat="-34.994038" lon="-58.108376">
        <time>2021-05-01T18:02:38Z</time>
      </trkpt>
      <trkpt lat="-34.994003" lon="-58.108337">
        <time>2021-05-01T18:02:39Z</time>
      </trkpt>
      <trkpt lat="-34.99397" lon="-58.1083">
        <time>2021-05-01T18:02:40Z</time>
      </trkpt>
      <trkpt lat="-34.99394" lon="-58.108257">
        <time>2021-05-01T18:02:41Z</time>
      </trkpt>
      <trkpt lat="-34.993904" lon="-58.108215">
        <time>2021-05-01T18:02:42Z</time>
      </trkpt>
      <trkpt lat="-34.99387" lon="-58.108173">
        <time>2021-05-01T18:02:43Z</time>
      </trkpt>
      <trkpt lat="-34.99383" lon="-58.108135">
        <time>2021-05-01T18:02:44Z</time>
      </trkpt>
      <trkpt lat="-34.993793" lon="-58.108093">
        <time>2021-05-01T18:02:45Z</time>
      </trkpt>
      <trkpt lat="-34.993755" lon="-58.10805">
        <time>2021-05-01T18:02:46Z</time>
      </trkpt>
      <trkpt lat="-34.99372" lon="-58.10801">
        <time>2021-05-01T18:02:47Z</time>
      </trkpt>
      <trkpt lat="-34.993687" lon="-58.107967">
        <time>2021-05-01T18:02:48Z</time>
      </trkpt>
      <trkpt lat="-34.99365" lon="-58.10793">
        <time>2021-05-01T18:02:49Z</time>
      </trkpt>
      <trkpt lat="-34.99361" lon="-58.107883">
        <time>2021-05-01T18:02:50Z</time>
      </trkpt>
      <trkpt lat="-34.993572" lon="-58.10784">
        <time>2021-05-01T18:02:51Z</time>
      </trkpt>
      <trkpt lat="-34.993534" lon="-58.107803">
        <time>2021-05-01T18:02:52Z</time>
      </trkpt>
      <trkpt lat="-34.993496" lon="-58.107758">
        <time>2021-05-01T18:02:53Z</time>
      </trkpt>
      <trkpt lat="-34.993458" lon="-58.10771">
        <time>2021-05-01T18:02:54Z</time>
      </trkpt>
      <trkpt lat="-34.99342" lon="-58.107666">
        <time>2021-05-01T18:02:55Z</time>
      </trkpt>
      <trkpt lat="-34.993378" lon="-58.10762">
        <time>2021-05-01T18:02:56Z</time>
      </trkpt>
      <trkpt lat="-34.993336" lon="-58.107582">
        <time>2021-05-01T18:02:57Z</time>
      </trkpt>
      <trkpt lat="-34.993298" lon="-58.107533">
        <time>2021-05-01T18:02:58Z</time>
      </trkpt>
      <trkpt lat="-34.993263" lon="-58.10748">
        <time>2021-05-01T18:02:59Z</time>
      </trkpt>
      <trkpt lat="-34.99323" lon="-58.10742">
        <time>2021-05-01T18:03:00Z</time>
      </trkpt>
      <trkpt lat="-34.993187" lon="-58.107372">
        <time>2021-05-01T18:03:01Z</time>
      </trkpt>
      <trkpt lat="-34.993145" lon="-58.10733">
        <time>2021-05-01T18:03:02Z</time>
      </trkpt>
      <trkpt lat="-34.993107" lon="-58.107285">
        <time>2021-05-01T18:03:03Z</time>
      </trkpt>
      <trkpt lat="-34.99307" lon="-58.10724">
        <time>2021-05-01T18:03:04Z</time>
      </trkpt>
      <trkpt lat="-34.99303" lon="-58.107193">
        <time>2021-05-01T18:03:05Z</time>
      </trkpt>
      <trkpt lat="-34.992992" lon="-58.107147">
        <time>2021-05-01T18:03:06Z</time>
      </trkpt>
      <trkpt lat="-34.992954" lon="-58.107105">
        <time>2021-05-01T18:03:07Z</time>
      </trkpt>
      <trkpt lat="-34.992916" lon="-58.10706">
        <time>2021-05-01T18:03:08Z</time>
      </trkpt>
      <trkpt lat="-34.992878" lon="-58.107014">
        <time>2021-05-01T18:03:09Z</time>
      </trkpt>
      <trkpt lat="-34.99284" lon="-58.10697">
        <time>2021-05-01T18:03:10Z</time>
      </trkpt>
      <trkpt lat="-34.9928" lon="-58.106926">
        <time>2021-05-01T18:03:11Z</time>
      </trkpt>
      <trkpt lat="-34.99276" lon="-58.106888">
        <time>2021-05-01T18:03:12Z</time>
      </trkpt>
      <trkpt lat="-34.99272" lon="-58.106846">
        <time>2021-05-01T18:03:13Z</time>
      </trkpt>
      <trkpt lat="-34.992683" lon="-58.1068">
        <time>2021-05-01T18:03:14Z</time>
      </trkpt>
      <trkpt lat="-34.99265" lon="-58.10676">
        <time>2021-05-01T18:03:15Z</time>
      </trkpt>
      <trkpt lat="-34.99261" lon="-58.10672">
        <time>2021-05-01T18:03:16Z</time>
      </trkpt>
      <trkpt lat="-34.992577" lon="-58.106674">
        <time>2021-05-01T18:03:17Z</time>
      </trkpt>
      <trkpt lat="-34.992542" lon="-58.106632">
        <time>2021-05-01T18:03:18Z</time>
      </trkpt>
      <trkpt lat="-34.992477" lon="-58.106556">
        <time>2021-05-01T18:03:20Z</time>
      </trkpt>
      <trkpt lat="-34.99244" lon="-58.106514">
        <time>2021-05-01T18:03:21Z</time>
      </trkpt>
      <trkpt lat="-34.992397" lon="-58.106476">
        <time>2021-05-01T18:03:22Z</time>
      </trkpt>
      <trkpt lat="-34.992363" lon="-58.106438">
        <time>2021-05-01T18:03:23Z</time>
      </trkpt>
      <trkpt lat="-34.99233" lon="-58.1064">
        <time>2021-05-01T18:03:24Z</time>
      </trkpt>
      <trkpt lat="-34.992294" lon="-58.106365">
        <time>2021-05-01T18:03:25Z</time>
      </trkpt>
      <trkpt lat="-34.992226" lon="-58.106293">
        <time>2021-05-01T18:03:27Z</time>
      </trkpt>
      <trkpt lat="-34.992195" lon="-58.10625">
        <time>2021-05-01T18:03:28Z</time>
      </trkpt>
      <trkpt lat="-34.992165" lon="-58.10621">
        <time>2021-05-01T18:03:29Z</time>
      </trkpt>
      <trkpt lat="-34.99213" lon="-58.106167">
        <time>2021-05-01T18:03:30Z</time>
      </trkpt>
      <trkpt lat="-34.992092" lon="-58.106125">
        <time>2021-05-01T18:03:31Z</time>
      </trkpt>
      <trkpt lat="-34.992058" lon="-58.106083">
        <time>2021-05-01T18:03:32Z</time>
      </trkpt>
      <trkpt lat="-34.992023" lon="-58.10604">
        <time>2021-05-01T18:03:33Z</time>
      </trkpt>
      <trkpt lat="-34.991985" lon="-58.106">
        <time>2021-05-01T18:03:34Z</time>
      </trkpt>
      <trkpt lat="-34.99195" lon="-58.105957">
        <time>2021-05-01T18:03:35Z</time>
      </trkpt>
      <trkpt lat="-34.991913" lon="-58.105915">
        <time>2021-05-01T18:03:36Z</time>
      </trkpt>
      <trkpt lat="-34.99188" lon="-58.105873">
        <time>2021-05-01T18:03:37Z</time>
      </trkpt>
      <trkpt lat="-34.991844" lon="-58.10583">
        <time>2021-05-01T18:03:38Z</time>
      </trkpt>
      <trkpt lat="-34.99181" lon="-58.10579">
        <time>2021-05-01T18:03:39Z</time>
      </trkpt>
      <trkpt lat="-34.991776" lon="-58.105747">
        <time>2021-05-01T18:03:40Z</time>
      </trkpt>
      <trkpt lat="-34.991737" lon="-58.105705">
        <time>2021-05-01T18:03:41Z</time>
      </trkpt>
      <trkpt lat="-34.991703" lon="-58.10566">
        <time>2021-05-01T18:03:42Z</time>
      </trkpt>
      <trkpt lat="-34.99166" lon="-58.105618">
        <time>2021-05-01T18:03:43Z</time>
      </trkpt>
      <trkpt lat="-34.991623" lon="-58.105576">
        <time>2021-05-01T18:03:44Z</time>
      </trkpt>
      <trkpt lat="-34.991585" lon="-58.105534">
        <time>2021-05-01T18:03:45Z</time>
      </trkpt>
      <trkpt lat="-34.99155" lon="-58.10549">
        <time>2021-05-01T18:03:46Z</time>
      </trkpt>
      <trkpt lat="-34.991512" lon="-58.10545">
        <time>2021-05-01T18:03:47Z</time>
      </trkpt>
      <trkpt lat="-34.991474" lon="-58.105404">
        <time>2021-05-01T18:03:48Z</time>
      </trkpt>
      <trkpt lat="-34.99144" lon="-58.10536">
        <time>2021-05-01T18:03:49Z</time>
      </trkpt>
      <trkpt lat="-34.991405" lon="-58.105312">
        <time>2021-05-01T18:03:50Z</time>
      </trkpt>
      <trkpt lat="-34.991367" lon="-58.105267">
        <time>2021-05-01T18:03:51Z</time>
      </trkpt>
      <trkpt lat="-34.99133" lon="-58.105225">
        <time>2021-05-01T18:03:52Z</time>
      </trkpt>
      <trkpt lat="-34.99129" lon="-58.105183">
        <time>2021-05-01T18:03:53Z</time>
      </trkpt>
      <trkpt lat="-34.991253" lon="-58.105145">
        <time>2021-05-01T18:03:54Z</time>
      </trkpt>
      <trkpt lat="-34.991215" lon="-58.105103">
        <time>2021-05-01T18:03:55Z</time>
      </trkpt>
      <trkpt lat="-34.99118" lon="-58.10506">
        <time>2021-05-01T18:03:56Z</time>
      </trkpt>
      <trkpt lat="-34.991142" lon="-58.10502">
        <time>2021-05-01T18:03:57Z</time>
      </trkpt>
      <trkpt lat="-34.991108" lon="-58.104977">
        <time>2021-05-01T18:03:58Z</time>
      </trkpt>
      <trkpt lat="-34.991074" lon="-58.104935">
        <time>2021-05-01T18:03:59Z</time>
      </trkpt>
      <trkpt lat="-34.991035" lon="-58.104897">
        <time>2021-05-01T18:04:00Z</time>
      </trkpt>
      <trkpt lat="-34.991" lon="-58.10485">
        <time>2021-05-01T18:04:01Z</time>
      </trkpt>
      <trkpt lat="-34.990963" lon="-58.104813">
        <time>2021-05-01T18:04:02Z</time>
      </trkpt>
      <trkpt lat="-34.990925" lon="-58.10477">
        <time>2021-05-01T18:04:03Z</time>
      </trkpt>
      <trkpt lat="-34.990887" lon="-58.10473">
        <time>2021-05-01T18:04:04Z</time>
      </trkpt>
      <trkpt lat="-34.990852" lon="-58.104687">
        <time>2021-05-01T18:04:05Z</time>
      </trkpt>
      <trkpt lat="-34.990818" lon="-58.10465">
        <time>2021-05-01T18:04:06Z</time>
      </trkpt>
      <trkpt lat="-34.99078" lon="-58.10461">
        <time>2021-05-01T18:04:07Z</time>
      </trkpt>
      <trkpt lat="-34.990746" lon="-58.10457">
        <time>2021-05-01T18:04:08Z</time>
      </trkpt>
      <trkpt lat="-34.99071" lon="-58.104527">
        <time>2021-05-01T18:04:09Z</time>
      </trkpt>
      <trkpt lat="-34.990677" lon="-58.104485">
        <time>2021-05-01T18:04:10Z</time>
      </trkpt>
      <trkpt lat="-34.99064" lon="-58.104446">
        <time>2021-05-01T18:04:11Z</time>
      </trkpt>
      <trkpt lat="-34.9906" lon="-58.10441">
        <time>2021-05-01T18:04:12Z</time>
      </trkpt>
      <trkpt lat="-34.990566" lon="-58.104366">
        <time>2021-05-01T18:04:13Z</time>
      </trkpt>
      <trkpt lat="-34.990532" lon="-58.10432">
        <time>2021-05-01T18:04:14Z</time>
      </trkpt>
      <trkpt lat="-34.990498" lon="-58.10428">
        <time>2021-05-01T18:04:15Z</time>
      </trkpt>
      <trkpt lat="-34.99046" lon="-58.104237">
        <time>2021-05-01T18:04:16Z</time>
      </trkpt>
      <trkpt lat="-34.990425" lon="-58.104195">
        <time>2021-05-01T18:04:17Z</time>
      </trkpt>
      <trkpt lat="-34.990387" lon="-58.104153">
        <time>2021-05-01T18:04:18Z</time>
      </trkpt>
      <trkpt lat="-34.990353" lon="-58.10411">
        <time>2021-05-01T18:04:19Z</time>
      </trkpt>
      <trkpt lat="-34.99032" lon="-58.104076">
        <time>2021-05-01T18:04:20Z</time>
      </trkpt>
      <trkpt lat="-34.990253" lon="-58.104">
        <time>2021-05-01T18:04:22Z</time>
      </trkpt>
      <trkpt lat="-34.99022" lon="-58.10396">
        <time>2021-05-01T18:04:23Z</time>
      </trkpt>
      <trkpt lat="-34.990185" lon="-58.10392">
        <time>2021-05-01T18:04:24Z</time>
      </trkpt>
      <trkpt lat="-34.99015" lon="-58.103878">
        <time>2021-05-01T18:04:25Z</time>
      </trkpt>
      <trkpt lat="-34.990116" lon="-58.10384">
        <time>2021-05-01T18:04:26Z</time>
      </trkpt>
      <trkpt lat="-34.990078" lon="-58.1038">
        <time>2021-05-01T18:04:27Z</time>
      </trkpt>
      <trkpt lat="-34.990044" lon="-58.103764">
        <time>2021-05-01T18:04:28Z</time>
      </trkpt>
      <trkpt lat="-34.99001" lon="-58.10372">
        <time>2021-05-01T18:04:29Z</time>
      </trkpt>
      <trkpt lat="-34.989975" lon="-58.10368">
        <time>2021-05-01T18:04:30Z</time>
      </trkpt>
      <trkpt lat="-34.989937" lon="-58.10364">
        <time>2021-05-01T18:04:31Z</time>
      </trkpt>
      <trkpt lat="-34.989902" lon="-58.1036">
        <time>2021-05-01T18:04:32Z</time>
      </trkpt>
      <trkpt lat="-34.989864" lon="-58.10356">
        <time>2021-05-01T18:04:33Z</time>
      </trkpt>
      <trkpt lat="-34.98983" lon="-58.10352">
        <time>2021-05-01T18:04:34Z</time>
      </trkpt>
      <trkpt lat="-34.98979" lon="-58.103477">
        <time>2021-05-01T18:04:35Z</time>
      </trkpt>
      <trkpt lat="-34.989754" lon="-58.103436">
        <time>2021-05-01T18:04:36Z</time>
      </trkpt>
      <trkpt lat="-34.98972" lon="-58.103394">
        <time>2021-05-01T18:04:37Z</time>
      </trkpt>
      <trkpt lat="-34.98968" lon="-58.10335">
        <time>2021-05-01T18:04:38Z</time>
      </trkpt>
      <trkpt lat="-34.989643" lon="-58.103306">
        <time>2021-05-01T18:04:39Z</time>
      </trkpt>
      <trkpt lat="-34.98961" lon="-58.103264">
        <time>2021-05-01T18:04:40Z</time>
      </trkpt>
      <trkpt lat="-34.989574" lon="-58.10322">
        <time>2021-05-01T18:04:41Z</time>
      </trkpt>
      <trkpt lat="-34.98954" lon="-58.103184">
        <time>2021-05-01T18:04:42Z</time>
      </trkpt>
      <trkpt lat="-34.989506" lon="-58.10314">
        <time>2021-05-01T18:04:43Z</time>
      </trkpt>
      <trkpt lat="-34.98947" lon="-58.1031">
        <time>2021-05-01T18:04:44Z</time>
      </trkpt>
      <trkpt lat="-34.989433" lon="-58.10306">
        <time>2021-05-01T18:04:45Z</time>
      </trkpt>
      <trkpt lat="-34.9894" lon="-58.103024">
        <time>2021-05-01T18:04:46Z</time>
      </trkpt>
      <trkpt lat="-34.98936" lon="-58.10298">
        <time>2021-05-01T18:04:47Z</time>
      </trkpt>
      <trkpt lat="-34.98933" lon="-58.10294">
        <time>2021-05-01T18:04:48Z</time>
      </trkpt>
      <trkpt lat="-34.989296" lon="-58.102898">
        <time>2021-05-01T18:04:49Z</time>
      </trkpt>
      <trkpt lat="-34.98926" lon="-58.102856">
        <time>2021-05-01T18:04:50Z</time>
      </trkpt>
      <trkpt lat="-34.989193" lon="-58.10278">
        <time>2021-05-01T18:04:52Z</time>
      </trkpt>
      <trkpt lat="-34.989155" lon="-58.10274">
        <time>2021-05-01T18:04:53Z</time>
      </trkpt>
      <trkpt lat="-34.989117" lon="-58.1027">
        <time>2021-05-01T18:04:54Z</time>
      </trkpt>
      <trkpt lat="-34.989082" lon="-58.102657">
        <time>2021-05-01T18:04:55Z</time>
      </trkpt>
      <trkpt lat="-34.989044" lon="-58.10261">
        <time>2021-05-01T18:04:56Z</time>
      </trkpt>
      <trkpt lat="-34.989006" lon="-58.10257">
        <time>2021-05-01T18:04:57Z</time>
      </trkpt>
      <trkpt lat="-34.98896" lon="-58.10252">
        <time>2021-05-01T18:04:58Z</time>
      </trkpt>
      <trkpt lat="-34.98892" lon="-58.102478">
        <time>2021-05-01T18:04:59Z</time>
      </trkpt>
      <trkpt lat="-34.98888" lon="-58.10244">
        <time>2021-05-01T18:05:00Z</time>
      </trkpt>
      <trkpt lat="-34.988842" lon="-58.102394">
        <time>2021-05-01T18:05:01Z</time>
      </trkpt>
      <trkpt lat="-34.988808" lon="-58.10235">
        <time>2021-05-01T18:05:02Z</time>
      </trkpt>
      <trkpt lat="-34.98877" lon="-58.102306">
        <time>2021-05-01T18:05:03Z</time>
      </trkpt>
      <trkpt lat="-34.988735" lon="-58.102264">
        <time>2021-05-01T18:05:04Z</time>
      </trkpt>
      <trkpt lat="-34.9887" lon="-58.102222">
        <time>2021-05-01T18:05:05Z</time>
      </trkpt>
      <trkpt lat="-34.98867" lon="-58.10218">
        <time>2021-05-01T18:05:06Z</time>
      </trkpt>
      <trkpt lat="-34.988632" lon="-58.10214">
        <time>2021-05-01T18:05:07Z</time>
      </trkpt>
      <trkpt lat="-34.988594" lon="-58.102093">
        <time>2021-05-01T18:05:08Z</time>
      </trkpt>
      <trkpt lat="-34.98856" lon="-58.10205">
        <time>2021-05-01T18:05:09Z</time>
      </trkpt>
      <trkpt lat="-34.98852" lon="-58.10201">
        <time>2021-05-01T18:05:10Z</time>
      </trkpt>
      <trkpt lat="-34.988487" lon="-58.101963">
        <time>2021-05-01T18:05:11Z</time>
      </trkpt>
      <trkpt lat="-34.988453" lon="-58.101925">
        <time>2021-05-01T18:05:12Z</time>
      </trkpt>
      <trkpt lat="-34.98842" lon="-58.101887">
        <time>2021-05-01T18:05:13Z</time>
      </trkpt>
      <trkpt lat="-34.98835" lon="-58.101826">
        <time>2021-05-01T18:05:15Z</time>
      </trkpt>
      <trkpt lat="-34.988277" lon="-58.101765">
        <time>2021-05-01T18:05:17Z</time>
      </trkpt>
      <trkpt lat="-34.98824" lon="-58.10173">
        <time>2021-05-01T18:05:18Z</time>
      </trkpt>
      <trkpt lat="-34.9882" lon="-58.101692">
        <time>2021-05-01T18:05:19Z</time>
      </trkpt>
      <trkpt lat="-34.98816" lon="-58.101654">
        <time>2021-05-01T18:05:20Z</time>
      </trkpt>
      <trkpt lat="-34.98812" lon="-58.101612">
        <time>2021-05-01T18:05:21Z</time>
      </trkpt>
      <trkpt lat="-34.988083" lon="-58.101574">
        <time>2021-05-01T18:05:22Z</time>
      </trkpt>
      <trkpt lat="-34.988045" lon="-58.10154">
        <time>2021-05-01T18:05:23Z</time>
      </trkpt>
      <trkpt lat="-34.988014" lon="-58.101498">
        <time>2021-05-01T18:05:24Z</time>
      </trkpt>
      <trkpt lat="-34.98798" lon="-58.101456">
        <time>2021-05-01T18:05:25Z</time>
      </trkpt>
      <trkpt lat="-34.987946" lon="-58.101414">
        <time>2021-05-01T18:05:26Z</time>
      </trkpt>
      <trkpt lat="-34.98791" lon="-58.10137">
        <time>2021-05-01T18:05:27Z</time>
      </trkpt>
      <trkpt lat="-34.987877" lon="-58.101326">
        <time>2021-05-01T18:05:28Z</time>
      </trkpt>
      <trkpt lat="-34.987843" lon="-58.10128">
        <time>2021-05-01T18:05:29Z</time>
      </trkpt>
      <trkpt lat="-34.987804" lon="-58.101242">
        <time>2021-05-01T18:05:30Z</time>
      </trkpt>
      <trkpt lat="-34.987766" lon="-58.101196">
        <time>2021-05-01T18:05:31Z</time>
      </trkpt>
      <trkpt lat="-34.987732" lon="-58.101154">
        <time>2021-05-01T18:05:32Z</time>
      </trkpt>
      <trkpt lat="-34.987694" lon="-58.101116">
        <time>2021-05-01T18:05:33Z</time>
      </trkpt>
      <trkpt lat="-34.987667" lon="-58.101074">
        <time>2021-05-01T18:05:34Z</time>
      </trkpt>
      <trkpt lat="-34.987633" lon="-58.101032">
        <time>2021-05-01T18:05:35Z</time>
      </trkpt>
      <trkpt lat="-34.9876" lon="-58.100994">
        <time>2021-05-01T18:05:36Z</time>
      </trkpt>
      <trkpt lat="-34.987564" lon="-58.100952">
        <time>2021-05-01T18:05:37Z</time>
      </trkpt>
      <trkpt lat="-34.98753" lon="-58.10091">
        <time>2021-05-01T18:05:38Z</time>
      </trkpt>
      <trkpt lat="-34.987495" lon="-58.10087">
        <time>2021-05-01T18:05:39Z</time>
      </trkpt>
      <trkpt lat="-34.987457" lon="-58.100822">
        <time>2021-05-01T18:05:40Z</time>
      </trkpt>
      <trkpt lat="-34.987423" lon="-58.100777">
        <time>2021-05-01T18:05:41Z</time>
      </trkpt>
      <trkpt lat="-34.98738" lon="-58.10074">
        <time>2021-05-01T18:05:42Z</time>
      </trkpt>
      <trkpt lat="-34.98735" lon="-58.100697">
        <time>2021-05-01T18:05:43Z</time>
      </trkpt>
      <trkpt lat="-34.98732" lon="-58.100655">
        <time>2021-05-01T18:05:44Z</time>
      </trkpt>
      <trkpt lat="-34.987286" lon="-58.100616">
        <time>2021-05-01T18:05:45Z</time>
      </trkpt>
      <trkpt lat="-34.98723" lon="-58.100548">
        <time>2021-05-01T18:05:47Z</time>
      </trkpt>
      <trkpt lat="-34.98717" lon="-58.100483">
        <time>2021-05-01T18:05:49Z</time>
      </trkpt>
      <trkpt lat="-34.987114" lon="-58.100414">
        <time>2021-05-01T18:05:51Z</time>
      </trkpt>
      <trkpt lat="-34.987053" lon="-58.100346">
        <time>2021-05-01T18:05:53Z</time>
      </trkpt>
      <trkpt lat="-34.98699" lon="-58.10028">
        <time>2021-05-01T18:05:55Z</time>
      </trkpt>
      <trkpt lat="-34.98694" lon="-58.10022">
        <time>2021-05-01T18:05:57Z</time>
      </trkpt>
      <trkpt lat="-34.9869" lon="-58.100163">
        <time>2021-05-01T18:05:59Z</time>
      </trkpt>
      <trkpt lat="-34.986855" lon="-58.100117">
        <time>2021-05-01T18:06:01Z</time>
      </trkpt>
      <trkpt lat="-34.98681" lon="-58.10007">
        <time>2021-05-01T18:06:03Z</time>
      </trkpt>
      <trkpt lat="-34.98675" lon="-58.100002">
        <time>2021-05-01T18:06:05Z</time>
      </trkpt>
      <trkpt lat="-34.986694" lon="-58.099937">
        <time>2021-05-01T18:06:07Z</time>
      </trkpt>
      <trkpt lat="-34.986637" lon="-58.099865">
        <time>2021-05-01T18:06:09Z</time>
      </trkpt>
      <trkpt lat="-34.986607" lon="-58.099827">
        <time>2021-05-01T18:06:10Z</time>
      </trkpt>
      <trkpt lat="-34.986572" lon="-58.099785">
        <time>2021-05-01T18:06:11Z</time>
      </trkpt>
      <trkpt lat="-34.986534" lon="-58.099747">
        <time>2021-05-01T18:06:12Z</time>
      </trkpt>
      <trkpt lat="-34.9865" lon="-58.099705">
        <time>2021-05-01T18:06:13Z</time>
      </trkpt>
      <trkpt lat="-34.986465" lon="-58.099663">
        <time>2021-05-01T18:06:14Z</time>
      </trkpt>
      <trkpt lat="-34.986427" lon="-58.099625">
        <time>2021-05-01T18:06:15Z</time>
      </trkpt>
      <trkpt lat="-34.986393" lon="-58.099586">
        <time>2021-05-01T18:06:16Z</time>
      </trkpt>
      <trkpt lat="-34.986332" lon="-58.09951">
        <time>2021-05-01T18:06:18Z</time>
      </trkpt>
      <trkpt lat="-34.9863" lon="-58.09947">
        <time>2021-05-01T18:06:19Z</time>
      </trkpt>
      <trkpt lat="-34.986267" lon="-58.09943">
        <time>2021-05-01T18:06:20Z</time>
      </trkpt>
      <trkpt lat="-34.98623" lon="-58.099392">
        <time>2021-05-01T18:06:21Z</time>
      </trkpt>
      <trkpt lat="-34.986195" lon="-58.09935">
        <time>2021-05-01T18:06:22Z</time>
      </trkpt>
      <trkpt lat="-34.98616" lon="-58.09931">
        <time>2021-05-01T18:06:23Z</time>
      </trkpt>
      <trkpt lat="-34.986126" lon="-58.099274">
        <time>2021-05-01T18:06:24Z</time>
      </trkpt>
      <trkpt lat="-34.986088" lon="-58.09923">
        <time>2021-05-01T18:06:25Z</time>
      </trkpt>
      <trkpt lat="-34.986053" lon="-58.099194">
        <time>2021-05-01T18:06:26Z</time>
      </trkpt>
      <trkpt lat="-34.986015" lon="-58.09915">
        <time>2021-05-01T18:06:27Z</time>
      </trkpt>
      <trkpt lat="-34.985977" lon="-58.099113">
        <time>2021-05-01T18:06:28Z</time>
      </trkpt>
      <trkpt lat="-34.985943" lon="-58.09907">
        <time>2021-05-01T18:06:29Z</time>
      </trkpt>
      <trkpt lat="-34.985905" lon="-58.09903">
        <time>2021-05-01T18:06:30Z</time>
      </trkpt>
      <trkpt lat="-34.98587" lon="-58.098984">
        <time>2021-05-01T18:06:31Z</time>
      </trkpt>
      <trkpt lat="-34.985836" lon="-58.098938">
        <time>2021-05-01T18:06:32Z</time>
      </trkpt>
      <trkpt lat="-34.9858" lon="-58.098896">
        <time>2021-05-01T18:06:33Z</time>
      </trkpt>
      <trkpt lat="-34.985764" lon="-58.098854">
        <time>2021-05-01T18:06:34Z</time>
      </trkpt>
      <trkpt lat="-34.985725" lon="-58.09881">
        <time>2021-05-01T18:06:35Z</time>
      </trkpt>
      <trkpt lat="-34.98569" lon="-58.098766">
        <time>2021-05-01T18:06:36Z</time>
      </trkpt>
      <trkpt lat="-34.985653" lon="-58.09873">
        <time>2021-05-01T18:06:37Z</time>
      </trkpt>
      <trkpt lat="-34.98562" lon="-58.098686">
        <time>2021-05-01T18:06:38Z</time>
      </trkpt>
      <trkpt lat="-34.985584" lon="-58.098644">
        <time>2021-05-01T18:06:39Z</time>
      </trkpt>
      <trkpt lat="-34.985546" lon="-58.098602">
        <time>2021-05-01T18:06:40Z</time>
      </trkpt>
      <trkpt lat="-34.985508" lon="-58.09856">
        <time>2021-05-01T18:06:41Z</time>
      </trkpt>
      <trkpt lat="-34.98547" lon="-58.098515">
        <time>2021-05-01T18:06:42Z</time>
      </trkpt>
      <trkpt lat="-34.985435" lon="-58.098473">
        <time>2021-05-01T18:06:43Z</time>
      </trkpt>
      <trkpt lat="-34.985397" lon="-58.098427">
        <time>2021-05-01T18:06:44Z</time>
      </trkpt>
      <trkpt lat="-34.985363" lon="-58.09839">
        <time>2021-05-01T18:06:45Z</time>
      </trkpt>
      <trkpt lat="-34.985325" lon="-58.098347">
        <time>2021-05-01T18:06:46Z</time>
      </trkpt>
      <trkpt lat="-34.98529" lon="-58.0983">
        <time>2021-05-01T18:06:47Z</time>
      </trkpt>
      <trkpt lat="-34.985256" lon="-58.09826">
        <time>2021-05-01T18:06:48Z</time>
      </trkpt>
      <trkpt lat="-34.985218" lon="-58.098217">
        <time>2021-05-01T18:06:49Z</time>
      </trkpt>
      <trkpt lat="-34.985184" lon="-58.098175">
        <time>2021-05-01T18:06:50Z</time>
      </trkpt>
      <trkpt lat="-34.98515" lon="-58.09814">
        <time>2021-05-01T18:06:51Z</time>
      </trkpt>
      <trkpt lat="-34.985115" lon="-58.098103">
        <time>2021-05-01T18:06:52Z</time>
      </trkpt>
      <trkpt lat="-34.985077" lon="-58.09806">
        <time>2021-05-01T18:06:53Z</time>
      </trkpt>
      <trkpt lat="-34.985043" lon="-58.098015">
        <time>2021-05-01T18:06:54Z</time>
      </trkpt>
      <trkpt lat="-34.985" lon="-58.097973">
        <time>2021-05-01T18:06:55Z</time>
      </trkpt>
      <trkpt lat="-34.984962" lon="-58.097927">
        <time>2021-05-01T18:06:56Z</time>
      </trkpt>
      <trkpt lat="-34.984924" lon="-58.09788">
        <time>2021-05-01T18:06:57Z</time>
      </trkpt>
      <trkpt lat="-34.984886" lon="-58.09784">
        <time>2021-05-01T18:06:58Z</time>
      </trkpt>
      <trkpt lat="-34.984848" lon="-58.097794">
        <time>2021-05-01T18:06:59Z</time>
      </trkpt>
      <trkpt lat="-34.98481" lon="-58.09775">
        <time>2021-05-01T18:07:00Z</time>
      </trkpt>
      <trkpt lat="-34.984776" lon="-58.097706">
        <time>2021-05-01T18:07:01Z</time>
      </trkpt>
      <trkpt lat="-34.984734" lon="-58.097664">
        <time>2021-05-01T18:07:02Z</time>
      </trkpt>
      <trkpt lat="-34.9847" lon="-58.097622">
        <time>2021-05-01T18:07:03Z</time>
      </trkpt>
      <trkpt lat="-34.98466" lon="-58.09758">
        <time>2021-05-01T18:07:04Z</time>
      </trkpt>
      <trkpt lat="-34.984627" lon="-58.09754">
        <time>2021-05-01T18:07:05Z</time>
      </trkpt>
      <trkpt lat="-34.98459" lon="-58.0975">
        <time>2021-05-01T18:07:06Z</time>
      </trkpt>
      <trkpt lat="-34.98455" lon="-58.09746">
        <time>2021-05-01T18:07:07Z</time>
      </trkpt>
      <trkpt lat="-34.984516" lon="-58.097424">
        <time>2021-05-01T18:07:08Z</time>
      </trkpt>
      <trkpt lat="-34.98448" lon="-58.097385">
        <time>2021-05-01T18:07:09Z</time>
      </trkpt>
      <trkpt lat="-34.98445" lon="-58.097343">
        <time>2021-05-01T18:07:10Z</time>
      </trkpt>
      <trkpt lat="-34.984386" lon="-58.09727">
        <time>2021-05-01T18:07:12Z</time>
      </trkpt>
      <trkpt lat="-34.984333" lon="-58.0972">
        <time>2021-05-01T18:07:14Z</time>
      </trkpt>
      <trkpt lat="-34.984287" lon="-58.097126">
        <time>2021-05-01T18:07:16Z</time>
      </trkpt>
      <trkpt lat="-34.984264" lon="-58.097057">
        <time>2021-05-01T18:07:18Z</time>
      </trkpt>
      <trkpt lat="-34.98428" lon="-58.09698">
        <time>2021-05-01T18:07:20Z</time>
      </trkpt>
      <trkpt lat="-34.984306" lon="-58.096905">
        <time>2021-05-01T18:07:22Z</time>
      </trkpt>
      <trkpt lat="-34.984306" lon="-58.096905">
        <time>2021-05-01T18:07:32Z</time>
      </trkpt>
      <trkpt lat="-34.984306" lon="-58.096905">
        <time>2021-05-01T18:07:42Z</time>
      </trkpt>
      <trkpt lat="-34.984306" lon="-58.096905">
        <time>2021-05-01T18:07:52Z</time>
      </trkpt>
      <trkpt lat="-34.98432" lon="-58.096878">
        <time>2021-05-01T18:08:22Z</time>
      </trkpt>
      <trkpt lat="-34.98431" lon="-58.09692">
        <time>2021-05-01T18:08:32Z</time>
      </trkpt>
      <trkpt lat="-34.984344" lon="-58.096943">
        <time>2021-05-01T18:08:42Z</time>
      </trkpt>
      <trkpt lat="-34.984344" lon="-58.096943">
        <time>2021-05-01T18:08:52Z</time>
      </trkpt>
      <trkpt lat="-34.98434" lon="-58.09693">
        <time>2021-05-01T18:09:02Z</time>
      </trkpt>
      <trkpt lat="-34.98434" lon="-58.09693">
        <time>2021-05-01T18:09:12Z</time>
      </trkpt>
      <trkpt lat="-34.98434" lon="-58.09693">
        <time>2021-05-01T18:09:22Z</time>
      </trkpt>
      <trkpt lat="-34.98434" lon="-58.09693">
        <time>2021-05-01T18:09:32Z</time>
      </trkpt>
      <trkpt lat="-34.98434" lon="-58.09693">
        <time>2021-05-01T18:09:42Z</time>
      </trkpt>
      <trkpt lat="-34.98434" lon="-58.09693">
        <time>2021-05-01T18:09:52Z</time>
      </trkpt>
      <trkpt lat="-34.98434" lon="-58.09693">
        <time>2021-05-01T18:10:02Z</time>
      </trkpt>
      <trkpt lat="-34.98434" lon="-58.09693">
        <time>2021-05-01T18:10:12Z</time>
      </trkpt>
      <trkpt lat="-34.98434" lon="-58.09693">
        <time>2021-05-01T18:10:35Z</time>
      </trkpt>
      <trkpt lat="-34.98434" lon="-58.09693">
        <time>2021-05-01T18:10:45Z</time>
      </trkpt>
      <trkpt lat="-34.98434" lon="-58.09693">
        <time>2021-05-01T18:10:55Z</time>
      </trkpt>
      <trkpt lat="-34.98434" lon="-58.09693">
        <time>2021-05-01T18:11:05Z</time>
      </trkpt>
      <trkpt lat="-34.98434" lon="-58.09693">
        <time>2021-05-01T18:11:15Z</time>
      </trkpt>
      <trkpt lat="-34.98434" lon="-58.09693">
        <time>2021-05-01T18:11:25Z</time>
      </trkpt>
      <trkpt lat="-34.984325" lon="-58.096878">
        <time>2021-05-01T18:11:34Z</time>
      </trkpt>
      <trkpt lat="-34.984325" lon="-58.09694">
        <time>2021-05-01T18:12:01Z</time>
      </trkpt>
      <trkpt lat="-34.984287" lon="-58.097008">
        <time>2021-05-01T18:12:01Z</time>
      </trkpt>
      <trkpt lat="-34.984234" lon="-58.09704">
        <time>2021-05-01T18:12:16Z</time>
      </trkpt>
      <trkpt lat="-34.984165" lon="-58.097015">
        <time>2021-05-01T18:12:18Z</time>
      </trkpt>
      <trkpt lat="-34.984116" lon="-58.096954">
        <time>2021-05-01T18:12:20Z</time>
      </trkpt>
      <trkpt lat="-34.98406" lon="-58.096886">
        <time>2021-05-01T18:12:22Z</time>
      </trkpt>
      <trkpt lat="-34.983997" lon="-58.096825">
        <time>2021-05-01T18:12:24Z</time>
      </trkpt>
      <trkpt lat="-34.983936" lon="-58.096756">
        <time>2021-05-01T18:12:26Z</time>
      </trkpt>
      <trkpt lat="-34.98388" lon="-58.096687">
        <time>2021-05-01T18:12:28Z</time>
      </trkpt>
      <trkpt lat="-34.98382" lon="-58.09662">
        <time>2021-05-01T18:12:30Z</time>
      </trkpt>
      <trkpt lat="-34.98376" lon="-58.096546">
        <time>2021-05-01T18:12:32Z</time>
      </trkpt>
      <trkpt lat="-34.983696" lon="-58.096478">
        <time>2021-05-01T18:12:34Z</time>
      </trkpt>
      <trkpt lat="-34.98363" lon="-58.096405">
        <time>2021-05-01T18:12:36Z</time>
      </trkpt>
      <trkpt lat="-34.983566" lon="-58.096333">
        <time>2021-05-01T18:12:38Z</time>
      </trkpt>
      <trkpt lat="-34.983532" lon="-58.096294">
        <time>2021-05-01T18:12:39Z</time>
      </trkpt>
      <trkpt lat="-34.9835" lon="-58.096256">
        <time>2021-05-01T18:12:40Z</time>
      </trkpt>
      <trkpt lat="-34.983437" lon="-58.09618">
        <time>2021-05-01T18:12:42Z</time>
      </trkpt>
      <trkpt lat="-34.983402" lon="-58.09614">
        <time>2021-05-01T18:12:43Z</time>
      </trkpt>
      <trkpt lat="-34.983368" lon="-58.096104">
        <time>2021-05-01T18:12:44Z</time>
      </trkpt>
      <trkpt lat="-34.983334" lon="-58.09606">
        <time>2021-05-01T18:12:45Z</time>
      </trkpt>
      <trkpt lat="-34.9833" lon="-58.096024">
        <time>2021-05-01T18:12:46Z</time>
      </trkpt>
      <trkpt lat="-34.983265" lon="-58.095985">
        <time>2021-05-01T18:12:47Z</time>
      </trkpt>
      <trkpt lat="-34.983204" lon="-58.095913">
        <time>2021-05-01T18:12:49Z</time>
      </trkpt>
      <trkpt lat="-34.983143" lon="-58.095833">
        <time>2021-05-01T18:12:51Z</time>
      </trkpt>
      <trkpt lat="-34.98311" lon="-58.095795">
        <time>2021-05-01T18:12:52Z</time>
      </trkpt>
      <trkpt lat="-34.98307" lon="-58.095757">
        <time>2021-05-01T18:12:53Z</time>
      </trkpt>
      <trkpt lat="-34.983036" lon="-58.095715">
        <time>2021-05-01T18:12:54Z</time>
      </trkpt>
      <trkpt lat="-34.983006" lon="-58.095676">
        <time>2021-05-01T18:12:55Z</time>
      </trkpt>
      <trkpt lat="-34.98294" lon="-58.095596">
        <time>2021-05-01T18:12:57Z</time>
      </trkpt>
      <trkpt lat="-34.982906" lon="-58.09556">
        <time>2021-05-01T18:12:58Z</time>
      </trkpt>
      <trkpt lat="-34.982876" lon="-58.095516">
        <time>2021-05-01T18:12:59Z</time>
      </trkpt>
      <trkpt lat="-34.982838" lon="-58.095474">
        <time>2021-05-01T18:13:00Z</time>
      </trkpt>
      <trkpt lat="-34.982803" lon="-58.095436">
        <time>2021-05-01T18:13:01Z</time>
      </trkpt>
      <trkpt lat="-34.98277" lon="-58.095398">
        <time>2021-05-01T18:13:02Z</time>
      </trkpt>
      <trkpt lat="-34.98273" lon="-58.09536">
        <time>2021-05-01T18:13:03Z</time>
      </trkpt>
      <trkpt lat="-34.982697" lon="-58.09532">
        <time>2021-05-01T18:13:04Z</time>
      </trkpt>
      <trkpt lat="-34.982635" lon="-58.09525">
        <time>2021-05-01T18:13:06Z</time>
      </trkpt>
      <trkpt lat="-34.982567" lon="-58.09518">
        <time>2021-05-01T18:13:08Z</time>
      </trkpt>
      <trkpt lat="-34.9825" lon="-58.095108">
        <time>2021-05-01T18:13:10Z</time>
      </trkpt>
      <trkpt lat="-34.982464" lon="-58.095062">
        <time>2021-05-01T18:13:11Z</time>
      </trkpt>
      <trkpt lat="-34.98242" lon="-58.09502">
        <time>2021-05-01T18:13:12Z</time>
      </trkpt>
      <trkpt lat="-34.98238" lon="-58.09498">
        <time>2021-05-01T18:13:13Z</time>
      </trkpt>
      <trkpt lat="-34.982346" lon="-58.094933">
        <time>2021-05-01T18:13:14Z</time>
      </trkpt>
      <trkpt lat="-34.982307" lon="-58.094887">
        <time>2021-05-01T18:13:15Z</time>
      </trkpt>
      <trkpt lat="-34.982273" lon="-58.094845">
        <time>2021-05-01T18:13:16Z</time>
      </trkpt>
      <trkpt lat="-34.98224" lon="-58.094803">
        <time>2021-05-01T18:13:17Z</time>
      </trkpt>
      <trkpt lat="-34.982204" lon="-58.09477">
        <time>2021-05-01T18:13:18Z</time>
      </trkpt>
      <trkpt lat="-34.98217" lon="-58.094727">
        <time>2021-05-01T18:13:19Z</time>
      </trkpt>
      <trkpt lat="-34.98214" lon="-58.094685">
        <time>2021-05-01T18:13:20Z</time>
      </trkpt>
      <trkpt lat="-34.982105" lon="-58.094646">
        <time>2021-05-01T18:13:21Z</time>
      </trkpt>
      <trkpt lat="-34.98207" lon="-58.094604">
        <time>2021-05-01T18:13:22Z</time>
      </trkpt>
      <trkpt lat="-34.982033" lon="-58.094566">
        <time>2021-05-01T18:13:23Z</time>
      </trkpt>
      <trkpt lat="-34.982" lon="-58.09452">
        <time>2021-05-01T18:13:24Z</time>
      </trkpt>
      <trkpt lat="-34.981964" lon="-58.094482">
        <time>2021-05-01T18:13:25Z</time>
      </trkpt>
      <trkpt lat="-34.981934" lon="-58.09444">
        <time>2021-05-01T18:13:26Z</time>
      </trkpt>
      <trkpt lat="-34.981895" lon="-58.094402">
        <time>2021-05-01T18:13:27Z</time>
      </trkpt>
      <trkpt lat="-34.98186" lon="-58.09436">
        <time>2021-05-01T18:13:28Z</time>
      </trkpt>
      <trkpt lat="-34.981823" lon="-58.09432">
        <time>2021-05-01T18:13:29Z</time>
      </trkpt>
      <trkpt lat="-34.98179" lon="-58.094273">
        <time>2021-05-01T18:13:30Z</time>
      </trkpt>
      <trkpt lat="-34.98175" lon="-58.09423">
        <time>2021-05-01T18:13:31Z</time>
      </trkpt>
      <trkpt lat="-34.981712" lon="-58.09419">
        <time>2021-05-01T18:13:32Z</time>
      </trkpt>
      <trkpt lat="-34.981674" lon="-58.094143">
        <time>2021-05-01T18:13:33Z</time>
      </trkpt>
      <trkpt lat="-34.98164" lon="-58.0941">
        <time>2021-05-01T18:13:34Z</time>
      </trkpt>
      <trkpt lat="-34.9816" lon="-58.09406">
        <time>2021-05-01T18:13:35Z</time>
      </trkpt>
      <trkpt lat="-34.981567" lon="-58.09402">
        <time>2021-05-01T18:13:36Z</time>
      </trkpt>
      <trkpt lat="-34.98153" lon="-58.09398">
        <time>2021-05-01T18:13:37Z</time>
      </trkpt>
      <trkpt lat="-34.98149" lon="-58.093937">
        <time>2021-05-01T18:13:38Z</time>
      </trkpt>
      <trkpt lat="-34.981453" lon="-58.093895">
        <time>2021-05-01T18:13:39Z</time>
      </trkpt>
      <trkpt lat="-34.981415" lon="-58.09385">
        <time>2021-05-01T18:13:40Z</time>
      </trkpt>
      <trkpt lat="-34.981373" lon="-58.093803">
        <time>2021-05-01T18:13:41Z</time>
      </trkpt>
      <trkpt lat="-34.98133" lon="-58.093758">
        <time>2021-05-01T18:13:42Z</time>
      </trkpt>
      <trkpt lat="-34.981293" lon="-58.093708">
        <time>2021-05-01T18:13:43Z</time>
      </trkpt>
      <trkpt lat="-34.981255" lon="-58.093662">
        <time>2021-05-01T18:13:44Z</time>
      </trkpt>
      <trkpt lat="-34.981216" lon="-58.093616">
        <time>2021-05-01T18:13:45Z</time>
      </trkpt>
      <trkpt lat="-34.98118" lon="-58.093575">
        <time>2021-05-01T18:13:46Z</time>
      </trkpt>
      <trkpt lat="-34.98114" lon="-58.09353">
        <time>2021-05-01T18:13:47Z</time>
      </trkpt>
      <trkpt lat="-34.981102" lon="-58.093487">
        <time>2021-05-01T18:13:48Z</time>
      </trkpt>
      <trkpt lat="-34.981068" lon="-58.093445">
        <time>2021-05-01T18:13:49Z</time>
      </trkpt>
      <trkpt lat="-34.98103" lon="-58.093403">
        <time>2021-05-01T18:13:50Z</time>
      </trkpt>
      <trkpt lat="-34.980995" lon="-58.093365">
        <time>2021-05-01T18:13:51Z</time>
      </trkpt>
      <trkpt lat="-34.98096" lon="-58.093327">
        <time>2021-05-01T18:13:52Z</time>
      </trkpt>
      <trkpt lat="-34.980923" lon="-58.093292">
        <time>2021-05-01T18:13:53Z</time>
      </trkpt>
      <trkpt lat="-34.98084" lon="-58.093266">
        <time>2021-05-01T18:13:55Z</time>
      </trkpt>
      <trkpt lat="-34.980762" lon="-58.093315">
        <time>2021-05-01T18:13:57Z</time>
      </trkpt>
      <trkpt lat="-34.98069" lon="-58.093388">
        <time>2021-05-01T18:13:59Z</time>
      </trkpt>
      <trkpt lat="-34.98065" lon="-58.093422">
        <time>2021-05-01T18:14:00Z</time>
      </trkpt>
      <trkpt lat="-34.98058" lon="-58.09346">
        <time>2021-05-01T18:14:02Z</time>
      </trkpt>
      <trkpt lat="-34.98053" lon="-58.093445">
        <time>2021-05-01T18:14:03Z</time>
      </trkpt>
      <trkpt lat="-34.980484" lon="-58.093414">
        <time>2021-05-01T18:14:04Z</time>
      </trkpt>
      <trkpt lat="-34.98044" lon="-58.093376">
        <time>2021-05-01T18:14:05Z</time>
      </trkpt>
      <trkpt lat="-34.9804" lon="-58.093338">
        <time>2021-05-01T18:14:06Z</time>
      </trkpt>
      <trkpt lat="-34.980362" lon="-58.093292">
        <time>2021-05-01T18:14:07Z</time>
      </trkpt>
      <trkpt lat="-34.980324" lon="-58.093246">
        <time>2021-05-01T18:14:08Z</time>
      </trkpt>
      <trkpt lat="-34.980286" lon="-58.09321">
        <time>2021-05-01T18:14:09Z</time>
      </trkpt>
      <trkpt lat="-34.98025" lon="-58.09317">
        <time>2021-05-01T18:14:10Z</time>
      </trkpt>
      <trkpt lat="-34.980217" lon="-58.09313">
        <time>2021-05-01T18:14:11Z</time>
      </trkpt>
      <trkpt lat="-34.980152" lon="-58.093052">
        <time>2021-05-01T18:14:13Z</time>
      </trkpt>
      <trkpt lat="-34.980114" lon="-58.09301">
        <time>2021-05-01T18:14:14Z</time>
      </trkpt>
      <trkpt lat="-34.980076" lon="-58.092968">
        <time>2021-05-01T18:14:15Z</time>
      </trkpt>
      <trkpt lat="-34.98004" lon="-58.092922">
        <time>2021-05-01T18:14:16Z</time>
      </trkpt>
      <trkpt lat="-34.980007" lon="-58.092876">
        <time>2021-05-01T18:14:17Z</time>
      </trkpt>
      <trkpt lat="-34.979973" lon="-58.092834">
        <time>2021-05-01T18:14:18Z</time>
      </trkpt>
      <trkpt lat="-34.97994" lon="-58.092796">
        <time>2021-05-01T18:14:19Z</time>
      </trkpt>
      <trkpt lat="-34.979904" lon="-58.092754">
        <time>2021-05-01T18:14:20Z</time>
      </trkpt>
      <trkpt lat="-34.97987" lon="-58.092712">
        <time>2021-05-01T18:14:21Z</time>
      </trkpt>
      <trkpt lat="-34.979836" lon="-58.09267">
        <time>2021-05-01T18:14:22Z</time>
      </trkpt>
      <trkpt lat="-34.979797" lon="-58.092632">
        <time>2021-05-01T18:14:23Z</time>
      </trkpt>
      <trkpt lat="-34.97976" lon="-58.09259">
        <time>2021-05-01T18:14:24Z</time>
      </trkpt>
      <trkpt lat="-34.97972" lon="-58.092545">
        <time>2021-05-01T18:14:25Z</time>
      </trkpt>
      <trkpt lat="-34.979683" lon="-58.0925">
        <time>2021-05-01T18:14:26Z</time>
      </trkpt>
      <trkpt lat="-34.97965" lon="-58.092453">
        <time>2021-05-01T18:14:27Z</time>
      </trkpt>
      <trkpt lat="-34.979614" lon="-58.092407">
        <time>2021-05-01T18:14:28Z</time>
      </trkpt>
      <trkpt lat="-34.97958" lon="-58.092365">
        <time>2021-05-01T18:14:29Z</time>
      </trkpt>
      <trkpt lat="-34.979546" lon="-58.092323">
        <time>2021-05-01T18:14:30Z</time>
      </trkpt>
      <trkpt lat="-34.97951" lon="-58.09228">
        <time>2021-05-01T18:14:31Z</time>
      </trkpt>
      <trkpt lat="-34.979477" lon="-58.092243">
        <time>2021-05-01T18:14:32Z</time>
      </trkpt>
      <trkpt lat="-34.979412" lon="-58.09218">
        <time>2021-05-01T18:14:34Z</time>
      </trkpt>
      <trkpt lat="-34.979355" lon="-58.09212">
        <time>2021-05-01T18:14:36Z</time>
      </trkpt>
      <trkpt lat="-34.979282" lon="-58.092075">
        <time>2021-05-01T18:14:38Z</time>
      </trkpt>
      <trkpt lat="-34.979202" lon="-58.09206">
        <time>2021-05-01T18:14:40Z</time>
      </trkpt>
      <trkpt lat="-34.979115" lon="-58.09207">
        <time>2021-05-01T18:14:42Z</time>
      </trkpt>
      <trkpt lat="-34.97907" lon="-58.092083">
        <time>2021-05-01T18:14:43Z</time>
      </trkpt>
      <trkpt lat="-34.97902" lon="-58.0921">
        <time>2021-05-01T18:14:44Z</time>
      </trkpt>
      <trkpt lat="-34.978973" lon="-58.09211">
        <time>2021-05-01T18:14:45Z</time>
      </trkpt>
      <trkpt lat="-34.978928" lon="-58.092125">
        <time>2021-05-01T18:14:46Z</time>
      </trkpt>
      <trkpt lat="-34.97888" lon="-58.092136">
        <time>2021-05-01T18:14:47Z</time>
      </trkpt>
      <trkpt lat="-34.978836" lon="-58.092155">
        <time>2021-05-01T18:14:48Z</time>
      </trkpt>
      <trkpt lat="-34.978794" lon="-58.092182">
        <time>2021-05-01T18:14:49Z</time>
      </trkpt>
      <trkpt lat="-34.978718" lon="-58.092216">
        <time>2021-05-01T18:14:51Z</time>
      </trkpt>
      <trkpt lat="-34.978672" lon="-58.092228">
        <time>2021-05-01T18:14:52Z</time>
      </trkpt>
      <trkpt lat="-34.978626" lon="-58.092243">
        <time>2021-05-01T18:14:53Z</time>
      </trkpt>
      <trkpt lat="-34.978584" lon="-58.09226">
        <time>2021-05-01T18:14:54Z</time>
      </trkpt>
      <trkpt lat="-34.978535" lon="-58.092274">
        <time>2021-05-01T18:14:55Z</time>
      </trkpt>
      <trkpt lat="-34.97849" lon="-58.09229">
        <time>2021-05-01T18:14:56Z</time>
      </trkpt>
      <trkpt lat="-34.97844" lon="-58.092304">
        <time>2021-05-01T18:14:57Z</time>
      </trkpt>
      <trkpt lat="-34.978394" lon="-58.09232">
        <time>2021-05-01T18:14:58Z</time>
      </trkpt>
      <trkpt lat="-34.978348" lon="-58.09234">
        <time>2021-05-01T18:14:59Z</time>
      </trkpt>
      <trkpt lat="-34.97826" lon="-58.09237">
        <time>2021-05-01T18:15:01Z</time>
      </trkpt>
      <trkpt lat="-34.978214" lon="-58.092384">
        <time>2021-05-01T18:15:02Z</time>
      </trkpt>
      <trkpt lat="-34.978165" lon="-58.0924">
        <time>2021-05-01T18:15:03Z</time>
      </trkpt>
      <trkpt lat="-34.978115" lon="-58.09242">
        <time>2021-05-01T18:15:04Z</time>
      </trkpt>
      <trkpt lat="-34.97807" lon="-58.092434">
        <time>2021-05-01T18:15:05Z</time>
      </trkpt>
      <trkpt lat="-34.97802" lon="-58.092453">
        <time>2021-05-01T18:15:06Z</time>
      </trkpt>
      <trkpt lat="-34.977978" lon="-58.09247">
        <time>2021-05-01T18:15:07Z</time>
      </trkpt>
      <trkpt lat="-34.977894" lon="-58.0925">
        <time>2021-05-01T18:15:09Z</time>
      </trkpt>
      <trkpt lat="-34.97781" lon="-58.09253">
        <time>2021-05-01T18:15:11Z</time>
      </trkpt>
      <trkpt lat="-34.97776" lon="-58.09255">
        <time>2021-05-01T18:15:12Z</time>
      </trkpt>
      <trkpt lat="-34.977676" lon="-58.09258">
        <time>2021-05-01T18:15:14Z</time>
      </trkpt>
      <trkpt lat="-34.97763" lon="-58.092594">
        <time>2021-05-01T18:15:15Z</time>
      </trkpt>
      <trkpt lat="-34.97758" lon="-58.092606">
        <time>2021-05-01T18:15:16Z</time>
      </trkpt>
      <trkpt lat="-34.97753" lon="-58.09262">
        <time>2021-05-01T18:15:17Z</time>
      </trkpt>
      <trkpt lat="-34.97748" lon="-58.092636">
        <time>2021-05-01T18:15:18Z</time>
      </trkpt>
      <trkpt lat="-34.977436" lon="-58.09266">
        <time>2021-05-01T18:15:19Z</time>
      </trkpt>
      <trkpt lat="-34.97739" lon="-58.092674">
        <time>2021-05-01T18:15:20Z</time>
      </trkpt>
      <trkpt lat="-34.97735" lon="-58.092693">
        <time>2021-05-01T18:15:21Z</time>
      </trkpt>
      <trkpt lat="-34.977303" lon="-58.09271">
        <time>2021-05-01T18:15:22Z</time>
      </trkpt>
      <trkpt lat="-34.977257" lon="-58.092724">
        <time>2021-05-01T18:15:23Z</time>
      </trkpt>
      <trkpt lat="-34.97721" lon="-58.092735">
        <time>2021-05-01T18:15:24Z</time>
      </trkpt>
      <trkpt lat="-34.97716" lon="-58.09275">
        <time>2021-05-01T18:15:25Z</time>
      </trkpt>
      <trkpt lat="-34.977108" lon="-58.092773">
        <time>2021-05-01T18:15:26Z</time>
      </trkpt>
      <trkpt lat="-34.977062" lon="-58.092793">
        <time>2021-05-01T18:15:27Z</time>
      </trkpt>
      <trkpt lat="-34.97701" lon="-58.09281">
        <time>2021-05-01T18:15:28Z</time>
      </trkpt>
      <trkpt lat="-34.976955" lon="-58.092827">
        <time>2021-05-01T18:15:29Z</time>
      </trkpt>
      <trkpt lat="-34.976902" lon="-58.092842">
        <time>2021-05-01T18:15:30Z</time>
      </trkpt>
      <trkpt lat="-34.976852" lon="-58.09286">
        <time>2021-05-01T18:15:31Z</time>
      </trkpt>
      <trkpt lat="-34.976803" lon="-58.092876">
        <time>2021-05-01T18:15:32Z</time>
      </trkpt>
      <trkpt lat="-34.976753" lon="-58.09289">
        <time>2021-05-01T18:15:33Z</time>
      </trkpt>
      <trkpt lat="-34.976707" lon="-58.092907">
        <time>2021-05-01T18:15:34Z</time>
      </trkpt>
      <trkpt lat="-34.976654" lon="-58.09293">
        <time>2021-05-01T18:15:35Z</time>
      </trkpt>
      <trkpt lat="-34.9766" lon="-58.09295">
        <time>2021-05-01T18:15:36Z</time>
      </trkpt>
      <trkpt lat="-34.97655" lon="-58.092968">
        <time>2021-05-01T18:15:37Z</time>
      </trkpt>
      <trkpt lat="-34.9765" lon="-58.09298">
        <time>2021-05-01T18:15:38Z</time>
      </trkpt>
      <trkpt lat="-34.976448" lon="-58.09299">
        <time>2021-05-01T18:15:39Z</time>
      </trkpt>
      <trkpt lat="-34.9764" lon="-58.093006">
        <time>2021-05-01T18:15:40Z</time>
      </trkpt>
      <trkpt lat="-34.976353" lon="-58.09302">
        <time>2021-05-01T18:15:41Z</time>
      </trkpt>
      <trkpt lat="-34.976307" lon="-58.093037">
        <time>2021-05-01T18:15:42Z</time>
      </trkpt>
      <trkpt lat="-34.976257" lon="-58.093052">
        <time>2021-05-01T18:15:43Z</time>
      </trkpt>
      <trkpt lat="-34.976208" lon="-58.093067">
        <time>2021-05-01T18:15:44Z</time>
      </trkpt>
      <trkpt lat="-34.97616" lon="-58.093086">
        <time>2021-05-01T18:15:45Z</time>
      </trkpt>
      <trkpt lat="-34.976112" lon="-58.0931">
        <time>2021-05-01T18:15:46Z</time>
      </trkpt>
      <trkpt lat="-34.976067" lon="-58.093113">
        <time>2021-05-01T18:15:47Z</time>
      </trkpt>
      <trkpt lat="-34.976017" lon="-58.09313">
        <time>2021-05-01T18:15:48Z</time>
      </trkpt>
      <trkpt lat="-34.975964" lon="-58.09314">
        <time>2021-05-01T18:15:49Z</time>
      </trkpt>
      <trkpt lat="-34.975914" lon="-58.093155">
        <time>2021-05-01T18:15:50Z</time>
      </trkpt>
      <trkpt lat="-34.97586" lon="-58.093166">
        <time>2021-05-01T18:15:51Z</time>
      </trkpt>
      <trkpt lat="-34.975807" lon="-58.093185">
        <time>2021-05-01T18:15:52Z</time>
      </trkpt>
      <trkpt lat="-34.975758" lon="-58.0932">
        <time>2021-05-01T18:15:53Z</time>
      </trkpt>
      <trkpt lat="-34.975704" lon="-58.093216">
        <time>2021-05-01T18:15:54Z</time>
      </trkpt>
      <trkpt lat="-34.97566" lon="-58.093235">
        <time>2021-05-01T18:15:55Z</time>
      </trkpt>
      <trkpt lat="-34.975613" lon="-58.093246">
        <time>2021-05-01T18:15:56Z</time>
      </trkpt>
      <trkpt lat="-34.97553" lon="-58.093277">
        <time>2021-05-01T18:15:58Z</time>
      </trkpt>
      <trkpt lat="-34.975445" lon="-58.09331">
        <time>2021-05-01T18:16:00Z</time>
      </trkpt>
      <trkpt lat="-34.975403" lon="-58.093327">
        <time>2021-05-01T18:16:01Z</time>
      </trkpt>
      <trkpt lat="-34.975353" lon="-58.09334">
        <time>2021-05-01T18:16:02Z</time>
      </trkpt>
      <trkpt lat="-34.97531" lon="-58.093357">
        <time>2021-05-01T18:16:03Z</time>
      </trkpt>
      <trkpt lat="-34.975266" lon="-58.09337">
        <time>2021-05-01T18:16:04Z</time>
      </trkpt>
      <trkpt lat="-34.975178" lon="-58.093395">
        <time>2021-05-01T18:16:06Z</time>
      </trkpt>
      <trkpt lat="-34.975132" lon="-58.09341">
        <time>2021-05-01T18:16:07Z</time>
      </trkpt>
      <trkpt lat="-34.975086" lon="-58.09343">
        <time>2021-05-01T18:16:08Z</time>
      </trkpt>
      <trkpt lat="-34.97504" lon="-58.09344">
        <time>2021-05-01T18:16:09Z</time>
      </trkpt>
      <trkpt lat="-34.97499" lon="-58.093456">
        <time>2021-05-01T18:16:10Z</time>
      </trkpt>
      <trkpt lat="-34.974945" lon="-58.09347">
        <time>2021-05-01T18:16:11Z</time>
      </trkpt>
      <trkpt lat="-34.974895" lon="-58.09349">
        <time>2021-05-01T18:16:12Z</time>
      </trkpt>
      <trkpt lat="-34.97485" lon="-58.093506">
        <time>2021-05-01T18:16:13Z</time>
      </trkpt>
      <trkpt lat="-34.9748" lon="-58.09352">
        <time>2021-05-01T18:16:14Z</time>
      </trkpt>
      <trkpt lat="-34.974754" lon="-58.093536">
        <time>2021-05-01T18:16:15Z</time>
      </trkpt>
      <trkpt lat="-34.974705" lon="-58.09355">
        <time>2021-05-01T18:16:16Z</time>
      </trkpt>
      <trkpt lat="-34.974663" lon="-58.093575">
        <time>2021-05-01T18:16:17Z</time>
      </trkpt>
      <trkpt lat="-34.97462" lon="-58.093586">
        <time>2021-05-01T18:16:18Z</time>
      </trkpt>
      <trkpt lat="-34.974575" lon="-58.0936">
        <time>2021-05-01T18:16:19Z</time>
      </trkpt>
      <trkpt lat="-34.97449" lon="-58.09363">
        <time>2021-05-01T18:16:21Z</time>
      </trkpt>
      <trkpt lat="-34.974445" lon="-58.093647">
        <time>2021-05-01T18:16:22Z</time>
      </trkpt>
      <trkpt lat="-34.9744" lon="-58.093666">
        <time>2021-05-01T18:16:23Z</time>
      </trkpt>
      <trkpt lat="-34.974354" lon="-58.093678">
        <time>2021-05-01T18:16:24Z</time>
      </trkpt>
      <trkpt lat="-34.974308" lon="-58.093693">
        <time>2021-05-01T18:16:25Z</time>
      </trkpt>
      <trkpt lat="-34.97426" lon="-58.093708">
        <time>2021-05-01T18:16:26Z</time>
      </trkpt>
      <trkpt lat="-34.97421" lon="-58.093723">
        <time>2021-05-01T18:16:27Z</time>
      </trkpt>
      <trkpt lat="-34.974163" lon="-58.09374">
        <time>2021-05-01T18:16:28Z</time>
      </trkpt>
      <trkpt lat="-34.974117" lon="-58.093754">
        <time>2021-05-01T18:16:29Z</time>
      </trkpt>
      <trkpt lat="-34.974068" lon="-58.09377">
        <time>2021-05-01T18:16:30Z</time>
      </trkpt>
      <trkpt lat="-34.97402" lon="-58.09378">
        <time>2021-05-01T18:16:31Z</time>
      </trkpt>
      <trkpt lat="-34.973972" lon="-58.0938">
        <time>2021-05-01T18:16:32Z</time>
      </trkpt>
      <trkpt lat="-34.973923" lon="-58.09382">
        <time>2021-05-01T18:16:33Z</time>
      </trkpt>
      <trkpt lat="-34.973873" lon="-58.093838">
        <time>2021-05-01T18:16:34Z</time>
      </trkpt>
      <trkpt lat="-34.973824" lon="-58.093857">
        <time>2021-05-01T18:16:35Z</time>
      </trkpt>
      <trkpt lat="-34.973774" lon="-58.093876">
        <time>2021-05-01T18:16:36Z</time>
      </trkpt>
      <trkpt lat="-34.973724" lon="-58.093895">
        <time>2021-05-01T18:16:37Z</time>
      </trkpt>
      <trkpt lat="-34.973675" lon="-58.09391">
        <time>2021-05-01T18:16:38Z</time>
      </trkpt>
      <trkpt lat="-34.973625" lon="-58.09393">
        <time>2021-05-01T18:16:39Z</time>
      </trkpt>
      <trkpt lat="-34.97358" lon="-58.093945">
        <time>2021-05-01T18:16:40Z</time>
      </trkpt>
      <trkpt lat="-34.97353" lon="-58.09396">
        <time>2021-05-01T18:16:41Z</time>
      </trkpt>
      <trkpt lat="-34.97348" lon="-58.09397">
        <time>2021-05-01T18:16:42Z</time>
      </trkpt>
      <trkpt lat="-34.97343" lon="-58.093987">
        <time>2021-05-01T18:16:43Z</time>
      </trkpt>
      <trkpt lat="-34.97338" lon="-58.094006">
        <time>2021-05-01T18:16:44Z</time>
      </trkpt>
      <trkpt lat="-34.973335" lon="-58.09402">
        <time>2021-05-01T18:16:45Z</time>
      </trkpt>
      <trkpt lat="-34.97329" lon="-58.09404">
        <time>2021-05-01T18:16:46Z</time>
      </trkpt>
      <trkpt lat="-34.973244" lon="-58.09406">
        <time>2021-05-01T18:16:47Z</time>
      </trkpt>
      <trkpt lat="-34.973194" lon="-58.094078">
        <time>2021-05-01T18:16:48Z</time>
      </trkpt>
      <trkpt lat="-34.97314" lon="-58.0941">
        <time>2021-05-01T18:16:49Z</time>
      </trkpt>
      <trkpt lat="-34.973087" lon="-58.094112">
        <time>2021-05-01T18:16:50Z</time>
      </trkpt>
      <trkpt lat="-34.973038" lon="-58.09413">
        <time>2021-05-01T18:16:51Z</time>
      </trkpt>
      <trkpt lat="-34.97299" lon="-58.09415">
        <time>2021-05-01T18:16:52Z</time>
      </trkpt>
      <trkpt lat="-34.97294" lon="-58.09417">
        <time>2021-05-01T18:16:53Z</time>
      </trkpt>
      <trkpt lat="-34.972885" lon="-58.09419">
        <time>2021-05-01T18:16:54Z</time>
      </trkpt>
      <trkpt lat="-34.972836" lon="-58.094204">
        <time>2021-05-01T18:16:55Z</time>
      </trkpt>
      <trkpt lat="-34.97279" lon="-58.09422">
        <time>2021-05-01T18:16:56Z</time>
      </trkpt>
      <trkpt lat="-34.97274" lon="-58.09424">
        <time>2021-05-01T18:16:57Z</time>
      </trkpt>
      <trkpt lat="-34.97269" lon="-58.094254">
        <time>2021-05-01T18:16:58Z</time>
      </trkpt>
      <trkpt lat="-34.97264" lon="-58.09427">
        <time>2021-05-01T18:16:59Z</time>
      </trkpt>
      <trkpt lat="-34.97259" lon="-58.09428">
        <time>2021-05-01T18:17:00Z</time>
      </trkpt>
      <trkpt lat="-34.972546" lon="-58.0943">
        <time>2021-05-01T18:17:01Z</time>
      </trkpt>
      <trkpt lat="-34.972496" lon="-58.094315">
        <time>2021-05-01T18:17:02Z</time>
      </trkpt>
      <trkpt lat="-34.972446" lon="-58.094326">
        <time>2021-05-01T18:17:03Z</time>
      </trkpt>
      <trkpt lat="-34.972393" lon="-58.09434">
        <time>2021-05-01T18:17:04Z</time>
      </trkpt>
      <trkpt lat="-34.97234" lon="-58.094364">
        <time>2021-05-01T18:17:05Z</time>
      </trkpt>
      <trkpt lat="-34.972286" lon="-58.094383">
        <time>2021-05-01T18:17:06Z</time>
      </trkpt>
      <trkpt lat="-34.972237" lon="-58.094402">
        <time>2021-05-01T18:17:07Z</time>
      </trkpt>
      <trkpt lat="-34.972183" lon="-58.094418">
        <time>2021-05-01T18:17:08Z</time>
      </trkpt>
      <trkpt lat="-34.972126" lon="-58.09443">
        <time>2021-05-01T18:17:09Z</time>
      </trkpt>
      <trkpt lat="-34.972073" lon="-58.094444">
        <time>2021-05-01T18:17:10Z</time>
      </trkpt>
      <trkpt lat="-34.97202" lon="-58.094467">
        <time>2021-05-01T18:17:11Z</time>
      </trkpt>
      <trkpt lat="-34.971962" lon="-58.094486">
        <time>2021-05-01T18:17:12Z</time>
      </trkpt>
      <trkpt lat="-34.971905" lon="-58.094505">
        <time>2021-05-01T18:17:13Z</time>
      </trkpt>
      <trkpt lat="-34.97185" lon="-58.094524">
        <time>2021-05-01T18:17:14Z</time>
      </trkpt>
      <trkpt lat="-34.971798" lon="-58.094543">
        <time>2021-05-01T18:17:15Z</time>
      </trkpt>
      <trkpt lat="-34.97175" lon="-58.094563">
        <time>2021-05-01T18:17:16Z</time>
      </trkpt>
      <trkpt lat="-34.971695" lon="-58.094585">
        <time>2021-05-01T18:17:17Z</time>
      </trkpt>
      <trkpt lat="-34.97165" lon="-58.09461">
        <time>2021-05-01T18:17:18Z</time>
      </trkpt>
      <trkpt lat="-34.9716" lon="-58.094624">
        <time>2021-05-01T18:17:19Z</time>
      </trkpt>
      <trkpt lat="-34.971546" lon="-58.09464">
        <time>2021-05-01T18:17:20Z</time>
      </trkpt>
      <trkpt lat="-34.971497" lon="-58.094658">
        <time>2021-05-01T18:17:21Z</time>
      </trkpt>
      <trkpt lat="-34.971447" lon="-58.094673">
        <time>2021-05-01T18:17:22Z</time>
      </trkpt>
      <trkpt lat="-34.971394" lon="-58.094692">
        <time>2021-05-01T18:17:23Z</time>
      </trkpt>
      <trkpt lat="-34.971344" lon="-58.09471">
        <time>2021-05-01T18:17:24Z</time>
      </trkpt>
      <trkpt lat="-34.97129" lon="-58.09473">
        <time>2021-05-01T18:17:25Z</time>
      </trkpt>
      <trkpt lat="-34.971237" lon="-58.09475">
        <time>2021-05-01T18:17:26Z</time>
      </trkpt>
      <trkpt lat="-34.971184" lon="-58.09477">
        <time>2021-05-01T18:17:27Z</time>
      </trkpt>
      <trkpt lat="-34.97113" lon="-58.094784">
        <time>2021-05-01T18:17:28Z</time>
      </trkpt>
      <trkpt lat="-34.971085" lon="-58.0948">
        <time>2021-05-01T18:17:29Z</time>
      </trkpt>
      <trkpt lat="-34.97103" lon="-58.09482">
        <time>2021-05-01T18:17:30Z</time>
      </trkpt>
      <trkpt lat="-34.970978" lon="-58.094837">
        <time>2021-05-01T18:17:31Z</time>
      </trkpt>
      <trkpt lat="-34.97093" lon="-58.09486">
        <time>2021-05-01T18:17:32Z</time>
      </trkpt>
      <trkpt lat="-34.970875" lon="-58.094875">
        <time>2021-05-01T18:17:33Z</time>
      </trkpt>
      <trkpt lat="-34.97082" lon="-58.094894">
        <time>2021-05-01T18:17:34Z</time>
      </trkpt>
      <trkpt lat="-34.97077" lon="-58.09491">
        <time>2021-05-01T18:17:35Z</time>
      </trkpt>
      <trkpt lat="-34.97072" lon="-58.094933">
        <time>2021-05-01T18:17:36Z</time>
      </trkpt>
      <trkpt lat="-34.97067" lon="-58.094948">
        <time>2021-05-01T18:17:37Z</time>
      </trkpt>
      <trkpt lat="-34.97062" lon="-58.094967">
        <time>2021-05-01T18:17:38Z</time>
      </trkpt>
      <trkpt lat="-34.97057" lon="-58.09499">
        <time>2021-05-01T18:17:39Z</time>
      </trkpt>
      <trkpt lat="-34.97052" lon="-58.095013">
        <time>2021-05-01T18:17:40Z</time>
      </trkpt>
      <trkpt lat="-34.970474" lon="-58.095036">
        <time>2021-05-01T18:17:41Z</time>
      </trkpt>
      <trkpt lat="-34.970425" lon="-58.09506">
        <time>2021-05-01T18:17:42Z</time>
      </trkpt>
      <trkpt lat="-34.970375" lon="-58.09508">
        <time>2021-05-01T18:17:43Z</time>
      </trkpt>
      <trkpt lat="-34.970325" lon="-58.0951">
        <time>2021-05-01T18:17:44Z</time>
      </trkpt>
      <trkpt lat="-34.970276" lon="-58.09512">
        <time>2021-05-01T18:17:45Z</time>
      </trkpt>
      <trkpt lat="-34.970226" lon="-58.095142">
        <time>2021-05-01T18:17:46Z</time>
      </trkpt>
      <trkpt lat="-34.970177" lon="-58.09516">
        <time>2021-05-01T18:17:47Z</time>
      </trkpt>
      <trkpt lat="-34.97013" lon="-58.09518">
        <time>2021-05-01T18:17:48Z</time>
      </trkpt>
      <trkpt lat="-34.970085" lon="-58.095203">
        <time>2021-05-01T18:17:49Z</time>
      </trkpt>
      <trkpt lat="-34.970036" lon="-58.095226">
        <time>2021-05-01T18:17:50Z</time>
      </trkpt>
      <trkpt lat="-34.969986" lon="-58.095245">
        <time>2021-05-01T18:17:51Z</time>
      </trkpt>
      <trkpt lat="-34.96994" lon="-58.095264">
        <time>2021-05-01T18:17:52Z</time>
      </trkpt>
      <trkpt lat="-34.96989" lon="-58.09529">
        <time>2021-05-01T18:17:53Z</time>
      </trkpt>
      <trkpt lat="-34.96984" lon="-58.09531">
        <time>2021-05-01T18:17:54Z</time>
      </trkpt>
      <trkpt lat="-34.969795" lon="-58.095333">
        <time>2021-05-01T18:17:55Z</time>
      </trkpt>
      <trkpt lat="-34.969746" lon="-58.095352">
        <time>2021-05-01T18:17:56Z</time>
      </trkpt>
      <trkpt lat="-34.969704" lon="-58.09537">
        <time>2021-05-01T18:17:57Z</time>
      </trkpt>
      <trkpt lat="-34.969658" lon="-58.095394">
        <time>2021-05-01T18:17:58Z</time>
      </trkpt>
      <trkpt lat="-34.96958" lon="-58.09543">
        <time>2021-05-01T18:18:00Z</time>
      </trkpt>
      <trkpt lat="-34.9695" lon="-58.09545">
        <time>2021-05-01T18:18:02Z</time>
      </trkpt>
      <trkpt lat="-34.969414" lon="-58.095478">
        <time>2021-05-01T18:18:04Z</time>
      </trkpt>
      <trkpt lat="-34.969364" lon="-58.095497">
        <time>2021-05-01T18:18:05Z</time>
      </trkpt>
      <trkpt lat="-34.96932" lon="-58.095512">
        <time>2021-05-01T18:18:06Z</time>
      </trkpt>
      <trkpt lat="-34.969276" lon="-58.09554">
        <time>2021-05-01T18:18:07Z</time>
      </trkpt>
      <trkpt lat="-34.9692" lon="-58.095585">
        <time>2021-05-01T18:18:09Z</time>
      </trkpt>
      <trkpt lat="-34.96916" lon="-58.09562">
        <time>2021-05-01T18:18:10Z</time>
      </trkpt>
      <trkpt lat="-34.96911" lon="-58.09565">
        <time>2021-05-01T18:18:11Z</time>
      </trkpt>
      <trkpt lat="-34.96906" lon="-58.095676">
        <time>2021-05-01T18:18:12Z</time>
      </trkpt>
      <trkpt lat="-34.96901" lon="-58.0957">
        <time>2021-05-01T18:18:13Z</time>
      </trkpt>
      <trkpt lat="-34.968964" lon="-58.09572">
        <time>2021-05-01T18:18:14Z</time>
      </trkpt>
      <trkpt lat="-34.96892" lon="-58.095745">
        <time>2021-05-01T18:18:15Z</time>
      </trkpt>
      <trkpt lat="-34.968876" lon="-58.09577">
        <time>2021-05-01T18:18:16Z</time>
      </trkpt>
      <trkpt lat="-34.96883" lon="-58.09579">
        <time>2021-05-01T18:18:17Z</time>
      </trkpt>
      <trkpt lat="-34.96873" lon="-58.095825">
        <time>2021-05-01T18:18:19Z</time>
      </trkpt>
      <trkpt lat="-34.968674" lon="-58.09586">
        <time>2021-05-01T18:18:20Z</time>
      </trkpt>
      <trkpt lat="-34.968616" lon="-58.09588">
        <time>2021-05-01T18:18:21Z</time>
      </trkpt>
      <trkpt lat="-34.96856" lon="-58.095905">
        <time>2021-05-01T18:18:22Z</time>
      </trkpt>
      <trkpt lat="-34.968506" lon="-58.095932">
        <time>2021-05-01T18:18:23Z</time>
      </trkpt>
      <trkpt lat="-34.968452" lon="-58.09595">
        <time>2021-05-01T18:18:24Z</time>
      </trkpt>
      <trkpt lat="-34.96839" lon="-58.095974">
        <time>2021-05-01T18:18:25Z</time>
      </trkpt>
      <trkpt lat="-34.968338" lon="-58.095993">
        <time>2021-05-01T18:18:26Z</time>
      </trkpt>
      <trkpt lat="-34.96828" lon="-58.096016">
        <time>2021-05-01T18:18:27Z</time>
      </trkpt>
      <trkpt lat="-34.968227" lon="-58.096043">
        <time>2021-05-01T18:18:28Z</time>
      </trkpt>
      <trkpt lat="-34.968174" lon="-58.09606">
        <time>2021-05-01T18:18:29Z</time>
      </trkpt>
      <trkpt lat="-34.968117" lon="-58.096085">
        <time>2021-05-01T18:18:30Z</time>
      </trkpt>
      <trkpt lat="-34.968063" lon="-58.096107">
        <time>2021-05-01T18:18:31Z</time>
      </trkpt>
      <trkpt lat="-34.968006" lon="-58.096134">
        <time>2021-05-01T18:18:32Z</time>
      </trkpt>
      <trkpt lat="-34.967953" lon="-58.096157">
        <time>2021-05-01T18:18:33Z</time>
      </trkpt>
      <trkpt lat="-34.9679" lon="-58.096184">
        <time>2021-05-01T18:18:34Z</time>
      </trkpt>
      <trkpt lat="-34.967842" lon="-58.096207">
        <time>2021-05-01T18:18:35Z</time>
      </trkpt>
      <trkpt lat="-34.96779" lon="-58.096226">
        <time>2021-05-01T18:18:36Z</time>
      </trkpt>
      <trkpt lat="-34.967735" lon="-58.09625">
        <time>2021-05-01T18:18:37Z</time>
      </trkpt>
      <trkpt lat="-34.967678" lon="-58.096275">
        <time>2021-05-01T18:18:38Z</time>
      </trkpt>
      <trkpt lat="-34.967625" lon="-58.0963">
        <time>2021-05-01T18:18:39Z</time>
      </trkpt>
      <trkpt lat="-34.96757" lon="-58.09632">
        <time>2021-05-01T18:18:40Z</time>
      </trkpt>
      <trkpt lat="-34.967514" lon="-58.096344">
        <time>2021-05-01T18:18:41Z</time>
      </trkpt>
      <trkpt lat="-34.967457" lon="-58.096367">
        <time>2021-05-01T18:18:42Z</time>
      </trkpt>
      <trkpt lat="-34.967403" lon="-58.096394">
        <time>2021-05-01T18:18:43Z</time>
      </trkpt>
      <trkpt lat="-34.967354" lon="-58.096416">
        <time>2021-05-01T18:18:44Z</time>
      </trkpt>
      <trkpt lat="-34.967304" lon="-58.09644">
        <time>2021-05-01T18:18:46Z</time>
      </trkpt>
      <trkpt lat="-34.96725" lon="-58.096462">
        <time>2021-05-01T18:18:47Z</time>
      </trkpt>
      <trkpt lat="-34.967205" lon="-58.096485">
        <time>2021-05-01T18:18:48Z</time>
      </trkpt>
      <trkpt lat="-34.967155" lon="-58.096504">
        <time>2021-05-01T18:18:49Z</time>
      </trkpt>
      <trkpt lat="-34.967106" lon="-58.09652">
        <time>2021-05-01T18:18:50Z</time>
      </trkpt>
      <trkpt lat="-34.96706" lon="-58.09654">
        <time>2021-05-01T18:18:51Z</time>
      </trkpt>
      <trkpt lat="-34.967014" lon="-58.096554">
        <time>2021-05-01T18:18:52Z</time>
      </trkpt>
      <trkpt lat="-34.96697" lon="-58.09657">
        <time>2021-05-01T18:18:53Z</time>
      </trkpt>
      <trkpt lat="-34.96688" lon="-58.09659">
        <time>2021-05-01T18:18:55Z</time>
      </trkpt>
      <trkpt lat="-34.966835" lon="-58.0966">
        <time>2021-05-01T18:18:56Z</time>
      </trkpt>
      <trkpt lat="-34.96679" lon="-58.096615">
        <time>2021-05-01T18:18:57Z</time>
      </trkpt>
      <trkpt lat="-34.96674" lon="-58.09663">
        <time>2021-05-01T18:18:58Z</time>
      </trkpt>
      <trkpt lat="-34.966686" lon="-58.096657">
        <time>2021-05-01T18:18:59Z</time>
      </trkpt>
      <trkpt lat="-34.96664" lon="-58.096676">
        <time>2021-05-01T18:19:00Z</time>
      </trkpt>
      <trkpt lat="-34.9666" lon="-58.096703">
        <time>2021-05-01T18:19:01Z</time>
      </trkpt>
      <trkpt lat="-34.966545" lon="-58.09673">
        <time>2021-05-01T18:19:02Z</time>
      </trkpt>
      <trkpt lat="-34.9665" lon="-58.096764">
        <time>2021-05-01T18:19:03Z</time>
      </trkpt>
      <trkpt lat="-34.966454" lon="-58.09679">
        <time>2021-05-01T18:19:04Z</time>
      </trkpt>
      <trkpt lat="-34.9664" lon="-58.096813">
        <time>2021-05-01T18:19:05Z</time>
      </trkpt>
      <trkpt lat="-34.966347" lon="-58.096836">
        <time>2021-05-01T18:19:06Z</time>
      </trkpt>
      <trkpt lat="-34.966297" lon="-58.09686">
        <time>2021-05-01T18:19:07Z</time>
      </trkpt>
      <trkpt lat="-34.966248" lon="-58.09688">
        <time>2021-05-01T18:19:08Z</time>
      </trkpt>
      <trkpt lat="-34.966198" lon="-58.096897">
        <time>2021-05-01T18:19:09Z</time>
      </trkpt>
      <trkpt lat="-34.966152" lon="-58.09692">
        <time>2021-05-01T18:19:10Z</time>
      </trkpt>
      <trkpt lat="-34.966103" lon="-58.096943">
        <time>2021-05-01T18:19:11Z</time>
      </trkpt>
      <trkpt lat="-34.966053" lon="-58.096966">
        <time>2021-05-01T18:19:12Z</time>
      </trkpt>
      <trkpt lat="-34.966007" lon="-58.09699">
        <time>2021-05-01T18:19:13Z</time>
      </trkpt>
      <trkpt lat="-34.96596" lon="-58.09701">
        <time>2021-05-01T18:19:14Z</time>
      </trkpt>
      <trkpt lat="-34.965916" lon="-58.09703">
        <time>2021-05-01T18:19:15Z</time>
      </trkpt>
      <trkpt lat="-34.965874" lon="-58.097054">
        <time>2021-05-01T18:19:16Z</time>
      </trkpt>
      <trkpt lat="-34.96583" lon="-58.09708">
        <time>2021-05-01T18:19:17Z</time>
      </trkpt>
      <trkpt lat="-34.96575" lon="-58.097126">
        <time>2021-05-01T18:19:19Z</time>
      </trkpt>
      <trkpt lat="-34.965706" lon="-58.09715">
        <time>2021-05-01T18:19:20Z</time>
      </trkpt>
      <trkpt lat="-34.96566" lon="-58.09717">
        <time>2021-05-01T18:19:21Z</time>
      </trkpt>
      <trkpt lat="-34.96561" lon="-58.097195">
        <time>2021-05-01T18:19:22Z</time>
      </trkpt>
      <trkpt lat="-34.965565" lon="-58.097218">
        <time>2021-05-01T18:19:23Z</time>
      </trkpt>
      <trkpt lat="-34.96551" lon="-58.097248">
        <time>2021-05-01T18:19:24Z</time>
      </trkpt>
      <trkpt lat="-34.96546" lon="-58.097275">
        <time>2021-05-01T18:19:25Z</time>
      </trkpt>
      <trkpt lat="-34.965416" lon="-58.0973">
        <time>2021-05-01T18:19:26Z</time>
      </trkpt>
      <trkpt lat="-34.965343" lon="-58.097363">
        <time>2021-05-01T18:19:28Z</time>
      </trkpt>
      <trkpt lat="-34.965313" lon="-58.09742">
        <time>2021-05-01T18:19:29Z</time>
      </trkpt>
      <trkpt lat="-34.965282" lon="-58.097473">
        <time>2021-05-01T18:19:30Z</time>
      </trkpt>
      <trkpt lat="-34.965256" lon="-58.097534">
        <time>2021-05-01T18:19:31Z</time>
      </trkpt>
      <trkpt lat="-34.96523" lon="-58.0976">
        <time>2021-05-01T18:19:32Z</time>
      </trkpt>
      <trkpt lat="-34.9652" lon="-58.097664">
        <time>2021-05-01T18:19:33Z</time>
      </trkpt>
      <trkpt lat="-34.96517" lon="-58.097736">
        <time>2021-05-01T18:19:34Z</time>
      </trkpt>
      <trkpt lat="-34.96514" lon="-58.097805">
        <time>2021-05-01T18:19:35Z</time>
      </trkpt>
      <trkpt lat="-34.96511" lon="-58.097874">
        <time>2021-05-01T18:19:36Z</time>
      </trkpt>
      <trkpt lat="-34.965084" lon="-58.09794">
        <time>2021-05-01T18:19:37Z</time>
      </trkpt>
      <trkpt lat="-34.965057" lon="-58.098007">
        <time>2021-05-01T18:19:38Z</time>
      </trkpt>
      <trkpt lat="-34.96504" lon="-58.098076">
        <time>2021-05-01T18:19:39Z</time>
      </trkpt>
      <trkpt lat="-34.965008" lon="-58.09814">
        <time>2021-05-01T18:19:40Z</time>
      </trkpt>
      <trkpt lat="-34.96498" lon="-58.09821">
        <time>2021-05-01T18:19:41Z</time>
      </trkpt>
      <trkpt lat="-34.96495" lon="-58.098278">
        <time>2021-05-01T18:19:42Z</time>
      </trkpt>
      <trkpt lat="-34.964924" lon="-58.098343">
        <time>2021-05-01T18:19:43Z</time>
      </trkpt>
      <trkpt lat="-34.964897" lon="-58.098408">
        <time>2021-05-01T18:19:44Z</time>
      </trkpt>
      <trkpt lat="-34.96487" lon="-58.09847">
        <time>2021-05-01T18:19:45Z</time>
      </trkpt>
      <trkpt lat="-34.964844" lon="-58.098534">
        <time>2021-05-01T18:19:46Z</time>
      </trkpt>
      <trkpt lat="-34.964817" lon="-58.0986">
        <time>2021-05-01T18:19:47Z</time>
      </trkpt>
      <trkpt lat="-34.96479" lon="-58.098667">
        <time>2021-05-01T18:19:48Z</time>
      </trkpt>
      <trkpt lat="-34.964764" lon="-58.098732">
        <time>2021-05-01T18:19:49Z</time>
      </trkpt>
      <trkpt lat="-34.964737" lon="-58.0988">
        <time>2021-05-01T18:19:50Z</time>
      </trkpt>
      <trkpt lat="-34.96471" lon="-58.09886">
        <time>2021-05-01T18:19:51Z</time>
      </trkpt>
      <trkpt lat="-34.964687" lon="-58.098927">
        <time>2021-05-01T18:19:52Z</time>
      </trkpt>
      <trkpt lat="-34.96466" lon="-58.098988">
        <time>2021-05-01T18:19:53Z</time>
      </trkpt>
      <trkpt lat="-34.964634" lon="-58.099052">
        <time>2021-05-01T18:19:54Z</time>
      </trkpt>
      <trkpt lat="-34.964615" lon="-58.099113">
        <time>2021-05-01T18:19:55Z</time>
      </trkpt>
      <trkpt lat="-34.964603" lon="-58.099174">
        <time>2021-05-01T18:19:56Z</time>
      </trkpt>
      <trkpt lat="-34.964596" lon="-58.099236">
        <time>2021-05-01T18:19:57Z</time>
      </trkpt>
      <trkpt lat="-34.96458" lon="-58.09929">
        <time>2021-05-01T18:19:58Z</time>
      </trkpt>
      <trkpt lat="-34.964558" lon="-58.099346">
        <time>2021-05-01T18:19:59Z</time>
      </trkpt>
      <trkpt lat="-34.964535" lon="-58.0994">
        <time>2021-05-01T18:20:00Z</time>
      </trkpt>
      <trkpt lat="-34.9645" lon="-58.099453">
        <time>2021-05-01T18:20:01Z</time>
      </trkpt>
      <trkpt lat="-34.964474" lon="-58.099518">
        <time>2021-05-01T18:20:02Z</time>
      </trkpt>
      <trkpt lat="-34.96445" lon="-58.09958">
        <time>2021-05-01T18:20:03Z</time>
      </trkpt>
      <trkpt lat="-34.964424" lon="-58.099644">
        <time>2021-05-01T18:20:04Z</time>
      </trkpt>
      <trkpt lat="-34.964394" lon="-58.099705">
        <time>2021-05-01T18:20:05Z</time>
      </trkpt>
      <trkpt lat="-34.96437" lon="-58.099766">
        <time>2021-05-01T18:20:06Z</time>
      </trkpt>
      <trkpt lat="-34.96434" lon="-58.09983">
        <time>2021-05-01T18:20:07Z</time>
      </trkpt>
      <trkpt lat="-34.964314" lon="-58.099895">
        <time>2021-05-01T18:20:08Z</time>
      </trkpt>
      <trkpt lat="-34.964287" lon="-58.09996">
        <time>2021-05-01T18:20:09Z</time>
      </trkpt>
      <trkpt lat="-34.964256" lon="-58.10002">
        <time>2021-05-01T18:20:10Z</time>
      </trkpt>
      <trkpt lat="-34.964226" lon="-58.100086">
        <time>2021-05-01T18:20:11Z</time>
      </trkpt>
      <trkpt lat="-34.9642" lon="-58.10015">
        <time>2021-05-01T18:20:12Z</time>
      </trkpt>
      <trkpt lat="-34.964172" lon="-58.100216">
        <time>2021-05-01T18:20:13Z</time>
      </trkpt>
      <trkpt lat="-34.96414" lon="-58.10028">
        <time>2021-05-01T18:20:14Z</time>
      </trkpt>
      <trkpt lat="-34.96412" lon="-58.100346">
        <time>2021-05-01T18:20:15Z</time>
      </trkpt>
      <trkpt lat="-34.96409" lon="-58.10041">
        <time>2021-05-01T18:20:16Z</time>
      </trkpt>
      <trkpt lat="-34.964066" lon="-58.100475">
        <time>2021-05-01T18:20:17Z</time>
      </trkpt>
      <trkpt lat="-34.96404" lon="-58.10054">
        <time>2021-05-01T18:20:18Z</time>
      </trkpt>
      <trkpt lat="-34.964012" lon="-58.100605">
        <time>2021-05-01T18:20:19Z</time>
      </trkpt>
      <trkpt lat="-34.96399" lon="-58.100662">
        <time>2021-05-01T18:20:20Z</time>
      </trkpt>
      <trkpt lat="-34.963966" lon="-58.100723">
        <time>2021-05-01T18:20:21Z</time>
      </trkpt>
      <trkpt lat="-34.963943" lon="-58.10079">
        <time>2021-05-01T18:20:22Z</time>
      </trkpt>
      <trkpt lat="-34.96392" lon="-58.10085">
        <time>2021-05-01T18:20:23Z</time>
      </trkpt>
      <trkpt lat="-34.963898" lon="-58.100906">
        <time>2021-05-01T18:20:24Z</time>
      </trkpt>
      <trkpt lat="-34.963875" lon="-58.100964">
        <time>2021-05-01T18:20:25Z</time>
      </trkpt>
      <trkpt lat="-34.963856" lon="-58.101025">
        <time>2021-05-01T18:20:26Z</time>
      </trkpt>
      <trkpt lat="-34.963833" lon="-58.10108">
        <time>2021-05-01T18:20:27Z</time>
      </trkpt>
      <trkpt lat="-34.96381" lon="-58.101143">
        <time>2021-05-01T18:20:28Z</time>
      </trkpt>
      <trkpt lat="-34.963787" lon="-58.101204">
        <time>2021-05-01T18:20:29Z</time>
      </trkpt>
      <trkpt lat="-34.963764" lon="-58.101265">
        <time>2021-05-01T18:20:30Z</time>
      </trkpt>
      <trkpt lat="-34.96374" lon="-58.10133">
        <time>2021-05-01T18:20:31Z</time>
      </trkpt>
      <trkpt lat="-34.96372" lon="-58.10139">
        <time>2021-05-01T18:20:32Z</time>
      </trkpt>
      <trkpt lat="-34.96369" lon="-58.101444">
        <time>2021-05-01T18:20:33Z</time>
      </trkpt>
      <trkpt lat="-34.963665" lon="-58.101494">
        <time>2021-05-01T18:20:34Z</time>
      </trkpt>
      <trkpt lat="-34.963642" lon="-58.10155">
        <time>2021-05-01T18:20:35Z</time>
      </trkpt>
      <trkpt lat="-34.96362" lon="-58.10161">
        <time>2021-05-01T18:20:36Z</time>
      </trkpt>
      <trkpt lat="-34.963596" lon="-58.101665">
        <time>2021-05-01T18:20:37Z</time>
      </trkpt>
      <trkpt lat="-34.96357" lon="-58.101723">
        <time>2021-05-01T18:20:38Z</time>
      </trkpt>
      <trkpt lat="-34.963547" lon="-58.101788">
        <time>2021-05-01T18:20:39Z</time>
      </trkpt>
      <trkpt lat="-34.963524" lon="-58.10185">
        <time>2021-05-01T18:20:40Z</time>
      </trkpt>
      <trkpt lat="-34.9635" lon="-58.101906">
        <time>2021-05-01T18:20:41Z</time>
      </trkpt>
      <trkpt lat="-34.963478" lon="-58.101963">
        <time>2021-05-01T18:20:42Z</time>
      </trkpt>
      <trkpt lat="-34.963455" lon="-58.10202">
        <time>2021-05-01T18:20:43Z</time>
      </trkpt>
      <trkpt lat="-34.963436" lon="-58.102077">
        <time>2021-05-01T18:20:44Z</time>
      </trkpt>
      <trkpt lat="-34.96341" lon="-58.102135">
        <time>2021-05-01T18:20:45Z</time>
      </trkpt>
      <trkpt lat="-34.963387" lon="-58.1022">
        <time>2021-05-01T18:20:46Z</time>
      </trkpt>
      <trkpt lat="-34.963364" lon="-58.10226">
        <time>2021-05-01T18:20:47Z</time>
      </trkpt>
      <trkpt lat="-34.96334" lon="-58.10232">
        <time>2021-05-01T18:20:48Z</time>
      </trkpt>
      <trkpt lat="-34.963318" lon="-58.10238">
        <time>2021-05-01T18:20:49Z</time>
      </trkpt>
      <trkpt lat="-34.963295" lon="-58.10244">
        <time>2021-05-01T18:20:50Z</time>
      </trkpt>
      <trkpt lat="-34.963272" lon="-58.1025">
        <time>2021-05-01T18:20:51Z</time>
      </trkpt>
      <trkpt lat="-34.96325" lon="-58.102562">
        <time>2021-05-01T18:20:52Z</time>
      </trkpt>
      <trkpt lat="-34.963226" lon="-58.102623">
        <time>2021-05-01T18:20:53Z</time>
      </trkpt>
      <trkpt lat="-34.963196" lon="-58.10268">
        <time>2021-05-01T18:20:54Z</time>
      </trkpt>
      <trkpt lat="-34.963165" lon="-58.10273">
        <time>2021-05-01T18:20:55Z</time>
      </trkpt>
      <trkpt lat="-34.963135" lon="-58.102783">
        <time>2021-05-01T18:20:56Z</time>
      </trkpt>
      <trkpt lat="-34.963097" lon="-58.102833">
        <time>2021-05-01T18:20:57Z</time>
      </trkpt>
      <trkpt lat="-34.963055" lon="-58.10288">
        <time>2021-05-01T18:20:58Z</time>
      </trkpt>
      <trkpt lat="-34.963017" lon="-58.102917">
        <time>2021-05-01T18:20:59Z</time>
      </trkpt>
      <trkpt lat="-34.96297" lon="-58.10295">
        <time>2021-05-01T18:21:00Z</time>
      </trkpt>
      <trkpt lat="-34.962925" lon="-58.10298">
        <time>2021-05-01T18:21:01Z</time>
      </trkpt>
      <trkpt lat="-34.96288" lon="-58.103012">
        <time>2021-05-01T18:21:02Z</time>
      </trkpt>
      <trkpt lat="-34.96283" lon="-58.103035">
        <time>2021-05-01T18:21:03Z</time>
      </trkpt>
      <trkpt lat="-34.962776" lon="-58.103054">
        <time>2021-05-01T18:21:04Z</time>
      </trkpt>
      <trkpt lat="-34.962723" lon="-58.103073">
        <time>2021-05-01T18:21:05Z</time>
      </trkpt>
      <trkpt lat="-34.96267" lon="-58.10309">
        <time>2021-05-01T18:21:06Z</time>
      </trkpt>
      <trkpt lat="-34.962612" lon="-58.103104">
        <time>2021-05-01T18:21:07Z</time>
      </trkpt>
      <trkpt lat="-34.96256" lon="-58.10312">
        <time>2021-05-01T18:21:08Z</time>
      </trkpt>
      <trkpt lat="-34.962505" lon="-58.103134">
        <time>2021-05-01T18:21:09Z</time>
      </trkpt>
      <trkpt lat="-34.962452" lon="-58.103153">
        <time>2021-05-01T18:21:10Z</time>
      </trkpt>
      <trkpt lat="-34.962402" lon="-58.10317">
        <time>2021-05-01T18:21:11Z</time>
      </trkpt>
      <trkpt lat="-34.962353" lon="-58.103184">
        <time>2021-05-01T18:21:12Z</time>
      </trkpt>
      <trkpt lat="-34.96231" lon="-58.1032">
        <time>2021-05-01T18:21:13Z</time>
      </trkpt>
      <trkpt lat="-34.962223" lon="-58.103237">
        <time>2021-05-01T18:21:15Z</time>
      </trkpt>
      <trkpt lat="-34.96218" lon="-58.103252">
        <time>2021-05-01T18:21:16Z</time>
      </trkpt>
      <trkpt lat="-34.962135" lon="-58.103268">
        <time>2021-05-01T18:21:17Z</time>
      </trkpt>
      <trkpt lat="-34.962086" lon="-58.103283">
        <time>2021-05-01T18:21:18Z</time>
      </trkpt>
      <trkpt lat="-34.96201" lon="-58.103317">
        <time>2021-05-01T18:21:20Z</time>
      </trkpt>
      <trkpt lat="-34.961937" lon="-58.103344">
        <time>2021-05-01T18:21:22Z</time>
      </trkpt>
      <trkpt lat="-34.961845" lon="-58.103363">
        <time>2021-05-01T18:21:24Z</time>
      </trkpt>
      <trkpt lat="-34.961796" lon="-58.103374">
        <time>2021-05-01T18:21:25Z</time>
      </trkpt>
      <trkpt lat="-34.96175" lon="-58.103386">
        <time>2021-05-01T18:21:26Z</time>
      </trkpt>
      <trkpt lat="-34.961666" lon="-58.1034">
        <time>2021-05-01T18:21:28Z</time>
      </trkpt>
      <trkpt lat="-34.961586" lon="-58.103428">
        <time>2021-05-01T18:21:30Z</time>
      </trkpt>
      <trkpt lat="-34.961517" lon="-58.103447">
        <time>2021-05-01T18:21:32Z</time>
      </trkpt>
      <trkpt lat="-34.961445" lon="-58.103474">
        <time>2021-05-01T18:21:34Z</time>
      </trkpt>
      <trkpt lat="-34.961395" lon="-58.10349">
        <time>2021-05-01T18:21:35Z</time>
      </trkpt>
      <trkpt lat="-34.96135" lon="-58.103508">
        <time>2021-05-01T18:21:36Z</time>
      </trkpt>
      <trkpt lat="-34.96127" lon="-58.103546">
        <time>2021-05-01T18:21:38Z</time>
      </trkpt>
      <trkpt lat="-34.961193" lon="-58.103573">
        <time>2021-05-01T18:21:40Z</time>
      </trkpt>
      <trkpt lat="-34.961147" lon="-58.103592">
        <time>2021-05-01T18:21:41Z</time>
      </trkpt>
      <trkpt lat="-34.961098" lon="-58.10361">
        <time>2021-05-01T18:21:42Z</time>
      </trkpt>
      <trkpt lat="-34.96105" lon="-58.10363">
        <time>2021-05-01T18:21:43Z</time>
      </trkpt>
      <trkpt lat="-34.961" lon="-58.103657">
        <time>2021-05-01T18:21:44Z</time>
      </trkpt>
      <trkpt lat="-34.96094" lon="-58.103672">
        <time>2021-05-01T18:21:45Z</time>
      </trkpt>
      <trkpt lat="-34.960888" lon="-58.103687">
        <time>2021-05-01T18:21:46Z</time>
      </trkpt>
      <trkpt lat="-34.960815" lon="-58.10369">
        <time>2021-05-01T18:21:47Z</time>
      </trkpt>
      <trkpt lat="-34.960754" lon="-58.103706">
        <time>2021-05-01T18:21:48Z</time>
      </trkpt>
      <trkpt lat="-34.960686" lon="-58.10372">
        <time>2021-05-01T18:21:49Z</time>
      </trkpt>
      <trkpt lat="-34.960617" lon="-58.103737">
        <time>2021-05-01T18:21:50Z</time>
      </trkpt>
      <trkpt lat="-34.960556" lon="-58.103756">
        <time>2021-05-01T18:21:51Z</time>
      </trkpt>
      <trkpt lat="-34.96049" lon="-58.103775">
        <time>2021-05-01T18:21:52Z</time>
      </trkpt>
      <trkpt lat="-34.960434" lon="-58.103794">
        <time>2021-05-01T18:21:53Z</time>
      </trkpt>
      <trkpt lat="-34.96036" lon="-58.103813">
        <time>2021-05-01T18:21:54Z</time>
      </trkpt>
      <trkpt lat="-34.9603" lon="-58.103832">
        <time>2021-05-01T18:21:55Z</time>
      </trkpt>
      <trkpt lat="-34.960243" lon="-58.103848">
        <time>2021-05-01T18:21:56Z</time>
      </trkpt>
      <trkpt lat="-34.960182" lon="-58.103863">
        <time>2021-05-01T18:21:57Z</time>
      </trkpt>
      <trkpt lat="-34.96012" lon="-58.10388">
        <time>2021-05-01T18:21:58Z</time>
      </trkpt>
      <trkpt lat="-34.96006" lon="-58.1039">
        <time>2021-05-01T18:21:59Z</time>
      </trkpt>
      <trkpt lat="-34.960003" lon="-58.103924">
        <time>2021-05-01T18:22:00Z</time>
      </trkpt>
      <trkpt lat="-34.959953" lon="-58.10393">
        <time>2021-05-01T18:22:01Z</time>
      </trkpt>
      <trkpt lat="-34.959908" lon="-58.10394">
        <time>2021-05-01T18:22:02Z</time>
      </trkpt>
      <trkpt lat="-34.959835" lon="-58.103954">
        <time>2021-05-01T18:22:04Z</time>
      </trkpt>
      <trkpt lat="-34.959766" lon="-58.103966">
        <time>2021-05-01T18:22:06Z</time>
      </trkpt>
      <trkpt lat="-34.95969" lon="-58.10396">
        <time>2021-05-01T18:22:08Z</time>
      </trkpt>
      <trkpt lat="-34.95962" lon="-58.103966">
        <time>2021-05-01T18:22:10Z</time>
      </trkpt>
      <trkpt lat="-34.95955" lon="-58.103966">
        <time>2021-05-01T18:22:12Z</time>
      </trkpt>
      <trkpt lat="-34.95948" lon="-58.10397">
        <time>2021-05-01T18:22:14Z</time>
      </trkpt>
      <trkpt lat="-34.959423" lon="-58.10398">
        <time>2021-05-01T18:22:16Z</time>
      </trkpt>
      <trkpt lat="-34.95938" lon="-58.10402">
        <time>2021-05-01T18:22:18Z</time>
      </trkpt>
      <trkpt lat="-34.959328" lon="-58.10406">
        <time>2021-05-01T18:22:20Z</time>
      </trkpt>
      <trkpt lat="-34.95925" lon="-58.10412">
        <time>2021-05-01T18:22:22Z</time>
      </trkpt>
      <trkpt lat="-34.95921" lon="-58.10414">
        <time>2021-05-01T18:22:23Z</time>
      </trkpt>
      <trkpt lat="-34.959164" lon="-58.10416">
        <time>2021-05-01T18:22:24Z</time>
      </trkpt>
      <trkpt lat="-34.959087" lon="-58.10418">
        <time>2021-05-01T18:22:26Z</time>
      </trkpt>
      <trkpt lat="-34.959034" lon="-58.104187">
        <time>2021-05-01T18:22:28Z</time>
      </trkpt>
      <trkpt lat="-34.958984" lon="-58.104183">
        <time>2021-05-01T18:22:30Z</time>
      </trkpt>
      <trkpt lat="-34.95897" lon="-58.104183">
        <time>2021-05-01T18:22:40Z</time>
      </trkpt>
      <trkpt lat="-34.95897" lon="-58.104183">
        <time>2021-05-01T18:22:50Z</time>
      </trkpt>
      <trkpt lat="-34.95897" lon="-58.104183">
        <time>2021-05-01T18:23:00Z</time>
      </trkpt>
      <trkpt lat="-34.95897" lon="-58.104183">
        <time>2021-05-01T18:23:10Z</time>
      </trkpt>
      <trkpt lat="-34.958908" lon="-58.104202">
        <time>2021-05-01T18:23:20Z</time>
      </trkpt>
      <trkpt lat="-34.958908" lon="-58.104202">
        <time>2021-05-01T18:23:30Z</time>
      </trkpt>
      <trkpt lat="-34.958908" lon="-58.104202">
        <time>2021-05-01T18:23:40Z</time>
      </trkpt>
      <trkpt lat="-34.958908" lon="-58.104202">
        <time>2021-05-01T18:23:50Z</time>
      </trkpt>
      <trkpt lat="-34.958874" lon="-58.104206">
        <time>2021-05-01T18:25:02Z</time>
      </trkpt>
      <trkpt lat="-34.958874" lon="-58.104206">
        <time>2021-05-01T18:25:12Z</time>
      </trkpt>
      <trkpt lat="-34.95892" lon="-58.10418">
        <time>2021-05-01T18:25:16Z</time>
      </trkpt>
      <trkpt lat="-34.95898" lon="-58.10417">
        <time>2021-05-01T18:25:34Z</time>
      </trkpt>
      <trkpt lat="-34.95903" lon="-58.104164">
        <time>2021-05-01T18:25:37Z</time>
      </trkpt>
      <trkpt lat="-34.959057" lon="-58.10415">
        <time>2021-05-01T18:25:47Z</time>
      </trkpt>
      <trkpt lat="-34.959057" lon="-58.10415">
        <time>2021-05-01T18:25:57Z</time>
      </trkpt>
      <trkpt lat="-34.959057" lon="-58.10415">
        <time>2021-05-01T18:26:07Z</time>
      </trkpt>
      <trkpt lat="-34.959057" lon="-58.10415">
        <time>2021-05-01T18:26:17Z</time>
      </trkpt>
      <trkpt lat="-34.9591" lon="-58.104126">
        <time>2021-05-01T18:26:22Z</time>
      </trkpt>
      <trkpt lat="-34.959164" lon="-58.1041">
        <time>2021-05-01T18:26:24Z</time>
      </trkpt>
      <trkpt lat="-34.95924" lon="-58.104073">
        <time>2021-05-01T18:26:26Z</time>
      </trkpt>
      <trkpt lat="-34.959324" lon="-58.104046">
        <time>2021-05-01T18:26:28Z</time>
      </trkpt>
      <trkpt lat="-34.9594" lon="-58.10402">
        <time>2021-05-01T18:26:30Z</time>
      </trkpt>
      <trkpt lat="-34.959484" lon="-58.103992">
        <time>2021-05-01T18:26:32Z</time>
      </trkpt>
      <trkpt lat="-34.95957" lon="-58.10397">
        <time>2021-05-01T18:26:34Z</time>
      </trkpt>
      <trkpt lat="-34.95962" lon="-58.103954">
        <time>2021-05-01T18:26:35Z</time>
      </trkpt>
      <trkpt lat="-34.959667" lon="-58.10394">
        <time>2021-05-01T18:26:36Z</time>
      </trkpt>
      <trkpt lat="-34.959747" lon="-58.1039">
        <time>2021-05-01T18:26:38Z</time>
      </trkpt>
      <trkpt lat="-34.95979" lon="-58.10388">
        <time>2021-05-01T18:26:39Z</time>
      </trkpt>
      <trkpt lat="-34.959877" lon="-58.10386">
        <time>2021-05-01T18:26:41Z</time>
      </trkpt>
      <trkpt lat="-34.959927" lon="-58.103836">
        <time>2021-05-01T18:26:42Z</time>
      </trkpt>
      <trkpt lat="-34.95997" lon="-58.10382">
        <time>2021-05-01T18:26:43Z</time>
      </trkpt>
      <trkpt lat="-34.960075" lon="-58.103794">
        <time>2021-05-01T18:26:45Z</time>
      </trkpt>
      <trkpt lat="-34.960125" lon="-58.103783">
        <time>2021-05-01T18:26:46Z</time>
      </trkpt>
      <trkpt lat="-34.96017" lon="-58.10377">
        <time>2021-05-01T18:26:47Z</time>
      </trkpt>
      <trkpt lat="-34.96025" lon="-58.103745">
        <time>2021-05-01T18:26:49Z</time>
      </trkpt>
      <trkpt lat="-34.960335" lon="-58.10372">
        <time>2021-05-01T18:26:51Z</time>
      </trkpt>
      <trkpt lat="-34.960377" lon="-58.103706">
        <time>2021-05-01T18:26:52Z</time>
      </trkpt>
      <trkpt lat="-34.960453" lon="-58.103683">
        <time>2021-05-01T18:26:54Z</time>
      </trkpt>
      <trkpt lat="-34.960526" lon="-58.103664">
        <time>2021-05-01T18:26:56Z</time>
      </trkpt>
      <trkpt lat="-34.960594" lon="-58.10365">
        <time>2021-05-01T18:26:58Z</time>
      </trkpt>
      <trkpt lat="-34.96065" lon="-58.10365">
        <time>2021-05-01T18:27:00Z</time>
      </trkpt>
      <trkpt lat="-34.960693" lon="-58.103714">
        <time>2021-05-01T18:27:02Z</time>
      </trkpt>
      <trkpt lat="-34.960705" lon="-58.10382">
        <time>2021-05-01T18:27:04Z</time>
      </trkpt>
      <trkpt lat="-34.960712" lon="-58.10388">
        <time>2021-05-01T18:27:05Z</time>
      </trkpt>
      <trkpt lat="-34.960712" lon="-58.103935">
        <time>2021-05-01T18:27:06Z</time>
      </trkpt>
      <trkpt lat="-34.96072" lon="-58.104042">
        <time>2021-05-01T18:27:08Z</time>
      </trkpt>
      <trkpt lat="-34.96073" lon="-58.10415">
        <time>2021-05-01T18:27:10Z</time>
      </trkpt>
      <trkpt lat="-34.960735" lon="-58.104206">
        <time>2021-05-01T18:27:11Z</time>
      </trkpt>
      <trkpt lat="-34.96074" lon="-58.104263">
        <time>2021-05-01T18:27:12Z</time>
      </trkpt>
      <trkpt lat="-34.96074" lon="-58.104324">
        <time>2021-05-01T18:27:13Z</time>
      </trkpt>
      <trkpt lat="-34.960735" lon="-58.10438">
        <time>2021-05-01T18:27:14Z</time>
      </trkpt>
      <trkpt lat="-34.96074" lon="-58.104435">
        <time>2021-05-01T18:27:15Z</time>
      </trkpt>
      <trkpt lat="-34.96074" lon="-58.104492">
        <time>2021-05-01T18:27:16Z</time>
      </trkpt>
      <trkpt lat="-34.960735" lon="-58.104595">
        <time>2021-05-01T18:27:18Z</time>
      </trkpt>
      <trkpt lat="-34.960735" lon="-58.104706">
        <time>2021-05-01T18:27:20Z</time>
      </trkpt>
      <trkpt lat="-34.960735" lon="-58.10482">
        <time>2021-05-01T18:27:22Z</time>
      </trkpt>
      <trkpt lat="-34.96074" lon="-58.10488">
        <time>2021-05-01T18:27:23Z</time>
      </trkpt>
      <trkpt lat="-34.960747" lon="-58.104946">
        <time>2021-05-01T18:27:24Z</time>
      </trkpt>
      <trkpt lat="-34.960743" lon="-58.105007">
        <time>2021-05-01T18:27:25Z</time>
      </trkpt>
      <trkpt lat="-34.96074" lon="-58.10507">
        <time>2021-05-01T18:27:26Z</time>
      </trkpt>
      <trkpt lat="-34.96074" lon="-58.105133">
        <time>2021-05-01T18:27:27Z</time>
      </trkpt>
      <trkpt lat="-34.96074" lon="-58.105198">
        <time>2021-05-01T18:27:28Z</time>
      </trkpt>
      <trkpt lat="-34.96074" lon="-58.105263">
        <time>2021-05-01T18:27:29Z</time>
      </trkpt>
      <trkpt lat="-34.96074" lon="-58.105328">
        <time>2021-05-01T18:27:30Z</time>
      </trkpt>
      <trkpt lat="-34.960735" lon="-58.10539">
        <time>2021-05-01T18:27:31Z</time>
      </trkpt>
      <trkpt lat="-34.960735" lon="-58.10545">
        <time>2021-05-01T18:27:32Z</time>
      </trkpt>
      <trkpt lat="-34.96073" lon="-58.10551">
        <time>2021-05-01T18:27:33Z</time>
      </trkpt>
      <trkpt lat="-34.960728" lon="-58.105576">
        <time>2021-05-01T18:27:34Z</time>
      </trkpt>
      <trkpt lat="-34.960724" lon="-58.105637">
        <time>2021-05-01T18:27:35Z</time>
      </trkpt>
      <trkpt lat="-34.960724" lon="-58.105694">
        <time>2021-05-01T18:27:36Z</time>
      </trkpt>
      <trkpt lat="-34.960724" lon="-58.10575">
        <time>2021-05-01T18:27:37Z</time>
      </trkpt>
      <trkpt lat="-34.96072" lon="-58.10581">
        <time>2021-05-01T18:27:38Z</time>
      </trkpt>
      <trkpt lat="-34.960716" lon="-58.105865">
        <time>2021-05-01T18:27:39Z</time>
      </trkpt>
      <trkpt lat="-34.960716" lon="-58.105927">
        <time>2021-05-01T18:27:40Z</time>
      </trkpt>
      <trkpt lat="-34.960716" lon="-58.105995">
        <time>2021-05-01T18:27:41Z</time>
      </trkpt>
      <trkpt lat="-34.960712" lon="-58.10606">
        <time>2021-05-01T18:27:42Z</time>
      </trkpt>
      <trkpt lat="-34.960705" lon="-58.10612">
        <time>2021-05-01T18:27:43Z</time>
      </trkpt>
      <trkpt lat="-34.960705" lon="-58.106182">
        <time>2021-05-01T18:27:44Z</time>
      </trkpt>
      <trkpt lat="-34.960697" lon="-58.106243">
        <time>2021-05-01T18:27:45Z</time>
      </trkpt>
      <trkpt lat="-34.96068" lon="-58.1063">
        <time>2021-05-01T18:27:46Z</time>
      </trkpt>
      <trkpt lat="-34.96066" lon="-58.106358">
        <time>2021-05-01T18:27:47Z</time>
      </trkpt>
      <trkpt lat="-34.960632" lon="-58.106415">
        <time>2021-05-01T18:27:48Z</time>
      </trkpt>
      <trkpt lat="-34.9606" lon="-58.10647">
        <time>2021-05-01T18:27:49Z</time>
      </trkpt>
      <trkpt lat="-34.960567" lon="-58.10652">
        <time>2021-05-01T18:27:50Z</time>
      </trkpt>
      <trkpt lat="-34.96053" lon="-58.106567">
        <time>2021-05-01T18:27:51Z</time>
      </trkpt>
      <trkpt lat="-34.96049" lon="-58.106617">
        <time>2021-05-01T18:27:52Z</time>
      </trkpt>
      <trkpt lat="-34.96045" lon="-58.106655">
        <time>2021-05-01T18:27:53Z</time>
      </trkpt>
      <trkpt lat="-34.960407" lon="-58.10669">
        <time>2021-05-01T18:27:54Z</time>
      </trkpt>
      <trkpt lat="-34.96034" lon="-58.10675">
        <time>2021-05-01T18:27:56Z</time>
      </trkpt>
      <trkpt lat="-34.960297" lon="-58.106792">
        <time>2021-05-01T18:27:58Z</time>
      </trkpt>
      <trkpt lat="-34.96026" lon="-58.10683">
        <time>2021-05-01T18:27:59Z</time>
      </trkpt>
      <trkpt lat="-34.96022" lon="-58.106873">
        <time>2021-05-01T18:28:00Z</time>
      </trkpt>
      <trkpt lat="-34.960182" lon="-58.106922">
        <time>2021-05-01T18:28:01Z</time>
      </trkpt>
      <trkpt lat="-34.96014" lon="-58.106976">
        <time>2021-05-01T18:28:02Z</time>
      </trkpt>
      <trkpt lat="-34.9601" lon="-58.107033">
        <time>2021-05-01T18:28:03Z</time>
      </trkpt>
      <trkpt lat="-34.960056" lon="-58.107086">
        <time>2021-05-01T18:28:04Z</time>
      </trkpt>
      <trkpt lat="-34.960014" lon="-58.10714">
        <time>2021-05-01T18:28:05Z</time>
      </trkpt>
      <trkpt lat="-34.959976" lon="-58.107197">
        <time>2021-05-01T18:28:06Z</time>
      </trkpt>
      <trkpt lat="-34.959934" lon="-58.107254">
        <time>2021-05-01T18:28:07Z</time>
      </trkpt>
      <trkpt lat="-34.959892" lon="-58.107315">
        <time>2021-05-01T18:28:08Z</time>
      </trkpt>
      <trkpt lat="-34.95985" lon="-58.107372">
        <time>2021-05-01T18:28:09Z</time>
      </trkpt>
      <trkpt lat="-34.959805" lon="-58.107426">
        <time>2021-05-01T18:28:10Z</time>
      </trkpt>
      <trkpt lat="-34.959763" lon="-58.107483">
        <time>2021-05-01T18:28:11Z</time>
      </trkpt>
      <trkpt lat="-34.95972" lon="-58.107536">
        <time>2021-05-01T18:28:12Z</time>
      </trkpt>
      <trkpt lat="-34.959675" lon="-58.107594">
        <time>2021-05-01T18:28:13Z</time>
      </trkpt>
      <trkpt lat="-34.959633" lon="-58.107655">
        <time>2021-05-01T18:28:14Z</time>
      </trkpt>
      <trkpt lat="-34.959595" lon="-58.107716">
        <time>2021-05-01T18:28:15Z</time>
      </trkpt>
      <trkpt lat="-34.959568" lon="-58.10777">
        <time>2021-05-01T18:28:16Z</time>
      </trkpt>
      <trkpt lat="-34.959538" lon="-58.107815">
        <time>2021-05-01T18:28:17Z</time>
      </trkpt>
      <trkpt lat="-34.959503" lon="-58.10786">
        <time>2021-05-01T18:28:18Z</time>
      </trkpt>
      <trkpt lat="-34.95947" lon="-58.10791">
        <time>2021-05-01T18:28:19Z</time>
      </trkpt>
      <trkpt lat="-34.959442" lon="-58.10796">
        <time>2021-05-01T18:28:20Z</time>
      </trkpt>
      <trkpt lat="-34.959415" lon="-58.108006">
        <time>2021-05-01T18:28:21Z</time>
      </trkpt>
      <trkpt lat="-34.95938" lon="-58.108044">
        <time>2021-05-01T18:28:22Z</time>
      </trkpt>
      <trkpt lat="-34.95932" lon="-58.108105">
        <time>2021-05-01T18:28:24Z</time>
      </trkpt>
      <trkpt lat="-34.959293" lon="-58.10814">
        <time>2021-05-01T18:28:42Z</time>
      </trkpt>
      <trkpt lat="-34.959293" lon="-58.10814">
        <time>2021-05-01T18:28:52Z</time>
      </trkpt>
      <trkpt lat="-34.959293" lon="-58.10814">
        <time>2021-05-01T18:29:02Z</time>
      </trkpt>
      <trkpt lat="-34.959293" lon="-58.10814">
        <time>2021-05-01T18:29:12Z</time>
      </trkpt>
      <trkpt lat="-34.959293" lon="-58.10814">
        <time>2021-05-01T18:29:22Z</time>
      </trkpt>
      <trkpt lat="-34.959293" lon="-58.10814">
        <time>2021-05-01T18:29:32Z</time>
      </trkpt>
      <trkpt lat="-34.959316" lon="-58.10819">
        <time>2021-05-01T18:29:34Z</time>
      </trkpt>
      <trkpt lat="-34.959354" lon="-58.10815">
        <time>2021-05-01T18:29:37Z</time>
      </trkpt>
      <trkpt lat="-34.959343" lon="-58.10808">
        <time>2021-05-01T18:29:41Z</time>
      </trkpt>
      <trkpt lat="-34.959286" lon="-58.108078">
        <time>2021-05-01T18:29:44Z</time>
      </trkpt>
      <trkpt lat="-34.95922" lon="-58.108093">
        <time>2021-05-01T18:29:47Z</time>
      </trkpt>
      <trkpt lat="-34.959175" lon="-58.108116">
        <time>2021-05-01T18:29:49Z</time>
      </trkpt>
      <trkpt lat="-34.95911" lon="-58.10817">
        <time>2021-05-01T18:29:51Z</time>
      </trkpt>
      <trkpt lat="-34.95903" lon="-58.108135">
        <time>2021-05-01T18:29:53Z</time>
      </trkpt>
      <trkpt lat="-34.958965" lon="-58.10808">
        <time>2021-05-01T18:29:55Z</time>
      </trkpt>
      <trkpt lat="-34.9589" lon="-58.108044">
        <time>2021-05-01T18:29:57Z</time>
      </trkpt>
      <trkpt lat="-34.95883" lon="-58.10804">
        <time>2021-05-01T18:29:59Z</time>
      </trkpt>
      <trkpt lat="-34.95877" lon="-58.10811">
        <time>2021-05-01T18:30:01Z</time>
      </trkpt>
      <trkpt lat="-34.958714" lon="-58.10819">
        <time>2021-05-01T18:30:03Z</time>
      </trkpt>
      <trkpt lat="-34.958687" lon="-58.108234">
        <time>2021-05-01T18:30:04Z</time>
      </trkpt>
      <trkpt lat="-34.958656" lon="-58.108276">
        <time>2021-05-01T18:30:05Z</time>
      </trkpt>
      <trkpt lat="-34.958595" lon="-58.108356">
        <time>2021-05-01T18:30:07Z</time>
      </trkpt>
      <trkpt lat="-34.958565" lon="-58.108395">
        <time>2021-05-01T18:30:08Z</time>
      </trkpt>
      <trkpt lat="-34.958534" lon="-58.10844">
        <time>2021-05-01T18:30:09Z</time>
      </trkpt>
      <trkpt lat="-34.958504" lon="-58.108486">
        <time>2021-05-01T18:30:10Z</time>
      </trkpt>
      <trkpt lat="-34.958473" lon="-58.10853">
        <time>2021-05-01T18:30:11Z</time>
      </trkpt>
      <trkpt lat="-34.958443" lon="-58.10858">
        <time>2021-05-01T18:30:12Z</time>
      </trkpt>
      <trkpt lat="-34.95841" lon="-58.10863">
        <time>2021-05-01T18:30:13Z</time>
      </trkpt>
      <trkpt lat="-34.95837" lon="-58.108685">
        <time>2021-05-01T18:30:14Z</time>
      </trkpt>
      <trkpt lat="-34.95833" lon="-58.10873">
        <time>2021-05-01T18:30:15Z</time>
      </trkpt>
      <trkpt lat="-34.958294" lon="-58.108776">
        <time>2021-05-01T18:30:16Z</time>
      </trkpt>
      <trkpt lat="-34.95826" lon="-58.10882">
        <time>2021-05-01T18:30:17Z</time>
      </trkpt>
      <trkpt lat="-34.95819" lon="-58.108913">
        <time>2021-05-01T18:30:18Z</time>
      </trkpt>
      <trkpt lat="-34.958153" lon="-58.10896">
        <time>2021-05-01T18:30:19Z</time>
      </trkpt>
      <trkpt lat="-34.958115" lon="-58.109005">
        <time>2021-05-01T18:30:20Z</time>
      </trkpt>
      <trkpt lat="-34.95808" lon="-58.10905">
        <time>2021-05-01T18:30:21Z</time>
      </trkpt>
      <trkpt lat="-34.958046" lon="-58.109097">
        <time>2021-05-01T18:30:22Z</time>
      </trkpt>
      <trkpt lat="-34.95801" lon="-58.10914">
        <time>2021-05-01T18:30:23Z</time>
      </trkpt>
      <trkpt lat="-34.957973" lon="-58.109177">
        <time>2021-05-01T18:30:24Z</time>
      </trkpt>
      <trkpt lat="-34.95789" lon="-58.109154">
        <time>2021-05-01T18:30:26Z</time>
      </trkpt>
      <trkpt lat="-34.95785" lon="-58.109116">
        <time>2021-05-01T18:30:27Z</time>
      </trkpt>
      <trkpt lat="-34.957813" lon="-58.109074">
        <time>2021-05-01T18:30:28Z</time>
      </trkpt>
      <trkpt lat="-34.95777" lon="-58.10904">
        <time>2021-05-01T18:30:29Z</time>
      </trkpt>
      <trkpt lat="-34.957726" lon="-58.109013">
        <time>2021-05-01T18:30:30Z</time>
      </trkpt>
      <trkpt lat="-34.957645" lon="-58.10903">
        <time>2021-05-01T18:30:32Z</time>
      </trkpt>
      <trkpt lat="-34.95761" lon="-58.10907">
        <time>2021-05-01T18:30:33Z</time>
      </trkpt>
      <trkpt lat="-34.957577" lon="-58.10911">
        <time>2021-05-01T18:30:34Z</time>
      </trkpt>
      <trkpt lat="-34.957546" lon="-58.10915">
        <time>2021-05-01T18:30:35Z</time>
      </trkpt>
      <trkpt lat="-34.95751" lon="-58.109188">
        <time>2021-05-01T18:30:36Z</time>
      </trkpt>
      <trkpt lat="-34.957478" lon="-58.10923">
        <time>2021-05-01T18:30:37Z</time>
      </trkpt>
      <trkpt lat="-34.957443" lon="-58.10927">
        <time>2021-05-01T18:30:38Z</time>
      </trkpt>
      <trkpt lat="-34.957382" lon="-58.109344">
        <time>2021-05-01T18:30:40Z</time>
      </trkpt>
      <trkpt lat="-34.957333" lon="-58.109413">
        <time>2021-05-01T18:30:42Z</time>
      </trkpt>
      <trkpt lat="-34.95727" lon="-58.10947">
        <time>2021-05-01T18:30:44Z</time>
      </trkpt>
      <trkpt lat="-34.957207" lon="-58.109535">
        <time>2021-05-01T18:30:46Z</time>
      </trkpt>
      <trkpt lat="-34.957172" lon="-58.109577">
        <time>2021-05-01T18:30:47Z</time>
      </trkpt>
      <trkpt lat="-34.957138" lon="-58.10962">
        <time>2021-05-01T18:30:48Z</time>
      </trkpt>
      <trkpt lat="-34.957104" lon="-58.109665">
        <time>2021-05-01T18:30:49Z</time>
      </trkpt>
      <trkpt lat="-34.957066" lon="-58.10971">
        <time>2021-05-01T18:30:50Z</time>
      </trkpt>
      <trkpt lat="-34.95703" lon="-58.10976">
        <time>2021-05-01T18:30:51Z</time>
      </trkpt>
      <trkpt lat="-34.956997" lon="-58.109802">
        <time>2021-05-01T18:30:52Z</time>
      </trkpt>
      <trkpt lat="-34.956966" lon="-58.109844">
        <time>2021-05-01T18:30:53Z</time>
      </trkpt>
      <trkpt lat="-34.956924" lon="-58.10988">
        <time>2021-05-01T18:30:54Z</time>
      </trkpt>
      <trkpt lat="-34.956882" lon="-58.109917">
        <time>2021-05-01T18:30:55Z</time>
      </trkpt>
      <trkpt lat="-34.956852" lon="-58.10996">
        <time>2021-05-01T18:30:56Z</time>
      </trkpt>
      <trkpt lat="-34.956818" lon="-58.11">
        <time>2021-05-01T18:30:57Z</time>
      </trkpt>
      <trkpt lat="-34.95676" lon="-58.11008">
        <time>2021-05-01T18:30:59Z</time>
      </trkpt>
      <trkpt lat="-34.95669" lon="-58.11016">
        <time>2021-05-01T18:31:01Z</time>
      </trkpt>
      <trkpt lat="-34.956657" lon="-58.1102">
        <time>2021-05-01T18:31:02Z</time>
      </trkpt>
      <trkpt lat="-34.956627" lon="-58.110245">
        <time>2021-05-01T18:31:03Z</time>
      </trkpt>
      <trkpt lat="-34.956593" lon="-58.11029">
        <time>2021-05-01T18:31:04Z</time>
      </trkpt>
      <trkpt lat="-34.956554" lon="-58.11034">
        <time>2021-05-01T18:31:05Z</time>
      </trkpt>
      <trkpt lat="-34.95652" lon="-58.11039">
        <time>2021-05-01T18:31:06Z</time>
      </trkpt>
      <trkpt lat="-34.956482" lon="-58.11044">
        <time>2021-05-01T18:31:07Z</time>
      </trkpt>
      <trkpt lat="-34.95644" lon="-58.110493">
        <time>2021-05-01T18:31:08Z</time>
      </trkpt>
      <trkpt lat="-34.9564" lon="-58.110546">
        <time>2021-05-01T18:31:09Z</time>
      </trkpt>
      <trkpt lat="-34.95636" lon="-58.110596">
        <time>2021-05-01T18:31:10Z</time>
      </trkpt>
      <trkpt lat="-34.956314" lon="-58.11064">
        <time>2021-05-01T18:31:11Z</time>
      </trkpt>
      <trkpt lat="-34.95627" lon="-58.110687">
        <time>2021-05-01T18:31:12Z</time>
      </trkpt>
      <trkpt lat="-34.95622" lon="-58.11072">
        <time>2021-05-01T18:31:13Z</time>
      </trkpt>
      <trkpt lat="-34.956165" lon="-58.110737">
        <time>2021-05-01T18:31:14Z</time>
      </trkpt>
      <trkpt lat="-34.956112" lon="-58.11073">
        <time>2021-05-01T18:31:15Z</time>
      </trkpt>
      <trkpt lat="-34.956066" lon="-58.110714">
        <time>2021-05-01T18:31:16Z</time>
      </trkpt>
      <trkpt lat="-34.956017" lon="-58.110695">
        <time>2021-05-01T18:31:17Z</time>
      </trkpt>
      <trkpt lat="-34.955967" lon="-58.110676">
        <time>2021-05-01T18:31:18Z</time>
      </trkpt>
      <trkpt lat="-34.955917" lon="-58.110657">
        <time>2021-05-01T18:31:19Z</time>
      </trkpt>
      <trkpt lat="-34.955868" lon="-58.110638">
        <time>2021-05-01T18:31:20Z</time>
      </trkpt>
      <trkpt lat="-34.95582" lon="-58.110622">
        <time>2021-05-01T18:31:21Z</time>
      </trkpt>
      <trkpt lat="-34.955765" lon="-58.110603">
        <time>2021-05-01T18:31:22Z</time>
      </trkpt>
      <trkpt lat="-34.955715" lon="-58.110584">
        <time>2021-05-01T18:31:23Z</time>
      </trkpt>
      <trkpt lat="-34.95566" lon="-58.110565">
        <time>2021-05-01T18:31:24Z</time>
      </trkpt>
      <trkpt lat="-34.95561" lon="-58.110546">
        <time>2021-05-01T18:31:25Z</time>
      </trkpt>
      <trkpt lat="-34.95556" lon="-58.110527">
        <time>2021-05-01T18:31:26Z</time>
      </trkpt>
      <trkpt lat="-34.95551" lon="-58.110508">
        <time>2021-05-01T18:31:27Z</time>
      </trkpt>
      <trkpt lat="-34.95546" lon="-58.110493">
        <time>2021-05-01T18:31:28Z</time>
      </trkpt>
      <trkpt lat="-34.95541" lon="-58.110477">
        <time>2021-05-01T18:31:29Z</time>
      </trkpt>
      <trkpt lat="-34.95536" lon="-58.11046">
        <time>2021-05-01T18:31:30Z</time>
      </trkpt>
      <trkpt lat="-34.955307" lon="-58.11044">
        <time>2021-05-01T18:31:31Z</time>
      </trkpt>
      <trkpt lat="-34.955254" lon="-58.11042">
        <time>2021-05-01T18:31:32Z</time>
      </trkpt>
      <trkpt lat="-34.9552" lon="-58.1104">
        <time>2021-05-01T18:31:33Z</time>
      </trkpt>
      <trkpt lat="-34.95515" lon="-58.110386">
        <time>2021-05-01T18:31:34Z</time>
      </trkpt>
      <trkpt lat="-34.9551" lon="-58.110374">
        <time>2021-05-01T18:31:35Z</time>
      </trkpt>
      <trkpt lat="-34.95505" lon="-58.110355">
        <time>2021-05-01T18:31:36Z</time>
      </trkpt>
      <trkpt lat="-34.95501" lon="-58.11033">
        <time>2021-05-01T18:31:37Z</time>
      </trkpt>
      <trkpt lat="-34.954964" lon="-58.110306">
        <time>2021-05-01T18:31:38Z</time>
      </trkpt>
      <trkpt lat="-34.95488" lon="-58.11029">
        <time>2021-05-01T18:31:40Z</time>
      </trkpt>
      <trkpt lat="-34.954807" lon="-58.110283">
        <time>2021-05-01T18:31:42Z</time>
      </trkpt>
      <trkpt lat="-34.954754" lon="-58.110264">
        <time>2021-05-01T18:31:44Z</time>
      </trkpt>
      <trkpt lat="-34.954803" lon="-58.1103">
        <time>2021-05-01T18:31:51Z</time>
      </trkpt>
      <trkpt lat="-34.95485" lon="-58.11032">
        <time>2021-05-01T18:31:53Z</time>
      </trkpt>
      <trkpt lat="-34.954903" lon="-58.110302">
        <time>2021-05-01T18:31:56Z</time>
      </trkpt>
      <trkpt lat="-34.954918" lon="-58.11025">
        <time>2021-05-01T18:31:59Z</time>
      </trkpt>
      <trkpt lat="-34.954918" lon="-58.110188">
        <time>2021-05-01T18:32:02Z</time>
      </trkpt>
      <trkpt lat="-34.954895" lon="-58.11012">
        <time>2021-05-01T18:32:05Z</time>
      </trkpt>
      <trkpt lat="-34.95486" lon="-58.110073">
        <time>2021-05-01T18:32:08Z</time>
      </trkpt>
      <trkpt lat="-34.954826" lon="-58.110016">
        <time>2021-05-01T18:32:11Z</time>
      </trkpt>
      <trkpt lat="-34.9548" lon="-58.10995">
        <time>2021-05-01T18:32:14Z</time>
      </trkpt>
      <trkpt lat="-34.954777" lon="-58.1099">
        <time>2021-05-01T18:32:16Z</time>
      </trkpt>
      <trkpt lat="-34.95475" lon="-58.109844">
        <time>2021-05-01T18:32:18Z</time>
      </trkpt>
      <trkpt lat="-34.954723" lon="-58.10978">
        <time>2021-05-01T18:32:20Z</time>
      </trkpt>
      <trkpt lat="-34.954716" lon="-58.109703">
        <time>2021-05-01T18:32:22Z</time>
      </trkpt>
      <trkpt lat="-34.95471" lon="-58.109627">
        <time>2021-05-01T18:32:24Z</time>
      </trkpt>
      <trkpt lat="-34.954685" lon="-58.109547">
        <time>2021-05-01T18:32:26Z</time>
      </trkpt>
      <trkpt lat="-34.954655" lon="-58.10947">
        <time>2021-05-01T18:32:28Z</time>
      </trkpt>
      <trkpt lat="-34.954605" lon="-58.109413">
        <time>2021-05-01T18:32:30Z</time>
      </trkpt>
      <trkpt lat="-34.954548" lon="-58.10938">
        <time>2021-05-01T18:32:32Z</time>
      </trkpt>
      <trkpt lat="-34.954483" lon="-58.109337">
        <time>2021-05-01T18:32:34Z</time>
      </trkpt>
      <trkpt lat="-34.95441" lon="-58.109303">
        <time>2021-05-01T18:32:36Z</time>
      </trkpt>
      <trkpt lat="-34.954334" lon="-58.109272">
        <time>2021-05-01T18:32:38Z</time>
      </trkpt>
      <trkpt lat="-34.954254" lon="-58.109238">
        <time>2021-05-01T18:32:40Z</time>
      </trkpt>
      <trkpt lat="-34.954174" lon="-58.109203">
        <time>2021-05-01T18:32:42Z</time>
      </trkpt>
      <trkpt lat="-34.95413" lon="-58.109188">
        <time>2021-05-01T18:32:43Z</time>
      </trkpt>
      <trkpt lat="-34.954086" lon="-58.109173">
        <time>2021-05-01T18:32:44Z</time>
      </trkpt>
      <trkpt lat="-34.954002" lon="-58.109146">
        <time>2021-05-01T18:32:46Z</time>
      </trkpt>
      <trkpt lat="-34.953922" lon="-58.109116">
        <time>2021-05-01T18:32:48Z</time>
      </trkpt>
      <trkpt lat="-34.95388" lon="-58.1091">
        <time>2021-05-01T18:32:49Z</time>
      </trkpt>
      <trkpt lat="-34.953835" lon="-58.109085">
        <time>2021-05-01T18:32:50Z</time>
      </trkpt>
      <trkpt lat="-34.95379" lon="-58.109066">
        <time>2021-05-01T18:32:51Z</time>
      </trkpt>
      <trkpt lat="-34.953743" lon="-58.109047">
        <time>2021-05-01T18:32:52Z</time>
      </trkpt>
      <trkpt lat="-34.953693" lon="-58.109028">
        <time>2021-05-01T18:32:53Z</time>
      </trkpt>
      <trkpt lat="-34.953648" lon="-58.109013">
        <time>2021-05-01T18:32:54Z</time>
      </trkpt>
      <trkpt lat="-34.9536" lon="-58.108994">
        <time>2021-05-01T18:32:55Z</time>
      </trkpt>
      <trkpt lat="-34.953552" lon="-58.108974">
        <time>2021-05-01T18:32:56Z</time>
      </trkpt>
      <trkpt lat="-34.953503" lon="-58.10896">
        <time>2021-05-01T18:32:57Z</time>
      </trkpt>
      <trkpt lat="-34.953457" lon="-58.10894">
        <time>2021-05-01T18:32:58Z</time>
      </trkpt>
      <trkpt lat="-34.953407" lon="-58.10892">
        <time>2021-05-01T18:32:59Z</time>
      </trkpt>
      <trkpt lat="-34.953358" lon="-58.108902">
        <time>2021-05-01T18:33:00Z</time>
      </trkpt>
      <trkpt lat="-34.95331" lon="-58.10888">
        <time>2021-05-01T18:33:01Z</time>
      </trkpt>
      <trkpt lat="-34.953255" lon="-58.10886">
        <time>2021-05-01T18:33:02Z</time>
      </trkpt>
      <trkpt lat="-34.9532" lon="-58.10884">
        <time>2021-05-01T18:33:03Z</time>
      </trkpt>
      <trkpt lat="-34.953148" lon="-58.10882">
        <time>2021-05-01T18:33:04Z</time>
      </trkpt>
      <trkpt lat="-34.9531" lon="-58.108807">
        <time>2021-05-01T18:33:05Z</time>
      </trkpt>
      <trkpt lat="-34.953045" lon="-58.108788">
        <time>2021-05-01T18:33:06Z</time>
      </trkpt>
      <trkpt lat="-34.952995" lon="-58.10877">
        <time>2021-05-01T18:33:07Z</time>
      </trkpt>
      <trkpt lat="-34.952946" lon="-58.108753">
        <time>2021-05-01T18:33:08Z</time>
      </trkpt>
      <trkpt lat="-34.952896" lon="-58.108734">
        <time>2021-05-01T18:33:09Z</time>
      </trkpt>
      <trkpt lat="-34.952843" lon="-58.10871">
        <time>2021-05-01T18:33:10Z</time>
      </trkpt>
      <trkpt lat="-34.952793" lon="-58.10869">
        <time>2021-05-01T18:33:11Z</time>
      </trkpt>
      <trkpt lat="-34.95274" lon="-58.10867">
        <time>2021-05-01T18:33:12Z</time>
      </trkpt>
      <trkpt lat="-34.952686" lon="-58.108646">
        <time>2021-05-01T18:33:13Z</time>
      </trkpt>
      <trkpt lat="-34.95263" lon="-58.108627">
        <time>2021-05-01T18:33:14Z</time>
      </trkpt>
      <trkpt lat="-34.95257" lon="-58.10861">
        <time>2021-05-01T18:33:15Z</time>
      </trkpt>
      <trkpt lat="-34.952515" lon="-58.108585">
        <time>2021-05-01T18:33:16Z</time>
      </trkpt>
      <trkpt lat="-34.952454" lon="-58.108562">
        <time>2021-05-01T18:33:17Z</time>
      </trkpt>
      <trkpt lat="-34.952396" lon="-58.10854">
        <time>2021-05-01T18:33:18Z</time>
      </trkpt>
      <trkpt lat="-34.95234" lon="-58.10852">
        <time>2021-05-01T18:33:19Z</time>
      </trkpt>
      <trkpt lat="-34.952282" lon="-58.108498">
        <time>2021-05-01T18:33:20Z</time>
      </trkpt>
      <trkpt lat="-34.95223" lon="-58.10848">
        <time>2021-05-01T18:33:21Z</time>
      </trkpt>
      <trkpt lat="-34.952175" lon="-58.108456">
        <time>2021-05-01T18:33:22Z</time>
      </trkpt>
      <trkpt lat="-34.95212" lon="-58.108433">
        <time>2021-05-01T18:33:23Z</time>
      </trkpt>
      <trkpt lat="-34.95207" lon="-58.108414">
        <time>2021-05-01T18:33:24Z</time>
      </trkpt>
      <trkpt lat="-34.95202" lon="-58.108395">
        <time>2021-05-01T18:33:25Z</time>
      </trkpt>
      <trkpt lat="-34.95197" lon="-58.108376">
        <time>2021-05-01T18:33:26Z</time>
      </trkpt>
      <trkpt lat="-34.951923" lon="-58.108356">
        <time>2021-05-01T18:33:27Z</time>
      </trkpt>
      <trkpt lat="-34.951874" lon="-58.108337">
        <time>2021-05-01T18:33:28Z</time>
      </trkpt>
      <trkpt lat="-34.951824" lon="-58.10832">
        <time>2021-05-01T18:33:29Z</time>
      </trkpt>
      <trkpt lat="-34.951775" lon="-58.1083">
        <time>2021-05-01T18:33:30Z</time>
      </trkpt>
      <trkpt lat="-34.95172" lon="-58.108284">
        <time>2021-05-01T18:33:31Z</time>
      </trkpt>
      <trkpt lat="-34.951668" lon="-58.108265">
        <time>2021-05-01T18:33:32Z</time>
      </trkpt>
      <trkpt lat="-34.95162" lon="-58.10825">
        <time>2021-05-01T18:33:33Z</time>
      </trkpt>
      <trkpt lat="-34.95157" lon="-58.10824">
        <time>2021-05-01T18:33:34Z</time>
      </trkpt>
      <trkpt lat="-34.95152" lon="-58.108223">
        <time>2021-05-01T18:33:35Z</time>
      </trkpt>
      <trkpt lat="-34.95147" lon="-58.108204">
        <time>2021-05-01T18:33:36Z</time>
      </trkpt>
      <trkpt lat="-34.951424" lon="-58.10818">
        <time>2021-05-01T18:33:37Z</time>
      </trkpt>
      <trkpt lat="-34.951374" lon="-58.108166">
        <time>2021-05-01T18:33:38Z</time>
      </trkpt>
      <trkpt lat="-34.951324" lon="-58.108147">
        <time>2021-05-01T18:33:39Z</time>
      </trkpt>
      <trkpt lat="-34.951275" lon="-58.108124">
        <time>2021-05-01T18:33:40Z</time>
      </trkpt>
      <trkpt lat="-34.951225" lon="-58.1081">
        <time>2021-05-01T18:33:41Z</time>
      </trkpt>
      <trkpt lat="-34.951176" lon="-58.108074">
        <time>2021-05-01T18:33:42Z</time>
      </trkpt>
      <trkpt lat="-34.951126" lon="-58.10804">
        <time>2021-05-01T18:33:43Z</time>
      </trkpt>
      <trkpt lat="-34.95108" lon="-58.108006">
        <time>2021-05-01T18:33:44Z</time>
      </trkpt>
      <trkpt lat="-34.95104" lon="-58.107967">
        <time>2021-05-01T18:33:45Z</time>
      </trkpt>
      <trkpt lat="-34.950996" lon="-58.10792">
        <time>2021-05-01T18:33:46Z</time>
      </trkpt>
      <trkpt lat="-34.95096" lon="-58.107876">
        <time>2021-05-01T18:33:47Z</time>
      </trkpt>
      <trkpt lat="-34.95092" lon="-58.10783">
        <time>2021-05-01T18:33:48Z</time>
      </trkpt>
      <trkpt lat="-34.95088" lon="-58.107784">
        <time>2021-05-01T18:33:49Z</time>
      </trkpt>
      <trkpt lat="-34.95084" lon="-58.10774">
        <time>2021-05-01T18:33:50Z</time>
      </trkpt>
      <trkpt lat="-34.950798" lon="-58.107693">
        <time>2021-05-01T18:33:51Z</time>
      </trkpt>
      <trkpt lat="-34.95076" lon="-58.107647">
        <time>2021-05-01T18:33:52Z</time>
      </trkpt>
      <trkpt lat="-34.95072" lon="-58.107597">
        <time>2021-05-01T18:33:53Z</time>
      </trkpt>
      <trkpt lat="-34.95068" lon="-58.10755">
        <time>2021-05-01T18:33:54Z</time>
      </trkpt>
      <trkpt lat="-34.95064" lon="-58.107506">
        <time>2021-05-01T18:33:55Z</time>
      </trkpt>
      <trkpt lat="-34.950607" lon="-58.107468">
        <time>2021-05-01T18:33:56Z</time>
      </trkpt>
      <trkpt lat="-34.950573" lon="-58.10742">
        <time>2021-05-01T18:33:57Z</time>
      </trkpt>
      <trkpt lat="-34.95054" lon="-58.107376">
        <time>2021-05-01T18:33:58Z</time>
      </trkpt>
      <trkpt lat="-34.95051" lon="-58.10733">
        <time>2021-05-01T18:33:59Z</time>
      </trkpt>
      <trkpt lat="-34.950478" lon="-58.107285">
        <time>2021-05-01T18:34:00Z</time>
      </trkpt>
      <trkpt lat="-34.950447" lon="-58.107235">
        <time>2021-05-01T18:34:01Z</time>
      </trkpt>
      <trkpt lat="-34.95042" lon="-58.107185">
        <time>2021-05-01T18:34:02Z</time>
      </trkpt>
      <trkpt lat="-34.9504" lon="-58.107136">
        <time>2021-05-01T18:34:03Z</time>
      </trkpt>
      <trkpt lat="-34.95039" lon="-58.10708">
        <time>2021-05-01T18:34:04Z</time>
      </trkpt>
      <trkpt lat="-34.950386" lon="-58.10702">
        <time>2021-05-01T18:34:05Z</time>
      </trkpt>
      <trkpt lat="-34.950382" lon="-58.10696">
        <time>2021-05-01T18:34:06Z</time>
      </trkpt>
      <trkpt lat="-34.95038" lon="-58.106903">
        <time>2021-05-01T18:34:07Z</time>
      </trkpt>
      <trkpt lat="-34.950375" lon="-58.106846">
        <time>2021-05-01T18:34:08Z</time>
      </trkpt>
      <trkpt lat="-34.95037" lon="-58.106785">
        <time>2021-05-01T18:34:09Z</time>
      </trkpt>
      <trkpt lat="-34.95037" lon="-58.106728">
        <time>2021-05-01T18:34:10Z</time>
      </trkpt>
      <trkpt lat="-34.950367" lon="-58.106667">
        <time>2021-05-01T18:34:11Z</time>
      </trkpt>
      <trkpt lat="-34.950367" lon="-58.10661">
        <time>2021-05-01T18:34:12Z</time>
      </trkpt>
      <trkpt lat="-34.950367" lon="-58.106552">
        <time>2021-05-01T18:34:13Z</time>
      </trkpt>
      <trkpt lat="-34.95037" lon="-58.10649">
        <time>2021-05-01T18:34:14Z</time>
      </trkpt>
      <trkpt lat="-34.950367" lon="-58.10643">
        <time>2021-05-01T18:34:15Z</time>
      </trkpt>
      <trkpt lat="-34.950363" lon="-58.106365">
        <time>2021-05-01T18:34:16Z</time>
      </trkpt>
      <trkpt lat="-34.950363" lon="-58.10631">
        <time>2021-05-01T18:34:17Z</time>
      </trkpt>
      <trkpt lat="-34.95036" lon="-58.106247">
        <time>2021-05-01T18:34:18Z</time>
      </trkpt>
      <trkpt lat="-34.950363" lon="-58.10619">
        <time>2021-05-01T18:34:19Z</time>
      </trkpt>
      <trkpt lat="-34.95036" lon="-58.10613">
        <time>2021-05-01T18:34:20Z</time>
      </trkpt>
      <trkpt lat="-34.950356" lon="-58.106068">
        <time>2021-05-01T18:34:21Z</time>
      </trkpt>
      <trkpt lat="-34.95035" lon="-58.106007">
        <time>2021-05-01T18:34:22Z</time>
      </trkpt>
      <trkpt lat="-34.95035" lon="-58.10595">
        <time>2021-05-01T18:34:23Z</time>
      </trkpt>
      <trkpt lat="-34.95035" lon="-58.105885">
        <time>2021-05-01T18:34:24Z</time>
      </trkpt>
      <trkpt lat="-34.950348" lon="-58.105827">
        <time>2021-05-01T18:34:25Z</time>
      </trkpt>
      <trkpt lat="-34.950344" lon="-58.105774">
        <time>2021-05-01T18:34:26Z</time>
      </trkpt>
      <trkpt lat="-34.95034" lon="-58.105667">
        <time>2021-05-01T18:34:28Z</time>
      </trkpt>
      <trkpt lat="-34.950336" lon="-58.10561">
        <time>2021-05-01T18:34:29Z</time>
      </trkpt>
      <trkpt lat="-34.950336" lon="-58.105553">
        <time>2021-05-01T18:34:30Z</time>
      </trkpt>
      <trkpt lat="-34.950333" lon="-58.105495">
        <time>2021-05-01T18:34:31Z</time>
      </trkpt>
      <trkpt lat="-34.95033" lon="-58.105442">
        <time>2021-05-01T18:34:32Z</time>
      </trkpt>
      <trkpt lat="-34.950325" lon="-58.10538">
        <time>2021-05-01T18:34:33Z</time>
      </trkpt>
      <trkpt lat="-34.95032" lon="-58.105324">
        <time>2021-05-01T18:34:34Z</time>
      </trkpt>
      <trkpt lat="-34.95032" lon="-58.105263">
        <time>2021-05-01T18:34:35Z</time>
      </trkpt>
      <trkpt lat="-34.950317" lon="-58.105206">
        <time>2021-05-01T18:34:36Z</time>
      </trkpt>
      <trkpt lat="-34.950317" lon="-58.105145">
        <time>2021-05-01T18:34:37Z</time>
      </trkpt>
      <trkpt lat="-34.950314" lon="-58.105087">
        <time>2021-05-01T18:34:38Z</time>
      </trkpt>
      <trkpt lat="-34.95031" lon="-58.105026">
        <time>2021-05-01T18:34:39Z</time>
      </trkpt>
      <trkpt lat="-34.950306" lon="-58.104965">
        <time>2021-05-01T18:34:40Z</time>
      </trkpt>
      <trkpt lat="-34.950302" lon="-58.104908">
        <time>2021-05-01T18:34:41Z</time>
      </trkpt>
      <trkpt lat="-34.950302" lon="-58.10485">
        <time>2021-05-01T18:34:42Z</time>
      </trkpt>
      <trkpt lat="-34.9503" lon="-58.104794">
        <time>2021-05-01T18:34:43Z</time>
      </trkpt>
      <trkpt lat="-34.9503" lon="-58.10469">
        <time>2021-05-01T18:34:45Z</time>
      </trkpt>
      <trkpt lat="-34.9503" lon="-58.104584">
        <time>2021-05-01T18:34:47Z</time>
      </trkpt>
      <trkpt lat="-34.9503" lon="-58.104527">
        <time>2021-05-01T18:34:48Z</time>
      </trkpt>
      <trkpt lat="-34.950294" lon="-58.104465">
        <time>2021-05-01T18:34:49Z</time>
      </trkpt>
      <trkpt lat="-34.950294" lon="-58.104404">
        <time>2021-05-01T18:34:50Z</time>
      </trkpt>
      <trkpt lat="-34.95029" lon="-58.104347">
        <time>2021-05-01T18:34:51Z</time>
      </trkpt>
      <trkpt lat="-34.950287" lon="-58.10429">
        <time>2021-05-01T18:34:52Z</time>
      </trkpt>
      <trkpt lat="-34.950283" lon="-58.104183">
        <time>2021-05-01T18:34:54Z</time>
      </trkpt>
      <trkpt lat="-34.95028" lon="-58.10413">
        <time>2021-05-01T18:34:55Z</time>
      </trkpt>
      <trkpt lat="-34.950275" lon="-58.104073">
        <time>2021-05-01T18:34:56Z</time>
      </trkpt>
      <trkpt lat="-34.95027" lon="-58.104015">
        <time>2021-05-01T18:34:57Z</time>
      </trkpt>
      <trkpt lat="-34.95027" lon="-58.10396">
        <time>2021-05-01T18:34:58Z</time>
      </trkpt>
      <trkpt lat="-34.950268" lon="-58.103897">
        <time>2021-05-01T18:34:59Z</time>
      </trkpt>
      <trkpt lat="-34.950268" lon="-58.103836">
        <time>2021-05-01T18:35:00Z</time>
      </trkpt>
      <trkpt lat="-34.950264" lon="-58.10378">
        <time>2021-05-01T18:35:01Z</time>
      </trkpt>
      <trkpt lat="-34.95026" lon="-58.103718">
        <time>2021-05-01T18:35:02Z</time>
      </trkpt>
      <trkpt lat="-34.950256" lon="-58.103664">
        <time>2021-05-01T18:35:03Z</time>
      </trkpt>
      <trkpt lat="-34.950256" lon="-58.103607">
        <time>2021-05-01T18:35:04Z</time>
      </trkpt>
      <trkpt lat="-34.950256" lon="-58.10355">
        <time>2021-05-01T18:35:05Z</time>
      </trkpt>
      <trkpt lat="-34.950253" lon="-58.103447">
        <time>2021-05-01T18:35:07Z</time>
      </trkpt>
      <trkpt lat="-34.950253" lon="-58.10335">
        <time>2021-05-01T18:35:09Z</time>
      </trkpt>
      <trkpt lat="-34.95025" lon="-58.10327">
        <time>2021-05-01T18:35:11Z</time>
      </trkpt>
      <trkpt lat="-34.950237" lon="-58.103188">
        <time>2021-05-01T18:35:13Z</time>
      </trkpt>
      <trkpt lat="-34.950233" lon="-58.103092">
        <time>2021-05-01T18:35:15Z</time>
      </trkpt>
      <trkpt lat="-34.950233" lon="-58.103035">
        <time>2021-05-01T18:35:16Z</time>
      </trkpt>
      <trkpt lat="-34.950233" lon="-58.10297">
        <time>2021-05-01T18:35:17Z</time>
      </trkpt>
      <trkpt lat="-34.95023" lon="-58.1029">
        <time>2021-05-01T18:35:18Z</time>
      </trkpt>
      <trkpt lat="-34.950226" lon="-58.10284">
        <time>2021-05-01T18:35:19Z</time>
      </trkpt>
      <trkpt lat="-34.95021" lon="-58.10278">
        <time>2021-05-01T18:35:20Z</time>
      </trkpt>
      <trkpt lat="-34.950188" lon="-58.10273">
        <time>2021-05-01T18:35:21Z</time>
      </trkpt>
      <trkpt lat="-34.95017" lon="-58.10268">
        <time>2021-05-01T18:35:22Z</time>
      </trkpt>
      <trkpt lat="-34.950138" lon="-58.102634">
        <time>2021-05-01T18:35:23Z</time>
      </trkpt>
      <trkpt lat="-34.95007" lon="-58.10258">
        <time>2021-05-01T18:35:25Z</time>
      </trkpt>
      <trkpt lat="-34.950024" lon="-58.102577">
        <time>2021-05-01T18:35:26Z</time>
      </trkpt>
      <trkpt lat="-34.949974" lon="-58.10257">
        <time>2021-05-01T18:35:27Z</time>
      </trkpt>
      <trkpt lat="-34.94992" lon="-58.102566">
        <time>2021-05-01T18:35:28Z</time>
      </trkpt>
      <trkpt lat="-34.949867" lon="-58.10257">
        <time>2021-05-01T18:35:29Z</time>
      </trkpt>
      <trkpt lat="-34.949814" lon="-58.10257">
        <time>2021-05-01T18:35:30Z</time>
      </trkpt>
      <trkpt lat="-34.949757" lon="-58.102566">
        <time>2021-05-01T18:35:31Z</time>
      </trkpt>
      <trkpt lat="-34.949703" lon="-58.102566">
        <time>2021-05-01T18:35:32Z</time>
      </trkpt>
      <trkpt lat="-34.949646" lon="-58.102566">
        <time>2021-05-01T18:35:33Z</time>
      </trkpt>
      <trkpt lat="-34.949596" lon="-58.102562">
        <time>2021-05-01T18:35:34Z</time>
      </trkpt>
      <trkpt lat="-34.949547" lon="-58.10256">
        <time>2021-05-01T18:35:35Z</time>
      </trkpt>
      <trkpt lat="-34.949497" lon="-58.10256">
        <time>2021-05-01T18:35:36Z</time>
      </trkpt>
      <trkpt lat="-34.949448" lon="-58.10256">
        <time>2021-05-01T18:35:37Z</time>
      </trkpt>
      <trkpt lat="-34.949398" lon="-58.102562">
        <time>2021-05-01T18:35:38Z</time>
      </trkpt>
      <trkpt lat="-34.94935" lon="-58.102566">
        <time>2021-05-01T18:35:39Z</time>
      </trkpt>
      <trkpt lat="-34.949303" lon="-58.102566">
        <time>2021-05-01T18:35:40Z</time>
      </trkpt>
      <trkpt lat="-34.949253" lon="-58.102562">
        <time>2021-05-01T18:35:41Z</time>
      </trkpt>
      <trkpt lat="-34.949203" lon="-58.10256">
        <time>2021-05-01T18:35:42Z</time>
      </trkpt>
      <trkpt lat="-34.949154" lon="-58.10256">
        <time>2021-05-01T18:35:43Z</time>
      </trkpt>
      <trkpt lat="-34.9491" lon="-58.10256">
        <time>2021-05-01T18:35:44Z</time>
      </trkpt>
      <trkpt lat="-34.949043" lon="-58.10256">
        <time>2021-05-01T18:35:45Z</time>
      </trkpt>
      <trkpt lat="-34.948986" lon="-58.10256">
        <time>2021-05-01T18:35:46Z</time>
      </trkpt>
      <trkpt lat="-34.948933" lon="-58.10256">
        <time>2021-05-01T18:35:47Z</time>
      </trkpt>
      <trkpt lat="-34.94888" lon="-58.102554">
        <time>2021-05-01T18:35:48Z</time>
      </trkpt>
      <trkpt lat="-34.94883" lon="-58.102554">
        <time>2021-05-01T18:35:49Z</time>
      </trkpt>
      <trkpt lat="-34.948784" lon="-58.102562">
        <time>2021-05-01T18:35:50Z</time>
      </trkpt>
      <trkpt lat="-34.94874" lon="-58.102566">
        <time>2021-05-01T18:35:51Z</time>
      </trkpt>
      <trkpt lat="-34.94869" lon="-58.102566">
        <time>2021-05-01T18:35:52Z</time>
      </trkpt>
      <trkpt lat="-34.948643" lon="-58.102562">
        <time>2021-05-01T18:35:53Z</time>
      </trkpt>
      <trkpt lat="-34.94856" lon="-58.102554">
        <time>2021-05-01T18:35:55Z</time>
      </trkpt>
      <trkpt lat="-34.948498" lon="-58.102554">
        <time>2021-05-01T18:35:57Z</time>
      </trkpt>
      <trkpt lat="-34.948444" lon="-58.102554">
        <time>2021-05-01T18:35:59Z</time>
      </trkpt>
      <trkpt lat="-34.948383" lon="-58.102554">
        <time>2021-05-01T18:36:01Z</time>
      </trkpt>
      <trkpt lat="-34.948322" lon="-58.102554">
        <time>2021-05-01T18:36:03Z</time>
      </trkpt>
      <trkpt lat="-34.948242" lon="-58.10256">
        <time>2021-05-01T18:36:05Z</time>
      </trkpt>
      <trkpt lat="-34.948193" lon="-58.102543">
        <time>2021-05-01T18:36:06Z</time>
      </trkpt>
      <trkpt lat="-34.948143" lon="-58.102535">
        <time>2021-05-01T18:36:07Z</time>
      </trkpt>
      <trkpt lat="-34.9481" lon="-58.102516">
        <time>2021-05-01T18:36:08Z</time>
      </trkpt>
      <trkpt lat="-34.94806" lon="-58.10249">
        <time>2021-05-01T18:36:09Z</time>
      </trkpt>
      <trkpt lat="-34.947983" lon="-58.10247">
        <time>2021-05-01T18:36:11Z</time>
      </trkpt>
      <trkpt lat="-34.947903" lon="-58.102467">
        <time>2021-05-01T18:36:13Z</time>
      </trkpt>
      <trkpt lat="-34.947838" lon="-58.102474">
        <time>2021-05-01T18:36:19Z</time>
      </trkpt>
      <trkpt lat="-34.947838" lon="-58.102474">
        <time>2021-05-01T18:36:38Z</time>
      </trkpt>
      <trkpt lat="-34.947838" lon="-58.102474">
        <time>2021-05-01T18:36:48Z</time>
      </trkpt>
      <trkpt lat="-34.947838" lon="-58.102474">
        <time>2021-05-01T18:36:58Z</time>
      </trkpt>
      <trkpt lat="-34.947838" lon="-58.102474">
        <time>2021-05-01T18:37:08Z</time>
      </trkpt>
      <trkpt lat="-34.94779" lon="-58.102463">
        <time>2021-05-01T18:37:13Z</time>
      </trkpt>
      <trkpt lat="-34.947727" lon="-58.102478">
        <time>2021-05-01T18:37:16Z</time>
      </trkpt>
      <trkpt lat="-34.94767" lon="-58.102528">
        <time>2021-05-01T18:37:18Z</time>
      </trkpt>
      <trkpt lat="-34.94764" lon="-58.102573">
        <time>2021-05-01T18:37:19Z</time>
      </trkpt>
      <trkpt lat="-34.94761" lon="-58.10263">
        <time>2021-05-01T18:37:20Z</time>
      </trkpt>
      <trkpt lat="-34.94757" lon="-58.10268">
        <time>2021-05-01T18:37:21Z</time>
      </trkpt>
      <trkpt lat="-34.94754" lon="-58.10273">
        <time>2021-05-01T18:37:22Z</time>
      </trkpt>
      <trkpt lat="-34.94751" lon="-58.10278">
        <time>2021-05-01T18:37:23Z</time>
      </trkpt>
      <trkpt lat="-34.94748" lon="-58.102825">
        <time>2021-05-01T18:37:24Z</time>
      </trkpt>
      <trkpt lat="-34.94745" lon="-58.10287">
        <time>2021-05-01T18:37:25Z</time>
      </trkpt>
      <trkpt lat="-34.94742" lon="-58.102913">
        <time>2021-05-01T18:37:26Z</time>
      </trkpt>
      <trkpt lat="-34.947388" lon="-58.10296">
        <time>2021-05-01T18:37:27Z</time>
      </trkpt>
      <trkpt lat="-34.947357" lon="-58.103004">
        <time>2021-05-01T18:37:28Z</time>
      </trkpt>
      <trkpt lat="-34.947323" lon="-58.103054">
        <time>2021-05-01T18:37:29Z</time>
      </trkpt>
      <trkpt lat="-34.947292" lon="-58.103104">
        <time>2021-05-01T18:37:30Z</time>
      </trkpt>
      <trkpt lat="-34.947258" lon="-58.103153">
        <time>2021-05-01T18:37:31Z</time>
      </trkpt>
      <trkpt lat="-34.947224" lon="-58.103203">
        <time>2021-05-01T18:37:32Z</time>
      </trkpt>
      <trkpt lat="-34.94719" lon="-58.103256">
        <time>2021-05-01T18:37:33Z</time>
      </trkpt>
      <trkpt lat="-34.947155" lon="-58.10331">
        <time>2021-05-01T18:37:34Z</time>
      </trkpt>
      <trkpt lat="-34.94712" lon="-58.103363">
        <time>2021-05-01T18:37:35Z</time>
      </trkpt>
      <trkpt lat="-34.947083" lon="-58.10342">
        <time>2021-05-01T18:37:36Z</time>
      </trkpt>
      <trkpt lat="-34.947044" lon="-58.103474">
        <time>2021-05-01T18:37:37Z</time>
      </trkpt>
      <trkpt lat="-34.94701" lon="-58.10353">
        <time>2021-05-01T18:37:38Z</time>
      </trkpt>
      <trkpt lat="-34.94697" lon="-58.103584">
        <time>2021-05-01T18:37:39Z</time>
      </trkpt>
      <trkpt lat="-34.946938" lon="-58.103638">
        <time>2021-05-01T18:37:40Z</time>
      </trkpt>
      <trkpt lat="-34.9469" lon="-58.10369">
        <time>2021-05-01T18:37:41Z</time>
      </trkpt>
      <trkpt lat="-34.946865" lon="-58.10375">
        <time>2021-05-01T18:37:42Z</time>
      </trkpt>
      <trkpt lat="-34.946827" lon="-58.1038">
        <time>2021-05-01T18:37:43Z</time>
      </trkpt>
      <trkpt lat="-34.946793" lon="-58.103855">
        <time>2021-05-01T18:37:44Z</time>
      </trkpt>
      <trkpt lat="-34.946762" lon="-58.10391">
        <time>2021-05-01T18:37:45Z</time>
      </trkpt>
      <trkpt lat="-34.946728" lon="-58.10396">
        <time>2021-05-01T18:37:46Z</time>
      </trkpt>
      <trkpt lat="-34.946693" lon="-58.104008">
        <time>2021-05-01T18:37:47Z</time>
      </trkpt>
      <trkpt lat="-34.946663" lon="-58.10406">
        <time>2021-05-01T18:37:48Z</time>
      </trkpt>
      <trkpt lat="-34.946632" lon="-58.104115">
        <time>2021-05-01T18:37:49Z</time>
      </trkpt>
      <trkpt lat="-34.946598" lon="-58.104164">
        <time>2021-05-01T18:37:50Z</time>
      </trkpt>
      <trkpt lat="-34.946568" lon="-58.104218">
        <time>2021-05-01T18:37:51Z</time>
      </trkpt>
      <trkpt lat="-34.946537" lon="-58.104267">
        <time>2021-05-01T18:37:52Z</time>
      </trkpt>
      <trkpt lat="-34.946507" lon="-58.104317">
        <time>2021-05-01T18:37:53Z</time>
      </trkpt>
      <trkpt lat="-34.946472" lon="-58.104366">
        <time>2021-05-01T18:37:54Z</time>
      </trkpt>
      <trkpt lat="-34.946438" lon="-58.10442">
        <time>2021-05-01T18:37:55Z</time>
      </trkpt>
      <trkpt lat="-34.946407" lon="-58.104473">
        <time>2021-05-01T18:37:56Z</time>
      </trkpt>
      <trkpt lat="-34.94637" lon="-58.104527">
        <time>2021-05-01T18:37:57Z</time>
      </trkpt>
      <trkpt lat="-34.946335" lon="-58.104584">
        <time>2021-05-01T18:37:58Z</time>
      </trkpt>
      <trkpt lat="-34.9463" lon="-58.104637">
        <time>2021-05-01T18:37:59Z</time>
      </trkpt>
      <trkpt lat="-34.946266" lon="-58.104694">
        <time>2021-05-01T18:38:00Z</time>
      </trkpt>
      <trkpt lat="-34.946236" lon="-58.104748">
        <time>2021-05-01T18:38:01Z</time>
      </trkpt>
      <trkpt lat="-34.9462" lon="-58.104797">
        <time>2021-05-01T18:38:02Z</time>
      </trkpt>
      <trkpt lat="-34.946167" lon="-58.10485">
        <time>2021-05-01T18:38:03Z</time>
      </trkpt>
      <trkpt lat="-34.946133" lon="-58.104904">
        <time>2021-05-01T18:38:04Z</time>
      </trkpt>
      <trkpt lat="-34.9461" lon="-58.10496">
        <time>2021-05-01T18:38:05Z</time>
      </trkpt>
      <trkpt lat="-34.946064" lon="-58.10502">
        <time>2021-05-01T18:38:06Z</time>
      </trkpt>
      <trkpt lat="-34.94603" lon="-58.105072">
        <time>2021-05-01T18:38:07Z</time>
      </trkpt>
      <trkpt lat="-34.946" lon="-58.10512">
        <time>2021-05-01T18:38:08Z</time>
      </trkpt>
      <trkpt lat="-34.945965" lon="-58.10517">
        <time>2021-05-01T18:38:09Z</time>
      </trkpt>
      <trkpt lat="-34.94593" lon="-58.10522">
        <time>2021-05-01T18:38:10Z</time>
      </trkpt>
      <trkpt lat="-34.9459" lon="-58.10527">
        <time>2021-05-01T18:38:11Z</time>
      </trkpt>
      <trkpt lat="-34.945866" lon="-58.105324">
        <time>2021-05-01T18:38:12Z</time>
      </trkpt>
      <trkpt lat="-34.94583" lon="-58.105377">
        <time>2021-05-01T18:38:13Z</time>
      </trkpt>
      <trkpt lat="-34.945797" lon="-58.10543">
        <time>2021-05-01T18:38:14Z</time>
      </trkpt>
      <trkpt lat="-34.94576" lon="-58.105488">
        <time>2021-05-01T18:38:15Z</time>
      </trkpt>
      <trkpt lat="-34.945724" lon="-58.105545">
        <time>2021-05-01T18:38:16Z</time>
      </trkpt>
      <trkpt lat="-34.945686" lon="-58.105602">
        <time>2021-05-01T18:38:17Z</time>
      </trkpt>
      <trkpt lat="-34.945652" lon="-58.105656">
        <time>2021-05-01T18:38:18Z</time>
      </trkpt>
      <trkpt lat="-34.945614" lon="-58.105705">
        <time>2021-05-01T18:38:19Z</time>
      </trkpt>
      <trkpt lat="-34.94557" lon="-58.10575">
        <time>2021-05-01T18:38:20Z</time>
      </trkpt>
      <trkpt lat="-34.945526" lon="-58.105793">
        <time>2021-05-01T18:38:21Z</time>
      </trkpt>
      <trkpt lat="-34.94548" lon="-58.105827">
        <time>2021-05-01T18:38:22Z</time>
      </trkpt>
      <trkpt lat="-34.945427" lon="-58.10583">
        <time>2021-05-01T18:38:23Z</time>
      </trkpt>
      <trkpt lat="-34.945377" lon="-58.1058">
        <time>2021-05-01T18:38:24Z</time>
      </trkpt>
      <trkpt lat="-34.94534" lon="-58.105755">
        <time>2021-05-01T18:38:25Z</time>
      </trkpt>
      <trkpt lat="-34.945297" lon="-58.10571">
        <time>2021-05-01T18:38:26Z</time>
      </trkpt>
      <trkpt lat="-34.945255" lon="-58.105663">
        <time>2021-05-01T18:38:27Z</time>
      </trkpt>
      <trkpt lat="-34.945213" lon="-58.105618">
        <time>2021-05-01T18:38:28Z</time>
      </trkpt>
      <trkpt lat="-34.94517" lon="-58.105568">
        <time>2021-05-01T18:38:29Z</time>
      </trkpt>
      <trkpt lat="-34.94513" lon="-58.105522">
        <time>2021-05-01T18:38:30Z</time>
      </trkpt>
      <trkpt lat="-34.945084" lon="-58.105476">
        <time>2021-05-01T18:38:31Z</time>
      </trkpt>
      <trkpt lat="-34.945045" lon="-58.10544">
        <time>2021-05-01T18:38:32Z</time>
      </trkpt>
      <trkpt lat="-34.945004" lon="-58.10539">
        <time>2021-05-01T18:38:33Z</time>
      </trkpt>
      <trkpt lat="-34.94496" lon="-58.10534">
        <time>2021-05-01T18:38:34Z</time>
      </trkpt>
      <trkpt lat="-34.94492" lon="-58.105293">
        <time>2021-05-01T18:38:35Z</time>
      </trkpt>
      <trkpt lat="-34.944878" lon="-58.10524">
        <time>2021-05-01T18:38:36Z</time>
      </trkpt>
      <trkpt lat="-34.94483" lon="-58.105194">
        <time>2021-05-01T18:38:37Z</time>
      </trkpt>
      <trkpt lat="-34.944786" lon="-58.105145">
        <time>2021-05-01T18:38:38Z</time>
      </trkpt>
      <trkpt lat="-34.944744" lon="-58.105095">
        <time>2021-05-01T18:38:39Z</time>
      </trkpt>
      <trkpt lat="-34.944702" lon="-58.10505">
        <time>2021-05-01T18:38:40Z</time>
      </trkpt>
      <trkpt lat="-34.944664" lon="-58.105003">
        <time>2021-05-01T18:38:41Z</time>
      </trkpt>
      <trkpt lat="-34.944622" lon="-58.104958">
        <time>2021-05-01T18:38:42Z</time>
      </trkpt>
      <trkpt lat="-34.944584" lon="-58.104908">
        <time>2021-05-01T18:38:43Z</time>
      </trkpt>
      <trkpt lat="-34.944546" lon="-58.104862">
        <time>2021-05-01T18:38:44Z</time>
      </trkpt>
      <trkpt lat="-34.944504" lon="-58.104816">
        <time>2021-05-01T18:38:45Z</time>
      </trkpt>
      <trkpt lat="-34.944466" lon="-58.10477">
        <time>2021-05-01T18:38:46Z</time>
      </trkpt>
      <trkpt lat="-34.94442" lon="-58.104725">
        <time>2021-05-01T18:38:47Z</time>
      </trkpt>
      <trkpt lat="-34.944378" lon="-58.10468">
        <time>2021-05-01T18:38:48Z</time>
      </trkpt>
      <trkpt lat="-34.944336" lon="-58.104637">
        <time>2021-05-01T18:38:49Z</time>
      </trkpt>
      <trkpt lat="-34.944298" lon="-58.10459">
        <time>2021-05-01T18:38:50Z</time>
      </trkpt>
      <trkpt lat="-34.94426" lon="-58.104546">
        <time>2021-05-01T18:38:51Z</time>
      </trkpt>
      <trkpt lat="-34.94422" lon="-58.104504">
        <time>2021-05-01T18:38:52Z</time>
      </trkpt>
      <trkpt lat="-34.944187" lon="-58.10446">
        <time>2021-05-01T18:38:53Z</time>
      </trkpt>
      <trkpt lat="-34.944153" lon="-58.104416">
        <time>2021-05-01T18:38:54Z</time>
      </trkpt>
      <trkpt lat="-34.94412" lon="-58.104374">
        <time>2021-05-01T18:38:55Z</time>
      </trkpt>
      <trkpt lat="-34.94408" lon="-58.10433">
        <time>2021-05-01T18:38:56Z</time>
      </trkpt>
      <trkpt lat="-34.944042" lon="-58.104282">
        <time>2021-05-01T18:38:57Z</time>
      </trkpt>
      <trkpt lat="-34.944004" lon="-58.104237">
        <time>2021-05-01T18:38:58Z</time>
      </trkpt>
      <trkpt lat="-34.943966" lon="-58.104195">
        <time>2021-05-01T18:38:59Z</time>
      </trkpt>
      <trkpt lat="-34.943928" lon="-58.10415">
        <time>2021-05-01T18:39:00Z</time>
      </trkpt>
      <trkpt lat="-34.94389" lon="-58.104103">
        <time>2021-05-01T18:39:01Z</time>
      </trkpt>
      <trkpt lat="-34.94385" lon="-58.10406">
        <time>2021-05-01T18:39:02Z</time>
      </trkpt>
      <trkpt lat="-34.943817" lon="-58.10402">
        <time>2021-05-01T18:39:03Z</time>
      </trkpt>
      <trkpt lat="-34.94378" lon="-58.103977">
        <time>2021-05-01T18:39:04Z</time>
      </trkpt>
      <trkpt lat="-34.94375" lon="-58.103935">
        <time>2021-05-01T18:39:05Z</time>
      </trkpt>
      <trkpt lat="-34.94371" lon="-58.103893">
        <time>2021-05-01T18:39:06Z</time>
      </trkpt>
      <trkpt lat="-34.943672" lon="-58.10385">
        <time>2021-05-01T18:39:07Z</time>
      </trkpt>
      <trkpt lat="-34.943638" lon="-58.103806">
        <time>2021-05-01T18:39:08Z</time>
      </trkpt>
      <trkpt lat="-34.943596" lon="-58.10376">
        <time>2021-05-01T18:39:09Z</time>
      </trkpt>
      <trkpt lat="-34.943558" lon="-58.103714">
        <time>2021-05-01T18:39:10Z</time>
      </trkpt>
      <trkpt lat="-34.94352" lon="-58.10367">
        <time>2021-05-01T18:39:11Z</time>
      </trkpt>
      <trkpt lat="-34.943478" lon="-58.10362">
        <time>2021-05-01T18:39:12Z</time>
      </trkpt>
      <trkpt lat="-34.94344" lon="-58.103577">
        <time>2021-05-01T18:39:13Z</time>
      </trkpt>
      <trkpt lat="-34.9434" lon="-58.10353">
        <time>2021-05-01T18:39:14Z</time>
      </trkpt>
      <trkpt lat="-34.943363" lon="-58.103485">
        <time>2021-05-01T18:39:15Z</time>
      </trkpt>
      <trkpt lat="-34.943325" lon="-58.103443">
        <time>2021-05-01T18:39:16Z</time>
      </trkpt>
      <trkpt lat="-34.943287" lon="-58.103397">
        <time>2021-05-01T18:39:17Z</time>
      </trkpt>
      <trkpt lat="-34.943245" lon="-58.10335">
        <time>2021-05-01T18:39:18Z</time>
      </trkpt>
      <trkpt lat="-34.943207" lon="-58.103306">
        <time>2021-05-01T18:39:19Z</time>
      </trkpt>
      <trkpt lat="-34.943165" lon="-58.10326">
        <time>2021-05-01T18:39:20Z</time>
      </trkpt>
      <trkpt lat="-34.943127" lon="-58.10321">
        <time>2021-05-01T18:39:21Z</time>
      </trkpt>
      <trkpt lat="-34.94309" lon="-58.103165">
        <time>2021-05-01T18:39:22Z</time>
      </trkpt>
      <trkpt lat="-34.94305" lon="-58.103123">
        <time>2021-05-01T18:39:23Z</time>
      </trkpt>
      <trkpt lat="-34.943012" lon="-58.103077">
        <time>2021-05-01T18:39:24Z</time>
      </trkpt>
      <trkpt lat="-34.942974" lon="-58.10303">
        <time>2021-05-01T18:39:25Z</time>
      </trkpt>
      <trkpt lat="-34.942936" lon="-58.102985">
        <time>2021-05-01T18:39:26Z</time>
      </trkpt>
      <trkpt lat="-34.942894" lon="-58.10294">
        <time>2021-05-01T18:39:27Z</time>
      </trkpt>
      <trkpt lat="-34.942856" lon="-58.102898">
        <time>2021-05-01T18:39:28Z</time>
      </trkpt>
      <trkpt lat="-34.942814" lon="-58.102856">
        <time>2021-05-01T18:39:29Z</time>
      </trkpt>
      <trkpt lat="-34.94278" lon="-58.102814">
        <time>2021-05-01T18:39:30Z</time>
      </trkpt>
      <trkpt lat="-34.94274" lon="-58.10277">
        <time>2021-05-01T18:39:31Z</time>
      </trkpt>
      <trkpt lat="-34.942707" lon="-58.102737">
        <time>2021-05-01T18:39:32Z</time>
      </trkpt>
      <trkpt lat="-34.942642" lon="-58.102665">
        <time>2021-05-01T18:39:34Z</time>
      </trkpt>
      <trkpt lat="-34.942608" lon="-58.102627">
        <time>2021-05-01T18:39:35Z</time>
      </trkpt>
      <trkpt lat="-34.94257" lon="-58.10259">
        <time>2021-05-01T18:39:36Z</time>
      </trkpt>
      <trkpt lat="-34.94253" lon="-58.102547">
        <time>2021-05-01T18:39:37Z</time>
      </trkpt>
      <trkpt lat="-34.942497" lon="-58.102512">
        <time>2021-05-01T18:39:38Z</time>
      </trkpt>
      <trkpt lat="-34.94244" lon="-58.10243">
        <time>2021-05-01T18:39:40Z</time>
      </trkpt>
      <trkpt lat="-34.942406" lon="-58.102386">
        <time>2021-05-01T18:39:41Z</time>
      </trkpt>
      <trkpt lat="-34.942375" lon="-58.10235">
        <time>2021-05-01T18:39:42Z</time>
      </trkpt>
      <trkpt lat="-34.942333" lon="-58.102295">
        <time>2021-05-01T18:39:43Z</time>
      </trkpt>
      <trkpt lat="-34.94229" lon="-58.102253">
        <time>2021-05-01T18:39:44Z</time>
      </trkpt>
      <trkpt lat="-34.94225" lon="-58.10221">
        <time>2021-05-01T18:39:45Z</time>
      </trkpt>
      <trkpt lat="-34.942215" lon="-58.102173">
        <time>2021-05-01T18:39:46Z</time>
      </trkpt>
      <trkpt lat="-34.94218" lon="-58.10213">
        <time>2021-05-01T18:39:47Z</time>
      </trkpt>
      <trkpt lat="-34.942142" lon="-58.102085">
        <time>2021-05-01T18:39:48Z</time>
      </trkpt>
      <trkpt lat="-34.942104" lon="-58.10204">
        <time>2021-05-01T18:39:49Z</time>
      </trkpt>
      <trkpt lat="-34.942066" lon="-58.102">
        <time>2021-05-01T18:39:50Z</time>
      </trkpt>
      <trkpt lat="-34.94203" lon="-58.101955">
        <time>2021-05-01T18:39:51Z</time>
      </trkpt>
      <trkpt lat="-34.941994" lon="-58.101906">
        <time>2021-05-01T18:39:52Z</time>
      </trkpt>
      <trkpt lat="-34.94196" lon="-58.101864">
        <time>2021-05-01T18:39:53Z</time>
      </trkpt>
      <trkpt lat="-34.94192" lon="-58.10182">
        <time>2021-05-01T18:39:54Z</time>
      </trkpt>
      <trkpt lat="-34.941883" lon="-58.101776">
        <time>2021-05-01T18:39:55Z</time>
      </trkpt>
      <trkpt lat="-34.941845" lon="-58.101727">
        <time>2021-05-01T18:39:56Z</time>
      </trkpt>
      <trkpt lat="-34.941807" lon="-58.10168">
        <time>2021-05-01T18:39:57Z</time>
      </trkpt>
      <trkpt lat="-34.94177" lon="-58.101635">
        <time>2021-05-01T18:39:58Z</time>
      </trkpt>
      <trkpt lat="-34.941727" lon="-58.10159">
        <time>2021-05-01T18:39:59Z</time>
      </trkpt>
      <trkpt lat="-34.94169" lon="-58.10154">
        <time>2021-05-01T18:40:00Z</time>
      </trkpt>
      <trkpt lat="-34.941654" lon="-58.10149">
        <time>2021-05-01T18:40:01Z</time>
      </trkpt>
      <trkpt lat="-34.941616" lon="-58.101444">
        <time>2021-05-01T18:40:02Z</time>
      </trkpt>
      <trkpt lat="-34.941578" lon="-58.1014">
        <time>2021-05-01T18:40:03Z</time>
      </trkpt>
      <trkpt lat="-34.941544" lon="-58.101357">
        <time>2021-05-01T18:40:04Z</time>
      </trkpt>
      <trkpt lat="-34.941505" lon="-58.101315">
        <time>2021-05-01T18:40:05Z</time>
      </trkpt>
      <trkpt lat="-34.94147" lon="-58.101273">
        <time>2021-05-01T18:40:06Z</time>
      </trkpt>
      <trkpt lat="-34.941433" lon="-58.101227">
        <time>2021-05-01T18:40:07Z</time>
      </trkpt>
      <trkpt lat="-34.941395" lon="-58.101185">
        <time>2021-05-01T18:40:08Z</time>
      </trkpt>
      <trkpt lat="-34.941357" lon="-58.101143">
        <time>2021-05-01T18:40:09Z</time>
      </trkpt>
      <trkpt lat="-34.941322" lon="-58.1011">
        <time>2021-05-01T18:40:10Z</time>
      </trkpt>
      <trkpt lat="-34.941284" lon="-58.10106">
        <time>2021-05-01T18:40:11Z</time>
      </trkpt>
      <trkpt lat="-34.941254" lon="-58.101013">
        <time>2021-05-01T18:40:12Z</time>
      </trkpt>
      <trkpt lat="-34.94121" lon="-58.10097">
        <time>2021-05-01T18:40:13Z</time>
      </trkpt>
      <trkpt lat="-34.941174" lon="-58.100925">
        <time>2021-05-01T18:40:14Z</time>
      </trkpt>
      <trkpt lat="-34.94113" lon="-58.10088">
        <time>2021-05-01T18:40:15Z</time>
      </trkpt>
      <trkpt lat="-34.94109" lon="-58.100834">
        <time>2021-05-01T18:40:16Z</time>
      </trkpt>
      <trkpt lat="-34.941048" lon="-58.100784">
        <time>2021-05-01T18:40:17Z</time>
      </trkpt>
      <trkpt lat="-34.941006" lon="-58.100735">
        <time>2021-05-01T18:40:18Z</time>
      </trkpt>
      <trkpt lat="-34.940964" lon="-58.10068">
        <time>2021-05-01T18:40:19Z</time>
      </trkpt>
      <trkpt lat="-34.94092" lon="-58.100628">
        <time>2021-05-01T18:40:20Z</time>
      </trkpt>
      <trkpt lat="-34.940876" lon="-58.10058">
        <time>2021-05-01T18:40:21Z</time>
      </trkpt>
      <trkpt lat="-34.940834" lon="-58.10053">
        <time>2021-05-01T18:40:22Z</time>
      </trkpt>
      <trkpt lat="-34.940792" lon="-58.100483">
        <time>2021-05-01T18:40:23Z</time>
      </trkpt>
      <trkpt lat="-34.94075" lon="-58.100437">
        <time>2021-05-01T18:40:24Z</time>
      </trkpt>
      <trkpt lat="-34.940712" lon="-58.10039">
        <time>2021-05-01T18:40:25Z</time>
      </trkpt>
      <trkpt lat="-34.94067" lon="-58.10034">
        <time>2021-05-01T18:40:26Z</time>
      </trkpt>
      <trkpt lat="-34.94063" lon="-58.1003">
        <time>2021-05-01T18:40:27Z</time>
      </trkpt>
      <trkpt lat="-34.940594" lon="-58.100254">
        <time>2021-05-01T18:40:28Z</time>
      </trkpt>
      <trkpt lat="-34.94056" lon="-58.10021">
        <time>2021-05-01T18:40:29Z</time>
      </trkpt>
      <trkpt lat="-34.94052" lon="-58.100163">
        <time>2021-05-01T18:40:30Z</time>
      </trkpt>
      <trkpt lat="-34.940483" lon="-58.100117">
        <time>2021-05-01T18:40:31Z</time>
      </trkpt>
      <trkpt lat="-34.940445" lon="-58.10007">
        <time>2021-05-01T18:40:32Z</time>
      </trkpt>
      <trkpt lat="-34.940403" lon="-58.100025">
        <time>2021-05-01T18:40:33Z</time>
      </trkpt>
      <trkpt lat="-34.940365" lon="-58.09998">
        <time>2021-05-01T18:40:34Z</time>
      </trkpt>
      <trkpt lat="-34.940327" lon="-58.09994">
        <time>2021-05-01T18:40:35Z</time>
      </trkpt>
      <trkpt lat="-34.940292" lon="-58.0999">
        <time>2021-05-01T18:40:36Z</time>
      </trkpt>
      <trkpt lat="-34.940258" lon="-58.099854">
        <time>2021-05-01T18:40:37Z</time>
      </trkpt>
      <trkpt lat="-34.94022" lon="-58.09981">
        <time>2021-05-01T18:40:38Z</time>
      </trkpt>
      <trkpt lat="-34.94018" lon="-58.099766">
        <time>2021-05-01T18:40:39Z</time>
      </trkpt>
      <trkpt lat="-34.94014" lon="-58.09972">
        <time>2021-05-01T18:40:40Z</time>
      </trkpt>
      <trkpt lat="-34.940098" lon="-58.099678">
        <time>2021-05-01T18:40:41Z</time>
      </trkpt>
      <trkpt lat="-34.94006" lon="-58.099632">
        <time>2021-05-01T18:40:42Z</time>
      </trkpt>
      <trkpt lat="-34.940014" lon="-58.099586">
        <time>2021-05-01T18:40:43Z</time>
      </trkpt>
      <trkpt lat="-34.939972" lon="-58.099545">
        <time>2021-05-01T18:40:44Z</time>
      </trkpt>
      <trkpt lat="-34.93993" lon="-58.0995">
        <time>2021-05-01T18:40:45Z</time>
      </trkpt>
      <trkpt lat="-34.93989" lon="-58.099457">
        <time>2021-05-01T18:40:46Z</time>
      </trkpt>
      <trkpt lat="-34.939854" lon="-58.09941">
        <time>2021-05-01T18:40:47Z</time>
      </trkpt>
      <trkpt lat="-34.93981" lon="-58.099365">
        <time>2021-05-01T18:40:48Z</time>
      </trkpt>
      <trkpt lat="-34.93977" lon="-58.099316">
        <time>2021-05-01T18:40:49Z</time>
      </trkpt>
      <trkpt lat="-34.939728" lon="-58.09927">
        <time>2021-05-01T18:40:50Z</time>
      </trkpt>
      <trkpt lat="-34.939686" lon="-58.09922">
        <time>2021-05-01T18:40:51Z</time>
      </trkpt>
      <trkpt lat="-34.939644" lon="-58.09918">
        <time>2021-05-01T18:40:52Z</time>
      </trkpt>
      <trkpt lat="-34.939606" lon="-58.099133">
        <time>2021-05-01T18:40:53Z</time>
      </trkpt>
      <trkpt lat="-34.939568" lon="-58.099094">
        <time>2021-05-01T18:40:54Z</time>
      </trkpt>
      <trkpt lat="-34.939533" lon="-58.099052">
        <time>2021-05-01T18:40:55Z</time>
      </trkpt>
      <trkpt lat="-34.9395" lon="-58.099007">
        <time>2021-05-01T18:40:56Z</time>
      </trkpt>
      <trkpt lat="-34.93946" lon="-58.09897">
        <time>2021-05-01T18:40:57Z</time>
      </trkpt>
      <trkpt lat="-34.939423" lon="-58.09893">
        <time>2021-05-01T18:40:58Z</time>
      </trkpt>
      <trkpt lat="-34.93936" lon="-58.09886">
        <time>2021-05-01T18:41:00Z</time>
      </trkpt>
      <trkpt lat="-34.9393" lon="-58.098785">
        <time>2021-05-01T18:41:02Z</time>
      </trkpt>
      <trkpt lat="-34.939274" lon="-58.098736">
        <time>2021-05-01T18:41:03Z</time>
      </trkpt>
      <trkpt lat="-34.939247" lon="-58.098682">
        <time>2021-05-01T18:41:04Z</time>
      </trkpt>
      <trkpt lat="-34.939198" lon="-58.098637">
        <time>2021-05-01T18:41:05Z</time>
      </trkpt>
      <trkpt lat="-34.93916" lon="-58.098587">
        <time>2021-05-01T18:41:06Z</time>
      </trkpt>
      <trkpt lat="-34.939117" lon="-58.098537">
        <time>2021-05-01T18:41:07Z</time>
      </trkpt>
      <trkpt lat="-34.93908" lon="-58.09849">
        <time>2021-05-01T18:41:08Z</time>
      </trkpt>
      <trkpt lat="-34.93904" lon="-58.098446">
        <time>2021-05-01T18:41:09Z</time>
      </trkpt>
      <trkpt lat="-34.939003" lon="-58.0984">
        <time>2021-05-01T18:41:10Z</time>
      </trkpt>
      <trkpt lat="-34.938965" lon="-58.098354">
        <time>2021-05-01T18:41:11Z</time>
      </trkpt>
      <trkpt lat="-34.938927" lon="-58.098312">
        <time>2021-05-01T18:41:12Z</time>
      </trkpt>
      <trkpt lat="-34.938892" lon="-58.098267">
        <time>2021-05-01T18:41:13Z</time>
      </trkpt>
      <trkpt lat="-34.938854" lon="-58.098225">
        <time>2021-05-01T18:41:14Z</time>
      </trkpt>
      <trkpt lat="-34.938816" lon="-58.098183">
        <time>2021-05-01T18:41:15Z</time>
      </trkpt>
      <trkpt lat="-34.938774" lon="-58.098137">
        <time>2021-05-01T18:41:16Z</time>
      </trkpt>
      <trkpt lat="-34.938736" lon="-58.098095">
        <time>2021-05-01T18:41:17Z</time>
      </trkpt>
      <trkpt lat="-34.938694" lon="-58.09805">
        <time>2021-05-01T18:41:18Z</time>
      </trkpt>
      <trkpt lat="-34.938656" lon="-58.098007">
        <time>2021-05-01T18:41:19Z</time>
      </trkpt>
      <trkpt lat="-34.938618" lon="-58.09796">
        <time>2021-05-01T18:41:20Z</time>
      </trkpt>
      <trkpt lat="-34.93858" lon="-58.097916">
        <time>2021-05-01T18:41:21Z</time>
      </trkpt>
      <trkpt lat="-34.93854" lon="-58.09787">
        <time>2021-05-01T18:41:22Z</time>
      </trkpt>
      <trkpt lat="-34.938503" lon="-58.097828">
        <time>2021-05-01T18:41:23Z</time>
      </trkpt>
      <trkpt lat="-34.93847" lon="-58.097782">
        <time>2021-05-01T18:41:24Z</time>
      </trkpt>
      <trkpt lat="-34.93843" lon="-58.097744">
        <time>2021-05-01T18:41:25Z</time>
      </trkpt>
      <trkpt lat="-34.938396" lon="-58.097702">
        <time>2021-05-01T18:41:26Z</time>
      </trkpt>
      <trkpt lat="-34.938362" lon="-58.09766">
        <time>2021-05-01T18:41:27Z</time>
      </trkpt>
      <trkpt lat="-34.938324" lon="-58.097614">
        <time>2021-05-01T18:41:28Z</time>
      </trkpt>
      <trkpt lat="-34.938286" lon="-58.097572">
        <time>2021-05-01T18:41:29Z</time>
      </trkpt>
      <trkpt lat="-34.938248" lon="-58.09753">
        <time>2021-05-01T18:41:30Z</time>
      </trkpt>
      <trkpt lat="-34.93821" lon="-58.097485">
        <time>2021-05-01T18:41:31Z</time>
      </trkpt>
      <trkpt lat="-34.93817" lon="-58.097443">
        <time>2021-05-01T18:41:32Z</time>
      </trkpt>
      <trkpt lat="-34.938133" lon="-58.0974">
        <time>2021-05-01T18:41:33Z</time>
      </trkpt>
      <trkpt lat="-34.938095" lon="-58.09736">
        <time>2021-05-01T18:41:34Z</time>
      </trkpt>
      <trkpt lat="-34.938057" lon="-58.097313">
        <time>2021-05-01T18:41:35Z</time>
      </trkpt>
      <trkpt lat="-34.93802" lon="-58.09727">
        <time>2021-05-01T18:41:36Z</time>
      </trkpt>
      <trkpt lat="-34.93798" lon="-58.09723">
        <time>2021-05-01T18:41:37Z</time>
      </trkpt>
      <trkpt lat="-34.937946" lon="-58.097183">
        <time>2021-05-01T18:41:38Z</time>
      </trkpt>
      <trkpt lat="-34.93791" lon="-58.09714">
        <time>2021-05-01T18:41:39Z</time>
      </trkpt>
      <trkpt lat="-34.93787" lon="-58.097095">
        <time>2021-05-01T18:41:40Z</time>
      </trkpt>
      <trkpt lat="-34.93783" lon="-58.097054">
        <time>2021-05-01T18:41:42Z</time>
      </trkpt>
      <trkpt lat="-34.937798" lon="-58.097008">
        <time>2021-05-01T18:41:43Z</time>
      </trkpt>
      <trkpt lat="-34.93776" lon="-58.096966">
        <time>2021-05-01T18:41:44Z</time>
      </trkpt>
      <trkpt lat="-34.93772" lon="-58.09692">
        <time>2021-05-01T18:41:45Z</time>
      </trkpt>
      <trkpt lat="-34.937683" lon="-58.096878">
        <time>2021-05-01T18:41:46Z</time>
      </trkpt>
      <trkpt lat="-34.93765" lon="-58.096832">
        <time>2021-05-01T18:41:47Z</time>
      </trkpt>
      <trkpt lat="-34.93761" lon="-58.09679">
        <time>2021-05-01T18:41:48Z</time>
      </trkpt>
      <trkpt lat="-34.937576" lon="-58.096745">
        <time>2021-05-01T18:41:49Z</time>
      </trkpt>
      <trkpt lat="-34.93754" lon="-58.096703">
        <time>2021-05-01T18:41:50Z</time>
      </trkpt>
      <trkpt lat="-34.937504" lon="-58.09666">
        <time>2021-05-01T18:41:51Z</time>
      </trkpt>
      <trkpt lat="-34.93747" lon="-58.096622">
        <time>2021-05-01T18:41:52Z</time>
      </trkpt>
      <trkpt lat="-34.93743" lon="-58.09658">
        <time>2021-05-01T18:41:53Z</time>
      </trkpt>
      <trkpt lat="-34.937397" lon="-58.09654">
        <time>2021-05-01T18:41:54Z</time>
      </trkpt>
      <trkpt lat="-34.93736" lon="-58.096497">
        <time>2021-05-01T18:41:55Z</time>
      </trkpt>
      <trkpt lat="-34.93732" lon="-58.09645">
        <time>2021-05-01T18:41:56Z</time>
      </trkpt>
      <trkpt lat="-34.937283" lon="-58.09641">
        <time>2021-05-01T18:41:57Z</time>
      </trkpt>
      <trkpt lat="-34.937244" lon="-58.096363">
        <time>2021-05-01T18:41:58Z</time>
      </trkpt>
      <trkpt lat="-34.937206" lon="-58.096317">
        <time>2021-05-01T18:41:59Z</time>
      </trkpt>
      <trkpt lat="-34.937164" lon="-58.096268">
        <time>2021-05-01T18:42:00Z</time>
      </trkpt>
      <trkpt lat="-34.93713" lon="-58.096222">
        <time>2021-05-01T18:42:01Z</time>
      </trkpt>
      <trkpt lat="-34.93709" lon="-58.09618">
        <time>2021-05-01T18:42:02Z</time>
      </trkpt>
      <trkpt lat="-34.937054" lon="-58.096138">
        <time>2021-05-01T18:42:03Z</time>
      </trkpt>
      <trkpt lat="-34.937016" lon="-58.096096">
        <time>2021-05-01T18:42:04Z</time>
      </trkpt>
      <trkpt lat="-34.936977" lon="-58.09605">
        <time>2021-05-01T18:42:05Z</time>
      </trkpt>
      <trkpt lat="-34.93694" lon="-58.09601">
        <time>2021-05-01T18:42:06Z</time>
      </trkpt>
      <trkpt lat="-34.9369" lon="-58.095966">
        <time>2021-05-01T18:42:07Z</time>
      </trkpt>
      <trkpt lat="-34.936863" lon="-58.095924">
        <time>2021-05-01T18:42:08Z</time>
      </trkpt>
      <trkpt lat="-34.93682" lon="-58.095882">
        <time>2021-05-01T18:42:09Z</time>
      </trkpt>
      <trkpt lat="-34.93678" lon="-58.095837">
        <time>2021-05-01T18:42:10Z</time>
      </trkpt>
      <trkpt lat="-34.93674" lon="-58.09579">
        <time>2021-05-01T18:42:11Z</time>
      </trkpt>
      <trkpt lat="-34.936703" lon="-58.095745">
        <time>2021-05-01T18:42:12Z</time>
      </trkpt>
      <trkpt lat="-34.93666" lon="-58.095695">
        <time>2021-05-01T18:42:13Z</time>
      </trkpt>
      <trkpt lat="-34.936623" lon="-58.095646">
        <time>2021-05-01T18:42:14Z</time>
      </trkpt>
      <trkpt lat="-34.936584" lon="-58.0956">
        <time>2021-05-01T18:42:15Z</time>
      </trkpt>
      <trkpt lat="-34.936546" lon="-58.09555">
        <time>2021-05-01T18:42:16Z</time>
      </trkpt>
      <trkpt lat="-34.93651" lon="-58.095505">
        <time>2021-05-01T18:42:17Z</time>
      </trkpt>
      <trkpt lat="-34.936466" lon="-58.095463">
        <time>2021-05-01T18:42:18Z</time>
      </trkpt>
      <trkpt lat="-34.93643" lon="-58.09542">
        <time>2021-05-01T18:42:19Z</time>
      </trkpt>
      <trkpt lat="-34.936398" lon="-58.09538">
        <time>2021-05-01T18:42:20Z</time>
      </trkpt>
      <trkpt lat="-34.93636" lon="-58.095337">
        <time>2021-05-01T18:42:21Z</time>
      </trkpt>
      <trkpt lat="-34.936317" lon="-58.09529">
        <time>2021-05-01T18:42:22Z</time>
      </trkpt>
      <trkpt lat="-34.936275" lon="-58.09525">
        <time>2021-05-01T18:42:23Z</time>
      </trkpt>
      <trkpt lat="-34.936237" lon="-58.095207">
        <time>2021-05-01T18:42:24Z</time>
      </trkpt>
      <trkpt lat="-34.9362" lon="-58.09516">
        <time>2021-05-01T18:42:25Z</time>
      </trkpt>
      <trkpt lat="-34.93616" lon="-58.09512">
        <time>2021-05-01T18:42:26Z</time>
      </trkpt>
      <trkpt lat="-34.936123" lon="-58.095074">
        <time>2021-05-01T18:42:27Z</time>
      </trkpt>
      <trkpt lat="-34.93609" lon="-58.095028">
        <time>2021-05-01T18:42:28Z</time>
      </trkpt>
      <trkpt lat="-34.936054" lon="-58.094986">
        <time>2021-05-01T18:42:29Z</time>
      </trkpt>
      <trkpt lat="-34.936016" lon="-58.094944">
        <time>2021-05-01T18:42:30Z</time>
      </trkpt>
      <trkpt lat="-34.93598" lon="-58.094902">
        <time>2021-05-01T18:42:31Z</time>
      </trkpt>
      <trkpt lat="-34.935947" lon="-58.094864">
        <time>2021-05-01T18:42:32Z</time>
      </trkpt>
      <trkpt lat="-34.935913" lon="-58.094826">
        <time>2021-05-01T18:42:33Z</time>
      </trkpt>
      <trkpt lat="-34.935875" lon="-58.09479">
        <time>2021-05-01T18:42:34Z</time>
      </trkpt>
      <trkpt lat="-34.935837" lon="-58.094753">
        <time>2021-05-01T18:42:35Z</time>
      </trkpt>
      <trkpt lat="-34.935795" lon="-58.094715">
        <time>2021-05-01T18:42:36Z</time>
      </trkpt>
      <trkpt lat="-34.935757" lon="-58.094677">
        <time>2021-05-01T18:42:37Z</time>
      </trkpt>
      <trkpt lat="-34.935715" lon="-58.09463">
        <time>2021-05-01T18:42:38Z</time>
      </trkpt>
      <trkpt lat="-34.935677" lon="-58.094585">
        <time>2021-05-01T18:42:39Z</time>
      </trkpt>
      <trkpt lat="-34.935642" lon="-58.094536">
        <time>2021-05-01T18:42:40Z</time>
      </trkpt>
      <trkpt lat="-34.935608" lon="-58.094494">
        <time>2021-05-01T18:42:41Z</time>
      </trkpt>
      <trkpt lat="-34.93557" lon="-58.09446">
        <time>2021-05-01T18:42:42Z</time>
      </trkpt>
      <trkpt lat="-34.935528" lon="-58.094425">
        <time>2021-05-01T18:42:43Z</time>
      </trkpt>
      <trkpt lat="-34.935493" lon="-58.094368">
        <time>2021-05-01T18:42:44Z</time>
      </trkpt>
      <trkpt lat="-34.93545" lon="-58.09432">
        <time>2021-05-01T18:42:45Z</time>
      </trkpt>
      <trkpt lat="-34.935406" lon="-58.09427">
        <time>2021-05-01T18:42:46Z</time>
      </trkpt>
      <trkpt lat="-34.935364" lon="-58.094215">
        <time>2021-05-01T18:42:47Z</time>
      </trkpt>
      <trkpt lat="-34.935318" lon="-58.094166">
        <time>2021-05-01T18:42:48Z</time>
      </trkpt>
      <trkpt lat="-34.935276" lon="-58.094116">
        <time>2021-05-01T18:42:49Z</time>
      </trkpt>
      <trkpt lat="-34.935234" lon="-58.09407">
        <time>2021-05-01T18:42:50Z</time>
      </trkpt>
      <trkpt lat="-34.93519" lon="-58.094017">
        <time>2021-05-01T18:42:51Z</time>
      </trkpt>
      <trkpt lat="-34.935146" lon="-58.093964">
        <time>2021-05-01T18:42:52Z</time>
      </trkpt>
      <trkpt lat="-34.9351" lon="-58.093914">
        <time>2021-05-01T18:42:53Z</time>
      </trkpt>
      <trkpt lat="-34.935055" lon="-58.09386">
        <time>2021-05-01T18:42:54Z</time>
      </trkpt>
      <trkpt lat="-34.935013" lon="-58.093807">
        <time>2021-05-01T18:42:55Z</time>
      </trkpt>
      <trkpt lat="-34.934963" lon="-58.093758">
        <time>2021-05-01T18:42:56Z</time>
      </trkpt>
      <trkpt lat="-34.934917" lon="-58.093704">
        <time>2021-05-01T18:42:57Z</time>
      </trkpt>
      <trkpt lat="-34.93487" lon="-58.09365">
        <time>2021-05-01T18:42:58Z</time>
      </trkpt>
      <trkpt lat="-34.934826" lon="-58.093594">
        <time>2021-05-01T18:42:59Z</time>
      </trkpt>
      <trkpt lat="-34.934784" lon="-58.09354">
        <time>2021-05-01T18:43:00Z</time>
      </trkpt>
      <trkpt lat="-34.93474" lon="-58.093483">
        <time>2021-05-01T18:43:01Z</time>
      </trkpt>
      <trkpt lat="-34.934692" lon="-58.09343">
        <time>2021-05-01T18:43:02Z</time>
      </trkpt>
      <trkpt lat="-34.934647" lon="-58.093372">
        <time>2021-05-01T18:43:03Z</time>
      </trkpt>
      <trkpt lat="-34.9346" lon="-58.09332">
        <time>2021-05-01T18:43:04Z</time>
      </trkpt>
      <trkpt lat="-34.93455" lon="-58.093266">
        <time>2021-05-01T18:43:05Z</time>
      </trkpt>
      <trkpt lat="-34.93451" lon="-58.093216">
        <time>2021-05-01T18:43:06Z</time>
      </trkpt>
      <trkpt lat="-34.934467" lon="-58.093163">
        <time>2021-05-01T18:43:07Z</time>
      </trkpt>
      <trkpt lat="-34.93442" lon="-58.09311">
        <time>2021-05-01T18:43:08Z</time>
      </trkpt>
      <trkpt lat="-34.934376" lon="-58.093056">
        <time>2021-05-01T18:43:09Z</time>
      </trkpt>
      <trkpt lat="-34.93433" lon="-58.093002">
        <time>2021-05-01T18:43:10Z</time>
      </trkpt>
      <trkpt lat="-34.934288" lon="-58.09295">
        <time>2021-05-01T18:43:11Z</time>
      </trkpt>
      <trkpt lat="-34.934242" lon="-58.092896">
        <time>2021-05-01T18:43:12Z</time>
      </trkpt>
      <trkpt lat="-34.934196" lon="-58.092842">
        <time>2021-05-01T18:43:13Z</time>
      </trkpt>
      <trkpt lat="-34.934155" lon="-58.092793">
        <time>2021-05-01T18:43:14Z</time>
      </trkpt>
      <trkpt lat="-34.934113" lon="-58.092743">
        <time>2021-05-01T18:43:15Z</time>
      </trkpt>
      <trkpt lat="-34.934074" lon="-58.092697">
        <time>2021-05-01T18:43:16Z</time>
      </trkpt>
      <trkpt lat="-34.93403" lon="-58.092648">
        <time>2021-05-01T18:43:17Z</time>
      </trkpt>
      <trkpt lat="-34.933987" lon="-58.092598">
        <time>2021-05-01T18:43:18Z</time>
      </trkpt>
      <trkpt lat="-34.93394" lon="-58.09255">
        <time>2021-05-01T18:43:19Z</time>
      </trkpt>
      <trkpt lat="-34.933895" lon="-58.092503">
        <time>2021-05-01T18:43:20Z</time>
      </trkpt>
      <trkpt lat="-34.93385" lon="-58.092453">
        <time>2021-05-01T18:43:21Z</time>
      </trkpt>
      <trkpt lat="-34.933807" lon="-58.092403">
        <time>2021-05-01T18:43:22Z</time>
      </trkpt>
      <trkpt lat="-34.933765" lon="-58.092354">
        <time>2021-05-01T18:43:23Z</time>
      </trkpt>
      <trkpt lat="-34.933723" lon="-58.092304">
        <time>2021-05-01T18:43:24Z</time>
      </trkpt>
      <trkpt lat="-34.93368" lon="-58.092255">
        <time>2021-05-01T18:43:25Z</time>
      </trkpt>
      <trkpt lat="-34.933636" lon="-58.09221">
        <time>2021-05-01T18:43:26Z</time>
      </trkpt>
      <trkpt lat="-34.93359" lon="-58.092163">
        <time>2021-05-01T18:43:27Z</time>
      </trkpt>
      <trkpt lat="-34.933544" lon="-58.09211">
        <time>2021-05-01T18:43:28Z</time>
      </trkpt>
      <trkpt lat="-34.933502" lon="-58.092056">
        <time>2021-05-01T18:43:29Z</time>
      </trkpt>
      <trkpt lat="-34.93346" lon="-58.09201">
        <time>2021-05-01T18:43:30Z</time>
      </trkpt>
      <trkpt lat="-34.93342" lon="-58.09196">
        <time>2021-05-01T18:43:31Z</time>
      </trkpt>
      <trkpt lat="-34.933376" lon="-58.091915">
        <time>2021-05-01T18:43:32Z</time>
      </trkpt>
      <trkpt lat="-34.93334" lon="-58.091866">
        <time>2021-05-01T18:43:33Z</time>
      </trkpt>
      <trkpt lat="-34.9333" lon="-58.091816">
        <time>2021-05-01T18:43:34Z</time>
      </trkpt>
      <trkpt lat="-34.93326" lon="-58.09177">
        <time>2021-05-01T18:43:35Z</time>
      </trkpt>
      <trkpt lat="-34.93322" lon="-58.091724">
        <time>2021-05-01T18:43:36Z</time>
      </trkpt>
      <trkpt lat="-34.93318" lon="-58.091675">
        <time>2021-05-01T18:43:37Z</time>
      </trkpt>
      <trkpt lat="-34.933144" lon="-58.09163">
        <time>2021-05-01T18:43:38Z</time>
      </trkpt>
      <trkpt lat="-34.93311" lon="-58.091583">
        <time>2021-05-01T18:43:39Z</time>
      </trkpt>
      <trkpt lat="-34.933075" lon="-58.09154">
        <time>2021-05-01T18:43:40Z</time>
      </trkpt>
      <trkpt lat="-34.93304" lon="-58.091496">
        <time>2021-05-01T18:43:41Z</time>
      </trkpt>
      <trkpt lat="-34.933" lon="-58.09145">
        <time>2021-05-01T18:43:42Z</time>
      </trkpt>
      <trkpt lat="-34.93296" lon="-58.091404">
        <time>2021-05-01T18:43:43Z</time>
      </trkpt>
      <trkpt lat="-34.93292" lon="-58.09136">
        <time>2021-05-01T18:43:44Z</time>
      </trkpt>
      <trkpt lat="-34.93288" lon="-58.09131">
        <time>2021-05-01T18:43:45Z</time>
      </trkpt>
      <trkpt lat="-34.93284" lon="-58.091263">
        <time>2021-05-01T18:43:46Z</time>
      </trkpt>
      <trkpt lat="-34.932796" lon="-58.091213">
        <time>2021-05-01T18:43:47Z</time>
      </trkpt>
      <trkpt lat="-34.932755" lon="-58.09116">
        <time>2021-05-01T18:43:48Z</time>
      </trkpt>
      <trkpt lat="-34.93271" lon="-58.09111">
        <time>2021-05-01T18:43:49Z</time>
      </trkpt>
      <trkpt lat="-34.932663" lon="-58.09106">
        <time>2021-05-01T18:43:50Z</time>
      </trkpt>
      <trkpt lat="-34.932617" lon="-58.09101">
        <time>2021-05-01T18:43:51Z</time>
      </trkpt>
      <trkpt lat="-34.93257" lon="-58.09096">
        <time>2021-05-01T18:43:52Z</time>
      </trkpt>
      <trkpt lat="-34.932526" lon="-58.090908">
        <time>2021-05-01T18:43:53Z</time>
      </trkpt>
      <trkpt lat="-34.93248" lon="-58.090855">
        <time>2021-05-01T18:43:54Z</time>
      </trkpt>
      <trkpt lat="-34.932434" lon="-58.0908">
        <time>2021-05-01T18:43:55Z</time>
      </trkpt>
      <trkpt lat="-34.93239" lon="-58.090748">
        <time>2021-05-01T18:43:56Z</time>
      </trkpt>
      <trkpt lat="-34.932343" lon="-58.090694">
        <time>2021-05-01T18:43:57Z</time>
      </trkpt>
      <trkpt lat="-34.932297" lon="-58.09064">
        <time>2021-05-01T18:43:58Z</time>
      </trkpt>
      <trkpt lat="-34.93225" lon="-58.090588">
        <time>2021-05-01T18:43:59Z</time>
      </trkpt>
      <trkpt lat="-34.93221" lon="-58.090538">
        <time>2021-05-01T18:44:00Z</time>
      </trkpt>
      <trkpt lat="-34.93216" lon="-58.090485">
        <time>2021-05-01T18:44:01Z</time>
      </trkpt>
      <trkpt lat="-34.932114" lon="-58.09043">
        <time>2021-05-01T18:44:02Z</time>
      </trkpt>
      <trkpt lat="-34.932068" lon="-58.090374">
        <time>2021-05-01T18:44:03Z</time>
      </trkpt>
      <trkpt lat="-34.93202" lon="-58.090324">
        <time>2021-05-01T18:44:04Z</time>
      </trkpt>
      <trkpt lat="-34.931973" lon="-58.09027">
        <time>2021-05-01T18:44:05Z</time>
      </trkpt>
      <trkpt lat="-34.931927" lon="-58.090218">
        <time>2021-05-01T18:44:06Z</time>
      </trkpt>
      <trkpt lat="-34.931877" lon="-58.090164">
        <time>2021-05-01T18:44:07Z</time>
      </trkpt>
      <trkpt lat="-34.93183" lon="-58.090107">
        <time>2021-05-01T18:44:08Z</time>
      </trkpt>
      <trkpt lat="-34.93178" lon="-58.09005">
        <time>2021-05-01T18:44:09Z</time>
      </trkpt>
      <trkpt lat="-34.931736" lon="-58.089996">
        <time>2021-05-01T18:44:10Z</time>
      </trkpt>
      <trkpt lat="-34.93169" lon="-58.089943">
        <time>2021-05-01T18:44:11Z</time>
      </trkpt>
      <trkpt lat="-34.931644" lon="-58.08989">
        <time>2021-05-01T18:44:12Z</time>
      </trkpt>
      <trkpt lat="-34.931595" lon="-58.089836">
        <time>2021-05-01T18:44:13Z</time>
      </trkpt>
      <trkpt lat="-34.931553" lon="-58.089783">
        <time>2021-05-01T18:44:14Z</time>
      </trkpt>
      <trkpt lat="-34.93151" lon="-58.08973">
        <time>2021-05-01T18:44:15Z</time>
      </trkpt>
      <trkpt lat="-34.931465" lon="-58.08968">
        <time>2021-05-01T18:44:16Z</time>
      </trkpt>
      <trkpt lat="-34.93142" lon="-58.08963">
        <time>2021-05-01T18:44:17Z</time>
      </trkpt>
      <trkpt lat="-34.93137" lon="-58.08958">
        <time>2021-05-01T18:44:18Z</time>
      </trkpt>
      <trkpt lat="-34.931324" lon="-58.08953">
        <time>2021-05-01T18:44:19Z</time>
      </trkpt>
      <trkpt lat="-34.93128" lon="-58.089478">
        <time>2021-05-01T18:44:20Z</time>
      </trkpt>
      <trkpt lat="-34.931232" lon="-58.089424">
        <time>2021-05-01T18:44:21Z</time>
      </trkpt>
      <trkpt lat="-34.931183" lon="-58.089375">
        <time>2021-05-01T18:44:22Z</time>
      </trkpt>
      <trkpt lat="-34.93114" lon="-58.089325">
        <time>2021-05-01T18:44:23Z</time>
      </trkpt>
      <trkpt lat="-34.93109" lon="-58.089275">
        <time>2021-05-01T18:44:24Z</time>
      </trkpt>
      <trkpt lat="-34.931046" lon="-58.089226">
        <time>2021-05-01T18:44:25Z</time>
      </trkpt>
      <trkpt lat="-34.931" lon="-58.089176">
        <time>2021-05-01T18:44:26Z</time>
      </trkpt>
      <trkpt lat="-34.930958" lon="-58.089123">
        <time>2021-05-01T18:44:27Z</time>
      </trkpt>
      <trkpt lat="-34.930912" lon="-58.08907">
        <time>2021-05-01T18:44:28Z</time>
      </trkpt>
      <trkpt lat="-34.93087" lon="-58.089016">
        <time>2021-05-01T18:44:29Z</time>
      </trkpt>
      <trkpt lat="-34.930824" lon="-58.088963">
        <time>2021-05-01T18:44:30Z</time>
      </trkpt>
      <trkpt lat="-34.930782" lon="-58.088913">
        <time>2021-05-01T18:44:31Z</time>
      </trkpt>
      <trkpt lat="-34.930737" lon="-58.08886">
        <time>2021-05-01T18:44:32Z</time>
      </trkpt>
      <trkpt lat="-34.930695" lon="-58.08881">
        <time>2021-05-01T18:44:33Z</time>
      </trkpt>
      <trkpt lat="-34.93065" lon="-58.088757">
        <time>2021-05-01T18:44:34Z</time>
      </trkpt>
      <trkpt lat="-34.930607" lon="-58.088707">
        <time>2021-05-01T18:44:35Z</time>
      </trkpt>
      <trkpt lat="-34.93056" lon="-58.088657">
        <time>2021-05-01T18:44:36Z</time>
      </trkpt>
      <trkpt lat="-34.93052" lon="-58.088615">
        <time>2021-05-01T18:44:37Z</time>
      </trkpt>
      <trkpt lat="-34.93048" lon="-58.08857">
        <time>2021-05-01T18:44:38Z</time>
      </trkpt>
      <trkpt lat="-34.930447" lon="-58.088524">
        <time>2021-05-01T18:44:39Z</time>
      </trkpt>
      <trkpt lat="-34.93041" lon="-58.088478">
        <time>2021-05-01T18:44:40Z</time>
      </trkpt>
      <trkpt lat="-34.930374" lon="-58.08843">
        <time>2021-05-01T18:44:41Z</time>
      </trkpt>
      <trkpt lat="-34.930332" lon="-58.088383">
        <time>2021-05-01T18:44:42Z</time>
      </trkpt>
      <trkpt lat="-34.930294" lon="-58.088333">
        <time>2021-05-01T18:44:43Z</time>
      </trkpt>
      <trkpt lat="-34.930256" lon="-58.088284">
        <time>2021-05-01T18:44:44Z</time>
      </trkpt>
      <trkpt lat="-34.930214" lon="-58.088234">
        <time>2021-05-01T18:44:45Z</time>
      </trkpt>
      <trkpt lat="-34.930176" lon="-58.088192">
        <time>2021-05-01T18:44:46Z</time>
      </trkpt>
      <trkpt lat="-34.930138" lon="-58.08815">
        <time>2021-05-01T18:44:47Z</time>
      </trkpt>
      <trkpt lat="-34.9301" lon="-58.088104">
        <time>2021-05-01T18:44:48Z</time>
      </trkpt>
      <trkpt lat="-34.93006" lon="-58.08806">
        <time>2021-05-01T18:44:49Z</time>
      </trkpt>
      <trkpt lat="-34.930023" lon="-58.088013">
        <time>2021-05-01T18:44:50Z</time>
      </trkpt>
      <trkpt lat="-34.929985" lon="-58.087967">
        <time>2021-05-01T18:44:51Z</time>
      </trkpt>
      <trkpt lat="-34.929947" lon="-58.08792">
        <time>2021-05-01T18:44:52Z</time>
      </trkpt>
      <trkpt lat="-34.929913" lon="-58.08788">
        <time>2021-05-01T18:44:53Z</time>
      </trkpt>
      <trkpt lat="-34.929874" lon="-58.087837">
        <time>2021-05-01T18:44:54Z</time>
      </trkpt>
      <trkpt lat="-34.92984" lon="-58.087795">
        <time>2021-05-01T18:44:55Z</time>
      </trkpt>
      <trkpt lat="-34.929806" lon="-58.087753">
        <time>2021-05-01T18:44:56Z</time>
      </trkpt>
      <trkpt lat="-34.929768" lon="-58.087708">
        <time>2021-05-01T18:44:57Z</time>
      </trkpt>
      <trkpt lat="-34.929733" lon="-58.08766">
        <time>2021-05-01T18:44:58Z</time>
      </trkpt>
      <trkpt lat="-34.92969" lon="-58.08762">
        <time>2021-05-01T18:44:59Z</time>
      </trkpt>
      <trkpt lat="-34.929653" lon="-58.087574">
        <time>2021-05-01T18:45:00Z</time>
      </trkpt>
      <trkpt lat="-34.929615" lon="-58.08752">
        <time>2021-05-01T18:45:01Z</time>
      </trkpt>
      <trkpt lat="-34.929577" lon="-58.087475">
        <time>2021-05-01T18:45:02Z</time>
      </trkpt>
      <trkpt lat="-34.929535" lon="-58.08743">
        <time>2021-05-01T18:45:03Z</time>
      </trkpt>
      <trkpt lat="-34.929497" lon="-58.08738">
        <time>2021-05-01T18:45:04Z</time>
      </trkpt>
      <trkpt lat="-34.929455" lon="-58.087334">
        <time>2021-05-01T18:45:05Z</time>
      </trkpt>
      <trkpt lat="-34.929417" lon="-58.087284">
        <time>2021-05-01T18:45:06Z</time>
      </trkpt>
      <trkpt lat="-34.929375" lon="-58.08724">
        <time>2021-05-01T18:45:07Z</time>
      </trkpt>
      <trkpt lat="-34.929333" lon="-58.08719">
        <time>2021-05-01T18:45:08Z</time>
      </trkpt>
      <trkpt lat="-34.92929" lon="-58.087143">
        <time>2021-05-01T18:45:09Z</time>
      </trkpt>
      <trkpt lat="-34.92925" lon="-58.087097">
        <time>2021-05-01T18:45:10Z</time>
      </trkpt>
      <trkpt lat="-34.929207" lon="-58.087048">
        <time>2021-05-01T18:45:11Z</time>
      </trkpt>
      <trkpt lat="-34.92917" lon="-58.086998">
        <time>2021-05-01T18:45:12Z</time>
      </trkpt>
      <trkpt lat="-34.929127" lon="-58.086952">
        <time>2021-05-01T18:45:13Z</time>
      </trkpt>
      <trkpt lat="-34.929085" lon="-58.086903">
        <time>2021-05-01T18:45:14Z</time>
      </trkpt>
      <trkpt lat="-34.929043" lon="-58.086857">
        <time>2021-05-01T18:45:15Z</time>
      </trkpt>
      <trkpt lat="-34.929005" lon="-58.08681">
        <time>2021-05-01T18:45:16Z</time>
      </trkpt>
      <trkpt lat="-34.928967" lon="-58.08677">
        <time>2021-05-01T18:45:17Z</time>
      </trkpt>
      <trkpt lat="-34.92893" lon="-58.086723">
        <time>2021-05-01T18:45:18Z</time>
      </trkpt>
      <trkpt lat="-34.92889" lon="-58.086678">
        <time>2021-05-01T18:45:19Z</time>
      </trkpt>
      <trkpt lat="-34.928852" lon="-58.08663">
        <time>2021-05-01T18:45:20Z</time>
      </trkpt>
      <trkpt lat="-34.928814" lon="-58.086582">
        <time>2021-05-01T18:45:21Z</time>
      </trkpt>
      <trkpt lat="-34.928772" lon="-58.086533">
        <time>2021-05-01T18:45:22Z</time>
      </trkpt>
      <trkpt lat="-34.928734" lon="-58.08648">
        <time>2021-05-01T18:45:23Z</time>
      </trkpt>
      <trkpt lat="-34.928696" lon="-58.086433">
        <time>2021-05-01T18:45:24Z</time>
      </trkpt>
      <trkpt lat="-34.928654" lon="-58.086384">
        <time>2021-05-01T18:45:25Z</time>
      </trkpt>
      <trkpt lat="-34.928616" lon="-58.086334">
        <time>2021-05-01T18:45:26Z</time>
      </trkpt>
      <trkpt lat="-34.928577" lon="-58.08629">
        <time>2021-05-01T18:45:27Z</time>
      </trkpt>
      <trkpt lat="-34.92854" lon="-58.086243">
        <time>2021-05-01T18:45:28Z</time>
      </trkpt>
      <trkpt lat="-34.9285" lon="-58.086197">
        <time>2021-05-01T18:45:29Z</time>
      </trkpt>
      <trkpt lat="-34.928463" lon="-58.086155">
        <time>2021-05-01T18:45:30Z</time>
      </trkpt>
      <trkpt lat="-34.928425" lon="-58.086113">
        <time>2021-05-01T18:45:31Z</time>
      </trkpt>
      <trkpt lat="-34.92839" lon="-58.086075">
        <time>2021-05-01T18:45:32Z</time>
      </trkpt>
      <trkpt lat="-34.928352" lon="-58.086033">
        <time>2021-05-01T18:45:33Z</time>
      </trkpt>
      <trkpt lat="-34.928318" lon="-58.08599">
        <time>2021-05-01T18:45:34Z</time>
      </trkpt>
      <trkpt lat="-34.928276" lon="-58.085945">
        <time>2021-05-01T18:45:35Z</time>
      </trkpt>
      <trkpt lat="-34.928234" lon="-58.085896">
        <time>2021-05-01T18:45:36Z</time>
      </trkpt>
      <trkpt lat="-34.928192" lon="-58.08585">
        <time>2021-05-01T18:45:37Z</time>
      </trkpt>
      <trkpt lat="-34.928154" lon="-58.085804">
        <time>2021-05-01T18:45:38Z</time>
      </trkpt>
      <trkpt lat="-34.928116" lon="-58.085754">
        <time>2021-05-01T18:45:39Z</time>
      </trkpt>
      <trkpt lat="-34.928078" lon="-58.085712">
        <time>2021-05-01T18:45:40Z</time>
      </trkpt>
      <trkpt lat="-34.92804" lon="-58.085663">
        <time>2021-05-01T18:45:41Z</time>
      </trkpt>
      <trkpt lat="-34.927998" lon="-58.08561">
        <time>2021-05-01T18:45:42Z</time>
      </trkpt>
      <trkpt lat="-34.92796" lon="-58.08556">
        <time>2021-05-01T18:45:43Z</time>
      </trkpt>
      <trkpt lat="-34.927917" lon="-58.085506">
        <time>2021-05-01T18:45:44Z</time>
      </trkpt>
      <trkpt lat="-34.927876" lon="-58.08546">
        <time>2021-05-01T18:45:45Z</time>
      </trkpt>
      <trkpt lat="-34.927834" lon="-58.085415">
        <time>2021-05-01T18:45:46Z</time>
      </trkpt>
      <trkpt lat="-34.927795" lon="-58.08537">
        <time>2021-05-01T18:45:47Z</time>
      </trkpt>
      <trkpt lat="-34.927757" lon="-58.085323">
        <time>2021-05-01T18:45:48Z</time>
      </trkpt>
      <trkpt lat="-34.927715" lon="-58.085278">
        <time>2021-05-01T18:45:49Z</time>
      </trkpt>
      <trkpt lat="-34.927677" lon="-58.085228">
        <time>2021-05-01T18:45:50Z</time>
      </trkpt>
      <trkpt lat="-34.927635" lon="-58.08518">
        <time>2021-05-01T18:45:51Z</time>
      </trkpt>
      <trkpt lat="-34.927593" lon="-58.085133">
        <time>2021-05-01T18:45:52Z</time>
      </trkpt>
      <trkpt lat="-34.92755" lon="-58.08508">
        <time>2021-05-01T18:45:53Z</time>
      </trkpt>
      <trkpt lat="-34.92751" lon="-58.08503">
        <time>2021-05-01T18:45:54Z</time>
      </trkpt>
      <trkpt lat="-34.92747" lon="-58.08498">
        <time>2021-05-01T18:45:55Z</time>
      </trkpt>
      <trkpt lat="-34.92743" lon="-58.084934">
        <time>2021-05-01T18:45:56Z</time>
      </trkpt>
      <trkpt lat="-34.92739" lon="-58.08489">
        <time>2021-05-01T18:45:57Z</time>
      </trkpt>
      <trkpt lat="-34.927353" lon="-58.084843">
        <time>2021-05-01T18:45:58Z</time>
      </trkpt>
      <trkpt lat="-34.92731" lon="-58.084793">
        <time>2021-05-01T18:45:59Z</time>
      </trkpt>
      <trkpt lat="-34.927273" lon="-58.084747">
        <time>2021-05-01T18:46:00Z</time>
      </trkpt>
      <trkpt lat="-34.92723" lon="-58.0847">
        <time>2021-05-01T18:46:01Z</time>
      </trkpt>
      <trkpt lat="-34.927193" lon="-58.084652">
        <time>2021-05-01T18:46:02Z</time>
      </trkpt>
      <trkpt lat="-34.92715" lon="-58.084606">
        <time>2021-05-01T18:46:03Z</time>
      </trkpt>
      <trkpt lat="-34.927113" lon="-58.08456">
        <time>2021-05-01T18:46:04Z</time>
      </trkpt>
      <trkpt lat="-34.92707" lon="-58.08451">
        <time>2021-05-01T18:46:05Z</time>
      </trkpt>
      <trkpt lat="-34.927032" lon="-58.084457">
        <time>2021-05-01T18:46:06Z</time>
      </trkpt>
      <trkpt lat="-34.926994" lon="-58.084408">
        <time>2021-05-01T18:46:07Z</time>
      </trkpt>
      <trkpt lat="-34.92696" lon="-58.08436">
        <time>2021-05-01T18:46:08Z</time>
      </trkpt>
      <trkpt lat="-34.926926" lon="-58.08431">
        <time>2021-05-01T18:46:09Z</time>
      </trkpt>
      <trkpt lat="-34.926872" lon="-58.084267">
        <time>2021-05-01T18:46:10Z</time>
      </trkpt>
      <trkpt lat="-34.926826" lon="-58.084225">
        <time>2021-05-01T18:46:11Z</time>
      </trkpt>
      <trkpt lat="-34.926792" lon="-58.084187">
        <time>2021-05-01T18:46:12Z</time>
      </trkpt>
      <trkpt lat="-34.926754" lon="-58.084145">
        <time>2021-05-01T18:46:13Z</time>
      </trkpt>
      <trkpt lat="-34.926716" lon="-58.0841">
        <time>2021-05-01T18:46:14Z</time>
      </trkpt>
      <trkpt lat="-34.92668" lon="-58.08405">
        <time>2021-05-01T18:46:15Z</time>
      </trkpt>
      <trkpt lat="-34.926647" lon="-58.084007">
        <time>2021-05-01T18:46:16Z</time>
      </trkpt>
      <trkpt lat="-34.92661" lon="-58.083965">
        <time>2021-05-01T18:46:17Z</time>
      </trkpt>
      <trkpt lat="-34.92657" lon="-58.083923">
        <time>2021-05-01T18:46:18Z</time>
      </trkpt>
      <trkpt lat="-34.926533" lon="-58.083878">
        <time>2021-05-01T18:46:19Z</time>
      </trkpt>
      <trkpt lat="-34.926495" lon="-58.08383">
        <time>2021-05-01T18:46:20Z</time>
      </trkpt>
      <trkpt lat="-34.926456" lon="-58.083782">
        <time>2021-05-01T18:46:21Z</time>
      </trkpt>
      <trkpt lat="-34.92642" lon="-58.083736">
        <time>2021-05-01T18:46:22Z</time>
      </trkpt>
      <trkpt lat="-34.926384" lon="-58.08369">
        <time>2021-05-01T18:46:23Z</time>
      </trkpt>
      <trkpt lat="-34.92635" lon="-58.08365">
        <time>2021-05-01T18:46:24Z</time>
      </trkpt>
      <trkpt lat="-34.926315" lon="-58.08361">
        <time>2021-05-01T18:46:25Z</time>
      </trkpt>
      <trkpt lat="-34.926273" lon="-58.08357">
        <time>2021-05-01T18:46:26Z</time>
      </trkpt>
      <trkpt lat="-34.92624" lon="-58.083527">
        <time>2021-05-01T18:46:27Z</time>
      </trkpt>
      <trkpt lat="-34.926197" lon="-58.083485">
        <time>2021-05-01T18:46:28Z</time>
      </trkpt>
      <trkpt lat="-34.92616" lon="-58.08344">
        <time>2021-05-01T18:46:29Z</time>
      </trkpt>
      <trkpt lat="-34.926117" lon="-58.083397">
        <time>2021-05-01T18:46:30Z</time>
      </trkpt>
      <trkpt lat="-34.92608" lon="-58.083355">
        <time>2021-05-01T18:46:31Z</time>
      </trkpt>
      <trkpt lat="-34.92604" lon="-58.08331">
        <time>2021-05-01T18:46:32Z</time>
      </trkpt>
      <trkpt lat="-34.926003" lon="-58.083267">
        <time>2021-05-01T18:46:33Z</time>
      </trkpt>
      <trkpt lat="-34.92597" lon="-58.083225">
        <time>2021-05-01T18:46:34Z</time>
      </trkpt>
      <trkpt lat="-34.925934" lon="-58.083187">
        <time>2021-05-01T18:46:35Z</time>
      </trkpt>
      <trkpt lat="-34.9259" lon="-58.08315">
        <time>2021-05-01T18:46:36Z</time>
      </trkpt>
      <trkpt lat="-34.92586" lon="-58.08311">
        <time>2021-05-01T18:46:37Z</time>
      </trkpt>
      <trkpt lat="-34.925827" lon="-58.08307">
        <time>2021-05-01T18:46:38Z</time>
      </trkpt>
      <trkpt lat="-34.92579" lon="-58.083027">
        <time>2021-05-01T18:46:39Z</time>
      </trkpt>
      <trkpt lat="-34.92575" lon="-58.08298">
        <time>2021-05-01T18:46:40Z</time>
      </trkpt>
      <trkpt lat="-34.925713" lon="-58.08294">
        <time>2021-05-01T18:46:41Z</time>
      </trkpt>
      <trkpt lat="-34.925682" lon="-58.082893">
        <time>2021-05-01T18:46:42Z</time>
      </trkpt>
      <trkpt lat="-34.925644" lon="-58.08285">
        <time>2021-05-01T18:46:43Z</time>
      </trkpt>
      <trkpt lat="-34.92561" lon="-58.082806">
        <time>2021-05-01T18:46:44Z</time>
      </trkpt>
      <trkpt lat="-34.925575" lon="-58.08276">
        <time>2021-05-01T18:46:45Z</time>
      </trkpt>
      <trkpt lat="-34.92554" lon="-58.08271">
        <time>2021-05-01T18:46:46Z</time>
      </trkpt>
      <trkpt lat="-34.925503" lon="-58.082664">
        <time>2021-05-01T18:46:47Z</time>
      </trkpt>
      <trkpt lat="-34.92547" lon="-58.082623">
        <time>2021-05-01T18:46:48Z</time>
      </trkpt>
      <trkpt lat="-34.925438" lon="-58.08258">
        <time>2021-05-01T18:46:49Z</time>
      </trkpt>
      <trkpt lat="-34.925407" lon="-58.08254">
        <time>2021-05-01T18:46:50Z</time>
      </trkpt>
      <trkpt lat="-34.925373" lon="-58.082497">
        <time>2021-05-01T18:46:51Z</time>
      </trkpt>
      <trkpt lat="-34.92534" lon="-58.082455">
        <time>2021-05-01T18:46:52Z</time>
      </trkpt>
      <trkpt lat="-34.925304" lon="-58.082413">
        <time>2021-05-01T18:46:53Z</time>
      </trkpt>
      <trkpt lat="-34.92527" lon="-58.08237">
        <time>2021-05-01T18:46:54Z</time>
      </trkpt>
      <trkpt lat="-34.925232" lon="-58.08233">
        <time>2021-05-01T18:46:55Z</time>
      </trkpt>
      <trkpt lat="-34.925198" lon="-58.082283">
        <time>2021-05-01T18:46:56Z</time>
      </trkpt>
      <trkpt lat="-34.92516" lon="-58.08224">
        <time>2021-05-01T18:46:57Z</time>
      </trkpt>
      <trkpt lat="-34.925117" lon="-58.0822">
        <time>2021-05-01T18:46:58Z</time>
      </trkpt>
      <trkpt lat="-34.92508" lon="-58.082153">
        <time>2021-05-01T18:46:59Z</time>
      </trkpt>
      <trkpt lat="-34.92504" lon="-58.082108">
        <time>2021-05-01T18:47:00Z</time>
      </trkpt>
      <trkpt lat="-34.925" lon="-58.08206">
        <time>2021-05-01T18:47:01Z</time>
      </trkpt>
      <trkpt lat="-34.92496" lon="-58.08202">
        <time>2021-05-01T18:47:02Z</time>
      </trkpt>
      <trkpt lat="-34.924923" lon="-58.081974">
        <time>2021-05-01T18:47:03Z</time>
      </trkpt>
      <trkpt lat="-34.924885" lon="-58.08193">
        <time>2021-05-01T18:47:04Z</time>
      </trkpt>
      <trkpt lat="-34.924843" lon="-58.081882">
        <time>2021-05-01T18:47:05Z</time>
      </trkpt>
      <trkpt lat="-34.924805" lon="-58.081833">
        <time>2021-05-01T18:47:06Z</time>
      </trkpt>
      <trkpt lat="-34.924763" lon="-58.081787">
        <time>2021-05-01T18:47:07Z</time>
      </trkpt>
      <trkpt lat="-34.92473" lon="-58.08174">
        <time>2021-05-01T18:47:08Z</time>
      </trkpt>
      <trkpt lat="-34.924694" lon="-58.081696">
        <time>2021-05-01T18:47:09Z</time>
      </trkpt>
      <trkpt lat="-34.924656" lon="-58.081642">
        <time>2021-05-01T18:47:10Z</time>
      </trkpt>
      <trkpt lat="-34.924614" lon="-58.081593">
        <time>2021-05-01T18:47:11Z</time>
      </trkpt>
      <trkpt lat="-34.924576" lon="-58.081547">
        <time>2021-05-01T18:47:12Z</time>
      </trkpt>
      <trkpt lat="-34.924534" lon="-58.0815">
        <time>2021-05-01T18:47:13Z</time>
      </trkpt>
      <trkpt lat="-34.92449" lon="-58.081448">
        <time>2021-05-01T18:47:14Z</time>
      </trkpt>
      <trkpt lat="-34.924446" lon="-58.0814">
        <time>2021-05-01T18:47:15Z</time>
      </trkpt>
      <trkpt lat="-34.924408" lon="-58.081352">
        <time>2021-05-01T18:47:16Z</time>
      </trkpt>
      <trkpt lat="-34.924366" lon="-58.081303">
        <time>2021-05-01T18:47:17Z</time>
      </trkpt>
      <trkpt lat="-34.924324" lon="-58.081257">
        <time>2021-05-01T18:47:18Z</time>
      </trkpt>
      <trkpt lat="-34.924286" lon="-58.08121">
        <time>2021-05-01T18:47:19Z</time>
      </trkpt>
      <trkpt lat="-34.924248" lon="-58.081165">
        <time>2021-05-01T18:47:20Z</time>
      </trkpt>
      <trkpt lat="-34.92421" lon="-58.081116">
        <time>2021-05-01T18:47:21Z</time>
      </trkpt>
      <trkpt lat="-34.92417" lon="-58.08107">
        <time>2021-05-01T18:47:22Z</time>
      </trkpt>
      <trkpt lat="-34.924126" lon="-58.081028">
        <time>2021-05-01T18:47:23Z</time>
      </trkpt>
      <trkpt lat="-34.924088" lon="-58.080986">
        <time>2021-05-01T18:47:24Z</time>
      </trkpt>
      <trkpt lat="-34.924053" lon="-58.08094">
        <time>2021-05-01T18:47:25Z</time>
      </trkpt>
      <trkpt lat="-34.924015" lon="-58.0809">
        <time>2021-05-01T18:47:26Z</time>
      </trkpt>
      <trkpt lat="-34.92398" lon="-58.080856">
        <time>2021-05-01T18:47:27Z</time>
      </trkpt>
      <trkpt lat="-34.923943" lon="-58.080814">
        <time>2021-05-01T18:47:28Z</time>
      </trkpt>
      <trkpt lat="-34.9239" lon="-58.080765">
        <time>2021-05-01T18:47:29Z</time>
      </trkpt>
      <trkpt lat="-34.92386" lon="-58.08072">
        <time>2021-05-01T18:47:30Z</time>
      </trkpt>
      <trkpt lat="-34.923824" lon="-58.080673">
        <time>2021-05-01T18:47:31Z</time>
      </trkpt>
      <trkpt lat="-34.923786" lon="-58.080624">
        <time>2021-05-01T18:47:32Z</time>
      </trkpt>
      <trkpt lat="-34.92375" lon="-58.080578">
        <time>2021-05-01T18:47:33Z</time>
      </trkpt>
      <trkpt lat="-34.923717" lon="-58.080536">
        <time>2021-05-01T18:47:34Z</time>
      </trkpt>
      <trkpt lat="-34.923683" lon="-58.080494">
        <time>2021-05-01T18:47:35Z</time>
      </trkpt>
      <trkpt lat="-34.92364" lon="-58.08045">
        <time>2021-05-01T18:47:36Z</time>
      </trkpt>
      <trkpt lat="-34.923595" lon="-58.080402">
        <time>2021-05-01T18:47:37Z</time>
      </trkpt>
      <trkpt lat="-34.92355" lon="-58.08036">
        <time>2021-05-01T18:47:38Z</time>
      </trkpt>
      <trkpt lat="-34.923504" lon="-58.080326">
        <time>2021-05-01T18:47:39Z</time>
      </trkpt>
      <trkpt lat="-34.923462" lon="-58.080296">
        <time>2021-05-01T18:47:40Z</time>
      </trkpt>
      <trkpt lat="-34.923424" lon="-58.080265">
        <time>2021-05-01T18:47:41Z</time>
      </trkpt>
      <trkpt lat="-34.923344" lon="-58.08021">
        <time>2021-05-01T18:47:43Z</time>
      </trkpt>
      <trkpt lat="-34.923286" lon="-58.080196">
        <time>2021-05-01T18:47:44Z</time>
      </trkpt>
      <trkpt lat="-34.923233" lon="-58.080177">
        <time>2021-05-01T18:47:45Z</time>
      </trkpt>
      <trkpt lat="-34.92318" lon="-58.080154">
        <time>2021-05-01T18:47:46Z</time>
      </trkpt>
      <trkpt lat="-34.923126" lon="-58.08013">
        <time>2021-05-01T18:47:47Z</time>
      </trkpt>
      <trkpt lat="-34.923073" lon="-58.08011">
        <time>2021-05-01T18:47:48Z</time>
      </trkpt>
      <trkpt lat="-34.923023" lon="-58.080082">
        <time>2021-05-01T18:47:49Z</time>
      </trkpt>
      <trkpt lat="-34.922974" lon="-58.08006">
        <time>2021-05-01T18:47:50Z</time>
      </trkpt>
      <trkpt lat="-34.922928" lon="-58.080036">
        <time>2021-05-01T18:47:51Z</time>
      </trkpt>
      <trkpt lat="-34.922882" lon="-58.080017">
        <time>2021-05-01T18:47:52Z</time>
      </trkpt>
      <trkpt lat="-34.92284" lon="-58.079998">
        <time>2021-05-01T18:47:53Z</time>
      </trkpt>
      <trkpt lat="-34.922794" lon="-58.07998">
        <time>2021-05-01T18:47:54Z</time>
      </trkpt>
      <trkpt lat="-34.922752" lon="-58.07996">
        <time>2021-05-01T18:47:55Z</time>
      </trkpt>
      <trkpt lat="-34.92268" lon="-58.07993">
        <time>2021-05-01T18:47:57Z</time>
      </trkpt>
      <trkpt lat="-34.922596" lon="-58.07989">
        <time>2021-05-01T18:47:59Z</time>
      </trkpt>
      <trkpt lat="-34.92255" lon="-58.07987">
        <time>2021-05-01T18:48:00Z</time>
      </trkpt>
      <trkpt lat="-34.922474" lon="-58.079823">
        <time>2021-05-01T18:48:02Z</time>
      </trkpt>
      <trkpt lat="-34.9224" lon="-58.079792">
        <time>2021-05-01T18:48:04Z</time>
      </trkpt>
      <trkpt lat="-34.92234" lon="-58.079765">
        <time>2021-05-01T18:48:06Z</time>
      </trkpt>
      <trkpt lat="-34.922306" lon="-58.079742">
        <time>2021-05-01T18:48:26Z</time>
      </trkpt>
      <trkpt lat="-34.922306" lon="-58.079742">
        <time>2021-05-01T18:48:36Z</time>
      </trkpt>
      <trkpt lat="-34.922306" lon="-58.079742">
        <time>2021-05-01T18:48:46Z</time>
      </trkpt>
      <trkpt lat="-34.922306" lon="-58.079742">
        <time>2021-05-01T18:48:56Z</time>
      </trkpt>
      <trkpt lat="-34.922306" lon="-58.079742">
        <time>2021-05-01T18:49:06Z</time>
      </trkpt>
      <trkpt lat="-34.922314" lon="-58.079685">
        <time>2021-05-01T18:49:11Z</time>
      </trkpt>
      <trkpt lat="-34.92233" lon="-58.079678">
        <time>2021-05-01T18:49:21Z</time>
      </trkpt>
      <trkpt lat="-34.92233" lon="-58.079678">
        <time>2021-05-01T18:49:31Z</time>
      </trkpt>
      <trkpt lat="-34.92233" lon="-58.079678">
        <time>2021-05-01T18:49:41Z</time>
      </trkpt>
      <trkpt lat="-34.922314" lon="-58.07965">
        <time>2021-05-01T18:49:51Z</time>
      </trkpt>
      <trkpt lat="-34.922356" lon="-58.07958">
        <time>2021-05-01T18:49:55Z</time>
      </trkpt>
      <trkpt lat="-34.922382" lon="-58.079502">
        <time>2021-05-01T18:49:57Z</time>
      </trkpt>
      <trkpt lat="-34.922413" lon="-58.07942">
        <time>2021-05-01T18:49:59Z</time>
      </trkpt>
      <trkpt lat="-34.92244" lon="-58.07933">
        <time>2021-05-01T18:50:01Z</time>
      </trkpt>
      <trkpt lat="-34.922455" lon="-58.079247">
        <time>2021-05-01T18:50:03Z</time>
      </trkpt>
      <trkpt lat="-34.922478" lon="-58.07916">
        <time>2021-05-01T18:50:05Z</time>
      </trkpt>
      <trkpt lat="-34.922493" lon="-58.07907">
        <time>2021-05-01T18:50:07Z</time>
      </trkpt>
      <trkpt lat="-34.922512" lon="-58.07899">
        <time>2021-05-01T18:50:09Z</time>
      </trkpt>
      <trkpt lat="-34.92253" lon="-58.07891">
        <time>2021-05-01T18:50:11Z</time>
      </trkpt>
      <trkpt lat="-34.92255" lon="-58.078823">
        <time>2021-05-01T18:50:13Z</time>
      </trkpt>
      <trkpt lat="-34.92257" lon="-58.078735">
        <time>2021-05-01T18:50:15Z</time>
      </trkpt>
      <trkpt lat="-34.922592" lon="-58.078644">
        <time>2021-05-01T18:50:17Z</time>
      </trkpt>
      <trkpt lat="-34.92261" lon="-58.078552">
        <time>2021-05-01T18:50:19Z</time>
      </trkpt>
      <trkpt lat="-34.922626" lon="-58.078465">
        <time>2021-05-01T18:50:21Z</time>
      </trkpt>
      <trkpt lat="-34.92265" lon="-58.078377">
        <time>2021-05-01T18:50:23Z</time>
      </trkpt>
      <trkpt lat="-34.92267" lon="-58.07828">
        <time>2021-05-01T18:50:25Z</time>
      </trkpt>
      <trkpt lat="-34.92269" lon="-58.078186">
        <time>2021-05-01T18:50:27Z</time>
      </trkpt>
      <trkpt lat="-34.922707" lon="-58.078087">
        <time>2021-05-01T18:50:29Z</time>
      </trkpt>
      <trkpt lat="-34.922726" lon="-58.077988">
        <time>2021-05-01T18:50:31Z</time>
      </trkpt>
      <trkpt lat="-34.922756" lon="-58.07789">
        <time>2021-05-01T18:50:33Z</time>
      </trkpt>
      <trkpt lat="-34.92278" lon="-58.07779">
        <time>2021-05-01T18:50:35Z</time>
      </trkpt>
      <trkpt lat="-34.922806" lon="-58.077686">
        <time>2021-05-01T18:50:37Z</time>
      </trkpt>
      <trkpt lat="-34.922832" lon="-58.077583">
        <time>2021-05-01T18:50:39Z</time>
      </trkpt>
      <trkpt lat="-34.922855" lon="-58.077488">
        <time>2021-05-01T18:50:41Z</time>
      </trkpt>
      <trkpt lat="-34.922874" lon="-58.077408">
        <time>2021-05-01T18:50:43Z</time>
      </trkpt>
      <trkpt lat="-34.9229" lon="-58.077312">
        <time>2021-05-01T18:50:45Z</time>
      </trkpt>
      <trkpt lat="-34.922924" lon="-58.07721">
        <time>2021-05-01T18:50:47Z</time>
      </trkpt>
      <trkpt lat="-34.92294" lon="-58.077156">
        <time>2021-05-01T18:50:48Z</time>
      </trkpt>
      <trkpt lat="-34.922947" lon="-58.077103">
        <time>2021-05-01T18:50:49Z</time>
      </trkpt>
      <trkpt lat="-34.92295" lon="-58.077045">
        <time>2021-05-01T18:50:50Z</time>
      </trkpt>
      <trkpt lat="-34.92296" lon="-58.076942">
        <time>2021-05-01T18:50:52Z</time>
      </trkpt>
      <trkpt lat="-34.922977" lon="-58.07685">
        <time>2021-05-01T18:50:54Z</time>
      </trkpt>
      <trkpt lat="-34.923004" lon="-58.076767">
        <time>2021-05-01T18:50:56Z</time>
      </trkpt>
      <trkpt lat="-34.92302" lon="-58.076668">
        <time>2021-05-01T18:50:58Z</time>
      </trkpt>
      <trkpt lat="-34.923046" lon="-58.076576">
        <time>2021-05-01T18:51:00Z</time>
      </trkpt>
      <trkpt lat="-34.923077" lon="-58.076485">
        <time>2021-05-01T18:51:02Z</time>
      </trkpt>
      <trkpt lat="-34.923096" lon="-58.076378">
        <time>2021-05-01T18:51:04Z</time>
      </trkpt>
      <trkpt lat="-34.923107" lon="-58.07632">
        <time>2021-05-01T18:51:05Z</time>
      </trkpt>
      <trkpt lat="-34.92312" lon="-58.076263">
        <time>2021-05-01T18:51:06Z</time>
      </trkpt>
      <trkpt lat="-34.923134" lon="-58.076206">
        <time>2021-05-01T18:51:07Z</time>
      </trkpt>
      <trkpt lat="-34.92315" lon="-58.076145">
        <time>2021-05-01T18:51:08Z</time>
      </trkpt>
      <trkpt lat="-34.92317" lon="-58.076088">
        <time>2021-05-01T18:51:09Z</time>
      </trkpt>
      <trkpt lat="-34.923187" lon="-58.076035">
        <time>2021-05-01T18:51:10Z</time>
      </trkpt>
      <trkpt lat="-34.923206" lon="-58.07598">
        <time>2021-05-01T18:51:11Z</time>
      </trkpt>
      <trkpt lat="-34.923225" lon="-58.075924">
        <time>2021-05-01T18:51:12Z</time>
      </trkpt>
      <trkpt lat="-34.92324" lon="-58.075863">
        <time>2021-05-01T18:51:13Z</time>
      </trkpt>
      <trkpt lat="-34.92326" lon="-58.075806">
        <time>2021-05-01T18:51:14Z</time>
      </trkpt>
      <trkpt lat="-34.923283" lon="-58.075745">
        <time>2021-05-01T18:51:15Z</time>
      </trkpt>
      <trkpt lat="-34.9233" lon="-58.075684">
        <time>2021-05-01T18:51:16Z</time>
      </trkpt>
      <trkpt lat="-34.923317" lon="-58.07562">
        <time>2021-05-01T18:51:17Z</time>
      </trkpt>
      <trkpt lat="-34.923336" lon="-58.075558">
        <time>2021-05-01T18:51:18Z</time>
      </trkpt>
      <trkpt lat="-34.923347" lon="-58.075493">
        <time>2021-05-01T18:51:19Z</time>
      </trkpt>
      <trkpt lat="-34.923355" lon="-58.075428">
        <time>2021-05-01T18:51:20Z</time>
      </trkpt>
      <trkpt lat="-34.923363" lon="-58.075363">
        <time>2021-05-01T18:51:21Z</time>
      </trkpt>
      <trkpt lat="-34.923378" lon="-58.075302">
        <time>2021-05-01T18:51:22Z</time>
      </trkpt>
      <trkpt lat="-34.92339" lon="-58.07524">
        <time>2021-05-01T18:51:23Z</time>
      </trkpt>
      <trkpt lat="-34.9234" lon="-58.07518">
        <time>2021-05-01T18:51:24Z</time>
      </trkpt>
      <trkpt lat="-34.923416" lon="-58.075115">
        <time>2021-05-01T18:51:25Z</time>
      </trkpt>
      <trkpt lat="-34.923435" lon="-58.07505">
        <time>2021-05-01T18:51:26Z</time>
      </trkpt>
      <trkpt lat="-34.92345" lon="-58.074986">
        <time>2021-05-01T18:51:27Z</time>
      </trkpt>
      <trkpt lat="-34.923466" lon="-58.074924">
        <time>2021-05-01T18:51:28Z</time>
      </trkpt>
      <trkpt lat="-34.92348" lon="-58.07486">
        <time>2021-05-01T18:51:29Z</time>
      </trkpt>
      <trkpt lat="-34.923492" lon="-58.0748">
        <time>2021-05-01T18:51:30Z</time>
      </trkpt>
      <trkpt lat="-34.923504" lon="-58.074738">
        <time>2021-05-01T18:51:31Z</time>
      </trkpt>
      <trkpt lat="-34.923515" lon="-58.074673">
        <time>2021-05-01T18:51:32Z</time>
      </trkpt>
      <trkpt lat="-34.92353" lon="-58.074608">
        <time>2021-05-01T18:51:33Z</time>
      </trkpt>
      <trkpt lat="-34.92355" lon="-58.074543">
        <time>2021-05-01T18:51:34Z</time>
      </trkpt>
      <trkpt lat="-34.923565" lon="-58.074474">
        <time>2021-05-01T18:51:35Z</time>
      </trkpt>
      <trkpt lat="-34.92358" lon="-58.074406">
        <time>2021-05-01T18:51:36Z</time>
      </trkpt>
      <trkpt lat="-34.9236" lon="-58.074333">
        <time>2021-05-01T18:51:37Z</time>
      </trkpt>
      <trkpt lat="-34.923615" lon="-58.074265">
        <time>2021-05-01T18:51:38Z</time>
      </trkpt>
      <trkpt lat="-34.923634" lon="-58.0742">
        <time>2021-05-01T18:51:39Z</time>
      </trkpt>
      <trkpt lat="-34.92365" lon="-58.07413">
        <time>2021-05-01T18:51:40Z</time>
      </trkpt>
      <trkpt lat="-34.923664" lon="-58.074066">
        <time>2021-05-01T18:51:41Z</time>
      </trkpt>
      <trkpt lat="-34.923683" lon="-58.074">
        <time>2021-05-01T18:51:42Z</time>
      </trkpt>
      <trkpt lat="-34.923695" lon="-58.073936">
        <time>2021-05-01T18:51:43Z</time>
      </trkpt>
      <trkpt lat="-34.92371" lon="-58.07387">
        <time>2021-05-01T18:51:44Z</time>
      </trkpt>
      <trkpt lat="-34.923725" lon="-58.073807">
        <time>2021-05-01T18:51:45Z</time>
      </trkpt>
      <trkpt lat="-34.923744" lon="-58.07374">
        <time>2021-05-01T18:51:46Z</time>
      </trkpt>
      <trkpt lat="-34.92376" lon="-58.07367">
        <time>2021-05-01T18:51:47Z</time>
      </trkpt>
      <trkpt lat="-34.923775" lon="-58.073605">
        <time>2021-05-01T18:51:48Z</time>
      </trkpt>
      <trkpt lat="-34.92379" lon="-58.073536">
        <time>2021-05-01T18:51:49Z</time>
      </trkpt>
      <trkpt lat="-34.9238" lon="-58.073467">
        <time>2021-05-01T18:51:50Z</time>
      </trkpt>
      <trkpt lat="-34.923817" lon="-58.073402">
        <time>2021-05-01T18:51:51Z</time>
      </trkpt>
      <trkpt lat="-34.923832" lon="-58.073338">
        <time>2021-05-01T18:51:52Z</time>
      </trkpt>
      <trkpt lat="-34.923847" lon="-58.073273">
        <time>2021-05-01T18:51:53Z</time>
      </trkpt>
      <trkpt lat="-34.923862" lon="-58.073204">
        <time>2021-05-01T18:51:54Z</time>
      </trkpt>
      <trkpt lat="-34.92388" lon="-58.073135">
        <time>2021-05-01T18:51:55Z</time>
      </trkpt>
      <trkpt lat="-34.9239" lon="-58.073067">
        <time>2021-05-01T18:51:56Z</time>
      </trkpt>
      <trkpt lat="-34.923916" lon="-58.072994">
        <time>2021-05-01T18:51:57Z</time>
      </trkpt>
      <trkpt lat="-34.923935" lon="-58.072926">
        <time>2021-05-01T18:51:58Z</time>
      </trkpt>
      <trkpt lat="-34.92395" lon="-58.07286">
        <time>2021-05-01T18:51:59Z</time>
      </trkpt>
      <trkpt lat="-34.92397" lon="-58.072792">
        <time>2021-05-01T18:52:00Z</time>
      </trkpt>
      <trkpt lat="-34.923985" lon="-58.072723">
        <time>2021-05-01T18:52:01Z</time>
      </trkpt>
      <trkpt lat="-34.924" lon="-58.072655">
        <time>2021-05-01T18:52:02Z</time>
      </trkpt>
      <trkpt lat="-34.924015" lon="-58.072582">
        <time>2021-05-01T18:52:03Z</time>
      </trkpt>
      <trkpt lat="-34.924034" lon="-58.072514">
        <time>2021-05-01T18:52:04Z</time>
      </trkpt>
      <trkpt lat="-34.92405" lon="-58.072437">
        <time>2021-05-01T18:52:05Z</time>
      </trkpt>
      <trkpt lat="-34.924065" lon="-58.072365">
        <time>2021-05-01T18:52:06Z</time>
      </trkpt>
      <trkpt lat="-34.92408" lon="-58.072285">
        <time>2021-05-01T18:52:07Z</time>
      </trkpt>
      <trkpt lat="-34.92409" lon="-58.072205">
        <time>2021-05-01T18:52:08Z</time>
      </trkpt>
      <trkpt lat="-34.924107" lon="-58.07212">
        <time>2021-05-01T18:52:09Z</time>
      </trkpt>
      <trkpt lat="-34.92412" lon="-58.07204">
        <time>2021-05-01T18:52:10Z</time>
      </trkpt>
      <trkpt lat="-34.92414" lon="-58.071957">
        <time>2021-05-01T18:52:11Z</time>
      </trkpt>
      <trkpt lat="-34.92416" lon="-58.07187">
        <time>2021-05-01T18:52:12Z</time>
      </trkpt>
      <trkpt lat="-34.924183" lon="-58.071785">
        <time>2021-05-01T18:52:13Z</time>
      </trkpt>
      <trkpt lat="-34.924202" lon="-58.0717">
        <time>2021-05-01T18:52:14Z</time>
      </trkpt>
      <trkpt lat="-34.924217" lon="-58.07162">
        <time>2021-05-01T18:52:15Z</time>
      </trkpt>
      <trkpt lat="-34.924236" lon="-58.071545">
        <time>2021-05-01T18:52:16Z</time>
      </trkpt>
      <trkpt lat="-34.924248" lon="-58.071465">
        <time>2021-05-01T18:52:17Z</time>
      </trkpt>
      <trkpt lat="-34.924267" lon="-58.07139">
        <time>2021-05-01T18:52:18Z</time>
      </trkpt>
      <trkpt lat="-34.924286" lon="-58.07132">
        <time>2021-05-01T18:52:19Z</time>
      </trkpt>
      <trkpt lat="-34.924305" lon="-58.07125">
        <time>2021-05-01T18:52:20Z</time>
      </trkpt>
      <trkpt lat="-34.92432" lon="-58.071186">
        <time>2021-05-01T18:52:21Z</time>
      </trkpt>
      <trkpt lat="-34.924335" lon="-58.07113">
        <time>2021-05-01T18:52:22Z</time>
      </trkpt>
      <trkpt lat="-34.92435" lon="-58.07107">
        <time>2021-05-01T18:52:23Z</time>
      </trkpt>
      <trkpt lat="-34.924366" lon="-58.07102">
        <time>2021-05-01T18:52:24Z</time>
      </trkpt>
      <trkpt lat="-34.924385" lon="-58.07096">
        <time>2021-05-01T18:52:25Z</time>
      </trkpt>
      <trkpt lat="-34.924397" lon="-58.070904">
        <time>2021-05-01T18:52:26Z</time>
      </trkpt>
      <trkpt lat="-34.92441" lon="-58.070847">
        <time>2021-05-01T18:52:27Z</time>
      </trkpt>
      <trkpt lat="-34.924427" lon="-58.07079">
        <time>2021-05-01T18:52:28Z</time>
      </trkpt>
      <trkpt lat="-34.92444" lon="-58.070732">
        <time>2021-05-01T18:52:29Z</time>
      </trkpt>
      <trkpt lat="-34.924454" lon="-58.07067">
        <time>2021-05-01T18:52:30Z</time>
      </trkpt>
      <trkpt lat="-34.92447" lon="-58.070614">
        <time>2021-05-01T18:52:31Z</time>
      </trkpt>
      <trkpt lat="-34.92448" lon="-58.070557">
        <time>2021-05-01T18:52:32Z</time>
      </trkpt>
      <trkpt lat="-34.92449" lon="-58.070496">
        <time>2021-05-01T18:52:33Z</time>
      </trkpt>
      <trkpt lat="-34.924507" lon="-58.07044">
        <time>2021-05-01T18:52:34Z</time>
      </trkpt>
      <trkpt lat="-34.92452" lon="-58.07038">
        <time>2021-05-01T18:52:35Z</time>
      </trkpt>
      <trkpt lat="-34.92453" lon="-58.070324">
        <time>2021-05-01T18:52:36Z</time>
      </trkpt>
      <trkpt lat="-34.92454" lon="-58.070267">
        <time>2021-05-01T18:52:37Z</time>
      </trkpt>
      <trkpt lat="-34.924557" lon="-58.07021">
        <time>2021-05-01T18:52:38Z</time>
      </trkpt>
      <trkpt lat="-34.92457" lon="-58.070152">
        <time>2021-05-01T18:52:39Z</time>
      </trkpt>
      <trkpt lat="-34.92458" lon="-58.0701">
        <time>2021-05-01T18:52:40Z</time>
      </trkpt>
      <trkpt lat="-34.924606" lon="-58.070004">
        <time>2021-05-01T18:52:42Z</time>
      </trkpt>
      <trkpt lat="-34.92462" lon="-58.06995">
        <time>2021-05-01T18:52:43Z</time>
      </trkpt>
      <trkpt lat="-34.924644" lon="-58.069847">
        <time>2021-05-01T18:52:45Z</time>
      </trkpt>
      <trkpt lat="-34.924656" lon="-58.069794">
        <time>2021-05-01T18:52:46Z</time>
      </trkpt>
      <trkpt lat="-34.924664" lon="-58.06974">
        <time>2021-05-01T18:52:47Z</time>
      </trkpt>
      <trkpt lat="-34.924675" lon="-58.069683">
        <time>2021-05-01T18:52:48Z</time>
      </trkpt>
      <trkpt lat="-34.92469" lon="-58.069626">
        <time>2021-05-01T18:52:49Z</time>
      </trkpt>
      <trkpt lat="-34.924698" lon="-58.069565">
        <time>2021-05-01T18:52:50Z</time>
      </trkpt>
      <trkpt lat="-34.924713" lon="-58.06951">
        <time>2021-05-01T18:52:51Z</time>
      </trkpt>
      <trkpt lat="-34.92473" lon="-58.069458">
        <time>2021-05-01T18:52:52Z</time>
      </trkpt>
      <trkpt lat="-34.924755" lon="-58.06935">
        <time>2021-05-01T18:52:54Z</time>
      </trkpt>
      <trkpt lat="-34.92477" lon="-58.069298">
        <time>2021-05-01T18:52:55Z</time>
      </trkpt>
      <trkpt lat="-34.924786" lon="-58.06924">
        <time>2021-05-01T18:52:56Z</time>
      </trkpt>
      <trkpt lat="-34.9248" lon="-58.069183">
        <time>2021-05-01T18:52:57Z</time>
      </trkpt>
      <trkpt lat="-34.924812" lon="-58.069126">
        <time>2021-05-01T18:52:58Z</time>
      </trkpt>
      <trkpt lat="-34.924828" lon="-58.069073">
        <time>2021-05-01T18:52:59Z</time>
      </trkpt>
      <trkpt lat="-34.92484" lon="-58.069016">
        <time>2021-05-01T18:53:00Z</time>
      </trkpt>
      <trkpt lat="-34.924847" lon="-58.06896">
        <time>2021-05-01T18:53:01Z</time>
      </trkpt>
      <trkpt lat="-34.924862" lon="-58.068905">
        <time>2021-05-01T18:53:02Z</time>
      </trkpt>
      <trkpt lat="-34.924885" lon="-58.068798">
        <time>2021-05-01T18:53:04Z</time>
      </trkpt>
      <trkpt lat="-34.924896" lon="-58.06874">
        <time>2021-05-01T18:53:05Z</time>
      </trkpt>
      <trkpt lat="-34.92491" lon="-58.068687">
        <time>2021-05-01T18:53:06Z</time>
      </trkpt>
      <trkpt lat="-34.924923" lon="-58.06863">
        <time>2021-05-01T18:53:07Z</time>
      </trkpt>
      <trkpt lat="-34.92494" lon="-58.068577">
        <time>2021-05-01T18:53:08Z</time>
      </trkpt>
      <trkpt lat="-34.924965" lon="-58.06848">
        <time>2021-05-01T18:53:10Z</time>
      </trkpt>
      <trkpt lat="-34.924984" lon="-58.06839">
        <time>2021-05-01T18:53:12Z</time>
      </trkpt>
      <trkpt lat="-34.925007" lon="-58.068295">
        <time>2021-05-01T18:53:13Z</time>
      </trkpt>
      <trkpt lat="-34.925034" lon="-58.068195">
        <time>2021-05-01T18:53:15Z</time>
      </trkpt>
      <trkpt lat="-34.925045" lon="-58.06814">
        <time>2021-05-01T18:53:16Z</time>
      </trkpt>
      <trkpt lat="-34.92506" lon="-58.068085">
        <time>2021-05-01T18:53:17Z</time>
      </trkpt>
      <trkpt lat="-34.925076" lon="-58.068027">
        <time>2021-05-01T18:53:18Z</time>
      </trkpt>
      <trkpt lat="-34.925087" lon="-58.06797">
        <time>2021-05-01T18:53:19Z</time>
      </trkpt>
      <trkpt lat="-34.9251" lon="-58.06791">
        <time>2021-05-01T18:53:20Z</time>
      </trkpt>
      <trkpt lat="-34.925114" lon="-58.067856">
        <time>2021-05-01T18:53:21Z</time>
      </trkpt>
      <trkpt lat="-34.92513" lon="-58.0678">
        <time>2021-05-01T18:53:22Z</time>
      </trkpt>
      <trkpt lat="-34.925144" lon="-58.067745">
        <time>2021-05-01T18:53:23Z</time>
      </trkpt>
      <trkpt lat="-34.92517" lon="-58.067642">
        <time>2021-05-01T18:53:25Z</time>
      </trkpt>
      <trkpt lat="-34.925182" lon="-58.06759">
        <time>2021-05-01T18:53:26Z</time>
      </trkpt>
      <trkpt lat="-34.925194" lon="-58.067535">
        <time>2021-05-01T18:53:27Z</time>
      </trkpt>
      <trkpt lat="-34.925205" lon="-58.067482">
        <time>2021-05-01T18:53:28Z</time>
      </trkpt>
      <trkpt lat="-34.925217" lon="-58.06743">
        <time>2021-05-01T18:53:29Z</time>
      </trkpt>
      <trkpt lat="-34.92524" lon="-58.067333">
        <time>2021-05-01T18:53:31Z</time>
      </trkpt>
      <trkpt lat="-34.925262" lon="-58.067234">
        <time>2021-05-01T18:53:33Z</time>
      </trkpt>
      <trkpt lat="-34.925285" lon="-58.067146">
        <time>2021-05-01T18:53:35Z</time>
      </trkpt>
      <trkpt lat="-34.925316" lon="-58.067055">
        <time>2021-05-01T18:53:37Z</time>
      </trkpt>
      <trkpt lat="-34.925343" lon="-58.066956">
        <time>2021-05-01T18:53:39Z</time>
      </trkpt>
      <trkpt lat="-34.92537" lon="-58.066856">
        <time>2021-05-01T18:53:41Z</time>
      </trkpt>
      <trkpt lat="-34.9254" lon="-58.066765">
        <time>2021-05-01T18:53:43Z</time>
      </trkpt>
      <trkpt lat="-34.925423" lon="-58.06667">
        <time>2021-05-01T18:53:45Z</time>
      </trkpt>
      <trkpt lat="-34.92543" lon="-58.066593">
        <time>2021-05-01T18:53:47Z</time>
      </trkpt>
      <trkpt lat="-34.925426" lon="-58.066525">
        <time>2021-05-01T18:53:49Z</time>
      </trkpt>
      <trkpt lat="-34.925457" lon="-58.066444">
        <time>2021-05-01T18:53:51Z</time>
      </trkpt>
      <trkpt lat="-34.925488" lon="-58.06638">
        <time>2021-05-01T18:53:53Z</time>
      </trkpt>
      <trkpt lat="-34.92553" lon="-58.066315">
        <time>2021-05-01T18:53:56Z</time>
      </trkpt>
      <trkpt lat="-34.925556" lon="-58.066257">
        <time>2021-05-01T18:53:58Z</time>
      </trkpt>
      <trkpt lat="-34.925575" lon="-58.06619">
        <time>2021-05-01T18:54:01Z</time>
      </trkpt>
      <trkpt lat="-34.925583" lon="-58.066124">
        <time>2021-05-01T18:54:04Z</time>
      </trkpt>
      <trkpt lat="-34.92558" lon="-58.06606">
        <time>2021-05-01T18:54:06Z</time>
      </trkpt>
      <trkpt lat="-34.9256" lon="-58.065998">
        <time>2021-05-01T18:54:08Z</time>
      </trkpt>
      <trkpt lat="-34.92562" lon="-58.06593">
        <time>2021-05-01T18:54:10Z</time>
      </trkpt>
      <trkpt lat="-34.925648" lon="-58.065865">
        <time>2021-05-01T18:54:12Z</time>
      </trkpt>
      <trkpt lat="-34.92567" lon="-58.065765">
        <time>2021-05-01T18:54:14Z</time>
      </trkpt>
      <trkpt lat="-34.925682" lon="-58.065704">
        <time>2021-05-01T18:54:15Z</time>
      </trkpt>
      <trkpt lat="-34.925686" lon="-58.06565">
        <time>2021-05-01T18:54:16Z</time>
      </trkpt>
      <trkpt lat="-34.92571" lon="-58.06559">
        <time>2021-05-01T18:54:17Z</time>
      </trkpt>
      <trkpt lat="-34.92572" lon="-58.06553">
        <time>2021-05-01T18:54:18Z</time>
      </trkpt>
      <trkpt lat="-34.925735" lon="-58.065464">
        <time>2021-05-01T18:54:19Z</time>
      </trkpt>
      <trkpt lat="-34.925755" lon="-58.065403">
        <time>2021-05-01T18:54:20Z</time>
      </trkpt>
      <trkpt lat="-34.925766" lon="-58.065346">
        <time>2021-05-01T18:54:21Z</time>
      </trkpt>
      <trkpt lat="-34.925777" lon="-58.065292">
        <time>2021-05-01T18:54:22Z</time>
      </trkpt>
      <trkpt lat="-34.925793" lon="-58.065235">
        <time>2021-05-01T18:54:23Z</time>
      </trkpt>
      <trkpt lat="-34.925808" lon="-58.06518">
        <time>2021-05-01T18:54:24Z</time>
      </trkpt>
      <trkpt lat="-34.925827" lon="-58.065132">
        <time>2021-05-01T18:54:25Z</time>
      </trkpt>
      <trkpt lat="-34.925846" lon="-58.065075">
        <time>2021-05-01T18:54:26Z</time>
      </trkpt>
      <trkpt lat="-34.925865" lon="-58.065014">
        <time>2021-05-01T18:54:27Z</time>
      </trkpt>
      <trkpt lat="-34.925884" lon="-58.064957">
        <time>2021-05-01T18:54:28Z</time>
      </trkpt>
      <trkpt lat="-34.925907" lon="-58.064896">
        <time>2021-05-01T18:54:29Z</time>
      </trkpt>
      <trkpt lat="-34.925926" lon="-58.064835">
        <time>2021-05-01T18:54:30Z</time>
      </trkpt>
      <trkpt lat="-34.92595" lon="-58.064777">
        <time>2021-05-01T18:54:31Z</time>
      </trkpt>
      <trkpt lat="-34.925976" lon="-58.06472">
        <time>2021-05-01T18:54:32Z</time>
      </trkpt>
      <trkpt lat="-34.926" lon="-58.064655">
        <time>2021-05-01T18:54:33Z</time>
      </trkpt>
      <trkpt lat="-34.926014" lon="-58.06459">
        <time>2021-05-01T18:54:34Z</time>
      </trkpt>
      <trkpt lat="-34.92603" lon="-58.064526">
        <time>2021-05-01T18:54:35Z</time>
      </trkpt>
      <trkpt lat="-34.92605" lon="-58.06446">
        <time>2021-05-01T18:54:36Z</time>
      </trkpt>
      <trkpt lat="-34.926064" lon="-58.064396">
        <time>2021-05-01T18:54:37Z</time>
      </trkpt>
      <trkpt lat="-34.926075" lon="-58.064323">
        <time>2021-05-01T18:54:38Z</time>
      </trkpt>
      <trkpt lat="-34.926094" lon="-58.06426">
        <time>2021-05-01T18:54:39Z</time>
      </trkpt>
      <trkpt lat="-34.92611" lon="-58.06419">
        <time>2021-05-01T18:54:40Z</time>
      </trkpt>
      <trkpt lat="-34.92613" lon="-58.064117">
        <time>2021-05-01T18:54:41Z</time>
      </trkpt>
      <trkpt lat="-34.926144" lon="-58.064045">
        <time>2021-05-01T18:54:42Z</time>
      </trkpt>
      <trkpt lat="-34.926163" lon="-58.063972">
        <time>2021-05-01T18:54:43Z</time>
      </trkpt>
      <trkpt lat="-34.926178" lon="-58.063904">
        <time>2021-05-01T18:54:44Z</time>
      </trkpt>
      <trkpt lat="-34.926197" lon="-58.06383">
        <time>2021-05-01T18:54:45Z</time>
      </trkpt>
      <trkpt lat="-34.926212" lon="-58.063763">
        <time>2021-05-01T18:54:46Z</time>
      </trkpt>
      <trkpt lat="-34.92623" lon="-58.06369">
        <time>2021-05-01T18:54:47Z</time>
      </trkpt>
      <trkpt lat="-34.926247" lon="-58.063618">
        <time>2021-05-01T18:54:48Z</time>
      </trkpt>
      <trkpt lat="-34.92626" lon="-58.063553">
        <time>2021-05-01T18:54:49Z</time>
      </trkpt>
      <trkpt lat="-34.926273" lon="-58.06348">
        <time>2021-05-01T18:54:50Z</time>
      </trkpt>
      <trkpt lat="-34.926296" lon="-58.063416">
        <time>2021-05-01T18:54:51Z</time>
      </trkpt>
      <trkpt lat="-34.926315" lon="-58.063354">
        <time>2021-05-01T18:54:52Z</time>
      </trkpt>
      <trkpt lat="-34.92633" lon="-58.063293">
        <time>2021-05-01T18:54:53Z</time>
      </trkpt>
      <trkpt lat="-34.926346" lon="-58.06323">
        <time>2021-05-01T18:54:54Z</time>
      </trkpt>
      <trkpt lat="-34.926365" lon="-58.06318">
        <time>2021-05-01T18:54:55Z</time>
      </trkpt>
      <trkpt lat="-34.926376" lon="-58.063118">
        <time>2021-05-01T18:54:56Z</time>
      </trkpt>
      <trkpt lat="-34.926384" lon="-58.06306">
        <time>2021-05-01T18:54:57Z</time>
      </trkpt>
      <trkpt lat="-34.92639" lon="-58.063004">
        <time>2021-05-01T18:54:58Z</time>
      </trkpt>
      <trkpt lat="-34.926395" lon="-58.06289">
        <time>2021-05-01T18:55:00Z</time>
      </trkpt>
      <trkpt lat="-34.926407" lon="-58.062824">
        <time>2021-05-01T18:55:01Z</time>
      </trkpt>
      <trkpt lat="-34.92641" lon="-58.062767">
        <time>2021-05-01T18:55:02Z</time>
      </trkpt>
      <trkpt lat="-34.926445" lon="-58.062664">
        <time>2021-05-01T18:55:04Z</time>
      </trkpt>
      <trkpt lat="-34.92647" lon="-58.062565">
        <time>2021-05-01T18:55:06Z</time>
      </trkpt>
      <trkpt lat="-34.926487" lon="-58.062458">
        <time>2021-05-01T18:55:08Z</time>
      </trkpt>
      <trkpt lat="-34.9265" lon="-58.0624">
        <time>2021-05-01T18:55:09Z</time>
      </trkpt>
      <trkpt lat="-34.92651" lon="-58.062298">
        <time>2021-05-01T18:55:11Z</time>
      </trkpt>
      <trkpt lat="-34.926533" lon="-58.06225">
        <time>2021-05-01T18:55:12Z</time>
      </trkpt>
      <trkpt lat="-34.926556" lon="-58.06219">
        <time>2021-05-01T18:55:13Z</time>
      </trkpt>
      <trkpt lat="-34.926575" lon="-58.06213">
        <time>2021-05-01T18:55:14Z</time>
      </trkpt>
      <trkpt lat="-34.926594" lon="-58.062073">
        <time>2021-05-01T18:55:15Z</time>
      </trkpt>
      <trkpt lat="-34.926613" lon="-58.061977">
        <time>2021-05-01T18:55:17Z</time>
      </trkpt>
      <trkpt lat="-34.92663" lon="-58.061897">
        <time>2021-05-01T18:55:19Z</time>
      </trkpt>
      <trkpt lat="-34.92665" lon="-58.061836">
        <time>2021-05-01T18:55:21Z</time>
      </trkpt>
      <trkpt lat="-34.92668" lon="-58.06179">
        <time>2021-05-01T18:55:23Z</time>
      </trkpt>
      <trkpt lat="-34.926704" lon="-58.061733">
        <time>2021-05-01T18:55:26Z</time>
      </trkpt>
      <trkpt lat="-34.926716" lon="-58.06168">
        <time>2021-05-01T18:55:28Z</time>
      </trkpt>
      <trkpt lat="-34.926723" lon="-58.061615">
        <time>2021-05-01T18:55:30Z</time>
      </trkpt>
      <trkpt lat="-34.926723" lon="-58.06155">
        <time>2021-05-01T18:55:32Z</time>
      </trkpt>
      <trkpt lat="-34.92672" lon="-58.06149">
        <time>2021-05-01T18:55:34Z</time>
      </trkpt>
      <trkpt lat="-34.926735" lon="-58.061413">
        <time>2021-05-01T18:55:37Z</time>
      </trkpt>
      <trkpt lat="-34.926693" lon="-58.0613">
        <time>2021-05-01T18:55:46Z</time>
      </trkpt>
      <trkpt lat="-34.926674" lon="-58.060997">
        <time>2021-05-01T18:55:46Z</time>
      </trkpt>
      <trkpt lat="-34.926662" lon="-58.061115">
        <time>2021-05-01T18:55:46Z</time>
      </trkpt>
      <trkpt lat="-34.92662" lon="-58.061222">
        <time>2021-05-01T18:55:46Z</time>
      </trkpt>
      <trkpt lat="-34.926674" lon="-58.060997">
        <time>2021-05-01T18:56:29Z</time>
      </trkpt>
      <trkpt lat="-34.926712" lon="-58.060886">
        <time>2021-05-01T18:56:34Z</time>
      </trkpt>
      <trkpt lat="-34.926758" lon="-58.060825">
        <time>2021-05-01T18:56:40Z</time>
      </trkpt>
      <trkpt lat="-34.92685" lon="-58.060787">
        <time>2021-05-01T18:56:48Z</time>
      </trkpt>
      <trkpt lat="-34.92686" lon="-58.0608">
        <time>2021-05-01T18:57:21Z</time>
      </trkpt>
      <trkpt lat="-34.92686" lon="-58.0608">
        <time>2021-05-01T18:57:31Z</time>
      </trkpt>
      <trkpt lat="-34.926838" lon="-58.060688">
        <time>2021-05-01T18:57:32Z</time>
      </trkpt>
      <trkpt lat="-34.926838" lon="-58.060688">
        <time>2021-05-01T18:57:42Z</time>
      </trkpt>
      <trkpt lat="-34.92684" lon="-58.060616">
        <time>2021-05-01T18:57:43Z</time>
      </trkpt>
      <trkpt lat="-34.92684" lon="-58.060616">
        <time>2021-05-01T18:57:53Z</time>
      </trkpt>
      <trkpt lat="-34.926823" lon="-58.06051">
        <time>2021-05-01T18:57:57Z</time>
      </trkpt>
      <trkpt lat="-34.926815" lon="-58.0605">
        <time>2021-05-01T18:58:07Z</time>
      </trkpt>
      <trkpt lat="-34.926815" lon="-58.0605">
        <time>2021-05-01T18:58:17Z</time>
      </trkpt>
      <trkpt lat="-34.926815" lon="-58.0605">
        <time>2021-05-01T18:58:27Z</time>
      </trkpt>
      <trkpt lat="-34.926815" lon="-58.0605">
        <time>2021-05-01T18:58:37Z</time>
      </trkpt>
      <trkpt lat="-34.926815" lon="-58.0605">
        <time>2021-05-01T18:58:47Z</time>
      </trkpt>
      <trkpt lat="-34.926838" lon="-58.060486">
        <time>2021-05-01T18:58:57Z</time>
      </trkpt>
      <trkpt lat="-34.926838" lon="-58.060486">
        <time>2021-05-01T18:59:07Z</time>
      </trkpt>
      <trkpt lat="-34.926838" lon="-58.060486">
        <time>2021-05-01T18:59:17Z</time>
      </trkpt>
      <trkpt lat="-34.92684" lon="-58.06039">
        <time>2021-05-01T18:59:23Z</time>
      </trkpt>
      <trkpt lat="-34.926865" lon="-58.060318">
        <time>2021-05-01T18:59:26Z</time>
      </trkpt>
      <trkpt lat="-34.926895" lon="-58.06025">
        <time>2021-05-01T18:59:28Z</time>
      </trkpt>
      <trkpt lat="-34.92693" lon="-58.06016">
        <time>2021-05-01T18:59:30Z</time>
      </trkpt>
      <trkpt lat="-34.926964" lon="-58.060093">
        <time>2021-05-01T18:59:32Z</time>
      </trkpt>
      <trkpt lat="-34.92699" lon="-58.06004">
        <time>2021-05-01T18:59:34Z</time>
      </trkpt>
      <trkpt lat="-34.927006" lon="-58.059982">
        <time>2021-05-01T18:59:36Z</time>
      </trkpt>
      <trkpt lat="-34.927025" lon="-58.059917">
        <time>2021-05-01T18:59:39Z</time>
      </trkpt>
      <trkpt lat="-34.927055" lon="-58.059845">
        <time>2021-05-01T18:59:42Z</time>
      </trkpt>
      <trkpt lat="-34.92707" lon="-58.05979">
        <time>2021-05-01T18:59:44Z</time>
      </trkpt>
      <trkpt lat="-34.927094" lon="-58.059727">
        <time>2021-05-01T18:59:46Z</time>
      </trkpt>
      <trkpt lat="-34.927124" lon="-58.059673">
        <time>2021-05-01T18:59:48Z</time>
      </trkpt>
      <trkpt lat="-34.927147" lon="-58.059605">
        <time>2021-05-01T18:59:50Z</time>
      </trkpt>
      <trkpt lat="-34.927155" lon="-58.059544">
        <time>2021-05-01T18:59:51Z</time>
      </trkpt>
      <trkpt lat="-34.927166" lon="-58.05949">
        <time>2021-05-01T18:59:52Z</time>
      </trkpt>
      <trkpt lat="-34.927193" lon="-58.059395">
        <time>2021-05-01T18:59:54Z</time>
      </trkpt>
      <trkpt lat="-34.92722" lon="-58.0593">
        <time>2021-05-01T18:59:56Z</time>
      </trkpt>
      <trkpt lat="-34.927235" lon="-58.05922">
        <time>2021-05-01T18:59:58Z</time>
      </trkpt>
      <trkpt lat="-34.92725" lon="-58.05915">
        <time>2021-05-01T19:00:00Z</time>
      </trkpt>
      <trkpt lat="-34.927265" lon="-58.059086">
        <time>2021-05-01T19:00:02Z</time>
      </trkpt>
      <trkpt lat="-34.92728" lon="-58.059032">
        <time>2021-05-01T19:00:04Z</time>
      </trkpt>
      <trkpt lat="-34.927315" lon="-58.058983">
        <time>2021-05-01T19:00:06Z</time>
      </trkpt>
      <trkpt lat="-34.92735" lon="-58.058945">
        <time>2021-05-01T19:00:08Z</time>
      </trkpt>
      <trkpt lat="-34.9274" lon="-58.05888">
        <time>2021-05-01T19:00:10Z</time>
      </trkpt>
      <trkpt lat="-34.927437" lon="-58.058792">
        <time>2021-05-01T19:00:12Z</time>
      </trkpt>
      <trkpt lat="-34.927456" lon="-58.058697">
        <time>2021-05-01T19:00:14Z</time>
      </trkpt>
      <trkpt lat="-34.927475" lon="-58.0586">
        <time>2021-05-01T19:00:16Z</time>
      </trkpt>
      <trkpt lat="-34.927505" lon="-58.058502">
        <time>2021-05-01T19:00:18Z</time>
      </trkpt>
      <trkpt lat="-34.927525" lon="-58.058403">
        <time>2021-05-01T19:00:20Z</time>
      </trkpt>
      <trkpt lat="-34.92754" lon="-58.058308">
        <time>2021-05-01T19:00:22Z</time>
      </trkpt>
      <trkpt lat="-34.927555" lon="-58.058228">
        <time>2021-05-01T19:00:24Z</time>
      </trkpt>
      <trkpt lat="-34.92757" lon="-58.058155">
        <time>2021-05-01T19:00:26Z</time>
      </trkpt>
      <trkpt lat="-34.92759" lon="-58.05807">
        <time>2021-05-01T19:00:28Z</time>
      </trkpt>
      <trkpt lat="-34.92761" lon="-58.057983">
        <time>2021-05-01T19:00:30Z</time>
      </trkpt>
      <trkpt lat="-34.927624" lon="-58.057884">
        <time>2021-05-01T19:00:32Z</time>
      </trkpt>
      <trkpt lat="-34.927647" lon="-58.057777">
        <time>2021-05-01T19:00:34Z</time>
      </trkpt>
      <trkpt lat="-34.92767" lon="-58.057674">
        <time>2021-05-01T19:00:36Z</time>
      </trkpt>
      <trkpt lat="-34.92769" lon="-58.057575">
        <time>2021-05-01T19:00:38Z</time>
      </trkpt>
      <trkpt lat="-34.927708" lon="-58.05747">
        <time>2021-05-01T19:00:40Z</time>
      </trkpt>
      <trkpt lat="-34.92772" lon="-58.057415">
        <time>2021-05-01T19:00:41Z</time>
      </trkpt>
      <trkpt lat="-34.92773" lon="-58.05736">
        <time>2021-05-01T19:00:42Z</time>
      </trkpt>
      <trkpt lat="-34.927742" lon="-58.05731">
        <time>2021-05-01T19:00:43Z</time>
      </trkpt>
      <trkpt lat="-34.927757" lon="-58.057255">
        <time>2021-05-01T19:00:44Z</time>
      </trkpt>
      <trkpt lat="-34.92777" lon="-58.057198">
        <time>2021-05-01T19:00:45Z</time>
      </trkpt>
      <trkpt lat="-34.927776" lon="-58.057144">
        <time>2021-05-01T19:00:46Z</time>
      </trkpt>
      <trkpt lat="-34.927803" lon="-58.05704">
        <time>2021-05-01T19:00:48Z</time>
      </trkpt>
      <trkpt lat="-34.927814" lon="-58.056984">
        <time>2021-05-01T19:00:49Z</time>
      </trkpt>
      <trkpt lat="-34.927826" lon="-58.05693">
        <time>2021-05-01T19:00:50Z</time>
      </trkpt>
      <trkpt lat="-34.927837" lon="-58.056873">
        <time>2021-05-01T19:00:51Z</time>
      </trkpt>
      <trkpt lat="-34.927853" lon="-58.05682">
        <time>2021-05-01T19:00:52Z</time>
      </trkpt>
      <trkpt lat="-34.927864" lon="-58.056763">
        <time>2021-05-01T19:00:53Z</time>
      </trkpt>
      <trkpt lat="-34.92788" lon="-58.05671">
        <time>2021-05-01T19:00:54Z</time>
      </trkpt>
      <trkpt lat="-34.92789" lon="-58.056656">
        <time>2021-05-01T19:00:55Z</time>
      </trkpt>
      <trkpt lat="-34.92791" lon="-58.056553">
        <time>2021-05-01T19:00:57Z</time>
      </trkpt>
      <trkpt lat="-34.92792" lon="-58.056496">
        <time>2021-05-01T19:00:58Z</time>
      </trkpt>
      <trkpt lat="-34.92793" lon="-58.056442">
        <time>2021-05-01T19:00:59Z</time>
      </trkpt>
      <trkpt lat="-34.927937" lon="-58.05634">
        <time>2021-05-01T19:01:01Z</time>
      </trkpt>
      <trkpt lat="-34.927925" lon="-58.056248">
        <time>2021-05-01T19:01:03Z</time>
      </trkpt>
      <trkpt lat="-34.92792" lon="-58.05615">
        <time>2021-05-01T19:01:05Z</time>
      </trkpt>
      <trkpt lat="-34.927933" lon="-58.05605">
        <time>2021-05-01T19:01:07Z</time>
      </trkpt>
      <trkpt lat="-34.92795" lon="-58.05596">
        <time>2021-05-01T19:01:09Z</time>
      </trkpt>
      <trkpt lat="-34.92797" lon="-58.055885">
        <time>2021-05-01T19:01:11Z</time>
      </trkpt>
      <trkpt lat="-34.92799" lon="-58.05582">
        <time>2021-05-01T19:01:13Z</time>
      </trkpt>
      <trkpt lat="-34.92801" lon="-58.05574">
        <time>2021-05-01T19:01:15Z</time>
      </trkpt>
      <trkpt lat="-34.92802" lon="-58.055676">
        <time>2021-05-01T19:01:17Z</time>
      </trkpt>
      <trkpt lat="-34.928036" lon="-58.055607">
        <time>2021-05-01T19:01:19Z</time>
      </trkpt>
      <trkpt lat="-34.928062" lon="-58.055542">
        <time>2021-05-01T19:01:21Z</time>
      </trkpt>
      <trkpt lat="-34.928097" lon="-58.05548">
        <time>2021-05-01T19:01:23Z</time>
      </trkpt>
      <trkpt lat="-34.928112" lon="-58.05542">
        <time>2021-05-01T19:01:25Z</time>
      </trkpt>
      <trkpt lat="-34.92813" lon="-58.055363">
        <time>2021-05-01T19:01:27Z</time>
      </trkpt>
      <trkpt lat="-34.928154" lon="-58.05531">
        <time>2021-05-01T19:01:30Z</time>
      </trkpt>
      <trkpt lat="-34.92815" lon="-58.055252">
        <time>2021-05-01T19:01:33Z</time>
      </trkpt>
      <trkpt lat="-34.92813" lon="-58.0552">
        <time>2021-05-01T19:01:34Z</time>
      </trkpt>
      <trkpt lat="-34.9281" lon="-58.05514">
        <time>2021-05-01T19:01:34Z</time>
      </trkpt>
      <trkpt lat="-34.92806" lon="-58.055073">
        <time>2021-05-01T19:01:39Z</time>
      </trkpt>
      <trkpt lat="-34.92801" lon="-58.055">
        <time>2021-05-01T19:01:41Z</time>
      </trkpt>
      <trkpt lat="-34.927948" lon="-58.054924">
        <time>2021-05-01T19:01:43Z</time>
      </trkpt>
      <trkpt lat="-34.927917" lon="-58.054882">
        <time>2021-05-01T19:01:44Z</time>
      </trkpt>
      <trkpt lat="-34.927887" lon="-58.05484">
        <time>2021-05-01T19:01:45Z</time>
      </trkpt>
      <trkpt lat="-34.927853" lon="-58.054802">
        <time>2021-05-01T19:01:46Z</time>
      </trkpt>
      <trkpt lat="-34.92782" lon="-58.054764">
        <time>2021-05-01T19:01:47Z</time>
      </trkpt>
      <trkpt lat="-34.927788" lon="-58.054726">
        <time>2021-05-01T19:01:48Z</time>
      </trkpt>
      <trkpt lat="-34.927753" lon="-58.054684">
        <time>2021-05-01T19:01:49Z</time>
      </trkpt>
      <trkpt lat="-34.927715" lon="-58.05464">
        <time>2021-05-01T19:01:50Z</time>
      </trkpt>
      <trkpt lat="-34.92765" lon="-58.054573">
        <time>2021-05-01T19:01:52Z</time>
      </trkpt>
      <trkpt lat="-34.927586" lon="-58.054512">
        <time>2021-05-01T19:01:54Z</time>
      </trkpt>
      <trkpt lat="-34.92753" lon="-58.054443">
        <time>2021-05-01T19:01:56Z</time>
      </trkpt>
      <trkpt lat="-34.927467" lon="-58.054375">
        <time>2021-05-01T19:01:58Z</time>
      </trkpt>
      <trkpt lat="-34.927402" lon="-58.05431">
        <time>2021-05-01T19:02:00Z</time>
      </trkpt>
      <trkpt lat="-34.92733" lon="-58.05425">
        <time>2021-05-01T19:02:02Z</time>
      </trkpt>
      <trkpt lat="-34.927296" lon="-58.054214">
        <time>2021-05-01T19:02:03Z</time>
      </trkpt>
      <trkpt lat="-34.927227" lon="-58.054146">
        <time>2021-05-01T19:02:05Z</time>
      </trkpt>
      <trkpt lat="-34.92717" lon="-58.054077">
        <time>2021-05-01T19:02:07Z</time>
      </trkpt>
      <trkpt lat="-34.92714" lon="-58.054016">
        <time>2021-05-01T19:02:09Z</time>
      </trkpt>
      <trkpt lat="-34.927097" lon="-58.053947">
        <time>2021-05-01T19:02:11Z</time>
      </trkpt>
      <trkpt lat="-34.92704" lon="-58.053883">
        <time>2021-05-01T19:02:13Z</time>
      </trkpt>
      <trkpt lat="-34.92699" lon="-58.05381">
        <time>2021-05-01T19:02:15Z</time>
      </trkpt>
      <trkpt lat="-34.92696" lon="-58.05377">
        <time>2021-05-01T19:02:16Z</time>
      </trkpt>
      <trkpt lat="-34.926907" lon="-58.053688">
        <time>2021-05-01T19:02:18Z</time>
      </trkpt>
      <trkpt lat="-34.926857" lon="-58.053604">
        <time>2021-05-01T19:02:20Z</time>
      </trkpt>
      <trkpt lat="-34.9268" lon="-58.053528">
        <time>2021-05-01T19:02:22Z</time>
      </trkpt>
      <trkpt lat="-34.926743" lon="-58.053455">
        <time>2021-05-01T19:02:24Z</time>
      </trkpt>
      <trkpt lat="-34.92671" lon="-58.053413">
        <time>2021-05-01T19:02:25Z</time>
      </trkpt>
      <trkpt lat="-34.926674" lon="-58.053375">
        <time>2021-05-01T19:02:26Z</time>
      </trkpt>
      <trkpt lat="-34.92661" lon="-58.0533">
        <time>2021-05-01T19:02:28Z</time>
      </trkpt>
      <trkpt lat="-34.926575" lon="-58.053265">
        <time>2021-05-01T19:02:29Z</time>
      </trkpt>
      <trkpt lat="-34.926514" lon="-58.053196">
        <time>2021-05-01T19:02:31Z</time>
      </trkpt>
      <trkpt lat="-34.92646" lon="-58.053123">
        <time>2021-05-01T19:02:33Z</time>
      </trkpt>
      <trkpt lat="-34.926407" lon="-58.053062">
        <time>2021-05-01T19:02:35Z</time>
      </trkpt>
      <trkpt lat="-34.926346" lon="-58.05299">
        <time>2021-05-01T19:02:37Z</time>
      </trkpt>
      <trkpt lat="-34.92628" lon="-58.05291">
        <time>2021-05-01T19:02:39Z</time>
      </trkpt>
      <trkpt lat="-34.92622" lon="-58.05284">
        <time>2021-05-01T19:02:41Z</time>
      </trkpt>
      <trkpt lat="-34.926163" lon="-58.052776">
        <time>2021-05-01T19:02:43Z</time>
      </trkpt>
      <trkpt lat="-34.92611" lon="-58.052715">
        <time>2021-05-01T19:02:45Z</time>
      </trkpt>
      <trkpt lat="-34.926052" lon="-58.052654">
        <time>2021-05-01T19:02:47Z</time>
      </trkpt>
      <trkpt lat="-34.92599" lon="-58.05258">
        <time>2021-05-01T19:02:49Z</time>
      </trkpt>
      <trkpt lat="-34.92593" lon="-58.052513">
        <time>2021-05-01T19:02:51Z</time>
      </trkpt>
      <trkpt lat="-34.925873" lon="-58.05245">
        <time>2021-05-01T19:02:53Z</time>
      </trkpt>
      <trkpt lat="-34.92581" lon="-58.052383">
        <time>2021-05-01T19:02:55Z</time>
      </trkpt>
      <trkpt lat="-34.925755" lon="-58.052322">
        <time>2021-05-01T19:02:57Z</time>
      </trkpt>
      <trkpt lat="-34.925697" lon="-58.05226">
        <time>2021-05-01T19:02:59Z</time>
      </trkpt>
      <trkpt lat="-34.925644" lon="-58.0522">
        <time>2021-05-01T19:03:01Z</time>
      </trkpt>
      <trkpt lat="-34.925583" lon="-58.05214">
        <time>2021-05-01T19:03:03Z</time>
      </trkpt>
      <trkpt lat="-34.92554" lon="-58.052094">
        <time>2021-05-01T19:03:05Z</time>
      </trkpt>
      <trkpt lat="-34.925503" lon="-58.05205">
        <time>2021-05-01T19:03:07Z</time>
      </trkpt>
      <trkpt lat="-34.925434" lon="-58.052006">
        <time>2021-05-01T19:03:09Z</time>
      </trkpt>
      <trkpt lat="-34.92537" lon="-58.051937">
        <time>2021-05-01T19:03:11Z</time>
      </trkpt>
      <trkpt lat="-34.925323" lon="-58.05187">
        <time>2021-05-01T19:03:13Z</time>
      </trkpt>
      <trkpt lat="-34.925278" lon="-58.051804">
        <time>2021-05-01T19:03:15Z</time>
      </trkpt>
      <trkpt lat="-34.925213" lon="-58.05174">
        <time>2021-05-01T19:03:17Z</time>
      </trkpt>
      <trkpt lat="-34.92516" lon="-58.051685">
        <time>2021-05-01T19:03:19Z</time>
      </trkpt>
      <trkpt lat="-34.92511" lon="-58.051624">
        <time>2021-05-01T19:03:21Z</time>
      </trkpt>
      <trkpt lat="-34.925064" lon="-58.051563">
        <time>2021-05-01T19:03:23Z</time>
      </trkpt>
      <trkpt lat="-34.925037" lon="-58.051514">
        <time>2021-05-01T19:03:24Z</time>
      </trkpt>
      <trkpt lat="-34.924988" lon="-58.051445">
        <time>2021-05-01T19:03:26Z</time>
      </trkpt>
      <trkpt lat="-34.92493" lon="-58.051373">
        <time>2021-05-01T19:03:28Z</time>
      </trkpt>
      <trkpt lat="-34.924885" lon="-58.051308">
        <time>2021-05-01T19:03:30Z</time>
      </trkpt>
      <trkpt lat="-34.92484" lon="-58.05124">
        <time>2021-05-01T19:03:32Z</time>
      </trkpt>
      <trkpt lat="-34.924786" lon="-58.051167">
        <time>2021-05-01T19:03:34Z</time>
      </trkpt>
      <trkpt lat="-34.92473" lon="-58.05109">
        <time>2021-05-01T19:03:36Z</time>
      </trkpt>
      <trkpt lat="-34.924664" lon="-58.051014">
        <time>2021-05-01T19:03:38Z</time>
      </trkpt>
      <trkpt lat="-34.924633" lon="-58.050976">
        <time>2021-05-01T19:03:39Z</time>
      </trkpt>
      <trkpt lat="-34.9246" lon="-58.050938">
        <time>2021-05-01T19:03:40Z</time>
      </trkpt>
      <trkpt lat="-34.924534" lon="-58.05087">
        <time>2021-05-01T19:03:42Z</time>
      </trkpt>
      <trkpt lat="-34.924477" lon="-58.050816">
        <time>2021-05-01T19:03:44Z</time>
      </trkpt>
      <trkpt lat="-34.92442" lon="-58.050762">
        <time>2021-05-01T19:03:46Z</time>
      </trkpt>
      <trkpt lat="-34.92437" lon="-58.05071">
        <time>2021-05-01T19:03:48Z</time>
      </trkpt>
      <trkpt lat="-34.92433" lon="-58.050655">
        <time>2021-05-01T19:03:50Z</time>
      </trkpt>
      <trkpt lat="-34.924274" lon="-58.050583">
        <time>2021-05-01T19:03:52Z</time>
      </trkpt>
      <trkpt lat="-34.924206" lon="-58.050518">
        <time>2021-05-01T19:03:54Z</time>
      </trkpt>
      <trkpt lat="-34.92415" lon="-58.05046">
        <time>2021-05-01T19:03:56Z</time>
      </trkpt>
      <trkpt lat="-34.924103" lon="-58.050407">
        <time>2021-05-01T19:03:58Z</time>
      </trkpt>
      <trkpt lat="-34.92405" lon="-58.050343">
        <time>2021-05-01T19:04:00Z</time>
      </trkpt>
      <trkpt lat="-34.924004" lon="-58.050285">
        <time>2021-05-01T19:04:02Z</time>
      </trkpt>
      <trkpt lat="-34.923958" lon="-58.05022">
        <time>2021-05-01T19:04:04Z</time>
      </trkpt>
      <trkpt lat="-34.92391" lon="-58.05015">
        <time>2021-05-01T19:04:06Z</time>
      </trkpt>
      <trkpt lat="-34.923843" lon="-58.050087">
        <time>2021-05-01T19:04:08Z</time>
      </trkpt>
      <trkpt lat="-34.923786" lon="-58.05002">
        <time>2021-05-01T19:04:10Z</time>
      </trkpt>
      <trkpt lat="-34.923748" lon="-58.04997">
        <time>2021-05-01T19:04:12Z</time>
      </trkpt>
      <trkpt lat="-34.923706" lon="-58.04991">
        <time>2021-05-01T19:04:14Z</time>
      </trkpt>
      <trkpt lat="-34.923656" lon="-58.04985">
        <time>2021-05-01T19:04:16Z</time>
      </trkpt>
      <trkpt lat="-34.92361" lon="-58.0498">
        <time>2021-05-01T19:04:18Z</time>
      </trkpt>
      <trkpt lat="-34.92357" lon="-58.049747">
        <time>2021-05-01T19:04:20Z</time>
      </trkpt>
      <trkpt lat="-34.92352" lon="-58.049694">
        <time>2021-05-01T19:04:22Z</time>
      </trkpt>
      <trkpt lat="-34.92346" lon="-58.04962">
        <time>2021-05-01T19:04:24Z</time>
      </trkpt>
      <trkpt lat="-34.923428" lon="-58.04958">
        <time>2021-05-01T19:04:25Z</time>
      </trkpt>
      <trkpt lat="-34.923397" lon="-58.04953">
        <time>2021-05-01T19:04:26Z</time>
      </trkpt>
      <trkpt lat="-34.923363" lon="-58.049488">
        <time>2021-05-01T19:04:27Z</time>
      </trkpt>
      <trkpt lat="-34.92331" lon="-58.049423">
        <time>2021-05-01T19:04:29Z</time>
      </trkpt>
      <trkpt lat="-34.923264" lon="-58.049374">
        <time>2021-05-01T19:04:31Z</time>
      </trkpt>
      <trkpt lat="-34.923218" lon="-58.049313">
        <time>2021-05-01T19:04:33Z</time>
      </trkpt>
      <trkpt lat="-34.923172" lon="-58.049244">
        <time>2021-05-01T19:04:35Z</time>
      </trkpt>
      <trkpt lat="-34.923122" lon="-58.049168">
        <time>2021-05-01T19:04:37Z</time>
      </trkpt>
      <trkpt lat="-34.923088" lon="-58.049126">
        <time>2021-05-01T19:04:38Z</time>
      </trkpt>
      <trkpt lat="-34.923054" lon="-58.049088">
        <time>2021-05-01T19:04:39Z</time>
      </trkpt>
      <trkpt lat="-34.923016" lon="-58.049046">
        <time>2021-05-01T19:04:40Z</time>
      </trkpt>
      <trkpt lat="-34.922974" lon="-58.049004">
        <time>2021-05-01T19:04:42Z</time>
      </trkpt>
      <trkpt lat="-34.922935" lon="-58.048958">
        <time>2021-05-01T19:04:43Z</time>
      </trkpt>
      <trkpt lat="-34.922897" lon="-58.048916">
        <time>2021-05-01T19:04:44Z</time>
      </trkpt>
      <trkpt lat="-34.92286" lon="-58.048874">
        <time>2021-05-01T19:04:45Z</time>
      </trkpt>
      <trkpt lat="-34.922817" lon="-58.048832">
        <time>2021-05-01T19:04:46Z</time>
      </trkpt>
      <trkpt lat="-34.922775" lon="-58.04879">
        <time>2021-05-01T19:04:47Z</time>
      </trkpt>
      <trkpt lat="-34.922733" lon="-58.048744">
        <time>2021-05-01T19:04:48Z</time>
      </trkpt>
      <trkpt lat="-34.922695" lon="-58.048702">
        <time>2021-05-01T19:04:49Z</time>
      </trkpt>
      <trkpt lat="-34.92265" lon="-58.04866">
        <time>2021-05-01T19:04:50Z</time>
      </trkpt>
      <trkpt lat="-34.922604" lon="-58.04862">
        <time>2021-05-01T19:04:51Z</time>
      </trkpt>
      <trkpt lat="-34.922558" lon="-58.048573">
        <time>2021-05-01T19:04:52Z</time>
      </trkpt>
      <trkpt lat="-34.922516" lon="-58.04853">
        <time>2021-05-01T19:04:53Z</time>
      </trkpt>
      <trkpt lat="-34.92247" lon="-58.048492">
        <time>2021-05-01T19:04:54Z</time>
      </trkpt>
      <trkpt lat="-34.922432" lon="-58.04845">
        <time>2021-05-01T19:04:55Z</time>
      </trkpt>
      <trkpt lat="-34.922394" lon="-58.048412">
        <time>2021-05-01T19:04:56Z</time>
      </trkpt>
      <trkpt lat="-34.922356" lon="-58.048378">
        <time>2021-05-01T19:04:57Z</time>
      </trkpt>
      <trkpt lat="-34.922287" lon="-58.04832">
        <time>2021-05-01T19:04:59Z</time>
      </trkpt>
      <trkpt lat="-34.92225" lon="-58.04828">
        <time>2021-05-01T19:05:00Z</time>
      </trkpt>
      <trkpt lat="-34.922207" lon="-58.048237">
        <time>2021-05-01T19:05:01Z</time>
      </trkpt>
      <trkpt lat="-34.92217" lon="-58.048203">
        <time>2021-05-01T19:05:02Z</time>
      </trkpt>
      <trkpt lat="-34.92213" lon="-58.04817">
        <time>2021-05-01T19:05:03Z</time>
      </trkpt>
      <trkpt lat="-34.922096" lon="-58.04813">
        <time>2021-05-01T19:05:04Z</time>
      </trkpt>
      <trkpt lat="-34.92206" lon="-58.04809">
        <time>2021-05-01T19:05:05Z</time>
      </trkpt>
      <trkpt lat="-34.922012" lon="-58.048058">
        <time>2021-05-01T19:05:06Z</time>
      </trkpt>
      <trkpt lat="-34.92197" lon="-58.048016">
        <time>2021-05-01T19:05:07Z</time>
      </trkpt>
      <trkpt lat="-34.92193" lon="-58.047974">
        <time>2021-05-01T19:05:08Z</time>
      </trkpt>
      <trkpt lat="-34.921883" lon="-58.04794">
        <time>2021-05-01T19:05:09Z</time>
      </trkpt>
      <trkpt lat="-34.921844" lon="-58.0479">
        <time>2021-05-01T19:05:10Z</time>
      </trkpt>
      <trkpt lat="-34.921806" lon="-58.047863">
        <time>2021-05-01T19:05:11Z</time>
      </trkpt>
      <trkpt lat="-34.921764" lon="-58.04783">
        <time>2021-05-01T19:05:12Z</time>
      </trkpt>
      <trkpt lat="-34.92173" lon="-58.0478">
        <time>2021-05-01T19:05:13Z</time>
      </trkpt>
      <trkpt lat="-34.92169" lon="-58.047764">
        <time>2021-05-01T19:05:14Z</time>
      </trkpt>
      <trkpt lat="-34.921654" lon="-58.047733">
        <time>2021-05-01T19:05:15Z</time>
      </trkpt>
      <trkpt lat="-34.921616" lon="-58.0477">
        <time>2021-05-01T19:05:16Z</time>
      </trkpt>
      <trkpt lat="-34.921574" lon="-58.04767">
        <time>2021-05-01T19:05:17Z</time>
      </trkpt>
      <trkpt lat="-34.921535" lon="-58.047638">
        <time>2021-05-01T19:05:18Z</time>
      </trkpt>
      <trkpt lat="-34.921497" lon="-58.047604">
        <time>2021-05-01T19:05:19Z</time>
      </trkpt>
      <trkpt lat="-34.921463" lon="-58.04757">
        <time>2021-05-01T19:05:20Z</time>
      </trkpt>
      <trkpt lat="-34.921394" lon="-58.047512">
        <time>2021-05-01T19:05:22Z</time>
      </trkpt>
      <trkpt lat="-34.921345" lon="-58.047474">
        <time>2021-05-01T19:05:24Z</time>
      </trkpt>
      <trkpt lat="-34.921272" lon="-58.04741">
        <time>2021-05-01T19:05:26Z</time>
      </trkpt>
      <trkpt lat="-34.92123" lon="-58.04736">
        <time>2021-05-01T19:05:27Z</time>
      </trkpt>
      <trkpt lat="-34.921192" lon="-58.047314">
        <time>2021-05-01T19:05:28Z</time>
      </trkpt>
      <trkpt lat="-34.92115" lon="-58.047268">
        <time>2021-05-01T19:05:29Z</time>
      </trkpt>
      <trkpt lat="-34.921116" lon="-58.047226">
        <time>2021-05-01T19:05:30Z</time>
      </trkpt>
      <trkpt lat="-34.921078" lon="-58.04719">
        <time>2021-05-01T19:05:31Z</time>
      </trkpt>
      <trkpt lat="-34.92104" lon="-58.047153">
        <time>2021-05-01T19:05:32Z</time>
      </trkpt>
      <trkpt lat="-34.921" lon="-58.047123">
        <time>2021-05-01T19:05:33Z</time>
      </trkpt>
      <trkpt lat="-34.920963" lon="-58.04709">
        <time>2021-05-01T19:05:34Z</time>
      </trkpt>
      <trkpt lat="-34.920925" lon="-58.047054">
        <time>2021-05-01T19:05:35Z</time>
      </trkpt>
      <trkpt lat="-34.92088" lon="-58.047016">
        <time>2021-05-01T19:05:36Z</time>
      </trkpt>
      <trkpt lat="-34.92083" lon="-58.046978">
        <time>2021-05-01T19:05:37Z</time>
      </trkpt>
      <trkpt lat="-34.920784" lon="-58.04694">
        <time>2021-05-01T19:05:38Z</time>
      </trkpt>
      <trkpt lat="-34.920742" lon="-58.046898">
        <time>2021-05-01T19:05:39Z</time>
      </trkpt>
      <trkpt lat="-34.920696" lon="-58.046852">
        <time>2021-05-01T19:05:40Z</time>
      </trkpt>
      <trkpt lat="-34.92065" lon="-58.046814">
        <time>2021-05-01T19:05:41Z</time>
      </trkpt>
      <trkpt lat="-34.92061" lon="-58.046772">
        <time>2021-05-01T19:05:42Z</time>
      </trkpt>
      <trkpt lat="-34.920567" lon="-58.046738">
        <time>2021-05-01T19:05:43Z</time>
      </trkpt>
      <trkpt lat="-34.920494" lon="-58.046688">
        <time>2021-05-01T19:05:45Z</time>
      </trkpt>
      <trkpt lat="-34.920433" lon="-58.046623">
        <time>2021-05-01T19:05:47Z</time>
      </trkpt>
      <trkpt lat="-34.9204" lon="-58.04658">
        <time>2021-05-01T19:05:48Z</time>
      </trkpt>
      <trkpt lat="-34.92036" lon="-58.046543">
        <time>2021-05-01T19:05:49Z</time>
      </trkpt>
      <trkpt lat="-34.92032" lon="-58.046513">
        <time>2021-05-01T19:05:50Z</time>
      </trkpt>
      <trkpt lat="-34.920273" lon="-58.04648">
        <time>2021-05-01T19:05:51Z</time>
      </trkpt>
      <trkpt lat="-34.92023" lon="-58.046436">
        <time>2021-05-01T19:05:52Z</time>
      </trkpt>
      <trkpt lat="-34.920193" lon="-58.046394">
        <time>2021-05-01T19:05:53Z</time>
      </trkpt>
      <trkpt lat="-34.92016" lon="-58.046352">
        <time>2021-05-01T19:05:54Z</time>
      </trkpt>
      <trkpt lat="-34.92012" lon="-58.046318">
        <time>2021-05-01T19:05:55Z</time>
      </trkpt>
      <trkpt lat="-34.92008" lon="-58.04628">
        <time>2021-05-01T19:05:56Z</time>
      </trkpt>
      <trkpt lat="-34.920036" lon="-58.04624">
        <time>2021-05-01T19:05:57Z</time>
      </trkpt>
      <trkpt lat="-34.92" lon="-58.046207">
        <time>2021-05-01T19:05:58Z</time>
      </trkpt>
      <trkpt lat="-34.919952" lon="-58.04617">
        <time>2021-05-01T19:05:59Z</time>
      </trkpt>
      <trkpt lat="-34.919914" lon="-58.04613">
        <time>2021-05-01T19:06:00Z</time>
      </trkpt>
      <trkpt lat="-34.919872" lon="-58.046097">
        <time>2021-05-01T19:06:01Z</time>
      </trkpt>
      <trkpt lat="-34.919827" lon="-58.046062">
        <time>2021-05-01T19:06:02Z</time>
      </trkpt>
      <trkpt lat="-34.91978" lon="-58.046032">
        <time>2021-05-01T19:06:03Z</time>
      </trkpt>
      <trkpt lat="-34.919735" lon="-58.045994">
        <time>2021-05-01T19:06:04Z</time>
      </trkpt>
      <trkpt lat="-34.919693" lon="-58.04595">
        <time>2021-05-01T19:06:05Z</time>
      </trkpt>
      <trkpt lat="-34.919647" lon="-58.04591">
        <time>2021-05-01T19:06:06Z</time>
      </trkpt>
      <trkpt lat="-34.919605" lon="-58.045864">
        <time>2021-05-01T19:06:07Z</time>
      </trkpt>
      <trkpt lat="-34.919563" lon="-58.04582">
        <time>2021-05-01T19:06:08Z</time>
      </trkpt>
      <trkpt lat="-34.91952" lon="-58.045776">
        <time>2021-05-01T19:06:09Z</time>
      </trkpt>
      <trkpt lat="-34.919483" lon="-58.04573">
        <time>2021-05-01T19:06:10Z</time>
      </trkpt>
      <trkpt lat="-34.919445" lon="-58.045685">
        <time>2021-05-01T19:06:11Z</time>
      </trkpt>
      <trkpt lat="-34.9194" lon="-58.045643">
        <time>2021-05-01T19:06:12Z</time>
      </trkpt>
      <trkpt lat="-34.919357" lon="-58.0456">
        <time>2021-05-01T19:06:13Z</time>
      </trkpt>
      <trkpt lat="-34.91931" lon="-58.045567">
        <time>2021-05-01T19:06:14Z</time>
      </trkpt>
      <trkpt lat="-34.919262" lon="-58.045544">
        <time>2021-05-01T19:06:15Z</time>
      </trkpt>
      <trkpt lat="-34.919212" lon="-58.045513">
        <time>2021-05-01T19:06:16Z</time>
      </trkpt>
      <trkpt lat="-34.91917" lon="-58.04548">
        <time>2021-05-01T19:06:17Z</time>
      </trkpt>
      <trkpt lat="-34.919125" lon="-58.045437">
        <time>2021-05-01T19:06:18Z</time>
      </trkpt>
      <trkpt lat="-34.91908" lon="-58.045395">
        <time>2021-05-01T19:06:19Z</time>
      </trkpt>
      <trkpt lat="-34.919037" lon="-58.045353">
        <time>2021-05-01T19:06:20Z</time>
      </trkpt>
      <trkpt lat="-34.91899" lon="-58.04531">
        <time>2021-05-01T19:06:21Z</time>
      </trkpt>
      <trkpt lat="-34.918945" lon="-58.04527">
        <time>2021-05-01T19:06:22Z</time>
      </trkpt>
      <trkpt lat="-34.918903" lon="-58.045223">
        <time>2021-05-01T19:06:23Z</time>
      </trkpt>
      <trkpt lat="-34.91886" lon="-58.04518">
        <time>2021-05-01T19:06:24Z</time>
      </trkpt>
      <trkpt lat="-34.91882" lon="-58.04514">
        <time>2021-05-01T19:06:25Z</time>
      </trkpt>
      <trkpt lat="-34.91878" lon="-58.045105">
        <time>2021-05-01T19:06:26Z</time>
      </trkpt>
      <trkpt lat="-34.91871" lon="-58.045036">
        <time>2021-05-01T19:06:28Z</time>
      </trkpt>
      <trkpt lat="-34.91867" lon="-58.045006">
        <time>2021-05-01T19:06:29Z</time>
      </trkpt>
      <trkpt lat="-34.918633" lon="-58.044975">
        <time>2021-05-01T19:06:30Z</time>
      </trkpt>
      <trkpt lat="-34.91859" lon="-58.044937">
        <time>2021-05-01T19:06:31Z</time>
      </trkpt>
      <trkpt lat="-34.91855" lon="-58.044907">
        <time>2021-05-01T19:06:32Z</time>
      </trkpt>
      <trkpt lat="-34.91851" lon="-58.04487">
        <time>2021-05-01T19:06:33Z</time>
      </trkpt>
      <trkpt lat="-34.918472" lon="-58.044834">
        <time>2021-05-01T19:06:34Z</time>
      </trkpt>
      <trkpt lat="-34.918434" lon="-58.044796">
        <time>2021-05-01T19:06:35Z</time>
      </trkpt>
      <trkpt lat="-34.918396" lon="-58.044758">
        <time>2021-05-01T19:06:36Z</time>
      </trkpt>
      <trkpt lat="-34.918346" lon="-58.044712">
        <time>2021-05-01T19:06:37Z</time>
      </trkpt>
      <trkpt lat="-34.918304" lon="-58.04467">
        <time>2021-05-01T19:06:38Z</time>
      </trkpt>
      <trkpt lat="-34.918266" lon="-58.04463">
        <time>2021-05-01T19:06:39Z</time>
      </trkpt>
      <trkpt lat="-34.91822" lon="-58.04459">
        <time>2021-05-01T19:06:40Z</time>
      </trkpt>
      <trkpt lat="-34.91818" lon="-58.04455">
        <time>2021-05-01T19:06:41Z</time>
      </trkpt>
      <trkpt lat="-34.91814" lon="-58.044514">
        <time>2021-05-01T19:06:42Z</time>
      </trkpt>
      <trkpt lat="-34.9181" lon="-58.044476">
        <time>2021-05-01T19:06:43Z</time>
      </trkpt>
      <trkpt lat="-34.918056" lon="-58.044437">
        <time>2021-05-01T19:06:44Z</time>
      </trkpt>
      <trkpt lat="-34.918015" lon="-58.044395">
        <time>2021-05-01T19:06:45Z</time>
      </trkpt>
      <trkpt lat="-34.917976" lon="-58.044357">
        <time>2021-05-01T19:06:46Z</time>
      </trkpt>
      <trkpt lat="-34.91794" lon="-58.044323">
        <time>2021-05-01T19:06:47Z</time>
      </trkpt>
      <trkpt lat="-34.917892" lon="-58.044285">
        <time>2021-05-01T19:06:48Z</time>
      </trkpt>
      <trkpt lat="-34.91785" lon="-58.044243">
        <time>2021-05-01T19:06:49Z</time>
      </trkpt>
      <trkpt lat="-34.91781" lon="-58.044193">
        <time>2021-05-01T19:06:50Z</time>
      </trkpt>
      <trkpt lat="-34.917763" lon="-58.044144">
        <time>2021-05-01T19:06:51Z</time>
      </trkpt>
      <trkpt lat="-34.917717" lon="-58.044098">
        <time>2021-05-01T19:06:52Z</time>
      </trkpt>
      <trkpt lat="-34.917667" lon="-58.044052">
        <time>2021-05-01T19:06:53Z</time>
      </trkpt>
      <trkpt lat="-34.917614" lon="-58.04401">
        <time>2021-05-01T19:06:54Z</time>
      </trkpt>
      <trkpt lat="-34.917564" lon="-58.04396">
        <time>2021-05-01T19:06:55Z</time>
      </trkpt>
      <trkpt lat="-34.917515" lon="-58.04392">
        <time>2021-05-01T19:06:56Z</time>
      </trkpt>
      <trkpt lat="-34.917465" lon="-58.043877">
        <time>2021-05-01T19:06:57Z</time>
      </trkpt>
      <trkpt lat="-34.91742" lon="-58.043835">
        <time>2021-05-01T19:06:58Z</time>
      </trkpt>
      <trkpt lat="-34.917374" lon="-58.04379">
        <time>2021-05-01T19:06:59Z</time>
      </trkpt>
      <trkpt lat="-34.91733" lon="-58.04374">
        <time>2021-05-01T19:07:00Z</time>
      </trkpt>
      <trkpt lat="-34.91729" lon="-58.043697">
        <time>2021-05-01T19:07:01Z</time>
      </trkpt>
      <trkpt lat="-34.917244" lon="-58.04366">
        <time>2021-05-01T19:07:02Z</time>
      </trkpt>
      <trkpt lat="-34.917202" lon="-58.043613">
        <time>2021-05-01T19:07:03Z</time>
      </trkpt>
      <trkpt lat="-34.91716" lon="-58.043575">
        <time>2021-05-01T19:07:04Z</time>
      </trkpt>
      <trkpt lat="-34.91712" lon="-58.043537">
        <time>2021-05-01T19:07:05Z</time>
      </trkpt>
      <trkpt lat="-34.917072" lon="-58.043495">
        <time>2021-05-01T19:07:06Z</time>
      </trkpt>
      <trkpt lat="-34.917027" lon="-58.043453">
        <time>2021-05-01T19:07:07Z</time>
      </trkpt>
      <trkpt lat="-34.91698" lon="-58.043407">
        <time>2021-05-01T19:07:08Z</time>
      </trkpt>
      <trkpt lat="-34.916935" lon="-58.043365">
        <time>2021-05-01T19:07:09Z</time>
      </trkpt>
      <trkpt lat="-34.91689" lon="-58.04332">
        <time>2021-05-01T19:07:10Z</time>
      </trkpt>
      <trkpt lat="-34.916843" lon="-58.043278">
        <time>2021-05-01T19:07:11Z</time>
      </trkpt>
      <trkpt lat="-34.9168" lon="-58.04324">
        <time>2021-05-01T19:07:12Z</time>
      </trkpt>
      <trkpt lat="-34.916756" lon="-58.0432">
        <time>2021-05-01T19:07:13Z</time>
      </trkpt>
      <trkpt lat="-34.916714" lon="-58.043167">
        <time>2021-05-01T19:07:14Z</time>
      </trkpt>
      <trkpt lat="-34.916676" lon="-58.043137">
        <time>2021-05-01T19:07:15Z</time>
      </trkpt>
      <trkpt lat="-34.916607" lon="-58.04308">
        <time>2021-05-01T19:07:17Z</time>
      </trkpt>
      <trkpt lat="-34.916542" lon="-58.04302">
        <time>2021-05-01T19:07:19Z</time>
      </trkpt>
      <trkpt lat="-34.91648" lon="-58.042946">
        <time>2021-05-01T19:07:21Z</time>
      </trkpt>
      <trkpt lat="-34.91643" lon="-58.042904">
        <time>2021-05-01T19:07:22Z</time>
      </trkpt>
      <trkpt lat="-34.91639" lon="-58.04287">
        <time>2021-05-01T19:07:23Z</time>
      </trkpt>
      <trkpt lat="-34.916348" lon="-58.042828">
        <time>2021-05-01T19:07:24Z</time>
      </trkpt>
      <trkpt lat="-34.9163" lon="-58.04278">
        <time>2021-05-01T19:07:25Z</time>
      </trkpt>
      <trkpt lat="-34.916256" lon="-58.042736">
        <time>2021-05-01T19:07:26Z</time>
      </trkpt>
      <trkpt lat="-34.91621" lon="-58.04269">
        <time>2021-05-01T19:07:27Z</time>
      </trkpt>
      <trkpt lat="-34.916164" lon="-58.04265">
        <time>2021-05-01T19:07:28Z</time>
      </trkpt>
      <trkpt lat="-34.91612" lon="-58.042603">
        <time>2021-05-01T19:07:29Z</time>
      </trkpt>
      <trkpt lat="-34.916073" lon="-58.04256">
        <time>2021-05-01T19:07:30Z</time>
      </trkpt>
      <trkpt lat="-34.91603" lon="-58.042515">
        <time>2021-05-01T19:07:31Z</time>
      </trkpt>
      <trkpt lat="-34.91599" lon="-58.04247">
        <time>2021-05-01T19:07:32Z</time>
      </trkpt>
      <trkpt lat="-34.915943" lon="-58.042423">
        <time>2021-05-01T19:07:33Z</time>
      </trkpt>
      <trkpt lat="-34.9159" lon="-58.04238">
        <time>2021-05-01T19:07:34Z</time>
      </trkpt>
      <trkpt lat="-34.915855" lon="-58.042336">
        <time>2021-05-01T19:07:35Z</time>
      </trkpt>
      <trkpt lat="-34.915813" lon="-58.04229">
        <time>2021-05-01T19:07:36Z</time>
      </trkpt>
      <trkpt lat="-34.915768" lon="-58.042248">
        <time>2021-05-01T19:07:37Z</time>
      </trkpt>
      <trkpt lat="-34.915718" lon="-58.042206">
        <time>2021-05-01T19:07:38Z</time>
      </trkpt>
      <trkpt lat="-34.915676" lon="-58.042164">
        <time>2021-05-01T19:07:39Z</time>
      </trkpt>
      <trkpt lat="-34.91563" lon="-58.042126">
        <time>2021-05-01T19:07:40Z</time>
      </trkpt>
      <trkpt lat="-34.915585" lon="-58.042084">
        <time>2021-05-01T19:07:41Z</time>
      </trkpt>
      <trkpt lat="-34.915543" lon="-58.04204">
        <time>2021-05-01T19:07:42Z</time>
      </trkpt>
      <trkpt lat="-34.915497" lon="-58.042">
        <time>2021-05-01T19:07:43Z</time>
      </trkpt>
      <trkpt lat="-34.91545" lon="-58.041958">
        <time>2021-05-01T19:07:44Z</time>
      </trkpt>
      <trkpt lat="-34.91541" lon="-58.04192">
        <time>2021-05-01T19:07:45Z</time>
      </trkpt>
      <trkpt lat="-34.915367" lon="-58.041878">
        <time>2021-05-01T19:07:46Z</time>
      </trkpt>
      <trkpt lat="-34.915325" lon="-58.04184">
        <time>2021-05-01T19:07:47Z</time>
      </trkpt>
      <trkpt lat="-34.915283" lon="-58.0418">
        <time>2021-05-01T19:07:48Z</time>
      </trkpt>
      <trkpt lat="-34.915237" lon="-58.04176">
        <time>2021-05-01T19:07:49Z</time>
      </trkpt>
      <trkpt lat="-34.91519" lon="-58.041718">
        <time>2021-05-01T19:07:50Z</time>
      </trkpt>
      <trkpt lat="-34.915146" lon="-58.04168">
        <time>2021-05-01T19:07:51Z</time>
      </trkpt>
      <trkpt lat="-34.9151" lon="-58.04164">
        <time>2021-05-01T19:07:52Z</time>
      </trkpt>
      <trkpt lat="-34.915062" lon="-58.041607">
        <time>2021-05-01T19:07:53Z</time>
      </trkpt>
      <trkpt lat="-34.91502" lon="-58.04157">
        <time>2021-05-01T19:07:54Z</time>
      </trkpt>
      <trkpt lat="-34.914978" lon="-58.041534">
        <time>2021-05-01T19:07:55Z</time>
      </trkpt>
      <trkpt lat="-34.914936" lon="-58.041492">
        <time>2021-05-01T19:07:56Z</time>
      </trkpt>
      <trkpt lat="-34.914898" lon="-58.041454">
        <time>2021-05-01T19:07:57Z</time>
      </trkpt>
      <trkpt lat="-34.914856" lon="-58.041416">
        <time>2021-05-01T19:07:58Z</time>
      </trkpt>
      <trkpt lat="-34.91481" lon="-58.041374">
        <time>2021-05-01T19:07:59Z</time>
      </trkpt>
      <trkpt lat="-34.914772" lon="-58.041332">
        <time>2021-05-01T19:08:00Z</time>
      </trkpt>
      <trkpt lat="-34.91473" lon="-58.04129">
        <time>2021-05-01T19:08:01Z</time>
      </trkpt>
      <trkpt lat="-34.91469" lon="-58.041252">
        <time>2021-05-01T19:08:02Z</time>
      </trkpt>
      <trkpt lat="-34.914646" lon="-58.041218">
        <time>2021-05-01T19:08:03Z</time>
      </trkpt>
      <trkpt lat="-34.914608" lon="-58.041183">
        <time>2021-05-01T19:08:04Z</time>
      </trkpt>
      <trkpt lat="-34.914566" lon="-58.04115">
        <time>2021-05-01T19:08:05Z</time>
      </trkpt>
      <trkpt lat="-34.914528" lon="-58.041115">
        <time>2021-05-01T19:08:06Z</time>
      </trkpt>
      <trkpt lat="-34.914486" lon="-58.04108">
        <time>2021-05-01T19:08:07Z</time>
      </trkpt>
      <trkpt lat="-34.914444" lon="-58.041046">
        <time>2021-05-01T19:08:08Z</time>
      </trkpt>
      <trkpt lat="-34.914402" lon="-58.041008">
        <time>2021-05-01T19:08:09Z</time>
      </trkpt>
      <trkpt lat="-34.91436" lon="-58.04097">
        <time>2021-05-01T19:08:10Z</time>
      </trkpt>
      <trkpt lat="-34.914318" lon="-58.04093">
        <time>2021-05-01T19:08:11Z</time>
      </trkpt>
      <trkpt lat="-34.914276" lon="-58.040894">
        <time>2021-05-01T19:08:12Z</time>
      </trkpt>
      <trkpt lat="-34.91423" lon="-58.040863">
        <time>2021-05-01T19:08:13Z</time>
      </trkpt>
      <trkpt lat="-34.91419" lon="-58.040825">
        <time>2021-05-01T19:08:14Z</time>
      </trkpt>
      <trkpt lat="-34.914146" lon="-58.04079">
        <time>2021-05-01T19:08:15Z</time>
      </trkpt>
      <trkpt lat="-34.9141" lon="-58.040752">
        <time>2021-05-01T19:08:16Z</time>
      </trkpt>
      <trkpt lat="-34.914062" lon="-58.040714">
        <time>2021-05-01T19:08:17Z</time>
      </trkpt>
      <trkpt lat="-34.91402" lon="-58.040676">
        <time>2021-05-01T19:08:18Z</time>
      </trkpt>
      <trkpt lat="-34.91398" lon="-58.04064">
        <time>2021-05-01T19:08:19Z</time>
      </trkpt>
      <trkpt lat="-34.913933" lon="-58.040607">
        <time>2021-05-01T19:08:20Z</time>
      </trkpt>
      <trkpt lat="-34.913887" lon="-58.040565">
        <time>2021-05-01T19:08:21Z</time>
      </trkpt>
      <trkpt lat="-34.913845" lon="-58.040524">
        <time>2021-05-01T19:08:22Z</time>
      </trkpt>
      <trkpt lat="-34.9138" lon="-58.04048">
        <time>2021-05-01T19:08:23Z</time>
      </trkpt>
      <trkpt lat="-34.913754" lon="-58.040443">
        <time>2021-05-01T19:08:24Z</time>
      </trkpt>
      <trkpt lat="-34.91371" lon="-58.040398">
        <time>2021-05-01T19:08:25Z</time>
      </trkpt>
      <trkpt lat="-34.913666" lon="-58.040356">
        <time>2021-05-01T19:08:26Z</time>
      </trkpt>
      <trkpt lat="-34.91362" lon="-58.040314">
        <time>2021-05-01T19:08:27Z</time>
      </trkpt>
      <trkpt lat="-34.913574" lon="-58.04027">
        <time>2021-05-01T19:08:28Z</time>
      </trkpt>
      <trkpt lat="-34.91353" lon="-58.04023">
        <time>2021-05-01T19:08:29Z</time>
      </trkpt>
      <trkpt lat="-34.913483" lon="-58.040188">
        <time>2021-05-01T19:08:30Z</time>
      </trkpt>
      <trkpt lat="-34.913437" lon="-58.040146">
        <time>2021-05-01T19:08:31Z</time>
      </trkpt>
      <trkpt lat="-34.913395" lon="-58.040104">
        <time>2021-05-01T19:08:32Z</time>
      </trkpt>
      <trkpt lat="-34.91335" lon="-58.04006">
        <time>2021-05-01T19:08:33Z</time>
      </trkpt>
      <trkpt lat="-34.913307" lon="-58.040012">
        <time>2021-05-01T19:08:34Z</time>
      </trkpt>
      <trkpt lat="-34.913265" lon="-58.03997">
        <time>2021-05-01T19:08:35Z</time>
      </trkpt>
      <trkpt lat="-34.91322" lon="-58.03994">
        <time>2021-05-01T19:08:36Z</time>
      </trkpt>
      <trkpt lat="-34.913174" lon="-58.0399">
        <time>2021-05-01T19:08:37Z</time>
      </trkpt>
      <trkpt lat="-34.913136" lon="-58.039867">
        <time>2021-05-01T19:08:38Z</time>
      </trkpt>
      <trkpt lat="-34.913094" lon="-58.03982">
        <time>2021-05-01T19:08:39Z</time>
      </trkpt>
      <trkpt lat="-34.91305" lon="-58.039783">
        <time>2021-05-01T19:08:40Z</time>
      </trkpt>
      <trkpt lat="-34.91301" lon="-58.039745">
        <time>2021-05-01T19:08:41Z</time>
      </trkpt>
      <trkpt lat="-34.912964" lon="-58.039707">
        <time>2021-05-01T19:08:42Z</time>
      </trkpt>
      <trkpt lat="-34.91292" lon="-58.03967">
        <time>2021-05-01T19:08:43Z</time>
      </trkpt>
      <trkpt lat="-34.912876" lon="-58.039623">
        <time>2021-05-01T19:08:44Z</time>
      </trkpt>
      <trkpt lat="-34.912838" lon="-58.03958">
        <time>2021-05-01T19:08:45Z</time>
      </trkpt>
      <trkpt lat="-34.912792" lon="-58.039547">
        <time>2021-05-01T19:08:46Z</time>
      </trkpt>
      <trkpt lat="-34.91275" lon="-58.039505">
        <time>2021-05-01T19:08:47Z</time>
      </trkpt>
      <trkpt lat="-34.912704" lon="-58.039467">
        <time>2021-05-01T19:08:48Z</time>
      </trkpt>
      <trkpt lat="-34.91266" lon="-58.039433">
        <time>2021-05-01T19:08:49Z</time>
      </trkpt>
      <trkpt lat="-34.912613" lon="-58.039387">
        <time>2021-05-01T19:08:50Z</time>
      </trkpt>
      <trkpt lat="-34.912567" lon="-58.03935">
        <time>2021-05-01T19:08:51Z</time>
      </trkpt>
      <trkpt lat="-34.91252" lon="-58.039303">
        <time>2021-05-01T19:08:52Z</time>
      </trkpt>
      <trkpt lat="-34.91248" lon="-58.03926">
        <time>2021-05-01T19:08:53Z</time>
      </trkpt>
      <trkpt lat="-34.912437" lon="-58.03922">
        <time>2021-05-01T19:08:54Z</time>
      </trkpt>
      <trkpt lat="-34.9124" lon="-58.03918">
        <time>2021-05-01T19:08:55Z</time>
      </trkpt>
      <trkpt lat="-34.912365" lon="-58.039146">
        <time>2021-05-01T19:08:56Z</time>
      </trkpt>
      <trkpt lat="-34.912327" lon="-58.03911">
        <time>2021-05-01T19:08:57Z</time>
      </trkpt>
      <trkpt lat="-34.912285" lon="-58.039066">
        <time>2021-05-01T19:08:58Z</time>
      </trkpt>
      <trkpt lat="-34.912243" lon="-58.03903">
        <time>2021-05-01T19:08:59Z</time>
      </trkpt>
      <trkpt lat="-34.91221" lon="-58.03899">
        <time>2021-05-01T19:09:00Z</time>
      </trkpt>
      <trkpt lat="-34.912167" lon="-58.038956">
        <time>2021-05-01T19:09:01Z</time>
      </trkpt>
      <trkpt lat="-34.91213" lon="-58.038918">
        <time>2021-05-01T19:09:02Z</time>
      </trkpt>
      <trkpt lat="-34.912086" lon="-58.03888">
        <time>2021-05-01T19:09:03Z</time>
      </trkpt>
      <trkpt lat="-34.91205" lon="-58.03884">
        <time>2021-05-01T19:09:04Z</time>
      </trkpt>
      <trkpt lat="-34.912003" lon="-58.038807">
        <time>2021-05-01T19:09:05Z</time>
      </trkpt>
      <trkpt lat="-34.911964" lon="-58.038773">
        <time>2021-05-01T19:09:06Z</time>
      </trkpt>
      <trkpt lat="-34.911926" lon="-58.03874">
        <time>2021-05-01T19:09:07Z</time>
      </trkpt>
      <trkpt lat="-34.911892" lon="-58.0387">
        <time>2021-05-01T19:09:08Z</time>
      </trkpt>
      <trkpt lat="-34.91185" lon="-58.038662">
        <time>2021-05-01T19:09:09Z</time>
      </trkpt>
      <trkpt lat="-34.911808" lon="-58.03862">
        <time>2021-05-01T19:09:10Z</time>
      </trkpt>
      <trkpt lat="-34.91177" lon="-58.038586">
        <time>2021-05-01T19:09:11Z</time>
      </trkpt>
      <trkpt lat="-34.911728" lon="-58.038548">
        <time>2021-05-01T19:09:12Z</time>
      </trkpt>
      <trkpt lat="-34.911686" lon="-58.03851">
        <time>2021-05-01T19:09:13Z</time>
      </trkpt>
      <trkpt lat="-34.911636" lon="-58.038464">
        <time>2021-05-01T19:09:14Z</time>
      </trkpt>
      <trkpt lat="-34.911594" lon="-58.03842">
        <time>2021-05-01T19:09:15Z</time>
      </trkpt>
      <trkpt lat="-34.911552" lon="-58.038376">
        <time>2021-05-01T19:09:16Z</time>
      </trkpt>
      <trkpt lat="-34.911514" lon="-58.038334">
        <time>2021-05-01T19:09:17Z</time>
      </trkpt>
      <trkpt lat="-34.911472" lon="-58.03829">
        <time>2021-05-01T19:09:18Z</time>
      </trkpt>
      <trkpt lat="-34.911427" lon="-58.038246">
        <time>2021-05-01T19:09:19Z</time>
      </trkpt>
      <trkpt lat="-34.91138" lon="-58.038204">
        <time>2021-05-01T19:09:20Z</time>
      </trkpt>
      <trkpt lat="-34.911335" lon="-58.038162">
        <time>2021-05-01T19:09:21Z</time>
      </trkpt>
      <trkpt lat="-34.911293" lon="-58.03812">
        <time>2021-05-01T19:09:22Z</time>
      </trkpt>
      <trkpt lat="-34.911255" lon="-58.03808">
        <time>2021-05-01T19:09:23Z</time>
      </trkpt>
      <trkpt lat="-34.911217" lon="-58.038036">
        <time>2021-05-01T19:09:24Z</time>
      </trkpt>
      <trkpt lat="-34.91118" lon="-58.037994">
        <time>2021-05-01T19:09:25Z</time>
      </trkpt>
      <trkpt lat="-34.91114" lon="-58.037956">
        <time>2021-05-01T19:09:26Z</time>
      </trkpt>
      <trkpt lat="-34.911102" lon="-58.03792">
        <time>2021-05-01T19:09:27Z</time>
      </trkpt>
      <trkpt lat="-34.911064" lon="-58.03789">
        <time>2021-05-01T19:09:28Z</time>
      </trkpt>
      <trkpt lat="-34.91099" lon="-58.037838">
        <time>2021-05-01T19:09:30Z</time>
      </trkpt>
      <trkpt lat="-34.910934" lon="-58.03778">
        <time>2021-05-01T19:09:32Z</time>
      </trkpt>
      <trkpt lat="-34.910866" lon="-58.037724">
        <time>2021-05-01T19:09:34Z</time>
      </trkpt>
      <trkpt lat="-34.9108" lon="-58.037666">
        <time>2021-05-01T19:09:36Z</time>
      </trkpt>
      <trkpt lat="-34.910763" lon="-58.037632">
        <time>2021-05-01T19:09:37Z</time>
      </trkpt>
      <trkpt lat="-34.910713" lon="-58.037594">
        <time>2021-05-01T19:09:38Z</time>
      </trkpt>
      <trkpt lat="-34.910667" lon="-58.037556">
        <time>2021-05-01T19:09:39Z</time>
      </trkpt>
      <trkpt lat="-34.910625" lon="-58.037518">
        <time>2021-05-01T19:09:40Z</time>
      </trkpt>
      <trkpt lat="-34.910583" lon="-58.03748">
        <time>2021-05-01T19:09:41Z</time>
      </trkpt>
      <trkpt lat="-34.910538" lon="-58.037445">
        <time>2021-05-01T19:09:42Z</time>
      </trkpt>
      <trkpt lat="-34.910492" lon="-58.037415">
        <time>2021-05-01T19:09:43Z</time>
      </trkpt>
      <trkpt lat="-34.91045" lon="-58.03738">
        <time>2021-05-01T19:09:44Z</time>
      </trkpt>
      <trkpt lat="-34.910404" lon="-58.037346">
        <time>2021-05-01T19:09:45Z</time>
      </trkpt>
      <trkpt lat="-34.910362" lon="-58.03732">
        <time>2021-05-01T19:09:46Z</time>
      </trkpt>
      <trkpt lat="-34.91032" lon="-58.03729">
        <time>2021-05-01T19:09:47Z</time>
      </trkpt>
      <trkpt lat="-34.910282" lon="-58.037254">
        <time>2021-05-01T19:09:48Z</time>
      </trkpt>
      <trkpt lat="-34.91024" lon="-58.037212">
        <time>2021-05-01T19:09:49Z</time>
      </trkpt>
      <trkpt lat="-34.9102" lon="-58.037174">
        <time>2021-05-01T19:09:50Z</time>
      </trkpt>
      <trkpt lat="-34.910156" lon="-58.037136">
        <time>2021-05-01T19:09:51Z</time>
      </trkpt>
      <trkpt lat="-34.910114" lon="-58.037098">
        <time>2021-05-01T19:09:52Z</time>
      </trkpt>
      <trkpt lat="-34.910076" lon="-58.03706">
        <time>2021-05-01T19:09:53Z</time>
      </trkpt>
      <trkpt lat="-34.910034" lon="-58.037025">
        <time>2021-05-01T19:09:54Z</time>
      </trkpt>
      <trkpt lat="-34.909996" lon="-58.03698">
        <time>2021-05-01T19:09:55Z</time>
      </trkpt>
      <trkpt lat="-34.909946" lon="-58.03694">
        <time>2021-05-01T19:09:56Z</time>
      </trkpt>
      <trkpt lat="-34.9099" lon="-58.0369">
        <time>2021-05-01T19:09:57Z</time>
      </trkpt>
      <trkpt lat="-34.90986" lon="-58.036858">
        <time>2021-05-01T19:09:58Z</time>
      </trkpt>
      <trkpt lat="-34.909817" lon="-58.036816">
        <time>2021-05-01T19:09:59Z</time>
      </trkpt>
      <trkpt lat="-34.909775" lon="-58.036777">
        <time>2021-05-01T19:10:00Z</time>
      </trkpt>
      <trkpt lat="-34.909737" lon="-58.03674">
        <time>2021-05-01T19:10:01Z</time>
      </trkpt>
      <trkpt lat="-34.909702" lon="-58.0367">
        <time>2021-05-01T19:10:02Z</time>
      </trkpt>
      <trkpt lat="-34.909668" lon="-58.036663">
        <time>2021-05-01T19:10:03Z</time>
      </trkpt>
      <trkpt lat="-34.90963" lon="-58.03663">
        <time>2021-05-01T19:10:04Z</time>
      </trkpt>
      <trkpt lat="-34.90959" lon="-58.0366">
        <time>2021-05-01T19:10:05Z</time>
      </trkpt>
      <trkpt lat="-34.909554" lon="-58.036564">
        <time>2021-05-01T19:10:06Z</time>
      </trkpt>
      <trkpt lat="-34.90952" lon="-58.03652">
        <time>2021-05-01T19:10:07Z</time>
      </trkpt>
      <trkpt lat="-34.909477" lon="-58.036472">
        <time>2021-05-01T19:10:08Z</time>
      </trkpt>
      <trkpt lat="-34.90944" lon="-58.036434">
        <time>2021-05-01T19:10:09Z</time>
      </trkpt>
      <trkpt lat="-34.9094" lon="-58.0364">
        <time>2021-05-01T19:10:10Z</time>
      </trkpt>
      <trkpt lat="-34.909363" lon="-58.03636">
        <time>2021-05-01T19:10:11Z</time>
      </trkpt>
      <trkpt lat="-34.90933" lon="-58.036327">
        <time>2021-05-01T19:10:12Z</time>
      </trkpt>
      <trkpt lat="-34.909267" lon="-58.036263">
        <time>2021-05-01T19:10:14Z</time>
      </trkpt>
      <trkpt lat="-34.909233" lon="-58.036224">
        <time>2021-05-01T19:10:15Z</time>
      </trkpt>
      <trkpt lat="-34.909187" lon="-58.03619">
        <time>2021-05-01T19:10:16Z</time>
      </trkpt>
      <trkpt lat="-34.90915" lon="-58.036156">
        <time>2021-05-01T19:10:17Z</time>
      </trkpt>
      <trkpt lat="-34.90911" lon="-58.03612">
        <time>2021-05-01T19:10:18Z</time>
      </trkpt>
      <trkpt lat="-34.909077" lon="-58.036083">
        <time>2021-05-01T19:10:19Z</time>
      </trkpt>
      <trkpt lat="-34.90904" lon="-58.03605">
        <time>2021-05-01T19:10:20Z</time>
      </trkpt>
      <trkpt lat="-34.909004" lon="-58.036015">
        <time>2021-05-01T19:10:21Z</time>
      </trkpt>
      <trkpt lat="-34.90894" lon="-58.035946">
        <time>2021-05-01T19:10:23Z</time>
      </trkpt>
      <trkpt lat="-34.908867" lon="-58.035873">
        <time>2021-05-01T19:10:25Z</time>
      </trkpt>
      <trkpt lat="-34.90882" lon="-58.035835">
        <time>2021-05-01T19:10:26Z</time>
      </trkpt>
      <trkpt lat="-34.90878" lon="-58.0358">
        <time>2021-05-01T19:10:27Z</time>
      </trkpt>
      <trkpt lat="-34.908733" lon="-58.035763">
        <time>2021-05-01T19:10:28Z</time>
      </trkpt>
      <trkpt lat="-34.90869" lon="-58.03572">
        <time>2021-05-01T19:10:29Z</time>
      </trkpt>
      <trkpt lat="-34.908646" lon="-58.035683">
        <time>2021-05-01T19:10:30Z</time>
      </trkpt>
      <trkpt lat="-34.908596" lon="-58.035645">
        <time>2021-05-01T19:10:31Z</time>
      </trkpt>
      <trkpt lat="-34.90855" lon="-58.035606">
        <time>2021-05-01T19:10:32Z</time>
      </trkpt>
      <trkpt lat="-34.90851" lon="-58.035564">
        <time>2021-05-01T19:10:33Z</time>
      </trkpt>
      <trkpt lat="-34.90847" lon="-58.035526">
        <time>2021-05-01T19:10:34Z</time>
      </trkpt>
      <trkpt lat="-34.90843" lon="-58.035492">
        <time>2021-05-01T19:10:35Z</time>
      </trkpt>
      <trkpt lat="-34.908382" lon="-58.035454">
        <time>2021-05-01T19:10:36Z</time>
      </trkpt>
      <trkpt lat="-34.90834" lon="-58.03541">
        <time>2021-05-01T19:10:37Z</time>
      </trkpt>
      <trkpt lat="-34.9083" lon="-58.03537">
        <time>2021-05-01T19:10:38Z</time>
      </trkpt>
      <trkpt lat="-34.908257" lon="-58.03533">
        <time>2021-05-01T19:10:39Z</time>
      </trkpt>
      <trkpt lat="-34.908215" lon="-58.035294">
        <time>2021-05-01T19:10:40Z</time>
      </trkpt>
      <trkpt lat="-34.908173" lon="-58.035255">
        <time>2021-05-01T19:10:41Z</time>
      </trkpt>
      <trkpt lat="-34.908134" lon="-58.035217">
        <time>2021-05-01T19:10:42Z</time>
      </trkpt>
      <trkpt lat="-34.908092" lon="-58.03518">
        <time>2021-05-01T19:10:43Z</time>
      </trkpt>
      <trkpt lat="-34.90805" lon="-58.035133">
        <time>2021-05-01T19:10:44Z</time>
      </trkpt>
      <trkpt lat="-34.90801" lon="-58.03509">
        <time>2021-05-01T19:10:45Z</time>
      </trkpt>
      <trkpt lat="-34.907967" lon="-58.03505">
        <time>2021-05-01T19:10:46Z</time>
      </trkpt>
      <trkpt lat="-34.907925" lon="-58.035004">
        <time>2021-05-01T19:10:47Z</time>
      </trkpt>
      <trkpt lat="-34.907883" lon="-58.034958">
        <time>2021-05-01T19:10:48Z</time>
      </trkpt>
      <trkpt lat="-34.90784" lon="-58.034916">
        <time>2021-05-01T19:10:49Z</time>
      </trkpt>
      <trkpt lat="-34.907795" lon="-58.03487">
        <time>2021-05-01T19:10:50Z</time>
      </trkpt>
      <trkpt lat="-34.907753" lon="-58.034832">
        <time>2021-05-01T19:10:51Z</time>
      </trkpt>
      <trkpt lat="-34.907707" lon="-58.03479">
        <time>2021-05-01T19:10:52Z</time>
      </trkpt>
      <trkpt lat="-34.90766" lon="-58.034748">
        <time>2021-05-01T19:10:53Z</time>
      </trkpt>
      <trkpt lat="-34.907623" lon="-58.034706">
        <time>2021-05-01T19:10:54Z</time>
      </trkpt>
      <trkpt lat="-34.907585" lon="-58.034664">
        <time>2021-05-01T19:10:55Z</time>
      </trkpt>
      <trkpt lat="-34.907543" lon="-58.034622">
        <time>2021-05-01T19:10:56Z</time>
      </trkpt>
      <trkpt lat="-34.9075" lon="-58.03459">
        <time>2021-05-01T19:10:57Z</time>
      </trkpt>
      <trkpt lat="-34.90746" lon="-58.034554">
        <time>2021-05-01T19:10:58Z</time>
      </trkpt>
      <trkpt lat="-34.907413" lon="-58.03451">
        <time>2021-05-01T19:10:59Z</time>
      </trkpt>
      <trkpt lat="-34.907368" lon="-58.03447">
        <time>2021-05-01T19:11:00Z</time>
      </trkpt>
      <trkpt lat="-34.907322" lon="-58.034435">
        <time>2021-05-01T19:11:01Z</time>
      </trkpt>
      <trkpt lat="-34.90728" lon="-58.034397">
        <time>2021-05-01T19:11:02Z</time>
      </trkpt>
      <trkpt lat="-34.907238" lon="-58.034355">
        <time>2021-05-01T19:11:03Z</time>
      </trkpt>
      <trkpt lat="-34.907192" lon="-58.034313">
        <time>2021-05-01T19:11:04Z</time>
      </trkpt>
      <trkpt lat="-34.90715" lon="-58.03427">
        <time>2021-05-01T19:11:05Z</time>
      </trkpt>
      <trkpt lat="-34.907104" lon="-58.03423">
        <time>2021-05-01T19:11:06Z</time>
      </trkpt>
      <trkpt lat="-34.907055" lon="-58.034187">
        <time>2021-05-01T19:11:07Z</time>
      </trkpt>
      <trkpt lat="-34.90701" lon="-58.03415">
        <time>2021-05-01T19:11:08Z</time>
      </trkpt>
      <trkpt lat="-34.90696" lon="-58.034107">
        <time>2021-05-01T19:11:09Z</time>
      </trkpt>
      <trkpt lat="-34.906918" lon="-58.03407">
        <time>2021-05-01T19:11:10Z</time>
      </trkpt>
      <trkpt lat="-34.906876" lon="-58.034027">
        <time>2021-05-01T19:11:11Z</time>
      </trkpt>
      <trkpt lat="-34.90683" lon="-58.033985">
        <time>2021-05-01T19:11:12Z</time>
      </trkpt>
      <trkpt lat="-34.906784" lon="-58.033943">
        <time>2021-05-01T19:11:13Z</time>
      </trkpt>
      <trkpt lat="-34.906734" lon="-58.033905">
        <time>2021-05-01T19:11:14Z</time>
      </trkpt>
      <trkpt lat="-34.90669" lon="-58.033863">
        <time>2021-05-01T19:11:15Z</time>
      </trkpt>
      <trkpt lat="-34.906643" lon="-58.03382">
        <time>2021-05-01T19:11:16Z</time>
      </trkpt>
      <trkpt lat="-34.9066" lon="-58.033783">
        <time>2021-05-01T19:11:17Z</time>
      </trkpt>
      <trkpt lat="-34.906555" lon="-58.033737">
        <time>2021-05-01T19:11:18Z</time>
      </trkpt>
      <trkpt lat="-34.90651" lon="-58.033684">
        <time>2021-05-01T19:11:19Z</time>
      </trkpt>
      <trkpt lat="-34.906456" lon="-58.033638">
        <time>2021-05-01T19:11:20Z</time>
      </trkpt>
      <trkpt lat="-34.906403" lon="-58.033592">
        <time>2021-05-01T19:11:21Z</time>
      </trkpt>
      <trkpt lat="-34.906353" lon="-58.033546">
        <time>2021-05-01T19:11:22Z</time>
      </trkpt>
      <trkpt lat="-34.906303" lon="-58.033497">
        <time>2021-05-01T19:11:23Z</time>
      </trkpt>
      <trkpt lat="-34.906254" lon="-58.03345">
        <time>2021-05-01T19:11:24Z</time>
      </trkpt>
      <trkpt lat="-34.906204" lon="-58.033405">
        <time>2021-05-01T19:11:25Z</time>
      </trkpt>
      <trkpt lat="-34.90615" lon="-58.033356">
        <time>2021-05-01T19:11:26Z</time>
      </trkpt>
      <trkpt lat="-34.9061" lon="-58.033306">
        <time>2021-05-01T19:11:27Z</time>
      </trkpt>
      <trkpt lat="-34.906044" lon="-58.03326">
        <time>2021-05-01T19:11:28Z</time>
      </trkpt>
      <trkpt lat="-34.90599" lon="-58.033207">
        <time>2021-05-01T19:11:29Z</time>
      </trkpt>
      <trkpt lat="-34.905937" lon="-58.033157">
        <time>2021-05-01T19:11:30Z</time>
      </trkpt>
      <trkpt lat="-34.90588" lon="-58.033108">
        <time>2021-05-01T19:11:31Z</time>
      </trkpt>
      <trkpt lat="-34.905827" lon="-58.03306">
        <time>2021-05-01T19:11:32Z</time>
      </trkpt>
      <trkpt lat="-34.905773" lon="-58.03301">
        <time>2021-05-01T19:11:33Z</time>
      </trkpt>
      <trkpt lat="-34.90572" lon="-58.032955">
        <time>2021-05-01T19:11:34Z</time>
      </trkpt>
      <trkpt lat="-34.905666" lon="-58.032906">
        <time>2021-05-01T19:11:35Z</time>
      </trkpt>
      <trkpt lat="-34.905613" lon="-58.032856">
        <time>2021-05-01T19:11:36Z</time>
      </trkpt>
      <trkpt lat="-34.90556" lon="-58.032806">
        <time>2021-05-01T19:11:37Z</time>
      </trkpt>
      <trkpt lat="-34.90551" lon="-58.032757">
        <time>2021-05-01T19:11:38Z</time>
      </trkpt>
      <trkpt lat="-34.90546" lon="-58.032707">
        <time>2021-05-01T19:11:39Z</time>
      </trkpt>
      <trkpt lat="-34.90541" lon="-58.032665">
        <time>2021-05-01T19:11:40Z</time>
      </trkpt>
      <trkpt lat="-34.905357" lon="-58.03262">
        <time>2021-05-01T19:11:41Z</time>
      </trkpt>
      <trkpt lat="-34.90531" lon="-58.032574">
        <time>2021-05-01T19:11:42Z</time>
      </trkpt>
      <trkpt lat="-34.905266" lon="-58.032528">
        <time>2021-05-01T19:11:43Z</time>
      </trkpt>
      <trkpt lat="-34.905216" lon="-58.032482">
        <time>2021-05-01T19:11:44Z</time>
      </trkpt>
      <trkpt lat="-34.90517" lon="-58.032436">
        <time>2021-05-01T19:11:45Z</time>
      </trkpt>
      <trkpt lat="-34.90512" lon="-58.032387">
        <time>2021-05-01T19:11:46Z</time>
      </trkpt>
      <trkpt lat="-34.905067" lon="-58.03234">
        <time>2021-05-01T19:11:47Z</time>
      </trkpt>
      <trkpt lat="-34.905018" lon="-58.03229">
        <time>2021-05-01T19:11:48Z</time>
      </trkpt>
      <trkpt lat="-34.90497" lon="-58.03224">
        <time>2021-05-01T19:11:49Z</time>
      </trkpt>
      <trkpt lat="-34.90492" lon="-58.032196">
        <time>2021-05-01T19:11:50Z</time>
      </trkpt>
      <trkpt lat="-34.904865" lon="-58.032146">
        <time>2021-05-01T19:11:51Z</time>
      </trkpt>
      <trkpt lat="-34.90481" lon="-58.032097">
        <time>2021-05-01T19:11:52Z</time>
      </trkpt>
      <trkpt lat="-34.904762" lon="-58.032047">
        <time>2021-05-01T19:11:53Z</time>
      </trkpt>
      <trkpt lat="-34.90471" lon="-58.032">
        <time>2021-05-01T19:11:54Z</time>
      </trkpt>
      <trkpt lat="-34.904655" lon="-58.03195">
        <time>2021-05-01T19:11:55Z</time>
      </trkpt>
      <trkpt lat="-34.904602" lon="-58.031902">
        <time>2021-05-01T19:11:56Z</time>
      </trkpt>
      <trkpt lat="-34.90455" lon="-58.031857">
        <time>2021-05-01T19:11:57Z</time>
      </trkpt>
      <trkpt lat="-34.904495" lon="-58.031807">
        <time>2021-05-01T19:11:58Z</time>
      </trkpt>
      <trkpt lat="-34.904446" lon="-58.031757">
        <time>2021-05-01T19:11:59Z</time>
      </trkpt>
      <trkpt lat="-34.904396" lon="-58.03171">
        <time>2021-05-01T19:12:00Z</time>
      </trkpt>
      <trkpt lat="-34.904343" lon="-58.031666">
        <time>2021-05-01T19:12:01Z</time>
      </trkpt>
      <trkpt lat="-34.904297" lon="-58.03162">
        <time>2021-05-01T19:12:02Z</time>
      </trkpt>
      <trkpt lat="-34.904247" lon="-58.031578">
        <time>2021-05-01T19:12:03Z</time>
      </trkpt>
      <trkpt lat="-34.904198" lon="-58.031536">
        <time>2021-05-01T19:12:04Z</time>
      </trkpt>
      <trkpt lat="-34.90415" lon="-58.03149">
        <time>2021-05-01T19:12:05Z</time>
      </trkpt>
      <trkpt lat="-34.904102" lon="-58.031445">
        <time>2021-05-01T19:12:06Z</time>
      </trkpt>
      <trkpt lat="-34.904057" lon="-58.0314">
        <time>2021-05-01T19:12:07Z</time>
      </trkpt>
      <trkpt lat="-34.904007" lon="-58.031353">
        <time>2021-05-01T19:12:08Z</time>
      </trkpt>
      <trkpt lat="-34.903965" lon="-58.03131">
        <time>2021-05-01T19:12:09Z</time>
      </trkpt>
      <trkpt lat="-34.903915" lon="-58.03127">
        <time>2021-05-01T19:12:10Z</time>
      </trkpt>
      <trkpt lat="-34.903873" lon="-58.031227">
        <time>2021-05-01T19:12:11Z</time>
      </trkpt>
      <trkpt lat="-34.903828" lon="-58.03118">
        <time>2021-05-01T19:12:12Z</time>
      </trkpt>
      <trkpt lat="-34.903778" lon="-58.03114">
        <time>2021-05-01T19:12:13Z</time>
      </trkpt>
      <trkpt lat="-34.903736" lon="-58.031097">
        <time>2021-05-01T19:12:14Z</time>
      </trkpt>
      <trkpt lat="-34.90369" lon="-58.03105">
        <time>2021-05-01T19:12:15Z</time>
      </trkpt>
      <trkpt lat="-34.903645" lon="-58.03101">
        <time>2021-05-01T19:12:16Z</time>
      </trkpt>
      <trkpt lat="-34.9036" lon="-58.030968">
        <time>2021-05-01T19:12:17Z</time>
      </trkpt>
      <trkpt lat="-34.903557" lon="-58.03093">
        <time>2021-05-01T19:12:18Z</time>
      </trkpt>
      <trkpt lat="-34.90352" lon="-58.030895">
        <time>2021-05-01T19:12:19Z</time>
      </trkpt>
      <trkpt lat="-34.903477" lon="-58.030853">
        <time>2021-05-01T19:12:20Z</time>
      </trkpt>
      <trkpt lat="-34.903435" lon="-58.03081">
        <time>2021-05-01T19:12:21Z</time>
      </trkpt>
      <trkpt lat="-34.903393" lon="-58.030773">
        <time>2021-05-01T19:12:22Z</time>
      </trkpt>
      <trkpt lat="-34.903347" lon="-58.030727">
        <time>2021-05-01T19:12:23Z</time>
      </trkpt>
      <trkpt lat="-34.9033" lon="-58.030685">
        <time>2021-05-01T19:12:24Z</time>
      </trkpt>
      <trkpt lat="-34.903255" lon="-58.030643">
        <time>2021-05-01T19:12:25Z</time>
      </trkpt>
      <trkpt lat="-34.903214" lon="-58.0306">
        <time>2021-05-01T19:12:26Z</time>
      </trkpt>
      <trkpt lat="-34.90317" lon="-58.030563">
        <time>2021-05-01T19:12:27Z</time>
      </trkpt>
      <trkpt lat="-34.90313" lon="-58.03052">
        <time>2021-05-01T19:12:28Z</time>
      </trkpt>
      <trkpt lat="-34.903088" lon="-58.030483">
        <time>2021-05-01T19:12:29Z</time>
      </trkpt>
      <trkpt lat="-34.90304" lon="-58.03044">
        <time>2021-05-01T19:12:30Z</time>
      </trkpt>
      <trkpt lat="-34.903" lon="-58.0304">
        <time>2021-05-01T19:12:31Z</time>
      </trkpt>
      <trkpt lat="-34.902958" lon="-58.030357">
        <time>2021-05-01T19:12:32Z</time>
      </trkpt>
      <trkpt lat="-34.902916" lon="-58.03032">
        <time>2021-05-01T19:12:33Z</time>
      </trkpt>
      <trkpt lat="-34.90287" lon="-58.030273">
        <time>2021-05-01T19:12:34Z</time>
      </trkpt>
      <trkpt lat="-34.902824" lon="-58.03023">
        <time>2021-05-01T19:12:35Z</time>
      </trkpt>
      <trkpt lat="-34.902782" lon="-58.03019">
        <time>2021-05-01T19:12:36Z</time>
      </trkpt>
      <trkpt lat="-34.90274" lon="-58.03015">
        <time>2021-05-01T19:12:37Z</time>
      </trkpt>
      <trkpt lat="-34.9027" lon="-58.030113">
        <time>2021-05-01T19:12:38Z</time>
      </trkpt>
      <trkpt lat="-34.902657" lon="-58.030075">
        <time>2021-05-01T19:12:39Z</time>
      </trkpt>
      <trkpt lat="-34.90262" lon="-58.030045">
        <time>2021-05-01T19:12:40Z</time>
      </trkpt>
      <trkpt lat="-34.902584" lon="-58.03001">
        <time>2021-05-01T19:12:41Z</time>
      </trkpt>
      <trkpt lat="-34.902515" lon="-58.029945">
        <time>2021-05-01T19:12:43Z</time>
      </trkpt>
      <trkpt lat="-34.902462" lon="-58.029854">
        <time>2021-05-01T19:12:45Z</time>
      </trkpt>
      <trkpt lat="-34.902447" lon="-58.029793">
        <time>2021-05-01T19:12:46Z</time>
      </trkpt>
      <trkpt lat="-34.90243" lon="-58.02973">
        <time>2021-05-01T19:12:47Z</time>
      </trkpt>
      <trkpt lat="-34.902412" lon="-58.02967">
        <time>2021-05-01T19:12:48Z</time>
      </trkpt>
      <trkpt lat="-34.90239" lon="-58.029613">
        <time>2021-05-01T19:12:49Z</time>
      </trkpt>
      <trkpt lat="-34.902355" lon="-58.029568">
        <time>2021-05-01T19:12:50Z</time>
      </trkpt>
      <trkpt lat="-34.902313" lon="-58.029537">
        <time>2021-05-01T19:12:51Z</time>
      </trkpt>
      <trkpt lat="-34.90227" lon="-58.029503">
        <time>2021-05-01T19:12:52Z</time>
      </trkpt>
      <trkpt lat="-34.90223" lon="-58.02947">
        <time>2021-05-01T19:12:53Z</time>
      </trkpt>
      <trkpt lat="-34.90219" lon="-58.02943">
        <time>2021-05-01T19:12:54Z</time>
      </trkpt>
      <trkpt lat="-34.902145" lon="-58.029396">
        <time>2021-05-01T19:12:55Z</time>
      </trkpt>
      <trkpt lat="-34.9021" lon="-58.02936">
        <time>2021-05-01T19:12:56Z</time>
      </trkpt>
      <trkpt lat="-34.902058" lon="-58.029324">
        <time>2021-05-01T19:12:57Z</time>
      </trkpt>
      <trkpt lat="-34.902016" lon="-58.02929">
        <time>2021-05-01T19:12:58Z</time>
      </trkpt>
      <trkpt lat="-34.901974" lon="-58.02925">
        <time>2021-05-01T19:12:59Z</time>
      </trkpt>
      <trkpt lat="-34.90194" lon="-58.029217">
        <time>2021-05-01T19:13:00Z</time>
      </trkpt>
      <trkpt lat="-34.901897" lon="-58.029182">
        <time>2021-05-01T19:13:01Z</time>
      </trkpt>
      <trkpt lat="-34.90186" lon="-58.02915">
        <time>2021-05-01T19:13:02Z</time>
      </trkpt>
      <trkpt lat="-34.901825" lon="-58.029114">
        <time>2021-05-01T19:13:03Z</time>
      </trkpt>
      <trkpt lat="-34.90176" lon="-58.029057">
        <time>2021-05-01T19:13:05Z</time>
      </trkpt>
      <trkpt lat="-34.9017" lon="-58.029015">
        <time>2021-05-01T19:13:07Z</time>
      </trkpt>
      <trkpt lat="-34.901634" lon="-58.02895">
        <time>2021-05-01T19:13:09Z</time>
      </trkpt>
      <trkpt lat="-34.901596" lon="-58.028915">
        <time>2021-05-01T19:13:10Z</time>
      </trkpt>
      <trkpt lat="-34.90155" lon="-58.02889">
        <time>2021-05-01T19:13:11Z</time>
      </trkpt>
      <trkpt lat="-34.90151" lon="-58.028862">
        <time>2021-05-01T19:13:12Z</time>
      </trkpt>
      <trkpt lat="-34.901466" lon="-58.028828">
        <time>2021-05-01T19:13:13Z</time>
      </trkpt>
      <trkpt lat="-34.901424" lon="-58.028786">
        <time>2021-05-01T19:13:14Z</time>
      </trkpt>
      <trkpt lat="-34.901386" lon="-58.028748">
        <time>2021-05-01T19:13:15Z</time>
      </trkpt>
      <trkpt lat="-34.90135" lon="-58.028706">
        <time>2021-05-01T19:13:16Z</time>
      </trkpt>
      <trkpt lat="-34.901306" lon="-58.02867">
        <time>2021-05-01T19:13:17Z</time>
      </trkpt>
      <trkpt lat="-34.901264" lon="-58.028645">
        <time>2021-05-01T19:13:18Z</time>
      </trkpt>
      <trkpt lat="-34.901226" lon="-58.028614">
        <time>2021-05-01T19:13:19Z</time>
      </trkpt>
      <trkpt lat="-34.901188" lon="-58.02858">
        <time>2021-05-01T19:13:20Z</time>
      </trkpt>
      <trkpt lat="-34.901146" lon="-58.02855">
        <time>2021-05-01T19:13:21Z</time>
      </trkpt>
      <trkpt lat="-34.901108" lon="-58.02852">
        <time>2021-05-01T19:13:22Z</time>
      </trkpt>
      <trkpt lat="-34.901035" lon="-58.028465">
        <time>2021-05-01T19:13:24Z</time>
      </trkpt>
      <trkpt lat="-34.90096" lon="-58.028427">
        <time>2021-05-01T19:13:26Z</time>
      </trkpt>
      <trkpt lat="-34.900887" lon="-58.02845">
        <time>2021-05-01T19:13:28Z</time>
      </trkpt>
      <trkpt lat="-34.900814" lon="-58.02845">
        <time>2021-05-01T19:13:30Z</time>
      </trkpt>
      <trkpt lat="-34.900757" lon="-58.028423">
        <time>2021-05-01T19:13:32Z</time>
      </trkpt>
      <trkpt lat="-34.900696" lon="-58.028355">
        <time>2021-05-01T19:13:34Z</time>
      </trkpt>
      <trkpt lat="-34.900646" lon="-58.028316">
        <time>2021-05-01T19:13:35Z</time>
      </trkpt>
      <trkpt lat="-34.900608" lon="-58.028282">
        <time>2021-05-01T19:13:36Z</time>
      </trkpt>
      <trkpt lat="-34.900566" lon="-58.028248">
        <time>2021-05-01T19:13:37Z</time>
      </trkpt>
      <trkpt lat="-34.90052" lon="-58.02821">
        <time>2021-05-01T19:13:38Z</time>
      </trkpt>
      <trkpt lat="-34.900475" lon="-58.02817">
        <time>2021-05-01T19:13:39Z</time>
      </trkpt>
      <trkpt lat="-34.90043" lon="-58.028133">
        <time>2021-05-01T19:13:40Z</time>
      </trkpt>
      <trkpt lat="-34.900383" lon="-58.02809">
        <time>2021-05-01T19:13:41Z</time>
      </trkpt>
      <trkpt lat="-34.900333" lon="-58.028057">
        <time>2021-05-01T19:13:42Z</time>
      </trkpt>
      <trkpt lat="-34.900284" lon="-58.028015">
        <time>2021-05-01T19:13:43Z</time>
      </trkpt>
      <trkpt lat="-34.900238" lon="-58.027977">
        <time>2021-05-01T19:13:44Z</time>
      </trkpt>
      <trkpt lat="-34.900192" lon="-58.027935">
        <time>2021-05-01T19:13:45Z</time>
      </trkpt>
      <trkpt lat="-34.900146" lon="-58.0279">
        <time>2021-05-01T19:13:46Z</time>
      </trkpt>
      <trkpt lat="-34.9001" lon="-58.027866">
        <time>2021-05-01T19:13:47Z</time>
      </trkpt>
      <trkpt lat="-34.90005" lon="-58.02783">
        <time>2021-05-01T19:13:48Z</time>
      </trkpt>
      <trkpt lat="-34.900005" lon="-58.02779">
        <time>2021-05-01T19:13:49Z</time>
      </trkpt>
      <trkpt lat="-34.899956" lon="-58.027752">
        <time>2021-05-01T19:13:50Z</time>
      </trkpt>
      <trkpt lat="-34.899906" lon="-58.027714">
        <time>2021-05-01T19:13:51Z</time>
      </trkpt>
      <trkpt lat="-34.899857" lon="-58.027668">
        <time>2021-05-01T19:13:52Z</time>
      </trkpt>
      <trkpt lat="-34.899807" lon="-58.02763">
        <time>2021-05-01T19:13:53Z</time>
      </trkpt>
      <trkpt lat="-34.899754" lon="-58.027588">
        <time>2021-05-01T19:13:54Z</time>
      </trkpt>
      <trkpt lat="-34.899704" lon="-58.027542">
        <time>2021-05-01T19:13:55Z</time>
      </trkpt>
      <trkpt lat="-34.89965" lon="-58.027496">
        <time>2021-05-01T19:13:56Z</time>
      </trkpt>
      <trkpt lat="-34.899597" lon="-58.027454">
        <time>2021-05-01T19:13:57Z</time>
      </trkpt>
      <trkpt lat="-34.899548" lon="-58.02741">
        <time>2021-05-01T19:13:58Z</time>
      </trkpt>
      <trkpt lat="-34.89949" lon="-58.027363">
        <time>2021-05-01T19:13:59Z</time>
      </trkpt>
      <trkpt lat="-34.899437" lon="-58.02732">
        <time>2021-05-01T19:14:00Z</time>
      </trkpt>
      <trkpt lat="-34.899384" lon="-58.027275">
        <time>2021-05-01T19:14:01Z</time>
      </trkpt>
      <trkpt lat="-34.899334" lon="-58.027233">
        <time>2021-05-01T19:14:02Z</time>
      </trkpt>
      <trkpt lat="-34.899284" lon="-58.027195">
        <time>2021-05-01T19:14:03Z</time>
      </trkpt>
      <trkpt lat="-34.899235" lon="-58.027153">
        <time>2021-05-01T19:14:04Z</time>
      </trkpt>
      <trkpt lat="-34.899185" lon="-58.027115">
        <time>2021-05-01T19:14:05Z</time>
      </trkpt>
      <trkpt lat="-34.899136" lon="-58.02707">
        <time>2021-05-01T19:14:06Z</time>
      </trkpt>
      <trkpt lat="-34.899086" lon="-58.02703">
        <time>2021-05-01T19:14:07Z</time>
      </trkpt>
      <trkpt lat="-34.899036" lon="-58.02699">
        <time>2021-05-01T19:14:08Z</time>
      </trkpt>
      <trkpt lat="-34.89899" lon="-58.02695">
        <time>2021-05-01T19:14:09Z</time>
      </trkpt>
      <trkpt lat="-34.898945" lon="-58.026913">
        <time>2021-05-01T19:14:10Z</time>
      </trkpt>
      <trkpt lat="-34.898903" lon="-58.026875">
        <time>2021-05-01T19:14:11Z</time>
      </trkpt>
      <trkpt lat="-34.898857" lon="-58.026833">
        <time>2021-05-01T19:14:12Z</time>
      </trkpt>
      <trkpt lat="-34.89881" lon="-58.026794">
        <time>2021-05-01T19:14:13Z</time>
      </trkpt>
      <trkpt lat="-34.89876" lon="-58.02676">
        <time>2021-05-01T19:14:14Z</time>
      </trkpt>
      <trkpt lat="-34.898712" lon="-58.026722">
        <time>2021-05-01T19:14:15Z</time>
      </trkpt>
      <trkpt lat="-34.898663" lon="-58.026684">
        <time>2021-05-01T19:14:16Z</time>
      </trkpt>
      <trkpt lat="-34.898617" lon="-58.02664">
        <time>2021-05-01T19:14:17Z</time>
      </trkpt>
      <trkpt lat="-34.89857" lon="-58.0266">
        <time>2021-05-01T19:14:18Z</time>
      </trkpt>
      <trkpt lat="-34.898525" lon="-58.026566">
        <time>2021-05-01T19:14:19Z</time>
      </trkpt>
      <trkpt lat="-34.89848" lon="-58.026535">
        <time>2021-05-01T19:14:20Z</time>
      </trkpt>
      <trkpt lat="-34.898434" lon="-58.0265">
        <time>2021-05-01T19:14:21Z</time>
      </trkpt>
      <trkpt lat="-34.898388" lon="-58.026466">
        <time>2021-05-01T19:14:22Z</time>
      </trkpt>
      <trkpt lat="-34.89834" lon="-58.02643">
        <time>2021-05-01T19:14:23Z</time>
      </trkpt>
      <trkpt lat="-34.89829" lon="-58.026394">
        <time>2021-05-01T19:14:24Z</time>
      </trkpt>
      <trkpt lat="-34.898247" lon="-58.026356">
        <time>2021-05-01T19:14:25Z</time>
      </trkpt>
      <trkpt lat="-34.898197" lon="-58.026318">
        <time>2021-05-01T19:14:26Z</time>
      </trkpt>
      <trkpt lat="-34.89815" lon="-58.02628">
        <time>2021-05-01T19:14:27Z</time>
      </trkpt>
      <trkpt lat="-34.89811" lon="-58.026237">
        <time>2021-05-01T19:14:28Z</time>
      </trkpt>
      <trkpt lat="-34.89806" lon="-58.0262">
        <time>2021-05-01T19:14:29Z</time>
      </trkpt>
      <trkpt lat="-34.89801" lon="-58.02616">
        <time>2021-05-01T19:14:30Z</time>
      </trkpt>
      <trkpt lat="-34.897964" lon="-58.026127">
        <time>2021-05-01T19:14:31Z</time>
      </trkpt>
      <trkpt lat="-34.89792" lon="-58.026093">
        <time>2021-05-01T19:14:32Z</time>
      </trkpt>
      <trkpt lat="-34.897873" lon="-58.026054">
        <time>2021-05-01T19:14:33Z</time>
      </trkpt>
      <trkpt lat="-34.897827" lon="-58.026012">
        <time>2021-05-01T19:14:34Z</time>
      </trkpt>
      <trkpt lat="-34.897778" lon="-58.02597">
        <time>2021-05-01T19:14:35Z</time>
      </trkpt>
      <trkpt lat="-34.89773" lon="-58.025932">
        <time>2021-05-01T19:14:36Z</time>
      </trkpt>
      <trkpt lat="-34.89768" lon="-58.02589">
        <time>2021-05-01T19:14:37Z</time>
      </trkpt>
      <trkpt lat="-34.897625" lon="-58.02585">
        <time>2021-05-01T19:14:38Z</time>
      </trkpt>
      <trkpt lat="-34.89757" lon="-58.025806">
        <time>2021-05-01T19:14:39Z</time>
      </trkpt>
      <trkpt lat="-34.897522" lon="-58.025764">
        <time>2021-05-01T19:14:40Z</time>
      </trkpt>
      <trkpt lat="-34.897472" lon="-58.025723">
        <time>2021-05-01T19:14:41Z</time>
      </trkpt>
      <trkpt lat="-34.897423" lon="-58.025684">
        <time>2021-05-01T19:14:42Z</time>
      </trkpt>
      <trkpt lat="-34.897377" lon="-58.025642">
        <time>2021-05-01T19:14:43Z</time>
      </trkpt>
      <trkpt lat="-34.897335" lon="-58.0256">
        <time>2021-05-01T19:14:44Z</time>
      </trkpt>
      <trkpt lat="-34.8973" lon="-58.025555">
        <time>2021-05-01T19:14:45Z</time>
      </trkpt>
      <trkpt lat="-34.897266" lon="-58.025517">
        <time>2021-05-01T19:14:46Z</time>
      </trkpt>
      <trkpt lat="-34.897232" lon="-58.02547">
        <time>2021-05-01T19:14:47Z</time>
      </trkpt>
      <trkpt lat="-34.897194" lon="-58.02543">
        <time>2021-05-01T19:14:48Z</time>
      </trkpt>
      <trkpt lat="-34.89714" lon="-58.025394">
        <time>2021-05-01T19:14:49Z</time>
      </trkpt>
      <trkpt lat="-34.897087" lon="-58.025352">
        <time>2021-05-01T19:14:50Z</time>
      </trkpt>
      <trkpt lat="-34.897034" lon="-58.02532">
        <time>2021-05-01T19:14:51Z</time>
      </trkpt>
      <trkpt lat="-34.896984" lon="-58.025276">
        <time>2021-05-01T19:14:52Z</time>
      </trkpt>
      <trkpt lat="-34.89693" lon="-58.025234">
        <time>2021-05-01T19:14:53Z</time>
      </trkpt>
      <trkpt lat="-34.89688" lon="-58.025192">
        <time>2021-05-01T19:14:54Z</time>
      </trkpt>
      <trkpt lat="-34.89683" lon="-58.025154">
        <time>2021-05-01T19:14:55Z</time>
      </trkpt>
      <trkpt lat="-34.896786" lon="-58.025112">
        <time>2021-05-01T19:14:56Z</time>
      </trkpt>
      <trkpt lat="-34.89674" lon="-58.025074">
        <time>2021-05-01T19:14:57Z</time>
      </trkpt>
      <trkpt lat="-34.89669" lon="-58.025032">
        <time>2021-05-01T19:14:58Z</time>
      </trkpt>
      <trkpt lat="-34.896637" lon="-58.024994">
        <time>2021-05-01T19:14:59Z</time>
      </trkpt>
      <trkpt lat="-34.89659" lon="-58.024956">
        <time>2021-05-01T19:15:00Z</time>
      </trkpt>
      <trkpt lat="-34.89654" lon="-58.024914">
        <time>2021-05-01T19:15:01Z</time>
      </trkpt>
      <trkpt lat="-34.89649" lon="-58.024876">
        <time>2021-05-01T19:15:02Z</time>
      </trkpt>
      <trkpt lat="-34.896442" lon="-58.024834">
        <time>2021-05-01T19:15:03Z</time>
      </trkpt>
      <trkpt lat="-34.896393" lon="-58.024796">
        <time>2021-05-01T19:15:04Z</time>
      </trkpt>
      <trkpt lat="-34.896343" lon="-58.024757">
        <time>2021-05-01T19:15:05Z</time>
      </trkpt>
      <trkpt lat="-34.896297" lon="-58.02472">
        <time>2021-05-01T19:15:06Z</time>
      </trkpt>
      <trkpt lat="-34.896255" lon="-58.02468">
        <time>2021-05-01T19:15:07Z</time>
      </trkpt>
      <trkpt lat="-34.896206" lon="-58.024643">
        <time>2021-05-01T19:15:08Z</time>
      </trkpt>
      <trkpt lat="-34.89616" lon="-58.0246">
        <time>2021-05-01T19:15:09Z</time>
      </trkpt>
      <trkpt lat="-34.89611" lon="-58.024563">
        <time>2021-05-01T19:15:10Z</time>
      </trkpt>
      <trkpt lat="-34.896057" lon="-58.02453">
        <time>2021-05-01T19:15:11Z</time>
      </trkpt>
      <trkpt lat="-34.89601" lon="-58.024498">
        <time>2021-05-01T19:15:12Z</time>
      </trkpt>
      <trkpt lat="-34.895958" lon="-58.024464">
        <time>2021-05-01T19:15:13Z</time>
      </trkpt>
      <trkpt lat="-34.89591" lon="-58.024426">
        <time>2021-05-01T19:15:14Z</time>
      </trkpt>
      <trkpt lat="-34.895863" lon="-58.024387">
        <time>2021-05-01T19:15:15Z</time>
      </trkpt>
      <trkpt lat="-34.89582" lon="-58.024353">
        <time>2021-05-01T19:15:16Z</time>
      </trkpt>
      <trkpt lat="-34.89578" lon="-58.02432">
        <time>2021-05-01T19:15:17Z</time>
      </trkpt>
      <trkpt lat="-34.895733" lon="-58.02428">
        <time>2021-05-01T19:15:18Z</time>
      </trkpt>
      <trkpt lat="-34.89568" lon="-58.024246">
        <time>2021-05-01T19:15:19Z</time>
      </trkpt>
      <trkpt lat="-34.89563" lon="-58.024204">
        <time>2021-05-01T19:15:20Z</time>
      </trkpt>
      <trkpt lat="-34.89558" lon="-58.02416">
        <time>2021-05-01T19:15:21Z</time>
      </trkpt>
      <trkpt lat="-34.89553" lon="-58.024117">
        <time>2021-05-01T19:15:22Z</time>
      </trkpt>
      <trkpt lat="-34.895485" lon="-58.02408">
        <time>2021-05-01T19:15:23Z</time>
      </trkpt>
      <trkpt lat="-34.89544" lon="-58.02404">
        <time>2021-05-01T19:15:24Z</time>
      </trkpt>
      <trkpt lat="-34.895393" lon="-58.024002">
        <time>2021-05-01T19:15:25Z</time>
      </trkpt>
      <trkpt lat="-34.895348" lon="-58.023964">
        <time>2021-05-01T19:15:26Z</time>
      </trkpt>
      <trkpt lat="-34.8953" lon="-58.02393">
        <time>2021-05-01T19:15:27Z</time>
      </trkpt>
      <trkpt lat="-34.895264" lon="-58.02389">
        <time>2021-05-01T19:15:28Z</time>
      </trkpt>
      <trkpt lat="-34.895226" lon="-58.02385">
        <time>2021-05-01T19:15:29Z</time>
      </trkpt>
      <trkpt lat="-34.89519" lon="-58.023815">
        <time>2021-05-01T19:15:30Z</time>
      </trkpt>
      <trkpt lat="-34.895134" lon="-58.023746">
        <time>2021-05-01T19:15:32Z</time>
      </trkpt>
      <trkpt lat="-34.895115" lon="-58.02373">
        <time>2021-05-01T19:15:42Z</time>
      </trkpt>
      <trkpt lat="-34.895084" lon="-58.02374">
        <time>2021-05-01T19:15:52Z</time>
      </trkpt>
      <trkpt lat="-34.895084" lon="-58.02374">
        <time>2021-05-01T19:16:02Z</time>
      </trkpt>
      <trkpt lat="-34.895073" lon="-58.023647">
        <time>2021-05-01T19:16:20Z</time>
      </trkpt>
      <trkpt lat="-34.895016" lon="-58.0236">
        <time>2021-05-01T19:17:02Z</time>
      </trkpt>
      <trkpt lat="-34.895016" lon="-58.02361">
        <time>2021-05-01T19:17:22Z</time>
      </trkpt>
      <trkpt lat="-34.895042" lon="-58.02352">
        <time>2021-05-01T19:17:53Z</time>
      </trkpt>
      <trkpt lat="-34.895042" lon="-58.02352">
        <time>2021-05-01T19:18:03Z</time>
      </trkpt>
      <trkpt lat="-34.89516" lon="-58.023445">
        <time>2021-05-01T19:18:11Z</time>
      </trkpt>
      <trkpt lat="-34.89511" lon="-58.023453">
        <time>2021-05-01T19:18:11Z</time>
      </trkpt>
      <trkpt lat="-34.895218" lon="-58.023556">
        <time>2021-05-01T19:18:38Z</time>
      </trkpt>
      <trkpt lat="-34.89519" lon="-58.023502">
        <time>2021-05-01T19:18:38Z</time>
      </trkpt>
      <trkpt lat="-34.895218" lon="-58.02355">
        <time>2021-05-01T19:18:56Z</time>
      </trkpt>
    </trkseg>
  </trk>
</gpx>
